<?xml version="1.0" encoding="UTF-8" standalone="no" ?>
<gpx xmlns="http://www.topografix.com/GPX/1/1" xmlns:xsi="http://www.w3.org/2001/XMLSchema-instance" xsi:schemaLocation="http://www.topografix.com/GPX/1/1 http://www.topografix.com/GPX/1/1/gpx.xsd" version="1.1" creator="VisuGPX - https://www.visugpx.com">
  <metadata>
    <name>Latitud\'enduro 2012</name>
    <desc><![CDATA[Latitud\'enduro 2012 à Calvisson
1ere manche du championnat régional languedoc roussillon]]></desc>
  </metadata>
  <trk>
    <name><![CDATA[Latitud\'enduro 2012_1]]></name>
    <trkseg>
      <trkpt lat="43.80693" lon="4.18306">
        <ele>185</ele>
        <time>2012-03-11T08:19:47Z</time>
      </trkpt>
      <trkpt lat="43.80713" lon="4.18333">
        <ele>184</ele>
        <time>2012-03-11T08:21:15Z</time>
      </trkpt>
      <trkpt lat="43.80716" lon="4.18334">
        <ele>183</ele>
        <time>2012-03-11T08:21:16Z</time>
      </trkpt>
      <trkpt lat="43.80717" lon="4.18336">
        <ele>182</ele>
        <time>2012-03-11T08:21:17Z</time>
      </trkpt>
      <trkpt lat="43.80718" lon="4.18339">
        <ele>182</ele>
        <time>2012-03-11T08:21:18Z</time>
      </trkpt>
      <trkpt lat="43.80718" lon="4.18341">
        <ele>181</ele>
        <time>2012-03-11T08:21:19Z</time>
      </trkpt>
      <trkpt lat="43.80717" lon="4.18343">
        <ele>180</ele>
        <time>2012-03-11T08:21:20Z</time>
      </trkpt>
      <trkpt lat="43.80714" lon="4.18345">
        <ele>179</ele>
        <time>2012-03-11T08:21:21Z</time>
      </trkpt>
      <trkpt lat="43.8071" lon="4.18348">
        <ele>179</ele>
        <time>2012-03-11T08:21:22Z</time>
      </trkpt>
      <trkpt lat="43.80707" lon="4.18351">
        <ele>178</ele>
        <time>2012-03-11T08:21:23Z</time>
      </trkpt>
      <trkpt lat="43.80705" lon="4.18355">
        <ele>177</ele>
        <time>2012-03-11T08:21:24Z</time>
      </trkpt>
      <trkpt lat="43.80705" lon="4.18357">
        <ele>176</ele>
        <time>2012-03-11T08:21:25Z</time>
      </trkpt>
      <trkpt lat="43.80707" lon="4.18358">
        <ele>175</ele>
        <time>2012-03-11T08:21:26Z</time>
      </trkpt>
      <trkpt lat="43.80709" lon="4.1836">
        <ele>175</ele>
        <time>2012-03-11T08:21:27Z</time>
      </trkpt>
      <trkpt lat="43.80712" lon="4.18361">
        <ele>174</ele>
        <time>2012-03-11T08:21:28Z</time>
      </trkpt>
      <trkpt lat="43.80716" lon="4.18363">
        <ele>174</ele>
        <time>2012-03-11T08:21:29Z</time>
      </trkpt>
      <trkpt lat="43.80721" lon="4.18364">
        <ele>173</ele>
        <time>2012-03-11T08:21:30Z</time>
      </trkpt>
      <trkpt lat="43.80725" lon="4.18366">
        <ele>172</ele>
        <time>2012-03-11T08:21:31Z</time>
      </trkpt>
      <trkpt lat="43.80729" lon="4.18369">
        <ele>172</ele>
        <time>2012-03-11T08:21:32Z</time>
      </trkpt>
      <trkpt lat="43.80732" lon="4.18372">
        <ele>171</ele>
        <time>2012-03-11T08:21:33Z</time>
      </trkpt>
      <trkpt lat="43.80735" lon="4.18375">
        <ele>170</ele>
        <time>2012-03-11T08:21:34Z</time>
      </trkpt>
      <trkpt lat="43.80738" lon="4.18378">
        <ele>169</ele>
        <time>2012-03-11T08:21:35Z</time>
      </trkpt>
      <trkpt lat="43.8074" lon="4.18381">
        <ele>169</ele>
        <time>2012-03-11T08:21:36Z</time>
      </trkpt>
      <trkpt lat="43.80742" lon="4.18385">
        <ele>168</ele>
        <time>2012-03-11T08:21:37Z</time>
      </trkpt>
      <trkpt lat="43.80744" lon="4.18388">
        <ele>167</ele>
        <time>2012-03-11T08:21:38Z</time>
      </trkpt>
      <trkpt lat="43.80747" lon="4.18391">
        <ele>166</ele>
        <time>2012-03-11T08:21:39Z</time>
      </trkpt>
      <trkpt lat="43.80751" lon="4.18394">
        <ele>166</ele>
        <time>2012-03-11T08:21:40Z</time>
      </trkpt>
      <trkpt lat="43.80755" lon="4.18397">
        <ele>165</ele>
        <time>2012-03-11T08:21:41Z</time>
      </trkpt>
      <trkpt lat="43.80759" lon="4.18399">
        <ele>164</ele>
        <time>2012-03-11T08:21:42Z</time>
      </trkpt>
      <trkpt lat="43.80763" lon="4.18403">
        <ele>163</ele>
        <time>2012-03-11T08:21:43Z</time>
      </trkpt>
      <trkpt lat="43.80767" lon="4.18405">
        <ele>162</ele>
        <time>2012-03-11T08:21:44Z</time>
      </trkpt>
      <trkpt lat="43.80772" lon="4.18407">
        <ele>161</ele>
        <time>2012-03-11T08:21:45Z</time>
      </trkpt>
      <trkpt lat="43.80775" lon="4.18408">
        <ele>160</ele>
        <time>2012-03-11T08:21:46Z</time>
      </trkpt>
      <trkpt lat="43.80778" lon="4.1841">
        <ele>159</ele>
        <time>2012-03-11T08:21:47Z</time>
      </trkpt>
      <trkpt lat="43.80781" lon="4.18412">
        <ele>158</ele>
        <time>2012-03-11T08:21:48Z</time>
      </trkpt>
      <trkpt lat="43.80785" lon="4.18415">
        <ele>157</ele>
        <time>2012-03-11T08:21:49Z</time>
      </trkpt>
      <trkpt lat="43.80788" lon="4.18417">
        <ele>156</ele>
        <time>2012-03-11T08:21:50Z</time>
      </trkpt>
      <trkpt lat="43.80791" lon="4.18417">
        <ele>155</ele>
        <time>2012-03-11T08:21:51Z</time>
      </trkpt>
      <trkpt lat="43.80793" lon="4.18418">
        <ele>154</ele>
        <time>2012-03-11T08:21:52Z</time>
      </trkpt>
      <trkpt lat="43.80795" lon="4.18421">
        <ele>153</ele>
        <time>2012-03-11T08:21:53Z</time>
      </trkpt>
      <trkpt lat="43.80795" lon="4.18424">
        <ele>152</ele>
        <time>2012-03-11T08:21:54Z</time>
      </trkpt>
      <trkpt lat="43.80796" lon="4.18427">
        <ele>151</ele>
        <time>2012-03-11T08:21:55Z</time>
      </trkpt>
      <trkpt lat="43.80797" lon="4.1843">
        <ele>150</ele>
        <time>2012-03-11T08:21:56Z</time>
      </trkpt>
      <trkpt lat="43.80798" lon="4.18434">
        <ele>149</ele>
        <time>2012-03-11T08:21:57Z</time>
      </trkpt>
      <trkpt lat="43.80797" lon="4.18438">
        <ele>148</ele>
        <time>2012-03-11T08:21:58Z</time>
      </trkpt>
      <trkpt lat="43.80796" lon="4.18442">
        <ele>147</ele>
        <time>2012-03-11T08:21:59Z</time>
      </trkpt>
      <trkpt lat="43.80795" lon="4.18445">
        <ele>146</ele>
        <time>2012-03-11T08:22:00Z</time>
      </trkpt>
      <trkpt lat="43.80793" lon="4.18449">
        <ele>145</ele>
        <time>2012-03-11T08:22:01Z</time>
      </trkpt>
      <trkpt lat="43.80791" lon="4.18453">
        <ele>144</ele>
        <time>2012-03-11T08:22:02Z</time>
      </trkpt>
      <trkpt lat="43.8079" lon="4.18456">
        <ele>143</ele>
        <time>2012-03-11T08:22:03Z</time>
      </trkpt>
      <trkpt lat="43.8079" lon="4.18461">
        <ele>142</ele>
        <time>2012-03-11T08:22:04Z</time>
      </trkpt>
      <trkpt lat="43.8079" lon="4.18465">
        <ele>141</ele>
        <time>2012-03-11T08:22:05Z</time>
      </trkpt>
      <trkpt lat="43.80789" lon="4.1847">
        <ele>140</ele>
        <time>2012-03-11T08:22:06Z</time>
      </trkpt>
      <trkpt lat="43.80789" lon="4.18474">
        <ele>139</ele>
        <time>2012-03-11T08:22:07Z</time>
      </trkpt>
      <trkpt lat="43.8079" lon="4.18478">
        <ele>138</ele>
        <time>2012-03-11T08:22:08Z</time>
      </trkpt>
      <trkpt lat="43.80791" lon="4.18483">
        <ele>137</ele>
        <time>2012-03-11T08:22:09Z</time>
      </trkpt>
      <trkpt lat="43.80794" lon="4.1849">
        <ele>136</ele>
        <time>2012-03-11T08:22:10Z</time>
      </trkpt>
      <trkpt lat="43.80796" lon="4.18496">
        <ele>135</ele>
        <time>2012-03-11T08:22:11Z</time>
      </trkpt>
      <trkpt lat="43.80797" lon="4.18503">
        <ele>134</ele>
        <time>2012-03-11T08:22:12Z</time>
      </trkpt>
      <trkpt lat="43.80798" lon="4.18509">
        <ele>133</ele>
        <time>2012-03-11T08:22:13Z</time>
      </trkpt>
      <trkpt lat="43.80797" lon="4.18516">
        <ele>132</ele>
        <time>2012-03-11T08:22:14Z</time>
      </trkpt>
      <trkpt lat="43.80797" lon="4.18522">
        <ele>131</ele>
        <time>2012-03-11T08:22:15Z</time>
      </trkpt>
      <trkpt lat="43.80796" lon="4.18527">
        <ele>130</ele>
        <time>2012-03-11T08:22:16Z</time>
      </trkpt>
      <trkpt lat="43.80794" lon="4.18529">
        <ele>129</ele>
        <time>2012-03-11T08:22:17Z</time>
      </trkpt>
      <trkpt lat="43.80792" lon="4.18531">
        <ele>128</ele>
        <time>2012-03-11T08:22:18Z</time>
      </trkpt>
      <trkpt lat="43.80791" lon="4.18532">
        <ele>127</ele>
        <time>2012-03-11T08:22:19Z</time>
      </trkpt>
      <trkpt lat="43.8079" lon="4.18535">
        <ele>126</ele>
        <time>2012-03-11T08:22:20Z</time>
      </trkpt>
      <trkpt lat="43.80791" lon="4.18537">
        <ele>125</ele>
        <time>2012-03-11T08:22:21Z</time>
      </trkpt>
      <trkpt lat="43.80793" lon="4.18539">
        <ele>124</ele>
        <time>2012-03-11T08:22:22Z</time>
      </trkpt>
      <trkpt lat="43.80795" lon="4.18542">
        <ele>123</ele>
        <time>2012-03-11T08:22:23Z</time>
      </trkpt>
      <trkpt lat="43.80796" lon="4.18548">
        <ele>122</ele>
        <time>2012-03-11T08:22:24Z</time>
      </trkpt>
      <trkpt lat="43.80797" lon="4.18554">
        <ele>121</ele>
        <time>2012-03-11T08:22:25Z</time>
      </trkpt>
      <trkpt lat="43.80798" lon="4.18559">
        <ele>120</ele>
        <time>2012-03-11T08:22:26Z</time>
      </trkpt>
      <trkpt lat="43.808" lon="4.18566">
        <ele>119</ele>
        <time>2012-03-11T08:22:27Z</time>
      </trkpt>
      <trkpt lat="43.80803" lon="4.18572">
        <ele>118</ele>
        <time>2012-03-11T08:22:28Z</time>
      </trkpt>
      <trkpt lat="43.80804" lon="4.18576">
        <ele>117</ele>
        <time>2012-03-11T08:22:29Z</time>
      </trkpt>
      <trkpt lat="43.80806" lon="4.1858">
        <ele>116</ele>
        <time>2012-03-11T08:22:30Z</time>
      </trkpt>
      <trkpt lat="43.8081" lon="4.18584">
        <ele>115</ele>
        <time>2012-03-11T08:22:31Z</time>
      </trkpt>
      <trkpt lat="43.80812" lon="4.18588">
        <ele>113</ele>
        <time>2012-03-11T08:22:32Z</time>
      </trkpt>
      <trkpt lat="43.80815" lon="4.18594">
        <ele>112</ele>
        <time>2012-03-11T08:22:33Z</time>
      </trkpt>
      <trkpt lat="43.80817" lon="4.18599">
        <ele>111</ele>
        <time>2012-03-11T08:22:34Z</time>
      </trkpt>
      <trkpt lat="43.80818" lon="4.18605">
        <ele>110</ele>
        <time>2012-03-11T08:22:35Z</time>
      </trkpt>
      <trkpt lat="43.8082" lon="4.18612">
        <ele>109</ele>
        <time>2012-03-11T08:22:36Z</time>
      </trkpt>
      <trkpt lat="43.80822" lon="4.1862">
        <ele>108</ele>
        <time>2012-03-11T08:22:37Z</time>
      </trkpt>
      <trkpt lat="43.80823" lon="4.18626">
        <ele>107</ele>
        <time>2012-03-11T08:22:38Z</time>
      </trkpt>
      <trkpt lat="43.80823" lon="4.18634">
        <ele>106</ele>
        <time>2012-03-11T08:22:39Z</time>
      </trkpt>
      <trkpt lat="43.80823" lon="4.1864">
        <ele>105</ele>
        <time>2012-03-11T08:22:40Z</time>
      </trkpt>
      <trkpt lat="43.80823" lon="4.18644">
        <ele>104</ele>
        <time>2012-03-11T08:22:41Z</time>
      </trkpt>
      <trkpt lat="43.80824" lon="4.18649">
        <ele>103</ele>
        <time>2012-03-11T08:22:42Z</time>
      </trkpt>
      <trkpt lat="43.80825" lon="4.18653">
        <ele>102</ele>
        <time>2012-03-11T08:22:43Z</time>
      </trkpt>
      <trkpt lat="43.80827" lon="4.18658">
        <ele>101</ele>
        <time>2012-03-11T08:22:44Z</time>
      </trkpt>
      <trkpt lat="43.80828" lon="4.18663">
        <ele>100</ele>
        <time>2012-03-11T08:22:45Z</time>
      </trkpt>
      <trkpt lat="43.80829" lon="4.18667">
        <ele>99</ele>
        <time>2012-03-11T08:22:46Z</time>
      </trkpt>
      <trkpt lat="43.8083" lon="4.1867">
        <ele>98</ele>
        <time>2012-03-11T08:22:47Z</time>
      </trkpt>
      <trkpt lat="43.80831" lon="4.18674">
        <ele>97</ele>
        <time>2012-03-11T08:22:48Z</time>
      </trkpt>
      <trkpt lat="43.80832" lon="4.18677">
        <ele>96</ele>
        <time>2012-03-11T08:22:49Z</time>
      </trkpt>
      <trkpt lat="43.80833" lon="4.18681">
        <ele>95</ele>
        <time>2012-03-11T08:22:50Z</time>
      </trkpt>
      <trkpt lat="43.80834" lon="4.18684">
        <ele>94</ele>
        <time>2012-03-11T08:22:51Z</time>
      </trkpt>
      <trkpt lat="43.80833" lon="4.18687">
        <ele>93</ele>
        <time>2012-03-11T08:22:52Z</time>
      </trkpt>
      <trkpt lat="43.80833" lon="4.18691">
        <ele>92</ele>
        <time>2012-03-11T08:22:53Z</time>
      </trkpt>
      <trkpt lat="43.80832" lon="4.18696">
        <ele>92</ele>
        <time>2012-03-11T08:22:54Z</time>
      </trkpt>
      <trkpt lat="43.80832" lon="4.18701">
        <ele>91</ele>
        <time>2012-03-11T08:22:55Z</time>
      </trkpt>
      <trkpt lat="43.80833" lon="4.18708">
        <ele>90</ele>
        <time>2012-03-11T08:22:56Z</time>
      </trkpt>
      <trkpt lat="43.80833" lon="4.18716">
        <ele>89</ele>
        <time>2012-03-11T08:22:57Z</time>
      </trkpt>
      <trkpt lat="43.80834" lon="4.18724">
        <ele>88</ele>
        <time>2012-03-11T08:22:58Z</time>
      </trkpt>
      <trkpt lat="43.80833" lon="4.18731">
        <ele>87</ele>
        <time>2012-03-11T08:22:59Z</time>
      </trkpt>
      <trkpt lat="43.80833" lon="4.18737">
        <ele>87</ele>
        <time>2012-03-11T08:23:00Z</time>
      </trkpt>
      <trkpt lat="43.80834" lon="4.18743">
        <ele>87</ele>
        <time>2012-03-11T08:23:02Z</time>
      </trkpt>
      <trkpt lat="43.80836" lon="4.18749">
        <ele>87</ele>
        <time>2012-03-11T08:23:02Z</time>
      </trkpt>
      <trkpt lat="43.8084" lon="4.18757">
        <ele>86</ele>
        <time>2012-03-11T08:23:03Z</time>
      </trkpt>
      <trkpt lat="43.80842" lon="4.18764">
        <ele>86</ele>
        <time>2012-03-11T08:23:04Z</time>
      </trkpt>
      <trkpt lat="43.80844" lon="4.18771">
        <ele>85</ele>
        <time>2012-03-11T08:23:05Z</time>
      </trkpt>
      <trkpt lat="43.80844" lon="4.18777">
        <ele>84</ele>
        <time>2012-03-11T08:23:06Z</time>
      </trkpt>
      <trkpt lat="43.80843" lon="4.18781">
        <ele>83</ele>
        <time>2012-03-11T08:23:07Z</time>
      </trkpt>
      <trkpt lat="43.80842" lon="4.18785">
        <ele>82</ele>
        <time>2012-03-11T08:23:08Z</time>
      </trkpt>
      <trkpt lat="43.80844" lon="4.18788">
        <ele>81</ele>
        <time>2012-03-11T08:23:09Z</time>
      </trkpt>
      <trkpt lat="43.80848" lon="4.18788">
        <ele>80</ele>
        <time>2012-03-11T08:23:10Z</time>
      </trkpt>
      <trkpt lat="43.80853" lon="4.18787">
        <ele>79</ele>
        <time>2012-03-11T08:23:11Z</time>
      </trkpt>
      <trkpt lat="43.80861" lon="4.18786">
        <ele>78</ele>
        <time>2012-03-11T08:23:12Z</time>
      </trkpt>
      <trkpt lat="43.80867" lon="4.18785">
        <ele>77</ele>
        <time>2012-03-11T08:23:13Z</time>
      </trkpt>
      <trkpt lat="43.80872" lon="4.18785">
        <ele>76</ele>
        <time>2012-03-11T08:23:14Z</time>
      </trkpt>
      <trkpt lat="43.80874" lon="4.18786">
        <ele>75</ele>
        <time>2012-03-11T08:23:15Z</time>
      </trkpt>
      <trkpt lat="43.80875" lon="4.18786">
        <ele>73</ele>
        <time>2012-03-11T08:23:22Z</time>
      </trkpt>
      <trkpt lat="43.80875" lon="4.18787">
        <ele>73</ele>
        <time>2012-03-11T08:23:30Z</time>
      </trkpt>
      <trkpt lat="43.80873" lon="4.18787">
        <ele>73</ele>
        <time>2012-03-11T08:23:34Z</time>
      </trkpt>
      <trkpt lat="43.80873" lon="4.18785">
        <ele>73</ele>
        <time>2012-03-11T08:23:49Z</time>
      </trkpt>
      <trkpt lat="43.80874" lon="4.18783">
        <ele>73</ele>
        <time>2012-03-11T08:23:51Z</time>
      </trkpt>
      <trkpt lat="43.80874" lon="4.18782">
        <ele>73</ele>
        <time>2012-03-11T08:23:54Z</time>
      </trkpt>
      <trkpt lat="43.80875" lon="4.1878">
        <ele>73</ele>
        <time>2012-03-11T08:24:00Z</time>
      </trkpt>
      <trkpt lat="43.80875" lon="4.18778">
        <ele>73</ele>
        <time>2012-03-11T08:24:05Z</time>
      </trkpt>
      <trkpt lat="43.80874" lon="4.18777">
        <ele>73</ele>
        <time>2012-03-11T08:24:14Z</time>
      </trkpt>
      <trkpt lat="43.80872" lon="4.18776">
        <ele>73</ele>
        <time>2012-03-11T08:24:23Z</time>
      </trkpt>
      <trkpt lat="43.80873" lon="4.18777">
        <ele>73</ele>
        <time>2012-03-11T08:24:26Z</time>
      </trkpt>
      <trkpt lat="43.80874" lon="4.18778">
        <ele>73</ele>
        <time>2012-03-11T08:24:27Z</time>
      </trkpt>
      <trkpt lat="43.80876" lon="4.18778">
        <ele>73</ele>
        <time>2012-03-11T08:24:28Z</time>
      </trkpt>
      <trkpt lat="43.80878" lon="4.18778">
        <ele>73</ele>
        <time>2012-03-11T08:24:29Z</time>
      </trkpt>
      <trkpt lat="43.8088" lon="4.18778">
        <ele>73</ele>
        <time>2012-03-11T08:24:30Z</time>
      </trkpt>
      <trkpt lat="43.80881" lon="4.18778">
        <ele>73</ele>
        <time>2012-03-11T08:24:31Z</time>
      </trkpt>
      <trkpt lat="43.80884" lon="4.18778">
        <ele>73</ele>
        <time>2012-03-11T08:24:32Z</time>
      </trkpt>
      <trkpt lat="43.80887" lon="4.18778">
        <ele>73</ele>
        <time>2012-03-11T08:24:33Z</time>
      </trkpt>
      <trkpt lat="43.80889" lon="4.18779">
        <ele>73</ele>
        <time>2012-03-11T08:24:34Z</time>
      </trkpt>
      <trkpt lat="43.80893" lon="4.18779">
        <ele>73</ele>
        <time>2012-03-11T08:24:35Z</time>
      </trkpt>
      <trkpt lat="43.80896" lon="4.18778">
        <ele>73</ele>
        <time>2012-03-11T08:24:36Z</time>
      </trkpt>
      <trkpt lat="43.809" lon="4.18778">
        <ele>73</ele>
        <time>2012-03-11T08:24:37Z</time>
      </trkpt>
      <trkpt lat="43.80904" lon="4.18778">
        <ele>73</ele>
        <time>2012-03-11T08:24:38Z</time>
      </trkpt>
      <trkpt lat="43.80907" lon="4.18779">
        <ele>73</ele>
        <time>2012-03-11T08:24:39Z</time>
      </trkpt>
      <trkpt lat="43.80909" lon="4.18781">
        <ele>72</ele>
        <time>2012-03-11T08:24:40Z</time>
      </trkpt>
      <trkpt lat="43.80912" lon="4.18784">
        <ele>72</ele>
        <time>2012-03-11T08:24:41Z</time>
      </trkpt>
      <trkpt lat="43.80914" lon="4.18788">
        <ele>72</ele>
        <time>2012-03-11T08:24:42Z</time>
      </trkpt>
      <trkpt lat="43.80917" lon="4.18793">
        <ele>71</ele>
        <time>2012-03-11T08:24:43Z</time>
      </trkpt>
      <trkpt lat="43.80919" lon="4.18797">
        <ele>70</ele>
        <time>2012-03-11T08:24:44Z</time>
      </trkpt>
      <trkpt lat="43.8092" lon="4.18802">
        <ele>69</ele>
        <time>2012-03-11T08:24:45Z</time>
      </trkpt>
      <trkpt lat="43.80922" lon="4.18806">
        <ele>68</ele>
        <time>2012-03-11T08:24:46Z</time>
      </trkpt>
      <trkpt lat="43.80924" lon="4.1881">
        <ele>67</ele>
        <time>2012-03-11T08:24:47Z</time>
      </trkpt>
      <trkpt lat="43.80926" lon="4.18815">
        <ele>66</ele>
        <time>2012-03-11T08:24:48Z</time>
      </trkpt>
      <trkpt lat="43.80928" lon="4.1882">
        <ele>65</ele>
        <time>2012-03-11T08:24:49Z</time>
      </trkpt>
      <trkpt lat="43.8093" lon="4.18824">
        <ele>64</ele>
        <time>2012-03-11T08:24:50Z</time>
      </trkpt>
      <trkpt lat="43.80931" lon="4.18828">
        <ele>63</ele>
        <time>2012-03-11T08:24:51Z</time>
      </trkpt>
      <trkpt lat="43.80933" lon="4.18832">
        <ele>63</ele>
        <time>2012-03-11T08:24:52Z</time>
      </trkpt>
      <trkpt lat="43.80935" lon="4.18835">
        <ele>63</ele>
        <time>2012-03-11T08:24:53Z</time>
      </trkpt>
      <trkpt lat="43.80938" lon="4.18836">
        <ele>63</ele>
        <time>2012-03-11T08:24:54Z</time>
      </trkpt>
      <trkpt lat="43.80941" lon="4.18836">
        <ele>63</ele>
        <time>2012-03-11T08:24:55Z</time>
      </trkpt>
      <trkpt lat="43.80943" lon="4.18835">
        <ele>63</ele>
        <time>2012-03-11T08:24:56Z</time>
      </trkpt>
      <trkpt lat="43.80946" lon="4.18833">
        <ele>63</ele>
        <time>2012-03-11T08:24:57Z</time>
      </trkpt>
      <trkpt lat="43.80948" lon="4.18831">
        <ele>63</ele>
        <time>2012-03-11T08:24:58Z</time>
      </trkpt>
      <trkpt lat="43.80951" lon="4.18829">
        <ele>63</ele>
        <time>2012-03-11T08:24:59Z</time>
      </trkpt>
      <trkpt lat="43.80954" lon="4.18827">
        <ele>63</ele>
        <time>2012-03-11T08:25:00Z</time>
      </trkpt>
      <trkpt lat="43.80958" lon="4.18825">
        <ele>63</ele>
        <time>2012-03-11T08:25:01Z</time>
      </trkpt>
      <trkpt lat="43.80961" lon="4.18823">
        <ele>63</ele>
        <time>2012-03-11T08:25:02Z</time>
      </trkpt>
      <trkpt lat="43.80964" lon="4.18821">
        <ele>63</ele>
        <time>2012-03-11T08:25:03Z</time>
      </trkpt>
      <trkpt lat="43.80967" lon="4.18819">
        <ele>63</ele>
        <time>2012-03-11T08:25:04Z</time>
      </trkpt>
      <trkpt lat="43.8097" lon="4.18817">
        <ele>63</ele>
        <time>2012-03-11T08:25:05Z</time>
      </trkpt>
      <trkpt lat="43.80973" lon="4.18814">
        <ele>63</ele>
        <time>2012-03-11T08:25:06Z</time>
      </trkpt>
      <trkpt lat="43.80975" lon="4.18812">
        <ele>63</ele>
        <time>2012-03-11T08:25:07Z</time>
      </trkpt>
      <trkpt lat="43.80978" lon="4.18809">
        <ele>63</ele>
        <time>2012-03-11T08:25:08Z</time>
      </trkpt>
      <trkpt lat="43.80981" lon="4.18805">
        <ele>63</ele>
        <time>2012-03-11T08:25:09Z</time>
      </trkpt>
      <trkpt lat="43.80984" lon="4.18802">
        <ele>63</ele>
        <time>2012-03-11T08:25:10Z</time>
      </trkpt>
      <trkpt lat="43.80987" lon="4.188">
        <ele>63</ele>
        <time>2012-03-11T08:25:11Z</time>
      </trkpt>
      <trkpt lat="43.8099" lon="4.18796">
        <ele>63</ele>
        <time>2012-03-11T08:25:12Z</time>
      </trkpt>
      <trkpt lat="43.80992" lon="4.18794">
        <ele>63</ele>
        <time>2012-03-11T08:25:13Z</time>
      </trkpt>
      <trkpt lat="43.80994" lon="4.18792">
        <ele>63</ele>
        <time>2012-03-11T08:25:14Z</time>
      </trkpt>
      <trkpt lat="43.80996" lon="4.18789">
        <ele>63</ele>
        <time>2012-03-11T08:25:15Z</time>
      </trkpt>
      <trkpt lat="43.80999" lon="4.18787">
        <ele>63</ele>
        <time>2012-03-11T08:25:16Z</time>
      </trkpt>
      <trkpt lat="43.81001" lon="4.18786">
        <ele>63</ele>
        <time>2012-03-11T08:25:17Z</time>
      </trkpt>
      <trkpt lat="43.81004" lon="4.18783">
        <ele>63</ele>
        <time>2012-03-11T08:25:18Z</time>
      </trkpt>
      <trkpt lat="43.81007" lon="4.18781">
        <ele>62</ele>
        <time>2012-03-11T08:25:19Z</time>
      </trkpt>
      <trkpt lat="43.8101" lon="4.18778">
        <ele>62</ele>
        <time>2012-03-11T08:25:20Z</time>
      </trkpt>
      <trkpt lat="43.81012" lon="4.18775">
        <ele>62</ele>
        <time>2012-03-11T08:25:21Z</time>
      </trkpt>
      <trkpt lat="43.81015" lon="4.18772">
        <ele>61</ele>
        <time>2012-03-11T08:25:22Z</time>
      </trkpt>
      <trkpt lat="43.81018" lon="4.18769">
        <ele>60</ele>
        <time>2012-03-11T08:25:23Z</time>
      </trkpt>
      <trkpt lat="43.8102" lon="4.18765">
        <ele>60</ele>
        <time>2012-03-11T08:25:24Z</time>
      </trkpt>
      <trkpt lat="43.81023" lon="4.18762">
        <ele>59</ele>
        <time>2012-03-11T08:25:25Z</time>
      </trkpt>
      <trkpt lat="43.81025" lon="4.18758">
        <ele>59</ele>
        <time>2012-03-11T08:25:26Z</time>
      </trkpt>
      <trkpt lat="43.81028" lon="4.18754">
        <ele>59</ele>
        <time>2012-03-11T08:25:27Z</time>
      </trkpt>
      <trkpt lat="43.8103" lon="4.18751">
        <ele>59</ele>
        <time>2012-03-11T08:25:28Z</time>
      </trkpt>
      <trkpt lat="43.81032" lon="4.18747">
        <ele>59</ele>
        <time>2012-03-11T08:25:29Z</time>
      </trkpt>
      <trkpt lat="43.81034" lon="4.18744">
        <ele>59</ele>
        <time>2012-03-11T08:25:30Z</time>
      </trkpt>
      <trkpt lat="43.81036" lon="4.18741">
        <ele>59</ele>
        <time>2012-03-11T08:25:31Z</time>
      </trkpt>
      <trkpt lat="43.81037" lon="4.18739">
        <ele>59</ele>
        <time>2012-03-11T08:25:32Z</time>
      </trkpt>
      <trkpt lat="43.81039" lon="4.18736">
        <ele>59</ele>
        <time>2012-03-11T08:25:33Z</time>
      </trkpt>
      <trkpt lat="43.81041" lon="4.18733">
        <ele>59</ele>
        <time>2012-03-11T08:25:34Z</time>
      </trkpt>
      <trkpt lat="43.81042" lon="4.1873">
        <ele>59</ele>
        <time>2012-03-11T08:25:35Z</time>
      </trkpt>
      <trkpt lat="43.81044" lon="4.18727">
        <ele>59</ele>
        <time>2012-03-11T08:25:37Z</time>
      </trkpt>
      <trkpt lat="43.81045" lon="4.18724">
        <ele>59</ele>
        <time>2012-03-11T08:25:37Z</time>
      </trkpt>
      <trkpt lat="43.81047" lon="4.18721">
        <ele>59</ele>
        <time>2012-03-11T08:25:38Z</time>
      </trkpt>
      <trkpt lat="43.81048" lon="4.18719">
        <ele>59</ele>
        <time>2012-03-11T08:25:39Z</time>
      </trkpt>
      <trkpt lat="43.8105" lon="4.18716">
        <ele>59</ele>
        <time>2012-03-11T08:25:40Z</time>
      </trkpt>
      <trkpt lat="43.81052" lon="4.18714">
        <ele>59</ele>
        <time>2012-03-11T08:25:41Z</time>
      </trkpt>
      <trkpt lat="43.81054" lon="4.18711">
        <ele>59</ele>
        <time>2012-03-11T08:25:42Z</time>
      </trkpt>
      <trkpt lat="43.81055" lon="4.18708">
        <ele>59</ele>
        <time>2012-03-11T08:25:43Z</time>
      </trkpt>
      <trkpt lat="43.81055" lon="4.18705">
        <ele>59</ele>
        <time>2012-03-11T08:25:44Z</time>
      </trkpt>
      <trkpt lat="43.81055" lon="4.18702">
        <ele>59</ele>
        <time>2012-03-11T08:25:45Z</time>
      </trkpt>
      <trkpt lat="43.81054" lon="4.187">
        <ele>59</ele>
        <time>2012-03-11T08:25:46Z</time>
      </trkpt>
      <trkpt lat="43.81054" lon="4.18698">
        <ele>59</ele>
        <time>2012-03-11T08:25:47Z</time>
      </trkpt>
      <trkpt lat="43.81053" lon="4.18695">
        <ele>60</ele>
        <time>2012-03-11T08:25:48Z</time>
      </trkpt>
      <trkpt lat="43.81052" lon="4.18693">
        <ele>60</ele>
        <time>2012-03-11T08:25:49Z</time>
      </trkpt>
      <trkpt lat="43.81052" lon="4.18692">
        <ele>61</ele>
        <time>2012-03-11T08:25:50Z</time>
      </trkpt>
      <trkpt lat="43.81052" lon="4.1869">
        <ele>62</ele>
        <time>2012-03-11T08:25:51Z</time>
      </trkpt>
      <trkpt lat="43.81051" lon="4.18687">
        <ele>63</ele>
        <time>2012-03-11T08:25:52Z</time>
      </trkpt>
      <trkpt lat="43.81051" lon="4.18685">
        <ele>63</ele>
        <time>2012-03-11T08:25:53Z</time>
      </trkpt>
      <trkpt lat="43.8105" lon="4.18683">
        <ele>63</ele>
        <time>2012-03-11T08:25:54Z</time>
      </trkpt>
      <trkpt lat="43.81049" lon="4.1868">
        <ele>64</ele>
        <time>2012-03-11T08:25:55Z</time>
      </trkpt>
      <trkpt lat="43.81049" lon="4.18678">
        <ele>64</ele>
        <time>2012-03-11T08:25:56Z</time>
      </trkpt>
      <trkpt lat="43.81048" lon="4.18675">
        <ele>64</ele>
        <time>2012-03-11T08:25:57Z</time>
      </trkpt>
      <trkpt lat="43.81047" lon="4.18673">
        <ele>65</ele>
        <time>2012-03-11T08:25:58Z</time>
      </trkpt>
      <trkpt lat="43.81047" lon="4.18671">
        <ele>66</ele>
        <time>2012-03-11T08:25:59Z</time>
      </trkpt>
      <trkpt lat="43.81046" lon="4.18669">
        <ele>66</ele>
        <time>2012-03-11T08:26:00Z</time>
      </trkpt>
      <trkpt lat="43.81045" lon="4.18666">
        <ele>67</ele>
        <time>2012-03-11T08:26:01Z</time>
      </trkpt>
      <trkpt lat="43.81045" lon="4.18664">
        <ele>67</ele>
        <time>2012-03-11T08:26:02Z</time>
      </trkpt>
      <trkpt lat="43.81044" lon="4.18661">
        <ele>68</ele>
        <time>2012-03-11T08:26:03Z</time>
      </trkpt>
      <trkpt lat="43.81044" lon="4.18659">
        <ele>68</ele>
        <time>2012-03-11T08:26:04Z</time>
      </trkpt>
      <trkpt lat="43.81043" lon="4.18656">
        <ele>68</ele>
        <time>2012-03-11T08:26:05Z</time>
      </trkpt>
      <trkpt lat="43.81042" lon="4.18653">
        <ele>69</ele>
        <time>2012-03-11T08:26:06Z</time>
      </trkpt>
      <trkpt lat="43.81042" lon="4.18651">
        <ele>69</ele>
        <time>2012-03-11T08:26:07Z</time>
      </trkpt>
      <trkpt lat="43.81041" lon="4.18649">
        <ele>69</ele>
        <time>2012-03-11T08:26:08Z</time>
      </trkpt>
      <trkpt lat="43.81041" lon="4.18646">
        <ele>70</ele>
        <time>2012-03-11T08:26:09Z</time>
      </trkpt>
      <trkpt lat="43.81041" lon="4.18644">
        <ele>70</ele>
        <time>2012-03-11T08:26:10Z</time>
      </trkpt>
      <trkpt lat="43.8104" lon="4.18643">
        <ele>71</ele>
        <time>2012-03-11T08:26:11Z</time>
      </trkpt>
      <trkpt lat="43.81039" lon="4.18641">
        <ele>71</ele>
        <time>2012-03-11T08:26:12Z</time>
      </trkpt>
      <trkpt lat="43.81039" lon="4.18639">
        <ele>71</ele>
        <time>2012-03-11T08:26:13Z</time>
      </trkpt>
      <trkpt lat="43.81039" lon="4.18637">
        <ele>72</ele>
        <time>2012-03-11T08:26:14Z</time>
      </trkpt>
      <trkpt lat="43.81039" lon="4.18636">
        <ele>72</ele>
        <time>2012-03-11T08:26:15Z</time>
      </trkpt>
      <trkpt lat="43.81038" lon="4.18634">
        <ele>72</ele>
        <time>2012-03-11T08:26:16Z</time>
      </trkpt>
      <trkpt lat="43.81038" lon="4.18632">
        <ele>73</ele>
        <time>2012-03-11T08:26:17Z</time>
      </trkpt>
      <trkpt lat="43.81038" lon="4.1863">
        <ele>74</ele>
        <time>2012-03-11T08:26:18Z</time>
      </trkpt>
      <trkpt lat="43.81038" lon="4.18628">
        <ele>74</ele>
        <time>2012-03-11T08:26:19Z</time>
      </trkpt>
      <trkpt lat="43.81037" lon="4.18626">
        <ele>75</ele>
        <time>2012-03-11T08:26:20Z</time>
      </trkpt>
      <trkpt lat="43.81038" lon="4.18624">
        <ele>75</ele>
        <time>2012-03-11T08:26:21Z</time>
      </trkpt>
      <trkpt lat="43.81037" lon="4.18621">
        <ele>75</ele>
        <time>2012-03-11T08:26:22Z</time>
      </trkpt>
      <trkpt lat="43.81037" lon="4.1862">
        <ele>76</ele>
        <time>2012-03-11T08:26:23Z</time>
      </trkpt>
      <trkpt lat="43.81037" lon="4.18618">
        <ele>76</ele>
        <time>2012-03-11T08:26:24Z</time>
      </trkpt>
      <trkpt lat="43.81037" lon="4.18616">
        <ele>76</ele>
        <time>2012-03-11T08:26:25Z</time>
      </trkpt>
      <trkpt lat="43.81037" lon="4.18615">
        <ele>77</ele>
        <time>2012-03-11T08:26:26Z</time>
      </trkpt>
      <trkpt lat="43.81037" lon="4.18613">
        <ele>77</ele>
        <time>2012-03-11T08:26:27Z</time>
      </trkpt>
      <trkpt lat="43.81037" lon="4.18611">
        <ele>77</ele>
        <time>2012-03-11T08:26:28Z</time>
      </trkpt>
      <trkpt lat="43.81037" lon="4.1861">
        <ele>78</ele>
        <time>2012-03-11T08:26:31Z</time>
      </trkpt>
      <trkpt lat="43.81037" lon="4.18608">
        <ele>78</ele>
        <time>2012-03-11T08:26:34Z</time>
      </trkpt>
      <trkpt lat="43.81038" lon="4.18606">
        <ele>78</ele>
        <time>2012-03-11T08:26:36Z</time>
      </trkpt>
      <trkpt lat="43.81037" lon="4.18605">
        <ele>78</ele>
        <time>2012-03-11T08:26:39Z</time>
      </trkpt>
      <trkpt lat="43.81037" lon="4.18603">
        <ele>78</ele>
        <time>2012-03-11T08:26:42Z</time>
      </trkpt>
      <trkpt lat="43.81038" lon="4.18601">
        <ele>78</ele>
        <time>2012-03-11T08:26:51Z</time>
      </trkpt>
      <trkpt lat="43.81038" lon="4.18598">
        <ele>78</ele>
        <time>2012-03-11T08:26:53Z</time>
      </trkpt>
      <trkpt lat="43.81039" lon="4.18596">
        <ele>78</ele>
        <time>2012-03-11T08:26:55Z</time>
      </trkpt>
      <trkpt lat="43.81037" lon="4.18596">
        <ele>78</ele>
        <time>2012-03-11T08:27:01Z</time>
      </trkpt>
      <trkpt lat="43.81036" lon="4.18598">
        <ele>78</ele>
        <time>2012-03-11T08:27:12Z</time>
      </trkpt>
      <trkpt lat="43.81037" lon="4.18596">
        <ele>78</ele>
        <time>2012-03-11T08:27:16Z</time>
      </trkpt>
      <trkpt lat="43.81039" lon="4.18594">
        <ele>78</ele>
        <time>2012-03-11T08:27:18Z</time>
      </trkpt>
      <trkpt lat="43.81041" lon="4.18594">
        <ele>78</ele>
        <time>2012-03-11T08:27:20Z</time>
      </trkpt>
      <trkpt lat="43.81042" lon="4.18594">
        <ele>78</ele>
        <time>2012-03-11T08:27:22Z</time>
      </trkpt>
      <trkpt lat="43.81044" lon="4.18593">
        <ele>78</ele>
        <time>2012-03-11T08:27:23Z</time>
      </trkpt>
      <trkpt lat="43.81045" lon="4.18593">
        <ele>78</ele>
        <time>2012-03-11T08:27:24Z</time>
      </trkpt>
      <trkpt lat="43.81047" lon="4.18592">
        <ele>79</ele>
        <time>2012-03-11T08:27:25Z</time>
      </trkpt>
      <trkpt lat="43.81048" lon="4.18591">
        <ele>79</ele>
        <time>2012-03-11T08:27:26Z</time>
      </trkpt>
      <trkpt lat="43.8105" lon="4.1859">
        <ele>79</ele>
        <time>2012-03-11T08:27:27Z</time>
      </trkpt>
      <trkpt lat="43.81052" lon="4.18589">
        <ele>79</ele>
        <time>2012-03-11T08:27:28Z</time>
      </trkpt>
      <trkpt lat="43.81054" lon="4.18589">
        <ele>79</ele>
        <time>2012-03-11T08:27:29Z</time>
      </trkpt>
      <trkpt lat="43.81055" lon="4.18588">
        <ele>79</ele>
        <time>2012-03-11T08:27:30Z</time>
      </trkpt>
      <trkpt lat="43.81056" lon="4.18588">
        <ele>79</ele>
        <time>2012-03-11T08:27:31Z</time>
      </trkpt>
      <trkpt lat="43.81058" lon="4.18586">
        <ele>80</ele>
        <time>2012-03-11T08:27:33Z</time>
      </trkpt>
      <trkpt lat="43.8106" lon="4.18586">
        <ele>80</ele>
        <time>2012-03-11T08:27:34Z</time>
      </trkpt>
      <trkpt lat="43.81062" lon="4.18586">
        <ele>80</ele>
        <time>2012-03-11T08:27:35Z</time>
      </trkpt>
      <trkpt lat="43.81063" lon="4.18585">
        <ele>82</ele>
        <time>2012-03-11T08:27:37Z</time>
      </trkpt>
      <trkpt lat="43.81063" lon="4.18583">
        <ele>82</ele>
        <time>2012-03-11T08:27:39Z</time>
      </trkpt>
      <trkpt lat="43.81062" lon="4.18583">
        <ele>83</ele>
        <time>2012-03-11T08:27:41Z</time>
      </trkpt>
      <trkpt lat="43.8106" lon="4.18585">
        <ele>83</ele>
        <time>2012-03-11T08:27:43Z</time>
      </trkpt>
      <trkpt lat="43.81058" lon="4.18586">
        <ele>84</ele>
        <time>2012-03-11T08:27:44Z</time>
      </trkpt>
      <trkpt lat="43.81056" lon="4.18585">
        <ele>84</ele>
        <time>2012-03-11T08:27:45Z</time>
      </trkpt>
      <trkpt lat="43.81053" lon="4.18585">
        <ele>84</ele>
        <time>2012-03-11T08:27:46Z</time>
      </trkpt>
      <trkpt lat="43.81051" lon="4.18585">
        <ele>84</ele>
        <time>2012-03-11T08:27:47Z</time>
      </trkpt>
      <trkpt lat="43.81047" lon="4.18586">
        <ele>84</ele>
        <time>2012-03-11T08:27:48Z</time>
      </trkpt>
      <trkpt lat="43.81044" lon="4.18587">
        <ele>84</ele>
        <time>2012-03-11T08:27:49Z</time>
      </trkpt>
      <trkpt lat="43.81041" lon="4.18589">
        <ele>84</ele>
        <time>2012-03-11T08:27:50Z</time>
      </trkpt>
      <trkpt lat="43.81038" lon="4.18592">
        <ele>84</ele>
        <time>2012-03-11T08:27:51Z</time>
      </trkpt>
      <trkpt lat="43.81036" lon="4.18596">
        <ele>84</ele>
        <time>2012-03-11T08:27:52Z</time>
      </trkpt>
      <trkpt lat="43.81034" lon="4.18601">
        <ele>84</ele>
        <time>2012-03-11T08:27:53Z</time>
      </trkpt>
      <trkpt lat="43.81033" lon="4.18607">
        <ele>83</ele>
        <time>2012-03-11T08:27:54Z</time>
      </trkpt>
      <trkpt lat="43.81033" lon="4.18614">
        <ele>82</ele>
        <time>2012-03-11T08:27:55Z</time>
      </trkpt>
      <trkpt lat="43.81033" lon="4.18622">
        <ele>82</ele>
        <time>2012-03-11T08:27:56Z</time>
      </trkpt>
      <trkpt lat="43.81034" lon="4.18629">
        <ele>82</ele>
        <time>2012-03-11T08:27:57Z</time>
      </trkpt>
      <trkpt lat="43.81036" lon="4.18637">
        <ele>81</ele>
        <time>2012-03-11T08:27:58Z</time>
      </trkpt>
      <trkpt lat="43.81038" lon="4.18644">
        <ele>81</ele>
        <time>2012-03-11T08:27:59Z</time>
      </trkpt>
      <trkpt lat="43.81039" lon="4.18651">
        <ele>80</ele>
        <time>2012-03-11T08:28:00Z</time>
      </trkpt>
      <trkpt lat="43.81041" lon="4.1866">
        <ele>80</ele>
        <time>2012-03-11T08:28:01Z</time>
      </trkpt>
      <trkpt lat="43.81043" lon="4.18668">
        <ele>79</ele>
        <time>2012-03-11T08:28:02Z</time>
      </trkpt>
      <trkpt lat="43.81045" lon="4.18676">
        <ele>78</ele>
        <time>2012-03-11T08:28:03Z</time>
      </trkpt>
      <trkpt lat="43.81047" lon="4.18682">
        <ele>77</ele>
        <time>2012-03-11T08:28:04Z</time>
      </trkpt>
      <trkpt lat="43.81049" lon="4.18688">
        <ele>76</ele>
        <time>2012-03-11T08:28:05Z</time>
      </trkpt>
      <trkpt lat="43.8105" lon="4.18692">
        <ele>75</ele>
        <time>2012-03-11T08:28:06Z</time>
      </trkpt>
      <trkpt lat="43.81052" lon="4.18696">
        <ele>74</ele>
        <time>2012-03-11T08:28:07Z</time>
      </trkpt>
      <trkpt lat="43.81053" lon="4.18698">
        <ele>73</ele>
        <time>2012-03-11T08:28:08Z</time>
      </trkpt>
      <trkpt lat="43.81055" lon="4.18698">
        <ele>72</ele>
        <time>2012-03-11T08:28:09Z</time>
      </trkpt>
      <trkpt lat="43.81059" lon="4.18699">
        <ele>71</ele>
        <time>2012-03-11T08:28:10Z</time>
      </trkpt>
      <trkpt lat="43.81062" lon="4.18698">
        <ele>70</ele>
        <time>2012-03-11T08:28:11Z</time>
      </trkpt>
      <trkpt lat="43.81065" lon="4.18696">
        <ele>69</ele>
        <time>2012-03-11T08:28:12Z</time>
      </trkpt>
      <trkpt lat="43.81068" lon="4.18694">
        <ele>69</ele>
        <time>2012-03-11T08:28:13Z</time>
      </trkpt>
      <trkpt lat="43.81071" lon="4.18693">
        <ele>68</ele>
        <time>2012-03-11T08:28:14Z</time>
      </trkpt>
      <trkpt lat="43.81074" lon="4.18692">
        <ele>68</ele>
        <time>2012-03-11T08:28:15Z</time>
      </trkpt>
      <trkpt lat="43.81077" lon="4.18691">
        <ele>68</ele>
        <time>2012-03-11T08:28:16Z</time>
      </trkpt>
      <trkpt lat="43.8108" lon="4.18689">
        <ele>68</ele>
        <time>2012-03-11T08:28:17Z</time>
      </trkpt>
      <trkpt lat="43.81083" lon="4.18688">
        <ele>68</ele>
        <time>2012-03-11T08:28:18Z</time>
      </trkpt>
      <trkpt lat="43.81085" lon="4.18686">
        <ele>68</ele>
        <time>2012-03-11T08:28:19Z</time>
      </trkpt>
      <trkpt lat="43.81088" lon="4.18685">
        <ele>68</ele>
        <time>2012-03-11T08:28:20Z</time>
      </trkpt>
      <trkpt lat="43.81091" lon="4.18684">
        <ele>68</ele>
        <time>2012-03-11T08:28:21Z</time>
      </trkpt>
      <trkpt lat="43.81094" lon="4.18683">
        <ele>68</ele>
        <time>2012-03-11T08:28:22Z</time>
      </trkpt>
      <trkpt lat="43.81096" lon="4.18682">
        <ele>68</ele>
        <time>2012-03-11T08:28:23Z</time>
      </trkpt>
      <trkpt lat="43.81099" lon="4.18681">
        <ele>68</ele>
        <time>2012-03-11T08:28:24Z</time>
      </trkpt>
      <trkpt lat="43.81102" lon="4.1868">
        <ele>68</ele>
        <time>2012-03-11T08:28:25Z</time>
      </trkpt>
      <trkpt lat="43.81104" lon="4.18679">
        <ele>68</ele>
        <time>2012-03-11T08:28:26Z</time>
      </trkpt>
      <trkpt lat="43.81107" lon="4.18678">
        <ele>68</ele>
        <time>2012-03-11T08:28:27Z</time>
      </trkpt>
      <trkpt lat="43.81109" lon="4.18676">
        <ele>68</ele>
        <time>2012-03-11T08:28:28Z</time>
      </trkpt>
      <trkpt lat="43.81111" lon="4.18676">
        <ele>69</ele>
        <time>2012-03-11T08:28:29Z</time>
      </trkpt>
      <trkpt lat="43.81114" lon="4.18675">
        <ele>70</ele>
        <time>2012-03-11T08:28:30Z</time>
      </trkpt>
      <trkpt lat="43.81116" lon="4.18675">
        <ele>71</ele>
        <time>2012-03-11T08:28:31Z</time>
      </trkpt>
      <trkpt lat="43.81119" lon="4.18672">
        <ele>71</ele>
        <time>2012-03-11T08:28:32Z</time>
      </trkpt>
      <trkpt lat="43.81122" lon="4.18671">
        <ele>72</ele>
        <time>2012-03-11T08:28:33Z</time>
      </trkpt>
      <trkpt lat="43.81125" lon="4.18669">
        <ele>73</ele>
        <time>2012-03-11T08:28:34Z</time>
      </trkpt>
      <trkpt lat="43.81127" lon="4.18668">
        <ele>73</ele>
        <time>2012-03-11T08:28:35Z</time>
      </trkpt>
      <trkpt lat="43.8113" lon="4.18667">
        <ele>74</ele>
        <time>2012-03-11T08:28:36Z</time>
      </trkpt>
      <trkpt lat="43.81134" lon="4.18664">
        <ele>74</ele>
        <time>2012-03-11T08:28:37Z</time>
      </trkpt>
      <trkpt lat="43.81137" lon="4.18662">
        <ele>74</ele>
        <time>2012-03-11T08:28:38Z</time>
      </trkpt>
      <trkpt lat="43.8114" lon="4.18661">
        <ele>74</ele>
        <time>2012-03-11T08:28:39Z</time>
      </trkpt>
      <trkpt lat="43.81143" lon="4.18659">
        <ele>75</ele>
        <time>2012-03-11T08:28:40Z</time>
      </trkpt>
      <trkpt lat="43.81146" lon="4.18658">
        <ele>75</ele>
        <time>2012-03-11T08:28:41Z</time>
      </trkpt>
      <trkpt lat="43.8115" lon="4.18656">
        <ele>75</ele>
        <time>2012-03-11T08:28:42Z</time>
      </trkpt>
      <trkpt lat="43.81153" lon="4.18653">
        <ele>75</ele>
        <time>2012-03-11T08:28:43Z</time>
      </trkpt>
      <trkpt lat="43.81156" lon="4.18651">
        <ele>76</ele>
        <time>2012-03-11T08:28:44Z</time>
      </trkpt>
      <trkpt lat="43.81159" lon="4.18649">
        <ele>76</ele>
        <time>2012-03-11T08:28:45Z</time>
      </trkpt>
      <trkpt lat="43.81162" lon="4.18645">
        <ele>76</ele>
        <time>2012-03-11T08:28:46Z</time>
      </trkpt>
      <trkpt lat="43.81164" lon="4.18643">
        <ele>76</ele>
        <time>2012-03-11T08:28:47Z</time>
      </trkpt>
      <trkpt lat="43.81166" lon="4.1864">
        <ele>76</ele>
        <time>2012-03-11T08:28:48Z</time>
      </trkpt>
      <trkpt lat="43.81168" lon="4.18639">
        <ele>76</ele>
        <time>2012-03-11T08:28:49Z</time>
      </trkpt>
      <trkpt lat="43.81171" lon="4.18637">
        <ele>76</ele>
        <time>2012-03-11T08:28:50Z</time>
      </trkpt>
      <trkpt lat="43.81173" lon="4.18635">
        <ele>76</ele>
        <time>2012-03-11T08:28:51Z</time>
      </trkpt>
      <trkpt lat="43.81175" lon="4.18632">
        <ele>76</ele>
        <time>2012-03-11T08:28:52Z</time>
      </trkpt>
      <trkpt lat="43.81178" lon="4.1863">
        <ele>76</ele>
        <time>2012-03-11T08:28:53Z</time>
      </trkpt>
      <trkpt lat="43.81181" lon="4.18629">
        <ele>76</ele>
        <time>2012-03-11T08:28:54Z</time>
      </trkpt>
      <trkpt lat="43.81183" lon="4.18627">
        <ele>76</ele>
        <time>2012-03-11T08:28:55Z</time>
      </trkpt>
      <trkpt lat="43.81186" lon="4.18625">
        <ele>76</ele>
        <time>2012-03-11T08:28:56Z</time>
      </trkpt>
      <trkpt lat="43.81189" lon="4.18623">
        <ele>76</ele>
        <time>2012-03-11T08:28:57Z</time>
      </trkpt>
      <trkpt lat="43.81192" lon="4.18621">
        <ele>76</ele>
        <time>2012-03-11T08:28:58Z</time>
      </trkpt>
      <trkpt lat="43.81194" lon="4.18619">
        <ele>76</ele>
        <time>2012-03-11T08:28:59Z</time>
      </trkpt>
      <trkpt lat="43.81196" lon="4.18617">
        <ele>76</ele>
        <time>2012-03-11T08:29:00Z</time>
      </trkpt>
      <trkpt lat="43.812" lon="4.18613">
        <ele>76</ele>
        <time>2012-03-11T08:29:01Z</time>
      </trkpt>
      <trkpt lat="43.81202" lon="4.1861">
        <ele>76</ele>
        <time>2012-03-11T08:29:02Z</time>
      </trkpt>
      <trkpt lat="43.81204" lon="4.18606">
        <ele>76</ele>
        <time>2012-03-11T08:29:03Z</time>
      </trkpt>
      <trkpt lat="43.81206" lon="4.18603">
        <ele>76</ele>
        <time>2012-03-11T08:29:04Z</time>
      </trkpt>
      <trkpt lat="43.81207" lon="4.18599">
        <ele>76</ele>
        <time>2012-03-11T08:29:05Z</time>
      </trkpt>
      <trkpt lat="43.81209" lon="4.18595">
        <ele>75</ele>
        <time>2012-03-11T08:29:06Z</time>
      </trkpt>
      <trkpt lat="43.81211" lon="4.18592">
        <ele>75</ele>
        <time>2012-03-11T08:29:07Z</time>
      </trkpt>
      <trkpt lat="43.81214" lon="4.18588">
        <ele>74</ele>
        <time>2012-03-11T08:29:08Z</time>
      </trkpt>
      <trkpt lat="43.81216" lon="4.18585">
        <ele>73</ele>
        <time>2012-03-11T08:29:09Z</time>
      </trkpt>
      <trkpt lat="43.81218" lon="4.18582">
        <ele>72</ele>
        <time>2012-03-11T08:29:10Z</time>
      </trkpt>
      <trkpt lat="43.8122" lon="4.18579">
        <ele>71</ele>
        <time>2012-03-11T08:29:11Z</time>
      </trkpt>
      <trkpt lat="43.81223" lon="4.18577">
        <ele>70</ele>
        <time>2012-03-11T08:29:12Z</time>
      </trkpt>
      <trkpt lat="43.81224" lon="4.18574">
        <ele>69</ele>
        <time>2012-03-11T08:29:13Z</time>
      </trkpt>
      <trkpt lat="43.81227" lon="4.18571">
        <ele>68</ele>
        <time>2012-03-11T08:29:14Z</time>
      </trkpt>
      <trkpt lat="43.81229" lon="4.18569">
        <ele>67</ele>
        <time>2012-03-11T08:29:15Z</time>
      </trkpt>
      <trkpt lat="43.8123" lon="4.18564">
        <ele>66</ele>
        <time>2012-03-11T08:29:16Z</time>
      </trkpt>
      <trkpt lat="43.81232" lon="4.1856">
        <ele>65</ele>
        <time>2012-03-11T08:29:17Z</time>
      </trkpt>
      <trkpt lat="43.81234" lon="4.18558">
        <ele>64</ele>
        <time>2012-03-11T08:29:18Z</time>
      </trkpt>
      <trkpt lat="43.81235" lon="4.18554">
        <ele>64</ele>
        <time>2012-03-11T08:29:19Z</time>
      </trkpt>
      <trkpt lat="43.81237" lon="4.18551">
        <ele>64</ele>
        <time>2012-03-11T08:29:20Z</time>
      </trkpt>
      <trkpt lat="43.81239" lon="4.18548">
        <ele>64</ele>
        <time>2012-03-11T08:29:21Z</time>
      </trkpt>
      <trkpt lat="43.81241" lon="4.18545">
        <ele>63</ele>
        <time>2012-03-11T08:29:22Z</time>
      </trkpt>
      <trkpt lat="43.81243" lon="4.18543">
        <ele>63</ele>
        <time>2012-03-11T08:29:23Z</time>
      </trkpt>
      <trkpt lat="43.81245" lon="4.18541">
        <ele>63</ele>
        <time>2012-03-11T08:29:24Z</time>
      </trkpt>
      <trkpt lat="43.81247" lon="4.18538">
        <ele>63</ele>
        <time>2012-03-11T08:29:25Z</time>
      </trkpt>
      <trkpt lat="43.81249" lon="4.18535">
        <ele>62</ele>
        <time>2012-03-11T08:29:26Z</time>
      </trkpt>
      <trkpt lat="43.81252" lon="4.18532">
        <ele>62</ele>
        <time>2012-03-11T08:29:27Z</time>
      </trkpt>
      <trkpt lat="43.81253" lon="4.18529">
        <ele>61</ele>
        <time>2012-03-11T08:29:28Z</time>
      </trkpt>
      <trkpt lat="43.81256" lon="4.18526">
        <ele>61</ele>
        <time>2012-03-11T08:29:29Z</time>
      </trkpt>
      <trkpt lat="43.81257" lon="4.18522">
        <ele>61</ele>
        <time>2012-03-11T08:29:30Z</time>
      </trkpt>
      <trkpt lat="43.81258" lon="4.18518">
        <ele>61</ele>
        <time>2012-03-11T08:29:31Z</time>
      </trkpt>
      <trkpt lat="43.8126" lon="4.18514">
        <ele>61</ele>
        <time>2012-03-11T08:29:32Z</time>
      </trkpt>
      <trkpt lat="43.81261" lon="4.18511">
        <ele>61</ele>
        <time>2012-03-11T08:29:33Z</time>
      </trkpt>
      <trkpt lat="43.81263" lon="4.18508">
        <ele>61</ele>
        <time>2012-03-11T08:29:34Z</time>
      </trkpt>
      <trkpt lat="43.81264" lon="4.18506">
        <ele>61</ele>
        <time>2012-03-11T08:29:36Z</time>
      </trkpt>
      <trkpt lat="43.81265" lon="4.18502">
        <ele>61</ele>
        <time>2012-03-11T08:29:36Z</time>
      </trkpt>
      <trkpt lat="43.81265" lon="4.18497">
        <ele>61</ele>
        <time>2012-03-11T08:29:37Z</time>
      </trkpt>
      <trkpt lat="43.81265" lon="4.18493">
        <ele>61</ele>
        <time>2012-03-11T08:29:38Z</time>
      </trkpt>
      <trkpt lat="43.81266" lon="4.18487">
        <ele>62</ele>
        <time>2012-03-11T08:29:39Z</time>
      </trkpt>
      <trkpt lat="43.81266" lon="4.18482">
        <ele>63</ele>
        <time>2012-03-11T08:29:40Z</time>
      </trkpt>
      <trkpt lat="43.81266" lon="4.18477">
        <ele>64</ele>
        <time>2012-03-11T08:29:41Z</time>
      </trkpt>
      <trkpt lat="43.81266" lon="4.18473">
        <ele>65</ele>
        <time>2012-03-11T08:29:42Z</time>
      </trkpt>
      <trkpt lat="43.81266" lon="4.18469">
        <ele>66</ele>
        <time>2012-03-11T08:29:43Z</time>
      </trkpt>
      <trkpt lat="43.81266" lon="4.18465">
        <ele>66</ele>
        <time>2012-03-11T08:29:44Z</time>
      </trkpt>
      <trkpt lat="43.81267" lon="4.18461">
        <ele>67</ele>
        <time>2012-03-11T08:29:45Z</time>
      </trkpt>
      <trkpt lat="43.81268" lon="4.18457">
        <ele>68</ele>
        <time>2012-03-11T08:29:46Z</time>
      </trkpt>
      <trkpt lat="43.81269" lon="4.18455">
        <ele>68</ele>
        <time>2012-03-11T08:29:47Z</time>
      </trkpt>
      <trkpt lat="43.8127" lon="4.18452">
        <ele>69</ele>
        <time>2012-03-11T08:29:48Z</time>
      </trkpt>
      <trkpt lat="43.81272" lon="4.18448">
        <ele>69</ele>
        <time>2012-03-11T08:29:49Z</time>
      </trkpt>
      <trkpt lat="43.81274" lon="4.18444">
        <ele>70</ele>
        <time>2012-03-11T08:29:50Z</time>
      </trkpt>
      <trkpt lat="43.81275" lon="4.18441">
        <ele>70</ele>
        <time>2012-03-11T08:29:51Z</time>
      </trkpt>
      <trkpt lat="43.81277" lon="4.18438">
        <ele>71</ele>
        <time>2012-03-11T08:29:52Z</time>
      </trkpt>
      <trkpt lat="43.81278" lon="4.18435">
        <ele>71</ele>
        <time>2012-03-11T08:29:53Z</time>
      </trkpt>
      <trkpt lat="43.8128" lon="4.18433">
        <ele>72</ele>
        <time>2012-03-11T08:29:54Z</time>
      </trkpt>
      <trkpt lat="43.81282" lon="4.18429">
        <ele>73</ele>
        <time>2012-03-11T08:29:55Z</time>
      </trkpt>
      <trkpt lat="43.81284" lon="4.18426">
        <ele>73</ele>
        <time>2012-03-11T08:29:56Z</time>
      </trkpt>
      <trkpt lat="43.81286" lon="4.18423">
        <ele>74</ele>
        <time>2012-03-11T08:29:57Z</time>
      </trkpt>
      <trkpt lat="43.81288" lon="4.18421">
        <ele>75</ele>
        <time>2012-03-11T08:29:58Z</time>
      </trkpt>
      <trkpt lat="43.8129" lon="4.18419">
        <ele>75</ele>
        <time>2012-03-11T08:29:59Z</time>
      </trkpt>
      <trkpt lat="43.81292" lon="4.18417">
        <ele>75</ele>
        <time>2012-03-11T08:30:00Z</time>
      </trkpt>
      <trkpt lat="43.81294" lon="4.18415">
        <ele>76</ele>
        <time>2012-03-11T08:30:01Z</time>
      </trkpt>
      <trkpt lat="43.81296" lon="4.18413">
        <ele>77</ele>
        <time>2012-03-11T08:30:02Z</time>
      </trkpt>
      <trkpt lat="43.81298" lon="4.18412">
        <ele>77</ele>
        <time>2012-03-11T08:30:03Z</time>
      </trkpt>
      <trkpt lat="43.81301" lon="4.1841">
        <ele>78</ele>
        <time>2012-03-11T08:30:04Z</time>
      </trkpt>
      <trkpt lat="43.81303" lon="4.18408">
        <ele>79</ele>
        <time>2012-03-11T08:30:05Z</time>
      </trkpt>
      <trkpt lat="43.81306" lon="4.18406">
        <ele>79</ele>
        <time>2012-03-11T08:30:06Z</time>
      </trkpt>
      <trkpt lat="43.81308" lon="4.18404">
        <ele>80</ele>
        <time>2012-03-11T08:30:07Z</time>
      </trkpt>
      <trkpt lat="43.81311" lon="4.18403">
        <ele>80</ele>
        <time>2012-03-11T08:30:08Z</time>
      </trkpt>
      <trkpt lat="43.81313" lon="4.184">
        <ele>81</ele>
        <time>2012-03-11T08:30:09Z</time>
      </trkpt>
      <trkpt lat="43.81316" lon="4.18399">
        <ele>81</ele>
        <time>2012-03-11T08:30:10Z</time>
      </trkpt>
      <trkpt lat="43.81318" lon="4.18397">
        <ele>82</ele>
        <time>2012-03-11T08:30:11Z</time>
      </trkpt>
      <trkpt lat="43.8132" lon="4.18395">
        <ele>82</ele>
        <time>2012-03-11T08:30:12Z</time>
      </trkpt>
      <trkpt lat="43.81323" lon="4.18393">
        <ele>82</ele>
        <time>2012-03-11T08:30:13Z</time>
      </trkpt>
      <trkpt lat="43.81326" lon="4.1839">
        <ele>82</ele>
        <time>2012-03-11T08:30:14Z</time>
      </trkpt>
      <trkpt lat="43.81327" lon="4.18387">
        <ele>82</ele>
        <time>2012-03-11T08:30:15Z</time>
      </trkpt>
      <trkpt lat="43.81329" lon="4.18385">
        <ele>82</ele>
        <time>2012-03-11T08:30:16Z</time>
      </trkpt>
      <trkpt lat="43.81332" lon="4.18381">
        <ele>82</ele>
        <time>2012-03-11T08:30:17Z</time>
      </trkpt>
      <trkpt lat="43.81333" lon="4.18377">
        <ele>82</ele>
        <time>2012-03-11T08:30:18Z</time>
      </trkpt>
      <trkpt lat="43.81335" lon="4.18373">
        <ele>83</ele>
        <time>2012-03-11T08:30:19Z</time>
      </trkpt>
      <trkpt lat="43.81336" lon="4.18368">
        <ele>83</ele>
        <time>2012-03-11T08:30:20Z</time>
      </trkpt>
      <trkpt lat="43.81338" lon="4.18364">
        <ele>83</ele>
        <time>2012-03-11T08:30:21Z</time>
      </trkpt>
      <trkpt lat="43.81339" lon="4.18359">
        <ele>83</ele>
        <time>2012-03-11T08:30:22Z</time>
      </trkpt>
      <trkpt lat="43.8134" lon="4.18355">
        <ele>84</ele>
        <time>2012-03-11T08:30:23Z</time>
      </trkpt>
      <trkpt lat="43.81342" lon="4.18351">
        <ele>84</ele>
        <time>2012-03-11T08:30:24Z</time>
      </trkpt>
      <trkpt lat="43.81343" lon="4.18346">
        <ele>84</ele>
        <time>2012-03-11T08:30:25Z</time>
      </trkpt>
      <trkpt lat="43.81344" lon="4.18342">
        <ele>84</ele>
        <time>2012-03-11T08:30:26Z</time>
      </trkpt>
      <trkpt lat="43.81346" lon="4.18337">
        <ele>84</ele>
        <time>2012-03-11T08:30:27Z</time>
      </trkpt>
      <trkpt lat="43.81347" lon="4.18333">
        <ele>85</ele>
        <time>2012-03-11T08:30:28Z</time>
      </trkpt>
      <trkpt lat="43.81348" lon="4.18329">
        <ele>85</ele>
        <time>2012-03-11T08:30:29Z</time>
      </trkpt>
      <trkpt lat="43.8135" lon="4.18324">
        <ele>85</ele>
        <time>2012-03-11T08:30:30Z</time>
      </trkpt>
      <trkpt lat="43.81351" lon="4.18319">
        <ele>85</ele>
        <time>2012-03-11T08:30:31Z</time>
      </trkpt>
      <trkpt lat="43.81353" lon="4.18315">
        <ele>85</ele>
        <time>2012-03-11T08:30:32Z</time>
      </trkpt>
      <trkpt lat="43.81354" lon="4.1831">
        <ele>85</ele>
        <time>2012-03-11T08:30:33Z</time>
      </trkpt>
      <trkpt lat="43.81355" lon="4.18306">
        <ele>85</ele>
        <time>2012-03-11T08:30:34Z</time>
      </trkpt>
      <trkpt lat="43.81356" lon="4.18302">
        <ele>85</ele>
        <time>2012-03-11T08:30:35Z</time>
      </trkpt>
      <trkpt lat="43.81358" lon="4.18298">
        <ele>85</ele>
        <time>2012-03-11T08:30:36Z</time>
      </trkpt>
      <trkpt lat="43.81359" lon="4.18294">
        <ele>86</ele>
        <time>2012-03-11T08:30:37Z</time>
      </trkpt>
      <trkpt lat="43.8136" lon="4.1829">
        <ele>86</ele>
        <time>2012-03-11T08:30:38Z</time>
      </trkpt>
      <trkpt lat="43.81361" lon="4.18286">
        <ele>86</ele>
        <time>2012-03-11T08:30:39Z</time>
      </trkpt>
      <trkpt lat="43.81362" lon="4.18282">
        <ele>87</ele>
        <time>2012-03-11T08:30:40Z</time>
      </trkpt>
      <trkpt lat="43.81363" lon="4.18278">
        <ele>87</ele>
        <time>2012-03-11T08:30:41Z</time>
      </trkpt>
      <trkpt lat="43.81364" lon="4.18274">
        <ele>87</ele>
        <time>2012-03-11T08:30:42Z</time>
      </trkpt>
      <trkpt lat="43.81366" lon="4.1827">
        <ele>88</ele>
        <time>2012-03-11T08:30:43Z</time>
      </trkpt>
      <trkpt lat="43.81367" lon="4.18267">
        <ele>88</ele>
        <time>2012-03-11T08:30:44Z</time>
      </trkpt>
      <trkpt lat="43.81369" lon="4.18263">
        <ele>88</ele>
        <time>2012-03-11T08:30:45Z</time>
      </trkpt>
      <trkpt lat="43.81372" lon="4.18257">
        <ele>88</ele>
        <time>2012-03-11T08:30:46Z</time>
      </trkpt>
      <trkpt lat="43.81374" lon="4.18251">
        <ele>88</ele>
        <time>2012-03-11T08:30:47Z</time>
      </trkpt>
      <trkpt lat="43.81376" lon="4.18247">
        <ele>88</ele>
        <time>2012-03-11T08:30:48Z</time>
      </trkpt>
      <trkpt lat="43.81378" lon="4.18243">
        <ele>88</ele>
        <time>2012-03-11T08:30:49Z</time>
      </trkpt>
      <trkpt lat="43.81381" lon="4.18237">
        <ele>88</ele>
        <time>2012-03-11T08:30:50Z</time>
      </trkpt>
      <trkpt lat="43.81383" lon="4.18232">
        <ele>88</ele>
        <time>2012-03-11T08:30:51Z</time>
      </trkpt>
      <trkpt lat="43.81385" lon="4.18226">
        <ele>88</ele>
        <time>2012-03-11T08:30:52Z</time>
      </trkpt>
      <trkpt lat="43.81387" lon="4.18222">
        <ele>88</ele>
        <time>2012-03-11T08:30:53Z</time>
      </trkpt>
      <trkpt lat="43.81389" lon="4.18217">
        <ele>88</ele>
        <time>2012-03-11T08:30:54Z</time>
      </trkpt>
      <trkpt lat="43.81392" lon="4.18212">
        <ele>88</ele>
        <time>2012-03-11T08:30:55Z</time>
      </trkpt>
      <trkpt lat="43.81394" lon="4.18207">
        <ele>88</ele>
        <time>2012-03-11T08:30:56Z</time>
      </trkpt>
      <trkpt lat="43.81396" lon="4.18203">
        <ele>87</ele>
        <time>2012-03-11T08:30:57Z</time>
      </trkpt>
      <trkpt lat="43.81397" lon="4.18199">
        <ele>87</ele>
        <time>2012-03-11T08:30:58Z</time>
      </trkpt>
      <trkpt lat="43.81398" lon="4.18196">
        <ele>87</ele>
        <time>2012-03-11T08:30:59Z</time>
      </trkpt>
      <trkpt lat="43.81399" lon="4.18192">
        <ele>87</ele>
        <time>2012-03-11T08:31:00Z</time>
      </trkpt>
      <trkpt lat="43.81401" lon="4.18188">
        <ele>87</ele>
        <time>2012-03-11T08:31:01Z</time>
      </trkpt>
      <trkpt lat="43.81402" lon="4.18184">
        <ele>87</ele>
        <time>2012-03-11T08:31:02Z</time>
      </trkpt>
      <trkpt lat="43.81403" lon="4.1818">
        <ele>87</ele>
        <time>2012-03-11T08:31:03Z</time>
      </trkpt>
      <trkpt lat="43.81405" lon="4.18176">
        <ele>87</ele>
        <time>2012-03-11T08:31:04Z</time>
      </trkpt>
      <trkpt lat="43.81406" lon="4.18172">
        <ele>87</ele>
        <time>2012-03-11T08:31:05Z</time>
      </trkpt>
      <trkpt lat="43.81407" lon="4.18167">
        <ele>87</ele>
        <time>2012-03-11T08:31:06Z</time>
      </trkpt>
      <trkpt lat="43.81408" lon="4.18162">
        <ele>87</ele>
        <time>2012-03-11T08:31:07Z</time>
      </trkpt>
      <trkpt lat="43.81409" lon="4.18158">
        <ele>87</ele>
        <time>2012-03-11T08:31:08Z</time>
      </trkpt>
      <trkpt lat="43.8141" lon="4.18153">
        <ele>87</ele>
        <time>2012-03-11T08:31:09Z</time>
      </trkpt>
      <trkpt lat="43.8141" lon="4.18149">
        <ele>87</ele>
        <time>2012-03-11T08:31:10Z</time>
      </trkpt>
      <trkpt lat="43.81411" lon="4.18145">
        <ele>86</ele>
        <time>2012-03-11T08:31:11Z</time>
      </trkpt>
      <trkpt lat="43.81411" lon="4.18141">
        <ele>86</ele>
        <time>2012-03-11T08:31:12Z</time>
      </trkpt>
      <trkpt lat="43.81411" lon="4.18137">
        <ele>86</ele>
        <time>2012-03-11T08:31:13Z</time>
      </trkpt>
      <trkpt lat="43.81411" lon="4.18133">
        <ele>86</ele>
        <time>2012-03-11T08:31:14Z</time>
      </trkpt>
      <trkpt lat="43.81411" lon="4.1813">
        <ele>86</ele>
        <time>2012-03-11T08:31:15Z</time>
      </trkpt>
      <trkpt lat="43.81412" lon="4.18126">
        <ele>86</ele>
        <time>2012-03-11T08:31:16Z</time>
      </trkpt>
      <trkpt lat="43.81414" lon="4.18122">
        <ele>86</ele>
        <time>2012-03-11T08:31:17Z</time>
      </trkpt>
      <trkpt lat="43.81416" lon="4.18118">
        <ele>86</ele>
        <time>2012-03-11T08:31:18Z</time>
      </trkpt>
      <trkpt lat="43.81417" lon="4.18116">
        <ele>86</ele>
        <time>2012-03-11T08:31:19Z</time>
      </trkpt>
      <trkpt lat="43.81419" lon="4.18113">
        <ele>86</ele>
        <time>2012-03-11T08:31:20Z</time>
      </trkpt>
      <trkpt lat="43.81421" lon="4.18109">
        <ele>86</ele>
        <time>2012-03-11T08:31:21Z</time>
      </trkpt>
      <trkpt lat="43.81423" lon="4.18107">
        <ele>86</ele>
        <time>2012-03-11T08:31:22Z</time>
      </trkpt>
      <trkpt lat="43.81424" lon="4.18105">
        <ele>86</ele>
        <time>2012-03-11T08:31:23Z</time>
      </trkpt>
      <trkpt lat="43.81427" lon="4.18101">
        <ele>86</ele>
        <time>2012-03-11T08:31:24Z</time>
      </trkpt>
      <trkpt lat="43.81428" lon="4.18098">
        <ele>86</ele>
        <time>2012-03-11T08:31:25Z</time>
      </trkpt>
      <trkpt lat="43.8143" lon="4.18094">
        <ele>86</ele>
        <time>2012-03-11T08:31:26Z</time>
      </trkpt>
      <trkpt lat="43.81432" lon="4.18091">
        <ele>86</ele>
        <time>2012-03-11T08:31:27Z</time>
      </trkpt>
      <trkpt lat="43.81433" lon="4.18087">
        <ele>86</ele>
        <time>2012-03-11T08:31:28Z</time>
      </trkpt>
      <trkpt lat="43.81435" lon="4.18083">
        <ele>86</ele>
        <time>2012-03-11T08:31:29Z</time>
      </trkpt>
      <trkpt lat="43.81437" lon="4.18078">
        <ele>86</ele>
        <time>2012-03-11T08:31:30Z</time>
      </trkpt>
      <trkpt lat="43.81439" lon="4.18075">
        <ele>86</ele>
        <time>2012-03-11T08:31:31Z</time>
      </trkpt>
      <trkpt lat="43.8144" lon="4.18071">
        <ele>85</ele>
        <time>2012-03-11T08:31:32Z</time>
      </trkpt>
      <trkpt lat="43.81441" lon="4.18067">
        <ele>85</ele>
        <time>2012-03-11T08:31:33Z</time>
      </trkpt>
      <trkpt lat="43.81443" lon="4.18063">
        <ele>85</ele>
        <time>2012-03-11T08:31:34Z</time>
      </trkpt>
      <trkpt lat="43.81444" lon="4.18059">
        <ele>85</ele>
        <time>2012-03-11T08:31:35Z</time>
      </trkpt>
      <trkpt lat="43.81445" lon="4.18057">
        <ele>85</ele>
        <time>2012-03-11T08:31:36Z</time>
      </trkpt>
      <trkpt lat="43.81445" lon="4.18053">
        <ele>85</ele>
        <time>2012-03-11T08:31:37Z</time>
      </trkpt>
      <trkpt lat="43.81446" lon="4.1805">
        <ele>85</ele>
        <time>2012-03-11T08:31:38Z</time>
      </trkpt>
      <trkpt lat="43.81447" lon="4.18046">
        <ele>85</ele>
        <time>2012-03-11T08:31:39Z</time>
      </trkpt>
      <trkpt lat="43.81448" lon="4.18043">
        <ele>85</ele>
        <time>2012-03-11T08:31:40Z</time>
      </trkpt>
      <trkpt lat="43.81448" lon="4.1804">
        <ele>85</ele>
        <time>2012-03-11T08:31:41Z</time>
      </trkpt>
      <trkpt lat="43.81449" lon="4.18037">
        <ele>85</ele>
        <time>2012-03-11T08:31:42Z</time>
      </trkpt>
      <trkpt lat="43.8145" lon="4.18034">
        <ele>85</ele>
        <time>2012-03-11T08:31:43Z</time>
      </trkpt>
      <trkpt lat="43.8145" lon="4.1803">
        <ele>85</ele>
        <time>2012-03-11T08:31:44Z</time>
      </trkpt>
      <trkpt lat="43.81451" lon="4.18027">
        <ele>85</ele>
        <time>2012-03-11T08:31:45Z</time>
      </trkpt>
      <trkpt lat="43.81451" lon="4.18024">
        <ele>85</ele>
        <time>2012-03-11T08:31:46Z</time>
      </trkpt>
      <trkpt lat="43.81452" lon="4.18021">
        <ele>85</ele>
        <time>2012-03-11T08:31:47Z</time>
      </trkpt>
      <trkpt lat="43.81452" lon="4.18018">
        <ele>85</ele>
        <time>2012-03-11T08:31:48Z</time>
      </trkpt>
      <trkpt lat="43.81453" lon="4.18015">
        <ele>85</ele>
        <time>2012-03-11T08:31:49Z</time>
      </trkpt>
      <trkpt lat="43.81453" lon="4.18011">
        <ele>85</ele>
        <time>2012-03-11T08:31:50Z</time>
      </trkpt>
      <trkpt lat="43.81454" lon="4.18007">
        <ele>85</ele>
        <time>2012-03-11T08:31:51Z</time>
      </trkpt>
      <trkpt lat="43.81454" lon="4.18004">
        <ele>85</ele>
        <time>2012-03-11T08:31:52Z</time>
      </trkpt>
      <trkpt lat="43.81454" lon="4.18001">
        <ele>85</ele>
        <time>2012-03-11T08:31:53Z</time>
      </trkpt>
      <trkpt lat="43.81455" lon="4.17998">
        <ele>85</ele>
        <time>2012-03-11T08:31:54Z</time>
      </trkpt>
      <trkpt lat="43.81455" lon="4.17994">
        <ele>85</ele>
        <time>2012-03-11T08:31:55Z</time>
      </trkpt>
      <trkpt lat="43.81455" lon="4.17991">
        <ele>85</ele>
        <time>2012-03-11T08:31:56Z</time>
      </trkpt>
      <trkpt lat="43.81455" lon="4.17988">
        <ele>85</ele>
        <time>2012-03-11T08:31:57Z</time>
      </trkpt>
      <trkpt lat="43.81455" lon="4.17984">
        <ele>85</ele>
        <time>2012-03-11T08:31:58Z</time>
      </trkpt>
      <trkpt lat="43.81455" lon="4.1798">
        <ele>85</ele>
        <time>2012-03-11T08:31:59Z</time>
      </trkpt>
      <trkpt lat="43.81455" lon="4.17976">
        <ele>85</ele>
        <time>2012-03-11T08:32:00Z</time>
      </trkpt>
      <trkpt lat="43.81456" lon="4.17973">
        <ele>85</ele>
        <time>2012-03-11T08:32:01Z</time>
      </trkpt>
      <trkpt lat="43.81456" lon="4.17969">
        <ele>85</ele>
        <time>2012-03-11T08:32:02Z</time>
      </trkpt>
      <trkpt lat="43.81456" lon="4.17967">
        <ele>85</ele>
        <time>2012-03-11T08:32:03Z</time>
      </trkpt>
      <trkpt lat="43.81456" lon="4.17963">
        <ele>85</ele>
        <time>2012-03-11T08:32:04Z</time>
      </trkpt>
      <trkpt lat="43.81456" lon="4.1796">
        <ele>86</ele>
        <time>2012-03-11T08:32:05Z</time>
      </trkpt>
      <trkpt lat="43.81456" lon="4.17956">
        <ele>86</ele>
        <time>2012-03-11T08:32:06Z</time>
      </trkpt>
      <trkpt lat="43.81456" lon="4.17953">
        <ele>86</ele>
        <time>2012-03-11T08:32:07Z</time>
      </trkpt>
      <trkpt lat="43.81457" lon="4.1795">
        <ele>87</ele>
        <time>2012-03-11T08:32:08Z</time>
      </trkpt>
      <trkpt lat="43.81457" lon="4.17947">
        <ele>87</ele>
        <time>2012-03-11T08:32:09Z</time>
      </trkpt>
      <trkpt lat="43.81458" lon="4.17944">
        <ele>87</ele>
        <time>2012-03-11T08:32:10Z</time>
      </trkpt>
      <trkpt lat="43.81458" lon="4.17941">
        <ele>88</ele>
        <time>2012-03-11T08:32:11Z</time>
      </trkpt>
      <trkpt lat="43.81458" lon="4.17938">
        <ele>88</ele>
        <time>2012-03-11T08:32:12Z</time>
      </trkpt>
      <trkpt lat="43.81458" lon="4.17936">
        <ele>89</ele>
        <time>2012-03-11T08:32:13Z</time>
      </trkpt>
      <trkpt lat="43.81459" lon="4.17933">
        <ele>89</ele>
        <time>2012-03-11T08:32:14Z</time>
      </trkpt>
      <trkpt lat="43.81459" lon="4.17931">
        <ele>90</ele>
        <time>2012-03-11T08:32:15Z</time>
      </trkpt>
      <trkpt lat="43.81459" lon="4.17928">
        <ele>90</ele>
        <time>2012-03-11T08:32:16Z</time>
      </trkpt>
      <trkpt lat="43.81458" lon="4.17926">
        <ele>91</ele>
        <time>2012-03-11T08:32:17Z</time>
      </trkpt>
      <trkpt lat="43.81458" lon="4.17923">
        <ele>91</ele>
        <time>2012-03-11T08:32:18Z</time>
      </trkpt>
      <trkpt lat="43.81457" lon="4.17921">
        <ele>91</ele>
        <time>2012-03-11T08:32:19Z</time>
      </trkpt>
      <trkpt lat="43.81456" lon="4.17919">
        <ele>92</ele>
        <time>2012-03-11T08:32:20Z</time>
      </trkpt>
      <trkpt lat="43.81456" lon="4.17917">
        <ele>92</ele>
        <time>2012-03-11T08:32:21Z</time>
      </trkpt>
      <trkpt lat="43.81455" lon="4.17916">
        <ele>92</ele>
        <time>2012-03-11T08:32:22Z</time>
      </trkpt>
      <trkpt lat="43.81454" lon="4.17914">
        <ele>93</ele>
        <time>2012-03-11T08:32:23Z</time>
      </trkpt>
      <trkpt lat="43.81453" lon="4.17912">
        <ele>93</ele>
        <time>2012-03-11T08:32:24Z</time>
      </trkpt>
      <trkpt lat="43.81452" lon="4.1791">
        <ele>93</ele>
        <time>2012-03-11T08:32:25Z</time>
      </trkpt>
      <trkpt lat="43.81451" lon="4.17908">
        <ele>93</ele>
        <time>2012-03-11T08:32:26Z</time>
      </trkpt>
      <trkpt lat="43.8145" lon="4.17907">
        <ele>93</ele>
        <time>2012-03-11T08:32:27Z</time>
      </trkpt>
      <trkpt lat="43.81449" lon="4.17905">
        <ele>93</ele>
        <time>2012-03-11T08:32:31Z</time>
      </trkpt>
      <trkpt lat="43.81448" lon="4.17904">
        <ele>94</ele>
        <time>2012-03-11T08:32:35Z</time>
      </trkpt>
      <trkpt lat="43.81447" lon="4.17903">
        <ele>94</ele>
        <time>2012-03-11T08:32:37Z</time>
      </trkpt>
      <trkpt lat="43.81447" lon="4.17902">
        <ele>94</ele>
        <time>2012-03-11T08:32:41Z</time>
      </trkpt>
      <trkpt lat="43.81449" lon="4.17901">
        <ele>94</ele>
        <time>2012-03-11T08:32:43Z</time>
      </trkpt>
      <trkpt lat="43.81451" lon="4.179">
        <ele>96</ele>
        <time>2012-03-11T08:32:46Z</time>
      </trkpt>
      <trkpt lat="43.81452" lon="4.179">
        <ele>98</ele>
        <time>2012-03-11T08:32:49Z</time>
      </trkpt>
      <trkpt lat="43.81453" lon="4.17899">
        <ele>100</ele>
        <time>2012-03-11T08:32:51Z</time>
      </trkpt>
      <trkpt lat="43.81454" lon="4.17898">
        <ele>102</ele>
        <time>2012-03-11T08:33:00Z</time>
      </trkpt>
      <trkpt lat="43.81452" lon="4.17898">
        <ele>104</ele>
        <time>2012-03-11T08:33:08Z</time>
      </trkpt>
      <trkpt lat="43.81451" lon="4.17895">
        <ele>104</ele>
        <time>2012-03-11T08:33:12Z</time>
      </trkpt>
      <trkpt lat="43.8145" lon="4.17894">
        <ele>104</ele>
        <time>2012-03-11T08:33:13Z</time>
      </trkpt>
      <trkpt lat="43.81447" lon="4.17892">
        <ele>104</ele>
        <time>2012-03-11T08:33:15Z</time>
      </trkpt>
      <trkpt lat="43.81445" lon="4.17891">
        <ele>104</ele>
        <time>2012-03-11T08:33:16Z</time>
      </trkpt>
      <trkpt lat="43.81443" lon="4.17889">
        <ele>104</ele>
        <time>2012-03-11T08:33:17Z</time>
      </trkpt>
      <trkpt lat="43.81441" lon="4.17888">
        <ele>104</ele>
        <time>2012-03-11T08:33:18Z</time>
      </trkpt>
      <trkpt lat="43.81439" lon="4.17886">
        <ele>104</ele>
        <time>2012-03-11T08:33:19Z</time>
      </trkpt>
      <trkpt lat="43.81436" lon="4.17884">
        <ele>104</ele>
        <time>2012-03-11T08:33:20Z</time>
      </trkpt>
      <trkpt lat="43.81434" lon="4.17883">
        <ele>104</ele>
        <time>2012-03-11T08:33:21Z</time>
      </trkpt>
      <trkpt lat="43.81431" lon="4.17882">
        <ele>104</ele>
        <time>2012-03-11T08:33:22Z</time>
      </trkpt>
      <trkpt lat="43.81429" lon="4.1788">
        <ele>104</ele>
        <time>2012-03-11T08:33:23Z</time>
      </trkpt>
      <trkpt lat="43.81426" lon="4.17879">
        <ele>104</ele>
        <time>2012-03-11T08:33:24Z</time>
      </trkpt>
      <trkpt lat="43.81424" lon="4.17878">
        <ele>104</ele>
        <time>2012-03-11T08:33:25Z</time>
      </trkpt>
      <trkpt lat="43.81422" lon="4.17877">
        <ele>104</ele>
        <time>2012-03-11T08:33:26Z</time>
      </trkpt>
      <trkpt lat="43.8142" lon="4.17877">
        <ele>104</ele>
        <time>2012-03-11T08:33:27Z</time>
      </trkpt>
      <trkpt lat="43.81418" lon="4.17877">
        <ele>104</ele>
        <time>2012-03-11T08:33:28Z</time>
      </trkpt>
      <trkpt lat="43.81415" lon="4.17876">
        <ele>104</ele>
        <time>2012-03-11T08:33:29Z</time>
      </trkpt>
      <trkpt lat="43.81412" lon="4.17876">
        <ele>104</ele>
        <time>2012-03-11T08:33:30Z</time>
      </trkpt>
      <trkpt lat="43.81409" lon="4.17876">
        <ele>104</ele>
        <time>2012-03-11T08:33:31Z</time>
      </trkpt>
      <trkpt lat="43.81406" lon="4.17877">
        <ele>104</ele>
        <time>2012-03-11T08:33:32Z</time>
      </trkpt>
      <trkpt lat="43.81403" lon="4.17877">
        <ele>104</ele>
        <time>2012-03-11T08:33:33Z</time>
      </trkpt>
      <trkpt lat="43.814" lon="4.17877">
        <ele>104</ele>
        <time>2012-03-11T08:33:34Z</time>
      </trkpt>
      <trkpt lat="43.81397" lon="4.17877">
        <ele>104</ele>
        <time>2012-03-11T08:33:35Z</time>
      </trkpt>
      <trkpt lat="43.81394" lon="4.17877">
        <ele>104</ele>
        <time>2012-03-11T08:33:36Z</time>
      </trkpt>
      <trkpt lat="43.81392" lon="4.17877">
        <ele>104</ele>
        <time>2012-03-11T08:33:37Z</time>
      </trkpt>
      <trkpt lat="43.81389" lon="4.17877">
        <ele>104</ele>
        <time>2012-03-11T08:33:38Z</time>
      </trkpt>
      <trkpt lat="43.81386" lon="4.17877">
        <ele>104</ele>
        <time>2012-03-11T08:33:39Z</time>
      </trkpt>
      <trkpt lat="43.81384" lon="4.17878">
        <ele>104</ele>
        <time>2012-03-11T08:33:40Z</time>
      </trkpt>
      <trkpt lat="43.81382" lon="4.17878">
        <ele>104</ele>
        <time>2012-03-11T08:33:41Z</time>
      </trkpt>
      <trkpt lat="43.81379" lon="4.17878">
        <ele>104</ele>
        <time>2012-03-11T08:33:42Z</time>
      </trkpt>
      <trkpt lat="43.81378" lon="4.17877">
        <ele>104</ele>
        <time>2012-03-11T08:33:43Z</time>
      </trkpt>
      <trkpt lat="43.81377" lon="4.17877">
        <ele>104</ele>
        <time>2012-03-11T08:33:44Z</time>
      </trkpt>
      <trkpt lat="43.81374" lon="4.17878">
        <ele>104</ele>
        <time>2012-03-11T08:33:45Z</time>
      </trkpt>
      <trkpt lat="43.81372" lon="4.17878">
        <ele>104</ele>
        <time>2012-03-11T08:33:46Z</time>
      </trkpt>
      <trkpt lat="43.81371" lon="4.17879">
        <ele>104</ele>
        <time>2012-03-11T08:33:47Z</time>
      </trkpt>
      <trkpt lat="43.81369" lon="4.1788">
        <ele>104</ele>
        <time>2012-03-11T08:33:48Z</time>
      </trkpt>
      <trkpt lat="43.81366" lon="4.17881">
        <ele>104</ele>
        <time>2012-03-11T08:33:49Z</time>
      </trkpt>
      <trkpt lat="43.81364" lon="4.17883">
        <ele>104</ele>
        <time>2012-03-11T08:33:50Z</time>
      </trkpt>
      <trkpt lat="43.81363" lon="4.17884">
        <ele>104</ele>
        <time>2012-03-11T08:33:51Z</time>
      </trkpt>
      <trkpt lat="43.81362" lon="4.17885">
        <ele>104</ele>
        <time>2012-03-11T08:33:52Z</time>
      </trkpt>
      <trkpt lat="43.81361" lon="4.17886">
        <ele>105</ele>
        <time>2012-03-11T08:33:53Z</time>
      </trkpt>
      <trkpt lat="43.8136" lon="4.17888">
        <ele>105</ele>
        <time>2012-03-11T08:33:54Z</time>
      </trkpt>
      <trkpt lat="43.81359" lon="4.1789">
        <ele>105</ele>
        <time>2012-03-11T08:33:55Z</time>
      </trkpt>
      <trkpt lat="43.81359" lon="4.17893">
        <ele>105</ele>
        <time>2012-03-11T08:33:56Z</time>
      </trkpt>
      <trkpt lat="43.81358" lon="4.17895">
        <ele>105</ele>
        <time>2012-03-11T08:33:57Z</time>
      </trkpt>
      <trkpt lat="43.81357" lon="4.17897">
        <ele>105</ele>
        <time>2012-03-11T08:33:58Z</time>
      </trkpt>
      <trkpt lat="43.81356" lon="4.17899">
        <ele>105</ele>
        <time>2012-03-11T08:33:59Z</time>
      </trkpt>
      <trkpt lat="43.81355" lon="4.179">
        <ele>105</ele>
        <time>2012-03-11T08:34:00Z</time>
      </trkpt>
      <trkpt lat="43.81354" lon="4.17902">
        <ele>106</ele>
        <time>2012-03-11T08:34:01Z</time>
      </trkpt>
      <trkpt lat="43.81354" lon="4.17904">
        <ele>106</ele>
        <time>2012-03-11T08:34:02Z</time>
      </trkpt>
      <trkpt lat="43.81353" lon="4.17906">
        <ele>107</ele>
        <time>2012-03-11T08:34:03Z</time>
      </trkpt>
      <trkpt lat="43.81351" lon="4.17908">
        <ele>107</ele>
        <time>2012-03-11T08:34:04Z</time>
      </trkpt>
      <trkpt lat="43.81349" lon="4.17909">
        <ele>107</ele>
        <time>2012-03-11T08:34:05Z</time>
      </trkpt>
      <trkpt lat="43.81346" lon="4.1791">
        <ele>108</ele>
        <time>2012-03-11T08:34:06Z</time>
      </trkpt>
      <trkpt lat="43.81344" lon="4.17911">
        <ele>108</ele>
        <time>2012-03-11T08:34:07Z</time>
      </trkpt>
      <trkpt lat="43.81342" lon="4.17913">
        <ele>108</ele>
        <time>2012-03-11T08:34:08Z</time>
      </trkpt>
      <trkpt lat="43.81341" lon="4.17915">
        <ele>108</ele>
        <time>2012-03-11T08:34:09Z</time>
      </trkpt>
      <trkpt lat="43.8134" lon="4.17917">
        <ele>108</ele>
        <time>2012-03-11T08:34:10Z</time>
      </trkpt>
      <trkpt lat="43.81338" lon="4.17918">
        <ele>108</ele>
        <time>2012-03-11T08:34:11Z</time>
      </trkpt>
      <trkpt lat="43.81336" lon="4.1792">
        <ele>108</ele>
        <time>2012-03-11T08:34:12Z</time>
      </trkpt>
      <trkpt lat="43.81334" lon="4.17921">
        <ele>108</ele>
        <time>2012-03-11T08:34:13Z</time>
      </trkpt>
      <trkpt lat="43.81332" lon="4.17923">
        <ele>108</ele>
        <time>2012-03-11T08:34:14Z</time>
      </trkpt>
      <trkpt lat="43.8133" lon="4.17924">
        <ele>108</ele>
        <time>2012-03-11T08:34:15Z</time>
      </trkpt>
      <trkpt lat="43.81328" lon="4.17925">
        <ele>108</ele>
        <time>2012-03-11T08:34:16Z</time>
      </trkpt>
      <trkpt lat="43.81327" lon="4.17926">
        <ele>108</ele>
        <time>2012-03-11T08:34:17Z</time>
      </trkpt>
      <trkpt lat="43.81325" lon="4.17928">
        <ele>108</ele>
        <time>2012-03-11T08:34:18Z</time>
      </trkpt>
      <trkpt lat="43.81323" lon="4.17931">
        <ele>108</ele>
        <time>2012-03-11T08:34:20Z</time>
      </trkpt>
      <trkpt lat="43.81321" lon="4.17933">
        <ele>108</ele>
        <time>2012-03-11T08:34:22Z</time>
      </trkpt>
      <trkpt lat="43.8132" lon="4.17935">
        <ele>109</ele>
        <time>2012-03-11T08:34:23Z</time>
      </trkpt>
      <trkpt lat="43.81319" lon="4.17936">
        <ele>110</ele>
        <time>2012-03-11T08:34:24Z</time>
      </trkpt>
      <trkpt lat="43.81318" lon="4.17938">
        <ele>110</ele>
        <time>2012-03-11T08:34:25Z</time>
      </trkpt>
      <trkpt lat="43.81317" lon="4.17939">
        <ele>110</ele>
        <time>2012-03-11T08:34:26Z</time>
      </trkpt>
      <trkpt lat="43.81316" lon="4.17941">
        <ele>111</ele>
        <time>2012-03-11T08:34:27Z</time>
      </trkpt>
      <trkpt lat="43.81315" lon="4.17942">
        <ele>111</ele>
        <time>2012-03-11T08:34:28Z</time>
      </trkpt>
      <trkpt lat="43.81313" lon="4.17944">
        <ele>111</ele>
        <time>2012-03-11T08:34:29Z</time>
      </trkpt>
      <trkpt lat="43.81313" lon="4.17947">
        <ele>111</ele>
        <time>2012-03-11T08:34:30Z</time>
      </trkpt>
      <trkpt lat="43.81312" lon="4.17949">
        <ele>111</ele>
        <time>2012-03-11T08:34:31Z</time>
      </trkpt>
      <trkpt lat="43.81311" lon="4.17951">
        <ele>111</ele>
        <time>2012-03-11T08:34:32Z</time>
      </trkpt>
      <trkpt lat="43.8131" lon="4.17954">
        <ele>112</ele>
        <time>2012-03-11T08:34:33Z</time>
      </trkpt>
      <trkpt lat="43.81309" lon="4.17957">
        <ele>113</ele>
        <time>2012-03-11T08:34:34Z</time>
      </trkpt>
      <trkpt lat="43.81308" lon="4.1796">
        <ele>114</ele>
        <time>2012-03-11T08:34:35Z</time>
      </trkpt>
      <trkpt lat="43.81308" lon="4.17963">
        <ele>115</ele>
        <time>2012-03-11T08:34:36Z</time>
      </trkpt>
      <trkpt lat="43.81307" lon="4.17966">
        <ele>116</ele>
        <time>2012-03-11T08:34:37Z</time>
      </trkpt>
      <trkpt lat="43.81306" lon="4.17969">
        <ele>117</ele>
        <time>2012-03-11T08:34:38Z</time>
      </trkpt>
      <trkpt lat="43.81305" lon="4.17971">
        <ele>118</ele>
        <time>2012-03-11T08:34:39Z</time>
      </trkpt>
      <trkpt lat="43.81305" lon="4.17974">
        <ele>119</ele>
        <time>2012-03-11T08:34:40Z</time>
      </trkpt>
      <trkpt lat="43.81304" lon="4.17976">
        <ele>120</ele>
        <time>2012-03-11T08:34:41Z</time>
      </trkpt>
      <trkpt lat="43.81303" lon="4.17979">
        <ele>120</ele>
        <time>2012-03-11T08:34:42Z</time>
      </trkpt>
      <trkpt lat="43.81303" lon="4.17981">
        <ele>121</ele>
        <time>2012-03-11T08:34:43Z</time>
      </trkpt>
      <trkpt lat="43.81302" lon="4.17983">
        <ele>122</ele>
        <time>2012-03-11T08:34:44Z</time>
      </trkpt>
      <trkpt lat="43.81301" lon="4.17986">
        <ele>123</ele>
        <time>2012-03-11T08:34:45Z</time>
      </trkpt>
      <trkpt lat="43.813" lon="4.17988">
        <ele>123</ele>
        <time>2012-03-11T08:34:46Z</time>
      </trkpt>
      <trkpt lat="43.81299" lon="4.1799">
        <ele>124</ele>
        <time>2012-03-11T08:34:47Z</time>
      </trkpt>
      <trkpt lat="43.81297" lon="4.17991">
        <ele>124</ele>
        <time>2012-03-11T08:34:48Z</time>
      </trkpt>
      <trkpt lat="43.81295" lon="4.17994">
        <ele>124</ele>
        <time>2012-03-11T08:34:49Z</time>
      </trkpt>
      <trkpt lat="43.81294" lon="4.17997">
        <ele>124</ele>
        <time>2012-03-11T08:34:50Z</time>
      </trkpt>
      <trkpt lat="43.81293" lon="4.18">
        <ele>124</ele>
        <time>2012-03-11T08:34:51Z</time>
      </trkpt>
      <trkpt lat="43.81292" lon="4.18003">
        <ele>124</ele>
        <time>2012-03-11T08:34:52Z</time>
      </trkpt>
      <trkpt lat="43.81291" lon="4.18007">
        <ele>124</ele>
        <time>2012-03-11T08:34:53Z</time>
      </trkpt>
      <trkpt lat="43.8129" lon="4.1801">
        <ele>124</ele>
        <time>2012-03-11T08:34:54Z</time>
      </trkpt>
      <trkpt lat="43.81289" lon="4.18012">
        <ele>124</ele>
        <time>2012-03-11T08:34:55Z</time>
      </trkpt>
      <trkpt lat="43.81287" lon="4.18015">
        <ele>124</ele>
        <time>2012-03-11T08:34:56Z</time>
      </trkpt>
      <trkpt lat="43.81286" lon="4.18017">
        <ele>124</ele>
        <time>2012-03-11T08:34:57Z</time>
      </trkpt>
      <trkpt lat="43.81285" lon="4.18019">
        <ele>124</ele>
        <time>2012-03-11T08:34:58Z</time>
      </trkpt>
      <trkpt lat="43.81284" lon="4.18021">
        <ele>124</ele>
        <time>2012-03-11T08:34:59Z</time>
      </trkpt>
      <trkpt lat="43.81283" lon="4.18024">
        <ele>124</ele>
        <time>2012-03-11T08:35:00Z</time>
      </trkpt>
      <trkpt lat="43.81282" lon="4.18026">
        <ele>124</ele>
        <time>2012-03-11T08:35:01Z</time>
      </trkpt>
      <trkpt lat="43.81281" lon="4.18028">
        <ele>124</ele>
        <time>2012-03-11T08:35:02Z</time>
      </trkpt>
      <trkpt lat="43.81281" lon="4.18031">
        <ele>124</ele>
        <time>2012-03-11T08:35:03Z</time>
      </trkpt>
      <trkpt lat="43.8128" lon="4.18034">
        <ele>124</ele>
        <time>2012-03-11T08:35:04Z</time>
      </trkpt>
      <trkpt lat="43.81279" lon="4.18036">
        <ele>125</ele>
        <time>2012-03-11T08:35:05Z</time>
      </trkpt>
      <trkpt lat="43.81279" lon="4.18038">
        <ele>125</ele>
        <time>2012-03-11T08:35:06Z</time>
      </trkpt>
      <trkpt lat="43.81277" lon="4.1804">
        <ele>125</ele>
        <time>2012-03-11T08:35:07Z</time>
      </trkpt>
      <trkpt lat="43.81277" lon="4.18042">
        <ele>126</ele>
        <time>2012-03-11T08:35:08Z</time>
      </trkpt>
      <trkpt lat="43.81276" lon="4.18044">
        <ele>126</ele>
        <time>2012-03-11T08:35:09Z</time>
      </trkpt>
      <trkpt lat="43.81275" lon="4.18045">
        <ele>126</ele>
        <time>2012-03-11T08:35:10Z</time>
      </trkpt>
      <trkpt lat="43.81274" lon="4.18047">
        <ele>126</ele>
        <time>2012-03-11T08:35:11Z</time>
      </trkpt>
      <trkpt lat="43.81273" lon="4.18048">
        <ele>126</ele>
        <time>2012-03-11T08:35:12Z</time>
      </trkpt>
      <trkpt lat="43.81272" lon="4.1805">
        <ele>126</ele>
        <time>2012-03-11T08:35:13Z</time>
      </trkpt>
      <trkpt lat="43.81271" lon="4.18051">
        <ele>126</ele>
        <time>2012-03-11T08:35:14Z</time>
      </trkpt>
      <trkpt lat="43.81269" lon="4.18052">
        <ele>126</ele>
        <time>2012-03-11T08:35:15Z</time>
      </trkpt>
      <trkpt lat="43.81268" lon="4.18054">
        <ele>126</ele>
        <time>2012-03-11T08:35:16Z</time>
      </trkpt>
      <trkpt lat="43.81267" lon="4.18055">
        <ele>126</ele>
        <time>2012-03-11T08:35:17Z</time>
      </trkpt>
      <trkpt lat="43.81266" lon="4.18056">
        <ele>126</ele>
        <time>2012-03-11T08:35:18Z</time>
      </trkpt>
      <trkpt lat="43.81264" lon="4.18057">
        <ele>126</ele>
        <time>2012-03-11T08:35:19Z</time>
      </trkpt>
      <trkpt lat="43.81263" lon="4.1806">
        <ele>127</ele>
        <time>2012-03-11T08:35:21Z</time>
      </trkpt>
      <trkpt lat="43.81261" lon="4.18062">
        <ele>127</ele>
        <time>2012-03-11T08:35:23Z</time>
      </trkpt>
      <trkpt lat="43.81259" lon="4.18065">
        <ele>127</ele>
        <time>2012-03-11T08:35:25Z</time>
      </trkpt>
      <trkpt lat="43.81258" lon="4.18066">
        <ele>127</ele>
        <time>2012-03-11T08:35:26Z</time>
      </trkpt>
      <trkpt lat="43.81257" lon="4.18068">
        <ele>127</ele>
        <time>2012-03-11T08:35:27Z</time>
      </trkpt>
      <trkpt lat="43.81256" lon="4.18069">
        <ele>127</ele>
        <time>2012-03-11T08:35:28Z</time>
      </trkpt>
      <trkpt lat="43.81255" lon="4.18072">
        <ele>127</ele>
        <time>2012-03-11T08:35:30Z</time>
      </trkpt>
      <trkpt lat="43.81252" lon="4.18075">
        <ele>127</ele>
        <time>2012-03-11T08:35:32Z</time>
      </trkpt>
      <trkpt lat="43.81251" lon="4.18075">
        <ele>127</ele>
        <time>2012-03-11T08:35:33Z</time>
      </trkpt>
      <trkpt lat="43.8125" lon="4.18076">
        <ele>127</ele>
        <time>2012-03-11T08:35:35Z</time>
      </trkpt>
      <trkpt lat="43.81248" lon="4.18076">
        <ele>127</ele>
        <time>2012-03-11T08:35:36Z</time>
      </trkpt>
      <trkpt lat="43.81247" lon="4.18075">
        <ele>127</ele>
        <time>2012-03-11T08:35:38Z</time>
      </trkpt>
      <trkpt lat="43.81245" lon="4.18073">
        <ele>127</ele>
        <time>2012-03-11T08:35:40Z</time>
      </trkpt>
      <trkpt lat="43.81244" lon="4.18071">
        <ele>128</ele>
        <time>2012-03-11T08:35:41Z</time>
      </trkpt>
      <trkpt lat="43.81243" lon="4.18069">
        <ele>128</ele>
        <time>2012-03-11T08:35:42Z</time>
      </trkpt>
      <trkpt lat="43.81243" lon="4.18068">
        <ele>128</ele>
        <time>2012-03-11T08:35:43Z</time>
      </trkpt>
      <trkpt lat="43.81242" lon="4.18066">
        <ele>129</ele>
        <time>2012-03-11T08:35:44Z</time>
      </trkpt>
      <trkpt lat="43.81242" lon="4.18064">
        <ele>129</ele>
        <time>2012-03-11T08:35:45Z</time>
      </trkpt>
      <trkpt lat="43.81243" lon="4.18061">
        <ele>130</ele>
        <time>2012-03-11T08:35:47Z</time>
      </trkpt>
      <trkpt lat="43.81243" lon="4.18059">
        <ele>130</ele>
        <time>2012-03-11T08:35:48Z</time>
      </trkpt>
      <trkpt lat="43.81243" lon="4.18058">
        <ele>130</ele>
        <time>2012-03-11T08:35:49Z</time>
      </trkpt>
      <trkpt lat="43.81243" lon="4.18056">
        <ele>130</ele>
        <time>2012-03-11T08:35:50Z</time>
      </trkpt>
      <trkpt lat="43.81243" lon="4.18054">
        <ele>130</ele>
        <time>2012-03-11T08:35:51Z</time>
      </trkpt>
      <trkpt lat="43.81243" lon="4.18052">
        <ele>130</ele>
        <time>2012-03-11T08:35:53Z</time>
      </trkpt>
      <trkpt lat="43.81244" lon="4.18048">
        <ele>131</ele>
        <time>2012-03-11T08:35:55Z</time>
      </trkpt>
      <trkpt lat="43.81245" lon="4.18046">
        <ele>131</ele>
        <time>2012-03-11T08:35:57Z</time>
      </trkpt>
      <trkpt lat="43.81245" lon="4.18044">
        <ele>131</ele>
        <time>2012-03-11T08:35:58Z</time>
      </trkpt>
      <trkpt lat="43.81245" lon="4.18041">
        <ele>131</ele>
        <time>2012-03-11T08:35:59Z</time>
      </trkpt>
      <trkpt lat="43.81246" lon="4.18039">
        <ele>131</ele>
        <time>2012-03-11T08:36:00Z</time>
      </trkpt>
      <trkpt lat="43.81246" lon="4.18037">
        <ele>131</ele>
        <time>2012-03-11T08:36:01Z</time>
      </trkpt>
      <trkpt lat="43.81246" lon="4.18035">
        <ele>131</ele>
        <time>2012-03-11T08:36:02Z</time>
      </trkpt>
      <trkpt lat="43.81247" lon="4.18034">
        <ele>131</ele>
        <time>2012-03-11T08:36:04Z</time>
      </trkpt>
      <trkpt lat="43.81247" lon="4.18032">
        <ele>131</ele>
        <time>2012-03-11T08:36:05Z</time>
      </trkpt>
      <trkpt lat="43.81248" lon="4.1803">
        <ele>131</ele>
        <time>2012-03-11T08:36:06Z</time>
      </trkpt>
      <trkpt lat="43.81249" lon="4.18028">
        <ele>131</ele>
        <time>2012-03-11T08:36:07Z</time>
      </trkpt>
      <trkpt lat="43.8125" lon="4.18026">
        <ele>131</ele>
        <time>2012-03-11T08:36:08Z</time>
      </trkpt>
      <trkpt lat="43.8125" lon="4.18025">
        <ele>131</ele>
        <time>2012-03-11T08:36:09Z</time>
      </trkpt>
      <trkpt lat="43.81252" lon="4.18022">
        <ele>132</ele>
        <time>2012-03-11T08:36:11Z</time>
      </trkpt>
      <trkpt lat="43.81252" lon="4.18021">
        <ele>132</ele>
        <time>2012-03-11T08:36:12Z</time>
      </trkpt>
      <trkpt lat="43.81252" lon="4.18019">
        <ele>132</ele>
        <time>2012-03-11T08:36:13Z</time>
      </trkpt>
      <trkpt lat="43.81252" lon="4.18017">
        <ele>132</ele>
        <time>2012-03-11T08:36:14Z</time>
      </trkpt>
      <trkpt lat="43.81252" lon="4.18014">
        <ele>132</ele>
        <time>2012-03-11T08:36:16Z</time>
      </trkpt>
      <trkpt lat="43.81252" lon="4.18011">
        <ele>132</ele>
        <time>2012-03-11T08:36:17Z</time>
      </trkpt>
      <trkpt lat="43.81253" lon="4.18009">
        <ele>132</ele>
        <time>2012-03-11T08:36:18Z</time>
      </trkpt>
      <trkpt lat="43.81253" lon="4.18006">
        <ele>132</ele>
        <time>2012-03-11T08:36:19Z</time>
      </trkpt>
      <trkpt lat="43.81253" lon="4.18004">
        <ele>132</ele>
        <time>2012-03-11T08:36:21Z</time>
      </trkpt>
      <trkpt lat="43.81253" lon="4.18002">
        <ele>132</ele>
        <time>2012-03-11T08:36:22Z</time>
      </trkpt>
      <trkpt lat="43.81254" lon="4.18">
        <ele>132</ele>
        <time>2012-03-11T08:36:23Z</time>
      </trkpt>
      <trkpt lat="43.81254" lon="4.17998">
        <ele>132</ele>
        <time>2012-03-11T08:36:24Z</time>
      </trkpt>
      <trkpt lat="43.81255" lon="4.17995">
        <ele>132</ele>
        <time>2012-03-11T08:36:25Z</time>
      </trkpt>
      <trkpt lat="43.81255" lon="4.17993">
        <ele>132</ele>
        <time>2012-03-11T08:36:26Z</time>
      </trkpt>
      <trkpt lat="43.81255" lon="4.17991">
        <ele>132</ele>
        <time>2012-03-11T08:36:27Z</time>
      </trkpt>
      <trkpt lat="43.81256" lon="4.17989">
        <ele>132</ele>
        <time>2012-03-11T08:36:28Z</time>
      </trkpt>
      <trkpt lat="43.81256" lon="4.17986">
        <ele>132</ele>
        <time>2012-03-11T08:36:29Z</time>
      </trkpt>
      <trkpt lat="43.81257" lon="4.17985">
        <ele>132</ele>
        <time>2012-03-11T08:36:30Z</time>
      </trkpt>
      <trkpt lat="43.81257" lon="4.17982">
        <ele>132</ele>
        <time>2012-03-11T08:36:31Z</time>
      </trkpt>
      <trkpt lat="43.81257" lon="4.1798">
        <ele>132</ele>
        <time>2012-03-11T08:36:32Z</time>
      </trkpt>
      <trkpt lat="43.81258" lon="4.17978">
        <ele>132</ele>
        <time>2012-03-11T08:36:33Z</time>
      </trkpt>
      <trkpt lat="43.81258" lon="4.17977">
        <ele>132</ele>
        <time>2012-03-11T08:36:34Z</time>
      </trkpt>
      <trkpt lat="43.81258" lon="4.17975">
        <ele>132</ele>
        <time>2012-03-11T08:36:35Z</time>
      </trkpt>
      <trkpt lat="43.81258" lon="4.17973">
        <ele>132</ele>
        <time>2012-03-11T08:36:36Z</time>
      </trkpt>
      <trkpt lat="43.81258" lon="4.17971">
        <ele>132</ele>
        <time>2012-03-11T08:36:37Z</time>
      </trkpt>
      <trkpt lat="43.81259" lon="4.17969">
        <ele>132</ele>
        <time>2012-03-11T08:36:38Z</time>
      </trkpt>
      <trkpt lat="43.81259" lon="4.17968">
        <ele>132</ele>
        <time>2012-03-11T08:36:39Z</time>
      </trkpt>
      <trkpt lat="43.8126" lon="4.17966">
        <ele>132</ele>
        <time>2012-03-11T08:36:40Z</time>
      </trkpt>
      <trkpt lat="43.8126" lon="4.17964">
        <ele>132</ele>
        <time>2012-03-11T08:36:41Z</time>
      </trkpt>
      <trkpt lat="43.8126" lon="4.17962">
        <ele>132</ele>
        <time>2012-03-11T08:36:42Z</time>
      </trkpt>
      <trkpt lat="43.81259" lon="4.1796">
        <ele>132</ele>
        <time>2012-03-11T08:36:43Z</time>
      </trkpt>
      <trkpt lat="43.81259" lon="4.17958">
        <ele>132</ele>
        <time>2012-03-11T08:36:44Z</time>
      </trkpt>
      <trkpt lat="43.81259" lon="4.17957">
        <ele>132</ele>
        <time>2012-03-11T08:36:45Z</time>
      </trkpt>
      <trkpt lat="43.81258" lon="4.17954">
        <ele>132</ele>
        <time>2012-03-11T08:36:47Z</time>
      </trkpt>
      <trkpt lat="43.81257" lon="4.17951">
        <ele>132</ele>
        <time>2012-03-11T08:36:49Z</time>
      </trkpt>
      <trkpt lat="43.81256" lon="4.17949">
        <ele>133</ele>
        <time>2012-03-11T08:36:50Z</time>
      </trkpt>
      <trkpt lat="43.81256" lon="4.17947">
        <ele>133</ele>
        <time>2012-03-11T08:36:51Z</time>
      </trkpt>
      <trkpt lat="43.81256" lon="4.17945">
        <ele>134</ele>
        <time>2012-03-11T08:36:53Z</time>
      </trkpt>
      <trkpt lat="43.81256" lon="4.17943">
        <ele>134</ele>
        <time>2012-03-11T08:36:54Z</time>
      </trkpt>
      <trkpt lat="43.81255" lon="4.17942">
        <ele>135</ele>
        <time>2012-03-11T08:36:55Z</time>
      </trkpt>
      <trkpt lat="43.81255" lon="4.1794">
        <ele>135</ele>
        <time>2012-03-11T08:36:56Z</time>
      </trkpt>
      <trkpt lat="43.81255" lon="4.17938">
        <ele>136</ele>
        <time>2012-03-11T08:36:57Z</time>
      </trkpt>
      <trkpt lat="43.81254" lon="4.17937">
        <ele>137</ele>
        <time>2012-03-11T08:36:58Z</time>
      </trkpt>
      <trkpt lat="43.81254" lon="4.17935">
        <ele>137</ele>
        <time>2012-03-11T08:36:59Z</time>
      </trkpt>
      <trkpt lat="43.81253" lon="4.17932">
        <ele>138</ele>
        <time>2012-03-11T08:37:00Z</time>
      </trkpt>
      <trkpt lat="43.81253" lon="4.17931">
        <ele>139</ele>
        <time>2012-03-11T08:37:01Z</time>
      </trkpt>
      <trkpt lat="43.81253" lon="4.17929">
        <ele>139</ele>
        <time>2012-03-11T08:37:02Z</time>
      </trkpt>
      <trkpt lat="43.81252" lon="4.17925">
        <ele>141</ele>
        <time>2012-03-11T08:37:04Z</time>
      </trkpt>
      <trkpt lat="43.81251" lon="4.17923">
        <ele>141</ele>
        <time>2012-03-11T08:37:05Z</time>
      </trkpt>
      <trkpt lat="43.8125" lon="4.17921">
        <ele>141</ele>
        <time>2012-03-11T08:37:06Z</time>
      </trkpt>
      <trkpt lat="43.8125" lon="4.17919">
        <ele>142</ele>
        <time>2012-03-11T08:37:07Z</time>
      </trkpt>
      <trkpt lat="43.81249" lon="4.17917">
        <ele>142</ele>
        <time>2012-03-11T08:37:08Z</time>
      </trkpt>
      <trkpt lat="43.81249" lon="4.17915">
        <ele>142</ele>
        <time>2012-03-11T08:37:09Z</time>
      </trkpt>
      <trkpt lat="43.81248" lon="4.17912">
        <ele>142</ele>
        <time>2012-03-11T08:37:10Z</time>
      </trkpt>
      <trkpt lat="43.81248" lon="4.1791">
        <ele>142</ele>
        <time>2012-03-11T08:37:11Z</time>
      </trkpt>
      <trkpt lat="43.81247" lon="4.17909">
        <ele>142</ele>
        <time>2012-03-11T08:37:12Z</time>
      </trkpt>
      <trkpt lat="43.81247" lon="4.17906">
        <ele>142</ele>
        <time>2012-03-11T08:37:14Z</time>
      </trkpt>
      <trkpt lat="43.81246" lon="4.17904">
        <ele>142</ele>
        <time>2012-03-11T08:37:15Z</time>
      </trkpt>
      <trkpt lat="43.81246" lon="4.17902">
        <ele>142</ele>
        <time>2012-03-11T08:37:16Z</time>
      </trkpt>
      <trkpt lat="43.81245" lon="4.179">
        <ele>142</ele>
        <time>2012-03-11T08:37:17Z</time>
      </trkpt>
      <trkpt lat="43.81245" lon="4.17899">
        <ele>142</ele>
        <time>2012-03-11T08:37:18Z</time>
      </trkpt>
      <trkpt lat="43.81245" lon="4.17896">
        <ele>142</ele>
        <time>2012-03-11T08:37:19Z</time>
      </trkpt>
      <trkpt lat="43.81244" lon="4.17895">
        <ele>142</ele>
        <time>2012-03-11T08:37:20Z</time>
      </trkpt>
      <trkpt lat="43.81243" lon="4.17892">
        <ele>142</ele>
        <time>2012-03-11T08:37:22Z</time>
      </trkpt>
      <trkpt lat="43.81243" lon="4.1789">
        <ele>143</ele>
        <time>2012-03-11T08:37:23Z</time>
      </trkpt>
      <trkpt lat="43.81242" lon="4.17888">
        <ele>143</ele>
        <time>2012-03-11T08:37:24Z</time>
      </trkpt>
      <trkpt lat="43.81242" lon="4.17886">
        <ele>144</ele>
        <time>2012-03-11T08:37:25Z</time>
      </trkpt>
      <trkpt lat="43.81241" lon="4.17883">
        <ele>144</ele>
        <time>2012-03-11T08:37:26Z</time>
      </trkpt>
      <trkpt lat="43.81241" lon="4.17882">
        <ele>144</ele>
        <time>2012-03-11T08:37:27Z</time>
      </trkpt>
      <trkpt lat="43.8124" lon="4.1788">
        <ele>144</ele>
        <time>2012-03-11T08:37:28Z</time>
      </trkpt>
      <trkpt lat="43.8124" lon="4.17878">
        <ele>145</ele>
        <time>2012-03-11T08:37:29Z</time>
      </trkpt>
      <trkpt lat="43.81239" lon="4.17876">
        <ele>145</ele>
        <time>2012-03-11T08:37:30Z</time>
      </trkpt>
      <trkpt lat="43.81238" lon="4.17874">
        <ele>145</ele>
        <time>2012-03-11T08:37:32Z</time>
      </trkpt>
      <trkpt lat="43.81237" lon="4.17873">
        <ele>145</ele>
        <time>2012-03-11T08:37:32Z</time>
      </trkpt>
      <trkpt lat="43.81237" lon="4.17871">
        <ele>145</ele>
        <time>2012-03-11T08:37:33Z</time>
      </trkpt>
      <trkpt lat="43.81237" lon="4.17869">
        <ele>145</ele>
        <time>2012-03-11T08:37:34Z</time>
      </trkpt>
      <trkpt lat="43.81237" lon="4.17867">
        <ele>145</ele>
        <time>2012-03-11T08:37:35Z</time>
      </trkpt>
      <trkpt lat="43.81236" lon="4.17865">
        <ele>145</ele>
        <time>2012-03-11T08:37:37Z</time>
      </trkpt>
      <trkpt lat="43.81235" lon="4.17863">
        <ele>145</ele>
        <time>2012-03-11T08:37:38Z</time>
      </trkpt>
      <trkpt lat="43.81235" lon="4.17862">
        <ele>145</ele>
        <time>2012-03-11T08:37:39Z</time>
      </trkpt>
      <trkpt lat="43.81234" lon="4.1786">
        <ele>145</ele>
        <time>2012-03-11T08:37:40Z</time>
      </trkpt>
      <trkpt lat="43.81233" lon="4.17858">
        <ele>145</ele>
        <time>2012-03-11T08:37:41Z</time>
      </trkpt>
      <trkpt lat="43.81232" lon="4.17857">
        <ele>145</ele>
        <time>2012-03-11T08:37:42Z</time>
      </trkpt>
      <trkpt lat="43.81231" lon="4.17855">
        <ele>145</ele>
        <time>2012-03-11T08:37:43Z</time>
      </trkpt>
      <trkpt lat="43.81231" lon="4.17853">
        <ele>145</ele>
        <time>2012-03-11T08:37:44Z</time>
      </trkpt>
      <trkpt lat="43.8123" lon="4.17851">
        <ele>145</ele>
        <time>2012-03-11T08:37:45Z</time>
      </trkpt>
      <trkpt lat="43.81229" lon="4.17849">
        <ele>145</ele>
        <time>2012-03-11T08:37:46Z</time>
      </trkpt>
      <trkpt lat="43.81228" lon="4.17848">
        <ele>145</ele>
        <time>2012-03-11T08:37:47Z</time>
      </trkpt>
      <trkpt lat="43.81226" lon="4.17845">
        <ele>145</ele>
        <time>2012-03-11T08:37:49Z</time>
      </trkpt>
      <trkpt lat="43.81225" lon="4.17843">
        <ele>145</ele>
        <time>2012-03-11T08:37:51Z</time>
      </trkpt>
      <trkpt lat="43.81224" lon="4.1784">
        <ele>145</ele>
        <time>2012-03-11T08:37:53Z</time>
      </trkpt>
      <trkpt lat="43.81223" lon="4.17838">
        <ele>145</ele>
        <time>2012-03-11T08:37:55Z</time>
      </trkpt>
      <trkpt lat="43.81222" lon="4.17837">
        <ele>145</ele>
        <time>2012-03-11T08:37:56Z</time>
      </trkpt>
      <trkpt lat="43.81221" lon="4.17835">
        <ele>145</ele>
        <time>2012-03-11T08:37:58Z</time>
      </trkpt>
      <trkpt lat="43.8122" lon="4.17832">
        <ele>145</ele>
        <time>2012-03-11T08:38:00Z</time>
      </trkpt>
      <trkpt lat="43.81219" lon="4.17831">
        <ele>145</ele>
        <time>2012-03-11T08:38:02Z</time>
      </trkpt>
      <trkpt lat="43.81218" lon="4.17829">
        <ele>145</ele>
        <time>2012-03-11T08:38:04Z</time>
      </trkpt>
      <trkpt lat="43.81217" lon="4.17828">
        <ele>145</ele>
        <time>2012-03-11T08:38:05Z</time>
      </trkpt>
      <trkpt lat="43.81214" lon="4.17827">
        <ele>145</ele>
        <time>2012-03-11T08:38:06Z</time>
      </trkpt>
      <trkpt lat="43.81213" lon="4.17826">
        <ele>145</ele>
        <time>2012-03-11T08:38:07Z</time>
      </trkpt>
      <trkpt lat="43.81211" lon="4.17823">
        <ele>145</ele>
        <time>2012-03-11T08:38:08Z</time>
      </trkpt>
      <trkpt lat="43.8121" lon="4.17821">
        <ele>145</ele>
        <time>2012-03-11T08:38:09Z</time>
      </trkpt>
      <trkpt lat="43.81208" lon="4.1782">
        <ele>145</ele>
        <time>2012-03-11T08:38:10Z</time>
      </trkpt>
      <trkpt lat="43.81207" lon="4.17819">
        <ele>145</ele>
        <time>2012-03-11T08:38:11Z</time>
      </trkpt>
      <trkpt lat="43.81206" lon="4.17817">
        <ele>145</ele>
        <time>2012-03-11T08:38:12Z</time>
      </trkpt>
      <trkpt lat="43.81205" lon="4.17816">
        <ele>145</ele>
        <time>2012-03-11T08:38:13Z</time>
      </trkpt>
      <trkpt lat="43.81203" lon="4.17814">
        <ele>145</ele>
        <time>2012-03-11T08:38:14Z</time>
      </trkpt>
      <trkpt lat="43.81201" lon="4.17813">
        <ele>145</ele>
        <time>2012-03-11T08:38:15Z</time>
      </trkpt>
      <trkpt lat="43.812" lon="4.17812">
        <ele>145</ele>
        <time>2012-03-11T08:38:16Z</time>
      </trkpt>
      <trkpt lat="43.81198" lon="4.1781">
        <ele>145</ele>
        <time>2012-03-11T08:38:18Z</time>
      </trkpt>
      <trkpt lat="43.81197" lon="4.1781">
        <ele>145</ele>
        <time>2012-03-11T08:38:21Z</time>
      </trkpt>
      <trkpt lat="43.81195" lon="4.17808">
        <ele>145</ele>
        <time>2012-03-11T08:38:24Z</time>
      </trkpt>
      <trkpt lat="43.81194" lon="4.17807">
        <ele>145</ele>
        <time>2012-03-11T08:38:27Z</time>
      </trkpt>
      <trkpt lat="43.81196" lon="4.17808">
        <ele>145</ele>
        <time>2012-03-11T08:38:29Z</time>
      </trkpt>
      <trkpt lat="43.81195" lon="4.17807">
        <ele>150</ele>
        <time>2012-03-11T08:38:38Z</time>
      </trkpt>
      <trkpt lat="43.81193" lon="4.17806">
        <ele>150</ele>
        <time>2012-03-11T08:38:40Z</time>
      </trkpt>
      <trkpt lat="43.81191" lon="4.17805">
        <ele>150</ele>
        <time>2012-03-11T08:38:41Z</time>
      </trkpt>
      <trkpt lat="43.8119" lon="4.17804">
        <ele>150</ele>
        <time>2012-03-11T08:38:42Z</time>
      </trkpt>
      <trkpt lat="43.81189" lon="4.17803">
        <ele>150</ele>
        <time>2012-03-11T08:38:43Z</time>
      </trkpt>
      <trkpt lat="43.81187" lon="4.17802">
        <ele>150</ele>
        <time>2012-03-11T08:38:44Z</time>
      </trkpt>
      <trkpt lat="43.81186" lon="4.17802">
        <ele>150</ele>
        <time>2012-03-11T08:38:45Z</time>
      </trkpt>
      <trkpt lat="43.81185" lon="4.178">
        <ele>150</ele>
        <time>2012-03-11T08:38:46Z</time>
      </trkpt>
      <trkpt lat="43.81183" lon="4.178">
        <ele>150</ele>
        <time>2012-03-11T08:38:47Z</time>
      </trkpt>
      <trkpt lat="43.81181" lon="4.17799">
        <ele>150</ele>
        <time>2012-03-11T08:38:48Z</time>
      </trkpt>
      <trkpt lat="43.8118" lon="4.17799">
        <ele>150</ele>
        <time>2012-03-11T08:38:49Z</time>
      </trkpt>
      <trkpt lat="43.81178" lon="4.17798">
        <ele>150</ele>
        <time>2012-03-11T08:38:50Z</time>
      </trkpt>
      <trkpt lat="43.81176" lon="4.17797">
        <ele>150</ele>
        <time>2012-03-11T08:38:52Z</time>
      </trkpt>
      <trkpt lat="43.81173" lon="4.17797">
        <ele>150</ele>
        <time>2012-03-11T08:38:53Z</time>
      </trkpt>
      <trkpt lat="43.81172" lon="4.17797">
        <ele>150</ele>
        <time>2012-03-11T08:38:54Z</time>
      </trkpt>
      <trkpt lat="43.8117" lon="4.17798">
        <ele>150</ele>
        <time>2012-03-11T08:38:55Z</time>
      </trkpt>
      <trkpt lat="43.81168" lon="4.17798">
        <ele>150</ele>
        <time>2012-03-11T08:38:56Z</time>
      </trkpt>
      <trkpt lat="43.81166" lon="4.17798">
        <ele>150</ele>
        <time>2012-03-11T08:38:57Z</time>
      </trkpt>
      <trkpt lat="43.81165" lon="4.17798">
        <ele>150</ele>
        <time>2012-03-11T08:38:58Z</time>
      </trkpt>
      <trkpt lat="43.81163" lon="4.17797">
        <ele>150</ele>
        <time>2012-03-11T08:38:59Z</time>
      </trkpt>
      <trkpt lat="43.81161" lon="4.17795">
        <ele>150</ele>
        <time>2012-03-11T08:39:01Z</time>
      </trkpt>
      <trkpt lat="43.8116" lon="4.17793">
        <ele>150</ele>
        <time>2012-03-11T08:39:03Z</time>
      </trkpt>
      <trkpt lat="43.81158" lon="4.1779">
        <ele>151</ele>
        <time>2012-03-11T08:39:05Z</time>
      </trkpt>
      <trkpt lat="43.81157" lon="4.17789">
        <ele>151</ele>
        <time>2012-03-11T08:39:06Z</time>
      </trkpt>
      <trkpt lat="43.81157" lon="4.17787">
        <ele>151</ele>
        <time>2012-03-11T08:39:07Z</time>
      </trkpt>
      <trkpt lat="43.81156" lon="4.17785">
        <ele>152</ele>
        <time>2012-03-11T08:39:08Z</time>
      </trkpt>
      <trkpt lat="43.81155" lon="4.17783">
        <ele>152</ele>
        <time>2012-03-11T08:39:09Z</time>
      </trkpt>
      <trkpt lat="43.81155" lon="4.17781">
        <ele>152</ele>
        <time>2012-03-11T08:39:10Z</time>
      </trkpt>
      <trkpt lat="43.81155" lon="4.17778">
        <ele>153</ele>
        <time>2012-03-11T08:39:11Z</time>
      </trkpt>
      <trkpt lat="43.81155" lon="4.17777">
        <ele>153</ele>
        <time>2012-03-11T08:39:12Z</time>
      </trkpt>
      <trkpt lat="43.81155" lon="4.17775">
        <ele>153</ele>
        <time>2012-03-11T08:39:13Z</time>
      </trkpt>
      <trkpt lat="43.81156" lon="4.17773">
        <ele>154</ele>
        <time>2012-03-11T08:39:14Z</time>
      </trkpt>
      <trkpt lat="43.81156" lon="4.1777">
        <ele>154</ele>
        <time>2012-03-11T08:39:15Z</time>
      </trkpt>
      <trkpt lat="43.81157" lon="4.17768">
        <ele>154</ele>
        <time>2012-03-11T08:39:16Z</time>
      </trkpt>
      <trkpt lat="43.81157" lon="4.17767">
        <ele>154</ele>
        <time>2012-03-11T08:39:17Z</time>
      </trkpt>
      <trkpt lat="43.81158" lon="4.17765">
        <ele>155</ele>
        <time>2012-03-11T08:39:18Z</time>
      </trkpt>
      <trkpt lat="43.81158" lon="4.17764">
        <ele>155</ele>
        <time>2012-03-11T08:39:19Z</time>
      </trkpt>
      <trkpt lat="43.81159" lon="4.17762">
        <ele>155</ele>
        <time>2012-03-11T08:39:20Z</time>
      </trkpt>
      <trkpt lat="43.8116" lon="4.1776">
        <ele>156</ele>
        <time>2012-03-11T08:39:21Z</time>
      </trkpt>
      <trkpt lat="43.81161" lon="4.17759">
        <ele>156</ele>
        <time>2012-03-11T08:39:22Z</time>
      </trkpt>
      <trkpt lat="43.81162" lon="4.17757">
        <ele>156</ele>
        <time>2012-03-11T08:39:23Z</time>
      </trkpt>
      <trkpt lat="43.81163" lon="4.17756">
        <ele>157</ele>
        <time>2012-03-11T08:39:24Z</time>
      </trkpt>
      <trkpt lat="43.81164" lon="4.17754">
        <ele>157</ele>
        <time>2012-03-11T08:39:25Z</time>
      </trkpt>
      <trkpt lat="43.81165" lon="4.17752">
        <ele>157</ele>
        <time>2012-03-11T08:39:26Z</time>
      </trkpt>
      <trkpt lat="43.81166" lon="4.1775">
        <ele>158</ele>
        <time>2012-03-11T08:39:27Z</time>
      </trkpt>
      <trkpt lat="43.81166" lon="4.17749">
        <ele>158</ele>
        <time>2012-03-11T08:39:28Z</time>
      </trkpt>
      <trkpt lat="43.81167" lon="4.17747">
        <ele>158</ele>
        <time>2012-03-11T08:39:29Z</time>
      </trkpt>
      <trkpt lat="43.81168" lon="4.17746">
        <ele>159</ele>
        <time>2012-03-11T08:39:30Z</time>
      </trkpt>
      <trkpt lat="43.81169" lon="4.17744">
        <ele>159</ele>
        <time>2012-03-11T08:39:31Z</time>
      </trkpt>
      <trkpt lat="43.8117" lon="4.17743">
        <ele>159</ele>
        <time>2012-03-11T08:39:32Z</time>
      </trkpt>
      <trkpt lat="43.81171" lon="4.17741">
        <ele>160</ele>
        <time>2012-03-11T08:39:34Z</time>
      </trkpt>
      <trkpt lat="43.81171" lon="4.17739">
        <ele>160</ele>
        <time>2012-03-11T08:39:35Z</time>
      </trkpt>
      <trkpt lat="43.81173" lon="4.17737">
        <ele>160</ele>
        <time>2012-03-11T08:39:37Z</time>
      </trkpt>
      <trkpt lat="43.81174" lon="4.17736">
        <ele>160</ele>
        <time>2012-03-11T08:39:40Z</time>
      </trkpt>
      <trkpt lat="43.81174" lon="4.17734">
        <ele>160</ele>
        <time>2012-03-11T08:39:42Z</time>
      </trkpt>
      <trkpt lat="43.81176" lon="4.17733">
        <ele>160</ele>
        <time>2012-03-11T08:39:44Z</time>
      </trkpt>
      <trkpt lat="43.81178" lon="4.17732">
        <ele>160</ele>
        <time>2012-03-11T08:39:45Z</time>
      </trkpt>
      <trkpt lat="43.81179" lon="4.17731">
        <ele>160</ele>
        <time>2012-03-11T08:39:46Z</time>
      </trkpt>
      <trkpt lat="43.8118" lon="4.17729">
        <ele>160</ele>
        <time>2012-03-11T08:39:47Z</time>
      </trkpt>
      <trkpt lat="43.81181" lon="4.17728">
        <ele>160</ele>
        <time>2012-03-11T08:39:48Z</time>
      </trkpt>
      <trkpt lat="43.81184" lon="4.17727">
        <ele>160</ele>
        <time>2012-03-11T08:39:50Z</time>
      </trkpt>
      <trkpt lat="43.81185" lon="4.17726">
        <ele>161</ele>
        <time>2012-03-11T08:39:51Z</time>
      </trkpt>
      <trkpt lat="43.81186" lon="4.17726">
        <ele>161</ele>
        <time>2012-03-11T08:39:52Z</time>
      </trkpt>
      <trkpt lat="43.81187" lon="4.17725">
        <ele>161</ele>
        <time>2012-03-11T08:39:53Z</time>
      </trkpt>
      <trkpt lat="43.81189" lon="4.17725">
        <ele>162</ele>
        <time>2012-03-11T08:39:54Z</time>
      </trkpt>
      <trkpt lat="43.8119" lon="4.17723">
        <ele>162</ele>
        <time>2012-03-11T08:39:55Z</time>
      </trkpt>
      <trkpt lat="43.81192" lon="4.17723">
        <ele>163</ele>
        <time>2012-03-11T08:39:56Z</time>
      </trkpt>
      <trkpt lat="43.81193" lon="4.17722">
        <ele>163</ele>
        <time>2012-03-11T08:39:57Z</time>
      </trkpt>
      <trkpt lat="43.81194" lon="4.17721">
        <ele>163</ele>
        <time>2012-03-11T08:39:58Z</time>
      </trkpt>
      <trkpt lat="43.81196" lon="4.17718">
        <ele>164</ele>
        <time>2012-03-11T08:40:00Z</time>
      </trkpt>
      <trkpt lat="43.81197" lon="4.17716">
        <ele>164</ele>
        <time>2012-03-11T08:40:01Z</time>
      </trkpt>
      <trkpt lat="43.81199" lon="4.17714">
        <ele>165</ele>
        <time>2012-03-11T08:40:02Z</time>
      </trkpt>
      <trkpt lat="43.812" lon="4.17711">
        <ele>165</ele>
        <time>2012-03-11T08:40:03Z</time>
      </trkpt>
      <trkpt lat="43.812" lon="4.17709">
        <ele>165</ele>
        <time>2012-03-11T08:40:04Z</time>
      </trkpt>
      <trkpt lat="43.812" lon="4.17706">
        <ele>165</ele>
        <time>2012-03-11T08:40:05Z</time>
      </trkpt>
      <trkpt lat="43.81199" lon="4.17704">
        <ele>165</ele>
        <time>2012-03-11T08:40:06Z</time>
      </trkpt>
      <trkpt lat="43.81199" lon="4.17702">
        <ele>165</ele>
        <time>2012-03-11T08:40:07Z</time>
      </trkpt>
      <trkpt lat="43.81198" lon="4.177">
        <ele>165</ele>
        <time>2012-03-11T08:40:08Z</time>
      </trkpt>
      <trkpt lat="43.81196" lon="4.177">
        <ele>165</ele>
        <time>2012-03-11T08:40:09Z</time>
      </trkpt>
      <trkpt lat="43.81194" lon="4.177">
        <ele>165</ele>
        <time>2012-03-11T08:40:10Z</time>
      </trkpt>
      <trkpt lat="43.81192" lon="4.17701">
        <ele>165</ele>
        <time>2012-03-11T08:40:11Z</time>
      </trkpt>
      <trkpt lat="43.81191" lon="4.17701">
        <ele>165</ele>
        <time>2012-03-11T08:40:12Z</time>
      </trkpt>
      <trkpt lat="43.8119" lon="4.17701">
        <ele>165</ele>
        <time>2012-03-11T08:40:13Z</time>
      </trkpt>
      <trkpt lat="43.81188" lon="4.17702">
        <ele>165</ele>
        <time>2012-03-11T08:40:14Z</time>
      </trkpt>
      <trkpt lat="43.81187" lon="4.17703">
        <ele>165</ele>
        <time>2012-03-11T08:40:15Z</time>
      </trkpt>
      <trkpt lat="43.81185" lon="4.17703">
        <ele>165</ele>
        <time>2012-03-11T08:40:16Z</time>
      </trkpt>
      <trkpt lat="43.81183" lon="4.17703">
        <ele>165</ele>
        <time>2012-03-11T08:40:17Z</time>
      </trkpt>
      <trkpt lat="43.81181" lon="4.17704">
        <ele>165</ele>
        <time>2012-03-11T08:40:18Z</time>
      </trkpt>
      <trkpt lat="43.81179" lon="4.17705">
        <ele>166</ele>
        <time>2012-03-11T08:40:19Z</time>
      </trkpt>
      <trkpt lat="43.81178" lon="4.17706">
        <ele>166</ele>
        <time>2012-03-11T08:40:20Z</time>
      </trkpt>
      <trkpt lat="43.81176" lon="4.17707">
        <ele>167</ele>
        <time>2012-03-11T08:40:21Z</time>
      </trkpt>
      <trkpt lat="43.81174" lon="4.17707">
        <ele>167</ele>
        <time>2012-03-11T08:40:23Z</time>
      </trkpt>
      <trkpt lat="43.81173" lon="4.17708">
        <ele>168</ele>
        <time>2012-03-11T08:40:24Z</time>
      </trkpt>
      <trkpt lat="43.81171" lon="4.17709">
        <ele>168</ele>
        <time>2012-03-11T08:40:25Z</time>
      </trkpt>
      <trkpt lat="43.81169" lon="4.17709">
        <ele>168</ele>
        <time>2012-03-11T08:40:26Z</time>
      </trkpt>
      <trkpt lat="43.81168" lon="4.17709">
        <ele>169</ele>
        <time>2012-03-11T08:40:27Z</time>
      </trkpt>
      <trkpt lat="43.81166" lon="4.17709">
        <ele>169</ele>
        <time>2012-03-11T08:40:28Z</time>
      </trkpt>
      <trkpt lat="43.81164" lon="4.17709">
        <ele>169</ele>
        <time>2012-03-11T08:40:29Z</time>
      </trkpt>
      <trkpt lat="43.81162" lon="4.17709">
        <ele>169</ele>
        <time>2012-03-11T08:40:30Z</time>
      </trkpt>
      <trkpt lat="43.8116" lon="4.17709">
        <ele>170</ele>
        <time>2012-03-11T08:40:31Z</time>
      </trkpt>
      <trkpt lat="43.81158" lon="4.17709">
        <ele>170</ele>
        <time>2012-03-11T08:40:32Z</time>
      </trkpt>
      <trkpt lat="43.81157" lon="4.17709">
        <ele>170</ele>
        <time>2012-03-11T08:40:33Z</time>
      </trkpt>
      <trkpt lat="43.81155" lon="4.17709">
        <ele>171</ele>
        <time>2012-03-11T08:40:34Z</time>
      </trkpt>
      <trkpt lat="43.81153" lon="4.17709">
        <ele>171</ele>
        <time>2012-03-11T08:40:35Z</time>
      </trkpt>
      <trkpt lat="43.81151" lon="4.17709">
        <ele>172</ele>
        <time>2012-03-11T08:40:36Z</time>
      </trkpt>
      <trkpt lat="43.81149" lon="4.17709">
        <ele>172</ele>
        <time>2012-03-11T08:40:37Z</time>
      </trkpt>
      <trkpt lat="43.81148" lon="4.17708">
        <ele>172</ele>
        <time>2012-03-11T08:40:38Z</time>
      </trkpt>
      <trkpt lat="43.81146" lon="4.17707">
        <ele>172</ele>
        <time>2012-03-11T08:40:39Z</time>
      </trkpt>
      <trkpt lat="43.81144" lon="4.17707">
        <ele>172</ele>
        <time>2012-03-11T08:40:40Z</time>
      </trkpt>
      <trkpt lat="43.81142" lon="4.17707">
        <ele>172</ele>
        <time>2012-03-11T08:40:41Z</time>
      </trkpt>
      <trkpt lat="43.8114" lon="4.17706">
        <ele>172</ele>
        <time>2012-03-11T08:40:42Z</time>
      </trkpt>
      <trkpt lat="43.81138" lon="4.17705">
        <ele>172</ele>
        <time>2012-03-11T08:40:43Z</time>
      </trkpt>
      <trkpt lat="43.81136" lon="4.17705">
        <ele>172</ele>
        <time>2012-03-11T08:40:44Z</time>
      </trkpt>
      <trkpt lat="43.81134" lon="4.17705">
        <ele>172</ele>
        <time>2012-03-11T08:40:45Z</time>
      </trkpt>
      <trkpt lat="43.81131" lon="4.17705">
        <ele>172</ele>
        <time>2012-03-11T08:40:46Z</time>
      </trkpt>
      <trkpt lat="43.81129" lon="4.17705">
        <ele>172</ele>
        <time>2012-03-11T08:40:47Z</time>
      </trkpt>
      <trkpt lat="43.81127" lon="4.17705">
        <ele>172</ele>
        <time>2012-03-11T08:40:48Z</time>
      </trkpt>
      <trkpt lat="43.81125" lon="4.17706">
        <ele>172</ele>
        <time>2012-03-11T08:40:49Z</time>
      </trkpt>
      <trkpt lat="43.81123" lon="4.17708">
        <ele>172</ele>
        <time>2012-03-11T08:40:50Z</time>
      </trkpt>
      <trkpt lat="43.81122" lon="4.17709">
        <ele>172</ele>
        <time>2012-03-11T08:40:51Z</time>
      </trkpt>
      <trkpt lat="43.81121" lon="4.17711">
        <ele>172</ele>
        <time>2012-03-11T08:40:52Z</time>
      </trkpt>
      <trkpt lat="43.8112" lon="4.17713">
        <ele>172</ele>
        <time>2012-03-11T08:40:53Z</time>
      </trkpt>
      <trkpt lat="43.81119" lon="4.17716">
        <ele>172</ele>
        <time>2012-03-11T08:40:54Z</time>
      </trkpt>
      <trkpt lat="43.81118" lon="4.17718">
        <ele>172</ele>
        <time>2012-03-11T08:40:55Z</time>
      </trkpt>
      <trkpt lat="43.81116" lon="4.1772">
        <ele>172</ele>
        <time>2012-03-11T08:40:56Z</time>
      </trkpt>
      <trkpt lat="43.81115" lon="4.17722">
        <ele>173</ele>
        <time>2012-03-11T08:40:57Z</time>
      </trkpt>
      <trkpt lat="43.81114" lon="4.17724">
        <ele>173</ele>
        <time>2012-03-11T08:40:58Z</time>
      </trkpt>
      <trkpt lat="43.81113" lon="4.17726">
        <ele>173</ele>
        <time>2012-03-11T08:40:59Z</time>
      </trkpt>
      <trkpt lat="43.81112" lon="4.17728">
        <ele>173</ele>
        <time>2012-03-11T08:41:00Z</time>
      </trkpt>
      <trkpt lat="43.81111" lon="4.1773">
        <ele>174</ele>
        <time>2012-03-11T08:41:01Z</time>
      </trkpt>
      <trkpt lat="43.8111" lon="4.17732">
        <ele>174</ele>
        <time>2012-03-11T08:41:02Z</time>
      </trkpt>
      <trkpt lat="43.81109" lon="4.17734">
        <ele>174</ele>
        <time>2012-03-11T08:41:03Z</time>
      </trkpt>
      <trkpt lat="43.81107" lon="4.17735">
        <ele>174</ele>
        <time>2012-03-11T08:41:04Z</time>
      </trkpt>
      <trkpt lat="43.81106" lon="4.17737">
        <ele>174</ele>
        <time>2012-03-11T08:41:05Z</time>
      </trkpt>
      <trkpt lat="43.81105" lon="4.17739">
        <ele>174</ele>
        <time>2012-03-11T08:41:06Z</time>
      </trkpt>
      <trkpt lat="43.81104" lon="4.17742">
        <ele>174</ele>
        <time>2012-03-11T08:41:07Z</time>
      </trkpt>
      <trkpt lat="43.81103" lon="4.17744">
        <ele>175</ele>
        <time>2012-03-11T08:41:08Z</time>
      </trkpt>
      <trkpt lat="43.81102" lon="4.17746">
        <ele>175</ele>
        <time>2012-03-11T08:41:09Z</time>
      </trkpt>
      <trkpt lat="43.811" lon="4.17748">
        <ele>175</ele>
        <time>2012-03-11T08:41:10Z</time>
      </trkpt>
      <trkpt lat="43.811" lon="4.1775">
        <ele>176</ele>
        <time>2012-03-11T08:41:11Z</time>
      </trkpt>
      <trkpt lat="43.81099" lon="4.17752">
        <ele>176</ele>
        <time>2012-03-11T08:41:12Z</time>
      </trkpt>
      <trkpt lat="43.81099" lon="4.17754">
        <ele>177</ele>
        <time>2012-03-11T08:41:13Z</time>
      </trkpt>
      <trkpt lat="43.81098" lon="4.17756">
        <ele>177</ele>
        <time>2012-03-11T08:41:14Z</time>
      </trkpt>
      <trkpt lat="43.81097" lon="4.17758">
        <ele>178</ele>
        <time>2012-03-11T08:41:15Z</time>
      </trkpt>
      <trkpt lat="43.81097" lon="4.17761">
        <ele>178</ele>
        <time>2012-03-11T08:41:16Z</time>
      </trkpt>
      <trkpt lat="43.81096" lon="4.17762">
        <ele>178</ele>
        <time>2012-03-11T08:41:17Z</time>
      </trkpt>
      <trkpt lat="43.81096" lon="4.17765">
        <ele>178</ele>
        <time>2012-03-11T08:41:18Z</time>
      </trkpt>
      <trkpt lat="43.81095" lon="4.17767">
        <ele>178</ele>
        <time>2012-03-11T08:41:19Z</time>
      </trkpt>
      <trkpt lat="43.81095" lon="4.17769">
        <ele>178</ele>
        <time>2012-03-11T08:41:20Z</time>
      </trkpt>
      <trkpt lat="43.81095" lon="4.17771">
        <ele>178</ele>
        <time>2012-03-11T08:41:21Z</time>
      </trkpt>
      <trkpt lat="43.81095" lon="4.17773">
        <ele>179</ele>
        <time>2012-03-11T08:41:22Z</time>
      </trkpt>
      <trkpt lat="43.81094" lon="4.17775">
        <ele>179</ele>
        <time>2012-03-11T08:41:23Z</time>
      </trkpt>
      <trkpt lat="43.81094" lon="4.17776">
        <ele>180</ele>
        <time>2012-03-11T08:41:24Z</time>
      </trkpt>
      <trkpt lat="43.81093" lon="4.17779">
        <ele>180</ele>
        <time>2012-03-11T08:41:25Z</time>
      </trkpt>
      <trkpt lat="43.81093" lon="4.17781">
        <ele>180</ele>
        <time>2012-03-11T08:41:26Z</time>
      </trkpt>
      <trkpt lat="43.81092" lon="4.17783">
        <ele>181</ele>
        <time>2012-03-11T08:41:27Z</time>
      </trkpt>
      <trkpt lat="43.81091" lon="4.17785">
        <ele>181</ele>
        <time>2012-03-11T08:41:28Z</time>
      </trkpt>
      <trkpt lat="43.8109" lon="4.17788">
        <ele>182</ele>
        <time>2012-03-11T08:41:29Z</time>
      </trkpt>
      <trkpt lat="43.8109" lon="4.1779">
        <ele>182</ele>
        <time>2012-03-11T08:41:30Z</time>
      </trkpt>
      <trkpt lat="43.8109" lon="4.17792">
        <ele>182</ele>
        <time>2012-03-11T08:41:31Z</time>
      </trkpt>
      <trkpt lat="43.81089" lon="4.17795">
        <ele>182</ele>
        <time>2012-03-11T08:41:32Z</time>
      </trkpt>
      <trkpt lat="43.8109" lon="4.17799">
        <ele>182</ele>
        <time>2012-03-11T08:41:33Z</time>
      </trkpt>
      <trkpt lat="43.81089" lon="4.17802">
        <ele>182</ele>
        <time>2012-03-11T08:41:34Z</time>
      </trkpt>
      <trkpt lat="43.81089" lon="4.17805">
        <ele>182</ele>
        <time>2012-03-11T08:41:35Z</time>
      </trkpt>
      <trkpt lat="43.81089" lon="4.17807">
        <ele>182</ele>
        <time>2012-03-11T08:41:36Z</time>
      </trkpt>
      <trkpt lat="43.81088" lon="4.17809">
        <ele>182</ele>
        <time>2012-03-11T08:41:37Z</time>
      </trkpt>
      <trkpt lat="43.81087" lon="4.17812">
        <ele>182</ele>
        <time>2012-03-11T08:41:38Z</time>
      </trkpt>
      <trkpt lat="43.81086" lon="4.17814">
        <ele>182</ele>
        <time>2012-03-11T08:41:39Z</time>
      </trkpt>
      <trkpt lat="43.81085" lon="4.17816">
        <ele>182</ele>
        <time>2012-03-11T08:41:40Z</time>
      </trkpt>
      <trkpt lat="43.81084" lon="4.17818">
        <ele>182</ele>
        <time>2012-03-11T08:41:41Z</time>
      </trkpt>
      <trkpt lat="43.81084" lon="4.17822">
        <ele>182</ele>
        <time>2012-03-11T08:41:42Z</time>
      </trkpt>
      <trkpt lat="43.81084" lon="4.17825">
        <ele>182</ele>
        <time>2012-03-11T08:41:43Z</time>
      </trkpt>
      <trkpt lat="43.81083" lon="4.17828">
        <ele>182</ele>
        <time>2012-03-11T08:41:44Z</time>
      </trkpt>
      <trkpt lat="43.81083" lon="4.17831">
        <ele>182</ele>
        <time>2012-03-11T08:41:45Z</time>
      </trkpt>
      <trkpt lat="43.81083" lon="4.17834">
        <ele>182</ele>
        <time>2012-03-11T08:41:46Z</time>
      </trkpt>
      <trkpt lat="43.81083" lon="4.17836">
        <ele>182</ele>
        <time>2012-03-11T08:41:47Z</time>
      </trkpt>
      <trkpt lat="43.81082" lon="4.17839">
        <ele>182</ele>
        <time>2012-03-11T08:41:48Z</time>
      </trkpt>
      <trkpt lat="43.81082" lon="4.17841">
        <ele>182</ele>
        <time>2012-03-11T08:41:49Z</time>
      </trkpt>
      <trkpt lat="43.81081" lon="4.17844">
        <ele>182</ele>
        <time>2012-03-11T08:41:50Z</time>
      </trkpt>
      <trkpt lat="43.81081" lon="4.17846">
        <ele>182</ele>
        <time>2012-03-11T08:41:51Z</time>
      </trkpt>
      <trkpt lat="43.8108" lon="4.17849">
        <ele>182</ele>
        <time>2012-03-11T08:41:52Z</time>
      </trkpt>
      <trkpt lat="43.81079" lon="4.17851">
        <ele>182</ele>
        <time>2012-03-11T08:41:53Z</time>
      </trkpt>
      <trkpt lat="43.81078" lon="4.17854">
        <ele>182</ele>
        <time>2012-03-11T08:41:54Z</time>
      </trkpt>
      <trkpt lat="43.81078" lon="4.17856">
        <ele>182</ele>
        <time>2012-03-11T08:41:55Z</time>
      </trkpt>
      <trkpt lat="43.81077" lon="4.17859">
        <ele>182</ele>
        <time>2012-03-11T08:41:56Z</time>
      </trkpt>
      <trkpt lat="43.81077" lon="4.17861">
        <ele>182</ele>
        <time>2012-03-11T08:41:57Z</time>
      </trkpt>
      <trkpt lat="43.81077" lon="4.17864">
        <ele>182</ele>
        <time>2012-03-11T08:41:58Z</time>
      </trkpt>
      <trkpt lat="43.81076" lon="4.17867">
        <ele>182</ele>
        <time>2012-03-11T08:41:59Z</time>
      </trkpt>
      <trkpt lat="43.81076" lon="4.1787">
        <ele>182</ele>
        <time>2012-03-11T08:42:00Z</time>
      </trkpt>
      <trkpt lat="43.81075" lon="4.17872">
        <ele>182</ele>
        <time>2012-03-11T08:42:01Z</time>
      </trkpt>
      <trkpt lat="43.81075" lon="4.17874">
        <ele>182</ele>
        <time>2012-03-11T08:42:02Z</time>
      </trkpt>
      <trkpt lat="43.81074" lon="4.17876">
        <ele>182</ele>
        <time>2012-03-11T08:42:03Z</time>
      </trkpt>
      <trkpt lat="43.81073" lon="4.17878">
        <ele>182</ele>
        <time>2012-03-11T08:42:04Z</time>
      </trkpt>
      <trkpt lat="43.81073" lon="4.1788">
        <ele>182</ele>
        <time>2012-03-11T08:42:05Z</time>
      </trkpt>
      <trkpt lat="43.81072" lon="4.17883">
        <ele>182</ele>
        <time>2012-03-11T08:42:06Z</time>
      </trkpt>
      <trkpt lat="43.81072" lon="4.17885">
        <ele>182</ele>
        <time>2012-03-11T08:42:07Z</time>
      </trkpt>
      <trkpt lat="43.81073" lon="4.17887">
        <ele>182</ele>
        <time>2012-03-11T08:42:08Z</time>
      </trkpt>
      <trkpt lat="43.81072" lon="4.17889">
        <ele>182</ele>
        <time>2012-03-11T08:42:09Z</time>
      </trkpt>
      <trkpt lat="43.81071" lon="4.17891">
        <ele>182</ele>
        <time>2012-03-11T08:42:10Z</time>
      </trkpt>
      <trkpt lat="43.81071" lon="4.17893">
        <ele>182</ele>
        <time>2012-03-11T08:42:11Z</time>
      </trkpt>
      <trkpt lat="43.8107" lon="4.17895">
        <ele>182</ele>
        <time>2012-03-11T08:42:12Z</time>
      </trkpt>
      <trkpt lat="43.81069" lon="4.17898">
        <ele>182</ele>
        <time>2012-03-11T08:42:13Z</time>
      </trkpt>
      <trkpt lat="43.81069" lon="4.179">
        <ele>182</ele>
        <time>2012-03-11T08:42:14Z</time>
      </trkpt>
      <trkpt lat="43.81068" lon="4.17903">
        <ele>182</ele>
        <time>2012-03-11T08:42:15Z</time>
      </trkpt>
      <trkpt lat="43.81068" lon="4.17905">
        <ele>182</ele>
        <time>2012-03-11T08:42:16Z</time>
      </trkpt>
      <trkpt lat="43.81067" lon="4.17907">
        <ele>182</ele>
        <time>2012-03-11T08:42:17Z</time>
      </trkpt>
      <trkpt lat="43.81067" lon="4.17909">
        <ele>182</ele>
        <time>2012-03-11T08:42:18Z</time>
      </trkpt>
      <trkpt lat="43.81067" lon="4.17911">
        <ele>182</ele>
        <time>2012-03-11T08:42:19Z</time>
      </trkpt>
      <trkpt lat="43.81067" lon="4.17914">
        <ele>183</ele>
        <time>2012-03-11T08:42:20Z</time>
      </trkpt>
      <trkpt lat="43.81067" lon="4.17916">
        <ele>183</ele>
        <time>2012-03-11T08:42:21Z</time>
      </trkpt>
      <trkpt lat="43.81066" lon="4.17918">
        <ele>183</ele>
        <time>2012-03-11T08:42:22Z</time>
      </trkpt>
      <trkpt lat="43.81066" lon="4.17921">
        <ele>183</ele>
        <time>2012-03-11T08:42:23Z</time>
      </trkpt>
      <trkpt lat="43.81066" lon="4.17923">
        <ele>184</ele>
        <time>2012-03-11T08:42:24Z</time>
      </trkpt>
      <trkpt lat="43.81066" lon="4.17926">
        <ele>184</ele>
        <time>2012-03-11T08:42:25Z</time>
      </trkpt>
      <trkpt lat="43.81066" lon="4.17929">
        <ele>184</ele>
        <time>2012-03-11T08:42:26Z</time>
      </trkpt>
      <trkpt lat="43.81066" lon="4.17931">
        <ele>184</ele>
        <time>2012-03-11T08:42:27Z</time>
      </trkpt>
      <trkpt lat="43.81066" lon="4.17934">
        <ele>185</ele>
        <time>2012-03-11T08:42:28Z</time>
      </trkpt>
      <trkpt lat="43.81066" lon="4.17937">
        <ele>185</ele>
        <time>2012-03-11T08:42:29Z</time>
      </trkpt>
      <trkpt lat="43.81066" lon="4.1794">
        <ele>185</ele>
        <time>2012-03-11T08:42:30Z</time>
      </trkpt>
      <trkpt lat="43.81066" lon="4.17942">
        <ele>185</ele>
        <time>2012-03-11T08:42:31Z</time>
      </trkpt>
      <trkpt lat="43.81066" lon="4.17945">
        <ele>186</ele>
        <time>2012-03-11T08:42:32Z</time>
      </trkpt>
      <trkpt lat="43.81065" lon="4.17947">
        <ele>186</ele>
        <time>2012-03-11T08:42:33Z</time>
      </trkpt>
      <trkpt lat="43.81065" lon="4.1795">
        <ele>186</ele>
        <time>2012-03-11T08:42:34Z</time>
      </trkpt>
      <trkpt lat="43.81064" lon="4.17952">
        <ele>187</ele>
        <time>2012-03-11T08:42:35Z</time>
      </trkpt>
      <trkpt lat="43.81064" lon="4.17955">
        <ele>187</ele>
        <time>2012-03-11T08:42:36Z</time>
      </trkpt>
      <trkpt lat="43.81063" lon="4.17958">
        <ele>188</ele>
        <time>2012-03-11T08:42:37Z</time>
      </trkpt>
      <trkpt lat="43.81063" lon="4.17961">
        <ele>188</ele>
        <time>2012-03-11T08:42:38Z</time>
      </trkpt>
      <trkpt lat="43.81062" lon="4.17963">
        <ele>189</ele>
        <time>2012-03-11T08:42:39Z</time>
      </trkpt>
      <trkpt lat="43.81062" lon="4.17966">
        <ele>189</ele>
        <time>2012-03-11T08:42:40Z</time>
      </trkpt>
      <trkpt lat="43.81061" lon="4.17969">
        <ele>190</ele>
        <time>2012-03-11T08:42:41Z</time>
      </trkpt>
      <trkpt lat="43.8106" lon="4.17971">
        <ele>190</ele>
        <time>2012-03-11T08:42:42Z</time>
      </trkpt>
      <trkpt lat="43.8106" lon="4.17974">
        <ele>190</ele>
        <time>2012-03-11T08:42:43Z</time>
      </trkpt>
      <trkpt lat="43.81059" lon="4.17976">
        <ele>191</ele>
        <time>2012-03-11T08:42:44Z</time>
      </trkpt>
      <trkpt lat="43.81059" lon="4.17979">
        <ele>191</ele>
        <time>2012-03-11T08:42:45Z</time>
      </trkpt>
      <trkpt lat="43.81059" lon="4.17981">
        <ele>192</ele>
        <time>2012-03-11T08:42:46Z</time>
      </trkpt>
      <trkpt lat="43.81058" lon="4.17984">
        <ele>192</ele>
        <time>2012-03-11T08:42:47Z</time>
      </trkpt>
      <trkpt lat="43.81057" lon="4.17987">
        <ele>193</ele>
        <time>2012-03-11T08:42:48Z</time>
      </trkpt>
      <trkpt lat="43.81057" lon="4.17989">
        <ele>193</ele>
        <time>2012-03-11T08:42:49Z</time>
      </trkpt>
      <trkpt lat="43.81056" lon="4.17992">
        <ele>193</ele>
        <time>2012-03-11T08:42:50Z</time>
      </trkpt>
      <trkpt lat="43.81056" lon="4.17995">
        <ele>194</ele>
        <time>2012-03-11T08:42:51Z</time>
      </trkpt>
      <trkpt lat="43.81055" lon="4.17998">
        <ele>194</ele>
        <time>2012-03-11T08:42:52Z</time>
      </trkpt>
      <trkpt lat="43.81055" lon="4.18">
        <ele>195</ele>
        <time>2012-03-11T08:42:53Z</time>
      </trkpt>
      <trkpt lat="43.81054" lon="4.18003">
        <ele>195</ele>
        <time>2012-03-11T08:42:54Z</time>
      </trkpt>
      <trkpt lat="43.81054" lon="4.18006">
        <ele>195</ele>
        <time>2012-03-11T08:42:55Z</time>
      </trkpt>
      <trkpt lat="43.81053" lon="4.18008">
        <ele>195</ele>
        <time>2012-03-11T08:42:56Z</time>
      </trkpt>
      <trkpt lat="43.81052" lon="4.18011">
        <ele>196</ele>
        <time>2012-03-11T08:42:57Z</time>
      </trkpt>
      <trkpt lat="43.81052" lon="4.18013">
        <ele>196</ele>
        <time>2012-03-11T08:42:58Z</time>
      </trkpt>
      <trkpt lat="43.81052" lon="4.18016">
        <ele>196</ele>
        <time>2012-03-11T08:42:59Z</time>
      </trkpt>
      <trkpt lat="43.81051" lon="4.18019">
        <ele>196</ele>
        <time>2012-03-11T08:43:00Z</time>
      </trkpt>
      <trkpt lat="43.81051" lon="4.18021">
        <ele>197</ele>
        <time>2012-03-11T08:43:01Z</time>
      </trkpt>
      <trkpt lat="43.8105" lon="4.18024">
        <ele>197</ele>
        <time>2012-03-11T08:43:02Z</time>
      </trkpt>
      <trkpt lat="43.8105" lon="4.18026">
        <ele>197</ele>
        <time>2012-03-11T08:43:03Z</time>
      </trkpt>
      <trkpt lat="43.81049" lon="4.18028">
        <ele>198</ele>
        <time>2012-03-11T08:43:04Z</time>
      </trkpt>
      <trkpt lat="43.81049" lon="4.18031">
        <ele>198</ele>
        <time>2012-03-11T08:43:05Z</time>
      </trkpt>
      <trkpt lat="43.81048" lon="4.18034">
        <ele>198</ele>
        <time>2012-03-11T08:43:06Z</time>
      </trkpt>
      <trkpt lat="43.81048" lon="4.18037">
        <ele>198</ele>
        <time>2012-03-11T08:43:07Z</time>
      </trkpt>
      <trkpt lat="43.81048" lon="4.18041">
        <ele>198</ele>
        <time>2012-03-11T08:43:08Z</time>
      </trkpt>
      <trkpt lat="43.81047" lon="4.18043">
        <ele>198</ele>
        <time>2012-03-11T08:43:09Z</time>
      </trkpt>
      <trkpt lat="43.81047" lon="4.18045">
        <ele>198</ele>
        <time>2012-03-11T08:43:10Z</time>
      </trkpt>
      <trkpt lat="43.81046" lon="4.18047">
        <ele>198</ele>
        <time>2012-03-11T08:43:11Z</time>
      </trkpt>
      <trkpt lat="43.81046" lon="4.18049">
        <ele>198</ele>
        <time>2012-03-11T08:43:12Z</time>
      </trkpt>
      <trkpt lat="43.81045" lon="4.18051">
        <ele>198</ele>
        <time>2012-03-11T08:43:13Z</time>
      </trkpt>
      <trkpt lat="43.81045" lon="4.18053">
        <ele>198</ele>
        <time>2012-03-11T08:43:14Z</time>
      </trkpt>
      <trkpt lat="43.81044" lon="4.18055">
        <ele>198</ele>
        <time>2012-03-11T08:43:15Z</time>
      </trkpt>
      <trkpt lat="43.81044" lon="4.18057">
        <ele>198</ele>
        <time>2012-03-11T08:43:16Z</time>
      </trkpt>
      <trkpt lat="43.81044" lon="4.1806">
        <ele>198</ele>
        <time>2012-03-11T08:43:17Z</time>
      </trkpt>
      <trkpt lat="43.81044" lon="4.18062">
        <ele>198</ele>
        <time>2012-03-11T08:43:18Z</time>
      </trkpt>
      <trkpt lat="43.81043" lon="4.18064">
        <ele>198</ele>
        <time>2012-03-11T08:43:19Z</time>
      </trkpt>
      <trkpt lat="43.81043" lon="4.18067">
        <ele>198</ele>
        <time>2012-03-11T08:43:20Z</time>
      </trkpt>
      <trkpt lat="43.81042" lon="4.18069">
        <ele>198</ele>
        <time>2012-03-11T08:43:21Z</time>
      </trkpt>
      <trkpt lat="43.81042" lon="4.18071">
        <ele>198</ele>
        <time>2012-03-11T08:43:22Z</time>
      </trkpt>
      <trkpt lat="43.81042" lon="4.18074">
        <ele>198</ele>
        <time>2012-03-11T08:43:23Z</time>
      </trkpt>
      <trkpt lat="43.81041" lon="4.18076">
        <ele>198</ele>
        <time>2012-03-11T08:43:24Z</time>
      </trkpt>
      <trkpt lat="43.81041" lon="4.18078">
        <ele>198</ele>
        <time>2012-03-11T08:43:25Z</time>
      </trkpt>
      <trkpt lat="43.81041" lon="4.18081">
        <ele>198</ele>
        <time>2012-03-11T08:43:26Z</time>
      </trkpt>
      <trkpt lat="43.81041" lon="4.18083">
        <ele>198</ele>
        <time>2012-03-11T08:43:27Z</time>
      </trkpt>
      <trkpt lat="43.81041" lon="4.18087">
        <ele>198</ele>
        <time>2012-03-11T08:43:28Z</time>
      </trkpt>
      <trkpt lat="43.81042" lon="4.1809">
        <ele>198</ele>
        <time>2012-03-11T08:43:29Z</time>
      </trkpt>
      <trkpt lat="43.81042" lon="4.18093">
        <ele>198</ele>
        <time>2012-03-11T08:43:30Z</time>
      </trkpt>
      <trkpt lat="43.81042" lon="4.18095">
        <ele>198</ele>
        <time>2012-03-11T08:43:31Z</time>
      </trkpt>
      <trkpt lat="43.81041" lon="4.18098">
        <ele>198</ele>
        <time>2012-03-11T08:43:32Z</time>
      </trkpt>
      <trkpt lat="43.81041" lon="4.181">
        <ele>198</ele>
        <time>2012-03-11T08:43:33Z</time>
      </trkpt>
      <trkpt lat="43.81041" lon="4.18103">
        <ele>198</ele>
        <time>2012-03-11T08:43:34Z</time>
      </trkpt>
      <trkpt lat="43.81041" lon="4.18106">
        <ele>198</ele>
        <time>2012-03-11T08:43:35Z</time>
      </trkpt>
      <trkpt lat="43.81041" lon="4.18109">
        <ele>198</ele>
        <time>2012-03-11T08:43:36Z</time>
      </trkpt>
      <trkpt lat="43.81041" lon="4.18112">
        <ele>198</ele>
        <time>2012-03-11T08:43:37Z</time>
      </trkpt>
      <trkpt lat="43.8104" lon="4.18115">
        <ele>198</ele>
        <time>2012-03-11T08:43:38Z</time>
      </trkpt>
      <trkpt lat="43.8104" lon="4.18118">
        <ele>198</ele>
        <time>2012-03-11T08:43:39Z</time>
      </trkpt>
      <trkpt lat="43.81039" lon="4.1812">
        <ele>198</ele>
        <time>2012-03-11T08:43:40Z</time>
      </trkpt>
      <trkpt lat="43.81039" lon="4.18122">
        <ele>198</ele>
        <time>2012-03-11T08:43:41Z</time>
      </trkpt>
      <trkpt lat="43.81038" lon="4.18125">
        <ele>198</ele>
        <time>2012-03-11T08:43:42Z</time>
      </trkpt>
      <trkpt lat="43.81038" lon="4.18127">
        <ele>198</ele>
        <time>2012-03-11T08:43:43Z</time>
      </trkpt>
      <trkpt lat="43.81038" lon="4.1813">
        <ele>198</ele>
        <time>2012-03-11T08:43:44Z</time>
      </trkpt>
      <trkpt lat="43.81037" lon="4.18132">
        <ele>198</ele>
        <time>2012-03-11T08:43:45Z</time>
      </trkpt>
      <trkpt lat="43.81036" lon="4.18134">
        <ele>198</ele>
        <time>2012-03-11T08:43:46Z</time>
      </trkpt>
      <trkpt lat="43.81036" lon="4.18136">
        <ele>198</ele>
        <time>2012-03-11T08:43:47Z</time>
      </trkpt>
      <trkpt lat="43.81036" lon="4.18139">
        <ele>198</ele>
        <time>2012-03-11T08:43:48Z</time>
      </trkpt>
      <trkpt lat="43.81035" lon="4.18142">
        <ele>198</ele>
        <time>2012-03-11T08:43:49Z</time>
      </trkpt>
      <trkpt lat="43.81035" lon="4.18144">
        <ele>198</ele>
        <time>2012-03-11T08:43:50Z</time>
      </trkpt>
      <trkpt lat="43.81034" lon="4.18146">
        <ele>198</ele>
        <time>2012-03-11T08:43:51Z</time>
      </trkpt>
      <trkpt lat="43.81034" lon="4.18148">
        <ele>198</ele>
        <time>2012-03-11T08:43:52Z</time>
      </trkpt>
      <trkpt lat="43.81034" lon="4.18151">
        <ele>198</ele>
        <time>2012-03-11T08:43:53Z</time>
      </trkpt>
      <trkpt lat="43.81034" lon="4.18153">
        <ele>198</ele>
        <time>2012-03-11T08:43:54Z</time>
      </trkpt>
      <trkpt lat="43.81034" lon="4.18156">
        <ele>198</ele>
        <time>2012-03-11T08:43:55Z</time>
      </trkpt>
      <trkpt lat="43.81033" lon="4.18158">
        <ele>198</ele>
        <time>2012-03-11T08:43:56Z</time>
      </trkpt>
      <trkpt lat="43.81033" lon="4.18162">
        <ele>198</ele>
        <time>2012-03-11T08:43:57Z</time>
      </trkpt>
      <trkpt lat="43.81033" lon="4.18165">
        <ele>198</ele>
        <time>2012-03-11T08:43:58Z</time>
      </trkpt>
      <trkpt lat="43.81033" lon="4.18168">
        <ele>198</ele>
        <time>2012-03-11T08:43:59Z</time>
      </trkpt>
      <trkpt lat="43.81032" lon="4.1817">
        <ele>197</ele>
        <time>2012-03-11T08:44:00Z</time>
      </trkpt>
      <trkpt lat="43.81032" lon="4.18173">
        <ele>197</ele>
        <time>2012-03-11T08:44:01Z</time>
      </trkpt>
      <trkpt lat="43.81031" lon="4.18175">
        <ele>197</ele>
        <time>2012-03-11T08:44:02Z</time>
      </trkpt>
      <trkpt lat="43.8103" lon="4.18176">
        <ele>197</ele>
        <time>2012-03-11T08:44:03Z</time>
      </trkpt>
      <trkpt lat="43.81028" lon="4.18178">
        <ele>197</ele>
        <time>2012-03-11T08:44:04Z</time>
      </trkpt>
      <trkpt lat="43.81028" lon="4.1818">
        <ele>197</ele>
        <time>2012-03-11T08:44:05Z</time>
      </trkpt>
      <trkpt lat="43.81026" lon="4.18181">
        <ele>197</ele>
        <time>2012-03-11T08:44:06Z</time>
      </trkpt>
      <trkpt lat="43.81025" lon="4.18183">
        <ele>197</ele>
        <time>2012-03-11T08:44:07Z</time>
      </trkpt>
      <trkpt lat="43.81024" lon="4.18185">
        <ele>197</ele>
        <time>2012-03-11T08:44:09Z</time>
      </trkpt>
      <trkpt lat="43.81023" lon="4.18186">
        <ele>197</ele>
        <time>2012-03-11T08:44:10Z</time>
      </trkpt>
      <trkpt lat="43.81021" lon="4.18186">
        <ele>197</ele>
        <time>2012-03-11T08:44:11Z</time>
      </trkpt>
      <trkpt lat="43.8102" lon="4.18187">
        <ele>197</ele>
        <time>2012-03-11T08:44:12Z</time>
      </trkpt>
      <trkpt lat="43.81019" lon="4.18187">
        <ele>197</ele>
        <time>2012-03-11T08:44:13Z</time>
      </trkpt>
      <trkpt lat="43.81017" lon="4.18186">
        <ele>197</ele>
        <time>2012-03-11T08:44:14Z</time>
      </trkpt>
      <trkpt lat="43.81016" lon="4.18186">
        <ele>197</ele>
        <time>2012-03-11T08:44:15Z</time>
      </trkpt>
      <trkpt lat="43.81014" lon="4.18186">
        <ele>197</ele>
        <time>2012-03-11T08:44:16Z</time>
      </trkpt>
      <trkpt lat="43.81013" lon="4.18187">
        <ele>197</ele>
        <time>2012-03-11T08:44:17Z</time>
      </trkpt>
      <trkpt lat="43.81012" lon="4.18187">
        <ele>197</ele>
        <time>2012-03-11T08:44:18Z</time>
      </trkpt>
      <trkpt lat="43.8101" lon="4.18188">
        <ele>197</ele>
        <time>2012-03-11T08:44:19Z</time>
      </trkpt>
      <trkpt lat="43.81009" lon="4.18188">
        <ele>197</ele>
        <time>2012-03-11T08:44:20Z</time>
      </trkpt>
      <trkpt lat="43.81008" lon="4.18189">
        <ele>197</ele>
        <time>2012-03-11T08:44:21Z</time>
      </trkpt>
      <trkpt lat="43.81006" lon="4.1819">
        <ele>197</ele>
        <time>2012-03-11T08:44:22Z</time>
      </trkpt>
      <trkpt lat="43.81005" lon="4.1819">
        <ele>197</ele>
        <time>2012-03-11T08:44:23Z</time>
      </trkpt>
      <trkpt lat="43.81004" lon="4.1819">
        <ele>197</ele>
        <time>2012-03-11T08:44:24Z</time>
      </trkpt>
      <trkpt lat="43.81002" lon="4.18192">
        <ele>197</ele>
        <time>2012-03-11T08:44:26Z</time>
      </trkpt>
      <trkpt lat="43.81" lon="4.18192">
        <ele>197</ele>
        <time>2012-03-11T08:44:27Z</time>
      </trkpt>
      <trkpt lat="43.80999" lon="4.18193">
        <ele>197</ele>
        <time>2012-03-11T08:44:28Z</time>
      </trkpt>
      <trkpt lat="43.80997" lon="4.18193">
        <ele>197</ele>
        <time>2012-03-11T08:44:29Z</time>
      </trkpt>
      <trkpt lat="43.80996" lon="4.18193">
        <ele>197</ele>
        <time>2012-03-11T08:44:30Z</time>
      </trkpt>
      <trkpt lat="43.80995" lon="4.18193">
        <ele>197</ele>
        <time>2012-03-11T08:44:31Z</time>
      </trkpt>
      <trkpt lat="43.80993" lon="4.18193">
        <ele>197</ele>
        <time>2012-03-11T08:44:33Z</time>
      </trkpt>
      <trkpt lat="43.80991" lon="4.18192">
        <ele>197</ele>
        <time>2012-03-11T08:44:36Z</time>
      </trkpt>
      <trkpt lat="43.8099" lon="4.18191">
        <ele>197</ele>
        <time>2012-03-11T08:44:39Z</time>
      </trkpt>
      <trkpt lat="43.80989" lon="4.1819">
        <ele>197</ele>
        <time>2012-03-11T08:44:43Z</time>
      </trkpt>
      <trkpt lat="43.80988" lon="4.18188">
        <ele>197</ele>
        <time>2012-03-11T08:44:54Z</time>
      </trkpt>
      <trkpt lat="43.80988" lon="4.1819">
        <ele>197</ele>
        <time>2012-03-11T08:45:03Z</time>
      </trkpt>
      <trkpt lat="43.80987" lon="4.18191">
        <ele>200</ele>
        <time>2012-03-11T08:45:14Z</time>
      </trkpt>
      <trkpt lat="43.80986" lon="4.18191">
        <ele>201</ele>
        <time>2012-03-11T08:45:18Z</time>
      </trkpt>
      <trkpt lat="43.80985" lon="4.18192">
        <ele>201</ele>
        <time>2012-03-11T08:45:21Z</time>
      </trkpt>
      <trkpt lat="43.80983" lon="4.18192">
        <ele>201</ele>
        <time>2012-03-11T08:45:24Z</time>
      </trkpt>
      <trkpt lat="43.80982" lon="4.18192">
        <ele>201</ele>
        <time>2012-03-11T08:45:30Z</time>
      </trkpt>
      <trkpt lat="43.80981" lon="4.18194">
        <ele>202</ele>
        <time>2012-03-11T08:45:39Z</time>
      </trkpt>
      <trkpt lat="43.80981" lon="4.18195">
        <ele>203</ele>
        <time>2012-03-11T08:45:45Z</time>
      </trkpt>
      <trkpt lat="43.80979" lon="4.18196">
        <ele>203</ele>
        <time>2012-03-11T08:45:51Z</time>
      </trkpt>
      <trkpt lat="43.80981" lon="4.18196">
        <ele>205</ele>
        <time>2012-03-11T08:46:01Z</time>
      </trkpt>
      <trkpt lat="43.80982" lon="4.18195">
        <ele>208</ele>
        <time>2012-03-11T08:46:09Z</time>
      </trkpt>
      <trkpt lat="43.80983" lon="4.18197">
        <ele>209</ele>
        <time>2012-03-11T08:46:13Z</time>
      </trkpt>
      <trkpt lat="43.80982" lon="4.18195">
        <ele>212</ele>
        <time>2012-03-11T08:46:23Z</time>
      </trkpt>
      <trkpt lat="43.80981" lon="4.18195">
        <ele>216</ele>
        <time>2012-03-11T08:46:28Z</time>
      </trkpt>
      <trkpt lat="43.80979" lon="4.18195">
        <ele>217</ele>
        <time>2012-03-11T08:46:30Z</time>
      </trkpt>
      <trkpt lat="43.80978" lon="4.18195">
        <ele>218</ele>
        <time>2012-03-11T08:46:34Z</time>
      </trkpt>
      <trkpt lat="43.80976" lon="4.18194">
        <ele>219</ele>
        <time>2012-03-11T08:46:39Z</time>
      </trkpt>
      <trkpt lat="43.80975" lon="4.18194">
        <ele>219</ele>
        <time>2012-03-11T08:46:43Z</time>
      </trkpt>
      <trkpt lat="43.80975" lon="4.18196">
        <ele>219</ele>
        <time>2012-03-11T08:46:52Z</time>
      </trkpt>
      <trkpt lat="43.80975" lon="4.18197">
        <ele>219</ele>
        <time>2012-03-11T08:47:01Z</time>
      </trkpt>
      <trkpt lat="43.80977" lon="4.18198">
        <ele>219</ele>
        <time>2012-03-11T08:47:09Z</time>
      </trkpt>
      <trkpt lat="43.80978" lon="4.18199">
        <ele>219</ele>
        <time>2012-03-11T08:47:14Z</time>
      </trkpt>
      <trkpt lat="43.8098" lon="4.18199">
        <ele>219</ele>
        <time>2012-03-11T08:47:22Z</time>
      </trkpt>
      <trkpt lat="43.80981" lon="4.18198">
        <ele>219</ele>
        <time>2012-03-11T08:47:25Z</time>
      </trkpt>
      <trkpt lat="43.80982" lon="4.18199">
        <ele>218</ele>
        <time>2012-03-11T08:47:27Z</time>
      </trkpt>
      <trkpt lat="43.80983" lon="4.18199">
        <ele>218</ele>
        <time>2012-03-11T08:47:30Z</time>
      </trkpt>
      <trkpt lat="43.80984" lon="4.18199">
        <ele>218</ele>
        <time>2012-03-11T08:47:32Z</time>
      </trkpt>
      <trkpt lat="43.80986" lon="4.182">
        <ele>218</ele>
        <time>2012-03-11T08:47:35Z</time>
      </trkpt>
      <trkpt lat="43.80988" lon="4.182">
        <ele>217</ele>
        <time>2012-03-11T08:47:40Z</time>
      </trkpt>
      <trkpt lat="43.80989" lon="4.18202">
        <ele>217</ele>
        <time>2012-03-11T08:47:42Z</time>
      </trkpt>
      <trkpt lat="43.80988" lon="4.18201">
        <ele>217</ele>
        <time>2012-03-11T08:47:55Z</time>
      </trkpt>
      <trkpt lat="43.80987" lon="4.182">
        <ele>217</ele>
        <time>2012-03-11T08:47:58Z</time>
      </trkpt>
      <trkpt lat="43.80988" lon="4.18202">
        <ele>216</ele>
        <time>2012-03-11T08:48:14Z</time>
      </trkpt>
      <trkpt lat="43.8099" lon="4.18201">
        <ele>217</ele>
        <time>2012-03-11T08:48:18Z</time>
      </trkpt>
      <trkpt lat="43.80991" lon="4.18202">
        <ele>218</ele>
        <time>2012-03-11T08:48:30Z</time>
      </trkpt>
      <trkpt lat="43.80992" lon="4.18202">
        <ele>219</ele>
        <time>2012-03-11T08:48:34Z</time>
      </trkpt>
      <trkpt lat="43.80992" lon="4.18201">
        <ele>219</ele>
        <time>2012-03-11T08:48:44Z</time>
      </trkpt>
      <trkpt lat="43.80991" lon="4.18201">
        <ele>219</ele>
        <time>2012-03-11T08:48:54Z</time>
      </trkpt>
      <trkpt lat="43.80992" lon="4.18202">
        <ele>219</ele>
        <time>2012-03-11T08:48:56Z</time>
      </trkpt>
      <trkpt lat="43.80993" lon="4.18204">
        <ele>221</ele>
        <time>2012-03-11T08:49:10Z</time>
      </trkpt>
      <trkpt lat="43.80994" lon="4.18205">
        <ele>222</ele>
        <time>2012-03-11T08:49:12Z</time>
      </trkpt>
      <trkpt lat="43.80995" lon="4.18206">
        <ele>223</ele>
        <time>2012-03-11T08:49:15Z</time>
      </trkpt>
      <trkpt lat="43.80996" lon="4.18207">
        <ele>226</ele>
        <time>2012-03-11T08:49:18Z</time>
      </trkpt>
      <trkpt lat="43.80996" lon="4.18209">
        <ele>230</ele>
        <time>2012-03-11T08:49:22Z</time>
      </trkpt>
      <trkpt lat="43.80996" lon="4.18207">
        <ele>233</ele>
        <time>2012-03-11T08:49:26Z</time>
      </trkpt>
      <trkpt lat="43.80996" lon="4.18205">
        <ele>234</ele>
        <time>2012-03-11T08:49:33Z</time>
      </trkpt>
      <trkpt lat="43.80996" lon="4.18203">
        <ele>234</ele>
        <time>2012-03-11T08:49:35Z</time>
      </trkpt>
      <trkpt lat="43.80996" lon="4.18202">
        <ele>234</ele>
        <time>2012-03-11T08:49:37Z</time>
      </trkpt>
      <trkpt lat="43.80995" lon="4.182">
        <ele>234</ele>
        <time>2012-03-11T08:49:40Z</time>
      </trkpt>
      <trkpt lat="43.80994" lon="4.18199">
        <ele>234</ele>
        <time>2012-03-11T08:49:43Z</time>
      </trkpt>
      <trkpt lat="43.80993" lon="4.18197">
        <ele>233</ele>
        <time>2012-03-11T08:49:48Z</time>
      </trkpt>
      <trkpt lat="43.80991" lon="4.18196">
        <ele>232</ele>
        <time>2012-03-11T08:49:52Z</time>
      </trkpt>
      <trkpt lat="43.8099" lon="4.18195">
        <ele>230</ele>
        <time>2012-03-11T08:49:57Z</time>
      </trkpt>
      <trkpt lat="43.80991" lon="4.18196">
        <ele>230</ele>
        <time>2012-03-11T08:50:01Z</time>
      </trkpt>
      <trkpt lat="43.80993" lon="4.18197">
        <ele>230</ele>
        <time>2012-03-11T08:50:03Z</time>
      </trkpt>
      <trkpt lat="43.80994" lon="4.18197">
        <ele>230</ele>
        <time>2012-03-11T08:50:15Z</time>
      </trkpt>
      <trkpt lat="43.80993" lon="4.18196">
        <ele>230</ele>
        <time>2012-03-11T08:50:20Z</time>
      </trkpt>
      <trkpt lat="43.80992" lon="4.18196">
        <ele>230</ele>
        <time>2012-03-11T08:50:24Z</time>
      </trkpt>
      <trkpt lat="43.80993" lon="4.18196">
        <ele>230</ele>
        <time>2012-03-11T08:50:29Z</time>
      </trkpt>
      <trkpt lat="43.80994" lon="4.18197">
        <ele>230</ele>
        <time>2012-03-11T08:50:41Z</time>
      </trkpt>
      <trkpt lat="43.80995" lon="4.18198">
        <ele>230</ele>
        <time>2012-03-11T08:50:45Z</time>
      </trkpt>
      <trkpt lat="43.80994" lon="4.18197">
        <ele>230</ele>
        <time>2012-03-11T08:50:51Z</time>
      </trkpt>
      <trkpt lat="43.80993" lon="4.18197">
        <ele>230</ele>
        <time>2012-03-11T08:50:56Z</time>
      </trkpt>
      <trkpt lat="43.80991" lon="4.18197">
        <ele>230</ele>
        <time>2012-03-11T08:51:00Z</time>
      </trkpt>
      <trkpt lat="43.80991" lon="4.18195">
        <ele>230</ele>
        <time>2012-03-11T08:51:04Z</time>
      </trkpt>
      <trkpt lat="43.80992" lon="4.18193">
        <ele>228</ele>
        <time>2012-03-11T08:51:06Z</time>
      </trkpt>
      <trkpt lat="43.80991" lon="4.18192">
        <ele>226</ele>
        <time>2012-03-11T08:51:09Z</time>
      </trkpt>
      <trkpt lat="43.8099" lon="4.1819">
        <ele>224</ele>
        <time>2012-03-11T08:51:13Z</time>
      </trkpt>
      <trkpt lat="43.80989" lon="4.18188">
        <ele>221</ele>
        <time>2012-03-11T08:51:17Z</time>
      </trkpt>
      <trkpt lat="43.80988" lon="4.18187">
        <ele>219</ele>
        <time>2012-03-11T08:51:21Z</time>
      </trkpt>
      <trkpt lat="43.80987" lon="4.18185">
        <ele>218</ele>
        <time>2012-03-11T08:51:25Z</time>
      </trkpt>
      <trkpt lat="43.80986" lon="4.18184">
        <ele>213</ele>
        <time>2012-03-11T08:51:39Z</time>
      </trkpt>
      <trkpt lat="43.80985" lon="4.18182">
        <ele>212</ele>
        <time>2012-03-11T08:51:46Z</time>
      </trkpt>
      <trkpt lat="43.80985" lon="4.18181">
        <ele>208</ele>
        <time>2012-03-11T08:51:53Z</time>
      </trkpt>
      <trkpt lat="43.80984" lon="4.18182">
        <ele>203</ele>
        <time>2012-03-11T08:52:20Z</time>
      </trkpt>
      <trkpt lat="43.80986" lon="4.18183">
        <ele>202</ele>
        <time>2012-03-11T08:52:46Z</time>
      </trkpt>
      <trkpt lat="43.80986" lon="4.18185">
        <ele>202</ele>
        <time>2012-03-11T08:53:31Z</time>
      </trkpt>
      <trkpt lat="43.80988" lon="4.18186">
        <ele>201</ele>
        <time>2012-03-11T08:53:59Z</time>
      </trkpt>
      <trkpt lat="43.80988" lon="4.18188">
        <ele>200</ele>
        <time>2012-03-11T08:54:06Z</time>
      </trkpt>
      <trkpt lat="43.80988" lon="4.18189">
        <ele>200</ele>
        <time>2012-03-11T08:54:08Z</time>
      </trkpt>
      <trkpt lat="43.8099" lon="4.1819">
        <ele>200</ele>
        <time>2012-03-11T08:54:10Z</time>
      </trkpt>
      <trkpt lat="43.80991" lon="4.18191">
        <ele>200</ele>
        <time>2012-03-11T08:54:12Z</time>
      </trkpt>
      <trkpt lat="43.80991" lon="4.18193">
        <ele>200</ele>
        <time>2012-03-11T08:54:20Z</time>
      </trkpt>
      <trkpt lat="43.8099" lon="4.18192">
        <ele>200</ele>
        <time>2012-03-11T08:54:25Z</time>
      </trkpt>
      <trkpt lat="43.80988" lon="4.18192">
        <ele>200</ele>
        <time>2012-03-11T08:54:28Z</time>
      </trkpt>
      <trkpt lat="43.80986" lon="4.18193">
        <ele>200</ele>
        <time>2012-03-11T08:54:30Z</time>
      </trkpt>
      <trkpt lat="43.80986" lon="4.18195">
        <ele>200</ele>
        <time>2012-03-11T08:54:32Z</time>
      </trkpt>
      <trkpt lat="43.80986" lon="4.18197">
        <ele>200</ele>
        <time>2012-03-11T08:54:42Z</time>
      </trkpt>
      <trkpt lat="43.80987" lon="4.18198">
        <ele>200</ele>
        <time>2012-03-11T08:54:50Z</time>
      </trkpt>
      <trkpt lat="43.80987" lon="4.182">
        <ele>200</ele>
        <time>2012-03-11T08:55:01Z</time>
      </trkpt>
      <trkpt lat="43.80986" lon="4.18201">
        <ele>200</ele>
        <time>2012-03-11T08:55:05Z</time>
      </trkpt>
      <trkpt lat="43.80988" lon="4.18199">
        <ele>199</ele>
        <time>2012-03-11T08:55:11Z</time>
      </trkpt>
      <trkpt lat="43.80988" lon="4.182">
        <ele>199</ele>
        <time>2012-03-11T08:55:25Z</time>
      </trkpt>
      <trkpt lat="43.80987" lon="4.18202">
        <ele>199</ele>
        <time>2012-03-11T08:55:28Z</time>
      </trkpt>
      <trkpt lat="43.80988" lon="4.18201">
        <ele>199</ele>
        <time>2012-03-11T08:55:58Z</time>
      </trkpt>
      <trkpt lat="43.80988" lon="4.18199">
        <ele>199</ele>
        <time>2012-03-11T08:56:08Z</time>
      </trkpt>
      <trkpt lat="43.80987" lon="4.18201">
        <ele>199</ele>
        <time>2012-03-11T08:56:20Z</time>
      </trkpt>
      <trkpt lat="43.80988" lon="4.18199">
        <ele>199</ele>
        <time>2012-03-11T08:56:26Z</time>
      </trkpt>
      <trkpt lat="43.80988" lon="4.18201">
        <ele>199</ele>
        <time>2012-03-11T08:56:32Z</time>
      </trkpt>
      <trkpt lat="43.80987" lon="4.18203">
        <ele>197</ele>
        <time>2012-03-11T08:56:41Z</time>
      </trkpt>
      <trkpt lat="43.80988" lon="4.18202">
        <ele>196</ele>
        <time>2012-03-11T08:56:52Z</time>
      </trkpt>
      <trkpt lat="43.80988" lon="4.18203">
        <ele>196</ele>
        <time>2012-03-11T08:57:15Z</time>
      </trkpt>
      <trkpt lat="43.80988" lon="4.18202">
        <ele>196</ele>
        <time>2012-03-11T08:57:18Z</time>
      </trkpt>
      <trkpt lat="43.80988" lon="4.18203">
        <ele>196</ele>
        <time>2012-03-11T08:57:31Z</time>
      </trkpt>
      <trkpt lat="43.80987" lon="4.18205">
        <ele>196</ele>
        <time>2012-03-11T08:57:41Z</time>
      </trkpt>
      <trkpt lat="43.80988" lon="4.18204">
        <ele>196</ele>
        <time>2012-03-11T08:58:08Z</time>
      </trkpt>
      <trkpt lat="43.80989" lon="4.18203">
        <ele>196</ele>
        <time>2012-03-11T08:58:17Z</time>
      </trkpt>
      <trkpt lat="43.80989" lon="4.18204">
        <ele>198</ele>
        <time>2012-03-11T08:58:43Z</time>
      </trkpt>
      <trkpt lat="43.8099" lon="4.18206">
        <ele>196</ele>
        <time>2012-03-11T08:59:02Z</time>
      </trkpt>
      <trkpt lat="43.80991" lon="4.18203">
        <ele>195</ele>
        <time>2012-03-11T08:59:07Z</time>
      </trkpt>
      <trkpt lat="43.80992" lon="4.18201">
        <ele>194</ele>
        <time>2012-03-11T08:59:11Z</time>
      </trkpt>
      <trkpt lat="43.80993" lon="4.18199">
        <ele>194</ele>
        <time>2012-03-11T08:59:13Z</time>
      </trkpt>
      <trkpt lat="43.80993" lon="4.18197">
        <ele>194</ele>
        <time>2012-03-11T08:59:15Z</time>
      </trkpt>
      <trkpt lat="43.80992" lon="4.18199">
        <ele>192</ele>
        <time>2012-03-11T08:59:50Z</time>
      </trkpt>
      <trkpt lat="43.80991" lon="4.182">
        <ele>192</ele>
        <time>2012-03-11T09:00:07Z</time>
      </trkpt>
      <trkpt lat="43.80993" lon="4.182">
        <ele>192</ele>
        <time>2012-03-11T09:00:16Z</time>
      </trkpt>
      <trkpt lat="43.80995" lon="4.182">
        <ele>192</ele>
        <time>2012-03-11T09:00:18Z</time>
      </trkpt>
      <trkpt lat="43.80995" lon="4.18201">
        <ele>192</ele>
        <time>2012-03-11T09:00:27Z</time>
      </trkpt>
      <trkpt lat="43.80995" lon="4.18203">
        <ele>192</ele>
        <time>2012-03-11T09:00:33Z</time>
      </trkpt>
      <trkpt lat="43.80994" lon="4.18204">
        <ele>193</ele>
        <time>2012-03-11T09:00:52Z</time>
      </trkpt>
      <trkpt lat="43.80993" lon="4.18206">
        <ele>194</ele>
        <time>2012-03-11T09:01:01Z</time>
      </trkpt>
      <trkpt lat="43.80992" lon="4.18208">
        <ele>198</ele>
        <time>2012-03-11T09:01:16Z</time>
      </trkpt>
      <trkpt lat="43.80992" lon="4.18206">
        <ele>200</ele>
        <time>2012-03-11T09:01:41Z</time>
      </trkpt>
      <trkpt lat="43.80993" lon="4.18204">
        <ele>200</ele>
        <time>2012-03-11T09:01:45Z</time>
      </trkpt>
      <trkpt lat="43.80994" lon="4.18203">
        <ele>200</ele>
        <time>2012-03-11T09:01:50Z</time>
      </trkpt>
      <trkpt lat="43.80995" lon="4.18201">
        <ele>200</ele>
        <time>2012-03-11T09:02:14Z</time>
      </trkpt>
      <trkpt lat="43.80996" lon="4.182">
        <ele>200</ele>
        <time>2012-03-11T09:02:17Z</time>
      </trkpt>
      <trkpt lat="43.80996" lon="4.18198">
        <ele>201</ele>
        <time>2012-03-11T09:02:34Z</time>
      </trkpt>
      <trkpt lat="43.80996" lon="4.182">
        <ele>202</ele>
        <time>2012-03-11T09:02:42Z</time>
      </trkpt>
      <trkpt lat="43.80996" lon="4.18201">
        <ele>202</ele>
        <time>2012-03-11T09:02:46Z</time>
      </trkpt>
      <trkpt lat="43.80996" lon="4.18203">
        <ele>202</ele>
        <time>2012-03-11T09:02:54Z</time>
      </trkpt>
      <trkpt lat="43.80995" lon="4.18204">
        <ele>202</ele>
        <time>2012-03-11T09:02:56Z</time>
      </trkpt>
      <trkpt lat="43.80996" lon="4.18203">
        <ele>202</ele>
        <time>2012-03-11T09:03:13Z</time>
      </trkpt>
      <trkpt lat="43.80997" lon="4.18203">
        <ele>202</ele>
        <time>2012-03-11T09:03:27Z</time>
      </trkpt>
      <trkpt lat="43.80999" lon="4.18202">
        <ele>200</ele>
        <time>2012-03-11T09:03:35Z</time>
      </trkpt>
      <trkpt lat="43.80999" lon="4.182">
        <ele>200</ele>
        <time>2012-03-11T09:03:42Z</time>
      </trkpt>
      <trkpt lat="43.81001" lon="4.18201">
        <ele>198</ele>
        <time>2012-03-11T09:04:06Z</time>
      </trkpt>
      <trkpt lat="43.81002" lon="4.18201">
        <ele>196</ele>
        <time>2012-03-11T09:04:18Z</time>
      </trkpt>
      <trkpt lat="43.81" lon="4.18201">
        <ele>195</ele>
        <time>2012-03-11T09:04:29Z</time>
      </trkpt>
      <trkpt lat="43.80999" lon="4.182">
        <ele>194</ele>
        <time>2012-03-11T09:04:34Z</time>
      </trkpt>
      <trkpt lat="43.80999" lon="4.18198">
        <ele>192</ele>
        <time>2012-03-11T09:04:42Z</time>
      </trkpt>
      <trkpt lat="43.81" lon="4.18197">
        <ele>192</ele>
        <time>2012-03-11T09:05:04Z</time>
      </trkpt>
      <trkpt lat="43.81" lon="4.18196">
        <ele>193</ele>
        <time>2012-03-11T09:05:17Z</time>
      </trkpt>
      <trkpt lat="43.80999" lon="4.18195">
        <ele>203</ele>
        <time>2012-03-11T09:05:37Z</time>
      </trkpt>
      <trkpt lat="43.81" lon="4.18195">
        <ele>207</ele>
        <time>2012-03-11T09:06:04Z</time>
      </trkpt>
      <trkpt lat="43.81002" lon="4.18195">
        <ele>207</ele>
        <time>2012-03-11T09:06:05Z</time>
      </trkpt>
      <trkpt lat="43.81007" lon="4.18195">
        <ele>207</ele>
        <time>2012-03-11T09:06:06Z</time>
      </trkpt>
      <trkpt lat="43.81012" lon="4.18195">
        <ele>207</ele>
        <time>2012-03-11T09:06:07Z</time>
      </trkpt>
      <trkpt lat="43.81018" lon="4.18195">
        <ele>207</ele>
        <time>2012-03-11T09:06:08Z</time>
      </trkpt>
      <trkpt lat="43.81023" lon="4.18193">
        <ele>207</ele>
        <time>2012-03-11T09:06:09Z</time>
      </trkpt>
      <trkpt lat="43.81029" lon="4.18193">
        <ele>207</ele>
        <time>2012-03-11T09:06:10Z</time>
      </trkpt>
      <trkpt lat="43.81036" lon="4.1819">
        <ele>207</ele>
        <time>2012-03-11T09:06:11Z</time>
      </trkpt>
      <trkpt lat="43.81041" lon="4.18186">
        <ele>207</ele>
        <time>2012-03-11T09:06:12Z</time>
      </trkpt>
      <trkpt lat="43.81047" lon="4.1818">
        <ele>207</ele>
        <time>2012-03-11T09:06:13Z</time>
      </trkpt>
      <trkpt lat="43.81051" lon="4.18174">
        <ele>207</ele>
        <time>2012-03-11T09:06:14Z</time>
      </trkpt>
      <trkpt lat="43.81056" lon="4.18167">
        <ele>206</ele>
        <time>2012-03-11T09:06:15Z</time>
      </trkpt>
      <trkpt lat="43.8106" lon="4.18159">
        <ele>205</ele>
        <time>2012-03-11T09:06:16Z</time>
      </trkpt>
      <trkpt lat="43.81065" lon="4.18153">
        <ele>205</ele>
        <time>2012-03-11T09:06:17Z</time>
      </trkpt>
      <trkpt lat="43.81071" lon="4.18148">
        <ele>204</ele>
        <time>2012-03-11T09:06:18Z</time>
      </trkpt>
      <trkpt lat="43.81076" lon="4.18142">
        <ele>203</ele>
        <time>2012-03-11T09:06:19Z</time>
      </trkpt>
      <trkpt lat="43.81082" lon="4.18134">
        <ele>203</ele>
        <time>2012-03-11T09:06:20Z</time>
      </trkpt>
      <trkpt lat="43.81086" lon="4.18126">
        <ele>202</ele>
        <time>2012-03-11T09:06:21Z</time>
      </trkpt>
      <trkpt lat="43.81089" lon="4.18117">
        <ele>201</ele>
        <time>2012-03-11T09:06:22Z</time>
      </trkpt>
      <trkpt lat="43.81092" lon="4.18107">
        <ele>200</ele>
        <time>2012-03-11T09:06:23Z</time>
      </trkpt>
      <trkpt lat="43.81094" lon="4.18095">
        <ele>199</ele>
        <time>2012-03-11T09:06:24Z</time>
      </trkpt>
      <trkpt lat="43.81097" lon="4.18085">
        <ele>198</ele>
        <time>2012-03-11T09:06:25Z</time>
      </trkpt>
      <trkpt lat="43.811" lon="4.18074">
        <ele>198</ele>
        <time>2012-03-11T09:06:26Z</time>
      </trkpt>
      <trkpt lat="43.81102" lon="4.18064">
        <ele>197</ele>
        <time>2012-03-11T09:06:27Z</time>
      </trkpt>
      <trkpt lat="43.81106" lon="4.18056">
        <ele>197</ele>
        <time>2012-03-11T09:06:28Z</time>
      </trkpt>
      <trkpt lat="43.81109" lon="4.18049">
        <ele>196</ele>
        <time>2012-03-11T09:06:29Z</time>
      </trkpt>
      <trkpt lat="43.81111" lon="4.18042">
        <ele>196</ele>
        <time>2012-03-11T09:06:30Z</time>
      </trkpt>
      <trkpt lat="43.81112" lon="4.18037">
        <ele>195</ele>
        <time>2012-03-11T09:06:31Z</time>
      </trkpt>
      <trkpt lat="43.81113" lon="4.18032">
        <ele>195</ele>
        <time>2012-03-11T09:06:32Z</time>
      </trkpt>
      <trkpt lat="43.81114" lon="4.18024">
        <ele>194</ele>
        <time>2012-03-11T09:06:33Z</time>
      </trkpt>
      <trkpt lat="43.81113" lon="4.18018">
        <ele>194</ele>
        <time>2012-03-11T09:06:34Z</time>
      </trkpt>
      <trkpt lat="43.8111" lon="4.18013">
        <ele>193</ele>
        <time>2012-03-11T09:06:35Z</time>
      </trkpt>
      <trkpt lat="43.81107" lon="4.1801">
        <ele>193</ele>
        <time>2012-03-11T09:06:36Z</time>
      </trkpt>
      <trkpt lat="43.81105" lon="4.18004">
        <ele>193</ele>
        <time>2012-03-11T09:06:37Z</time>
      </trkpt>
      <trkpt lat="43.81105" lon="4.18002">
        <ele>192</ele>
        <time>2012-03-11T09:06:38Z</time>
      </trkpt>
      <trkpt lat="43.81106" lon="4.18">
        <ele>192</ele>
        <time>2012-03-11T09:06:39Z</time>
      </trkpt>
      <trkpt lat="43.81109" lon="4.18001">
        <ele>191</ele>
        <time>2012-03-11T09:06:40Z</time>
      </trkpt>
      <trkpt lat="43.81113" lon="4.17999">
        <ele>191</ele>
        <time>2012-03-11T09:06:41Z</time>
      </trkpt>
      <trkpt lat="43.81117" lon="4.17999">
        <ele>190</ele>
        <time>2012-03-11T09:06:42Z</time>
      </trkpt>
      <trkpt lat="43.81121" lon="4.18">
        <ele>190</ele>
        <time>2012-03-11T09:06:43Z</time>
      </trkpt>
      <trkpt lat="43.81126" lon="4.18001">
        <ele>189</ele>
        <time>2012-03-11T09:06:44Z</time>
      </trkpt>
      <trkpt lat="43.8113" lon="4.18001">
        <ele>189</ele>
        <time>2012-03-11T09:06:45Z</time>
      </trkpt>
      <trkpt lat="43.81134" lon="4.18002">
        <ele>188</ele>
        <time>2012-03-11T09:06:46Z</time>
      </trkpt>
      <trkpt lat="43.81137" lon="4.18">
        <ele>188</ele>
        <time>2012-03-11T09:06:47Z</time>
      </trkpt>
      <trkpt lat="43.81139" lon="4.17997">
        <ele>187</ele>
        <time>2012-03-11T09:06:48Z</time>
      </trkpt>
      <trkpt lat="43.8114" lon="4.17992">
        <ele>187</ele>
        <time>2012-03-11T09:06:49Z</time>
      </trkpt>
      <trkpt lat="43.81141" lon="4.17988">
        <ele>187</ele>
        <time>2012-03-11T09:06:50Z</time>
      </trkpt>
      <trkpt lat="43.81143" lon="4.17983">
        <ele>187</ele>
        <time>2012-03-11T09:06:51Z</time>
      </trkpt>
      <trkpt lat="43.81146" lon="4.17979">
        <ele>187</ele>
        <time>2012-03-11T09:06:52Z</time>
      </trkpt>
      <trkpt lat="43.81148" lon="4.17975">
        <ele>187</ele>
        <time>2012-03-11T09:06:53Z</time>
      </trkpt>
      <trkpt lat="43.8115" lon="4.17969">
        <ele>187</ele>
        <time>2012-03-11T09:06:54Z</time>
      </trkpt>
      <trkpt lat="43.8115" lon="4.17963">
        <ele>187</ele>
        <time>2012-03-11T09:06:55Z</time>
      </trkpt>
      <trkpt lat="43.8115" lon="4.17956">
        <ele>187</ele>
        <time>2012-03-11T09:06:56Z</time>
      </trkpt>
      <trkpt lat="43.81149" lon="4.17951">
        <ele>187</ele>
        <time>2012-03-11T09:06:57Z</time>
      </trkpt>
      <trkpt lat="43.81147" lon="4.17947">
        <ele>187</ele>
        <time>2012-03-11T09:06:58Z</time>
      </trkpt>
      <trkpt lat="43.81148" lon="4.17944">
        <ele>187</ele>
        <time>2012-03-11T09:06:59Z</time>
      </trkpt>
      <trkpt lat="43.8115" lon="4.1794">
        <ele>187</ele>
        <time>2012-03-11T09:07:00Z</time>
      </trkpt>
      <trkpt lat="43.81151" lon="4.17936">
        <ele>187</ele>
        <time>2012-03-11T09:07:01Z</time>
      </trkpt>
      <trkpt lat="43.81152" lon="4.17933">
        <ele>187</ele>
        <time>2012-03-11T09:07:02Z</time>
      </trkpt>
      <trkpt lat="43.81153" lon="4.17931">
        <ele>187</ele>
        <time>2012-03-11T09:07:03Z</time>
      </trkpt>
      <trkpt lat="43.81156" lon="4.1793">
        <ele>187</ele>
        <time>2012-03-11T09:07:04Z</time>
      </trkpt>
      <trkpt lat="43.8116" lon="4.17929">
        <ele>186</ele>
        <time>2012-03-11T09:07:05Z</time>
      </trkpt>
      <trkpt lat="43.81163" lon="4.17927">
        <ele>186</ele>
        <time>2012-03-11T09:07:06Z</time>
      </trkpt>
      <trkpt lat="43.81165" lon="4.17923">
        <ele>186</ele>
        <time>2012-03-11T09:07:07Z</time>
      </trkpt>
      <trkpt lat="43.81166" lon="4.17918">
        <ele>185</ele>
        <time>2012-03-11T09:07:08Z</time>
      </trkpt>
      <trkpt lat="43.81167" lon="4.17912">
        <ele>185</ele>
        <time>2012-03-11T09:07:09Z</time>
      </trkpt>
      <trkpt lat="43.81168" lon="4.17906">
        <ele>185</ele>
        <time>2012-03-11T09:07:10Z</time>
      </trkpt>
      <trkpt lat="43.81168" lon="4.17901">
        <ele>185</ele>
        <time>2012-03-11T09:07:11Z</time>
      </trkpt>
      <trkpt lat="43.81167" lon="4.17897">
        <ele>185</ele>
        <time>2012-03-11T09:07:12Z</time>
      </trkpt>
      <trkpt lat="43.81166" lon="4.17893">
        <ele>184</ele>
        <time>2012-03-11T09:07:13Z</time>
      </trkpt>
      <trkpt lat="43.81165" lon="4.17888">
        <ele>184</ele>
        <time>2012-03-11T09:07:14Z</time>
      </trkpt>
      <trkpt lat="43.81165" lon="4.17883">
        <ele>184</ele>
        <time>2012-03-11T09:07:15Z</time>
      </trkpt>
      <trkpt lat="43.81166" lon="4.17879">
        <ele>184</ele>
        <time>2012-03-11T09:07:16Z</time>
      </trkpt>
      <trkpt lat="43.81168" lon="4.17877">
        <ele>184</ele>
        <time>2012-03-11T09:07:17Z</time>
      </trkpt>
      <trkpt lat="43.81168" lon="4.17873">
        <ele>183</ele>
        <time>2012-03-11T09:07:18Z</time>
      </trkpt>
      <trkpt lat="43.81168" lon="4.1787">
        <ele>183</ele>
        <time>2012-03-11T09:07:19Z</time>
      </trkpt>
      <trkpt lat="43.81168" lon="4.17866">
        <ele>183</ele>
        <time>2012-03-11T09:07:20Z</time>
      </trkpt>
      <trkpt lat="43.81167" lon="4.17863">
        <ele>182</ele>
        <time>2012-03-11T09:07:21Z</time>
      </trkpt>
      <trkpt lat="43.81165" lon="4.17861">
        <ele>182</ele>
        <time>2012-03-11T09:07:22Z</time>
      </trkpt>
      <trkpt lat="43.81164" lon="4.1786">
        <ele>181</ele>
        <time>2012-03-11T09:07:23Z</time>
      </trkpt>
      <trkpt lat="43.81162" lon="4.17858">
        <ele>181</ele>
        <time>2012-03-11T09:07:24Z</time>
      </trkpt>
      <trkpt lat="43.8116" lon="4.17854">
        <ele>180</ele>
        <time>2012-03-11T09:07:25Z</time>
      </trkpt>
      <trkpt lat="43.81158" lon="4.1785">
        <ele>180</ele>
        <time>2012-03-11T09:07:26Z</time>
      </trkpt>
      <trkpt lat="43.81154" lon="4.17846">
        <ele>179</ele>
        <time>2012-03-11T09:07:27Z</time>
      </trkpt>
      <trkpt lat="43.81151" lon="4.1784">
        <ele>179</ele>
        <time>2012-03-11T09:07:28Z</time>
      </trkpt>
      <trkpt lat="43.81148" lon="4.17836">
        <ele>178</ele>
        <time>2012-03-11T09:07:29Z</time>
      </trkpt>
      <trkpt lat="43.81145" lon="4.17831">
        <ele>178</ele>
        <time>2012-03-11T09:07:30Z</time>
      </trkpt>
      <trkpt lat="43.81143" lon="4.17828">
        <ele>178</ele>
        <time>2012-03-11T09:07:31Z</time>
      </trkpt>
      <trkpt lat="43.8114" lon="4.17826">
        <ele>177</ele>
        <time>2012-03-11T09:07:32Z</time>
      </trkpt>
      <trkpt lat="43.81138" lon="4.17823">
        <ele>176</ele>
        <time>2012-03-11T09:07:33Z</time>
      </trkpt>
      <trkpt lat="43.81136" lon="4.17819">
        <ele>176</ele>
        <time>2012-03-11T09:07:34Z</time>
      </trkpt>
      <trkpt lat="43.81136" lon="4.17815">
        <ele>175</ele>
        <time>2012-03-11T09:07:35Z</time>
      </trkpt>
      <trkpt lat="43.81135" lon="4.17809">
        <ele>174</ele>
        <time>2012-03-11T09:07:36Z</time>
      </trkpt>
      <trkpt lat="43.81136" lon="4.17804">
        <ele>174</ele>
        <time>2012-03-11T09:07:37Z</time>
      </trkpt>
      <trkpt lat="43.81136" lon="4.17798">
        <ele>174</ele>
        <time>2012-03-11T09:07:38Z</time>
      </trkpt>
      <trkpt lat="43.81136" lon="4.17793">
        <ele>174</ele>
        <time>2012-03-11T09:07:39Z</time>
      </trkpt>
      <trkpt lat="43.81137" lon="4.17789">
        <ele>173</ele>
        <time>2012-03-11T09:07:40Z</time>
      </trkpt>
      <trkpt lat="43.81137" lon="4.17785">
        <ele>173</ele>
        <time>2012-03-11T09:07:41Z</time>
      </trkpt>
      <trkpt lat="43.81139" lon="4.17781">
        <ele>173</ele>
        <time>2012-03-11T09:07:42Z</time>
      </trkpt>
      <trkpt lat="43.81141" lon="4.17777">
        <ele>172</ele>
        <time>2012-03-11T09:07:43Z</time>
      </trkpt>
      <trkpt lat="43.81142" lon="4.17772">
        <ele>172</ele>
        <time>2012-03-11T09:07:44Z</time>
      </trkpt>
      <trkpt lat="43.81144" lon="4.17767">
        <ele>172</ele>
        <time>2012-03-11T09:07:45Z</time>
      </trkpt>
      <trkpt lat="43.81145" lon="4.17762">
        <ele>171</ele>
        <time>2012-03-11T09:07:46Z</time>
      </trkpt>
      <trkpt lat="43.81146" lon="4.17757">
        <ele>171</ele>
        <time>2012-03-11T09:07:47Z</time>
      </trkpt>
      <trkpt lat="43.81149" lon="4.17753">
        <ele>171</ele>
        <time>2012-03-11T09:07:48Z</time>
      </trkpt>
      <trkpt lat="43.81151" lon="4.17749">
        <ele>171</ele>
        <time>2012-03-11T09:07:49Z</time>
      </trkpt>
      <trkpt lat="43.81153" lon="4.17746">
        <ele>171</ele>
        <time>2012-03-11T09:07:50Z</time>
      </trkpt>
      <trkpt lat="43.81154" lon="4.17744">
        <ele>171</ele>
        <time>2012-03-11T09:07:51Z</time>
      </trkpt>
      <trkpt lat="43.81156" lon="4.17741">
        <ele>171</ele>
        <time>2012-03-11T09:07:52Z</time>
      </trkpt>
      <trkpt lat="43.81158" lon="4.17739">
        <ele>171</ele>
        <time>2012-03-11T09:07:53Z</time>
      </trkpt>
      <trkpt lat="43.8116" lon="4.17737">
        <ele>170</ele>
        <time>2012-03-11T09:07:54Z</time>
      </trkpt>
      <trkpt lat="43.81163" lon="4.17735">
        <ele>170</ele>
        <time>2012-03-11T09:07:55Z</time>
      </trkpt>
      <trkpt lat="43.81167" lon="4.17733">
        <ele>170</ele>
        <time>2012-03-11T09:07:56Z</time>
      </trkpt>
      <trkpt lat="43.8117" lon="4.17732">
        <ele>170</ele>
        <time>2012-03-11T09:07:57Z</time>
      </trkpt>
      <trkpt lat="43.81174" lon="4.17731">
        <ele>169</ele>
        <time>2012-03-11T09:07:58Z</time>
      </trkpt>
      <trkpt lat="43.81178" lon="4.17729">
        <ele>169</ele>
        <time>2012-03-11T09:07:59Z</time>
      </trkpt>
      <trkpt lat="43.81181" lon="4.17726">
        <ele>168</ele>
        <time>2012-03-11T09:08:00Z</time>
      </trkpt>
      <trkpt lat="43.81184" lon="4.17723">
        <ele>168</ele>
        <time>2012-03-11T09:08:01Z</time>
      </trkpt>
      <trkpt lat="43.81187" lon="4.17721">
        <ele>167</ele>
        <time>2012-03-11T09:08:02Z</time>
      </trkpt>
      <trkpt lat="43.8119" lon="4.17718">
        <ele>167</ele>
        <time>2012-03-11T09:08:03Z</time>
      </trkpt>
      <trkpt lat="43.81194" lon="4.17715">
        <ele>167</ele>
        <time>2012-03-11T09:08:04Z</time>
      </trkpt>
      <trkpt lat="43.81197" lon="4.17712">
        <ele>167</ele>
        <time>2012-03-11T09:08:05Z</time>
      </trkpt>
      <trkpt lat="43.81201" lon="4.17709">
        <ele>167</ele>
        <time>2012-03-11T09:08:06Z</time>
      </trkpt>
      <trkpt lat="43.81204" lon="4.17706">
        <ele>167</ele>
        <time>2012-03-11T09:08:07Z</time>
      </trkpt>
      <trkpt lat="43.81208" lon="4.17704">
        <ele>167</ele>
        <time>2012-03-11T09:08:08Z</time>
      </trkpt>
      <trkpt lat="43.81211" lon="4.17701">
        <ele>167</ele>
        <time>2012-03-11T09:08:09Z</time>
      </trkpt>
      <trkpt lat="43.81215" lon="4.17699">
        <ele>167</ele>
        <time>2012-03-11T09:08:10Z</time>
      </trkpt>
      <trkpt lat="43.81218" lon="4.17698">
        <ele>167</ele>
        <time>2012-03-11T09:08:11Z</time>
      </trkpt>
      <trkpt lat="43.81222" lon="4.17698">
        <ele>167</ele>
        <time>2012-03-11T09:08:12Z</time>
      </trkpt>
      <trkpt lat="43.81225" lon="4.17698">
        <ele>167</ele>
        <time>2012-03-11T09:08:13Z</time>
      </trkpt>
      <trkpt lat="43.81227" lon="4.177">
        <ele>167</ele>
        <time>2012-03-11T09:08:14Z</time>
      </trkpt>
      <trkpt lat="43.81229" lon="4.17703">
        <ele>167</ele>
        <time>2012-03-11T09:08:15Z</time>
      </trkpt>
      <trkpt lat="43.81231" lon="4.17706">
        <ele>167</ele>
        <time>2012-03-11T09:08:16Z</time>
      </trkpt>
      <trkpt lat="43.81232" lon="4.17709">
        <ele>167</ele>
        <time>2012-03-11T09:08:17Z</time>
      </trkpt>
      <trkpt lat="43.81234" lon="4.17711">
        <ele>167</ele>
        <time>2012-03-11T09:08:18Z</time>
      </trkpt>
      <trkpt lat="43.81237" lon="4.17714">
        <ele>167</ele>
        <time>2012-03-11T09:08:19Z</time>
      </trkpt>
      <trkpt lat="43.81239" lon="4.17717">
        <ele>167</ele>
        <time>2012-03-11T09:08:20Z</time>
      </trkpt>
      <trkpt lat="43.81241" lon="4.17719">
        <ele>166</ele>
        <time>2012-03-11T09:08:21Z</time>
      </trkpt>
      <trkpt lat="43.81244" lon="4.17721">
        <ele>165</ele>
        <time>2012-03-11T09:08:22Z</time>
      </trkpt>
      <trkpt lat="43.81247" lon="4.17722">
        <ele>164</ele>
        <time>2012-03-11T09:08:23Z</time>
      </trkpt>
      <trkpt lat="43.8125" lon="4.17721">
        <ele>164</ele>
        <time>2012-03-11T09:08:24Z</time>
      </trkpt>
      <trkpt lat="43.81252" lon="4.17719">
        <ele>163</ele>
        <time>2012-03-11T09:08:25Z</time>
      </trkpt>
      <trkpt lat="43.81255" lon="4.17718">
        <ele>162</ele>
        <time>2012-03-11T09:08:26Z</time>
      </trkpt>
      <trkpt lat="43.81257" lon="4.17718">
        <ele>161</ele>
        <time>2012-03-11T09:08:27Z</time>
      </trkpt>
      <trkpt lat="43.81261" lon="4.17717">
        <ele>160</ele>
        <time>2012-03-11T09:08:28Z</time>
      </trkpt>
      <trkpt lat="43.81264" lon="4.17717">
        <ele>159</ele>
        <time>2012-03-11T09:08:29Z</time>
      </trkpt>
      <trkpt lat="43.81268" lon="4.17718">
        <ele>158</ele>
        <time>2012-03-11T09:08:30Z</time>
      </trkpt>
      <trkpt lat="43.81271" lon="4.17717">
        <ele>158</ele>
        <time>2012-03-11T09:08:31Z</time>
      </trkpt>
      <trkpt lat="43.81275" lon="4.17716">
        <ele>157</ele>
        <time>2012-03-11T09:08:32Z</time>
      </trkpt>
      <trkpt lat="43.81279" lon="4.17713">
        <ele>156</ele>
        <time>2012-03-11T09:08:33Z</time>
      </trkpt>
      <trkpt lat="43.81283" lon="4.17709">
        <ele>155</ele>
        <time>2012-03-11T09:08:34Z</time>
      </trkpt>
      <trkpt lat="43.81287" lon="4.17708">
        <ele>155</ele>
        <time>2012-03-11T09:08:35Z</time>
      </trkpt>
      <trkpt lat="43.81291" lon="4.17707">
        <ele>154</ele>
        <time>2012-03-11T09:08:36Z</time>
      </trkpt>
      <trkpt lat="43.81293" lon="4.17709">
        <ele>153</ele>
        <time>2012-03-11T09:08:37Z</time>
      </trkpt>
      <trkpt lat="43.81296" lon="4.17711">
        <ele>152</ele>
        <time>2012-03-11T09:08:38Z</time>
      </trkpt>
      <trkpt lat="43.81299" lon="4.17713">
        <ele>151</ele>
        <time>2012-03-11T09:08:39Z</time>
      </trkpt>
      <trkpt lat="43.81302" lon="4.17714">
        <ele>150</ele>
        <time>2012-03-11T09:08:40Z</time>
      </trkpt>
      <trkpt lat="43.81305" lon="4.17714">
        <ele>149</ele>
        <time>2012-03-11T09:08:41Z</time>
      </trkpt>
      <trkpt lat="43.81308" lon="4.17713">
        <ele>148</ele>
        <time>2012-03-11T09:08:42Z</time>
      </trkpt>
      <trkpt lat="43.81311" lon="4.17712">
        <ele>147</ele>
        <time>2012-03-11T09:08:43Z</time>
      </trkpt>
      <trkpt lat="43.81314" lon="4.17711">
        <ele>146</ele>
        <time>2012-03-11T09:08:44Z</time>
      </trkpt>
      <trkpt lat="43.81318" lon="4.17709">
        <ele>145</ele>
        <time>2012-03-11T09:08:45Z</time>
      </trkpt>
      <trkpt lat="43.81321" lon="4.17707">
        <ele>144</ele>
        <time>2012-03-11T09:08:46Z</time>
      </trkpt>
      <trkpt lat="43.81324" lon="4.17705">
        <ele>143</ele>
        <time>2012-03-11T09:08:47Z</time>
      </trkpt>
      <trkpt lat="43.81328" lon="4.17702">
        <ele>142</ele>
        <time>2012-03-11T09:08:48Z</time>
      </trkpt>
      <trkpt lat="43.81331" lon="4.17699">
        <ele>140</ele>
        <time>2012-03-11T09:08:49Z</time>
      </trkpt>
      <trkpt lat="43.81335" lon="4.17696">
        <ele>139</ele>
        <time>2012-03-11T09:08:50Z</time>
      </trkpt>
      <trkpt lat="43.81338" lon="4.17691">
        <ele>138</ele>
        <time>2012-03-11T09:08:51Z</time>
      </trkpt>
      <trkpt lat="43.8134" lon="4.17687">
        <ele>136</ele>
        <time>2012-03-11T09:08:52Z</time>
      </trkpt>
      <trkpt lat="43.81343" lon="4.17683">
        <ele>135</ele>
        <time>2012-03-11T09:08:53Z</time>
      </trkpt>
      <trkpt lat="43.81345" lon="4.1768">
        <ele>134</ele>
        <time>2012-03-11T09:08:54Z</time>
      </trkpt>
      <trkpt lat="43.81346" lon="4.17675">
        <ele>133</ele>
        <time>2012-03-11T09:08:55Z</time>
      </trkpt>
      <trkpt lat="43.81347" lon="4.17672">
        <ele>132</ele>
        <time>2012-03-11T09:08:56Z</time>
      </trkpt>
      <trkpt lat="43.81348" lon="4.17669">
        <ele>131</ele>
        <time>2012-03-11T09:08:57Z</time>
      </trkpt>
      <trkpt lat="43.8135" lon="4.17666">
        <ele>130</ele>
        <time>2012-03-11T09:08:58Z</time>
      </trkpt>
      <trkpt lat="43.81353" lon="4.17663">
        <ele>129</ele>
        <time>2012-03-11T09:08:59Z</time>
      </trkpt>
      <trkpt lat="43.81355" lon="4.1766">
        <ele>128</ele>
        <time>2012-03-11T09:09:00Z</time>
      </trkpt>
      <trkpt lat="43.81358" lon="4.17657">
        <ele>128</ele>
        <time>2012-03-11T09:09:01Z</time>
      </trkpt>
      <trkpt lat="43.81361" lon="4.17654">
        <ele>128</ele>
        <time>2012-03-11T09:09:02Z</time>
      </trkpt>
      <trkpt lat="43.81363" lon="4.17653">
        <ele>128</ele>
        <time>2012-03-11T09:09:03Z</time>
      </trkpt>
      <trkpt lat="43.81364" lon="4.17653">
        <ele>128</ele>
        <time>2012-03-11T09:09:04Z</time>
      </trkpt>
      <trkpt lat="43.81367" lon="4.17652">
        <ele>128</ele>
        <time>2012-03-11T09:09:05Z</time>
      </trkpt>
      <trkpt lat="43.81369" lon="4.1765">
        <ele>128</ele>
        <time>2012-03-11T09:09:06Z</time>
      </trkpt>
      <trkpt lat="43.81372" lon="4.17649">
        <ele>128</ele>
        <time>2012-03-11T09:09:07Z</time>
      </trkpt>
      <trkpt lat="43.81375" lon="4.17648">
        <ele>128</ele>
        <time>2012-03-11T09:09:08Z</time>
      </trkpt>
      <trkpt lat="43.81377" lon="4.17647">
        <ele>128</ele>
        <time>2012-03-11T09:09:09Z</time>
      </trkpt>
      <trkpt lat="43.81379" lon="4.17647">
        <ele>128</ele>
        <time>2012-03-11T09:09:10Z</time>
      </trkpt>
      <trkpt lat="43.81379" lon="4.17649">
        <ele>127</ele>
        <time>2012-03-11T09:09:11Z</time>
      </trkpt>
      <trkpt lat="43.8138" lon="4.1765">
        <ele>127</ele>
        <time>2012-03-11T09:09:12Z</time>
      </trkpt>
      <trkpt lat="43.81382" lon="4.17649">
        <ele>127</ele>
        <time>2012-03-11T09:09:13Z</time>
      </trkpt>
      <trkpt lat="43.81384" lon="4.17647">
        <ele>127</ele>
        <time>2012-03-11T09:09:14Z</time>
      </trkpt>
      <trkpt lat="43.81385" lon="4.17642">
        <ele>127</ele>
        <time>2012-03-11T09:09:15Z</time>
      </trkpt>
      <trkpt lat="43.81386" lon="4.17638">
        <ele>126</ele>
        <time>2012-03-11T09:09:16Z</time>
      </trkpt>
      <trkpt lat="43.81387" lon="4.17633">
        <ele>126</ele>
        <time>2012-03-11T09:09:17Z</time>
      </trkpt>
      <trkpt lat="43.81388" lon="4.17627">
        <ele>126</ele>
        <time>2012-03-11T09:09:18Z</time>
      </trkpt>
      <trkpt lat="43.8139" lon="4.17623">
        <ele>125</ele>
        <time>2012-03-11T09:09:19Z</time>
      </trkpt>
      <trkpt lat="43.81393" lon="4.1762">
        <ele>125</ele>
        <time>2012-03-11T09:09:20Z</time>
      </trkpt>
      <trkpt lat="43.81395" lon="4.17618">
        <ele>124</ele>
        <time>2012-03-11T09:09:21Z</time>
      </trkpt>
      <trkpt lat="43.81398" lon="4.17616">
        <ele>123</ele>
        <time>2012-03-11T09:09:22Z</time>
      </trkpt>
      <trkpt lat="43.814" lon="4.17615">
        <ele>123</ele>
        <time>2012-03-11T09:09:23Z</time>
      </trkpt>
      <trkpt lat="43.81401" lon="4.17614">
        <ele>121</ele>
        <time>2012-03-11T09:09:25Z</time>
      </trkpt>
      <trkpt lat="43.81403" lon="4.17614">
        <ele>120</ele>
        <time>2012-03-11T09:09:27Z</time>
      </trkpt>
      <trkpt lat="43.81404" lon="4.17612">
        <ele>120</ele>
        <time>2012-03-11T09:09:29Z</time>
      </trkpt>
      <trkpt lat="43.81405" lon="4.1761">
        <ele>120</ele>
        <time>2012-03-11T09:09:30Z</time>
      </trkpt>
      <trkpt lat="43.81406" lon="4.17608">
        <ele>120</ele>
        <time>2012-03-11T09:09:32Z</time>
      </trkpt>
      <trkpt lat="43.81408" lon="4.17608">
        <ele>120</ele>
        <time>2012-03-11T09:09:34Z</time>
      </trkpt>
      <trkpt lat="43.81409" lon="4.17607">
        <ele>120</ele>
        <time>2012-03-11T09:09:36Z</time>
      </trkpt>
      <trkpt lat="43.81411" lon="4.17605">
        <ele>120</ele>
        <time>2012-03-11T09:09:38Z</time>
      </trkpt>
      <trkpt lat="43.81412" lon="4.17604">
        <ele>120</ele>
        <time>2012-03-11T09:09:39Z</time>
      </trkpt>
      <trkpt lat="43.81413" lon="4.17603">
        <ele>120</ele>
        <time>2012-03-11T09:09:41Z</time>
      </trkpt>
      <trkpt lat="43.81415" lon="4.17602">
        <ele>120</ele>
        <time>2012-03-11T09:09:42Z</time>
      </trkpt>
      <trkpt lat="43.81416" lon="4.176">
        <ele>120</ele>
        <time>2012-03-11T09:09:43Z</time>
      </trkpt>
      <trkpt lat="43.81419" lon="4.17598">
        <ele>120</ele>
        <time>2012-03-11T09:09:44Z</time>
      </trkpt>
      <trkpt lat="43.81421" lon="4.17595">
        <ele>120</ele>
        <time>2012-03-11T09:09:45Z</time>
      </trkpt>
      <trkpt lat="43.81424" lon="4.17591">
        <ele>119</ele>
        <time>2012-03-11T09:09:46Z</time>
      </trkpt>
      <trkpt lat="43.81427" lon="4.17589">
        <ele>118</ele>
        <time>2012-03-11T09:09:47Z</time>
      </trkpt>
      <trkpt lat="43.81431" lon="4.17587">
        <ele>118</ele>
        <time>2012-03-11T09:09:48Z</time>
      </trkpt>
      <trkpt lat="43.81434" lon="4.17585">
        <ele>117</ele>
        <time>2012-03-11T09:09:49Z</time>
      </trkpt>
      <trkpt lat="43.81437" lon="4.17586">
        <ele>117</ele>
        <time>2012-03-11T09:09:50Z</time>
      </trkpt>
      <trkpt lat="43.81439" lon="4.17588">
        <ele>116</ele>
        <time>2012-03-11T09:09:51Z</time>
      </trkpt>
      <trkpt lat="43.81443" lon="4.17591">
        <ele>116</ele>
        <time>2012-03-11T09:09:52Z</time>
      </trkpt>
      <trkpt lat="43.81447" lon="4.17594">
        <ele>115</ele>
        <time>2012-03-11T09:09:53Z</time>
      </trkpt>
      <trkpt lat="43.81451" lon="4.17596">
        <ele>115</ele>
        <time>2012-03-11T09:09:54Z</time>
      </trkpt>
      <trkpt lat="43.81453" lon="4.17599">
        <ele>115</ele>
        <time>2012-03-11T09:09:55Z</time>
      </trkpt>
      <trkpt lat="43.81458" lon="4.17598">
        <ele>115</ele>
        <time>2012-03-11T09:09:56Z</time>
      </trkpt>
      <trkpt lat="43.81463" lon="4.17598">
        <ele>115</ele>
        <time>2012-03-11T09:09:57Z</time>
      </trkpt>
      <trkpt lat="43.81467" lon="4.17597">
        <ele>115</ele>
        <time>2012-03-11T09:09:58Z</time>
      </trkpt>
      <trkpt lat="43.81471" lon="4.17598">
        <ele>114</ele>
        <time>2012-03-11T09:09:59Z</time>
      </trkpt>
      <trkpt lat="43.81474" lon="4.17599">
        <ele>113</ele>
        <time>2012-03-11T09:10:00Z</time>
      </trkpt>
      <trkpt lat="43.81476" lon="4.17598">
        <ele>112</ele>
        <time>2012-03-11T09:10:01Z</time>
      </trkpt>
      <trkpt lat="43.81477" lon="4.17595">
        <ele>111</ele>
        <time>2012-03-11T09:10:02Z</time>
      </trkpt>
      <trkpt lat="43.81477" lon="4.17593">
        <ele>110</ele>
        <time>2012-03-11T09:10:03Z</time>
      </trkpt>
      <trkpt lat="43.81478" lon="4.1759">
        <ele>109</ele>
        <time>2012-03-11T09:10:04Z</time>
      </trkpt>
      <trkpt lat="43.8148" lon="4.17584">
        <ele>108</ele>
        <time>2012-03-11T09:10:05Z</time>
      </trkpt>
      <trkpt lat="43.81483" lon="4.17575">
        <ele>107</ele>
        <time>2012-03-11T09:10:06Z</time>
      </trkpt>
      <trkpt lat="43.81485" lon="4.17568">
        <ele>106</ele>
        <time>2012-03-11T09:10:07Z</time>
      </trkpt>
      <trkpt lat="43.81488" lon="4.17563">
        <ele>106</ele>
        <time>2012-03-11T09:10:08Z</time>
      </trkpt>
      <trkpt lat="43.8149" lon="4.1756">
        <ele>105</ele>
        <time>2012-03-11T09:10:09Z</time>
      </trkpt>
      <trkpt lat="43.81491" lon="4.17562">
        <ele>104</ele>
        <time>2012-03-11T09:10:11Z</time>
      </trkpt>
      <trkpt lat="43.8149" lon="4.17564">
        <ele>104</ele>
        <time>2012-03-11T09:10:12Z</time>
      </trkpt>
      <trkpt lat="43.8149" lon="4.17567">
        <ele>104</ele>
        <time>2012-03-11T09:10:13Z</time>
      </trkpt>
      <trkpt lat="43.81488" lon="4.1757">
        <ele>104</ele>
        <time>2012-03-11T09:10:14Z</time>
      </trkpt>
      <trkpt lat="43.81486" lon="4.17573">
        <ele>103</ele>
        <time>2012-03-11T09:10:15Z</time>
      </trkpt>
      <trkpt lat="43.81485" lon="4.17577">
        <ele>103</ele>
        <time>2012-03-11T09:10:16Z</time>
      </trkpt>
      <trkpt lat="43.81484" lon="4.1758">
        <ele>103</ele>
        <time>2012-03-11T09:10:17Z</time>
      </trkpt>
      <trkpt lat="43.81484" lon="4.17584">
        <ele>102</ele>
        <time>2012-03-11T09:10:18Z</time>
      </trkpt>
      <trkpt lat="43.81483" lon="4.17587">
        <ele>101</ele>
        <time>2012-03-11T09:10:19Z</time>
      </trkpt>
      <trkpt lat="43.81483" lon="4.1759">
        <ele>101</ele>
        <time>2012-03-11T09:10:20Z</time>
      </trkpt>
      <trkpt lat="43.81483" lon="4.17593">
        <ele>101</ele>
        <time>2012-03-11T09:10:21Z</time>
      </trkpt>
      <trkpt lat="43.81482" lon="4.17595">
        <ele>101</ele>
        <time>2012-03-11T09:10:22Z</time>
      </trkpt>
      <trkpt lat="43.81481" lon="4.17597">
        <ele>101</ele>
        <time>2012-03-11T09:10:23Z</time>
      </trkpt>
      <trkpt lat="43.81481" lon="4.17599">
        <ele>101</ele>
        <time>2012-03-11T09:10:24Z</time>
      </trkpt>
      <trkpt lat="43.81481" lon="4.176">
        <ele>96</ele>
        <time>2012-03-11T09:10:33Z</time>
      </trkpt>
      <trkpt lat="43.81482" lon="4.17601">
        <ele>94</ele>
        <time>2012-03-11T09:10:35Z</time>
      </trkpt>
      <trkpt lat="43.81483" lon="4.17603">
        <ele>93</ele>
        <time>2012-03-11T09:10:36Z</time>
      </trkpt>
      <trkpt lat="43.81483" lon="4.17606">
        <ele>93</ele>
        <time>2012-03-11T09:10:38Z</time>
      </trkpt>
      <trkpt lat="43.81483" lon="4.17608">
        <ele>93</ele>
        <time>2012-03-11T09:10:41Z</time>
      </trkpt>
      <trkpt lat="43.81482" lon="4.17609">
        <ele>93</ele>
        <time>2012-03-11T09:10:52Z</time>
      </trkpt>
      <trkpt lat="43.81482" lon="4.17612">
        <ele>93</ele>
        <time>2012-03-11T09:10:56Z</time>
      </trkpt>
      <trkpt lat="43.81482" lon="4.17614">
        <ele>93</ele>
        <time>2012-03-11T09:10:57Z</time>
      </trkpt>
      <trkpt lat="43.81482" lon="4.17616">
        <ele>93</ele>
        <time>2012-03-11T09:10:58Z</time>
      </trkpt>
      <trkpt lat="43.81482" lon="4.17618">
        <ele>93</ele>
        <time>2012-03-11T09:10:59Z</time>
      </trkpt>
      <trkpt lat="43.81481" lon="4.17621">
        <ele>93</ele>
        <time>2012-03-11T09:11:00Z</time>
      </trkpt>
      <trkpt lat="43.81481" lon="4.17623">
        <ele>93</ele>
        <time>2012-03-11T09:11:01Z</time>
      </trkpt>
      <trkpt lat="43.8148" lon="4.17626">
        <ele>93</ele>
        <time>2012-03-11T09:11:02Z</time>
      </trkpt>
      <trkpt lat="43.81479" lon="4.17629">
        <ele>93</ele>
        <time>2012-03-11T09:11:03Z</time>
      </trkpt>
      <trkpt lat="43.81477" lon="4.17633">
        <ele>93</ele>
        <time>2012-03-11T09:11:04Z</time>
      </trkpt>
      <trkpt lat="43.81476" lon="4.17637">
        <ele>93</ele>
        <time>2012-03-11T09:11:05Z</time>
      </trkpt>
      <trkpt lat="43.81475" lon="4.17641">
        <ele>93</ele>
        <time>2012-03-11T09:11:06Z</time>
      </trkpt>
      <trkpt lat="43.81474" lon="4.17647">
        <ele>93</ele>
        <time>2012-03-11T09:11:07Z</time>
      </trkpt>
      <trkpt lat="43.81472" lon="4.17652">
        <ele>93</ele>
        <time>2012-03-11T09:11:08Z</time>
      </trkpt>
      <trkpt lat="43.81471" lon="4.17658">
        <ele>93</ele>
        <time>2012-03-11T09:11:09Z</time>
      </trkpt>
      <trkpt lat="43.81471" lon="4.17665">
        <ele>93</ele>
        <time>2012-03-11T09:11:10Z</time>
      </trkpt>
      <trkpt lat="43.81471" lon="4.17672">
        <ele>93</ele>
        <time>2012-03-11T09:11:11Z</time>
      </trkpt>
      <trkpt lat="43.81471" lon="4.17678">
        <ele>93</ele>
        <time>2012-03-11T09:11:12Z</time>
      </trkpt>
      <trkpt lat="43.81471" lon="4.17685">
        <ele>93</ele>
        <time>2012-03-11T09:11:13Z</time>
      </trkpt>
      <trkpt lat="43.8147" lon="4.17691">
        <ele>94</ele>
        <time>2012-03-11T09:11:14Z</time>
      </trkpt>
      <trkpt lat="43.8147" lon="4.17697">
        <ele>95</ele>
        <time>2012-03-11T09:11:15Z</time>
      </trkpt>
      <trkpt lat="43.81469" lon="4.17704">
        <ele>96</ele>
        <time>2012-03-11T09:11:16Z</time>
      </trkpt>
      <trkpt lat="43.81469" lon="4.1771">
        <ele>97</ele>
        <time>2012-03-11T09:11:17Z</time>
      </trkpt>
      <trkpt lat="43.81469" lon="4.17717">
        <ele>98</ele>
        <time>2012-03-11T09:11:18Z</time>
      </trkpt>
      <trkpt lat="43.81469" lon="4.17723">
        <ele>98</ele>
        <time>2012-03-11T09:11:19Z</time>
      </trkpt>
      <trkpt lat="43.81468" lon="4.17729">
        <ele>99</ele>
        <time>2012-03-11T09:11:20Z</time>
      </trkpt>
      <trkpt lat="43.81468" lon="4.17735">
        <ele>99</ele>
        <time>2012-03-11T09:11:21Z</time>
      </trkpt>
      <trkpt lat="43.81467" lon="4.1774">
        <ele>99</ele>
        <time>2012-03-11T09:11:22Z</time>
      </trkpt>
      <trkpt lat="43.81467" lon="4.17746">
        <ele>100</ele>
        <time>2012-03-11T09:11:23Z</time>
      </trkpt>
      <trkpt lat="43.81466" lon="4.17751">
        <ele>100</ele>
        <time>2012-03-11T09:11:25Z</time>
      </trkpt>
      <trkpt lat="43.81466" lon="4.17756">
        <ele>101</ele>
        <time>2012-03-11T09:11:25Z</time>
      </trkpt>
      <trkpt lat="43.81466" lon="4.17762">
        <ele>102</ele>
        <time>2012-03-11T09:11:26Z</time>
      </trkpt>
      <trkpt lat="43.81466" lon="4.17768">
        <ele>103</ele>
        <time>2012-03-11T09:11:27Z</time>
      </trkpt>
      <trkpt lat="43.81465" lon="4.17774">
        <ele>103</ele>
        <time>2012-03-11T09:11:28Z</time>
      </trkpt>
      <trkpt lat="43.81465" lon="4.17779">
        <ele>104</ele>
        <time>2012-03-11T09:11:29Z</time>
      </trkpt>
      <trkpt lat="43.81466" lon="4.17785">
        <ele>104</ele>
        <time>2012-03-11T09:11:30Z</time>
      </trkpt>
      <trkpt lat="43.81466" lon="4.1779">
        <ele>104</ele>
        <time>2012-03-11T09:11:31Z</time>
      </trkpt>
      <trkpt lat="43.81465" lon="4.17795">
        <ele>104</ele>
        <time>2012-03-11T09:11:32Z</time>
      </trkpt>
      <trkpt lat="43.81466" lon="4.178">
        <ele>104</ele>
        <time>2012-03-11T09:11:33Z</time>
      </trkpt>
      <trkpt lat="43.81466" lon="4.17804">
        <ele>104</ele>
        <time>2012-03-11T09:11:34Z</time>
      </trkpt>
      <trkpt lat="43.81466" lon="4.17808">
        <ele>104</ele>
        <time>2012-03-11T09:11:35Z</time>
      </trkpt>
      <trkpt lat="43.81464" lon="4.17811">
        <ele>104</ele>
        <time>2012-03-11T09:11:36Z</time>
      </trkpt>
      <trkpt lat="43.81464" lon="4.17815">
        <ele>104</ele>
        <time>2012-03-11T09:11:37Z</time>
      </trkpt>
      <trkpt lat="43.81462" lon="4.17819">
        <ele>104</ele>
        <time>2012-03-11T09:11:38Z</time>
      </trkpt>
      <trkpt lat="43.81461" lon="4.17823">
        <ele>104</ele>
        <time>2012-03-11T09:11:39Z</time>
      </trkpt>
      <trkpt lat="43.8146" lon="4.17827">
        <ele>104</ele>
        <time>2012-03-11T09:11:40Z</time>
      </trkpt>
      <trkpt lat="43.81459" lon="4.17831">
        <ele>104</ele>
        <time>2012-03-11T09:11:41Z</time>
      </trkpt>
      <trkpt lat="43.81457" lon="4.17835">
        <ele>104</ele>
        <time>2012-03-11T09:11:42Z</time>
      </trkpt>
      <trkpt lat="43.81456" lon="4.17839">
        <ele>104</ele>
        <time>2012-03-11T09:11:43Z</time>
      </trkpt>
      <trkpt lat="43.81455" lon="4.17843">
        <ele>104</ele>
        <time>2012-03-11T09:11:44Z</time>
      </trkpt>
      <trkpt lat="43.81454" lon="4.17848">
        <ele>104</ele>
        <time>2012-03-11T09:11:45Z</time>
      </trkpt>
      <trkpt lat="43.81452" lon="4.17854">
        <ele>104</ele>
        <time>2012-03-11T09:11:46Z</time>
      </trkpt>
      <trkpt lat="43.81451" lon="4.1786">
        <ele>104</ele>
        <time>2012-03-11T09:11:47Z</time>
      </trkpt>
      <trkpt lat="43.81451" lon="4.17866">
        <ele>103</ele>
        <time>2012-03-11T09:11:48Z</time>
      </trkpt>
      <trkpt lat="43.81451" lon="4.17871">
        <ele>103</ele>
        <time>2012-03-11T09:11:49Z</time>
      </trkpt>
      <trkpt lat="43.81452" lon="4.17877">
        <ele>102</ele>
        <time>2012-03-11T09:11:50Z</time>
      </trkpt>
      <trkpt lat="43.81453" lon="4.17882">
        <ele>101</ele>
        <time>2012-03-11T09:11:51Z</time>
      </trkpt>
      <trkpt lat="43.81454" lon="4.17887">
        <ele>100</ele>
        <time>2012-03-11T09:11:52Z</time>
      </trkpt>
      <trkpt lat="43.81456" lon="4.17891">
        <ele>99</ele>
        <time>2012-03-11T09:11:53Z</time>
      </trkpt>
      <trkpt lat="43.81456" lon="4.17895">
        <ele>98</ele>
        <time>2012-03-11T09:11:54Z</time>
      </trkpt>
      <trkpt lat="43.81456" lon="4.17899">
        <ele>97</ele>
        <time>2012-03-11T09:11:55Z</time>
      </trkpt>
      <trkpt lat="43.81457" lon="4.17904">
        <ele>96</ele>
        <time>2012-03-11T09:11:56Z</time>
      </trkpt>
      <trkpt lat="43.81457" lon="4.17907">
        <ele>96</ele>
        <time>2012-03-11T09:11:57Z</time>
      </trkpt>
      <trkpt lat="43.81456" lon="4.17909">
        <ele>96</ele>
        <time>2012-03-11T09:11:58Z</time>
      </trkpt>
      <trkpt lat="43.81456" lon="4.17911">
        <ele>96</ele>
        <time>2012-03-11T09:11:59Z</time>
      </trkpt>
      <trkpt lat="43.81457" lon="4.17912">
        <ele>96</ele>
        <time>2012-03-11T09:12:05Z</time>
      </trkpt>
      <trkpt lat="43.81456" lon="4.17914">
        <ele>96</ele>
        <time>2012-03-11T09:12:12Z</time>
      </trkpt>
      <trkpt lat="43.81456" lon="4.17915">
        <ele>96</ele>
        <time>2012-03-11T09:12:13Z</time>
      </trkpt>
      <trkpt lat="43.81454" lon="4.17917">
        <ele>96</ele>
        <time>2012-03-11T09:12:15Z</time>
      </trkpt>
      <trkpt lat="43.81453" lon="4.17916">
        <ele>96</ele>
        <time>2012-03-11T09:12:17Z</time>
      </trkpt>
      <trkpt lat="43.81453" lon="4.17915">
        <ele>96</ele>
        <time>2012-03-11T09:12:18Z</time>
      </trkpt>
      <trkpt lat="43.81452" lon="4.17913">
        <ele>96</ele>
        <time>2012-03-11T09:12:19Z</time>
      </trkpt>
      <trkpt lat="43.81452" lon="4.17911">
        <ele>96</ele>
        <time>2012-03-11T09:12:20Z</time>
      </trkpt>
      <trkpt lat="43.81451" lon="4.17909">
        <ele>96</ele>
        <time>2012-03-11T09:12:21Z</time>
      </trkpt>
      <trkpt lat="43.81451" lon="4.17907">
        <ele>96</ele>
        <time>2012-03-11T09:12:22Z</time>
      </trkpt>
      <trkpt lat="43.8145" lon="4.17905">
        <ele>96</ele>
        <time>2012-03-11T09:12:23Z</time>
      </trkpt>
      <trkpt lat="43.81448" lon="4.17903">
        <ele>96</ele>
        <time>2012-03-11T09:12:24Z</time>
      </trkpt>
      <trkpt lat="43.81446" lon="4.17901">
        <ele>96</ele>
        <time>2012-03-11T09:12:25Z</time>
      </trkpt>
      <trkpt lat="43.81445" lon="4.179">
        <ele>96</ele>
        <time>2012-03-11T09:12:26Z</time>
      </trkpt>
      <trkpt lat="43.81443" lon="4.17898">
        <ele>96</ele>
        <time>2012-03-11T09:12:27Z</time>
      </trkpt>
      <trkpt lat="43.81441" lon="4.17897">
        <ele>96</ele>
        <time>2012-03-11T09:12:28Z</time>
      </trkpt>
      <trkpt lat="43.8144" lon="4.17895">
        <ele>96</ele>
        <time>2012-03-11T09:12:29Z</time>
      </trkpt>
      <trkpt lat="43.81438" lon="4.17893">
        <ele>96</ele>
        <time>2012-03-11T09:12:30Z</time>
      </trkpt>
      <trkpt lat="43.81436" lon="4.17891">
        <ele>96</ele>
        <time>2012-03-11T09:12:31Z</time>
      </trkpt>
      <trkpt lat="43.81434" lon="4.1789">
        <ele>96</ele>
        <time>2012-03-11T09:12:32Z</time>
      </trkpt>
      <trkpt lat="43.81432" lon="4.17888">
        <ele>96</ele>
        <time>2012-03-11T09:12:33Z</time>
      </trkpt>
      <trkpt lat="43.8143" lon="4.17887">
        <ele>96</ele>
        <time>2012-03-11T09:12:34Z</time>
      </trkpt>
      <trkpt lat="43.81428" lon="4.17886">
        <ele>96</ele>
        <time>2012-03-11T09:12:35Z</time>
      </trkpt>
      <trkpt lat="43.81426" lon="4.17885">
        <ele>96</ele>
        <time>2012-03-11T09:12:36Z</time>
      </trkpt>
      <trkpt lat="43.81424" lon="4.17884">
        <ele>96</ele>
        <time>2012-03-11T09:12:37Z</time>
      </trkpt>
      <trkpt lat="43.81422" lon="4.17884">
        <ele>96</ele>
        <time>2012-03-11T09:12:38Z</time>
      </trkpt>
      <trkpt lat="43.81419" lon="4.17883">
        <ele>96</ele>
        <time>2012-03-11T09:12:39Z</time>
      </trkpt>
      <trkpt lat="43.81417" lon="4.17882">
        <ele>96</ele>
        <time>2012-03-11T09:12:40Z</time>
      </trkpt>
      <trkpt lat="43.81415" lon="4.17882">
        <ele>96</ele>
        <time>2012-03-11T09:12:41Z</time>
      </trkpt>
      <trkpt lat="43.81413" lon="4.17881">
        <ele>97</ele>
        <time>2012-03-11T09:12:42Z</time>
      </trkpt>
      <trkpt lat="43.81411" lon="4.17881">
        <ele>97</ele>
        <time>2012-03-11T09:12:43Z</time>
      </trkpt>
      <trkpt lat="43.81408" lon="4.17881">
        <ele>97</ele>
        <time>2012-03-11T09:12:44Z</time>
      </trkpt>
      <trkpt lat="43.81406" lon="4.17881">
        <ele>98</ele>
        <time>2012-03-11T09:12:45Z</time>
      </trkpt>
      <trkpt lat="43.81404" lon="4.17881">
        <ele>98</ele>
        <time>2012-03-11T09:12:46Z</time>
      </trkpt>
      <trkpt lat="43.81403" lon="4.1788">
        <ele>99</ele>
        <time>2012-03-11T09:12:47Z</time>
      </trkpt>
      <trkpt lat="43.81401" lon="4.1788">
        <ele>99</ele>
        <time>2012-03-11T09:12:48Z</time>
      </trkpt>
      <trkpt lat="43.81399" lon="4.17879">
        <ele>99</ele>
        <time>2012-03-11T09:12:49Z</time>
      </trkpt>
      <trkpt lat="43.81397" lon="4.17879">
        <ele>99</ele>
        <time>2012-03-11T09:12:50Z</time>
      </trkpt>
      <trkpt lat="43.81395" lon="4.1788">
        <ele>100</ele>
        <time>2012-03-11T09:12:51Z</time>
      </trkpt>
      <trkpt lat="43.81393" lon="4.1788">
        <ele>100</ele>
        <time>2012-03-11T09:12:52Z</time>
      </trkpt>
      <trkpt lat="43.81392" lon="4.1788">
        <ele>100</ele>
        <time>2012-03-11T09:12:53Z</time>
      </trkpt>
      <trkpt lat="43.8139" lon="4.1788">
        <ele>100</ele>
        <time>2012-03-11T09:12:54Z</time>
      </trkpt>
      <trkpt lat="43.81388" lon="4.17879">
        <ele>100</ele>
        <time>2012-03-11T09:12:55Z</time>
      </trkpt>
      <trkpt lat="43.81387" lon="4.17879">
        <ele>101</ele>
        <time>2012-03-11T09:12:56Z</time>
      </trkpt>
      <trkpt lat="43.81385" lon="4.17879">
        <ele>102</ele>
        <time>2012-03-11T09:12:57Z</time>
      </trkpt>
      <trkpt lat="43.81384" lon="4.17879">
        <ele>102</ele>
        <time>2012-03-11T09:12:58Z</time>
      </trkpt>
      <trkpt lat="43.81382" lon="4.17879">
        <ele>103</ele>
        <time>2012-03-11T09:12:59Z</time>
      </trkpt>
      <trkpt lat="43.81381" lon="4.17879">
        <ele>103</ele>
        <time>2012-03-11T09:13:00Z</time>
      </trkpt>
      <trkpt lat="43.81379" lon="4.17879">
        <ele>104</ele>
        <time>2012-03-11T09:13:01Z</time>
      </trkpt>
      <trkpt lat="43.81377" lon="4.17878">
        <ele>104</ele>
        <time>2012-03-11T09:13:03Z</time>
      </trkpt>
      <trkpt lat="43.81375" lon="4.17877">
        <ele>104</ele>
        <time>2012-03-11T09:13:05Z</time>
      </trkpt>
      <trkpt lat="43.81373" lon="4.17877">
        <ele>105</ele>
        <time>2012-03-11T09:13:07Z</time>
      </trkpt>
      <trkpt lat="43.81372" lon="4.17877">
        <ele>105</ele>
        <time>2012-03-11T09:13:08Z</time>
      </trkpt>
      <trkpt lat="43.81371" lon="4.17878">
        <ele>105</ele>
        <time>2012-03-11T09:13:09Z</time>
      </trkpt>
      <trkpt lat="43.81369" lon="4.17879">
        <ele>106</ele>
        <time>2012-03-11T09:13:10Z</time>
      </trkpt>
      <trkpt lat="43.81368" lon="4.1788">
        <ele>106</ele>
        <time>2012-03-11T09:13:11Z</time>
      </trkpt>
      <trkpt lat="43.81366" lon="4.17882">
        <ele>106</ele>
        <time>2012-03-11T09:13:13Z</time>
      </trkpt>
      <trkpt lat="43.81364" lon="4.17885">
        <ele>107</ele>
        <time>2012-03-11T09:13:15Z</time>
      </trkpt>
      <trkpt lat="43.81363" lon="4.17886">
        <ele>107</ele>
        <time>2012-03-11T09:13:16Z</time>
      </trkpt>
      <trkpt lat="43.81363" lon="4.17889">
        <ele>107</ele>
        <time>2012-03-11T09:13:17Z</time>
      </trkpt>
      <trkpt lat="43.81362" lon="4.17891">
        <ele>108</ele>
        <time>2012-03-11T09:13:18Z</time>
      </trkpt>
      <trkpt lat="43.81361" lon="4.17893">
        <ele>108</ele>
        <time>2012-03-11T09:13:19Z</time>
      </trkpt>
      <trkpt lat="43.81361" lon="4.17895">
        <ele>108</ele>
        <time>2012-03-11T09:13:20Z</time>
      </trkpt>
      <trkpt lat="43.8136" lon="4.17897">
        <ele>109</ele>
        <time>2012-03-11T09:13:21Z</time>
      </trkpt>
      <trkpt lat="43.81359" lon="4.17898">
        <ele>109</ele>
        <time>2012-03-11T09:13:22Z</time>
      </trkpt>
      <trkpt lat="43.81359" lon="4.179">
        <ele>109</ele>
        <time>2012-03-11T09:13:23Z</time>
      </trkpt>
      <trkpt lat="43.81358" lon="4.17902">
        <ele>110</ele>
        <time>2012-03-11T09:13:24Z</time>
      </trkpt>
      <trkpt lat="43.81358" lon="4.17903">
        <ele>110</ele>
        <time>2012-03-11T09:13:25Z</time>
      </trkpt>
      <trkpt lat="43.81357" lon="4.17905">
        <ele>110</ele>
        <time>2012-03-11T09:13:26Z</time>
      </trkpt>
      <trkpt lat="43.81356" lon="4.17907">
        <ele>111</ele>
        <time>2012-03-11T09:13:27Z</time>
      </trkpt>
      <trkpt lat="43.81355" lon="4.17909">
        <ele>111</ele>
        <time>2012-03-11T09:13:28Z</time>
      </trkpt>
      <trkpt lat="43.81353" lon="4.1791">
        <ele>112</ele>
        <time>2012-03-11T09:13:29Z</time>
      </trkpt>
      <trkpt lat="43.81352" lon="4.17913">
        <ele>112</ele>
        <time>2012-03-11T09:13:31Z</time>
      </trkpt>
      <trkpt lat="43.8135" lon="4.17915">
        <ele>113</ele>
        <time>2012-03-11T09:13:33Z</time>
      </trkpt>
      <trkpt lat="43.8135" lon="4.17917">
        <ele>113</ele>
        <time>2012-03-11T09:13:34Z</time>
      </trkpt>
      <trkpt lat="43.81348" lon="4.17918">
        <ele>113</ele>
        <time>2012-03-11T09:13:35Z</time>
      </trkpt>
      <trkpt lat="43.81347" lon="4.17919">
        <ele>113</ele>
        <time>2012-03-11T09:13:36Z</time>
      </trkpt>
      <trkpt lat="43.81345" lon="4.1792">
        <ele>113</ele>
        <time>2012-03-11T09:13:37Z</time>
      </trkpt>
      <trkpt lat="43.81344" lon="4.17921">
        <ele>113</ele>
        <time>2012-03-11T09:13:38Z</time>
      </trkpt>
      <trkpt lat="43.81343" lon="4.17922">
        <ele>113</ele>
        <time>2012-03-11T09:13:39Z</time>
      </trkpt>
      <trkpt lat="43.81342" lon="4.17923">
        <ele>113</ele>
        <time>2012-03-11T09:13:40Z</time>
      </trkpt>
      <trkpt lat="43.8134" lon="4.17924">
        <ele>113</ele>
        <time>2012-03-11T09:13:41Z</time>
      </trkpt>
      <trkpt lat="43.81339" lon="4.17925">
        <ele>113</ele>
        <time>2012-03-11T09:13:42Z</time>
      </trkpt>
      <trkpt lat="43.81338" lon="4.17926">
        <ele>113</ele>
        <time>2012-03-11T09:13:43Z</time>
      </trkpt>
      <trkpt lat="43.81336" lon="4.17927">
        <ele>114</ele>
        <time>2012-03-11T09:13:44Z</time>
      </trkpt>
      <trkpt lat="43.81335" lon="4.17928">
        <ele>114</ele>
        <time>2012-03-11T09:13:45Z</time>
      </trkpt>
      <trkpt lat="43.81334" lon="4.1793">
        <ele>114</ele>
        <time>2012-03-11T09:13:46Z</time>
      </trkpt>
      <trkpt lat="43.81332" lon="4.17931">
        <ele>114</ele>
        <time>2012-03-11T09:13:47Z</time>
      </trkpt>
      <trkpt lat="43.81331" lon="4.17932">
        <ele>115</ele>
        <time>2012-03-11T09:13:48Z</time>
      </trkpt>
      <trkpt lat="43.8133" lon="4.17934">
        <ele>115</ele>
        <time>2012-03-11T09:13:49Z</time>
      </trkpt>
      <trkpt lat="43.81329" lon="4.17935">
        <ele>115</ele>
        <time>2012-03-11T09:13:50Z</time>
      </trkpt>
      <trkpt lat="43.81327" lon="4.17936">
        <ele>116</ele>
        <time>2012-03-11T09:13:52Z</time>
      </trkpt>
      <trkpt lat="43.81326" lon="4.17938">
        <ele>116</ele>
        <time>2012-03-11T09:13:53Z</time>
      </trkpt>
      <trkpt lat="43.81324" lon="4.17939">
        <ele>116</ele>
        <time>2012-03-11T09:13:54Z</time>
      </trkpt>
      <trkpt lat="43.81323" lon="4.17941">
        <ele>117</ele>
        <time>2012-03-11T09:13:55Z</time>
      </trkpt>
      <trkpt lat="43.81322" lon="4.17942">
        <ele>117</ele>
        <time>2012-03-11T09:13:56Z</time>
      </trkpt>
      <trkpt lat="43.81321" lon="4.17944">
        <ele>117</ele>
        <time>2012-03-11T09:13:57Z</time>
      </trkpt>
      <trkpt lat="43.8132" lon="4.17946">
        <ele>118</ele>
        <time>2012-03-11T09:13:58Z</time>
      </trkpt>
      <trkpt lat="43.81319" lon="4.17947">
        <ele>118</ele>
        <time>2012-03-11T09:13:59Z</time>
      </trkpt>
      <trkpt lat="43.81318" lon="4.17949">
        <ele>119</ele>
        <time>2012-03-11T09:14:00Z</time>
      </trkpt>
      <trkpt lat="43.81318" lon="4.1795">
        <ele>119</ele>
        <time>2012-03-11T09:14:01Z</time>
      </trkpt>
      <trkpt lat="43.81316" lon="4.17952">
        <ele>119</ele>
        <time>2012-03-11T09:14:02Z</time>
      </trkpt>
      <trkpt lat="43.81316" lon="4.17954">
        <ele>120</ele>
        <time>2012-03-11T09:14:03Z</time>
      </trkpt>
      <trkpt lat="43.81314" lon="4.17956">
        <ele>120</ele>
        <time>2012-03-11T09:14:04Z</time>
      </trkpt>
      <trkpt lat="43.81313" lon="4.17958">
        <ele>120</ele>
        <time>2012-03-11T09:14:05Z</time>
      </trkpt>
      <trkpt lat="43.81311" lon="4.17961">
        <ele>120</ele>
        <time>2012-03-11T09:14:07Z</time>
      </trkpt>
      <trkpt lat="43.8131" lon="4.17963">
        <ele>120</ele>
        <time>2012-03-11T09:14:08Z</time>
      </trkpt>
      <trkpt lat="43.81309" lon="4.17964">
        <ele>120</ele>
        <time>2012-03-11T09:14:09Z</time>
      </trkpt>
      <trkpt lat="43.81308" lon="4.17966">
        <ele>120</ele>
        <time>2012-03-11T09:14:10Z</time>
      </trkpt>
      <trkpt lat="43.81306" lon="4.17968">
        <ele>120</ele>
        <time>2012-03-11T09:14:11Z</time>
      </trkpt>
      <trkpt lat="43.81305" lon="4.17971">
        <ele>120</ele>
        <time>2012-03-11T09:14:12Z</time>
      </trkpt>
      <trkpt lat="43.81304" lon="4.17973">
        <ele>120</ele>
        <time>2012-03-11T09:14:13Z</time>
      </trkpt>
      <trkpt lat="43.81304" lon="4.17975">
        <ele>120</ele>
        <time>2012-03-11T09:14:14Z</time>
      </trkpt>
      <trkpt lat="43.81303" lon="4.17978">
        <ele>120</ele>
        <time>2012-03-11T09:14:15Z</time>
      </trkpt>
      <trkpt lat="43.81302" lon="4.17979">
        <ele>121</ele>
        <time>2012-03-11T09:14:16Z</time>
      </trkpt>
      <trkpt lat="43.81301" lon="4.17981">
        <ele>122</ele>
        <time>2012-03-11T09:14:17Z</time>
      </trkpt>
      <trkpt lat="43.81301" lon="4.17984">
        <ele>122</ele>
        <time>2012-03-11T09:14:18Z</time>
      </trkpt>
      <trkpt lat="43.81302" lon="4.17987">
        <ele>122</ele>
        <time>2012-03-11T09:14:19Z</time>
      </trkpt>
      <trkpt lat="43.81301" lon="4.17988">
        <ele>123</ele>
        <time>2012-03-11T09:14:20Z</time>
      </trkpt>
      <trkpt lat="43.81301" lon="4.1799">
        <ele>123</ele>
        <time>2012-03-11T09:14:21Z</time>
      </trkpt>
      <trkpt lat="43.813" lon="4.17992">
        <ele>124</ele>
        <time>2012-03-11T09:14:22Z</time>
      </trkpt>
      <trkpt lat="43.81299" lon="4.17994">
        <ele>124</ele>
        <time>2012-03-11T09:14:23Z</time>
      </trkpt>
      <trkpt lat="43.81298" lon="4.17996">
        <ele>125</ele>
        <time>2012-03-11T09:14:24Z</time>
      </trkpt>
      <trkpt lat="43.81297" lon="4.17998">
        <ele>126</ele>
        <time>2012-03-11T09:14:25Z</time>
      </trkpt>
      <trkpt lat="43.81296" lon="4.17999">
        <ele>126</ele>
        <time>2012-03-11T09:14:26Z</time>
      </trkpt>
      <trkpt lat="43.81295" lon="4.18001">
        <ele>126</ele>
        <time>2012-03-11T09:14:27Z</time>
      </trkpt>
      <trkpt lat="43.81294" lon="4.18003">
        <ele>126</ele>
        <time>2012-03-11T09:14:28Z</time>
      </trkpt>
      <trkpt lat="43.81293" lon="4.18004">
        <ele>126</ele>
        <time>2012-03-11T09:14:29Z</time>
      </trkpt>
      <trkpt lat="43.81292" lon="4.18007">
        <ele>127</ele>
        <time>2012-03-11T09:14:30Z</time>
      </trkpt>
      <trkpt lat="43.81292" lon="4.18008">
        <ele>128</ele>
        <time>2012-03-11T09:14:31Z</time>
      </trkpt>
      <trkpt lat="43.81291" lon="4.1801">
        <ele>129</ele>
        <time>2012-03-11T09:14:32Z</time>
      </trkpt>
      <trkpt lat="43.81291" lon="4.18012">
        <ele>130</ele>
        <time>2012-03-11T09:14:33Z</time>
      </trkpt>
      <trkpt lat="43.8129" lon="4.18014">
        <ele>130</ele>
        <time>2012-03-11T09:14:34Z</time>
      </trkpt>
      <trkpt lat="43.81289" lon="4.18016">
        <ele>131</ele>
        <time>2012-03-11T09:14:35Z</time>
      </trkpt>
      <trkpt lat="43.81289" lon="4.18019">
        <ele>131</ele>
        <time>2012-03-11T09:14:36Z</time>
      </trkpt>
      <trkpt lat="43.81288" lon="4.18021">
        <ele>131</ele>
        <time>2012-03-11T09:14:37Z</time>
      </trkpt>
      <trkpt lat="43.81287" lon="4.18023">
        <ele>131</ele>
        <time>2012-03-11T09:14:38Z</time>
      </trkpt>
      <trkpt lat="43.81286" lon="4.18025">
        <ele>132</ele>
        <time>2012-03-11T09:14:39Z</time>
      </trkpt>
      <trkpt lat="43.81285" lon="4.18027">
        <ele>132</ele>
        <time>2012-03-11T09:14:40Z</time>
      </trkpt>
      <trkpt lat="43.81284" lon="4.1803">
        <ele>132</ele>
        <time>2012-03-11T09:14:41Z</time>
      </trkpt>
      <trkpt lat="43.81284" lon="4.18032">
        <ele>133</ele>
        <time>2012-03-11T09:14:42Z</time>
      </trkpt>
      <trkpt lat="43.81284" lon="4.18035">
        <ele>134</ele>
        <time>2012-03-11T09:14:43Z</time>
      </trkpt>
      <trkpt lat="43.81283" lon="4.18037">
        <ele>134</ele>
        <time>2012-03-11T09:14:44Z</time>
      </trkpt>
      <trkpt lat="43.81283" lon="4.18039">
        <ele>135</ele>
        <time>2012-03-11T09:14:45Z</time>
      </trkpt>
      <trkpt lat="43.81282" lon="4.18041">
        <ele>136</ele>
        <time>2012-03-11T09:14:46Z</time>
      </trkpt>
      <trkpt lat="43.81281" lon="4.18043">
        <ele>136</ele>
        <time>2012-03-11T09:14:47Z</time>
      </trkpt>
      <trkpt lat="43.8128" lon="4.18045">
        <ele>137</ele>
        <time>2012-03-11T09:14:48Z</time>
      </trkpt>
      <trkpt lat="43.81279" lon="4.18046">
        <ele>137</ele>
        <time>2012-03-11T09:14:49Z</time>
      </trkpt>
      <trkpt lat="43.81277" lon="4.18049">
        <ele>139</ele>
        <time>2012-03-11T09:14:51Z</time>
      </trkpt>
      <trkpt lat="43.81275" lon="4.18051">
        <ele>140</ele>
        <time>2012-03-11T09:14:53Z</time>
      </trkpt>
      <trkpt lat="43.81274" lon="4.18052">
        <ele>141</ele>
        <time>2012-03-11T09:14:54Z</time>
      </trkpt>
      <trkpt lat="43.81273" lon="4.18053">
        <ele>142</ele>
        <time>2012-03-11T09:14:55Z</time>
      </trkpt>
      <trkpt lat="43.81272" lon="4.18054">
        <ele>142</ele>
        <time>2012-03-11T09:14:56Z</time>
      </trkpt>
      <trkpt lat="43.81271" lon="4.18055">
        <ele>142</ele>
        <time>2012-03-11T09:14:57Z</time>
      </trkpt>
      <trkpt lat="43.81269" lon="4.18058">
        <ele>143</ele>
        <time>2012-03-11T09:14:59Z</time>
      </trkpt>
      <trkpt lat="43.81267" lon="4.18059">
        <ele>144</ele>
        <time>2012-03-11T09:15:01Z</time>
      </trkpt>
      <trkpt lat="43.81265" lon="4.1806">
        <ele>145</ele>
        <time>2012-03-11T09:15:03Z</time>
      </trkpt>
      <trkpt lat="43.81263" lon="4.18061">
        <ele>145</ele>
        <time>2012-03-11T09:15:04Z</time>
      </trkpt>
      <trkpt lat="43.81262" lon="4.18063">
        <ele>145</ele>
        <time>2012-03-11T09:15:05Z</time>
      </trkpt>
      <trkpt lat="43.81261" lon="4.18064">
        <ele>145</ele>
        <time>2012-03-11T09:15:06Z</time>
      </trkpt>
      <trkpt lat="43.8126" lon="4.18066">
        <ele>145</ele>
        <time>2012-03-11T09:15:07Z</time>
      </trkpt>
      <trkpt lat="43.8126" lon="4.18068">
        <ele>145</ele>
        <time>2012-03-11T09:15:08Z</time>
      </trkpt>
      <trkpt lat="43.81259" lon="4.18069">
        <ele>145</ele>
        <time>2012-03-11T09:15:09Z</time>
      </trkpt>
      <trkpt lat="43.81258" lon="4.18071">
        <ele>145</ele>
        <time>2012-03-11T09:15:10Z</time>
      </trkpt>
      <trkpt lat="43.81257" lon="4.18073">
        <ele>145</ele>
        <time>2012-03-11T09:15:11Z</time>
      </trkpt>
      <trkpt lat="43.81256" lon="4.18074">
        <ele>145</ele>
        <time>2012-03-11T09:15:12Z</time>
      </trkpt>
      <trkpt lat="43.81255" lon="4.18077">
        <ele>145</ele>
        <time>2012-03-11T09:15:14Z</time>
      </trkpt>
      <trkpt lat="43.81253" lon="4.18078">
        <ele>145</ele>
        <time>2012-03-11T09:15:16Z</time>
      </trkpt>
      <trkpt lat="43.81252" lon="4.18078">
        <ele>145</ele>
        <time>2012-03-11T09:15:17Z</time>
      </trkpt>
      <trkpt lat="43.8125" lon="4.18077">
        <ele>144</ele>
        <time>2012-03-11T09:15:18Z</time>
      </trkpt>
      <trkpt lat="43.81249" lon="4.18075">
        <ele>143</ele>
        <time>2012-03-11T09:15:20Z</time>
      </trkpt>
      <trkpt lat="43.81247" lon="4.18073">
        <ele>143</ele>
        <time>2012-03-11T09:15:21Z</time>
      </trkpt>
      <trkpt lat="43.81247" lon="4.18072">
        <ele>143</ele>
        <time>2012-03-11T09:15:22Z</time>
      </trkpt>
      <trkpt lat="43.81246" lon="4.1807">
        <ele>142</ele>
        <time>2012-03-11T09:15:24Z</time>
      </trkpt>
      <trkpt lat="43.81245" lon="4.18072">
        <ele>141</ele>
        <time>2012-03-11T09:15:26Z</time>
      </trkpt>
      <trkpt lat="43.81245" lon="4.18075">
        <ele>139</ele>
        <time>2012-03-11T09:15:28Z</time>
      </trkpt>
      <trkpt lat="43.81245" lon="4.18077">
        <ele>137</ele>
        <time>2012-03-11T09:15:30Z</time>
      </trkpt>
      <trkpt lat="43.81245" lon="4.18078">
        <ele>137</ele>
        <time>2012-03-11T09:15:32Z</time>
      </trkpt>
      <trkpt lat="43.81245" lon="4.1808">
        <ele>136</ele>
        <time>2012-03-11T09:15:35Z</time>
      </trkpt>
      <trkpt lat="43.81245" lon="4.18077">
        <ele>136</ele>
        <time>2012-03-11T09:15:39Z</time>
      </trkpt>
      <trkpt lat="43.81244" lon="4.18075">
        <ele>136</ele>
        <time>2012-03-11T09:15:40Z</time>
      </trkpt>
      <trkpt lat="43.81244" lon="4.18073">
        <ele>136</ele>
        <time>2012-03-11T09:15:41Z</time>
      </trkpt>
      <trkpt lat="43.81244" lon="4.18071">
        <ele>136</ele>
        <time>2012-03-11T09:15:42Z</time>
      </trkpt>
      <trkpt lat="43.81243" lon="4.18069">
        <ele>136</ele>
        <time>2012-03-11T09:15:43Z</time>
      </trkpt>
      <trkpt lat="43.81243" lon="4.18066">
        <ele>136</ele>
        <time>2012-03-11T09:15:44Z</time>
      </trkpt>
      <trkpt lat="43.81243" lon="4.18064">
        <ele>136</ele>
        <time>2012-03-11T09:15:45Z</time>
      </trkpt>
      <trkpt lat="43.81243" lon="4.18061">
        <ele>136</ele>
        <time>2012-03-11T09:15:46Z</time>
      </trkpt>
      <trkpt lat="43.81243" lon="4.18058">
        <ele>136</ele>
        <time>2012-03-11T09:15:47Z</time>
      </trkpt>
      <trkpt lat="43.81243" lon="4.18056">
        <ele>136</ele>
        <time>2012-03-11T09:15:48Z</time>
      </trkpt>
      <trkpt lat="43.81242" lon="4.18054">
        <ele>136</ele>
        <time>2012-03-11T09:15:49Z</time>
      </trkpt>
      <trkpt lat="43.81243" lon="4.18052">
        <ele>136</ele>
        <time>2012-03-11T09:15:50Z</time>
      </trkpt>
      <trkpt lat="43.81243" lon="4.18049">
        <ele>136</ele>
        <time>2012-03-11T09:15:51Z</time>
      </trkpt>
      <trkpt lat="43.81243" lon="4.18047">
        <ele>136</ele>
        <time>2012-03-11T09:15:52Z</time>
      </trkpt>
      <trkpt lat="43.81243" lon="4.18044">
        <ele>136</ele>
        <time>2012-03-11T09:15:53Z</time>
      </trkpt>
      <trkpt lat="43.81243" lon="4.18042">
        <ele>136</ele>
        <time>2012-03-11T09:15:54Z</time>
      </trkpt>
      <trkpt lat="43.81244" lon="4.18039">
        <ele>136</ele>
        <time>2012-03-11T09:15:55Z</time>
      </trkpt>
      <trkpt lat="43.81244" lon="4.18037">
        <ele>136</ele>
        <time>2012-03-11T09:15:56Z</time>
      </trkpt>
      <trkpt lat="43.81244" lon="4.18034">
        <ele>136</ele>
        <time>2012-03-11T09:15:57Z</time>
      </trkpt>
      <trkpt lat="43.81244" lon="4.18033">
        <ele>136</ele>
        <time>2012-03-11T09:15:58Z</time>
      </trkpt>
      <trkpt lat="43.81244" lon="4.18031">
        <ele>136</ele>
        <time>2012-03-11T09:15:59Z</time>
      </trkpt>
      <trkpt lat="43.81245" lon="4.18028">
        <ele>136</ele>
        <time>2012-03-11T09:16:00Z</time>
      </trkpt>
      <trkpt lat="43.81245" lon="4.18025">
        <ele>136</ele>
        <time>2012-03-11T09:16:01Z</time>
      </trkpt>
      <trkpt lat="43.81245" lon="4.18023">
        <ele>136</ele>
        <time>2012-03-11T09:16:02Z</time>
      </trkpt>
      <trkpt lat="43.81245" lon="4.18021">
        <ele>136</ele>
        <time>2012-03-11T09:16:03Z</time>
      </trkpt>
      <trkpt lat="43.81245" lon="4.18019">
        <ele>136</ele>
        <time>2012-03-11T09:16:04Z</time>
      </trkpt>
      <trkpt lat="43.81246" lon="4.18017">
        <ele>136</ele>
        <time>2012-03-11T09:16:05Z</time>
      </trkpt>
      <trkpt lat="43.81246" lon="4.18014">
        <ele>136</ele>
        <time>2012-03-11T09:16:06Z</time>
      </trkpt>
      <trkpt lat="43.81247" lon="4.18012">
        <ele>136</ele>
        <time>2012-03-11T09:16:07Z</time>
      </trkpt>
      <trkpt lat="43.81247" lon="4.1801">
        <ele>136</ele>
        <time>2012-03-11T09:16:08Z</time>
      </trkpt>
      <trkpt lat="43.81247" lon="4.18008">
        <ele>136</ele>
        <time>2012-03-11T09:16:09Z</time>
      </trkpt>
      <trkpt lat="43.81248" lon="4.18005">
        <ele>136</ele>
        <time>2012-03-11T09:16:10Z</time>
      </trkpt>
      <trkpt lat="43.81248" lon="4.18002">
        <ele>136</ele>
        <time>2012-03-11T09:16:11Z</time>
      </trkpt>
      <trkpt lat="43.81249" lon="4.17999">
        <ele>136</ele>
        <time>2012-03-11T09:16:12Z</time>
      </trkpt>
      <trkpt lat="43.81249" lon="4.17997">
        <ele>136</ele>
        <time>2012-03-11T09:16:13Z</time>
      </trkpt>
      <trkpt lat="43.8125" lon="4.17994">
        <ele>136</ele>
        <time>2012-03-11T09:16:14Z</time>
      </trkpt>
      <trkpt lat="43.8125" lon="4.17992">
        <ele>136</ele>
        <time>2012-03-11T09:16:15Z</time>
      </trkpt>
      <trkpt lat="43.8125" lon="4.1799">
        <ele>136</ele>
        <time>2012-03-11T09:16:16Z</time>
      </trkpt>
      <trkpt lat="43.8125" lon="4.17989">
        <ele>136</ele>
        <time>2012-03-11T09:16:17Z</time>
      </trkpt>
      <trkpt lat="43.8125" lon="4.17987">
        <ele>136</ele>
        <time>2012-03-11T09:16:18Z</time>
      </trkpt>
      <trkpt lat="43.81251" lon="4.17985">
        <ele>136</ele>
        <time>2012-03-11T09:16:19Z</time>
      </trkpt>
      <trkpt lat="43.81252" lon="4.17983">
        <ele>136</ele>
        <time>2012-03-11T09:16:20Z</time>
      </trkpt>
      <trkpt lat="43.81252" lon="4.17981">
        <ele>136</ele>
        <time>2012-03-11T09:16:21Z</time>
      </trkpt>
      <trkpt lat="43.81253" lon="4.17979">
        <ele>136</ele>
        <time>2012-03-11T09:16:22Z</time>
      </trkpt>
      <trkpt lat="43.81253" lon="4.17977">
        <ele>136</ele>
        <time>2012-03-11T09:16:23Z</time>
      </trkpt>
      <trkpt lat="43.81253" lon="4.17975">
        <ele>136</ele>
        <time>2012-03-11T09:16:24Z</time>
      </trkpt>
      <trkpt lat="43.81253" lon="4.17972">
        <ele>136</ele>
        <time>2012-03-11T09:16:25Z</time>
      </trkpt>
      <trkpt lat="43.81253" lon="4.17969">
        <ele>136</ele>
        <time>2012-03-11T09:16:26Z</time>
      </trkpt>
      <trkpt lat="43.81253" lon="4.17967">
        <ele>136</ele>
        <time>2012-03-11T09:16:27Z</time>
      </trkpt>
      <trkpt lat="43.81253" lon="4.17964">
        <ele>136</ele>
        <time>2012-03-11T09:16:28Z</time>
      </trkpt>
      <trkpt lat="43.81254" lon="4.17961">
        <ele>136</ele>
        <time>2012-03-11T09:16:29Z</time>
      </trkpt>
      <trkpt lat="43.81254" lon="4.17959">
        <ele>136</ele>
        <time>2012-03-11T09:16:30Z</time>
      </trkpt>
      <trkpt lat="43.81254" lon="4.17957">
        <ele>136</ele>
        <time>2012-03-11T09:16:31Z</time>
      </trkpt>
      <trkpt lat="43.81254" lon="4.17955">
        <ele>136</ele>
        <time>2012-03-11T09:16:32Z</time>
      </trkpt>
      <trkpt lat="43.81254" lon="4.17953">
        <ele>136</ele>
        <time>2012-03-11T09:16:33Z</time>
      </trkpt>
      <trkpt lat="43.81254" lon="4.17951">
        <ele>136</ele>
        <time>2012-03-11T09:16:34Z</time>
      </trkpt>
      <trkpt lat="43.81253" lon="4.17949">
        <ele>136</ele>
        <time>2012-03-11T09:16:35Z</time>
      </trkpt>
      <trkpt lat="43.81253" lon="4.17947">
        <ele>136</ele>
        <time>2012-03-11T09:16:37Z</time>
      </trkpt>
      <trkpt lat="43.81252" lon="4.17945">
        <ele>136</ele>
        <time>2012-03-11T09:16:38Z</time>
      </trkpt>
      <trkpt lat="43.81252" lon="4.17943">
        <ele>136</ele>
        <time>2012-03-11T09:16:39Z</time>
      </trkpt>
      <trkpt lat="43.81252" lon="4.17941">
        <ele>136</ele>
        <time>2012-03-11T09:16:40Z</time>
      </trkpt>
      <trkpt lat="43.81252" lon="4.1794">
        <ele>136</ele>
        <time>2012-03-11T09:16:41Z</time>
      </trkpt>
      <trkpt lat="43.81251" lon="4.17937">
        <ele>136</ele>
        <time>2012-03-11T09:16:42Z</time>
      </trkpt>
      <trkpt lat="43.8125" lon="4.17935">
        <ele>136</ele>
        <time>2012-03-11T09:16:43Z</time>
      </trkpt>
      <trkpt lat="43.8125" lon="4.17933">
        <ele>136</ele>
        <time>2012-03-11T09:16:44Z</time>
      </trkpt>
      <trkpt lat="43.8125" lon="4.17931">
        <ele>136</ele>
        <time>2012-03-11T09:16:45Z</time>
      </trkpt>
      <trkpt lat="43.81251" lon="4.17929">
        <ele>136</ele>
        <time>2012-03-11T09:16:47Z</time>
      </trkpt>
      <trkpt lat="43.81251" lon="4.17928">
        <ele>136</ele>
        <time>2012-03-11T09:16:48Z</time>
      </trkpt>
      <trkpt lat="43.8125" lon="4.17926">
        <ele>136</ele>
        <time>2012-03-11T09:16:49Z</time>
      </trkpt>
      <trkpt lat="43.81251" lon="4.17924">
        <ele>136</ele>
        <time>2012-03-11T09:16:50Z</time>
      </trkpt>
      <trkpt lat="43.8125" lon="4.17922">
        <ele>136</ele>
        <time>2012-03-11T09:16:52Z</time>
      </trkpt>
      <trkpt lat="43.81248" lon="4.1792">
        <ele>136</ele>
        <time>2012-03-11T09:16:53Z</time>
      </trkpt>
      <trkpt lat="43.81248" lon="4.17918">
        <ele>136</ele>
        <time>2012-03-11T09:16:54Z</time>
      </trkpt>
      <trkpt lat="43.81247" lon="4.17916">
        <ele>136</ele>
        <time>2012-03-11T09:16:55Z</time>
      </trkpt>
      <trkpt lat="43.81247" lon="4.17914">
        <ele>137</ele>
        <time>2012-03-11T09:16:56Z</time>
      </trkpt>
      <trkpt lat="43.81247" lon="4.17912">
        <ele>137</ele>
        <time>2012-03-11T09:16:57Z</time>
      </trkpt>
      <trkpt lat="43.81247" lon="4.1791">
        <ele>138</ele>
        <time>2012-03-11T09:16:58Z</time>
      </trkpt>
      <trkpt lat="43.81247" lon="4.17909">
        <ele>138</ele>
        <time>2012-03-11T09:16:59Z</time>
      </trkpt>
      <trkpt lat="43.81246" lon="4.17907">
        <ele>138</ele>
        <time>2012-03-11T09:17:00Z</time>
      </trkpt>
      <trkpt lat="43.81246" lon="4.17904">
        <ele>138</ele>
        <time>2012-03-11T09:17:01Z</time>
      </trkpt>
      <trkpt lat="43.81246" lon="4.17901">
        <ele>138</ele>
        <time>2012-03-11T09:17:02Z</time>
      </trkpt>
      <trkpt lat="43.81245" lon="4.17899">
        <ele>138</ele>
        <time>2012-03-11T09:17:03Z</time>
      </trkpt>
      <trkpt lat="43.81245" lon="4.17897">
        <ele>138</ele>
        <time>2012-03-11T09:17:04Z</time>
      </trkpt>
      <trkpt lat="43.81244" lon="4.17894">
        <ele>138</ele>
        <time>2012-03-11T09:17:06Z</time>
      </trkpt>
      <trkpt lat="43.81243" lon="4.17892">
        <ele>140</ele>
        <time>2012-03-11T09:17:08Z</time>
      </trkpt>
      <trkpt lat="43.81243" lon="4.17891">
        <ele>140</ele>
        <time>2012-03-11T09:17:09Z</time>
      </trkpt>
      <trkpt lat="43.81242" lon="4.17888">
        <ele>140</ele>
        <time>2012-03-11T09:17:10Z</time>
      </trkpt>
      <trkpt lat="43.81242" lon="4.17887">
        <ele>140</ele>
        <time>2012-03-11T09:17:11Z</time>
      </trkpt>
      <trkpt lat="43.81242" lon="4.17884">
        <ele>140</ele>
        <time>2012-03-11T09:17:12Z</time>
      </trkpt>
      <trkpt lat="43.81241" lon="4.17883">
        <ele>140</ele>
        <time>2012-03-11T09:17:13Z</time>
      </trkpt>
      <trkpt lat="43.8124" lon="4.17881">
        <ele>140</ele>
        <time>2012-03-11T09:17:14Z</time>
      </trkpt>
      <trkpt lat="43.8124" lon="4.17879">
        <ele>140</ele>
        <time>2012-03-11T09:17:15Z</time>
      </trkpt>
      <trkpt lat="43.8124" lon="4.17877">
        <ele>141</ele>
        <time>2012-03-11T09:17:16Z</time>
      </trkpt>
      <trkpt lat="43.81239" lon="4.17875">
        <ele>141</ele>
        <time>2012-03-11T09:17:17Z</time>
      </trkpt>
      <trkpt lat="43.81239" lon="4.17873">
        <ele>141</ele>
        <time>2012-03-11T09:17:18Z</time>
      </trkpt>
      <trkpt lat="43.81238" lon="4.17871">
        <ele>142</ele>
        <time>2012-03-11T09:17:19Z</time>
      </trkpt>
      <trkpt lat="43.81238" lon="4.1787">
        <ele>142</ele>
        <time>2012-03-11T09:17:20Z</time>
      </trkpt>
      <trkpt lat="43.81237" lon="4.17868">
        <ele>143</ele>
        <time>2012-03-11T09:17:22Z</time>
      </trkpt>
      <trkpt lat="43.81237" lon="4.17869">
        <ele>143</ele>
        <time>2012-03-11T09:17:35Z</time>
      </trkpt>
      <trkpt lat="43.81236" lon="4.1787">
        <ele>145</ele>
        <time>2012-03-11T09:17:39Z</time>
      </trkpt>
      <trkpt lat="43.81237" lon="4.1787">
        <ele>146</ele>
        <time>2012-03-11T09:17:43Z</time>
      </trkpt>
      <trkpt lat="43.81237" lon="4.17869">
        <ele>146</ele>
        <time>2012-03-11T09:17:50Z</time>
      </trkpt>
      <trkpt lat="43.81237" lon="4.17867">
        <ele>146</ele>
        <time>2012-03-11T09:17:51Z</time>
      </trkpt>
      <trkpt lat="43.81236" lon="4.17866">
        <ele>146</ele>
        <time>2012-03-11T09:17:52Z</time>
      </trkpt>
      <trkpt lat="43.81235" lon="4.17864">
        <ele>146</ele>
        <time>2012-03-11T09:17:53Z</time>
      </trkpt>
      <trkpt lat="43.81234" lon="4.17862">
        <ele>146</ele>
        <time>2012-03-11T09:17:54Z</time>
      </trkpt>
      <trkpt lat="43.81234" lon="4.17861">
        <ele>147</ele>
        <time>2012-03-11T09:17:55Z</time>
      </trkpt>
      <trkpt lat="43.81233" lon="4.17859">
        <ele>147</ele>
        <time>2012-03-11T09:17:56Z</time>
      </trkpt>
      <trkpt lat="43.81232" lon="4.17858">
        <ele>147</ele>
        <time>2012-03-11T09:17:57Z</time>
      </trkpt>
      <trkpt lat="43.81231" lon="4.17856">
        <ele>147</ele>
        <time>2012-03-11T09:17:58Z</time>
      </trkpt>
      <trkpt lat="43.8123" lon="4.17854">
        <ele>147</ele>
        <time>2012-03-11T09:17:59Z</time>
      </trkpt>
      <trkpt lat="43.8123" lon="4.17852">
        <ele>147</ele>
        <time>2012-03-11T09:18:00Z</time>
      </trkpt>
      <trkpt lat="43.81229" lon="4.17849">
        <ele>147</ele>
        <time>2012-03-11T09:18:01Z</time>
      </trkpt>
      <trkpt lat="43.81229" lon="4.17848">
        <ele>147</ele>
        <time>2012-03-11T09:18:02Z</time>
      </trkpt>
      <trkpt lat="43.81228" lon="4.17846">
        <ele>147</ele>
        <time>2012-03-11T09:18:03Z</time>
      </trkpt>
      <trkpt lat="43.81226" lon="4.17844">
        <ele>147</ele>
        <time>2012-03-11T09:18:05Z</time>
      </trkpt>
      <trkpt lat="43.81224" lon="4.17843">
        <ele>147</ele>
        <time>2012-03-11T09:18:06Z</time>
      </trkpt>
      <trkpt lat="43.81224" lon="4.17841">
        <ele>147</ele>
        <time>2012-03-11T09:18:07Z</time>
      </trkpt>
      <trkpt lat="43.81222" lon="4.17838">
        <ele>147</ele>
        <time>2012-03-11T09:18:09Z</time>
      </trkpt>
      <trkpt lat="43.81221" lon="4.17837">
        <ele>147</ele>
        <time>2012-03-11T09:18:10Z</time>
      </trkpt>
      <trkpt lat="43.81221" lon="4.17834">
        <ele>147</ele>
        <time>2012-03-11T09:18:11Z</time>
      </trkpt>
      <trkpt lat="43.8122" lon="4.17832">
        <ele>147</ele>
        <time>2012-03-11T09:18:12Z</time>
      </trkpt>
      <trkpt lat="43.81219" lon="4.1783">
        <ele>147</ele>
        <time>2012-03-11T09:18:13Z</time>
      </trkpt>
      <trkpt lat="43.81218" lon="4.17829">
        <ele>147</ele>
        <time>2012-03-11T09:18:14Z</time>
      </trkpt>
      <trkpt lat="43.81218" lon="4.17827">
        <ele>147</ele>
        <time>2012-03-11T09:18:15Z</time>
      </trkpt>
      <trkpt lat="43.81217" lon="4.17825">
        <ele>147</ele>
        <time>2012-03-11T09:18:16Z</time>
      </trkpt>
      <trkpt lat="43.81216" lon="4.17823">
        <ele>147</ele>
        <time>2012-03-11T09:18:18Z</time>
      </trkpt>
      <trkpt lat="43.81215" lon="4.17822">
        <ele>147</ele>
        <time>2012-03-11T09:18:19Z</time>
      </trkpt>
      <trkpt lat="43.81213" lon="4.1782">
        <ele>147</ele>
        <time>2012-03-11T09:18:20Z</time>
      </trkpt>
      <trkpt lat="43.81212" lon="4.17819">
        <ele>147</ele>
        <time>2012-03-11T09:18:21Z</time>
      </trkpt>
      <trkpt lat="43.8121" lon="4.17817">
        <ele>147</ele>
        <time>2012-03-11T09:18:23Z</time>
      </trkpt>
      <trkpt lat="43.81208" lon="4.17816">
        <ele>147</ele>
        <time>2012-03-11T09:18:24Z</time>
      </trkpt>
      <trkpt lat="43.81207" lon="4.17815">
        <ele>147</ele>
        <time>2012-03-11T09:18:25Z</time>
      </trkpt>
      <trkpt lat="43.81205" lon="4.17812">
        <ele>147</ele>
        <time>2012-03-11T09:18:27Z</time>
      </trkpt>
      <trkpt lat="43.81203" lon="4.17811">
        <ele>147</ele>
        <time>2012-03-11T09:18:28Z</time>
      </trkpt>
      <trkpt lat="43.81202" lon="4.1781">
        <ele>147</ele>
        <time>2012-03-11T09:18:29Z</time>
      </trkpt>
      <trkpt lat="43.81201" lon="4.17808">
        <ele>146</ele>
        <time>2012-03-11T09:18:30Z</time>
      </trkpt>
      <trkpt lat="43.812" lon="4.17807">
        <ele>145</ele>
        <time>2012-03-11T09:18:31Z</time>
      </trkpt>
      <trkpt lat="43.81198" lon="4.17806">
        <ele>144</ele>
        <time>2012-03-11T09:18:32Z</time>
      </trkpt>
      <trkpt lat="43.81196" lon="4.17805">
        <ele>143</ele>
        <time>2012-03-11T09:18:33Z</time>
      </trkpt>
      <trkpt lat="43.81195" lon="4.17804">
        <ele>142</ele>
        <time>2012-03-11T09:18:34Z</time>
      </trkpt>
      <trkpt lat="43.81193" lon="4.17804">
        <ele>142</ele>
        <time>2012-03-11T09:18:35Z</time>
      </trkpt>
      <trkpt lat="43.81192" lon="4.17803">
        <ele>142</ele>
        <time>2012-03-11T09:18:36Z</time>
      </trkpt>
      <trkpt lat="43.8119" lon="4.17802">
        <ele>142</ele>
        <time>2012-03-11T09:18:37Z</time>
      </trkpt>
      <trkpt lat="43.81189" lon="4.17801">
        <ele>142</ele>
        <time>2012-03-11T09:18:38Z</time>
      </trkpt>
      <trkpt lat="43.81187" lon="4.178">
        <ele>142</ele>
        <time>2012-03-11T09:18:39Z</time>
      </trkpt>
      <trkpt lat="43.81186" lon="4.17799">
        <ele>142</ele>
        <time>2012-03-11T09:18:40Z</time>
      </trkpt>
      <trkpt lat="43.81184" lon="4.17798">
        <ele>142</ele>
        <time>2012-03-11T09:18:41Z</time>
      </trkpt>
      <trkpt lat="43.81183" lon="4.17798">
        <ele>142</ele>
        <time>2012-03-11T09:18:42Z</time>
      </trkpt>
      <trkpt lat="43.81181" lon="4.17797">
        <ele>142</ele>
        <time>2012-03-11T09:18:43Z</time>
      </trkpt>
      <trkpt lat="43.8118" lon="4.17796">
        <ele>142</ele>
        <time>2012-03-11T09:18:44Z</time>
      </trkpt>
      <trkpt lat="43.81179" lon="4.17796">
        <ele>142</ele>
        <time>2012-03-11T09:18:45Z</time>
      </trkpt>
      <trkpt lat="43.81177" lon="4.17795">
        <ele>142</ele>
        <time>2012-03-11T09:18:46Z</time>
      </trkpt>
      <trkpt lat="43.81176" lon="4.17795">
        <ele>143</ele>
        <time>2012-03-11T09:18:47Z</time>
      </trkpt>
      <trkpt lat="43.81174" lon="4.17794">
        <ele>143</ele>
        <time>2012-03-11T09:18:48Z</time>
      </trkpt>
      <trkpt lat="43.81173" lon="4.17793">
        <ele>144</ele>
        <time>2012-03-11T09:18:49Z</time>
      </trkpt>
      <trkpt lat="43.81172" lon="4.17793">
        <ele>144</ele>
        <time>2012-03-11T09:18:50Z</time>
      </trkpt>
      <trkpt lat="43.8117" lon="4.17793">
        <ele>144</ele>
        <time>2012-03-11T09:18:51Z</time>
      </trkpt>
      <trkpt lat="43.81168" lon="4.17793">
        <ele>145</ele>
        <time>2012-03-11T09:18:52Z</time>
      </trkpt>
      <trkpt lat="43.81167" lon="4.17794">
        <ele>145</ele>
        <time>2012-03-11T09:18:53Z</time>
      </trkpt>
      <trkpt lat="43.81165" lon="4.17794">
        <ele>146</ele>
        <time>2012-03-11T09:18:54Z</time>
      </trkpt>
      <trkpt lat="43.81163" lon="4.17793">
        <ele>147</ele>
        <time>2012-03-11T09:18:55Z</time>
      </trkpt>
      <trkpt lat="43.81162" lon="4.17792">
        <ele>148</ele>
        <time>2012-03-11T09:18:56Z</time>
      </trkpt>
      <trkpt lat="43.81161" lon="4.17792">
        <ele>149</ele>
        <time>2012-03-11T09:18:57Z</time>
      </trkpt>
      <trkpt lat="43.81158" lon="4.17791">
        <ele>150</ele>
        <time>2012-03-11T09:18:59Z</time>
      </trkpt>
      <trkpt lat="43.81157" lon="4.1779">
        <ele>151</ele>
        <time>2012-03-11T09:19:00Z</time>
      </trkpt>
      <trkpt lat="43.81155" lon="4.17788">
        <ele>151</ele>
        <time>2012-03-11T09:19:01Z</time>
      </trkpt>
      <trkpt lat="43.81154" lon="4.17786">
        <ele>151</ele>
        <time>2012-03-11T09:19:02Z</time>
      </trkpt>
      <trkpt lat="43.81154" lon="4.17784">
        <ele>152</ele>
        <time>2012-03-11T09:19:03Z</time>
      </trkpt>
      <trkpt lat="43.81153" lon="4.17782">
        <ele>152</ele>
        <time>2012-03-11T09:19:04Z</time>
      </trkpt>
      <trkpt lat="43.81152" lon="4.17781">
        <ele>153</ele>
        <time>2012-03-11T09:19:05Z</time>
      </trkpt>
      <trkpt lat="43.81152" lon="4.17779">
        <ele>154</ele>
        <time>2012-03-11T09:19:07Z</time>
      </trkpt>
      <trkpt lat="43.81152" lon="4.17777">
        <ele>154</ele>
        <time>2012-03-11T09:19:08Z</time>
      </trkpt>
      <trkpt lat="43.81152" lon="4.17775">
        <ele>155</ele>
        <time>2012-03-11T09:19:09Z</time>
      </trkpt>
      <trkpt lat="43.81152" lon="4.17774">
        <ele>156</ele>
        <time>2012-03-11T09:19:10Z</time>
      </trkpt>
      <trkpt lat="43.81153" lon="4.17772">
        <ele>157</ele>
        <time>2012-03-11T09:19:11Z</time>
      </trkpt>
      <trkpt lat="43.81153" lon="4.1777">
        <ele>157</ele>
        <time>2012-03-11T09:19:12Z</time>
      </trkpt>
      <trkpt lat="43.81153" lon="4.17769">
        <ele>158</ele>
        <time>2012-03-11T09:19:13Z</time>
      </trkpt>
      <trkpt lat="43.81153" lon="4.17767">
        <ele>158</ele>
        <time>2012-03-11T09:19:14Z</time>
      </trkpt>
      <trkpt lat="43.81153" lon="4.17765">
        <ele>158</ele>
        <time>2012-03-11T09:19:15Z</time>
      </trkpt>
      <trkpt lat="43.81154" lon="4.17764">
        <ele>158</ele>
        <time>2012-03-11T09:19:16Z</time>
      </trkpt>
      <trkpt lat="43.81155" lon="4.17761">
        <ele>160</ele>
        <time>2012-03-11T09:19:19Z</time>
      </trkpt>
      <trkpt lat="43.81155" lon="4.17759">
        <ele>160</ele>
        <time>2012-03-11T09:19:20Z</time>
      </trkpt>
      <trkpt lat="43.81156" lon="4.17757">
        <ele>160</ele>
        <time>2012-03-11T09:19:21Z</time>
      </trkpt>
      <trkpt lat="43.81157" lon="4.17755">
        <ele>160</ele>
        <time>2012-03-11T09:19:22Z</time>
      </trkpt>
      <trkpt lat="43.81158" lon="4.17752">
        <ele>160</ele>
        <time>2012-03-11T09:19:23Z</time>
      </trkpt>
      <trkpt lat="43.8116" lon="4.1775">
        <ele>160</ele>
        <time>2012-03-11T09:19:24Z</time>
      </trkpt>
      <trkpt lat="43.8116" lon="4.17748">
        <ele>160</ele>
        <time>2012-03-11T09:19:25Z</time>
      </trkpt>
      <trkpt lat="43.81161" lon="4.17746">
        <ele>160</ele>
        <time>2012-03-11T09:19:26Z</time>
      </trkpt>
      <trkpt lat="43.81162" lon="4.17744">
        <ele>160</ele>
        <time>2012-03-11T09:19:27Z</time>
      </trkpt>
      <trkpt lat="43.81164" lon="4.17742">
        <ele>160</ele>
        <time>2012-03-11T09:19:29Z</time>
      </trkpt>
      <trkpt lat="43.81166" lon="4.1774">
        <ele>160</ele>
        <time>2012-03-11T09:19:31Z</time>
      </trkpt>
      <trkpt lat="43.81167" lon="4.17739">
        <ele>160</ele>
        <time>2012-03-11T09:19:32Z</time>
      </trkpt>
      <trkpt lat="43.81168" lon="4.17737">
        <ele>160</ele>
        <time>2012-03-11T09:19:33Z</time>
      </trkpt>
      <trkpt lat="43.81169" lon="4.17736">
        <ele>160</ele>
        <time>2012-03-11T09:19:34Z</time>
      </trkpt>
      <trkpt lat="43.8117" lon="4.17734">
        <ele>161</ele>
        <time>2012-03-11T09:19:35Z</time>
      </trkpt>
      <trkpt lat="43.81171" lon="4.17733">
        <ele>161</ele>
        <time>2012-03-11T09:19:36Z</time>
      </trkpt>
      <trkpt lat="43.81173" lon="4.17731">
        <ele>161</ele>
        <time>2012-03-11T09:19:37Z</time>
      </trkpt>
      <trkpt lat="43.81174" lon="4.1773">
        <ele>161</ele>
        <time>2012-03-11T09:19:38Z</time>
      </trkpt>
      <trkpt lat="43.81176" lon="4.17729">
        <ele>161</ele>
        <time>2012-03-11T09:19:39Z</time>
      </trkpt>
      <trkpt lat="43.81178" lon="4.17727">
        <ele>161</ele>
        <time>2012-03-11T09:19:40Z</time>
      </trkpt>
      <trkpt lat="43.81179" lon="4.17725">
        <ele>161</ele>
        <time>2012-03-11T09:19:41Z</time>
      </trkpt>
      <trkpt lat="43.81181" lon="4.17723">
        <ele>161</ele>
        <time>2012-03-11T09:19:42Z</time>
      </trkpt>
      <trkpt lat="43.81183" lon="4.17721">
        <ele>161</ele>
        <time>2012-03-11T09:19:43Z</time>
      </trkpt>
      <trkpt lat="43.81184" lon="4.1772">
        <ele>161</ele>
        <time>2012-03-11T09:19:44Z</time>
      </trkpt>
      <trkpt lat="43.81186" lon="4.17718">
        <ele>161</ele>
        <time>2012-03-11T09:19:45Z</time>
      </trkpt>
      <trkpt lat="43.81187" lon="4.17717">
        <ele>161</ele>
        <time>2012-03-11T09:19:46Z</time>
      </trkpt>
      <trkpt lat="43.81189" lon="4.17715">
        <ele>161</ele>
        <time>2012-03-11T09:19:47Z</time>
      </trkpt>
      <trkpt lat="43.8119" lon="4.17714">
        <ele>161</ele>
        <time>2012-03-11T09:19:48Z</time>
      </trkpt>
      <trkpt lat="43.81192" lon="4.17713">
        <ele>161</ele>
        <time>2012-03-11T09:19:49Z</time>
      </trkpt>
      <trkpt lat="43.81193" lon="4.17711">
        <ele>161</ele>
        <time>2012-03-11T09:19:50Z</time>
      </trkpt>
      <trkpt lat="43.81195" lon="4.17709">
        <ele>161</ele>
        <time>2012-03-11T09:19:51Z</time>
      </trkpt>
      <trkpt lat="43.81197" lon="4.17707">
        <ele>161</ele>
        <time>2012-03-11T09:19:52Z</time>
      </trkpt>
      <trkpt lat="43.81198" lon="4.17707">
        <ele>161</ele>
        <time>2012-03-11T09:19:53Z</time>
      </trkpt>
      <trkpt lat="43.81199" lon="4.17705">
        <ele>161</ele>
        <time>2012-03-11T09:19:54Z</time>
      </trkpt>
      <trkpt lat="43.812" lon="4.17704">
        <ele>161</ele>
        <time>2012-03-11T09:19:55Z</time>
      </trkpt>
      <trkpt lat="43.812" lon="4.17702">
        <ele>161</ele>
        <time>2012-03-11T09:19:56Z</time>
      </trkpt>
      <trkpt lat="43.81201" lon="4.177">
        <ele>161</ele>
        <time>2012-03-11T09:19:57Z</time>
      </trkpt>
      <trkpt lat="43.81201" lon="4.17699">
        <ele>161</ele>
        <time>2012-03-11T09:19:58Z</time>
      </trkpt>
      <trkpt lat="43.812" lon="4.17697">
        <ele>161</ele>
        <time>2012-03-11T09:19:59Z</time>
      </trkpt>
      <trkpt lat="43.81199" lon="4.17695">
        <ele>161</ele>
        <time>2012-03-11T09:20:00Z</time>
      </trkpt>
      <trkpt lat="43.81198" lon="4.17693">
        <ele>162</ele>
        <time>2012-03-11T09:20:01Z</time>
      </trkpt>
      <trkpt lat="43.81197" lon="4.17693">
        <ele>162</ele>
        <time>2012-03-11T09:20:02Z</time>
      </trkpt>
      <trkpt lat="43.81195" lon="4.17692">
        <ele>163</ele>
        <time>2012-03-11T09:20:03Z</time>
      </trkpt>
      <trkpt lat="43.81194" lon="4.17692">
        <ele>163</ele>
        <time>2012-03-11T09:20:04Z</time>
      </trkpt>
      <trkpt lat="43.81193" lon="4.17693">
        <ele>163</ele>
        <time>2012-03-11T09:20:05Z</time>
      </trkpt>
      <trkpt lat="43.81192" lon="4.17694">
        <ele>163</ele>
        <time>2012-03-11T09:20:06Z</time>
      </trkpt>
      <trkpt lat="43.8119" lon="4.17695">
        <ele>163</ele>
        <time>2012-03-11T09:20:07Z</time>
      </trkpt>
      <trkpt lat="43.81189" lon="4.17696">
        <ele>163</ele>
        <time>2012-03-11T09:20:08Z</time>
      </trkpt>
      <trkpt lat="43.81187" lon="4.17697">
        <ele>164</ele>
        <time>2012-03-11T09:20:09Z</time>
      </trkpt>
      <trkpt lat="43.81186" lon="4.17698">
        <ele>164</ele>
        <time>2012-03-11T09:20:10Z</time>
      </trkpt>
      <trkpt lat="43.81184" lon="4.177">
        <ele>165</ele>
        <time>2012-03-11T09:20:11Z</time>
      </trkpt>
      <trkpt lat="43.81183" lon="4.177">
        <ele>165</ele>
        <time>2012-03-11T09:20:12Z</time>
      </trkpt>
      <trkpt lat="43.81181" lon="4.17701">
        <ele>165</ele>
        <time>2012-03-11T09:20:13Z</time>
      </trkpt>
      <trkpt lat="43.8118" lon="4.17701">
        <ele>166</ele>
        <time>2012-03-11T09:20:14Z</time>
      </trkpt>
      <trkpt lat="43.81178" lon="4.17702">
        <ele>166</ele>
        <time>2012-03-11T09:20:15Z</time>
      </trkpt>
      <trkpt lat="43.81177" lon="4.17703">
        <ele>167</ele>
        <time>2012-03-11T09:20:16Z</time>
      </trkpt>
      <trkpt lat="43.81176" lon="4.17704">
        <ele>167</ele>
        <time>2012-03-11T09:20:17Z</time>
      </trkpt>
      <trkpt lat="43.81174" lon="4.17705">
        <ele>168</ele>
        <time>2012-03-11T09:20:18Z</time>
      </trkpt>
      <trkpt lat="43.81172" lon="4.17705">
        <ele>168</ele>
        <time>2012-03-11T09:20:19Z</time>
      </trkpt>
      <trkpt lat="43.81171" lon="4.17706">
        <ele>168</ele>
        <time>2012-03-11T09:20:20Z</time>
      </trkpt>
      <trkpt lat="43.8117" lon="4.17707">
        <ele>169</ele>
        <time>2012-03-11T09:20:21Z</time>
      </trkpt>
      <trkpt lat="43.81168" lon="4.17707">
        <ele>169</ele>
        <time>2012-03-11T09:20:22Z</time>
      </trkpt>
      <trkpt lat="43.81166" lon="4.17708">
        <ele>170</ele>
        <time>2012-03-11T09:20:24Z</time>
      </trkpt>
      <trkpt lat="43.81165" lon="4.17708">
        <ele>171</ele>
        <time>2012-03-11T09:20:25Z</time>
      </trkpt>
      <trkpt lat="43.81163" lon="4.17708">
        <ele>171</ele>
        <time>2012-03-11T09:20:26Z</time>
      </trkpt>
      <trkpt lat="43.81162" lon="4.17708">
        <ele>172</ele>
        <time>2012-03-11T09:20:27Z</time>
      </trkpt>
      <trkpt lat="43.8116" lon="4.17709">
        <ele>172</ele>
        <time>2012-03-11T09:20:29Z</time>
      </trkpt>
      <trkpt lat="43.81159" lon="4.17709">
        <ele>172</ele>
        <time>2012-03-11T09:20:30Z</time>
      </trkpt>
      <trkpt lat="43.81157" lon="4.17709">
        <ele>172</ele>
        <time>2012-03-11T09:20:31Z</time>
      </trkpt>
      <trkpt lat="43.81155" lon="4.17708">
        <ele>172</ele>
        <time>2012-03-11T09:20:32Z</time>
      </trkpt>
      <trkpt lat="43.81154" lon="4.17708">
        <ele>173</ele>
        <time>2012-03-11T09:20:33Z</time>
      </trkpt>
      <trkpt lat="43.81152" lon="4.17708">
        <ele>173</ele>
        <time>2012-03-11T09:20:34Z</time>
      </trkpt>
      <trkpt lat="43.81151" lon="4.17708">
        <ele>173</ele>
        <time>2012-03-11T09:20:35Z</time>
      </trkpt>
      <trkpt lat="43.81149" lon="4.17707">
        <ele>174</ele>
        <time>2012-03-11T09:20:36Z</time>
      </trkpt>
      <trkpt lat="43.81148" lon="4.17706">
        <ele>174</ele>
        <time>2012-03-11T09:20:37Z</time>
      </trkpt>
      <trkpt lat="43.81147" lon="4.17706">
        <ele>175</ele>
        <time>2012-03-11T09:20:38Z</time>
      </trkpt>
      <trkpt lat="43.81145" lon="4.17705">
        <ele>175</ele>
        <time>2012-03-11T09:20:39Z</time>
      </trkpt>
      <trkpt lat="43.81144" lon="4.17705">
        <ele>175</ele>
        <time>2012-03-11T09:20:40Z</time>
      </trkpt>
      <trkpt lat="43.81142" lon="4.17705">
        <ele>176</ele>
        <time>2012-03-11T09:20:41Z</time>
      </trkpt>
      <trkpt lat="43.8114" lon="4.17704">
        <ele>176</ele>
        <time>2012-03-11T09:20:42Z</time>
      </trkpt>
      <trkpt lat="43.81139" lon="4.17704">
        <ele>176</ele>
        <time>2012-03-11T09:20:43Z</time>
      </trkpt>
      <trkpt lat="43.81137" lon="4.17703">
        <ele>176</ele>
        <time>2012-03-11T09:20:44Z</time>
      </trkpt>
      <trkpt lat="43.81136" lon="4.17703">
        <ele>176</ele>
        <time>2012-03-11T09:20:45Z</time>
      </trkpt>
      <trkpt lat="43.81134" lon="4.17703">
        <ele>177</ele>
        <time>2012-03-11T09:20:46Z</time>
      </trkpt>
      <trkpt lat="43.81133" lon="4.17703">
        <ele>177</ele>
        <time>2012-03-11T09:20:47Z</time>
      </trkpt>
      <trkpt lat="43.81131" lon="4.17704">
        <ele>177</ele>
        <time>2012-03-11T09:20:48Z</time>
      </trkpt>
      <trkpt lat="43.81129" lon="4.17705">
        <ele>178</ele>
        <time>2012-03-11T09:20:49Z</time>
      </trkpt>
      <trkpt lat="43.81128" lon="4.17706">
        <ele>178</ele>
        <time>2012-03-11T09:20:50Z</time>
      </trkpt>
      <trkpt lat="43.81127" lon="4.17707">
        <ele>178</ele>
        <time>2012-03-11T09:20:51Z</time>
      </trkpt>
      <trkpt lat="43.81126" lon="4.17709">
        <ele>178</ele>
        <time>2012-03-11T09:20:52Z</time>
      </trkpt>
      <trkpt lat="43.81124" lon="4.17711">
        <ele>179</ele>
        <time>2012-03-11T09:20:53Z</time>
      </trkpt>
      <trkpt lat="43.81123" lon="4.17713">
        <ele>179</ele>
        <time>2012-03-11T09:20:54Z</time>
      </trkpt>
      <trkpt lat="43.81123" lon="4.17715">
        <ele>179</ele>
        <time>2012-03-11T09:20:55Z</time>
      </trkpt>
      <trkpt lat="43.81122" lon="4.17717">
        <ele>180</ele>
        <time>2012-03-11T09:20:56Z</time>
      </trkpt>
      <trkpt lat="43.81121" lon="4.17719">
        <ele>181</ele>
        <time>2012-03-11T09:20:57Z</time>
      </trkpt>
      <trkpt lat="43.8112" lon="4.17722">
        <ele>181</ele>
        <time>2012-03-11T09:20:58Z</time>
      </trkpt>
      <trkpt lat="43.81119" lon="4.17724">
        <ele>182</ele>
        <time>2012-03-11T09:20:59Z</time>
      </trkpt>
      <trkpt lat="43.81118" lon="4.17727">
        <ele>183</ele>
        <time>2012-03-11T09:21:01Z</time>
      </trkpt>
      <trkpt lat="43.81117" lon="4.17729">
        <ele>184</ele>
        <time>2012-03-11T09:21:02Z</time>
      </trkpt>
      <trkpt lat="43.81116" lon="4.1773">
        <ele>184</ele>
        <time>2012-03-11T09:21:03Z</time>
      </trkpt>
      <trkpt lat="43.81115" lon="4.17732">
        <ele>184</ele>
        <time>2012-03-11T09:21:04Z</time>
      </trkpt>
      <trkpt lat="43.81114" lon="4.17733">
        <ele>185</ele>
        <time>2012-03-11T09:21:05Z</time>
      </trkpt>
      <trkpt lat="43.81112" lon="4.17736">
        <ele>185</ele>
        <time>2012-03-11T09:21:07Z</time>
      </trkpt>
      <trkpt lat="43.81111" lon="4.17737">
        <ele>185</ele>
        <time>2012-03-11T09:21:08Z</time>
      </trkpt>
      <trkpt lat="43.81109" lon="4.1774">
        <ele>186</ele>
        <time>2012-03-11T09:21:10Z</time>
      </trkpt>
      <trkpt lat="43.81108" lon="4.17742">
        <ele>186</ele>
        <time>2012-03-11T09:21:11Z</time>
      </trkpt>
      <trkpt lat="43.81107" lon="4.17744">
        <ele>186</ele>
        <time>2012-03-11T09:21:12Z</time>
      </trkpt>
      <trkpt lat="43.81106" lon="4.17746">
        <ele>186</ele>
        <time>2012-03-11T09:21:13Z</time>
      </trkpt>
      <trkpt lat="43.81105" lon="4.17748">
        <ele>186</ele>
        <time>2012-03-11T09:21:14Z</time>
      </trkpt>
      <trkpt lat="43.81105" lon="4.1775">
        <ele>186</ele>
        <time>2012-03-11T09:21:15Z</time>
      </trkpt>
      <trkpt lat="43.81104" lon="4.17752">
        <ele>186</ele>
        <time>2012-03-11T09:21:16Z</time>
      </trkpt>
      <trkpt lat="43.81102" lon="4.17754">
        <ele>186</ele>
        <time>2012-03-11T09:21:17Z</time>
      </trkpt>
      <trkpt lat="43.81101" lon="4.17756">
        <ele>186</ele>
        <time>2012-03-11T09:21:18Z</time>
      </trkpt>
      <trkpt lat="43.811" lon="4.17759">
        <ele>186</ele>
        <time>2012-03-11T09:21:19Z</time>
      </trkpt>
      <trkpt lat="43.81099" lon="4.17761">
        <ele>186</ele>
        <time>2012-03-11T09:21:20Z</time>
      </trkpt>
      <trkpt lat="43.81099" lon="4.17764">
        <ele>186</ele>
        <time>2012-03-11T09:21:21Z</time>
      </trkpt>
      <trkpt lat="43.81098" lon="4.17767">
        <ele>186</ele>
        <time>2012-03-11T09:21:22Z</time>
      </trkpt>
      <trkpt lat="43.81097" lon="4.17769">
        <ele>186</ele>
        <time>2012-03-11T09:21:23Z</time>
      </trkpt>
      <trkpt lat="43.81097" lon="4.17771">
        <ele>186</ele>
        <time>2012-03-11T09:21:24Z</time>
      </trkpt>
      <trkpt lat="43.81096" lon="4.17773">
        <ele>187</ele>
        <time>2012-03-11T09:21:25Z</time>
      </trkpt>
      <trkpt lat="43.81095" lon="4.17775">
        <ele>187</ele>
        <time>2012-03-11T09:21:26Z</time>
      </trkpt>
      <trkpt lat="43.81095" lon="4.17777">
        <ele>188</ele>
        <time>2012-03-11T09:21:27Z</time>
      </trkpt>
      <trkpt lat="43.81094" lon="4.1778">
        <ele>188</ele>
        <time>2012-03-11T09:21:28Z</time>
      </trkpt>
      <trkpt lat="43.81093" lon="4.17785">
        <ele>188</ele>
        <time>2012-03-11T09:21:29Z</time>
      </trkpt>
      <trkpt lat="43.81093" lon="4.17788">
        <ele>188</ele>
        <time>2012-03-11T09:21:30Z</time>
      </trkpt>
      <trkpt lat="43.81092" lon="4.17791">
        <ele>188</ele>
        <time>2012-03-11T09:21:31Z</time>
      </trkpt>
      <trkpt lat="43.81092" lon="4.17794">
        <ele>188</ele>
        <time>2012-03-11T09:21:32Z</time>
      </trkpt>
      <trkpt lat="43.81091" lon="4.17798">
        <ele>188</ele>
        <time>2012-03-11T09:21:33Z</time>
      </trkpt>
      <trkpt lat="43.81091" lon="4.17801">
        <ele>188</ele>
        <time>2012-03-11T09:21:34Z</time>
      </trkpt>
      <trkpt lat="43.81091" lon="4.17804">
        <ele>188</ele>
        <time>2012-03-11T09:21:35Z</time>
      </trkpt>
      <trkpt lat="43.81091" lon="4.17807">
        <ele>188</ele>
        <time>2012-03-11T09:21:36Z</time>
      </trkpt>
      <trkpt lat="43.81091" lon="4.17811">
        <ele>188</ele>
        <time>2012-03-11T09:21:37Z</time>
      </trkpt>
      <trkpt lat="43.81091" lon="4.17813">
        <ele>188</ele>
        <time>2012-03-11T09:21:38Z</time>
      </trkpt>
      <trkpt lat="43.8109" lon="4.17816">
        <ele>188</ele>
        <time>2012-03-11T09:21:39Z</time>
      </trkpt>
      <trkpt lat="43.81089" lon="4.1782">
        <ele>188</ele>
        <time>2012-03-11T09:21:40Z</time>
      </trkpt>
      <trkpt lat="43.81089" lon="4.17823">
        <ele>188</ele>
        <time>2012-03-11T09:21:41Z</time>
      </trkpt>
      <trkpt lat="43.81089" lon="4.17826">
        <ele>188</ele>
        <time>2012-03-11T09:21:42Z</time>
      </trkpt>
      <trkpt lat="43.81088" lon="4.17829">
        <ele>188</ele>
        <time>2012-03-11T09:21:43Z</time>
      </trkpt>
      <trkpt lat="43.81088" lon="4.17831">
        <ele>188</ele>
        <time>2012-03-11T09:21:44Z</time>
      </trkpt>
      <trkpt lat="43.81087" lon="4.17834">
        <ele>188</ele>
        <time>2012-03-11T09:21:45Z</time>
      </trkpt>
      <trkpt lat="43.81087" lon="4.17837">
        <ele>188</ele>
        <time>2012-03-11T09:21:46Z</time>
      </trkpt>
      <trkpt lat="43.81086" lon="4.17842">
        <ele>188</ele>
        <time>2012-03-11T09:21:47Z</time>
      </trkpt>
      <trkpt lat="43.81085" lon="4.17846">
        <ele>188</ele>
        <time>2012-03-11T09:21:48Z</time>
      </trkpt>
      <trkpt lat="43.81084" lon="4.17849">
        <ele>188</ele>
        <time>2012-03-11T09:21:49Z</time>
      </trkpt>
      <trkpt lat="43.81084" lon="4.17852">
        <ele>188</ele>
        <time>2012-03-11T09:21:50Z</time>
      </trkpt>
      <trkpt lat="43.81083" lon="4.17855">
        <ele>188</ele>
        <time>2012-03-11T09:21:51Z</time>
      </trkpt>
      <trkpt lat="43.81084" lon="4.17858">
        <ele>187</ele>
        <time>2012-03-11T09:21:52Z</time>
      </trkpt>
      <trkpt lat="43.81083" lon="4.17861">
        <ele>186</ele>
        <time>2012-03-11T09:21:53Z</time>
      </trkpt>
      <trkpt lat="43.81083" lon="4.17863">
        <ele>186</ele>
        <time>2012-03-11T09:21:54Z</time>
      </trkpt>
      <trkpt lat="43.81082" lon="4.17865">
        <ele>185</ele>
        <time>2012-03-11T09:21:55Z</time>
      </trkpt>
      <trkpt lat="43.81081" lon="4.17868">
        <ele>185</ele>
        <time>2012-03-11T09:21:56Z</time>
      </trkpt>
      <trkpt lat="43.81081" lon="4.1787">
        <ele>184</ele>
        <time>2012-03-11T09:21:57Z</time>
      </trkpt>
      <trkpt lat="43.81081" lon="4.17873">
        <ele>184</ele>
        <time>2012-03-11T09:21:58Z</time>
      </trkpt>
      <trkpt lat="43.81081" lon="4.17876">
        <ele>183</ele>
        <time>2012-03-11T09:21:59Z</time>
      </trkpt>
      <trkpt lat="43.8108" lon="4.17879">
        <ele>183</ele>
        <time>2012-03-11T09:22:00Z</time>
      </trkpt>
      <trkpt lat="43.81079" lon="4.17881">
        <ele>182</ele>
        <time>2012-03-11T09:22:01Z</time>
      </trkpt>
      <trkpt lat="43.81078" lon="4.17884">
        <ele>181</ele>
        <time>2012-03-11T09:22:02Z</time>
      </trkpt>
      <trkpt lat="43.81078" lon="4.17887">
        <ele>180</ele>
        <time>2012-03-11T09:22:03Z</time>
      </trkpt>
      <trkpt lat="43.81077" lon="4.1789">
        <ele>180</ele>
        <time>2012-03-11T09:22:04Z</time>
      </trkpt>
      <trkpt lat="43.81077" lon="4.17894">
        <ele>179</ele>
        <time>2012-03-11T09:22:05Z</time>
      </trkpt>
      <trkpt lat="43.81076" lon="4.17896">
        <ele>179</ele>
        <time>2012-03-11T09:22:06Z</time>
      </trkpt>
      <trkpt lat="43.81075" lon="4.17898">
        <ele>179</ele>
        <time>2012-03-11T09:22:07Z</time>
      </trkpt>
      <trkpt lat="43.81074" lon="4.17901">
        <ele>179</ele>
        <time>2012-03-11T09:22:08Z</time>
      </trkpt>
      <trkpt lat="43.81073" lon="4.17904">
        <ele>179</ele>
        <time>2012-03-11T09:22:09Z</time>
      </trkpt>
      <trkpt lat="43.81073" lon="4.17907">
        <ele>179</ele>
        <time>2012-03-11T09:22:10Z</time>
      </trkpt>
      <trkpt lat="43.81073" lon="4.17909">
        <ele>179</ele>
        <time>2012-03-11T09:22:11Z</time>
      </trkpt>
      <trkpt lat="43.81073" lon="4.17912">
        <ele>179</ele>
        <time>2012-03-11T09:22:12Z</time>
      </trkpt>
      <trkpt lat="43.81073" lon="4.17914">
        <ele>179</ele>
        <time>2012-03-11T09:22:13Z</time>
      </trkpt>
      <trkpt lat="43.81073" lon="4.17916">
        <ele>179</ele>
        <time>2012-03-11T09:22:14Z</time>
      </trkpt>
      <trkpt lat="43.81073" lon="4.17919">
        <ele>179</ele>
        <time>2012-03-11T09:22:15Z</time>
      </trkpt>
      <trkpt lat="43.81074" lon="4.17922">
        <ele>179</ele>
        <time>2012-03-11T09:22:16Z</time>
      </trkpt>
      <trkpt lat="43.81074" lon="4.17924">
        <ele>179</ele>
        <time>2012-03-11T09:22:17Z</time>
      </trkpt>
      <trkpt lat="43.81074" lon="4.17927">
        <ele>179</ele>
        <time>2012-03-11T09:22:18Z</time>
      </trkpt>
      <trkpt lat="43.81074" lon="4.1793">
        <ele>179</ele>
        <time>2012-03-11T09:22:19Z</time>
      </trkpt>
      <trkpt lat="43.81074" lon="4.17933">
        <ele>179</ele>
        <time>2012-03-11T09:22:20Z</time>
      </trkpt>
      <trkpt lat="43.81073" lon="4.17936">
        <ele>179</ele>
        <time>2012-03-11T09:22:21Z</time>
      </trkpt>
      <trkpt lat="43.81073" lon="4.17939">
        <ele>179</ele>
        <time>2012-03-11T09:22:22Z</time>
      </trkpt>
      <trkpt lat="43.81073" lon="4.17941">
        <ele>179</ele>
        <time>2012-03-11T09:22:23Z</time>
      </trkpt>
      <trkpt lat="43.81073" lon="4.17944">
        <ele>179</ele>
        <time>2012-03-11T09:22:24Z</time>
      </trkpt>
      <trkpt lat="43.81073" lon="4.17947">
        <ele>179</ele>
        <time>2012-03-11T09:22:25Z</time>
      </trkpt>
      <trkpt lat="43.81073" lon="4.17949">
        <ele>179</ele>
        <time>2012-03-11T09:22:26Z</time>
      </trkpt>
      <trkpt lat="43.81073" lon="4.17952">
        <ele>179</ele>
        <time>2012-03-11T09:22:27Z</time>
      </trkpt>
      <trkpt lat="43.81073" lon="4.17955">
        <ele>179</ele>
        <time>2012-03-11T09:22:28Z</time>
      </trkpt>
      <trkpt lat="43.81073" lon="4.17958">
        <ele>179</ele>
        <time>2012-03-11T09:22:29Z</time>
      </trkpt>
      <trkpt lat="43.81072" lon="4.17961">
        <ele>179</ele>
        <time>2012-03-11T09:22:30Z</time>
      </trkpt>
      <trkpt lat="43.81072" lon="4.17963">
        <ele>179</ele>
        <time>2012-03-11T09:22:31Z</time>
      </trkpt>
      <trkpt lat="43.81072" lon="4.17965">
        <ele>179</ele>
        <time>2012-03-11T09:22:32Z</time>
      </trkpt>
      <trkpt lat="43.81072" lon="4.17968">
        <ele>179</ele>
        <time>2012-03-11T09:22:33Z</time>
      </trkpt>
      <trkpt lat="43.81071" lon="4.1797">
        <ele>179</ele>
        <time>2012-03-11T09:22:34Z</time>
      </trkpt>
      <trkpt lat="43.81072" lon="4.17973">
        <ele>179</ele>
        <time>2012-03-11T09:22:35Z</time>
      </trkpt>
      <trkpt lat="43.81071" lon="4.17975">
        <ele>179</ele>
        <time>2012-03-11T09:22:36Z</time>
      </trkpt>
      <trkpt lat="43.81071" lon="4.17977">
        <ele>179</ele>
        <time>2012-03-11T09:22:37Z</time>
      </trkpt>
      <trkpt lat="43.8107" lon="4.17979">
        <ele>179</ele>
        <time>2012-03-11T09:22:38Z</time>
      </trkpt>
      <trkpt lat="43.8107" lon="4.17981">
        <ele>179</ele>
        <time>2012-03-11T09:22:39Z</time>
      </trkpt>
      <trkpt lat="43.81069" lon="4.17983">
        <ele>179</ele>
        <time>2012-03-11T09:22:40Z</time>
      </trkpt>
      <trkpt lat="43.81068" lon="4.17985">
        <ele>179</ele>
        <time>2012-03-11T09:22:41Z</time>
      </trkpt>
      <trkpt lat="43.81068" lon="4.17987">
        <ele>179</ele>
        <time>2012-03-11T09:22:42Z</time>
      </trkpt>
      <trkpt lat="43.81068" lon="4.17989">
        <ele>179</ele>
        <time>2012-03-11T09:22:43Z</time>
      </trkpt>
      <trkpt lat="43.81068" lon="4.17992">
        <ele>179</ele>
        <time>2012-03-11T09:22:44Z</time>
      </trkpt>
      <trkpt lat="43.81068" lon="4.17995">
        <ele>179</ele>
        <time>2012-03-11T09:22:45Z</time>
      </trkpt>
      <trkpt lat="43.81068" lon="4.17998">
        <ele>179</ele>
        <time>2012-03-11T09:22:46Z</time>
      </trkpt>
      <trkpt lat="43.81068" lon="4.18001">
        <ele>179</ele>
        <time>2012-03-11T09:22:47Z</time>
      </trkpt>
      <trkpt lat="43.81068" lon="4.18003">
        <ele>179</ele>
        <time>2012-03-11T09:22:48Z</time>
      </trkpt>
      <trkpt lat="43.81067" lon="4.18006">
        <ele>179</ele>
        <time>2012-03-11T09:22:49Z</time>
      </trkpt>
      <trkpt lat="43.81066" lon="4.18007">
        <ele>179</ele>
        <time>2012-03-11T09:22:50Z</time>
      </trkpt>
      <trkpt lat="43.81066" lon="4.1801">
        <ele>179</ele>
        <time>2012-03-11T09:22:51Z</time>
      </trkpt>
      <trkpt lat="43.81066" lon="4.18013">
        <ele>179</ele>
        <time>2012-03-11T09:22:52Z</time>
      </trkpt>
      <trkpt lat="43.81066" lon="4.18016">
        <ele>179</ele>
        <time>2012-03-11T09:22:53Z</time>
      </trkpt>
      <trkpt lat="43.81066" lon="4.18019">
        <ele>179</ele>
        <time>2012-03-11T09:22:54Z</time>
      </trkpt>
      <trkpt lat="43.81065" lon="4.18022">
        <ele>179</ele>
        <time>2012-03-11T09:22:55Z</time>
      </trkpt>
      <trkpt lat="43.81065" lon="4.18025">
        <ele>179</ele>
        <time>2012-03-11T09:22:56Z</time>
      </trkpt>
      <trkpt lat="43.81065" lon="4.18028">
        <ele>179</ele>
        <time>2012-03-11T09:22:57Z</time>
      </trkpt>
      <trkpt lat="43.81064" lon="4.18031">
        <ele>179</ele>
        <time>2012-03-11T09:22:58Z</time>
      </trkpt>
      <trkpt lat="43.81063" lon="4.18033">
        <ele>179</ele>
        <time>2012-03-11T09:22:59Z</time>
      </trkpt>
      <trkpt lat="43.81062" lon="4.18035">
        <ele>179</ele>
        <time>2012-03-11T09:23:00Z</time>
      </trkpt>
      <trkpt lat="43.81062" lon="4.18038">
        <ele>179</ele>
        <time>2012-03-11T09:23:01Z</time>
      </trkpt>
      <trkpt lat="43.81061" lon="4.1804">
        <ele>179</ele>
        <time>2012-03-11T09:23:02Z</time>
      </trkpt>
      <trkpt lat="43.81061" lon="4.18042">
        <ele>179</ele>
        <time>2012-03-11T09:23:03Z</time>
      </trkpt>
      <trkpt lat="43.8106" lon="4.18044">
        <ele>179</ele>
        <time>2012-03-11T09:23:04Z</time>
      </trkpt>
      <trkpt lat="43.81059" lon="4.18046">
        <ele>179</ele>
        <time>2012-03-11T09:23:05Z</time>
      </trkpt>
      <trkpt lat="43.81058" lon="4.18048">
        <ele>179</ele>
        <time>2012-03-11T09:23:06Z</time>
      </trkpt>
      <trkpt lat="43.81058" lon="4.1805">
        <ele>179</ele>
        <time>2012-03-11T09:23:07Z</time>
      </trkpt>
      <trkpt lat="43.81057" lon="4.18052">
        <ele>180</ele>
        <time>2012-03-11T09:23:08Z</time>
      </trkpt>
      <trkpt lat="43.81056" lon="4.18054">
        <ele>181</ele>
        <time>2012-03-11T09:23:09Z</time>
      </trkpt>
      <trkpt lat="43.81055" lon="4.18056">
        <ele>182</ele>
        <time>2012-03-11T09:23:10Z</time>
      </trkpt>
      <trkpt lat="43.81055" lon="4.18058">
        <ele>182</ele>
        <time>2012-03-11T09:23:11Z</time>
      </trkpt>
      <trkpt lat="43.81054" lon="4.18061">
        <ele>183</ele>
        <time>2012-03-11T09:23:12Z</time>
      </trkpt>
      <trkpt lat="43.81053" lon="4.18062">
        <ele>183</ele>
        <time>2012-03-11T09:23:13Z</time>
      </trkpt>
      <trkpt lat="43.81052" lon="4.18064">
        <ele>184</ele>
        <time>2012-03-11T09:23:14Z</time>
      </trkpt>
      <trkpt lat="43.8105" lon="4.18065">
        <ele>185</ele>
        <time>2012-03-11T09:23:15Z</time>
      </trkpt>
      <trkpt lat="43.8105" lon="4.18068">
        <ele>186</ele>
        <time>2012-03-11T09:23:16Z</time>
      </trkpt>
      <trkpt lat="43.8105" lon="4.1807">
        <ele>187</ele>
        <time>2012-03-11T09:23:17Z</time>
      </trkpt>
      <trkpt lat="43.81049" lon="4.18072">
        <ele>188</ele>
        <time>2012-03-11T09:23:18Z</time>
      </trkpt>
      <trkpt lat="43.81049" lon="4.18074">
        <ele>188</ele>
        <time>2012-03-11T09:23:19Z</time>
      </trkpt>
      <trkpt lat="43.81049" lon="4.18077">
        <ele>188</ele>
        <time>2012-03-11T09:23:20Z</time>
      </trkpt>
      <trkpt lat="43.81048" lon="4.1808">
        <ele>189</ele>
        <time>2012-03-11T09:23:21Z</time>
      </trkpt>
      <trkpt lat="43.81048" lon="4.18083">
        <ele>189</ele>
        <time>2012-03-11T09:23:22Z</time>
      </trkpt>
      <trkpt lat="43.81047" lon="4.18085">
        <ele>189</ele>
        <time>2012-03-11T09:23:23Z</time>
      </trkpt>
      <trkpt lat="43.81047" lon="4.18088">
        <ele>189</ele>
        <time>2012-03-11T09:23:24Z</time>
      </trkpt>
      <trkpt lat="43.81047" lon="4.1809">
        <ele>189</ele>
        <time>2012-03-11T09:23:25Z</time>
      </trkpt>
      <trkpt lat="43.81047" lon="4.18093">
        <ele>189</ele>
        <time>2012-03-11T09:23:26Z</time>
      </trkpt>
      <trkpt lat="43.81046" lon="4.18096">
        <ele>190</ele>
        <time>2012-03-11T09:23:27Z</time>
      </trkpt>
      <trkpt lat="43.81046" lon="4.18098">
        <ele>190</ele>
        <time>2012-03-11T09:23:28Z</time>
      </trkpt>
      <trkpt lat="43.81045" lon="4.18101">
        <ele>190</ele>
        <time>2012-03-11T09:23:29Z</time>
      </trkpt>
      <trkpt lat="43.81045" lon="4.18104">
        <ele>190</ele>
        <time>2012-03-11T09:23:30Z</time>
      </trkpt>
      <trkpt lat="43.81044" lon="4.18106">
        <ele>190</ele>
        <time>2012-03-11T09:23:31Z</time>
      </trkpt>
      <trkpt lat="43.81044" lon="4.18109">
        <ele>190</ele>
        <time>2012-03-11T09:23:32Z</time>
      </trkpt>
      <trkpt lat="43.81044" lon="4.18112">
        <ele>190</ele>
        <time>2012-03-11T09:23:33Z</time>
      </trkpt>
      <trkpt lat="43.81043" lon="4.18115">
        <ele>191</ele>
        <time>2012-03-11T09:23:34Z</time>
      </trkpt>
      <trkpt lat="43.81043" lon="4.18118">
        <ele>191</ele>
        <time>2012-03-11T09:23:35Z</time>
      </trkpt>
      <trkpt lat="43.81042" lon="4.18121">
        <ele>191</ele>
        <time>2012-03-11T09:23:36Z</time>
      </trkpt>
      <trkpt lat="43.81043" lon="4.18124">
        <ele>191</ele>
        <time>2012-03-11T09:23:37Z</time>
      </trkpt>
      <trkpt lat="43.81042" lon="4.18127">
        <ele>191</ele>
        <time>2012-03-11T09:23:38Z</time>
      </trkpt>
      <trkpt lat="43.81042" lon="4.1813">
        <ele>191</ele>
        <time>2012-03-11T09:23:39Z</time>
      </trkpt>
      <trkpt lat="43.81041" lon="4.18133">
        <ele>191</ele>
        <time>2012-03-11T09:23:40Z</time>
      </trkpt>
      <trkpt lat="43.81041" lon="4.18136">
        <ele>191</ele>
        <time>2012-03-11T09:23:41Z</time>
      </trkpt>
      <trkpt lat="43.8104" lon="4.18139">
        <ele>191</ele>
        <time>2012-03-11T09:23:42Z</time>
      </trkpt>
      <trkpt lat="43.81039" lon="4.18142">
        <ele>192</ele>
        <time>2012-03-11T09:23:43Z</time>
      </trkpt>
      <trkpt lat="43.81039" lon="4.18145">
        <ele>192</ele>
        <time>2012-03-11T09:23:44Z</time>
      </trkpt>
      <trkpt lat="43.81038" lon="4.18148">
        <ele>192</ele>
        <time>2012-03-11T09:23:45Z</time>
      </trkpt>
      <trkpt lat="43.81037" lon="4.18152">
        <ele>192</ele>
        <time>2012-03-11T09:23:46Z</time>
      </trkpt>
      <trkpt lat="43.81036" lon="4.18155">
        <ele>192</ele>
        <time>2012-03-11T09:23:47Z</time>
      </trkpt>
      <trkpt lat="43.81036" lon="4.18158">
        <ele>192</ele>
        <time>2012-03-11T09:23:48Z</time>
      </trkpt>
      <trkpt lat="43.81035" lon="4.18161">
        <ele>192</ele>
        <time>2012-03-11T09:23:49Z</time>
      </trkpt>
      <trkpt lat="43.81034" lon="4.18164">
        <ele>192</ele>
        <time>2012-03-11T09:23:50Z</time>
      </trkpt>
      <trkpt lat="43.81033" lon="4.18167">
        <ele>192</ele>
        <time>2012-03-11T09:23:51Z</time>
      </trkpt>
      <trkpt lat="43.81032" lon="4.1817">
        <ele>192</ele>
        <time>2012-03-11T09:23:52Z</time>
      </trkpt>
      <trkpt lat="43.81032" lon="4.18173">
        <ele>192</ele>
        <time>2012-03-11T09:23:53Z</time>
      </trkpt>
      <trkpt lat="43.81032" lon="4.18176">
        <ele>192</ele>
        <time>2012-03-11T09:23:54Z</time>
      </trkpt>
      <trkpt lat="43.81031" lon="4.18179">
        <ele>192</ele>
        <time>2012-03-11T09:23:55Z</time>
      </trkpt>
      <trkpt lat="43.8103" lon="4.18181">
        <ele>192</ele>
        <time>2012-03-11T09:23:56Z</time>
      </trkpt>
      <trkpt lat="43.81028" lon="4.18184">
        <ele>192</ele>
        <time>2012-03-11T09:23:57Z</time>
      </trkpt>
      <trkpt lat="43.81028" lon="4.18186">
        <ele>192</ele>
        <time>2012-03-11T09:23:58Z</time>
      </trkpt>
      <trkpt lat="43.81027" lon="4.18188">
        <ele>192</ele>
        <time>2012-03-11T09:23:59Z</time>
      </trkpt>
      <trkpt lat="43.81025" lon="4.18189">
        <ele>192</ele>
        <time>2012-03-11T09:24:00Z</time>
      </trkpt>
      <trkpt lat="43.81023" lon="4.1819">
        <ele>192</ele>
        <time>2012-03-11T09:24:01Z</time>
      </trkpt>
      <trkpt lat="43.81021" lon="4.18191">
        <ele>193</ele>
        <time>2012-03-11T09:24:02Z</time>
      </trkpt>
      <trkpt lat="43.81019" lon="4.18192">
        <ele>193</ele>
        <time>2012-03-11T09:24:03Z</time>
      </trkpt>
      <trkpt lat="43.81017" lon="4.18192">
        <ele>194</ele>
        <time>2012-03-11T09:24:04Z</time>
      </trkpt>
      <trkpt lat="43.81015" lon="4.18192">
        <ele>195</ele>
        <time>2012-03-11T09:24:05Z</time>
      </trkpt>
      <trkpt lat="43.81013" lon="4.18192">
        <ele>195</ele>
        <time>2012-03-11T09:24:06Z</time>
      </trkpt>
      <trkpt lat="43.81011" lon="4.18192">
        <ele>195</ele>
        <time>2012-03-11T09:24:07Z</time>
      </trkpt>
      <trkpt lat="43.81009" lon="4.18191">
        <ele>195</ele>
        <time>2012-03-11T09:24:08Z</time>
      </trkpt>
      <trkpt lat="43.81007" lon="4.18191">
        <ele>196</ele>
        <time>2012-03-11T09:24:09Z</time>
      </trkpt>
      <trkpt lat="43.81005" lon="4.18191">
        <ele>196</ele>
        <time>2012-03-11T09:24:10Z</time>
      </trkpt>
      <trkpt lat="43.81004" lon="4.18191">
        <ele>196</ele>
        <time>2012-03-11T09:24:11Z</time>
      </trkpt>
      <trkpt lat="43.81002" lon="4.18191">
        <ele>196</ele>
        <time>2012-03-11T09:24:12Z</time>
      </trkpt>
      <trkpt lat="43.81" lon="4.18191">
        <ele>196</ele>
        <time>2012-03-11T09:24:13Z</time>
      </trkpt>
      <trkpt lat="43.80999" lon="4.18191">
        <ele>197</ele>
        <time>2012-03-11T09:24:14Z</time>
      </trkpt>
      <trkpt lat="43.80997" lon="4.18191">
        <ele>197</ele>
        <time>2012-03-11T09:24:15Z</time>
      </trkpt>
      <trkpt lat="43.80996" lon="4.18192">
        <ele>197</ele>
        <time>2012-03-11T09:24:16Z</time>
      </trkpt>
      <trkpt lat="43.80994" lon="4.18193">
        <ele>197</ele>
        <time>2012-03-11T09:24:17Z</time>
      </trkpt>
      <trkpt lat="43.80991" lon="4.18193">
        <ele>197</ele>
        <time>2012-03-11T09:24:18Z</time>
      </trkpt>
      <trkpt lat="43.80989" lon="4.18194">
        <ele>197</ele>
        <time>2012-03-11T09:24:19Z</time>
      </trkpt>
      <trkpt lat="43.80988" lon="4.18194">
        <ele>197</ele>
        <time>2012-03-11T09:24:20Z</time>
      </trkpt>
      <trkpt lat="43.80986" lon="4.18194">
        <ele>197</ele>
        <time>2012-03-11T09:24:21Z</time>
      </trkpt>
      <trkpt lat="43.80984" lon="4.18194">
        <ele>198</ele>
        <time>2012-03-11T09:24:22Z</time>
      </trkpt>
      <trkpt lat="43.80982" lon="4.18195">
        <ele>198</ele>
        <time>2012-03-11T09:24:23Z</time>
      </trkpt>
      <trkpt lat="43.8098" lon="4.18196">
        <ele>198</ele>
        <time>2012-03-11T09:24:24Z</time>
      </trkpt>
      <trkpt lat="43.80978" lon="4.18197">
        <ele>198</ele>
        <time>2012-03-11T09:24:25Z</time>
      </trkpt>
      <trkpt lat="43.80975" lon="4.18198">
        <ele>198</ele>
        <time>2012-03-11T09:24:26Z</time>
      </trkpt>
      <trkpt lat="43.80973" lon="4.18199">
        <ele>198</ele>
        <time>2012-03-11T09:24:27Z</time>
      </trkpt>
      <trkpt lat="43.8097" lon="4.182">
        <ele>198</ele>
        <time>2012-03-11T09:24:28Z</time>
      </trkpt>
      <trkpt lat="43.80968" lon="4.18201">
        <ele>198</ele>
        <time>2012-03-11T09:24:29Z</time>
      </trkpt>
      <trkpt lat="43.80965" lon="4.18202">
        <ele>198</ele>
        <time>2012-03-11T09:24:30Z</time>
      </trkpt>
      <trkpt lat="43.80962" lon="4.18203">
        <ele>198</ele>
        <time>2012-03-11T09:24:31Z</time>
      </trkpt>
      <trkpt lat="43.80959" lon="4.18204">
        <ele>198</ele>
        <time>2012-03-11T09:24:32Z</time>
      </trkpt>
      <trkpt lat="43.80956" lon="4.18205">
        <ele>198</ele>
        <time>2012-03-11T09:24:33Z</time>
      </trkpt>
      <trkpt lat="43.80953" lon="4.18206">
        <ele>198</ele>
        <time>2012-03-11T09:24:34Z</time>
      </trkpt>
      <trkpt lat="43.8095" lon="4.18207">
        <ele>198</ele>
        <time>2012-03-11T09:24:35Z</time>
      </trkpt>
      <trkpt lat="43.80947" lon="4.18208">
        <ele>198</ele>
        <time>2012-03-11T09:24:36Z</time>
      </trkpt>
      <trkpt lat="43.80944" lon="4.18208">
        <ele>198</ele>
        <time>2012-03-11T09:24:37Z</time>
      </trkpt>
      <trkpt lat="43.80941" lon="4.18209">
        <ele>198</ele>
        <time>2012-03-11T09:24:38Z</time>
      </trkpt>
      <trkpt lat="43.80938" lon="4.18209">
        <ele>198</ele>
        <time>2012-03-11T09:24:39Z</time>
      </trkpt>
      <trkpt lat="43.80935" lon="4.1821">
        <ele>198</ele>
        <time>2012-03-11T09:24:40Z</time>
      </trkpt>
      <trkpt lat="43.80932" lon="4.18211">
        <ele>198</ele>
        <time>2012-03-11T09:24:41Z</time>
      </trkpt>
      <trkpt lat="43.80929" lon="4.18211">
        <ele>198</ele>
        <time>2012-03-11T09:24:42Z</time>
      </trkpt>
      <trkpt lat="43.80927" lon="4.18212">
        <ele>198</ele>
        <time>2012-03-11T09:24:43Z</time>
      </trkpt>
      <trkpt lat="43.80924" lon="4.18213">
        <ele>198</ele>
        <time>2012-03-11T09:24:44Z</time>
      </trkpt>
      <trkpt lat="43.80922" lon="4.18214">
        <ele>198</ele>
        <time>2012-03-11T09:24:45Z</time>
      </trkpt>
      <trkpt lat="43.8092" lon="4.18214">
        <ele>198</ele>
        <time>2012-03-11T09:24:46Z</time>
      </trkpt>
      <trkpt lat="43.80917" lon="4.18215">
        <ele>198</ele>
        <time>2012-03-11T09:24:47Z</time>
      </trkpt>
      <trkpt lat="43.80915" lon="4.18216">
        <ele>198</ele>
        <time>2012-03-11T09:24:48Z</time>
      </trkpt>
      <trkpt lat="43.80912" lon="4.18217">
        <ele>198</ele>
        <time>2012-03-11T09:24:49Z</time>
      </trkpt>
      <trkpt lat="43.80909" lon="4.18218">
        <ele>198</ele>
        <time>2012-03-11T09:24:50Z</time>
      </trkpt>
      <trkpt lat="43.80907" lon="4.18219">
        <ele>198</ele>
        <time>2012-03-11T09:24:51Z</time>
      </trkpt>
      <trkpt lat="43.80904" lon="4.18221">
        <ele>198</ele>
        <time>2012-03-11T09:24:52Z</time>
      </trkpt>
      <trkpt lat="43.809" lon="4.18222">
        <ele>198</ele>
        <time>2012-03-11T09:24:53Z</time>
      </trkpt>
      <trkpt lat="43.80897" lon="4.18223">
        <ele>198</ele>
        <time>2012-03-11T09:24:54Z</time>
      </trkpt>
      <trkpt lat="43.80893" lon="4.18225">
        <ele>198</ele>
        <time>2012-03-11T09:24:55Z</time>
      </trkpt>
      <trkpt lat="43.80889" lon="4.18226">
        <ele>198</ele>
        <time>2012-03-11T09:24:56Z</time>
      </trkpt>
      <trkpt lat="43.80885" lon="4.18228">
        <ele>198</ele>
        <time>2012-03-11T09:24:57Z</time>
      </trkpt>
      <trkpt lat="43.8088" lon="4.1823">
        <ele>198</ele>
        <time>2012-03-11T09:24:58Z</time>
      </trkpt>
      <trkpt lat="43.80875" lon="4.18232">
        <ele>198</ele>
        <time>2012-03-11T09:24:59Z</time>
      </trkpt>
      <trkpt lat="43.8087" lon="4.18234">
        <ele>198</ele>
        <time>2012-03-11T09:25:00Z</time>
      </trkpt>
      <trkpt lat="43.80865" lon="4.18237">
        <ele>198</ele>
        <time>2012-03-11T09:25:01Z</time>
      </trkpt>
      <trkpt lat="43.8086" lon="4.18239">
        <ele>198</ele>
        <time>2012-03-11T09:25:02Z</time>
      </trkpt>
      <trkpt lat="43.80855" lon="4.18241">
        <ele>198</ele>
        <time>2012-03-11T09:25:03Z</time>
      </trkpt>
      <trkpt lat="43.80851" lon="4.18243">
        <ele>198</ele>
        <time>2012-03-11T09:25:04Z</time>
      </trkpt>
      <trkpt lat="43.80846" lon="4.18245">
        <ele>198</ele>
        <time>2012-03-11T09:25:05Z</time>
      </trkpt>
      <trkpt lat="43.80843" lon="4.18247">
        <ele>198</ele>
        <time>2012-03-11T09:25:06Z</time>
      </trkpt>
      <trkpt lat="43.8084" lon="4.18249">
        <ele>198</ele>
        <time>2012-03-11T09:25:07Z</time>
      </trkpt>
      <trkpt lat="43.80838" lon="4.1825">
        <ele>198</ele>
        <time>2012-03-11T09:25:08Z</time>
      </trkpt>
      <trkpt lat="43.80837" lon="4.18251">
        <ele>198</ele>
        <time>2012-03-11T09:25:09Z</time>
      </trkpt>
      <trkpt lat="43.80835" lon="4.18251">
        <ele>198</ele>
        <time>2012-03-11T09:25:10Z</time>
      </trkpt>
      <trkpt lat="43.80834" lon="4.18252">
        <ele>198</ele>
        <time>2012-03-11T09:25:13Z</time>
      </trkpt>
      <trkpt lat="43.80833" lon="4.18253">
        <ele>198</ele>
        <time>2012-03-11T09:25:17Z</time>
      </trkpt>
      <trkpt lat="43.80831" lon="4.18254">
        <ele>198</ele>
        <time>2012-03-11T09:25:19Z</time>
      </trkpt>
      <trkpt lat="43.8083" lon="4.18255">
        <ele>198</ele>
        <time>2012-03-11T09:25:22Z</time>
      </trkpt>
      <trkpt lat="43.80829" lon="4.18256">
        <ele>198</ele>
        <time>2012-03-11T09:25:24Z</time>
      </trkpt>
      <trkpt lat="43.80827" lon="4.18257">
        <ele>198</ele>
        <time>2012-03-11T09:25:26Z</time>
      </trkpt>
      <trkpt lat="43.80826" lon="4.1826">
        <ele>198</ele>
        <time>2012-03-11T09:25:28Z</time>
      </trkpt>
      <trkpt lat="43.80825" lon="4.18261">
        <ele>198</ele>
        <time>2012-03-11T09:25:29Z</time>
      </trkpt>
      <trkpt lat="43.80824" lon="4.18262">
        <ele>198</ele>
        <time>2012-03-11T09:25:31Z</time>
      </trkpt>
      <trkpt lat="43.80822" lon="4.18263">
        <ele>198</ele>
        <time>2012-03-11T09:25:32Z</time>
      </trkpt>
      <trkpt lat="43.8082" lon="4.18264">
        <ele>198</ele>
        <time>2012-03-11T09:25:33Z</time>
      </trkpt>
      <trkpt lat="43.80817" lon="4.18265">
        <ele>198</ele>
        <time>2012-03-11T09:25:34Z</time>
      </trkpt>
      <trkpt lat="43.80814" lon="4.18267">
        <ele>198</ele>
        <time>2012-03-11T09:25:35Z</time>
      </trkpt>
      <trkpt lat="43.80811" lon="4.18269">
        <ele>198</ele>
        <time>2012-03-11T09:25:36Z</time>
      </trkpt>
      <trkpt lat="43.80807" lon="4.18271">
        <ele>198</ele>
        <time>2012-03-11T09:25:37Z</time>
      </trkpt>
      <trkpt lat="43.80804" lon="4.18273">
        <ele>197</ele>
        <time>2012-03-11T09:25:38Z</time>
      </trkpt>
      <trkpt lat="43.80801" lon="4.18275">
        <ele>196</ele>
        <time>2012-03-11T09:25:39Z</time>
      </trkpt>
      <trkpt lat="43.80798" lon="4.18277">
        <ele>196</ele>
        <time>2012-03-11T09:25:40Z</time>
      </trkpt>
      <trkpt lat="43.80794" lon="4.18279">
        <ele>195</ele>
        <time>2012-03-11T09:25:41Z</time>
      </trkpt>
      <trkpt lat="43.8079" lon="4.1828">
        <ele>195</ele>
        <time>2012-03-11T09:25:42Z</time>
      </trkpt>
      <trkpt lat="43.80787" lon="4.18282">
        <ele>194</ele>
        <time>2012-03-11T09:25:43Z</time>
      </trkpt>
      <trkpt lat="43.80783" lon="4.18284">
        <ele>194</ele>
        <time>2012-03-11T09:25:44Z</time>
      </trkpt>
      <trkpt lat="43.80779" lon="4.18285">
        <ele>194</ele>
        <time>2012-03-11T09:25:45Z</time>
      </trkpt>
      <trkpt lat="43.80776" lon="4.18286">
        <ele>193</ele>
        <time>2012-03-11T09:25:46Z</time>
      </trkpt>
      <trkpt lat="43.80772" lon="4.18288">
        <ele>193</ele>
        <time>2012-03-11T09:25:47Z</time>
      </trkpt>
      <trkpt lat="43.80769" lon="4.18289">
        <ele>193</ele>
        <time>2012-03-11T09:25:48Z</time>
      </trkpt>
      <trkpt lat="43.80765" lon="4.1829">
        <ele>192</ele>
        <time>2012-03-11T09:25:49Z</time>
      </trkpt>
      <trkpt lat="43.80762" lon="4.1829">
        <ele>192</ele>
        <time>2012-03-11T09:25:50Z</time>
      </trkpt>
      <trkpt lat="43.80758" lon="4.18291">
        <ele>192</ele>
        <time>2012-03-11T09:25:51Z</time>
      </trkpt>
      <trkpt lat="43.80754" lon="4.18292">
        <ele>191</ele>
        <time>2012-03-11T09:25:52Z</time>
      </trkpt>
      <trkpt lat="43.8075" lon="4.18294">
        <ele>191</ele>
        <time>2012-03-11T09:25:53Z</time>
      </trkpt>
      <trkpt lat="43.80746" lon="4.18295">
        <ele>191</ele>
        <time>2012-03-11T09:25:54Z</time>
      </trkpt>
      <trkpt lat="43.80742" lon="4.18296">
        <ele>190</ele>
        <time>2012-03-11T09:25:55Z</time>
      </trkpt>
      <trkpt lat="43.80738" lon="4.18297">
        <ele>190</ele>
        <time>2012-03-11T09:25:56Z</time>
      </trkpt>
      <trkpt lat="43.80735" lon="4.18297">
        <ele>190</ele>
        <time>2012-03-11T09:25:57Z</time>
      </trkpt>
      <trkpt lat="43.80732" lon="4.18297">
        <ele>190</ele>
        <time>2012-03-11T09:25:58Z</time>
      </trkpt>
      <trkpt lat="43.8073" lon="4.18297">
        <ele>190</ele>
        <time>2012-03-11T09:25:59Z</time>
      </trkpt>
      <trkpt lat="43.80728" lon="4.18297">
        <ele>190</ele>
        <time>2012-03-11T09:26:00Z</time>
      </trkpt>
      <trkpt lat="43.80726" lon="4.18297">
        <ele>190</ele>
        <time>2012-03-11T09:26:01Z</time>
      </trkpt>
      <trkpt lat="43.80723" lon="4.18297">
        <ele>190</ele>
        <time>2012-03-11T09:26:02Z</time>
      </trkpt>
      <trkpt lat="43.80721" lon="4.18298">
        <ele>190</ele>
        <time>2012-03-11T09:26:03Z</time>
      </trkpt>
      <trkpt lat="43.80718" lon="4.18298">
        <ele>190</ele>
        <time>2012-03-11T09:26:04Z</time>
      </trkpt>
      <trkpt lat="43.80714" lon="4.18299">
        <ele>190</ele>
        <time>2012-03-11T09:26:05Z</time>
      </trkpt>
      <trkpt lat="43.80711" lon="4.183">
        <ele>190</ele>
        <time>2012-03-11T09:26:06Z</time>
      </trkpt>
      <trkpt lat="43.80708" lon="4.183">
        <ele>190</ele>
        <time>2012-03-11T09:26:07Z</time>
      </trkpt>
      <trkpt lat="43.80704" lon="4.18301">
        <ele>190</ele>
        <time>2012-03-11T09:26:08Z</time>
      </trkpt>
      <trkpt lat="43.80701" lon="4.18302">
        <ele>190</ele>
        <time>2012-03-11T09:26:09Z</time>
      </trkpt>
      <trkpt lat="43.80696" lon="4.18303">
        <ele>190</ele>
        <time>2012-03-11T09:26:10Z</time>
      </trkpt>
      <trkpt lat="43.80693" lon="4.18303">
        <ele>190</ele>
        <time>2012-03-11T09:26:11Z</time>
      </trkpt>
      <trkpt lat="43.80688" lon="4.18303">
        <ele>190</ele>
        <time>2012-03-11T09:26:12Z</time>
      </trkpt>
      <trkpt lat="43.80685" lon="4.18302">
        <ele>190</ele>
        <time>2012-03-11T09:26:13Z</time>
      </trkpt>
      <trkpt lat="43.8068" lon="4.18303">
        <ele>190</ele>
        <time>2012-03-11T09:26:14Z</time>
      </trkpt>
      <trkpt lat="43.80677" lon="4.18303">
        <ele>190</ele>
        <time>2012-03-11T09:26:15Z</time>
      </trkpt>
      <trkpt lat="43.80673" lon="4.18303">
        <ele>190</ele>
        <time>2012-03-11T09:26:16Z</time>
      </trkpt>
      <trkpt lat="43.80669" lon="4.18302">
        <ele>190</ele>
        <time>2012-03-11T09:26:17Z</time>
      </trkpt>
      <trkpt lat="43.80665" lon="4.18302">
        <ele>190</ele>
        <time>2012-03-11T09:26:18Z</time>
      </trkpt>
      <trkpt lat="43.80661" lon="4.18301">
        <ele>190</ele>
        <time>2012-03-11T09:26:19Z</time>
      </trkpt>
      <trkpt lat="43.80657" lon="4.18301">
        <ele>190</ele>
        <time>2012-03-11T09:26:20Z</time>
      </trkpt>
      <trkpt lat="43.80653" lon="4.183">
        <ele>190</ele>
        <time>2012-03-11T09:26:21Z</time>
      </trkpt>
      <trkpt lat="43.80649" lon="4.183">
        <ele>190</ele>
        <time>2012-03-11T09:26:22Z</time>
      </trkpt>
      <trkpt lat="43.80646" lon="4.183">
        <ele>190</ele>
        <time>2012-03-11T09:26:23Z</time>
      </trkpt>
      <trkpt lat="43.80642" lon="4.183">
        <ele>190</ele>
        <time>2012-03-11T09:26:24Z</time>
      </trkpt>
      <trkpt lat="43.80639" lon="4.18299">
        <ele>190</ele>
        <time>2012-03-11T09:26:25Z</time>
      </trkpt>
      <trkpt lat="43.80635" lon="4.18299">
        <ele>190</ele>
        <time>2012-03-11T09:26:26Z</time>
      </trkpt>
      <trkpt lat="43.80631" lon="4.18299">
        <ele>190</ele>
        <time>2012-03-11T09:26:27Z</time>
      </trkpt>
      <trkpt lat="43.80628" lon="4.18298">
        <ele>190</ele>
        <time>2012-03-11T09:26:28Z</time>
      </trkpt>
      <trkpt lat="43.80625" lon="4.18297">
        <ele>189</ele>
        <time>2012-03-11T09:26:29Z</time>
      </trkpt>
      <trkpt lat="43.80621" lon="4.18295">
        <ele>189</ele>
        <time>2012-03-11T09:26:30Z</time>
      </trkpt>
      <trkpt lat="43.80618" lon="4.18293">
        <ele>188</ele>
        <time>2012-03-11T09:26:31Z</time>
      </trkpt>
      <trkpt lat="43.80614" lon="4.1829">
        <ele>188</ele>
        <time>2012-03-11T09:26:32Z</time>
      </trkpt>
      <trkpt lat="43.80611" lon="4.18286">
        <ele>188</ele>
        <time>2012-03-11T09:26:33Z</time>
      </trkpt>
      <trkpt lat="43.80608" lon="4.18282">
        <ele>187</ele>
        <time>2012-03-11T09:26:34Z</time>
      </trkpt>
      <trkpt lat="43.80606" lon="4.18278">
        <ele>187</ele>
        <time>2012-03-11T09:26:35Z</time>
      </trkpt>
      <trkpt lat="43.80603" lon="4.18273">
        <ele>186</ele>
        <time>2012-03-11T09:26:36Z</time>
      </trkpt>
      <trkpt lat="43.806" lon="4.18268">
        <ele>186</ele>
        <time>2012-03-11T09:26:37Z</time>
      </trkpt>
      <trkpt lat="43.80597" lon="4.18264">
        <ele>186</ele>
        <time>2012-03-11T09:26:38Z</time>
      </trkpt>
      <trkpt lat="43.80593" lon="4.18258">
        <ele>186</ele>
        <time>2012-03-11T09:26:39Z</time>
      </trkpt>
      <trkpt lat="43.80589" lon="4.18254">
        <ele>185</ele>
        <time>2012-03-11T09:26:40Z</time>
      </trkpt>
      <trkpt lat="43.80585" lon="4.18249">
        <ele>184</ele>
        <time>2012-03-11T09:26:41Z</time>
      </trkpt>
      <trkpt lat="43.80581" lon="4.18246">
        <ele>184</ele>
        <time>2012-03-11T09:26:42Z</time>
      </trkpt>
      <trkpt lat="43.80577" lon="4.18243">
        <ele>183</ele>
        <time>2012-03-11T09:26:43Z</time>
      </trkpt>
      <trkpt lat="43.80572" lon="4.18241">
        <ele>183</ele>
        <time>2012-03-11T09:26:44Z</time>
      </trkpt>
      <trkpt lat="43.80568" lon="4.18239">
        <ele>183</ele>
        <time>2012-03-11T09:26:45Z</time>
      </trkpt>
      <trkpt lat="43.80563" lon="4.18236">
        <ele>183</ele>
        <time>2012-03-11T09:26:46Z</time>
      </trkpt>
      <trkpt lat="43.80559" lon="4.18233">
        <ele>183</ele>
        <time>2012-03-11T09:26:47Z</time>
      </trkpt>
      <trkpt lat="43.80556" lon="4.18231">
        <ele>183</ele>
        <time>2012-03-11T09:26:48Z</time>
      </trkpt>
      <trkpt lat="43.80552" lon="4.18229">
        <ele>183</ele>
        <time>2012-03-11T09:26:49Z</time>
      </trkpt>
      <trkpt lat="43.80549" lon="4.18227">
        <ele>183</ele>
        <time>2012-03-11T09:26:50Z</time>
      </trkpt>
      <trkpt lat="43.80546" lon="4.18225">
        <ele>183</ele>
        <time>2012-03-11T09:26:51Z</time>
      </trkpt>
      <trkpt lat="43.80544" lon="4.18224">
        <ele>183</ele>
        <time>2012-03-11T09:26:52Z</time>
      </trkpt>
      <trkpt lat="43.80541" lon="4.18222">
        <ele>183</ele>
        <time>2012-03-11T09:26:53Z</time>
      </trkpt>
      <trkpt lat="43.80538" lon="4.18221">
        <ele>183</ele>
        <time>2012-03-11T09:26:54Z</time>
      </trkpt>
      <trkpt lat="43.80536" lon="4.18219">
        <ele>183</ele>
        <time>2012-03-11T09:26:55Z</time>
      </trkpt>
      <trkpt lat="43.80534" lon="4.18218">
        <ele>183</ele>
        <time>2012-03-11T09:26:56Z</time>
      </trkpt>
      <trkpt lat="43.80532" lon="4.18216">
        <ele>183</ele>
        <time>2012-03-11T09:26:57Z</time>
      </trkpt>
      <trkpt lat="43.8053" lon="4.18215">
        <ele>183</ele>
        <time>2012-03-11T09:26:58Z</time>
      </trkpt>
      <trkpt lat="43.80529" lon="4.18214">
        <ele>183</ele>
        <time>2012-03-11T09:26:59Z</time>
      </trkpt>
      <trkpt lat="43.80527" lon="4.18213">
        <ele>183</ele>
        <time>2012-03-11T09:27:00Z</time>
      </trkpt>
      <trkpt lat="43.80526" lon="4.18214">
        <ele>183</ele>
        <time>2012-03-11T09:27:04Z</time>
      </trkpt>
      <trkpt lat="43.80525" lon="4.18214">
        <ele>183</ele>
        <time>2012-03-11T09:27:06Z</time>
      </trkpt>
      <trkpt lat="43.80526" lon="4.18213">
        <ele>183</ele>
        <time>2012-03-11T09:27:19Z</time>
      </trkpt>
      <trkpt lat="43.80528" lon="4.18214">
        <ele>183</ele>
        <time>2012-03-11T09:27:26Z</time>
      </trkpt>
      <trkpt lat="43.80529" lon="4.18215">
        <ele>185</ele>
        <time>2012-03-11T09:27:31Z</time>
      </trkpt>
      <trkpt lat="43.8053" lon="4.18215">
        <ele>186</ele>
        <time>2012-03-11T09:27:33Z</time>
      </trkpt>
      <trkpt lat="43.80531" lon="4.18214">
        <ele>187</ele>
        <time>2012-03-11T09:27:36Z</time>
      </trkpt>
      <trkpt lat="43.80533" lon="4.18214">
        <ele>188</ele>
        <time>2012-03-11T09:27:42Z</time>
      </trkpt>
      <trkpt lat="43.80534" lon="4.18213">
        <ele>188</ele>
        <time>2012-03-11T09:27:46Z</time>
      </trkpt>
      <trkpt lat="43.80535" lon="4.18213">
        <ele>188</ele>
        <time>2012-03-11T09:27:54Z</time>
      </trkpt>
      <trkpt lat="43.80534" lon="4.18212">
        <ele>188</ele>
        <time>2012-03-11T09:28:12Z</time>
      </trkpt>
      <trkpt lat="43.80533" lon="4.18212">
        <ele>188</ele>
        <time>2012-03-11T09:28:17Z</time>
      </trkpt>
      <trkpt lat="43.80531" lon="4.18212">
        <ele>188</ele>
        <time>2012-03-11T09:28:21Z</time>
      </trkpt>
      <trkpt lat="43.8053" lon="4.18212">
        <ele>189</ele>
        <time>2012-03-11T09:28:26Z</time>
      </trkpt>
      <trkpt lat="43.80531" lon="4.18211">
        <ele>191</ele>
        <time>2012-03-11T09:28:35Z</time>
      </trkpt>
      <trkpt lat="43.80532" lon="4.18211">
        <ele>193</ele>
        <time>2012-03-11T09:28:50Z</time>
      </trkpt>
      <trkpt lat="43.80531" lon="4.18212">
        <ele>194</ele>
        <time>2012-03-11T09:29:20Z</time>
      </trkpt>
      <trkpt lat="43.80529" lon="4.18212">
        <ele>195</ele>
        <time>2012-03-11T09:29:25Z</time>
      </trkpt>
      <trkpt lat="43.80528" lon="4.18213">
        <ele>197</ele>
        <time>2012-03-11T09:29:31Z</time>
      </trkpt>
      <trkpt lat="43.80527" lon="4.18214">
        <ele>197</ele>
        <time>2012-03-11T09:29:47Z</time>
      </trkpt>
      <trkpt lat="43.80528" lon="4.18214">
        <ele>197</ele>
        <time>2012-03-11T09:29:53Z</time>
      </trkpt>
      <trkpt lat="43.80529" lon="4.18214">
        <ele>197</ele>
        <time>2012-03-11T09:29:57Z</time>
      </trkpt>
      <trkpt lat="43.80531" lon="4.18214">
        <ele>197</ele>
        <time>2012-03-11T09:30:02Z</time>
      </trkpt>
      <trkpt lat="43.80532" lon="4.18214">
        <ele>197</ele>
        <time>2012-03-11T09:30:12Z</time>
      </trkpt>
      <trkpt lat="43.80533" lon="4.18213">
        <ele>197</ele>
        <time>2012-03-11T09:30:27Z</time>
      </trkpt>
      <trkpt lat="43.80534" lon="4.18213">
        <ele>197</ele>
        <time>2012-03-11T09:30:52Z</time>
      </trkpt>
      <trkpt lat="43.80535" lon="4.18212">
        <ele>197</ele>
        <time>2012-03-11T09:31:03Z</time>
      </trkpt>
      <trkpt lat="43.80534" lon="4.18212">
        <ele>197</ele>
        <time>2012-03-11T09:31:27Z</time>
      </trkpt>
      <trkpt lat="43.80533" lon="4.18212">
        <ele>199</ele>
        <time>2012-03-11T09:31:48Z</time>
      </trkpt>
      <trkpt lat="43.80532" lon="4.18213">
        <ele>199</ele>
        <time>2012-03-11T09:31:51Z</time>
      </trkpt>
      <trkpt lat="43.8053" lon="4.18213">
        <ele>199</ele>
        <time>2012-03-11T09:31:55Z</time>
      </trkpt>
      <trkpt lat="43.80529" lon="4.18214">
        <ele>199</ele>
        <time>2012-03-11T09:31:58Z</time>
      </trkpt>
      <trkpt lat="43.80528" lon="4.18214">
        <ele>199</ele>
        <time>2012-03-11T09:32:02Z</time>
      </trkpt>
      <trkpt lat="43.80527" lon="4.18214">
        <ele>199</ele>
        <time>2012-03-11T09:32:06Z</time>
      </trkpt>
      <trkpt lat="43.80526" lon="4.18215">
        <ele>199</ele>
        <time>2012-03-11T09:32:11Z</time>
      </trkpt>
      <trkpt lat="43.80524" lon="4.18215">
        <ele>199</ele>
        <time>2012-03-11T09:32:17Z</time>
      </trkpt>
      <trkpt lat="43.80523" lon="4.18216">
        <ele>199</ele>
        <time>2012-03-11T09:32:25Z</time>
      </trkpt>
      <trkpt lat="43.80522" lon="4.18216">
        <ele>199</ele>
        <time>2012-03-11T09:32:39Z</time>
      </trkpt>
      <trkpt lat="43.80523" lon="4.18216">
        <ele>197</ele>
        <time>2012-03-11T09:33:41Z</time>
      </trkpt>
      <trkpt lat="43.80522" lon="4.18216">
        <ele>197</ele>
        <time>2012-03-11T09:33:51Z</time>
      </trkpt>
      <trkpt lat="43.80523" lon="4.18216">
        <ele>198</ele>
        <time>2012-03-11T09:34:18Z</time>
      </trkpt>
      <trkpt lat="43.80522" lon="4.18216">
        <ele>198</ele>
        <time>2012-03-11T09:34:31Z</time>
      </trkpt>
      <trkpt lat="43.80521" lon="4.18217">
        <ele>198</ele>
        <time>2012-03-11T09:34:37Z</time>
      </trkpt>
      <trkpt lat="43.80522" lon="4.18217">
        <ele>198</ele>
        <time>2012-03-11T09:34:46Z</time>
      </trkpt>
      <trkpt lat="43.80521" lon="4.18217">
        <ele>198</ele>
        <time>2012-03-11T09:34:55Z</time>
      </trkpt>
      <trkpt lat="43.8052" lon="4.18218">
        <ele>198</ele>
        <time>2012-03-11T09:35:06Z</time>
      </trkpt>
      <trkpt lat="43.80521" lon="4.18218">
        <ele>198</ele>
        <time>2012-03-11T09:35:43Z</time>
      </trkpt>
      <trkpt lat="43.80523" lon="4.18218">
        <ele>198</ele>
        <time>2012-03-11T09:36:07Z</time>
      </trkpt>
      <trkpt lat="43.80525" lon="4.18218">
        <ele>198</ele>
        <time>2012-03-11T09:36:09Z</time>
      </trkpt>
      <trkpt lat="43.80526" lon="4.18217">
        <ele>198</ele>
        <time>2012-03-11T09:36:11Z</time>
      </trkpt>
      <trkpt lat="43.80527" lon="4.18217">
        <ele>198</ele>
        <time>2012-03-11T09:36:14Z</time>
      </trkpt>
      <trkpt lat="43.80528" lon="4.18217">
        <ele>200</ele>
        <time>2012-03-11T09:36:19Z</time>
      </trkpt>
      <trkpt lat="43.80527" lon="4.18216">
        <ele>200</ele>
        <time>2012-03-11T09:36:36Z</time>
      </trkpt>
      <trkpt lat="43.80526" lon="4.18216">
        <ele>200</ele>
        <time>2012-03-11T09:36:49Z</time>
      </trkpt>
      <trkpt lat="43.80527" lon="4.18215">
        <ele>200</ele>
        <time>2012-03-11T09:38:36Z</time>
      </trkpt>
      <trkpt lat="43.80529" lon="4.18215">
        <ele>200</ele>
        <time>2012-03-11T09:38:42Z</time>
      </trkpt>
      <trkpt lat="43.8053" lon="4.18215">
        <ele>200</ele>
        <time>2012-03-11T09:38:53Z</time>
      </trkpt>
      <trkpt lat="43.80529" lon="4.18214">
        <ele>200</ele>
        <time>2012-03-11T09:39:21Z</time>
      </trkpt>
      <trkpt lat="43.80527" lon="4.18215">
        <ele>200</ele>
        <time>2012-03-11T09:40:11Z</time>
      </trkpt>
      <trkpt lat="43.80526" lon="4.18215">
        <ele>198</ele>
        <time>2012-03-11T09:40:23Z</time>
      </trkpt>
      <trkpt lat="43.80524" lon="4.18216">
        <ele>197</ele>
        <time>2012-03-11T09:40:30Z</time>
      </trkpt>
      <trkpt lat="43.80526" lon="4.18216">
        <ele>197</ele>
        <time>2012-03-11T09:40:31Z</time>
      </trkpt>
      <trkpt lat="43.80524" lon="4.18214">
        <ele>196</ele>
        <time>2012-03-11T09:40:39Z</time>
      </trkpt>
      <trkpt lat="43.80523" lon="4.18213">
        <ele>196</ele>
        <time>2012-03-11T09:40:41Z</time>
      </trkpt>
      <trkpt lat="43.80522" lon="4.18212">
        <ele>195</ele>
        <time>2012-03-11T09:40:43Z</time>
      </trkpt>
      <trkpt lat="43.80521" lon="4.18211">
        <ele>195</ele>
        <time>2012-03-11T09:40:46Z</time>
      </trkpt>
      <trkpt lat="43.80519" lon="4.1821">
        <ele>192</ele>
        <time>2012-03-11T09:40:59Z</time>
      </trkpt>
      <trkpt lat="43.80518" lon="4.18209">
        <ele>191</ele>
        <time>2012-03-11T09:41:05Z</time>
      </trkpt>
      <trkpt lat="43.80519" lon="4.18208">
        <ele>190</ele>
        <time>2012-03-11T09:41:10Z</time>
      </trkpt>
      <trkpt lat="43.80521" lon="4.18207">
        <ele>190</ele>
        <time>2012-03-11T09:41:13Z</time>
      </trkpt>
      <trkpt lat="43.8052" lon="4.18208">
        <ele>189</ele>
        <time>2012-03-11T09:41:21Z</time>
      </trkpt>
      <trkpt lat="43.80518" lon="4.18209">
        <ele>187</ele>
        <time>2012-03-11T09:41:24Z</time>
      </trkpt>
      <trkpt lat="43.80517" lon="4.18209">
        <ele>185</ele>
        <time>2012-03-11T09:41:27Z</time>
      </trkpt>
      <trkpt lat="43.80516" lon="4.18209">
        <ele>183</ele>
        <time>2012-03-11T09:41:31Z</time>
      </trkpt>
      <trkpt lat="43.80515" lon="4.1821">
        <ele>180</ele>
        <time>2012-03-11T09:41:42Z</time>
      </trkpt>
      <trkpt lat="43.80516" lon="4.1821">
        <ele>180</ele>
        <time>2012-03-11T09:41:47Z</time>
      </trkpt>
      <trkpt lat="43.80517" lon="4.1821">
        <ele>180</ele>
        <time>2012-03-11T09:41:52Z</time>
      </trkpt>
      <trkpt lat="43.80518" lon="4.1821">
        <ele>180</ele>
        <time>2012-03-11T09:41:57Z</time>
      </trkpt>
      <trkpt lat="43.80519" lon="4.18209">
        <ele>180</ele>
        <time>2012-03-11T09:42:01Z</time>
      </trkpt>
      <trkpt lat="43.80521" lon="4.18209">
        <ele>180</ele>
        <time>2012-03-11T09:42:04Z</time>
      </trkpt>
      <trkpt lat="43.80522" lon="4.18208">
        <ele>181</ele>
        <time>2012-03-11T09:42:14Z</time>
      </trkpt>
      <trkpt lat="43.80521" lon="4.18209">
        <ele>182</ele>
        <time>2012-03-11T09:42:23Z</time>
      </trkpt>
      <trkpt lat="43.80519" lon="4.18208">
        <ele>183</ele>
        <time>2012-03-11T09:42:45Z</time>
      </trkpt>
      <trkpt lat="43.80521" lon="4.18207">
        <ele>185</ele>
        <time>2012-03-11T09:42:59Z</time>
      </trkpt>
      <trkpt lat="43.80519" lon="4.18207">
        <ele>187</ele>
        <time>2012-03-11T09:43:09Z</time>
      </trkpt>
      <trkpt lat="43.80518" lon="4.18207">
        <ele>187</ele>
        <time>2012-03-11T09:43:14Z</time>
      </trkpt>
      <trkpt lat="43.80517" lon="4.18207">
        <ele>187</ele>
        <time>2012-03-11T09:43:20Z</time>
      </trkpt>
      <trkpt lat="43.80519" lon="4.18205">
        <ele>186</ele>
        <time>2012-03-11T09:43:26Z</time>
      </trkpt>
      <trkpt lat="43.80518" lon="4.18207">
        <ele>186</ele>
        <time>2012-03-11T09:43:39Z</time>
      </trkpt>
      <trkpt lat="43.80517" lon="4.18209">
        <ele>186</ele>
        <time>2012-03-11T09:43:47Z</time>
      </trkpt>
      <trkpt lat="43.80518" lon="4.1821">
        <ele>186</ele>
        <time>2012-03-11T09:43:55Z</time>
      </trkpt>
      <trkpt lat="43.80516" lon="4.18211">
        <ele>185</ele>
        <time>2012-03-11T09:44:20Z</time>
      </trkpt>
      <trkpt lat="43.80518" lon="4.1821">
        <ele>184</ele>
        <time>2012-03-11T09:45:04Z</time>
      </trkpt>
      <trkpt lat="43.80516" lon="4.18211">
        <ele>184</ele>
        <time>2012-03-11T09:45:08Z</time>
      </trkpt>
      <trkpt lat="43.80518" lon="4.18209">
        <ele>184</ele>
        <time>2012-03-11T09:45:13Z</time>
      </trkpt>
      <trkpt lat="43.80517" lon="4.18211">
        <ele>184</ele>
        <time>2012-03-11T09:45:36Z</time>
      </trkpt>
      <trkpt lat="43.80518" lon="4.1821">
        <ele>184</ele>
        <time>2012-03-11T09:45:40Z</time>
      </trkpt>
      <trkpt lat="43.80519" lon="4.1821">
        <ele>185</ele>
        <time>2012-03-11T09:45:47Z</time>
      </trkpt>
      <trkpt lat="43.80519" lon="4.18212">
        <ele>185</ele>
        <time>2012-03-11T09:46:04Z</time>
      </trkpt>
      <trkpt lat="43.80518" lon="4.18216">
        <ele>185</ele>
        <time>2012-03-11T09:46:05Z</time>
      </trkpt>
      <trkpt lat="43.80517" lon="4.18221">
        <ele>185</ele>
        <time>2012-03-11T09:46:06Z</time>
      </trkpt>
      <trkpt lat="43.80516" lon="4.18225">
        <ele>185</ele>
        <time>2012-03-11T09:46:07Z</time>
      </trkpt>
      <trkpt lat="43.80516" lon="4.18228">
        <ele>185</ele>
        <time>2012-03-11T09:46:08Z</time>
      </trkpt>
      <trkpt lat="43.80514" lon="4.18231">
        <ele>185</ele>
        <time>2012-03-11T09:46:09Z</time>
      </trkpt>
      <trkpt lat="43.80512" lon="4.18233">
        <ele>185</ele>
        <time>2012-03-11T09:46:10Z</time>
      </trkpt>
      <trkpt lat="43.8051" lon="4.18235">
        <ele>185</ele>
        <time>2012-03-11T09:46:11Z</time>
      </trkpt>
      <trkpt lat="43.80508" lon="4.18236">
        <ele>185</ele>
        <time>2012-03-11T09:46:12Z</time>
      </trkpt>
      <trkpt lat="43.80506" lon="4.18237">
        <ele>184</ele>
        <time>2012-03-11T09:46:13Z</time>
      </trkpt>
      <trkpt lat="43.80504" lon="4.18239">
        <ele>183</ele>
        <time>2012-03-11T09:46:14Z</time>
      </trkpt>
      <trkpt lat="43.80502" lon="4.18241">
        <ele>182</ele>
        <time>2012-03-11T09:46:15Z</time>
      </trkpt>
      <trkpt lat="43.80499" lon="4.18243">
        <ele>181</ele>
        <time>2012-03-11T09:46:16Z</time>
      </trkpt>
      <trkpt lat="43.80495" lon="4.18244">
        <ele>180</ele>
        <time>2012-03-11T09:46:17Z</time>
      </trkpt>
      <trkpt lat="43.80491" lon="4.18244">
        <ele>179</ele>
        <time>2012-03-11T09:46:18Z</time>
      </trkpt>
      <trkpt lat="43.80487" lon="4.18242">
        <ele>178</ele>
        <time>2012-03-11T09:46:19Z</time>
      </trkpt>
      <trkpt lat="43.80483" lon="4.18239">
        <ele>177</ele>
        <time>2012-03-11T09:46:20Z</time>
      </trkpt>
      <trkpt lat="43.80479" lon="4.18236">
        <ele>176</ele>
        <time>2012-03-11T09:46:21Z</time>
      </trkpt>
      <trkpt lat="43.80476" lon="4.18232">
        <ele>175</ele>
        <time>2012-03-11T09:46:22Z</time>
      </trkpt>
      <trkpt lat="43.80473" lon="4.18228">
        <ele>174</ele>
        <time>2012-03-11T09:46:23Z</time>
      </trkpt>
      <trkpt lat="43.80471" lon="4.18224">
        <ele>173</ele>
        <time>2012-03-11T09:46:24Z</time>
      </trkpt>
      <trkpt lat="43.80468" lon="4.18221">
        <ele>173</ele>
        <time>2012-03-11T09:46:25Z</time>
      </trkpt>
      <trkpt lat="43.80464" lon="4.18218">
        <ele>172</ele>
        <time>2012-03-11T09:46:26Z</time>
      </trkpt>
      <trkpt lat="43.8046" lon="4.18213">
        <ele>172</ele>
        <time>2012-03-11T09:46:27Z</time>
      </trkpt>
      <trkpt lat="43.80455" lon="4.18208">
        <ele>172</ele>
        <time>2012-03-11T09:46:28Z</time>
      </trkpt>
      <trkpt lat="43.80451" lon="4.18203">
        <ele>172</ele>
        <time>2012-03-11T09:46:29Z</time>
      </trkpt>
      <trkpt lat="43.80447" lon="4.18197">
        <ele>172</ele>
        <time>2012-03-11T09:46:30Z</time>
      </trkpt>
      <trkpt lat="43.80443" lon="4.18191">
        <ele>172</ele>
        <time>2012-03-11T09:46:31Z</time>
      </trkpt>
      <trkpt lat="43.80439" lon="4.18185">
        <ele>172</ele>
        <time>2012-03-11T09:46:32Z</time>
      </trkpt>
      <trkpt lat="43.80436" lon="4.1818">
        <ele>172</ele>
        <time>2012-03-11T09:46:33Z</time>
      </trkpt>
      <trkpt lat="43.80435" lon="4.18175">
        <ele>172</ele>
        <time>2012-03-11T09:46:34Z</time>
      </trkpt>
      <trkpt lat="43.80433" lon="4.18172">
        <ele>172</ele>
        <time>2012-03-11T09:46:35Z</time>
      </trkpt>
      <trkpt lat="43.80431" lon="4.1817">
        <ele>172</ele>
        <time>2012-03-11T09:46:36Z</time>
      </trkpt>
      <trkpt lat="43.80428" lon="4.18169">
        <ele>172</ele>
        <time>2012-03-11T09:46:37Z</time>
      </trkpt>
      <trkpt lat="43.80424" lon="4.18167">
        <ele>172</ele>
        <time>2012-03-11T09:46:38Z</time>
      </trkpt>
      <trkpt lat="43.80421" lon="4.18164">
        <ele>172</ele>
        <time>2012-03-11T09:46:39Z</time>
      </trkpt>
      <trkpt lat="43.80416" lon="4.18163">
        <ele>171</ele>
        <time>2012-03-11T09:46:40Z</time>
      </trkpt>
      <trkpt lat="43.80413" lon="4.18161">
        <ele>171</ele>
        <time>2012-03-11T09:46:41Z</time>
      </trkpt>
      <trkpt lat="43.80412" lon="4.18161">
        <ele>170</ele>
        <time>2012-03-11T09:46:42Z</time>
      </trkpt>
      <trkpt lat="43.8041" lon="4.18161">
        <ele>170</ele>
        <time>2012-03-11T09:46:44Z</time>
      </trkpt>
      <trkpt lat="43.80409" lon="4.18161">
        <ele>170</ele>
        <time>2012-03-11T09:46:45Z</time>
      </trkpt>
      <trkpt lat="43.80407" lon="4.18163">
        <ele>169</ele>
        <time>2012-03-11T09:46:47Z</time>
      </trkpt>
      <trkpt lat="43.80406" lon="4.18163">
        <ele>169</ele>
        <time>2012-03-11T09:46:48Z</time>
      </trkpt>
      <trkpt lat="43.80405" lon="4.18162">
        <ele>168</ele>
        <time>2012-03-11T09:46:49Z</time>
      </trkpt>
      <trkpt lat="43.80403" lon="4.1816">
        <ele>168</ele>
        <time>2012-03-11T09:46:50Z</time>
      </trkpt>
      <trkpt lat="43.80402" lon="4.18158">
        <ele>168</ele>
        <time>2012-03-11T09:46:51Z</time>
      </trkpt>
      <trkpt lat="43.804" lon="4.18156">
        <ele>168</ele>
        <time>2012-03-11T09:46:52Z</time>
      </trkpt>
      <trkpt lat="43.80398" lon="4.18152">
        <ele>167</ele>
        <time>2012-03-11T09:46:53Z</time>
      </trkpt>
      <trkpt lat="43.80395" lon="4.18148">
        <ele>167</ele>
        <time>2012-03-11T09:46:54Z</time>
      </trkpt>
      <trkpt lat="43.80392" lon="4.18143">
        <ele>167</ele>
        <time>2012-03-11T09:46:55Z</time>
      </trkpt>
      <trkpt lat="43.80389" lon="4.18138">
        <ele>167</ele>
        <time>2012-03-11T09:46:56Z</time>
      </trkpt>
      <trkpt lat="43.80385" lon="4.18132">
        <ele>167</ele>
        <time>2012-03-11T09:46:57Z</time>
      </trkpt>
      <trkpt lat="43.80381" lon="4.18126">
        <ele>167</ele>
        <time>2012-03-11T09:46:58Z</time>
      </trkpt>
      <trkpt lat="43.80378" lon="4.1812">
        <ele>167</ele>
        <time>2012-03-11T09:46:59Z</time>
      </trkpt>
      <trkpt lat="43.80376" lon="4.18114">
        <ele>167</ele>
        <time>2012-03-11T09:47:00Z</time>
      </trkpt>
      <trkpt lat="43.80374" lon="4.18108">
        <ele>167</ele>
        <time>2012-03-11T09:47:01Z</time>
      </trkpt>
      <trkpt lat="43.80371" lon="4.18104">
        <ele>167</ele>
        <time>2012-03-11T09:47:02Z</time>
      </trkpt>
      <trkpt lat="43.80368" lon="4.181">
        <ele>167</ele>
        <time>2012-03-11T09:47:03Z</time>
      </trkpt>
      <trkpt lat="43.80365" lon="4.18094">
        <ele>167</ele>
        <time>2012-03-11T09:47:04Z</time>
      </trkpt>
      <trkpt lat="43.80362" lon="4.18088">
        <ele>167</ele>
        <time>2012-03-11T09:47:05Z</time>
      </trkpt>
      <trkpt lat="43.80359" lon="4.18082">
        <ele>167</ele>
        <time>2012-03-11T09:47:06Z</time>
      </trkpt>
      <trkpt lat="43.80355" lon="4.18076">
        <ele>167</ele>
        <time>2012-03-11T09:47:07Z</time>
      </trkpt>
      <trkpt lat="43.80352" lon="4.1807">
        <ele>167</ele>
        <time>2012-03-11T09:47:08Z</time>
      </trkpt>
      <trkpt lat="43.80349" lon="4.18062">
        <ele>167</ele>
        <time>2012-03-11T09:47:09Z</time>
      </trkpt>
      <trkpt lat="43.80347" lon="4.18055">
        <ele>167</ele>
        <time>2012-03-11T09:47:10Z</time>
      </trkpt>
      <trkpt lat="43.80346" lon="4.18048">
        <ele>166</ele>
        <time>2012-03-11T09:47:11Z</time>
      </trkpt>
      <trkpt lat="43.80344" lon="4.1804">
        <ele>166</ele>
        <time>2012-03-11T09:47:12Z</time>
      </trkpt>
      <trkpt lat="43.80343" lon="4.18034">
        <ele>165</ele>
        <time>2012-03-11T09:47:13Z</time>
      </trkpt>
      <trkpt lat="43.80341" lon="4.18027">
        <ele>165</ele>
        <time>2012-03-11T09:47:14Z</time>
      </trkpt>
      <trkpt lat="43.8034" lon="4.18021">
        <ele>165</ele>
        <time>2012-03-11T09:47:15Z</time>
      </trkpt>
      <trkpt lat="43.80339" lon="4.18016">
        <ele>165</ele>
        <time>2012-03-11T09:47:16Z</time>
      </trkpt>
      <trkpt lat="43.80339" lon="4.18012">
        <ele>165</ele>
        <time>2012-03-11T09:47:17Z</time>
      </trkpt>
      <trkpt lat="43.80339" lon="4.18007">
        <ele>165</ele>
        <time>2012-03-11T09:47:18Z</time>
      </trkpt>
      <trkpt lat="43.80336" lon="4.18003">
        <ele>164</ele>
        <time>2012-03-11T09:47:19Z</time>
      </trkpt>
      <trkpt lat="43.80333" lon="4.17998">
        <ele>164</ele>
        <time>2012-03-11T09:47:20Z</time>
      </trkpt>
      <trkpt lat="43.8033" lon="4.17991">
        <ele>164</ele>
        <time>2012-03-11T09:47:21Z</time>
      </trkpt>
      <trkpt lat="43.80327" lon="4.17984">
        <ele>164</ele>
        <time>2012-03-11T09:47:22Z</time>
      </trkpt>
      <trkpt lat="43.80325" lon="4.17978">
        <ele>163</ele>
        <time>2012-03-11T09:47:23Z</time>
      </trkpt>
      <trkpt lat="43.80324" lon="4.17974">
        <ele>163</ele>
        <time>2012-03-11T09:47:24Z</time>
      </trkpt>
      <trkpt lat="43.80323" lon="4.17972">
        <ele>162</ele>
        <time>2012-03-11T09:47:25Z</time>
      </trkpt>
      <trkpt lat="43.80321" lon="4.1797">
        <ele>161</ele>
        <time>2012-03-11T09:47:26Z</time>
      </trkpt>
      <trkpt lat="43.80319" lon="4.17971">
        <ele>161</ele>
        <time>2012-03-11T09:47:27Z</time>
      </trkpt>
      <trkpt lat="43.80317" lon="4.17973">
        <ele>160</ele>
        <time>2012-03-11T09:47:28Z</time>
      </trkpt>
      <trkpt lat="43.80316" lon="4.17977">
        <ele>159</ele>
        <time>2012-03-11T09:47:29Z</time>
      </trkpt>
      <trkpt lat="43.80314" lon="4.1798">
        <ele>158</ele>
        <time>2012-03-11T09:47:30Z</time>
      </trkpt>
      <trkpt lat="43.80313" lon="4.17981">
        <ele>157</ele>
        <time>2012-03-11T09:47:31Z</time>
      </trkpt>
      <trkpt lat="43.80311" lon="4.17981">
        <ele>156</ele>
        <time>2012-03-11T09:47:32Z</time>
      </trkpt>
      <trkpt lat="43.80309" lon="4.17979">
        <ele>156</ele>
        <time>2012-03-11T09:47:33Z</time>
      </trkpt>
      <trkpt lat="43.80307" lon="4.17977">
        <ele>156</ele>
        <time>2012-03-11T09:47:34Z</time>
      </trkpt>
      <trkpt lat="43.80305" lon="4.17978">
        <ele>155</ele>
        <time>2012-03-11T09:47:35Z</time>
      </trkpt>
      <trkpt lat="43.80304" lon="4.1798">
        <ele>154</ele>
        <time>2012-03-11T09:47:36Z</time>
      </trkpt>
      <trkpt lat="43.80302" lon="4.17983">
        <ele>154</ele>
        <time>2012-03-11T09:47:37Z</time>
      </trkpt>
      <trkpt lat="43.80302" lon="4.17988">
        <ele>153</ele>
        <time>2012-03-11T09:47:38Z</time>
      </trkpt>
      <trkpt lat="43.80301" lon="4.17994">
        <ele>152</ele>
        <time>2012-03-11T09:47:39Z</time>
      </trkpt>
      <trkpt lat="43.80302" lon="4.18">
        <ele>152</ele>
        <time>2012-03-11T09:47:40Z</time>
      </trkpt>
      <trkpt lat="43.80303" lon="4.18006">
        <ele>151</ele>
        <time>2012-03-11T09:47:41Z</time>
      </trkpt>
      <trkpt lat="43.80303" lon="4.18012">
        <ele>150</ele>
        <time>2012-03-11T09:47:42Z</time>
      </trkpt>
      <trkpt lat="43.80303" lon="4.18018">
        <ele>149</ele>
        <time>2012-03-11T09:47:43Z</time>
      </trkpt>
      <trkpt lat="43.80303" lon="4.18024">
        <ele>149</ele>
        <time>2012-03-11T09:47:44Z</time>
      </trkpt>
      <trkpt lat="43.80303" lon="4.18031">
        <ele>148</ele>
        <time>2012-03-11T09:47:45Z</time>
      </trkpt>
      <trkpt lat="43.80304" lon="4.18036">
        <ele>147</ele>
        <time>2012-03-11T09:47:46Z</time>
      </trkpt>
      <trkpt lat="43.80303" lon="4.18038">
        <ele>147</ele>
        <time>2012-03-11T09:47:47Z</time>
      </trkpt>
      <trkpt lat="43.80303" lon="4.1804">
        <ele>146</ele>
        <time>2012-03-11T09:47:58Z</time>
      </trkpt>
      <trkpt lat="43.80302" lon="4.18041">
        <ele>145</ele>
        <time>2012-03-11T09:48:01Z</time>
      </trkpt>
      <trkpt lat="43.803" lon="4.18042">
        <ele>143</ele>
        <time>2012-03-11T09:48:04Z</time>
      </trkpt>
      <trkpt lat="43.80299" lon="4.18044">
        <ele>142</ele>
        <time>2012-03-11T09:48:07Z</time>
      </trkpt>
      <trkpt lat="43.80297" lon="4.18046">
        <ele>141</ele>
        <time>2012-03-11T09:48:09Z</time>
      </trkpt>
      <trkpt lat="43.80296" lon="4.18048">
        <ele>140</ele>
        <time>2012-03-11T09:48:11Z</time>
      </trkpt>
      <trkpt lat="43.80294" lon="4.1805">
        <ele>139</ele>
        <time>2012-03-11T09:48:13Z</time>
      </trkpt>
      <trkpt lat="43.80293" lon="4.18052">
        <ele>139</ele>
        <time>2012-03-11T09:48:14Z</time>
      </trkpt>
      <trkpt lat="43.80291" lon="4.18056">
        <ele>138</ele>
        <time>2012-03-11T09:48:15Z</time>
      </trkpt>
      <trkpt lat="43.80289" lon="4.18062">
        <ele>137</ele>
        <time>2012-03-11T09:48:16Z</time>
      </trkpt>
      <trkpt lat="43.80286" lon="4.18067">
        <ele>137</ele>
        <time>2012-03-11T09:48:17Z</time>
      </trkpt>
      <trkpt lat="43.80285" lon="4.18071">
        <ele>136</ele>
        <time>2012-03-11T09:48:18Z</time>
      </trkpt>
      <trkpt lat="43.80283" lon="4.18073">
        <ele>135</ele>
        <time>2012-03-11T09:48:19Z</time>
      </trkpt>
      <trkpt lat="43.80282" lon="4.18072">
        <ele>134</ele>
        <time>2012-03-11T09:48:20Z</time>
      </trkpt>
      <trkpt lat="43.80281" lon="4.18068">
        <ele>134</ele>
        <time>2012-03-11T09:48:21Z</time>
      </trkpt>
      <trkpt lat="43.80279" lon="4.18063">
        <ele>133</ele>
        <time>2012-03-11T09:48:22Z</time>
      </trkpt>
      <trkpt lat="43.80278" lon="4.18056">
        <ele>133</ele>
        <time>2012-03-11T09:48:23Z</time>
      </trkpt>
      <trkpt lat="43.80277" lon="4.1805">
        <ele>132</ele>
        <time>2012-03-11T09:48:24Z</time>
      </trkpt>
      <trkpt lat="43.80275" lon="4.18043">
        <ele>132</ele>
        <time>2012-03-11T09:48:25Z</time>
      </trkpt>
      <trkpt lat="43.80274" lon="4.18038">
        <ele>132</ele>
        <time>2012-03-11T09:48:26Z</time>
      </trkpt>
      <trkpt lat="43.8027" lon="4.18037">
        <ele>131</ele>
        <time>2012-03-11T09:48:27Z</time>
      </trkpt>
      <trkpt lat="43.80268" lon="4.18035">
        <ele>131</ele>
        <time>2012-03-11T09:48:28Z</time>
      </trkpt>
      <trkpt lat="43.80266" lon="4.18031">
        <ele>130</ele>
        <time>2012-03-11T09:48:29Z</time>
      </trkpt>
      <trkpt lat="43.80264" lon="4.18026">
        <ele>130</ele>
        <time>2012-03-11T09:48:30Z</time>
      </trkpt>
      <trkpt lat="43.80262" lon="4.18023">
        <ele>130</ele>
        <time>2012-03-11T09:48:31Z</time>
      </trkpt>
      <trkpt lat="43.8026" lon="4.18021">
        <ele>130</ele>
        <time>2012-03-11T09:48:32Z</time>
      </trkpt>
      <trkpt lat="43.80257" lon="4.18021">
        <ele>129</ele>
        <time>2012-03-11T09:48:33Z</time>
      </trkpt>
      <trkpt lat="43.80254" lon="4.18023">
        <ele>129</ele>
        <time>2012-03-11T09:48:34Z</time>
      </trkpt>
      <trkpt lat="43.80252" lon="4.18025">
        <ele>129</ele>
        <time>2012-03-11T09:48:35Z</time>
      </trkpt>
      <trkpt lat="43.80251" lon="4.18028">
        <ele>128</ele>
        <time>2012-03-11T09:48:36Z</time>
      </trkpt>
      <trkpt lat="43.8025" lon="4.1803">
        <ele>128</ele>
        <time>2012-03-11T09:48:37Z</time>
      </trkpt>
      <trkpt lat="43.80249" lon="4.18032">
        <ele>127</ele>
        <time>2012-03-11T09:48:38Z</time>
      </trkpt>
      <trkpt lat="43.80246" lon="4.18033">
        <ele>126</ele>
        <time>2012-03-11T09:48:39Z</time>
      </trkpt>
      <trkpt lat="43.80244" lon="4.18032">
        <ele>126</ele>
        <time>2012-03-11T09:48:40Z</time>
      </trkpt>
      <trkpt lat="43.80241" lon="4.18031">
        <ele>125</ele>
        <time>2012-03-11T09:48:41Z</time>
      </trkpt>
      <trkpt lat="43.80238" lon="4.18029">
        <ele>124</ele>
        <time>2012-03-11T09:48:42Z</time>
      </trkpt>
      <trkpt lat="43.80236" lon="4.18027">
        <ele>124</ele>
        <time>2012-03-11T09:48:43Z</time>
      </trkpt>
      <trkpt lat="43.80232" lon="4.18025">
        <ele>123</ele>
        <time>2012-03-11T09:48:44Z</time>
      </trkpt>
      <trkpt lat="43.80231" lon="4.18024">
        <ele>122</ele>
        <time>2012-03-11T09:48:45Z</time>
      </trkpt>
      <trkpt lat="43.80229" lon="4.18023">
        <ele>121</ele>
        <time>2012-03-11T09:48:46Z</time>
      </trkpt>
      <trkpt lat="43.80226" lon="4.18021">
        <ele>120</ele>
        <time>2012-03-11T09:48:47Z</time>
      </trkpt>
      <trkpt lat="43.80223" lon="4.18017">
        <ele>119</ele>
        <time>2012-03-11T09:48:48Z</time>
      </trkpt>
      <trkpt lat="43.80223" lon="4.18014">
        <ele>118</ele>
        <time>2012-03-11T09:48:49Z</time>
      </trkpt>
      <trkpt lat="43.80223" lon="4.1801">
        <ele>117</ele>
        <time>2012-03-11T09:48:50Z</time>
      </trkpt>
      <trkpt lat="43.80222" lon="4.18005">
        <ele>117</ele>
        <time>2012-03-11T09:48:51Z</time>
      </trkpt>
      <trkpt lat="43.80221" lon="4.18001">
        <ele>116</ele>
        <time>2012-03-11T09:48:52Z</time>
      </trkpt>
      <trkpt lat="43.8022" lon="4.17997">
        <ele>115</ele>
        <time>2012-03-11T09:48:53Z</time>
      </trkpt>
      <trkpt lat="43.8022" lon="4.17992">
        <ele>115</ele>
        <time>2012-03-11T09:48:54Z</time>
      </trkpt>
      <trkpt lat="43.8022" lon="4.17988">
        <ele>115</ele>
        <time>2012-03-11T09:48:55Z</time>
      </trkpt>
      <trkpt lat="43.80222" lon="4.17983">
        <ele>115</ele>
        <time>2012-03-11T09:48:56Z</time>
      </trkpt>
      <trkpt lat="43.80222" lon="4.17978">
        <ele>115</ele>
        <time>2012-03-11T09:48:57Z</time>
      </trkpt>
      <trkpt lat="43.80222" lon="4.17975">
        <ele>115</ele>
        <time>2012-03-11T09:48:58Z</time>
      </trkpt>
      <trkpt lat="43.80221" lon="4.17971">
        <ele>115</ele>
        <time>2012-03-11T09:48:59Z</time>
      </trkpt>
      <trkpt lat="43.8022" lon="4.17966">
        <ele>115</ele>
        <time>2012-03-11T09:49:00Z</time>
      </trkpt>
      <trkpt lat="43.80218" lon="4.17961">
        <ele>115</ele>
        <time>2012-03-11T09:49:01Z</time>
      </trkpt>
      <trkpt lat="43.80215" lon="4.17958">
        <ele>115</ele>
        <time>2012-03-11T09:49:02Z</time>
      </trkpt>
      <trkpt lat="43.80213" lon="4.17957">
        <ele>115</ele>
        <time>2012-03-11T09:49:03Z</time>
      </trkpt>
      <trkpt lat="43.8021" lon="4.17956">
        <ele>115</ele>
        <time>2012-03-11T09:49:04Z</time>
      </trkpt>
      <trkpt lat="43.80208" lon="4.17953">
        <ele>115</ele>
        <time>2012-03-11T09:49:05Z</time>
      </trkpt>
      <trkpt lat="43.80206" lon="4.1795">
        <ele>115</ele>
        <time>2012-03-11T09:49:06Z</time>
      </trkpt>
      <trkpt lat="43.80204" lon="4.17946">
        <ele>115</ele>
        <time>2012-03-11T09:49:07Z</time>
      </trkpt>
      <trkpt lat="43.80202" lon="4.17943">
        <ele>115</ele>
        <time>2012-03-11T09:49:08Z</time>
      </trkpt>
      <trkpt lat="43.80199" lon="4.17942">
        <ele>114</ele>
        <time>2012-03-11T09:49:09Z</time>
      </trkpt>
      <trkpt lat="43.80197" lon="4.17942">
        <ele>114</ele>
        <time>2012-03-11T09:49:10Z</time>
      </trkpt>
      <trkpt lat="43.80194" lon="4.17942">
        <ele>113</ele>
        <time>2012-03-11T09:49:11Z</time>
      </trkpt>
      <trkpt lat="43.80192" lon="4.17941">
        <ele>112</ele>
        <time>2012-03-11T09:49:12Z</time>
      </trkpt>
      <trkpt lat="43.80189" lon="4.17937">
        <ele>111</ele>
        <time>2012-03-11T09:49:13Z</time>
      </trkpt>
      <trkpt lat="43.80186" lon="4.17934">
        <ele>111</ele>
        <time>2012-03-11T09:49:14Z</time>
      </trkpt>
      <trkpt lat="43.80183" lon="4.17933">
        <ele>111</ele>
        <time>2012-03-11T09:49:15Z</time>
      </trkpt>
      <trkpt lat="43.8018" lon="4.17933">
        <ele>110</ele>
        <time>2012-03-11T09:49:16Z</time>
      </trkpt>
      <trkpt lat="43.80177" lon="4.17932">
        <ele>110</ele>
        <time>2012-03-11T09:49:17Z</time>
      </trkpt>
      <trkpt lat="43.80175" lon="4.17933">
        <ele>110</ele>
        <time>2012-03-11T09:49:18Z</time>
      </trkpt>
      <trkpt lat="43.80173" lon="4.17935">
        <ele>110</ele>
        <time>2012-03-11T09:49:19Z</time>
      </trkpt>
      <trkpt lat="43.8017" lon="4.17937">
        <ele>110</ele>
        <time>2012-03-11T09:49:20Z</time>
      </trkpt>
      <trkpt lat="43.80168" lon="4.17939">
        <ele>110</ele>
        <time>2012-03-11T09:49:21Z</time>
      </trkpt>
      <trkpt lat="43.80165" lon="4.1794">
        <ele>109</ele>
        <time>2012-03-11T09:49:22Z</time>
      </trkpt>
      <trkpt lat="43.80162" lon="4.17941">
        <ele>109</ele>
        <time>2012-03-11T09:49:23Z</time>
      </trkpt>
      <trkpt lat="43.80158" lon="4.17938">
        <ele>108</ele>
        <time>2012-03-11T09:49:24Z</time>
      </trkpt>
      <trkpt lat="43.80154" lon="4.17935">
        <ele>107</ele>
        <time>2012-03-11T09:49:25Z</time>
      </trkpt>
      <trkpt lat="43.80149" lon="4.17932">
        <ele>106</ele>
        <time>2012-03-11T09:49:26Z</time>
      </trkpt>
      <trkpt lat="43.80145" lon="4.1793">
        <ele>105</ele>
        <time>2012-03-11T09:49:27Z</time>
      </trkpt>
      <trkpt lat="43.80142" lon="4.17929">
        <ele>105</ele>
        <time>2012-03-11T09:49:28Z</time>
      </trkpt>
      <trkpt lat="43.80139" lon="4.1793">
        <ele>104</ele>
        <time>2012-03-11T09:49:29Z</time>
      </trkpt>
      <trkpt lat="43.80136" lon="4.17931">
        <ele>104</ele>
        <time>2012-03-11T09:49:30Z</time>
      </trkpt>
      <trkpt lat="43.80134" lon="4.17931">
        <ele>103</ele>
        <time>2012-03-11T09:49:31Z</time>
      </trkpt>
      <trkpt lat="43.80132" lon="4.17929">
        <ele>102</ele>
        <time>2012-03-11T09:49:32Z</time>
      </trkpt>
      <trkpt lat="43.80132" lon="4.17927">
        <ele>102</ele>
        <time>2012-03-11T09:49:33Z</time>
      </trkpt>
      <trkpt lat="43.80131" lon="4.17924">
        <ele>102</ele>
        <time>2012-03-11T09:49:34Z</time>
      </trkpt>
      <trkpt lat="43.80129" lon="4.17919">
        <ele>101</ele>
        <time>2012-03-11T09:49:35Z</time>
      </trkpt>
      <trkpt lat="43.80128" lon="4.17913">
        <ele>101</ele>
        <time>2012-03-11T09:49:36Z</time>
      </trkpt>
      <trkpt lat="43.80128" lon="4.17906">
        <ele>101</ele>
        <time>2012-03-11T09:49:37Z</time>
      </trkpt>
      <trkpt lat="43.80127" lon="4.17901">
        <ele>100</ele>
        <time>2012-03-11T09:49:38Z</time>
      </trkpt>
      <trkpt lat="43.8013" lon="4.17893">
        <ele>99</ele>
        <time>2012-03-11T09:49:39Z</time>
      </trkpt>
      <trkpt lat="43.80133" lon="4.17886">
        <ele>98</ele>
        <time>2012-03-11T09:49:40Z</time>
      </trkpt>
      <trkpt lat="43.80133" lon="4.17882">
        <ele>98</ele>
        <time>2012-03-11T09:49:41Z</time>
      </trkpt>
      <trkpt lat="43.80128" lon="4.17886">
        <ele>97</ele>
        <time>2012-03-11T09:49:42Z</time>
      </trkpt>
      <trkpt lat="43.80123" lon="4.1789">
        <ele>97</ele>
        <time>2012-03-11T09:49:43Z</time>
      </trkpt>
      <trkpt lat="43.8012" lon="4.17894">
        <ele>97</ele>
        <time>2012-03-11T09:49:44Z</time>
      </trkpt>
      <trkpt lat="43.80119" lon="4.17896">
        <ele>97</ele>
        <time>2012-03-11T09:49:45Z</time>
      </trkpt>
      <trkpt lat="43.80118" lon="4.17899">
        <ele>97</ele>
        <time>2012-03-11T09:49:46Z</time>
      </trkpt>
      <trkpt lat="43.80117" lon="4.17902">
        <ele>97</ele>
        <time>2012-03-11T09:49:47Z</time>
      </trkpt>
      <trkpt lat="43.80115" lon="4.17904">
        <ele>97</ele>
        <time>2012-03-11T09:49:48Z</time>
      </trkpt>
      <trkpt lat="43.80113" lon="4.17905">
        <ele>97</ele>
        <time>2012-03-11T09:49:49Z</time>
      </trkpt>
      <trkpt lat="43.80109" lon="4.17906">
        <ele>97</ele>
        <time>2012-03-11T09:49:50Z</time>
      </trkpt>
      <trkpt lat="43.80105" lon="4.17906">
        <ele>97</ele>
        <time>2012-03-11T09:49:51Z</time>
      </trkpt>
      <trkpt lat="43.80101" lon="4.17905">
        <ele>96</ele>
        <time>2012-03-11T09:49:52Z</time>
      </trkpt>
      <trkpt lat="43.80097" lon="4.17903">
        <ele>95</ele>
        <time>2012-03-11T09:49:53Z</time>
      </trkpt>
      <trkpt lat="43.80092" lon="4.17902">
        <ele>94</ele>
        <time>2012-03-11T09:49:54Z</time>
      </trkpt>
      <trkpt lat="43.80088" lon="4.17901">
        <ele>94</ele>
        <time>2012-03-11T09:49:55Z</time>
      </trkpt>
      <trkpt lat="43.80082" lon="4.17899">
        <ele>93</ele>
        <time>2012-03-11T09:49:56Z</time>
      </trkpt>
      <trkpt lat="43.80078" lon="4.17895">
        <ele>92</ele>
        <time>2012-03-11T09:49:57Z</time>
      </trkpt>
      <trkpt lat="43.80074" lon="4.17892">
        <ele>91</ele>
        <time>2012-03-11T09:49:58Z</time>
      </trkpt>
      <trkpt lat="43.8007" lon="4.1789">
        <ele>90</ele>
        <time>2012-03-11T09:49:59Z</time>
      </trkpt>
      <trkpt lat="43.80067" lon="4.17888">
        <ele>89</ele>
        <time>2012-03-11T09:50:00Z</time>
      </trkpt>
      <trkpt lat="43.80064" lon="4.17887">
        <ele>88</ele>
        <time>2012-03-11T09:50:01Z</time>
      </trkpt>
      <trkpt lat="43.80061" lon="4.17886">
        <ele>87</ele>
        <time>2012-03-11T09:50:02Z</time>
      </trkpt>
      <trkpt lat="43.80058" lon="4.17884">
        <ele>86</ele>
        <time>2012-03-11T09:50:03Z</time>
      </trkpt>
      <trkpt lat="43.80056" lon="4.17884">
        <ele>85</ele>
        <time>2012-03-11T09:50:04Z</time>
      </trkpt>
      <trkpt lat="43.80053" lon="4.17885">
        <ele>84</ele>
        <time>2012-03-11T09:50:05Z</time>
      </trkpt>
      <trkpt lat="43.80052" lon="4.17885">
        <ele>84</ele>
        <time>2012-03-11T09:50:06Z</time>
      </trkpt>
      <trkpt lat="43.8005" lon="4.17883">
        <ele>84</ele>
        <time>2012-03-11T09:50:07Z</time>
      </trkpt>
      <trkpt lat="43.80047" lon="4.17882">
        <ele>84</ele>
        <time>2012-03-11T09:50:08Z</time>
      </trkpt>
      <trkpt lat="43.80043" lon="4.17881">
        <ele>83</ele>
        <time>2012-03-11T09:50:09Z</time>
      </trkpt>
      <trkpt lat="43.80039" lon="4.17881">
        <ele>83</ele>
        <time>2012-03-11T09:50:10Z</time>
      </trkpt>
      <trkpt lat="43.80035" lon="4.17881">
        <ele>83</ele>
        <time>2012-03-11T09:50:11Z</time>
      </trkpt>
      <trkpt lat="43.80033" lon="4.17881">
        <ele>83</ele>
        <time>2012-03-11T09:50:12Z</time>
      </trkpt>
      <trkpt lat="43.80034" lon="4.1788">
        <ele>83</ele>
        <time>2012-03-11T09:50:17Z</time>
      </trkpt>
      <trkpt lat="43.80036" lon="4.17879">
        <ele>83</ele>
        <time>2012-03-11T09:50:19Z</time>
      </trkpt>
      <trkpt lat="43.80038" lon="4.17879">
        <ele>83</ele>
        <time>2012-03-11T09:50:21Z</time>
      </trkpt>
      <trkpt lat="43.8004" lon="4.17878">
        <ele>83</ele>
        <time>2012-03-11T09:50:23Z</time>
      </trkpt>
      <trkpt lat="43.80042" lon="4.17877">
        <ele>83</ele>
        <time>2012-03-11T09:50:25Z</time>
      </trkpt>
      <trkpt lat="43.80043" lon="4.17876">
        <ele>83</ele>
        <time>2012-03-11T09:50:27Z</time>
      </trkpt>
      <trkpt lat="43.80045" lon="4.17876">
        <ele>83</ele>
        <time>2012-03-11T09:50:29Z</time>
      </trkpt>
      <trkpt lat="43.80046" lon="4.17875">
        <ele>83</ele>
        <time>2012-03-11T09:50:30Z</time>
      </trkpt>
      <trkpt lat="43.80048" lon="4.17873">
        <ele>84</ele>
        <time>2012-03-11T09:50:32Z</time>
      </trkpt>
      <trkpt lat="43.8005" lon="4.17872">
        <ele>85</ele>
        <time>2012-03-11T09:50:34Z</time>
      </trkpt>
      <trkpt lat="43.80051" lon="4.17871">
        <ele>86</ele>
        <time>2012-03-11T09:50:36Z</time>
      </trkpt>
      <trkpt lat="43.80053" lon="4.17869">
        <ele>87</ele>
        <time>2012-03-11T09:50:38Z</time>
      </trkpt>
      <trkpt lat="43.80054" lon="4.17868">
        <ele>89</ele>
        <time>2012-03-11T09:50:42Z</time>
      </trkpt>
      <trkpt lat="43.80055" lon="4.17866">
        <ele>89</ele>
        <time>2012-03-11T09:50:47Z</time>
      </trkpt>
      <trkpt lat="43.80055" lon="4.17865">
        <ele>91</ele>
        <time>2012-03-11T09:50:58Z</time>
      </trkpt>
      <trkpt lat="43.80054" lon="4.17863">
        <ele>92</ele>
        <time>2012-03-11T09:51:11Z</time>
      </trkpt>
      <trkpt lat="43.80053" lon="4.17863">
        <ele>93</ele>
        <time>2012-03-11T09:51:32Z</time>
      </trkpt>
      <trkpt lat="43.80054" lon="4.17863">
        <ele>93</ele>
        <time>2012-03-11T09:51:40Z</time>
      </trkpt>
      <trkpt lat="43.80054" lon="4.17864">
        <ele>93</ele>
        <time>2012-03-11T09:51:55Z</time>
      </trkpt>
      <trkpt lat="43.80055" lon="4.17863">
        <ele>93</ele>
        <time>2012-03-11T09:52:05Z</time>
      </trkpt>
      <trkpt lat="43.80056" lon="4.17862">
        <ele>93</ele>
        <time>2012-03-11T09:52:07Z</time>
      </trkpt>
      <trkpt lat="43.80058" lon="4.1786">
        <ele>93</ele>
        <time>2012-03-11T09:52:08Z</time>
      </trkpt>
      <trkpt lat="43.80059" lon="4.17859">
        <ele>93</ele>
        <time>2012-03-11T09:52:09Z</time>
      </trkpt>
      <trkpt lat="43.80061" lon="4.17858">
        <ele>93</ele>
        <time>2012-03-11T09:52:10Z</time>
      </trkpt>
      <trkpt lat="43.80061" lon="4.1786">
        <ele>93</ele>
        <time>2012-03-11T09:52:16Z</time>
      </trkpt>
      <trkpt lat="43.80063" lon="4.17859">
        <ele>93</ele>
        <time>2012-03-11T09:52:19Z</time>
      </trkpt>
      <trkpt lat="43.80064" lon="4.17858">
        <ele>93</ele>
        <time>2012-03-11T09:52:20Z</time>
      </trkpt>
      <trkpt lat="43.80066" lon="4.17856">
        <ele>93</ele>
        <time>2012-03-11T09:52:21Z</time>
      </trkpt>
      <trkpt lat="43.80067" lon="4.17854">
        <ele>93</ele>
        <time>2012-03-11T09:52:22Z</time>
      </trkpt>
      <trkpt lat="43.80069" lon="4.17852">
        <ele>93</ele>
        <time>2012-03-11T09:52:23Z</time>
      </trkpt>
      <trkpt lat="43.80071" lon="4.1785">
        <ele>92</ele>
        <time>2012-03-11T09:52:24Z</time>
      </trkpt>
      <trkpt lat="43.80073" lon="4.17849">
        <ele>92</ele>
        <time>2012-03-11T09:52:25Z</time>
      </trkpt>
      <trkpt lat="43.80074" lon="4.17847">
        <ele>92</ele>
        <time>2012-03-11T09:52:26Z</time>
      </trkpt>
      <trkpt lat="43.80076" lon="4.17844">
        <ele>92</ele>
        <time>2012-03-11T09:52:27Z</time>
      </trkpt>
      <trkpt lat="43.80077" lon="4.17841">
        <ele>92</ele>
        <time>2012-03-11T09:52:28Z</time>
      </trkpt>
      <trkpt lat="43.80079" lon="4.17839">
        <ele>92</ele>
        <time>2012-03-11T09:52:29Z</time>
      </trkpt>
      <trkpt lat="43.80081" lon="4.17837">
        <ele>92</ele>
        <time>2012-03-11T09:52:30Z</time>
      </trkpt>
      <trkpt lat="43.80083" lon="4.17835">
        <ele>92</ele>
        <time>2012-03-11T09:52:31Z</time>
      </trkpt>
      <trkpt lat="43.80084" lon="4.17833">
        <ele>92</ele>
        <time>2012-03-11T09:52:32Z</time>
      </trkpt>
      <trkpt lat="43.80086" lon="4.17831">
        <ele>92</ele>
        <time>2012-03-11T09:52:33Z</time>
      </trkpt>
      <trkpt lat="43.80088" lon="4.17829">
        <ele>92</ele>
        <time>2012-03-11T09:52:34Z</time>
      </trkpt>
      <trkpt lat="43.80089" lon="4.17827">
        <ele>92</ele>
        <time>2012-03-11T09:52:35Z</time>
      </trkpt>
      <trkpt lat="43.80091" lon="4.17824">
        <ele>92</ele>
        <time>2012-03-11T09:52:36Z</time>
      </trkpt>
      <trkpt lat="43.80093" lon="4.17822">
        <ele>92</ele>
        <time>2012-03-11T09:52:37Z</time>
      </trkpt>
      <trkpt lat="43.80094" lon="4.17819">
        <ele>92</ele>
        <time>2012-03-11T09:52:38Z</time>
      </trkpt>
      <trkpt lat="43.80096" lon="4.17817">
        <ele>92</ele>
        <time>2012-03-11T09:52:39Z</time>
      </trkpt>
      <trkpt lat="43.80098" lon="4.17814">
        <ele>92</ele>
        <time>2012-03-11T09:52:40Z</time>
      </trkpt>
      <trkpt lat="43.801" lon="4.17812">
        <ele>92</ele>
        <time>2012-03-11T09:52:41Z</time>
      </trkpt>
      <trkpt lat="43.80101" lon="4.1781">
        <ele>92</ele>
        <time>2012-03-11T09:52:42Z</time>
      </trkpt>
      <trkpt lat="43.80103" lon="4.17808">
        <ele>92</ele>
        <time>2012-03-11T09:52:43Z</time>
      </trkpt>
      <trkpt lat="43.80105" lon="4.17806">
        <ele>92</ele>
        <time>2012-03-11T09:52:44Z</time>
      </trkpt>
      <trkpt lat="43.80106" lon="4.17803">
        <ele>92</ele>
        <time>2012-03-11T09:52:45Z</time>
      </trkpt>
      <trkpt lat="43.80108" lon="4.17801">
        <ele>92</ele>
        <time>2012-03-11T09:52:46Z</time>
      </trkpt>
      <trkpt lat="43.8011" lon="4.17799">
        <ele>92</ele>
        <time>2012-03-11T09:52:47Z</time>
      </trkpt>
      <trkpt lat="43.80112" lon="4.17797">
        <ele>92</ele>
        <time>2012-03-11T09:52:48Z</time>
      </trkpt>
      <trkpt lat="43.80114" lon="4.17795">
        <ele>92</ele>
        <time>2012-03-11T09:52:49Z</time>
      </trkpt>
      <trkpt lat="43.80116" lon="4.17792">
        <ele>92</ele>
        <time>2012-03-11T09:52:50Z</time>
      </trkpt>
      <trkpt lat="43.80117" lon="4.1779">
        <ele>92</ele>
        <time>2012-03-11T09:52:51Z</time>
      </trkpt>
      <trkpt lat="43.80119" lon="4.17788">
        <ele>92</ele>
        <time>2012-03-11T09:52:52Z</time>
      </trkpt>
      <trkpt lat="43.80121" lon="4.17787">
        <ele>92</ele>
        <time>2012-03-11T09:52:53Z</time>
      </trkpt>
      <trkpt lat="43.80123" lon="4.17785">
        <ele>92</ele>
        <time>2012-03-11T09:52:54Z</time>
      </trkpt>
      <trkpt lat="43.80124" lon="4.17783">
        <ele>92</ele>
        <time>2012-03-11T09:52:55Z</time>
      </trkpt>
      <trkpt lat="43.80126" lon="4.17782">
        <ele>92</ele>
        <time>2012-03-11T09:52:56Z</time>
      </trkpt>
      <trkpt lat="43.80128" lon="4.1778">
        <ele>92</ele>
        <time>2012-03-11T09:52:57Z</time>
      </trkpt>
      <trkpt lat="43.80129" lon="4.17778">
        <ele>92</ele>
        <time>2012-03-11T09:52:58Z</time>
      </trkpt>
      <trkpt lat="43.80131" lon="4.17776">
        <ele>92</ele>
        <time>2012-03-11T09:52:59Z</time>
      </trkpt>
      <trkpt lat="43.80133" lon="4.17773">
        <ele>92</ele>
        <time>2012-03-11T09:53:00Z</time>
      </trkpt>
      <trkpt lat="43.80134" lon="4.17771">
        <ele>92</ele>
        <time>2012-03-11T09:53:01Z</time>
      </trkpt>
      <trkpt lat="43.80136" lon="4.17769">
        <ele>92</ele>
        <time>2012-03-11T09:53:02Z</time>
      </trkpt>
      <trkpt lat="43.80138" lon="4.17768">
        <ele>92</ele>
        <time>2012-03-11T09:53:03Z</time>
      </trkpt>
      <trkpt lat="43.80139" lon="4.17766">
        <ele>92</ele>
        <time>2012-03-11T09:53:04Z</time>
      </trkpt>
      <trkpt lat="43.80141" lon="4.17764">
        <ele>93</ele>
        <time>2012-03-11T09:53:05Z</time>
      </trkpt>
      <trkpt lat="43.80143" lon="4.17763">
        <ele>94</ele>
        <time>2012-03-11T09:53:06Z</time>
      </trkpt>
      <trkpt lat="43.80144" lon="4.17761">
        <ele>94</ele>
        <time>2012-03-11T09:53:07Z</time>
      </trkpt>
      <trkpt lat="43.80145" lon="4.17759">
        <ele>95</ele>
        <time>2012-03-11T09:53:08Z</time>
      </trkpt>
      <trkpt lat="43.80147" lon="4.17756">
        <ele>96</ele>
        <time>2012-03-11T09:53:10Z</time>
      </trkpt>
      <trkpt lat="43.80148" lon="4.17755">
        <ele>96</ele>
        <time>2012-03-11T09:53:11Z</time>
      </trkpt>
      <trkpt lat="43.8015" lon="4.17752">
        <ele>96</ele>
        <time>2012-03-11T09:53:13Z</time>
      </trkpt>
      <trkpt lat="43.80151" lon="4.1775">
        <ele>96</ele>
        <time>2012-03-11T09:53:14Z</time>
      </trkpt>
      <trkpt lat="43.80151" lon="4.17747">
        <ele>97</ele>
        <time>2012-03-11T09:53:16Z</time>
      </trkpt>
      <trkpt lat="43.80153" lon="4.17745">
        <ele>97</ele>
        <time>2012-03-11T09:53:18Z</time>
      </trkpt>
      <trkpt lat="43.80154" lon="4.17743">
        <ele>98</ele>
        <time>2012-03-11T09:53:20Z</time>
      </trkpt>
      <trkpt lat="43.80155" lon="4.17741">
        <ele>98</ele>
        <time>2012-03-11T09:53:22Z</time>
      </trkpt>
      <trkpt lat="43.80156" lon="4.17739">
        <ele>98</ele>
        <time>2012-03-11T09:53:23Z</time>
      </trkpt>
      <trkpt lat="43.80157" lon="4.17737">
        <ele>98</ele>
        <time>2012-03-11T09:53:24Z</time>
      </trkpt>
      <trkpt lat="43.80158" lon="4.17735">
        <ele>98</ele>
        <time>2012-03-11T09:53:25Z</time>
      </trkpt>
      <trkpt lat="43.80159" lon="4.17734">
        <ele>98</ele>
        <time>2012-03-11T09:53:26Z</time>
      </trkpt>
      <trkpt lat="43.8016" lon="4.17732">
        <ele>98</ele>
        <time>2012-03-11T09:53:27Z</time>
      </trkpt>
      <trkpt lat="43.80162" lon="4.1773">
        <ele>98</ele>
        <time>2012-03-11T09:53:28Z</time>
      </trkpt>
      <trkpt lat="43.80163" lon="4.17728">
        <ele>98</ele>
        <time>2012-03-11T09:53:29Z</time>
      </trkpt>
      <trkpt lat="43.80165" lon="4.17726">
        <ele>98</ele>
        <time>2012-03-11T09:53:30Z</time>
      </trkpt>
      <trkpt lat="43.80167" lon="4.17724">
        <ele>98</ele>
        <time>2012-03-11T09:53:31Z</time>
      </trkpt>
      <trkpt lat="43.80168" lon="4.17722">
        <ele>98</ele>
        <time>2012-03-11T09:53:32Z</time>
      </trkpt>
      <trkpt lat="43.80169" lon="4.1772">
        <ele>99</ele>
        <time>2012-03-11T09:53:33Z</time>
      </trkpt>
      <trkpt lat="43.80171" lon="4.17718">
        <ele>99</ele>
        <time>2012-03-11T09:53:34Z</time>
      </trkpt>
      <trkpt lat="43.80172" lon="4.17716">
        <ele>99</ele>
        <time>2012-03-11T09:53:35Z</time>
      </trkpt>
      <trkpt lat="43.80173" lon="4.17714">
        <ele>99</ele>
        <time>2012-03-11T09:53:36Z</time>
      </trkpt>
      <trkpt lat="43.80175" lon="4.17712">
        <ele>99</ele>
        <time>2012-03-11T09:53:37Z</time>
      </trkpt>
      <trkpt lat="43.80176" lon="4.1771">
        <ele>99</ele>
        <time>2012-03-11T09:53:38Z</time>
      </trkpt>
      <trkpt lat="43.80177" lon="4.17708">
        <ele>99</ele>
        <time>2012-03-11T09:53:39Z</time>
      </trkpt>
      <trkpt lat="43.80179" lon="4.17706">
        <ele>99</ele>
        <time>2012-03-11T09:53:40Z</time>
      </trkpt>
      <trkpt lat="43.8018" lon="4.17705">
        <ele>99</ele>
        <time>2012-03-11T09:53:41Z</time>
      </trkpt>
      <trkpt lat="43.80182" lon="4.17704">
        <ele>99</ele>
        <time>2012-03-11T09:53:42Z</time>
      </trkpt>
      <trkpt lat="43.80183" lon="4.17701">
        <ele>99</ele>
        <time>2012-03-11T09:53:43Z</time>
      </trkpt>
      <trkpt lat="43.80185" lon="4.17699">
        <ele>99</ele>
        <time>2012-03-11T09:53:44Z</time>
      </trkpt>
      <trkpt lat="43.80186" lon="4.17697">
        <ele>99</ele>
        <time>2012-03-11T09:53:45Z</time>
      </trkpt>
      <trkpt lat="43.80188" lon="4.17696">
        <ele>99</ele>
        <time>2012-03-11T09:53:46Z</time>
      </trkpt>
      <trkpt lat="43.80189" lon="4.17694">
        <ele>99</ele>
        <time>2012-03-11T09:53:47Z</time>
      </trkpt>
      <trkpt lat="43.8019" lon="4.17692">
        <ele>99</ele>
        <time>2012-03-11T09:53:48Z</time>
      </trkpt>
      <trkpt lat="43.80192" lon="4.17689">
        <ele>99</ele>
        <time>2012-03-11T09:53:50Z</time>
      </trkpt>
      <trkpt lat="43.80193" lon="4.17688">
        <ele>99</ele>
        <time>2012-03-11T09:53:51Z</time>
      </trkpt>
      <trkpt lat="43.80194" lon="4.17686">
        <ele>99</ele>
        <time>2012-03-11T09:53:52Z</time>
      </trkpt>
      <trkpt lat="43.80195" lon="4.17684">
        <ele>100</ele>
        <time>2012-03-11T09:53:53Z</time>
      </trkpt>
      <trkpt lat="43.80196" lon="4.17682">
        <ele>100</ele>
        <time>2012-03-11T09:53:54Z</time>
      </trkpt>
      <trkpt lat="43.80197" lon="4.17679">
        <ele>100</ele>
        <time>2012-03-11T09:53:56Z</time>
      </trkpt>
      <trkpt lat="43.80198" lon="4.17677">
        <ele>101</ele>
        <time>2012-03-11T09:53:57Z</time>
      </trkpt>
      <trkpt lat="43.80199" lon="4.17676">
        <ele>101</ele>
        <time>2012-03-11T09:53:58Z</time>
      </trkpt>
      <trkpt lat="43.802" lon="4.17674">
        <ele>101</ele>
        <time>2012-03-11T09:54:00Z</time>
      </trkpt>
      <trkpt lat="43.80202" lon="4.17672">
        <ele>101</ele>
        <time>2012-03-11T09:54:02Z</time>
      </trkpt>
      <trkpt lat="43.80204" lon="4.1767">
        <ele>101</ele>
        <time>2012-03-11T09:54:04Z</time>
      </trkpt>
      <trkpt lat="43.80205" lon="4.17666">
        <ele>101</ele>
        <time>2012-03-11T09:54:06Z</time>
      </trkpt>
      <trkpt lat="43.80207" lon="4.17664">
        <ele>102</ele>
        <time>2012-03-11T09:54:07Z</time>
      </trkpt>
      <trkpt lat="43.80208" lon="4.17663">
        <ele>102</ele>
        <time>2012-03-11T09:54:08Z</time>
      </trkpt>
      <trkpt lat="43.80209" lon="4.17662">
        <ele>102</ele>
        <time>2012-03-11T09:54:09Z</time>
      </trkpt>
      <trkpt lat="43.80211" lon="4.17661">
        <ele>103</ele>
        <time>2012-03-11T09:54:10Z</time>
      </trkpt>
      <trkpt lat="43.80212" lon="4.1766">
        <ele>104</ele>
        <time>2012-03-11T09:54:11Z</time>
      </trkpt>
      <trkpt lat="43.80213" lon="4.17659">
        <ele>104</ele>
        <time>2012-03-11T09:54:12Z</time>
      </trkpt>
      <trkpt lat="43.80214" lon="4.17657">
        <ele>105</ele>
        <time>2012-03-11T09:54:13Z</time>
      </trkpt>
      <trkpt lat="43.80215" lon="4.17656">
        <ele>105</ele>
        <time>2012-03-11T09:54:14Z</time>
      </trkpt>
      <trkpt lat="43.80216" lon="4.17654">
        <ele>106</ele>
        <time>2012-03-11T09:54:15Z</time>
      </trkpt>
      <trkpt lat="43.80217" lon="4.17653">
        <ele>106</ele>
        <time>2012-03-11T09:54:16Z</time>
      </trkpt>
      <trkpt lat="43.80219" lon="4.17652">
        <ele>107</ele>
        <time>2012-03-11T09:54:17Z</time>
      </trkpt>
      <trkpt lat="43.8022" lon="4.17651">
        <ele>107</ele>
        <time>2012-03-11T09:54:18Z</time>
      </trkpt>
      <trkpt lat="43.80221" lon="4.17649">
        <ele>108</ele>
        <time>2012-03-11T09:54:19Z</time>
      </trkpt>
      <trkpt lat="43.80222" lon="4.17647">
        <ele>109</ele>
        <time>2012-03-11T09:54:20Z</time>
      </trkpt>
      <trkpt lat="43.80223" lon="4.17645">
        <ele>109</ele>
        <time>2012-03-11T09:54:22Z</time>
      </trkpt>
      <trkpt lat="43.80225" lon="4.17642">
        <ele>110</ele>
        <time>2012-03-11T09:54:23Z</time>
      </trkpt>
      <trkpt lat="43.80226" lon="4.1764">
        <ele>110</ele>
        <time>2012-03-11T09:54:24Z</time>
      </trkpt>
      <trkpt lat="43.80228" lon="4.17638">
        <ele>110</ele>
        <time>2012-03-11T09:54:25Z</time>
      </trkpt>
      <trkpt lat="43.80229" lon="4.17636">
        <ele>111</ele>
        <time>2012-03-11T09:54:26Z</time>
      </trkpt>
      <trkpt lat="43.8023" lon="4.17634">
        <ele>111</ele>
        <time>2012-03-11T09:54:27Z</time>
      </trkpt>
      <trkpt lat="43.80231" lon="4.17632">
        <ele>111</ele>
        <time>2012-03-11T09:54:28Z</time>
      </trkpt>
      <trkpt lat="43.80233" lon="4.17629">
        <ele>111</ele>
        <time>2012-03-11T09:54:30Z</time>
      </trkpt>
      <trkpt lat="43.80234" lon="4.17627">
        <ele>111</ele>
        <time>2012-03-11T09:54:31Z</time>
      </trkpt>
      <trkpt lat="43.80236" lon="4.17626">
        <ele>111</ele>
        <time>2012-03-11T09:54:32Z</time>
      </trkpt>
      <trkpt lat="43.80237" lon="4.17625">
        <ele>111</ele>
        <time>2012-03-11T09:54:33Z</time>
      </trkpt>
      <trkpt lat="43.80238" lon="4.17623">
        <ele>111</ele>
        <time>2012-03-11T09:54:34Z</time>
      </trkpt>
      <trkpt lat="43.8024" lon="4.17621">
        <ele>111</ele>
        <time>2012-03-11T09:54:35Z</time>
      </trkpt>
      <trkpt lat="43.80242" lon="4.17619">
        <ele>112</ele>
        <time>2012-03-11T09:54:36Z</time>
      </trkpt>
      <trkpt lat="43.80244" lon="4.17617">
        <ele>112</ele>
        <time>2012-03-11T09:54:38Z</time>
      </trkpt>
      <trkpt lat="43.80245" lon="4.17616">
        <ele>112</ele>
        <time>2012-03-11T09:54:39Z</time>
      </trkpt>
      <trkpt lat="43.80247" lon="4.17614">
        <ele>112</ele>
        <time>2012-03-11T09:54:40Z</time>
      </trkpt>
      <trkpt lat="43.80249" lon="4.17612">
        <ele>112</ele>
        <time>2012-03-11T09:54:41Z</time>
      </trkpt>
      <trkpt lat="43.8025" lon="4.17611">
        <ele>112</ele>
        <time>2012-03-11T09:54:42Z</time>
      </trkpt>
      <trkpt lat="43.80251" lon="4.17609">
        <ele>113</ele>
        <time>2012-03-11T09:54:43Z</time>
      </trkpt>
      <trkpt lat="43.80254" lon="4.17606">
        <ele>114</ele>
        <time>2012-03-11T09:54:45Z</time>
      </trkpt>
      <trkpt lat="43.80255" lon="4.17605">
        <ele>114</ele>
        <time>2012-03-11T09:54:46Z</time>
      </trkpt>
      <trkpt lat="43.80256" lon="4.17603">
        <ele>114</ele>
        <time>2012-03-11T09:54:47Z</time>
      </trkpt>
      <trkpt lat="43.80257" lon="4.176">
        <ele>115</ele>
        <time>2012-03-11T09:54:48Z</time>
      </trkpt>
      <trkpt lat="43.80259" lon="4.17598">
        <ele>115</ele>
        <time>2012-03-11T09:54:49Z</time>
      </trkpt>
      <trkpt lat="43.8026" lon="4.17596">
        <ele>115</ele>
        <time>2012-03-11T09:54:50Z</time>
      </trkpt>
      <trkpt lat="43.80262" lon="4.17594">
        <ele>115</ele>
        <time>2012-03-11T09:54:51Z</time>
      </trkpt>
      <trkpt lat="43.80264" lon="4.17591">
        <ele>115</ele>
        <time>2012-03-11T09:54:52Z</time>
      </trkpt>
      <trkpt lat="43.80265" lon="4.17589">
        <ele>116</ele>
        <time>2012-03-11T09:54:53Z</time>
      </trkpt>
      <trkpt lat="43.80267" lon="4.17587">
        <ele>116</ele>
        <time>2012-03-11T09:54:54Z</time>
      </trkpt>
      <trkpt lat="43.8027" lon="4.17584">
        <ele>117</ele>
        <time>2012-03-11T09:54:55Z</time>
      </trkpt>
      <trkpt lat="43.80271" lon="4.17583">
        <ele>117</ele>
        <time>2012-03-11T09:54:56Z</time>
      </trkpt>
      <trkpt lat="43.80273" lon="4.17581">
        <ele>118</ele>
        <time>2012-03-11T09:54:57Z</time>
      </trkpt>
      <trkpt lat="43.80275" lon="4.17579">
        <ele>118</ele>
        <time>2012-03-11T09:54:58Z</time>
      </trkpt>
      <trkpt lat="43.80277" lon="4.17576">
        <ele>118</ele>
        <time>2012-03-11T09:54:59Z</time>
      </trkpt>
      <trkpt lat="43.80279" lon="4.17574">
        <ele>119</ele>
        <time>2012-03-11T09:55:00Z</time>
      </trkpt>
      <trkpt lat="43.80281" lon="4.17571">
        <ele>119</ele>
        <time>2012-03-11T09:55:01Z</time>
      </trkpt>
      <trkpt lat="43.80284" lon="4.17569">
        <ele>119</ele>
        <time>2012-03-11T09:55:02Z</time>
      </trkpt>
      <trkpt lat="43.80286" lon="4.17566">
        <ele>119</ele>
        <time>2012-03-11T09:55:03Z</time>
      </trkpt>
      <trkpt lat="43.80289" lon="4.17563">
        <ele>119</ele>
        <time>2012-03-11T09:55:04Z</time>
      </trkpt>
      <trkpt lat="43.80291" lon="4.17561">
        <ele>119</ele>
        <time>2012-03-11T09:55:05Z</time>
      </trkpt>
      <trkpt lat="43.80293" lon="4.17559">
        <ele>119</ele>
        <time>2012-03-11T09:55:06Z</time>
      </trkpt>
      <trkpt lat="43.80295" lon="4.17557">
        <ele>119</ele>
        <time>2012-03-11T09:55:07Z</time>
      </trkpt>
      <trkpt lat="43.80297" lon="4.17555">
        <ele>119</ele>
        <time>2012-03-11T09:55:08Z</time>
      </trkpt>
      <trkpt lat="43.80299" lon="4.17553">
        <ele>119</ele>
        <time>2012-03-11T09:55:09Z</time>
      </trkpt>
      <trkpt lat="43.80301" lon="4.17551">
        <ele>119</ele>
        <time>2012-03-11T09:55:10Z</time>
      </trkpt>
      <trkpt lat="43.80303" lon="4.17549">
        <ele>119</ele>
        <time>2012-03-11T09:55:11Z</time>
      </trkpt>
      <trkpt lat="43.80305" lon="4.17548">
        <ele>119</ele>
        <time>2012-03-11T09:55:12Z</time>
      </trkpt>
      <trkpt lat="43.80307" lon="4.17546">
        <ele>119</ele>
        <time>2012-03-11T09:55:13Z</time>
      </trkpt>
      <trkpt lat="43.80309" lon="4.17544">
        <ele>119</ele>
        <time>2012-03-11T09:55:14Z</time>
      </trkpt>
      <trkpt lat="43.80311" lon="4.17542">
        <ele>120</ele>
        <time>2012-03-11T09:55:15Z</time>
      </trkpt>
      <trkpt lat="43.80312" lon="4.1754">
        <ele>120</ele>
        <time>2012-03-11T09:55:16Z</time>
      </trkpt>
      <trkpt lat="43.80315" lon="4.17538">
        <ele>121</ele>
        <time>2012-03-11T09:55:17Z</time>
      </trkpt>
      <trkpt lat="43.80316" lon="4.17537">
        <ele>121</ele>
        <time>2012-03-11T09:55:18Z</time>
      </trkpt>
      <trkpt lat="43.80318" lon="4.17536">
        <ele>121</ele>
        <time>2012-03-11T09:55:19Z</time>
      </trkpt>
      <trkpt lat="43.8032" lon="4.17534">
        <ele>122</ele>
        <time>2012-03-11T09:55:20Z</time>
      </trkpt>
      <trkpt lat="43.80322" lon="4.17533">
        <ele>122</ele>
        <time>2012-03-11T09:55:21Z</time>
      </trkpt>
      <trkpt lat="43.80323" lon="4.17531">
        <ele>123</ele>
        <time>2012-03-11T09:55:22Z</time>
      </trkpt>
      <trkpt lat="43.80325" lon="4.17529">
        <ele>123</ele>
        <time>2012-03-11T09:55:23Z</time>
      </trkpt>
      <trkpt lat="43.80327" lon="4.17527">
        <ele>123</ele>
        <time>2012-03-11T09:55:24Z</time>
      </trkpt>
      <trkpt lat="43.80329" lon="4.17525">
        <ele>123</ele>
        <time>2012-03-11T09:55:25Z</time>
      </trkpt>
      <trkpt lat="43.80331" lon="4.17523">
        <ele>123</ele>
        <time>2012-03-11T09:55:26Z</time>
      </trkpt>
      <trkpt lat="43.80333" lon="4.17522">
        <ele>123</ele>
        <time>2012-03-11T09:55:27Z</time>
      </trkpt>
      <trkpt lat="43.80334" lon="4.17521">
        <ele>123</ele>
        <time>2012-03-11T09:55:28Z</time>
      </trkpt>
      <trkpt lat="43.80336" lon="4.17519">
        <ele>123</ele>
        <time>2012-03-11T09:55:29Z</time>
      </trkpt>
      <trkpt lat="43.80338" lon="4.17518">
        <ele>123</ele>
        <time>2012-03-11T09:55:30Z</time>
      </trkpt>
      <trkpt lat="43.8034" lon="4.17517">
        <ele>123</ele>
        <time>2012-03-11T09:55:31Z</time>
      </trkpt>
      <trkpt lat="43.80342" lon="4.17516">
        <ele>123</ele>
        <time>2012-03-11T09:55:32Z</time>
      </trkpt>
      <trkpt lat="43.80344" lon="4.17516">
        <ele>123</ele>
        <time>2012-03-11T09:55:33Z</time>
      </trkpt>
      <trkpt lat="43.80346" lon="4.17515">
        <ele>123</ele>
        <time>2012-03-11T09:55:34Z</time>
      </trkpt>
      <trkpt lat="43.80348" lon="4.17515">
        <ele>123</ele>
        <time>2012-03-11T09:55:35Z</time>
      </trkpt>
      <trkpt lat="43.8035" lon="4.17515">
        <ele>123</ele>
        <time>2012-03-11T09:55:36Z</time>
      </trkpt>
      <trkpt lat="43.80352" lon="4.17515">
        <ele>123</ele>
        <time>2012-03-11T09:55:37Z</time>
      </trkpt>
      <trkpt lat="43.80354" lon="4.17515">
        <ele>123</ele>
        <time>2012-03-11T09:55:38Z</time>
      </trkpt>
      <trkpt lat="43.80356" lon="4.17516">
        <ele>123</ele>
        <time>2012-03-11T09:55:39Z</time>
      </trkpt>
      <trkpt lat="43.80358" lon="4.17516">
        <ele>123</ele>
        <time>2012-03-11T09:55:40Z</time>
      </trkpt>
      <trkpt lat="43.8036" lon="4.17517">
        <ele>123</ele>
        <time>2012-03-11T09:55:41Z</time>
      </trkpt>
      <trkpt lat="43.80362" lon="4.17517">
        <ele>123</ele>
        <time>2012-03-11T09:55:42Z</time>
      </trkpt>
      <trkpt lat="43.80365" lon="4.17517">
        <ele>124</ele>
        <time>2012-03-11T09:55:43Z</time>
      </trkpt>
      <trkpt lat="43.80366" lon="4.17517">
        <ele>124</ele>
        <time>2012-03-11T09:55:44Z</time>
      </trkpt>
      <trkpt lat="43.80368" lon="4.17516">
        <ele>124</ele>
        <time>2012-03-11T09:55:45Z</time>
      </trkpt>
      <trkpt lat="43.8037" lon="4.17516">
        <ele>124</ele>
        <time>2012-03-11T09:55:46Z</time>
      </trkpt>
      <trkpt lat="43.80372" lon="4.17515">
        <ele>125</ele>
        <time>2012-03-11T09:55:47Z</time>
      </trkpt>
      <trkpt lat="43.80373" lon="4.17514">
        <ele>125</ele>
        <time>2012-03-11T09:55:48Z</time>
      </trkpt>
      <trkpt lat="43.80375" lon="4.17513">
        <ele>125</ele>
        <time>2012-03-11T09:55:49Z</time>
      </trkpt>
      <trkpt lat="43.80377" lon="4.17512">
        <ele>125</ele>
        <time>2012-03-11T09:55:50Z</time>
      </trkpt>
      <trkpt lat="43.80379" lon="4.1751">
        <ele>125</ele>
        <time>2012-03-11T09:55:51Z</time>
      </trkpt>
      <trkpt lat="43.8038" lon="4.17509">
        <ele>125</ele>
        <time>2012-03-11T09:55:52Z</time>
      </trkpt>
      <trkpt lat="43.80381" lon="4.17507">
        <ele>125</ele>
        <time>2012-03-11T09:55:53Z</time>
      </trkpt>
      <trkpt lat="43.80383" lon="4.17505">
        <ele>125</ele>
        <time>2012-03-11T09:55:54Z</time>
      </trkpt>
      <trkpt lat="43.80384" lon="4.17503">
        <ele>125</ele>
        <time>2012-03-11T09:55:55Z</time>
      </trkpt>
      <trkpt lat="43.80385" lon="4.17501">
        <ele>125</ele>
        <time>2012-03-11T09:55:56Z</time>
      </trkpt>
      <trkpt lat="43.80386" lon="4.17499">
        <ele>125</ele>
        <time>2012-03-11T09:55:57Z</time>
      </trkpt>
      <trkpt lat="43.80386" lon="4.17498">
        <ele>125</ele>
        <time>2012-03-11T09:55:58Z</time>
      </trkpt>
      <trkpt lat="43.80387" lon="4.17495">
        <ele>125</ele>
        <time>2012-03-11T09:55:59Z</time>
      </trkpt>
      <trkpt lat="43.80388" lon="4.17493">
        <ele>126</ele>
        <time>2012-03-11T09:56:00Z</time>
      </trkpt>
      <trkpt lat="43.80389" lon="4.1749">
        <ele>126</ele>
        <time>2012-03-11T09:56:01Z</time>
      </trkpt>
      <trkpt lat="43.8039" lon="4.17488">
        <ele>126</ele>
        <time>2012-03-11T09:56:02Z</time>
      </trkpt>
      <trkpt lat="43.80391" lon="4.17485">
        <ele>126</ele>
        <time>2012-03-11T09:56:03Z</time>
      </trkpt>
      <trkpt lat="43.80392" lon="4.17483">
        <ele>127</ele>
        <time>2012-03-11T09:56:04Z</time>
      </trkpt>
      <trkpt lat="43.80392" lon="4.17481">
        <ele>127</ele>
        <time>2012-03-11T09:56:05Z</time>
      </trkpt>
      <trkpt lat="43.80394" lon="4.17479">
        <ele>127</ele>
        <time>2012-03-11T09:56:06Z</time>
      </trkpt>
      <trkpt lat="43.80394" lon="4.17477">
        <ele>127</ele>
        <time>2012-03-11T09:56:07Z</time>
      </trkpt>
      <trkpt lat="43.80395" lon="4.17474">
        <ele>127</ele>
        <time>2012-03-11T09:56:08Z</time>
      </trkpt>
      <trkpt lat="43.80395" lon="4.17472">
        <ele>128</ele>
        <time>2012-03-11T09:56:09Z</time>
      </trkpt>
      <trkpt lat="43.80396" lon="4.1747">
        <ele>128</ele>
        <time>2012-03-11T09:56:10Z</time>
      </trkpt>
      <trkpt lat="43.80397" lon="4.17468">
        <ele>128</ele>
        <time>2012-03-11T09:56:11Z</time>
      </trkpt>
      <trkpt lat="43.80397" lon="4.17465">
        <ele>129</ele>
        <time>2012-03-11T09:56:12Z</time>
      </trkpt>
      <trkpt lat="43.80397" lon="4.17463">
        <ele>129</ele>
        <time>2012-03-11T09:56:13Z</time>
      </trkpt>
      <trkpt lat="43.80397" lon="4.17461">
        <ele>129</ele>
        <time>2012-03-11T09:56:14Z</time>
      </trkpt>
      <trkpt lat="43.80397" lon="4.17459">
        <ele>129</ele>
        <time>2012-03-11T09:56:15Z</time>
      </trkpt>
      <trkpt lat="43.80398" lon="4.17456">
        <ele>129</ele>
        <time>2012-03-11T09:56:16Z</time>
      </trkpt>
      <trkpt lat="43.80398" lon="4.17453">
        <ele>129</ele>
        <time>2012-03-11T09:56:17Z</time>
      </trkpt>
      <trkpt lat="43.80398" lon="4.17451">
        <ele>129</ele>
        <time>2012-03-11T09:56:18Z</time>
      </trkpt>
      <trkpt lat="43.80398" lon="4.17449">
        <ele>129</ele>
        <time>2012-03-11T09:56:19Z</time>
      </trkpt>
      <trkpt lat="43.80399" lon="4.17445">
        <ele>129</ele>
        <time>2012-03-11T09:56:20Z</time>
      </trkpt>
      <trkpt lat="43.80399" lon="4.17443">
        <ele>129</ele>
        <time>2012-03-11T09:56:21Z</time>
      </trkpt>
      <trkpt lat="43.80399" lon="4.17441">
        <ele>129</ele>
        <time>2012-03-11T09:56:22Z</time>
      </trkpt>
      <trkpt lat="43.80398" lon="4.17438">
        <ele>129</ele>
        <time>2012-03-11T09:56:23Z</time>
      </trkpt>
      <trkpt lat="43.80398" lon="4.17435">
        <ele>130</ele>
        <time>2012-03-11T09:56:24Z</time>
      </trkpt>
      <trkpt lat="43.80398" lon="4.17432">
        <ele>130</ele>
        <time>2012-03-11T09:56:25Z</time>
      </trkpt>
      <trkpt lat="43.80397" lon="4.17429">
        <ele>130</ele>
        <time>2012-03-11T09:56:26Z</time>
      </trkpt>
      <trkpt lat="43.80397" lon="4.17426">
        <ele>130</ele>
        <time>2012-03-11T09:56:27Z</time>
      </trkpt>
      <trkpt lat="43.80397" lon="4.17424">
        <ele>131</ele>
        <time>2012-03-11T09:56:28Z</time>
      </trkpt>
      <trkpt lat="43.80397" lon="4.17421">
        <ele>131</ele>
        <time>2012-03-11T09:56:29Z</time>
      </trkpt>
      <trkpt lat="43.80396" lon="4.17419">
        <ele>131</ele>
        <time>2012-03-11T09:56:30Z</time>
      </trkpt>
      <trkpt lat="43.80396" lon="4.17416">
        <ele>131</ele>
        <time>2012-03-11T09:56:31Z</time>
      </trkpt>
      <trkpt lat="43.80395" lon="4.17414">
        <ele>131</ele>
        <time>2012-03-11T09:56:32Z</time>
      </trkpt>
      <trkpt lat="43.80394" lon="4.17411">
        <ele>131</ele>
        <time>2012-03-11T09:56:33Z</time>
      </trkpt>
      <trkpt lat="43.80394" lon="4.17408">
        <ele>131</ele>
        <time>2012-03-11T09:56:34Z</time>
      </trkpt>
      <trkpt lat="43.80394" lon="4.17405">
        <ele>131</ele>
        <time>2012-03-11T09:56:35Z</time>
      </trkpt>
      <trkpt lat="43.80394" lon="4.17402">
        <ele>131</ele>
        <time>2012-03-11T09:56:36Z</time>
      </trkpt>
      <trkpt lat="43.80395" lon="4.174">
        <ele>131</ele>
        <time>2012-03-11T09:56:37Z</time>
      </trkpt>
      <trkpt lat="43.80395" lon="4.17397">
        <ele>131</ele>
        <time>2012-03-11T09:56:38Z</time>
      </trkpt>
      <trkpt lat="43.80395" lon="4.17394">
        <ele>131</ele>
        <time>2012-03-11T09:56:39Z</time>
      </trkpt>
      <trkpt lat="43.80396" lon="4.17392">
        <ele>131</ele>
        <time>2012-03-11T09:56:40Z</time>
      </trkpt>
      <trkpt lat="43.80396" lon="4.17389">
        <ele>131</ele>
        <time>2012-03-11T09:56:41Z</time>
      </trkpt>
      <trkpt lat="43.80396" lon="4.17387">
        <ele>131</ele>
        <time>2012-03-11T09:56:42Z</time>
      </trkpt>
      <trkpt lat="43.80397" lon="4.17385">
        <ele>131</ele>
        <time>2012-03-11T09:56:43Z</time>
      </trkpt>
      <trkpt lat="43.80397" lon="4.17383">
        <ele>131</ele>
        <time>2012-03-11T09:56:44Z</time>
      </trkpt>
      <trkpt lat="43.80398" lon="4.17381">
        <ele>131</ele>
        <time>2012-03-11T09:56:45Z</time>
      </trkpt>
      <trkpt lat="43.80399" lon="4.17378">
        <ele>131</ele>
        <time>2012-03-11T09:56:46Z</time>
      </trkpt>
      <trkpt lat="43.80399" lon="4.17376">
        <ele>131</ele>
        <time>2012-03-11T09:56:47Z</time>
      </trkpt>
      <trkpt lat="43.804" lon="4.17374">
        <ele>131</ele>
        <time>2012-03-11T09:56:48Z</time>
      </trkpt>
      <trkpt lat="43.804" lon="4.17372">
        <ele>131</ele>
        <time>2012-03-11T09:56:49Z</time>
      </trkpt>
      <trkpt lat="43.80401" lon="4.1737">
        <ele>132</ele>
        <time>2012-03-11T09:56:50Z</time>
      </trkpt>
      <trkpt lat="43.80402" lon="4.17368">
        <ele>132</ele>
        <time>2012-03-11T09:56:51Z</time>
      </trkpt>
      <trkpt lat="43.80402" lon="4.17366">
        <ele>133</ele>
        <time>2012-03-11T09:56:52Z</time>
      </trkpt>
      <trkpt lat="43.80403" lon="4.17364">
        <ele>133</ele>
        <time>2012-03-11T09:56:53Z</time>
      </trkpt>
      <trkpt lat="43.80404" lon="4.17362">
        <ele>133</ele>
        <time>2012-03-11T09:56:54Z</time>
      </trkpt>
      <trkpt lat="43.80404" lon="4.17359">
        <ele>133</ele>
        <time>2012-03-11T09:56:55Z</time>
      </trkpt>
      <trkpt lat="43.80405" lon="4.17357">
        <ele>134</ele>
        <time>2012-03-11T09:56:56Z</time>
      </trkpt>
      <trkpt lat="43.80406" lon="4.17354">
        <ele>134</ele>
        <time>2012-03-11T09:56:57Z</time>
      </trkpt>
      <trkpt lat="43.80407" lon="4.17352">
        <ele>134</ele>
        <time>2012-03-11T09:56:58Z</time>
      </trkpt>
      <trkpt lat="43.80408" lon="4.1735">
        <ele>134</ele>
        <time>2012-03-11T09:56:59Z</time>
      </trkpt>
      <trkpt lat="43.80408" lon="4.17348">
        <ele>134</ele>
        <time>2012-03-11T09:57:00Z</time>
      </trkpt>
      <trkpt lat="43.8041" lon="4.17346">
        <ele>134</ele>
        <time>2012-03-11T09:57:01Z</time>
      </trkpt>
      <trkpt lat="43.80411" lon="4.17343">
        <ele>134</ele>
        <time>2012-03-11T09:57:02Z</time>
      </trkpt>
      <trkpt lat="43.80411" lon="4.17342">
        <ele>135</ele>
        <time>2012-03-11T09:57:03Z</time>
      </trkpt>
      <trkpt lat="43.80412" lon="4.1734">
        <ele>135</ele>
        <time>2012-03-11T09:57:04Z</time>
      </trkpt>
      <trkpt lat="43.80413" lon="4.17338">
        <ele>135</ele>
        <time>2012-03-11T09:57:05Z</time>
      </trkpt>
      <trkpt lat="43.80413" lon="4.17337">
        <ele>135</ele>
        <time>2012-03-11T09:57:06Z</time>
      </trkpt>
      <trkpt lat="43.80413" lon="4.17335">
        <ele>136</ele>
        <time>2012-03-11T09:57:07Z</time>
      </trkpt>
      <trkpt lat="43.80414" lon="4.17333">
        <ele>136</ele>
        <time>2012-03-11T09:57:08Z</time>
      </trkpt>
      <trkpt lat="43.80415" lon="4.17331">
        <ele>136</ele>
        <time>2012-03-11T09:57:09Z</time>
      </trkpt>
      <trkpt lat="43.80416" lon="4.17329">
        <ele>136</ele>
        <time>2012-03-11T09:57:10Z</time>
      </trkpt>
      <trkpt lat="43.80417" lon="4.17326">
        <ele>137</ele>
        <time>2012-03-11T09:57:11Z</time>
      </trkpt>
      <trkpt lat="43.80418" lon="4.17324">
        <ele>137</ele>
        <time>2012-03-11T09:57:12Z</time>
      </trkpt>
      <trkpt lat="43.80418" lon="4.17322">
        <ele>137</ele>
        <time>2012-03-11T09:57:13Z</time>
      </trkpt>
      <trkpt lat="43.80419" lon="4.17319">
        <ele>138</ele>
        <time>2012-03-11T09:57:14Z</time>
      </trkpt>
      <trkpt lat="43.8042" lon="4.17317">
        <ele>138</ele>
        <time>2012-03-11T09:57:15Z</time>
      </trkpt>
      <trkpt lat="43.80421" lon="4.17315">
        <ele>138</ele>
        <time>2012-03-11T09:57:16Z</time>
      </trkpt>
      <trkpt lat="43.80421" lon="4.17313">
        <ele>138</ele>
        <time>2012-03-11T09:57:17Z</time>
      </trkpt>
      <trkpt lat="43.80422" lon="4.1731">
        <ele>139</ele>
        <time>2012-03-11T09:57:18Z</time>
      </trkpt>
      <trkpt lat="43.80423" lon="4.17309">
        <ele>139</ele>
        <time>2012-03-11T09:57:20Z</time>
      </trkpt>
      <trkpt lat="43.80423" lon="4.17307">
        <ele>141</ele>
        <time>2012-03-11T09:57:34Z</time>
      </trkpt>
      <trkpt lat="43.80424" lon="4.17305">
        <ele>141</ele>
        <time>2012-03-11T09:57:36Z</time>
      </trkpt>
      <trkpt lat="43.80425" lon="4.17303">
        <ele>141</ele>
        <time>2012-03-11T09:57:38Z</time>
      </trkpt>
      <trkpt lat="43.80426" lon="4.17301">
        <ele>141</ele>
        <time>2012-03-11T09:57:40Z</time>
      </trkpt>
      <trkpt lat="43.80428" lon="4.17299">
        <ele>141</ele>
        <time>2012-03-11T09:57:44Z</time>
      </trkpt>
      <trkpt lat="43.8043" lon="4.17297">
        <ele>141</ele>
        <time>2012-03-11T09:57:46Z</time>
      </trkpt>
      <trkpt lat="43.80431" lon="4.17296">
        <ele>141</ele>
        <time>2012-03-11T09:57:47Z</time>
      </trkpt>
      <trkpt lat="43.80433" lon="4.17295">
        <ele>141</ele>
        <time>2012-03-11T09:57:48Z</time>
      </trkpt>
      <trkpt lat="43.80434" lon="4.17293">
        <ele>141</ele>
        <time>2012-03-11T09:57:49Z</time>
      </trkpt>
      <trkpt lat="43.80436" lon="4.17293">
        <ele>141</ele>
        <time>2012-03-11T09:57:50Z</time>
      </trkpt>
      <trkpt lat="43.80437" lon="4.17292">
        <ele>141</ele>
        <time>2012-03-11T09:57:51Z</time>
      </trkpt>
      <trkpt lat="43.80439" lon="4.17292">
        <ele>141</ele>
        <time>2012-03-11T09:57:52Z</time>
      </trkpt>
      <trkpt lat="43.80441" lon="4.17292">
        <ele>141</ele>
        <time>2012-03-11T09:57:53Z</time>
      </trkpt>
      <trkpt lat="43.80443" lon="4.17291">
        <ele>141</ele>
        <time>2012-03-11T09:57:54Z</time>
      </trkpt>
      <trkpt lat="43.80444" lon="4.17291">
        <ele>141</ele>
        <time>2012-03-11T09:57:55Z</time>
      </trkpt>
      <trkpt lat="43.80446" lon="4.17291">
        <ele>141</ele>
        <time>2012-03-11T09:57:56Z</time>
      </trkpt>
      <trkpt lat="43.80448" lon="4.1729">
        <ele>142</ele>
        <time>2012-03-11T09:57:57Z</time>
      </trkpt>
      <trkpt lat="43.8045" lon="4.17289">
        <ele>142</ele>
        <time>2012-03-11T09:57:58Z</time>
      </trkpt>
      <trkpt lat="43.80451" lon="4.17289">
        <ele>142</ele>
        <time>2012-03-11T09:57:59Z</time>
      </trkpt>
      <trkpt lat="43.80453" lon="4.17289">
        <ele>142</ele>
        <time>2012-03-11T09:58:00Z</time>
      </trkpt>
      <trkpt lat="43.80455" lon="4.17288">
        <ele>142</ele>
        <time>2012-03-11T09:58:01Z</time>
      </trkpt>
      <trkpt lat="43.80457" lon="4.17288">
        <ele>142</ele>
        <time>2012-03-11T09:58:02Z</time>
      </trkpt>
      <trkpt lat="43.80458" lon="4.17288">
        <ele>143</ele>
        <time>2012-03-11T09:58:03Z</time>
      </trkpt>
      <trkpt lat="43.8046" lon="4.17287">
        <ele>143</ele>
        <time>2012-03-11T09:58:04Z</time>
      </trkpt>
      <trkpt lat="43.80462" lon="4.17287">
        <ele>143</ele>
        <time>2012-03-11T09:58:05Z</time>
      </trkpt>
      <trkpt lat="43.80464" lon="4.17286">
        <ele>143</ele>
        <time>2012-03-11T09:58:06Z</time>
      </trkpt>
      <trkpt lat="43.80465" lon="4.17286">
        <ele>143</ele>
        <time>2012-03-11T09:58:07Z</time>
      </trkpt>
      <trkpt lat="43.80467" lon="4.17286">
        <ele>143</ele>
        <time>2012-03-11T09:58:08Z</time>
      </trkpt>
      <trkpt lat="43.80469" lon="4.17285">
        <ele>143</ele>
        <time>2012-03-11T09:58:09Z</time>
      </trkpt>
      <trkpt lat="43.8047" lon="4.17285">
        <ele>143</ele>
        <time>2012-03-11T09:58:10Z</time>
      </trkpt>
      <trkpt lat="43.80472" lon="4.17285">
        <ele>143</ele>
        <time>2012-03-11T09:58:11Z</time>
      </trkpt>
      <trkpt lat="43.80473" lon="4.17284">
        <ele>143</ele>
        <time>2012-03-11T09:58:12Z</time>
      </trkpt>
      <trkpt lat="43.80475" lon="4.17284">
        <ele>143</ele>
        <time>2012-03-11T09:58:13Z</time>
      </trkpt>
      <trkpt lat="43.80477" lon="4.17284">
        <ele>143</ele>
        <time>2012-03-11T09:58:14Z</time>
      </trkpt>
      <trkpt lat="43.80478" lon="4.17283">
        <ele>143</ele>
        <time>2012-03-11T09:58:15Z</time>
      </trkpt>
      <trkpt lat="43.8048" lon="4.17283">
        <ele>143</ele>
        <time>2012-03-11T09:58:16Z</time>
      </trkpt>
      <trkpt lat="43.80481" lon="4.17283">
        <ele>143</ele>
        <time>2012-03-11T09:58:17Z</time>
      </trkpt>
      <trkpt lat="43.80483" lon="4.17283">
        <ele>143</ele>
        <time>2012-03-11T09:58:18Z</time>
      </trkpt>
      <trkpt lat="43.80484" lon="4.17282">
        <ele>143</ele>
        <time>2012-03-11T09:58:19Z</time>
      </trkpt>
      <trkpt lat="43.80486" lon="4.17282">
        <ele>143</ele>
        <time>2012-03-11T09:58:20Z</time>
      </trkpt>
      <trkpt lat="43.80488" lon="4.17282">
        <ele>143</ele>
        <time>2012-03-11T09:58:21Z</time>
      </trkpt>
      <trkpt lat="43.80489" lon="4.17281">
        <ele>144</ele>
        <time>2012-03-11T09:58:22Z</time>
      </trkpt>
      <trkpt lat="43.80491" lon="4.17281">
        <ele>144</ele>
        <time>2012-03-11T09:58:23Z</time>
      </trkpt>
      <trkpt lat="43.80492" lon="4.1728">
        <ele>144</ele>
        <time>2012-03-11T09:58:24Z</time>
      </trkpt>
      <trkpt lat="43.80494" lon="4.1728">
        <ele>144</ele>
        <time>2012-03-11T09:58:25Z</time>
      </trkpt>
      <trkpt lat="43.80495" lon="4.1728">
        <ele>144</ele>
        <time>2012-03-11T09:58:26Z</time>
      </trkpt>
      <trkpt lat="43.80497" lon="4.17279">
        <ele>144</ele>
        <time>2012-03-11T09:58:27Z</time>
      </trkpt>
      <trkpt lat="43.80499" lon="4.17279">
        <ele>144</ele>
        <time>2012-03-11T09:58:28Z</time>
      </trkpt>
      <trkpt lat="43.805" lon="4.17279">
        <ele>144</ele>
        <time>2012-03-11T09:58:29Z</time>
      </trkpt>
      <trkpt lat="43.80502" lon="4.17278">
        <ele>144</ele>
        <time>2012-03-11T09:58:30Z</time>
      </trkpt>
      <trkpt lat="43.80503" lon="4.17278">
        <ele>144</ele>
        <time>2012-03-11T09:58:31Z</time>
      </trkpt>
      <trkpt lat="43.80505" lon="4.17278">
        <ele>144</ele>
        <time>2012-03-11T09:58:32Z</time>
      </trkpt>
      <trkpt lat="43.80506" lon="4.17278">
        <ele>144</ele>
        <time>2012-03-11T09:58:33Z</time>
      </trkpt>
      <trkpt lat="43.80507" lon="4.17278">
        <ele>144</ele>
        <time>2012-03-11T09:58:34Z</time>
      </trkpt>
      <trkpt lat="43.80508" lon="4.17278">
        <ele>145</ele>
        <time>2012-03-11T09:58:35Z</time>
      </trkpt>
      <trkpt lat="43.8051" lon="4.17277">
        <ele>145</ele>
        <time>2012-03-11T09:58:36Z</time>
      </trkpt>
      <trkpt lat="43.80511" lon="4.17277">
        <ele>145</ele>
        <time>2012-03-11T09:58:37Z</time>
      </trkpt>
      <trkpt lat="43.80513" lon="4.17277">
        <ele>145</ele>
        <time>2012-03-11T09:58:38Z</time>
      </trkpt>
      <trkpt lat="43.80515" lon="4.17277">
        <ele>146</ele>
        <time>2012-03-11T09:58:39Z</time>
      </trkpt>
      <trkpt lat="43.80516" lon="4.17278">
        <ele>146</ele>
        <time>2012-03-11T09:58:40Z</time>
      </trkpt>
      <trkpt lat="43.80517" lon="4.17279">
        <ele>146</ele>
        <time>2012-03-11T09:58:41Z</time>
      </trkpt>
      <trkpt lat="43.80518" lon="4.17281">
        <ele>146</ele>
        <time>2012-03-11T09:58:42Z</time>
      </trkpt>
      <trkpt lat="43.80519" lon="4.17282">
        <ele>146</ele>
        <time>2012-03-11T09:58:43Z</time>
      </trkpt>
      <trkpt lat="43.80519" lon="4.17284">
        <ele>146</ele>
        <time>2012-03-11T09:58:44Z</time>
      </trkpt>
      <trkpt lat="43.80519" lon="4.17286">
        <ele>147</ele>
        <time>2012-03-11T09:58:45Z</time>
      </trkpt>
      <trkpt lat="43.80519" lon="4.17288">
        <ele>147</ele>
        <time>2012-03-11T09:58:46Z</time>
      </trkpt>
      <trkpt lat="43.80519" lon="4.1729">
        <ele>147</ele>
        <time>2012-03-11T09:58:47Z</time>
      </trkpt>
      <trkpt lat="43.80518" lon="4.17292">
        <ele>148</ele>
        <time>2012-03-11T09:58:48Z</time>
      </trkpt>
      <trkpt lat="43.80517" lon="4.17294">
        <ele>148</ele>
        <time>2012-03-11T09:58:49Z</time>
      </trkpt>
      <trkpt lat="43.80516" lon="4.17296">
        <ele>148</ele>
        <time>2012-03-11T09:58:50Z</time>
      </trkpt>
      <trkpt lat="43.80516" lon="4.17298">
        <ele>148</ele>
        <time>2012-03-11T09:58:51Z</time>
      </trkpt>
      <trkpt lat="43.80515" lon="4.173">
        <ele>149</ele>
        <time>2012-03-11T09:58:52Z</time>
      </trkpt>
      <trkpt lat="43.80513" lon="4.17302">
        <ele>149</ele>
        <time>2012-03-11T09:58:53Z</time>
      </trkpt>
      <trkpt lat="43.80512" lon="4.17303">
        <ele>149</ele>
        <time>2012-03-11T09:58:54Z</time>
      </trkpt>
      <trkpt lat="43.80511" lon="4.17304">
        <ele>149</ele>
        <time>2012-03-11T09:58:55Z</time>
      </trkpt>
      <trkpt lat="43.8051" lon="4.17306">
        <ele>149</ele>
        <time>2012-03-11T09:58:56Z</time>
      </trkpt>
      <trkpt lat="43.80508" lon="4.17308">
        <ele>149</ele>
        <time>2012-03-11T09:58:57Z</time>
      </trkpt>
      <trkpt lat="43.80507" lon="4.1731">
        <ele>149</ele>
        <time>2012-03-11T09:58:58Z</time>
      </trkpt>
      <trkpt lat="43.80506" lon="4.17312">
        <ele>149</ele>
        <time>2012-03-11T09:58:59Z</time>
      </trkpt>
      <trkpt lat="43.80505" lon="4.17314">
        <ele>149</ele>
        <time>2012-03-11T09:59:00Z</time>
      </trkpt>
      <trkpt lat="43.80504" lon="4.17316">
        <ele>149</ele>
        <time>2012-03-11T09:59:01Z</time>
      </trkpt>
      <trkpt lat="43.80503" lon="4.17318">
        <ele>149</ele>
        <time>2012-03-11T09:59:02Z</time>
      </trkpt>
      <trkpt lat="43.80502" lon="4.1732">
        <ele>149</ele>
        <time>2012-03-11T09:59:03Z</time>
      </trkpt>
      <trkpt lat="43.80502" lon="4.17322">
        <ele>149</ele>
        <time>2012-03-11T09:59:04Z</time>
      </trkpt>
      <trkpt lat="43.805" lon="4.17324">
        <ele>149</ele>
        <time>2012-03-11T09:59:05Z</time>
      </trkpt>
      <trkpt lat="43.80499" lon="4.17326">
        <ele>149</ele>
        <time>2012-03-11T09:59:06Z</time>
      </trkpt>
      <trkpt lat="43.80498" lon="4.17327">
        <ele>149</ele>
        <time>2012-03-11T09:59:07Z</time>
      </trkpt>
      <trkpt lat="43.80497" lon="4.17327">
        <ele>149</ele>
        <time>2012-03-11T09:59:13Z</time>
      </trkpt>
      <trkpt lat="43.80496" lon="4.17326">
        <ele>149</ele>
        <time>2012-03-11T09:59:28Z</time>
      </trkpt>
      <trkpt lat="43.80497" lon="4.17324">
        <ele>151</ele>
        <time>2012-03-11T09:59:33Z</time>
      </trkpt>
      <trkpt lat="43.80496" lon="4.17326">
        <ele>154</ele>
        <time>2012-03-11T09:59:39Z</time>
      </trkpt>
      <trkpt lat="43.80495" lon="4.17328">
        <ele>154</ele>
        <time>2012-03-11T09:59:40Z</time>
      </trkpt>
      <trkpt lat="43.80495" lon="4.1733">
        <ele>154</ele>
        <time>2012-03-11T09:59:41Z</time>
      </trkpt>
      <trkpt lat="43.80494" lon="4.17331">
        <ele>154</ele>
        <time>2012-03-11T09:59:42Z</time>
      </trkpt>
      <trkpt lat="43.80493" lon="4.17334">
        <ele>154</ele>
        <time>2012-03-11T09:59:43Z</time>
      </trkpt>
      <trkpt lat="43.80493" lon="4.17336">
        <ele>154</ele>
        <time>2012-03-11T09:59:44Z</time>
      </trkpt>
      <trkpt lat="43.80493" lon="4.17339">
        <ele>154</ele>
        <time>2012-03-11T09:59:45Z</time>
      </trkpt>
      <trkpt lat="43.80492" lon="4.17341">
        <ele>154</ele>
        <time>2012-03-11T09:59:46Z</time>
      </trkpt>
      <trkpt lat="43.80492" lon="4.17344">
        <ele>154</ele>
        <time>2012-03-11T09:59:47Z</time>
      </trkpt>
      <trkpt lat="43.80492" lon="4.17346">
        <ele>154</ele>
        <time>2012-03-11T09:59:48Z</time>
      </trkpt>
      <trkpt lat="43.80491" lon="4.17348">
        <ele>154</ele>
        <time>2012-03-11T09:59:49Z</time>
      </trkpt>
      <trkpt lat="43.8049" lon="4.17351">
        <ele>154</ele>
        <time>2012-03-11T09:59:50Z</time>
      </trkpt>
      <trkpt lat="43.80489" lon="4.17353">
        <ele>154</ele>
        <time>2012-03-11T09:59:51Z</time>
      </trkpt>
      <trkpt lat="43.80489" lon="4.17354">
        <ele>154</ele>
        <time>2012-03-11T09:59:52Z</time>
      </trkpt>
      <trkpt lat="43.80488" lon="4.17356">
        <ele>154</ele>
        <time>2012-03-11T09:59:53Z</time>
      </trkpt>
      <trkpt lat="43.80487" lon="4.17357">
        <ele>154</ele>
        <time>2012-03-11T09:59:54Z</time>
      </trkpt>
      <trkpt lat="43.80486" lon="4.17359">
        <ele>154</ele>
        <time>2012-03-11T09:59:55Z</time>
      </trkpt>
      <trkpt lat="43.80485" lon="4.17361">
        <ele>154</ele>
        <time>2012-03-11T09:59:56Z</time>
      </trkpt>
      <trkpt lat="43.80484" lon="4.17363">
        <ele>154</ele>
        <time>2012-03-11T09:59:57Z</time>
      </trkpt>
      <trkpt lat="43.80483" lon="4.17365">
        <ele>154</ele>
        <time>2012-03-11T09:59:58Z</time>
      </trkpt>
      <trkpt lat="43.80482" lon="4.17367">
        <ele>154</ele>
        <time>2012-03-11T09:59:59Z</time>
      </trkpt>
      <trkpt lat="43.8048" lon="4.1737">
        <ele>154</ele>
        <time>2012-03-11T10:00:00Z</time>
      </trkpt>
      <trkpt lat="43.80479" lon="4.17373">
        <ele>154</ele>
        <time>2012-03-11T10:00:01Z</time>
      </trkpt>
      <trkpt lat="43.80478" lon="4.17376">
        <ele>154</ele>
        <time>2012-03-11T10:00:02Z</time>
      </trkpt>
      <trkpt lat="43.80477" lon="4.17379">
        <ele>154</ele>
        <time>2012-03-11T10:00:03Z</time>
      </trkpt>
      <trkpt lat="43.80476" lon="4.17381">
        <ele>154</ele>
        <time>2012-03-11T10:00:04Z</time>
      </trkpt>
      <trkpt lat="43.80475" lon="4.17384">
        <ele>154</ele>
        <time>2012-03-11T10:00:05Z</time>
      </trkpt>
      <trkpt lat="43.80474" lon="4.17387">
        <ele>154</ele>
        <time>2012-03-11T10:00:06Z</time>
      </trkpt>
      <trkpt lat="43.80473" lon="4.17389">
        <ele>154</ele>
        <time>2012-03-11T10:00:07Z</time>
      </trkpt>
      <trkpt lat="43.80473" lon="4.17392">
        <ele>154</ele>
        <time>2012-03-11T10:00:08Z</time>
      </trkpt>
      <trkpt lat="43.80472" lon="4.17395">
        <ele>154</ele>
        <time>2012-03-11T10:00:09Z</time>
      </trkpt>
      <trkpt lat="43.80471" lon="4.17399">
        <ele>154</ele>
        <time>2012-03-11T10:00:10Z</time>
      </trkpt>
      <trkpt lat="43.8047" lon="4.17403">
        <ele>154</ele>
        <time>2012-03-11T10:00:11Z</time>
      </trkpt>
      <trkpt lat="43.80468" lon="4.17406">
        <ele>154</ele>
        <time>2012-03-11T10:00:12Z</time>
      </trkpt>
      <trkpt lat="43.80468" lon="4.1741">
        <ele>154</ele>
        <time>2012-03-11T10:00:13Z</time>
      </trkpt>
      <trkpt lat="43.80466" lon="4.17413">
        <ele>154</ele>
        <time>2012-03-11T10:00:14Z</time>
      </trkpt>
      <trkpt lat="43.80466" lon="4.17417">
        <ele>154</ele>
        <time>2012-03-11T10:00:15Z</time>
      </trkpt>
      <trkpt lat="43.80466" lon="4.1742">
        <ele>154</ele>
        <time>2012-03-11T10:00:16Z</time>
      </trkpt>
      <trkpt lat="43.80465" lon="4.17423">
        <ele>154</ele>
        <time>2012-03-11T10:00:17Z</time>
      </trkpt>
      <trkpt lat="43.80465" lon="4.17427">
        <ele>154</ele>
        <time>2012-03-11T10:00:18Z</time>
      </trkpt>
      <trkpt lat="43.80464" lon="4.17429">
        <ele>154</ele>
        <time>2012-03-11T10:00:19Z</time>
      </trkpt>
      <trkpt lat="43.80463" lon="4.17432">
        <ele>154</ele>
        <time>2012-03-11T10:00:20Z</time>
      </trkpt>
      <trkpt lat="43.80462" lon="4.17435">
        <ele>154</ele>
        <time>2012-03-11T10:00:21Z</time>
      </trkpt>
      <trkpt lat="43.80461" lon="4.17437">
        <ele>154</ele>
        <time>2012-03-11T10:00:22Z</time>
      </trkpt>
      <trkpt lat="43.8046" lon="4.17441">
        <ele>154</ele>
        <time>2012-03-11T10:00:23Z</time>
      </trkpt>
      <trkpt lat="43.8046" lon="4.17445">
        <ele>154</ele>
        <time>2012-03-11T10:00:24Z</time>
      </trkpt>
      <trkpt lat="43.80459" lon="4.17448">
        <ele>154</ele>
        <time>2012-03-11T10:00:25Z</time>
      </trkpt>
      <trkpt lat="43.80459" lon="4.17452">
        <ele>154</ele>
        <time>2012-03-11T10:00:26Z</time>
      </trkpt>
      <trkpt lat="43.80458" lon="4.17455">
        <ele>154</ele>
        <time>2012-03-11T10:00:27Z</time>
      </trkpt>
      <trkpt lat="43.80458" lon="4.17459">
        <ele>154</ele>
        <time>2012-03-11T10:00:28Z</time>
      </trkpt>
      <trkpt lat="43.80459" lon="4.17463">
        <ele>154</ele>
        <time>2012-03-11T10:00:29Z</time>
      </trkpt>
      <trkpt lat="43.8046" lon="4.17466">
        <ele>154</ele>
        <time>2012-03-11T10:00:30Z</time>
      </trkpt>
      <trkpt lat="43.8046" lon="4.1747">
        <ele>154</ele>
        <time>2012-03-11T10:00:31Z</time>
      </trkpt>
      <trkpt lat="43.80461" lon="4.17473">
        <ele>154</ele>
        <time>2012-03-11T10:00:32Z</time>
      </trkpt>
      <trkpt lat="43.80462" lon="4.17477">
        <ele>154</ele>
        <time>2012-03-11T10:00:33Z</time>
      </trkpt>
      <trkpt lat="43.80463" lon="4.1748">
        <ele>154</ele>
        <time>2012-03-11T10:00:34Z</time>
      </trkpt>
      <trkpt lat="43.80464" lon="4.17483">
        <ele>154</ele>
        <time>2012-03-11T10:00:35Z</time>
      </trkpt>
      <trkpt lat="43.80466" lon="4.17487">
        <ele>154</ele>
        <time>2012-03-11T10:00:36Z</time>
      </trkpt>
      <trkpt lat="43.80467" lon="4.17492">
        <ele>154</ele>
        <time>2012-03-11T10:00:37Z</time>
      </trkpt>
      <trkpt lat="43.80469" lon="4.17496">
        <ele>154</ele>
        <time>2012-03-11T10:00:38Z</time>
      </trkpt>
      <trkpt lat="43.80471" lon="4.17501">
        <ele>154</ele>
        <time>2012-03-11T10:00:39Z</time>
      </trkpt>
      <trkpt lat="43.80474" lon="4.17506">
        <ele>154</ele>
        <time>2012-03-11T10:00:40Z</time>
      </trkpt>
      <trkpt lat="43.80476" lon="4.17511">
        <ele>154</ele>
        <time>2012-03-11T10:00:41Z</time>
      </trkpt>
      <trkpt lat="43.80479" lon="4.17516">
        <ele>154</ele>
        <time>2012-03-11T10:00:42Z</time>
      </trkpt>
      <trkpt lat="43.8048" lon="4.17521">
        <ele>153</ele>
        <time>2012-03-11T10:00:43Z</time>
      </trkpt>
      <trkpt lat="43.80482" lon="4.17526">
        <ele>153</ele>
        <time>2012-03-11T10:00:44Z</time>
      </trkpt>
      <trkpt lat="43.80483" lon="4.17532">
        <ele>153</ele>
        <time>2012-03-11T10:00:45Z</time>
      </trkpt>
      <trkpt lat="43.80484" lon="4.17537">
        <ele>153</ele>
        <time>2012-03-11T10:00:46Z</time>
      </trkpt>
      <trkpt lat="43.80484" lon="4.17542">
        <ele>153</ele>
        <time>2012-03-11T10:00:47Z</time>
      </trkpt>
      <trkpt lat="43.80485" lon="4.17547">
        <ele>153</ele>
        <time>2012-03-11T10:00:48Z</time>
      </trkpt>
      <trkpt lat="43.80485" lon="4.17551">
        <ele>153</ele>
        <time>2012-03-11T10:00:49Z</time>
      </trkpt>
      <trkpt lat="43.80485" lon="4.17555">
        <ele>153</ele>
        <time>2012-03-11T10:00:50Z</time>
      </trkpt>
      <trkpt lat="43.80486" lon="4.17558">
        <ele>153</ele>
        <time>2012-03-11T10:00:51Z</time>
      </trkpt>
      <trkpt lat="43.80486" lon="4.17561">
        <ele>153</ele>
        <time>2012-03-11T10:00:52Z</time>
      </trkpt>
      <trkpt lat="43.80486" lon="4.17564">
        <ele>153</ele>
        <time>2012-03-11T10:00:53Z</time>
      </trkpt>
      <trkpt lat="43.80486" lon="4.17567">
        <ele>153</ele>
        <time>2012-03-11T10:00:54Z</time>
      </trkpt>
      <trkpt lat="43.80487" lon="4.1757">
        <ele>153</ele>
        <time>2012-03-11T10:00:55Z</time>
      </trkpt>
      <trkpt lat="43.80487" lon="4.17572">
        <ele>153</ele>
        <time>2012-03-11T10:00:56Z</time>
      </trkpt>
      <trkpt lat="43.80487" lon="4.17575">
        <ele>153</ele>
        <time>2012-03-11T10:00:57Z</time>
      </trkpt>
      <trkpt lat="43.80487" lon="4.17578">
        <ele>153</ele>
        <time>2012-03-11T10:00:58Z</time>
      </trkpt>
      <trkpt lat="43.80487" lon="4.17581">
        <ele>153</ele>
        <time>2012-03-11T10:00:59Z</time>
      </trkpt>
      <trkpt lat="43.80487" lon="4.17584">
        <ele>153</ele>
        <time>2012-03-11T10:01:00Z</time>
      </trkpt>
      <trkpt lat="43.80488" lon="4.17587">
        <ele>153</ele>
        <time>2012-03-11T10:01:01Z</time>
      </trkpt>
      <trkpt lat="43.80488" lon="4.1759">
        <ele>153</ele>
        <time>2012-03-11T10:01:02Z</time>
      </trkpt>
      <trkpt lat="43.80489" lon="4.17593">
        <ele>153</ele>
        <time>2012-03-11T10:01:03Z</time>
      </trkpt>
      <trkpt lat="43.80489" lon="4.17596">
        <ele>153</ele>
        <time>2012-03-11T10:01:04Z</time>
      </trkpt>
      <trkpt lat="43.80488" lon="4.17599">
        <ele>153</ele>
        <time>2012-03-11T10:01:05Z</time>
      </trkpt>
      <trkpt lat="43.80488" lon="4.17602">
        <ele>153</ele>
        <time>2012-03-11T10:01:06Z</time>
      </trkpt>
      <trkpt lat="43.80488" lon="4.17605">
        <ele>153</ele>
        <time>2012-03-11T10:01:07Z</time>
      </trkpt>
      <trkpt lat="43.80487" lon="4.17607">
        <ele>153</ele>
        <time>2012-03-11T10:01:08Z</time>
      </trkpt>
      <trkpt lat="43.80486" lon="4.17609">
        <ele>153</ele>
        <time>2012-03-11T10:01:09Z</time>
      </trkpt>
      <trkpt lat="43.80485" lon="4.17612">
        <ele>153</ele>
        <time>2012-03-11T10:01:10Z</time>
      </trkpt>
      <trkpt lat="43.80484" lon="4.17614">
        <ele>153</ele>
        <time>2012-03-11T10:01:11Z</time>
      </trkpt>
      <trkpt lat="43.80483" lon="4.17617">
        <ele>153</ele>
        <time>2012-03-11T10:01:12Z</time>
      </trkpt>
      <trkpt lat="43.80483" lon="4.1762">
        <ele>153</ele>
        <time>2012-03-11T10:01:13Z</time>
      </trkpt>
      <trkpt lat="43.80482" lon="4.17622">
        <ele>153</ele>
        <time>2012-03-11T10:01:14Z</time>
      </trkpt>
      <trkpt lat="43.80481" lon="4.17625">
        <ele>153</ele>
        <time>2012-03-11T10:01:15Z</time>
      </trkpt>
      <trkpt lat="43.8048" lon="4.17627">
        <ele>153</ele>
        <time>2012-03-11T10:01:16Z</time>
      </trkpt>
      <trkpt lat="43.80479" lon="4.1763">
        <ele>153</ele>
        <time>2012-03-11T10:01:17Z</time>
      </trkpt>
      <trkpt lat="43.80478" lon="4.17633">
        <ele>153</ele>
        <time>2012-03-11T10:01:18Z</time>
      </trkpt>
      <trkpt lat="43.80478" lon="4.17636">
        <ele>153</ele>
        <time>2012-03-11T10:01:19Z</time>
      </trkpt>
      <trkpt lat="43.80478" lon="4.17639">
        <ele>153</ele>
        <time>2012-03-11T10:01:20Z</time>
      </trkpt>
      <trkpt lat="43.80477" lon="4.1764">
        <ele>153</ele>
        <time>2012-03-11T10:01:25Z</time>
      </trkpt>
      <trkpt lat="43.80476" lon="4.1764">
        <ele>153</ele>
        <time>2012-03-11T10:01:34Z</time>
      </trkpt>
      <trkpt lat="43.80476" lon="4.17643">
        <ele>153</ele>
        <time>2012-03-11T10:01:37Z</time>
      </trkpt>
      <trkpt lat="43.80475" lon="4.17645">
        <ele>153</ele>
        <time>2012-03-11T10:01:38Z</time>
      </trkpt>
      <trkpt lat="43.80475" lon="4.17648">
        <ele>153</ele>
        <time>2012-03-11T10:01:39Z</time>
      </trkpt>
      <trkpt lat="43.80474" lon="4.17651">
        <ele>154</ele>
        <time>2012-03-11T10:01:40Z</time>
      </trkpt>
      <trkpt lat="43.80473" lon="4.17654">
        <ele>154</ele>
        <time>2012-03-11T10:01:41Z</time>
      </trkpt>
      <trkpt lat="43.80472" lon="4.17657">
        <ele>155</ele>
        <time>2012-03-11T10:01:42Z</time>
      </trkpt>
      <trkpt lat="43.80471" lon="4.1766">
        <ele>155</ele>
        <time>2012-03-11T10:01:43Z</time>
      </trkpt>
      <trkpt lat="43.80469" lon="4.17662">
        <ele>156</ele>
        <time>2012-03-11T10:01:44Z</time>
      </trkpt>
      <trkpt lat="43.80467" lon="4.17666">
        <ele>156</ele>
        <time>2012-03-11T10:01:45Z</time>
      </trkpt>
      <trkpt lat="43.80465" lon="4.17669">
        <ele>156</ele>
        <time>2012-03-11T10:01:46Z</time>
      </trkpt>
      <trkpt lat="43.80464" lon="4.17672">
        <ele>157</ele>
        <time>2012-03-11T10:01:47Z</time>
      </trkpt>
      <trkpt lat="43.80463" lon="4.17675">
        <ele>157</ele>
        <time>2012-03-11T10:01:48Z</time>
      </trkpt>
      <trkpt lat="43.80461" lon="4.17677">
        <ele>157</ele>
        <time>2012-03-11T10:01:49Z</time>
      </trkpt>
      <trkpt lat="43.8046" lon="4.1768">
        <ele>157</ele>
        <time>2012-03-11T10:01:50Z</time>
      </trkpt>
      <trkpt lat="43.80459" lon="4.17683">
        <ele>157</ele>
        <time>2012-03-11T10:01:51Z</time>
      </trkpt>
      <trkpt lat="43.80458" lon="4.17686">
        <ele>157</ele>
        <time>2012-03-11T10:01:52Z</time>
      </trkpt>
      <trkpt lat="43.80457" lon="4.17688">
        <ele>157</ele>
        <time>2012-03-11T10:01:53Z</time>
      </trkpt>
      <trkpt lat="43.80456" lon="4.17691">
        <ele>157</ele>
        <time>2012-03-11T10:01:54Z</time>
      </trkpt>
      <trkpt lat="43.80455" lon="4.17693">
        <ele>157</ele>
        <time>2012-03-11T10:01:55Z</time>
      </trkpt>
      <trkpt lat="43.80453" lon="4.17695">
        <ele>157</ele>
        <time>2012-03-11T10:01:56Z</time>
      </trkpt>
      <trkpt lat="43.80451" lon="4.17697">
        <ele>157</ele>
        <time>2012-03-11T10:01:57Z</time>
      </trkpt>
      <trkpt lat="43.80449" lon="4.17697">
        <ele>157</ele>
        <time>2012-03-11T10:01:58Z</time>
      </trkpt>
      <trkpt lat="43.80446" lon="4.17698">
        <ele>157</ele>
        <time>2012-03-11T10:01:59Z</time>
      </trkpt>
      <trkpt lat="43.80443" lon="4.17698">
        <ele>157</ele>
        <time>2012-03-11T10:02:00Z</time>
      </trkpt>
      <trkpt lat="43.8044" lon="4.17697">
        <ele>157</ele>
        <time>2012-03-11T10:02:01Z</time>
      </trkpt>
      <trkpt lat="43.80438" lon="4.17696">
        <ele>157</ele>
        <time>2012-03-11T10:02:02Z</time>
      </trkpt>
      <trkpt lat="43.80436" lon="4.17694">
        <ele>157</ele>
        <time>2012-03-11T10:02:03Z</time>
      </trkpt>
      <trkpt lat="43.80434" lon="4.17692">
        <ele>157</ele>
        <time>2012-03-11T10:02:04Z</time>
      </trkpt>
      <trkpt lat="43.80434" lon="4.1769">
        <ele>157</ele>
        <time>2012-03-11T10:02:05Z</time>
      </trkpt>
      <trkpt lat="43.80433" lon="4.17687">
        <ele>157</ele>
        <time>2012-03-11T10:02:06Z</time>
      </trkpt>
      <trkpt lat="43.80431" lon="4.17684">
        <ele>157</ele>
        <time>2012-03-11T10:02:07Z</time>
      </trkpt>
      <trkpt lat="43.80431" lon="4.17681">
        <ele>157</ele>
        <time>2012-03-11T10:02:08Z</time>
      </trkpt>
      <trkpt lat="43.80429" lon="4.17678">
        <ele>157</ele>
        <time>2012-03-11T10:02:09Z</time>
      </trkpt>
      <trkpt lat="43.80429" lon="4.17675">
        <ele>157</ele>
        <time>2012-03-11T10:02:10Z</time>
      </trkpt>
      <trkpt lat="43.80428" lon="4.17672">
        <ele>157</ele>
        <time>2012-03-11T10:02:11Z</time>
      </trkpt>
      <trkpt lat="43.80428" lon="4.17668">
        <ele>157</ele>
        <time>2012-03-11T10:02:12Z</time>
      </trkpt>
      <trkpt lat="43.80427" lon="4.17665">
        <ele>157</ele>
        <time>2012-03-11T10:02:13Z</time>
      </trkpt>
      <trkpt lat="43.80425" lon="4.17661">
        <ele>157</ele>
        <time>2012-03-11T10:02:14Z</time>
      </trkpt>
      <trkpt lat="43.80424" lon="4.17659">
        <ele>157</ele>
        <time>2012-03-11T10:02:15Z</time>
      </trkpt>
      <trkpt lat="43.80422" lon="4.17656">
        <ele>157</ele>
        <time>2012-03-11T10:02:16Z</time>
      </trkpt>
      <trkpt lat="43.8042" lon="4.17654">
        <ele>157</ele>
        <time>2012-03-11T10:02:17Z</time>
      </trkpt>
      <trkpt lat="43.80418" lon="4.17653">
        <ele>157</ele>
        <time>2012-03-11T10:02:18Z</time>
      </trkpt>
      <trkpt lat="43.80416" lon="4.17651">
        <ele>157</ele>
        <time>2012-03-11T10:02:19Z</time>
      </trkpt>
      <trkpt lat="43.80414" lon="4.1765">
        <ele>157</ele>
        <time>2012-03-11T10:02:20Z</time>
      </trkpt>
      <trkpt lat="43.80412" lon="4.17649">
        <ele>157</ele>
        <time>2012-03-11T10:02:21Z</time>
      </trkpt>
      <trkpt lat="43.80409" lon="4.17649">
        <ele>157</ele>
        <time>2012-03-11T10:02:22Z</time>
      </trkpt>
      <trkpt lat="43.80407" lon="4.17649">
        <ele>157</ele>
        <time>2012-03-11T10:02:23Z</time>
      </trkpt>
      <trkpt lat="43.80405" lon="4.1765">
        <ele>157</ele>
        <time>2012-03-11T10:02:24Z</time>
      </trkpt>
      <trkpt lat="43.80402" lon="4.17651">
        <ele>157</ele>
        <time>2012-03-11T10:02:25Z</time>
      </trkpt>
      <trkpt lat="43.804" lon="4.17652">
        <ele>157</ele>
        <time>2012-03-11T10:02:26Z</time>
      </trkpt>
      <trkpt lat="43.80399" lon="4.17654">
        <ele>157</ele>
        <time>2012-03-11T10:02:27Z</time>
      </trkpt>
      <trkpt lat="43.80397" lon="4.17656">
        <ele>157</ele>
        <time>2012-03-11T10:02:28Z</time>
      </trkpt>
      <trkpt lat="43.80396" lon="4.17658">
        <ele>157</ele>
        <time>2012-03-11T10:02:29Z</time>
      </trkpt>
      <trkpt lat="43.80394" lon="4.17659">
        <ele>157</ele>
        <time>2012-03-11T10:02:30Z</time>
      </trkpt>
      <trkpt lat="43.80392" lon="4.17661">
        <ele>157</ele>
        <time>2012-03-11T10:02:31Z</time>
      </trkpt>
      <trkpt lat="43.80391" lon="4.17663">
        <ele>157</ele>
        <time>2012-03-11T10:02:32Z</time>
      </trkpt>
      <trkpt lat="43.8039" lon="4.17665">
        <ele>157</ele>
        <time>2012-03-11T10:02:33Z</time>
      </trkpt>
      <trkpt lat="43.80389" lon="4.17667">
        <ele>157</ele>
        <time>2012-03-11T10:02:34Z</time>
      </trkpt>
      <trkpt lat="43.80388" lon="4.17669">
        <ele>157</ele>
        <time>2012-03-11T10:02:35Z</time>
      </trkpt>
      <trkpt lat="43.80387" lon="4.17671">
        <ele>157</ele>
        <time>2012-03-11T10:02:36Z</time>
      </trkpt>
      <trkpt lat="43.80386" lon="4.17673">
        <ele>157</ele>
        <time>2012-03-11T10:02:37Z</time>
      </trkpt>
      <trkpt lat="43.80385" lon="4.17675">
        <ele>158</ele>
        <time>2012-03-11T10:02:38Z</time>
      </trkpt>
      <trkpt lat="43.80384" lon="4.17677">
        <ele>158</ele>
        <time>2012-03-11T10:02:39Z</time>
      </trkpt>
      <trkpt lat="43.80383" lon="4.17679">
        <ele>159</ele>
        <time>2012-03-11T10:02:40Z</time>
      </trkpt>
      <trkpt lat="43.80382" lon="4.17681">
        <ele>159</ele>
        <time>2012-03-11T10:02:41Z</time>
      </trkpt>
      <trkpt lat="43.80381" lon="4.17683">
        <ele>159</ele>
        <time>2012-03-11T10:02:42Z</time>
      </trkpt>
      <trkpt lat="43.80381" lon="4.17685">
        <ele>159</ele>
        <time>2012-03-11T10:02:43Z</time>
      </trkpt>
      <trkpt lat="43.8038" lon="4.17688">
        <ele>159</ele>
        <time>2012-03-11T10:02:44Z</time>
      </trkpt>
      <trkpt lat="43.80379" lon="4.1769">
        <ele>159</ele>
        <time>2012-03-11T10:02:45Z</time>
      </trkpt>
      <trkpt lat="43.80378" lon="4.17692">
        <ele>159</ele>
        <time>2012-03-11T10:02:46Z</time>
      </trkpt>
      <trkpt lat="43.80377" lon="4.17695">
        <ele>159</ele>
        <time>2012-03-11T10:02:47Z</time>
      </trkpt>
      <trkpt lat="43.80377" lon="4.17697">
        <ele>159</ele>
        <time>2012-03-11T10:02:48Z</time>
      </trkpt>
      <trkpt lat="43.80376" lon="4.177">
        <ele>159</ele>
        <time>2012-03-11T10:02:49Z</time>
      </trkpt>
      <trkpt lat="43.80376" lon="4.17702">
        <ele>159</ele>
        <time>2012-03-11T10:02:50Z</time>
      </trkpt>
      <trkpt lat="43.80375" lon="4.17704">
        <ele>159</ele>
        <time>2012-03-11T10:02:51Z</time>
      </trkpt>
      <trkpt lat="43.80375" lon="4.17706">
        <ele>160</ele>
        <time>2012-03-11T10:02:52Z</time>
      </trkpt>
      <trkpt lat="43.80374" lon="4.17708">
        <ele>160</ele>
        <time>2012-03-11T10:02:53Z</time>
      </trkpt>
      <trkpt lat="43.80373" lon="4.1771">
        <ele>160</ele>
        <time>2012-03-11T10:02:54Z</time>
      </trkpt>
      <trkpt lat="43.80373" lon="4.17712">
        <ele>160</ele>
        <time>2012-03-11T10:02:55Z</time>
      </trkpt>
      <trkpt lat="43.80372" lon="4.17714">
        <ele>160</ele>
        <time>2012-03-11T10:02:56Z</time>
      </trkpt>
      <trkpt lat="43.80371" lon="4.17716">
        <ele>161</ele>
        <time>2012-03-11T10:02:57Z</time>
      </trkpt>
      <trkpt lat="43.8037" lon="4.17718">
        <ele>161</ele>
        <time>2012-03-11T10:02:58Z</time>
      </trkpt>
      <trkpt lat="43.80369" lon="4.1772">
        <ele>161</ele>
        <time>2012-03-11T10:02:59Z</time>
      </trkpt>
      <trkpt lat="43.80368" lon="4.17723">
        <ele>162</ele>
        <time>2012-03-11T10:03:00Z</time>
      </trkpt>
      <trkpt lat="43.80368" lon="4.17725">
        <ele>162</ele>
        <time>2012-03-11T10:03:01Z</time>
      </trkpt>
      <trkpt lat="43.80367" lon="4.17727">
        <ele>162</ele>
        <time>2012-03-11T10:03:02Z</time>
      </trkpt>
      <trkpt lat="43.80367" lon="4.1773">
        <ele>162</ele>
        <time>2012-03-11T10:03:03Z</time>
      </trkpt>
      <trkpt lat="43.80367" lon="4.17732">
        <ele>163</ele>
        <time>2012-03-11T10:03:04Z</time>
      </trkpt>
      <trkpt lat="43.80366" lon="4.17734">
        <ele>163</ele>
        <time>2012-03-11T10:03:05Z</time>
      </trkpt>
      <trkpt lat="43.80365" lon="4.17736">
        <ele>163</ele>
        <time>2012-03-11T10:03:06Z</time>
      </trkpt>
      <trkpt lat="43.80365" lon="4.17739">
        <ele>163</ele>
        <time>2012-03-11T10:03:07Z</time>
      </trkpt>
      <trkpt lat="43.80364" lon="4.17741">
        <ele>163</ele>
        <time>2012-03-11T10:03:08Z</time>
      </trkpt>
      <trkpt lat="43.80363" lon="4.17743">
        <ele>163</ele>
        <time>2012-03-11T10:03:09Z</time>
      </trkpt>
      <trkpt lat="43.80363" lon="4.17745">
        <ele>163</ele>
        <time>2012-03-11T10:03:10Z</time>
      </trkpt>
      <trkpt lat="43.80362" lon="4.17748">
        <ele>163</ele>
        <time>2012-03-11T10:03:11Z</time>
      </trkpt>
      <trkpt lat="43.80362" lon="4.17749">
        <ele>163</ele>
        <time>2012-03-11T10:03:12Z</time>
      </trkpt>
      <trkpt lat="43.80361" lon="4.17751">
        <ele>164</ele>
        <time>2012-03-11T10:03:13Z</time>
      </trkpt>
      <trkpt lat="43.8036" lon="4.17754">
        <ele>164</ele>
        <time>2012-03-11T10:03:14Z</time>
      </trkpt>
      <trkpt lat="43.8036" lon="4.17756">
        <ele>164</ele>
        <time>2012-03-11T10:03:15Z</time>
      </trkpt>
      <trkpt lat="43.8036" lon="4.17758">
        <ele>164</ele>
        <time>2012-03-11T10:03:16Z</time>
      </trkpt>
      <trkpt lat="43.8036" lon="4.17761">
        <ele>165</ele>
        <time>2012-03-11T10:03:17Z</time>
      </trkpt>
      <trkpt lat="43.8036" lon="4.17764">
        <ele>165</ele>
        <time>2012-03-11T10:03:18Z</time>
      </trkpt>
      <trkpt lat="43.8036" lon="4.17766">
        <ele>165</ele>
        <time>2012-03-11T10:03:19Z</time>
      </trkpt>
      <trkpt lat="43.8036" lon="4.17769">
        <ele>165</ele>
        <time>2012-03-11T10:03:20Z</time>
      </trkpt>
      <trkpt lat="43.80359" lon="4.17771">
        <ele>165</ele>
        <time>2012-03-11T10:03:21Z</time>
      </trkpt>
      <trkpt lat="43.80359" lon="4.17774">
        <ele>165</ele>
        <time>2012-03-11T10:03:22Z</time>
      </trkpt>
      <trkpt lat="43.80359" lon="4.17776">
        <ele>165</ele>
        <time>2012-03-11T10:03:23Z</time>
      </trkpt>
      <trkpt lat="43.80359" lon="4.17779">
        <ele>165</ele>
        <time>2012-03-11T10:03:24Z</time>
      </trkpt>
      <trkpt lat="43.80359" lon="4.17781">
        <ele>165</ele>
        <time>2012-03-11T10:03:25Z</time>
      </trkpt>
      <trkpt lat="43.80359" lon="4.17784">
        <ele>166</ele>
        <time>2012-03-11T10:03:26Z</time>
      </trkpt>
      <trkpt lat="43.80359" lon="4.17786">
        <ele>166</ele>
        <time>2012-03-11T10:03:27Z</time>
      </trkpt>
      <trkpt lat="43.80359" lon="4.17788">
        <ele>166</ele>
        <time>2012-03-11T10:03:28Z</time>
      </trkpt>
      <trkpt lat="43.80359" lon="4.1779">
        <ele>166</ele>
        <time>2012-03-11T10:03:29Z</time>
      </trkpt>
      <trkpt lat="43.80358" lon="4.17792">
        <ele>167</ele>
        <time>2012-03-11T10:03:30Z</time>
      </trkpt>
      <trkpt lat="43.80356" lon="4.17793">
        <ele>167</ele>
        <time>2012-03-11T10:03:31Z</time>
      </trkpt>
      <trkpt lat="43.80356" lon="4.17796">
        <ele>167</ele>
        <time>2012-03-11T10:03:32Z</time>
      </trkpt>
      <trkpt lat="43.80356" lon="4.17799">
        <ele>167</ele>
        <time>2012-03-11T10:03:33Z</time>
      </trkpt>
      <trkpt lat="43.80355" lon="4.17801">
        <ele>168</ele>
        <time>2012-03-11T10:03:34Z</time>
      </trkpt>
      <trkpt lat="43.80356" lon="4.17803">
        <ele>168</ele>
        <time>2012-03-11T10:03:35Z</time>
      </trkpt>
      <trkpt lat="43.80356" lon="4.17806">
        <ele>169</ele>
        <time>2012-03-11T10:03:36Z</time>
      </trkpt>
      <trkpt lat="43.80356" lon="4.17809">
        <ele>169</ele>
        <time>2012-03-11T10:03:37Z</time>
      </trkpt>
      <trkpt lat="43.80356" lon="4.17811">
        <ele>170</ele>
        <time>2012-03-11T10:03:38Z</time>
      </trkpt>
      <trkpt lat="43.80356" lon="4.17814">
        <ele>171</ele>
        <time>2012-03-11T10:03:39Z</time>
      </trkpt>
      <trkpt lat="43.80356" lon="4.17816">
        <ele>171</ele>
        <time>2012-03-11T10:03:40Z</time>
      </trkpt>
      <trkpt lat="43.80356" lon="4.17819">
        <ele>172</ele>
        <time>2012-03-11T10:03:41Z</time>
      </trkpt>
      <trkpt lat="43.80356" lon="4.17822">
        <ele>172</ele>
        <time>2012-03-11T10:03:42Z</time>
      </trkpt>
      <trkpt lat="43.80356" lon="4.17825">
        <ele>173</ele>
        <time>2012-03-11T10:03:43Z</time>
      </trkpt>
      <trkpt lat="43.80356" lon="4.17828">
        <ele>173</ele>
        <time>2012-03-11T10:03:44Z</time>
      </trkpt>
      <trkpt lat="43.80355" lon="4.17831">
        <ele>174</ele>
        <time>2012-03-11T10:03:45Z</time>
      </trkpt>
      <trkpt lat="43.80355" lon="4.17834">
        <ele>174</ele>
        <time>2012-03-11T10:03:46Z</time>
      </trkpt>
      <trkpt lat="43.80355" lon="4.17837">
        <ele>174</ele>
        <time>2012-03-11T10:03:47Z</time>
      </trkpt>
      <trkpt lat="43.80355" lon="4.17841">
        <ele>175</ele>
        <time>2012-03-11T10:03:48Z</time>
      </trkpt>
      <trkpt lat="43.80355" lon="4.17844">
        <ele>175</ele>
        <time>2012-03-11T10:03:49Z</time>
      </trkpt>
      <trkpt lat="43.80355" lon="4.17847">
        <ele>175</ele>
        <time>2012-03-11T10:03:50Z</time>
      </trkpt>
      <trkpt lat="43.80355" lon="4.17851">
        <ele>176</ele>
        <time>2012-03-11T10:03:51Z</time>
      </trkpt>
      <trkpt lat="43.80355" lon="4.17854">
        <ele>176</ele>
        <time>2012-03-11T10:03:52Z</time>
      </trkpt>
      <trkpt lat="43.80355" lon="4.17859">
        <ele>176</ele>
        <time>2012-03-11T10:03:53Z</time>
      </trkpt>
      <trkpt lat="43.80355" lon="4.17862">
        <ele>176</ele>
        <time>2012-03-11T10:03:54Z</time>
      </trkpt>
      <trkpt lat="43.80355" lon="4.17865">
        <ele>176</ele>
        <time>2012-03-11T10:03:55Z</time>
      </trkpt>
      <trkpt lat="43.80355" lon="4.17868">
        <ele>177</ele>
        <time>2012-03-11T10:03:56Z</time>
      </trkpt>
      <trkpt lat="43.80356" lon="4.17871">
        <ele>177</ele>
        <time>2012-03-11T10:03:57Z</time>
      </trkpt>
      <trkpt lat="43.80355" lon="4.17874">
        <ele>177</ele>
        <time>2012-03-11T10:03:58Z</time>
      </trkpt>
      <trkpt lat="43.80355" lon="4.17877">
        <ele>178</ele>
        <time>2012-03-11T10:03:59Z</time>
      </trkpt>
      <trkpt lat="43.80355" lon="4.17881">
        <ele>178</ele>
        <time>2012-03-11T10:04:00Z</time>
      </trkpt>
      <trkpt lat="43.80355" lon="4.17884">
        <ele>178</ele>
        <time>2012-03-11T10:04:01Z</time>
      </trkpt>
      <trkpt lat="43.80355" lon="4.17887">
        <ele>178</ele>
        <time>2012-03-11T10:04:02Z</time>
      </trkpt>
      <trkpt lat="43.80355" lon="4.17891">
        <ele>178</ele>
        <time>2012-03-11T10:04:03Z</time>
      </trkpt>
      <trkpt lat="43.80355" lon="4.17894">
        <ele>178</ele>
        <time>2012-03-11T10:04:04Z</time>
      </trkpt>
      <trkpt lat="43.80355" lon="4.17896">
        <ele>179</ele>
        <time>2012-03-11T10:04:05Z</time>
      </trkpt>
      <trkpt lat="43.80355" lon="4.17899">
        <ele>179</ele>
        <time>2012-03-11T10:04:06Z</time>
      </trkpt>
      <trkpt lat="43.80355" lon="4.17902">
        <ele>179</ele>
        <time>2012-03-11T10:04:07Z</time>
      </trkpt>
      <trkpt lat="43.80355" lon="4.17905">
        <ele>179</ele>
        <time>2012-03-11T10:04:08Z</time>
      </trkpt>
      <trkpt lat="43.80355" lon="4.17908">
        <ele>179</ele>
        <time>2012-03-11T10:04:09Z</time>
      </trkpt>
      <trkpt lat="43.80355" lon="4.17911">
        <ele>179</ele>
        <time>2012-03-11T10:04:10Z</time>
      </trkpt>
      <trkpt lat="43.80356" lon="4.17914">
        <ele>179</ele>
        <time>2012-03-11T10:04:11Z</time>
      </trkpt>
      <trkpt lat="43.80356" lon="4.17917">
        <ele>179</ele>
        <time>2012-03-11T10:04:12Z</time>
      </trkpt>
      <trkpt lat="43.80356" lon="4.17919">
        <ele>179</ele>
        <time>2012-03-11T10:04:13Z</time>
      </trkpt>
      <trkpt lat="43.80357" lon="4.17923">
        <ele>179</ele>
        <time>2012-03-11T10:04:14Z</time>
      </trkpt>
      <trkpt lat="43.80356" lon="4.17926">
        <ele>179</ele>
        <time>2012-03-11T10:04:15Z</time>
      </trkpt>
      <trkpt lat="43.80356" lon="4.17928">
        <ele>179</ele>
        <time>2012-03-11T10:04:16Z</time>
      </trkpt>
      <trkpt lat="43.80356" lon="4.17932">
        <ele>179</ele>
        <time>2012-03-11T10:04:17Z</time>
      </trkpt>
      <trkpt lat="43.80357" lon="4.17935">
        <ele>179</ele>
        <time>2012-03-11T10:04:18Z</time>
      </trkpt>
      <trkpt lat="43.80357" lon="4.17938">
        <ele>179</ele>
        <time>2012-03-11T10:04:19Z</time>
      </trkpt>
      <trkpt lat="43.80357" lon="4.17941">
        <ele>179</ele>
        <time>2012-03-11T10:04:20Z</time>
      </trkpt>
      <trkpt lat="43.80357" lon="4.17944">
        <ele>179</ele>
        <time>2012-03-11T10:04:21Z</time>
      </trkpt>
      <trkpt lat="43.80358" lon="4.17947">
        <ele>179</ele>
        <time>2012-03-11T10:04:22Z</time>
      </trkpt>
      <trkpt lat="43.80358" lon="4.1795">
        <ele>179</ele>
        <time>2012-03-11T10:04:23Z</time>
      </trkpt>
      <trkpt lat="43.80359" lon="4.17953">
        <ele>179</ele>
        <time>2012-03-11T10:04:24Z</time>
      </trkpt>
      <trkpt lat="43.80359" lon="4.17956">
        <ele>179</ele>
        <time>2012-03-11T10:04:25Z</time>
      </trkpt>
      <trkpt lat="43.8036" lon="4.17959">
        <ele>179</ele>
        <time>2012-03-11T10:04:26Z</time>
      </trkpt>
      <trkpt lat="43.8036" lon="4.17962">
        <ele>179</ele>
        <time>2012-03-11T10:04:27Z</time>
      </trkpt>
      <trkpt lat="43.8036" lon="4.17964">
        <ele>179</ele>
        <time>2012-03-11T10:04:28Z</time>
      </trkpt>
      <trkpt lat="43.80361" lon="4.17967">
        <ele>179</ele>
        <time>2012-03-11T10:04:29Z</time>
      </trkpt>
      <trkpt lat="43.80362" lon="4.1797">
        <ele>179</ele>
        <time>2012-03-11T10:04:30Z</time>
      </trkpt>
      <trkpt lat="43.80363" lon="4.17973">
        <ele>179</ele>
        <time>2012-03-11T10:04:31Z</time>
      </trkpt>
      <trkpt lat="43.80364" lon="4.17976">
        <ele>179</ele>
        <time>2012-03-11T10:04:32Z</time>
      </trkpt>
      <trkpt lat="43.80365" lon="4.17978">
        <ele>179</ele>
        <time>2012-03-11T10:04:33Z</time>
      </trkpt>
      <trkpt lat="43.80365" lon="4.17981">
        <ele>179</ele>
        <time>2012-03-11T10:04:34Z</time>
      </trkpt>
      <trkpt lat="43.80366" lon="4.17984">
        <ele>179</ele>
        <time>2012-03-11T10:04:35Z</time>
      </trkpt>
      <trkpt lat="43.80367" lon="4.17987">
        <ele>179</ele>
        <time>2012-03-11T10:04:36Z</time>
      </trkpt>
      <trkpt lat="43.80368" lon="4.1799">
        <ele>179</ele>
        <time>2012-03-11T10:04:37Z</time>
      </trkpt>
      <trkpt lat="43.80369" lon="4.17993">
        <ele>179</ele>
        <time>2012-03-11T10:04:38Z</time>
      </trkpt>
      <trkpt lat="43.8037" lon="4.17996">
        <ele>179</ele>
        <time>2012-03-11T10:04:39Z</time>
      </trkpt>
      <trkpt lat="43.80371" lon="4.17999">
        <ele>179</ele>
        <time>2012-03-11T10:04:40Z</time>
      </trkpt>
      <trkpt lat="43.80373" lon="4.18001">
        <ele>179</ele>
        <time>2012-03-11T10:04:41Z</time>
      </trkpt>
      <trkpt lat="43.80374" lon="4.18004">
        <ele>179</ele>
        <time>2012-03-11T10:04:42Z</time>
      </trkpt>
      <trkpt lat="43.80375" lon="4.18007">
        <ele>179</ele>
        <time>2012-03-11T10:04:43Z</time>
      </trkpt>
      <trkpt lat="43.80376" lon="4.1801">
        <ele>179</ele>
        <time>2012-03-11T10:04:44Z</time>
      </trkpt>
      <trkpt lat="43.80378" lon="4.18013">
        <ele>179</ele>
        <time>2012-03-11T10:04:45Z</time>
      </trkpt>
      <trkpt lat="43.80379" lon="4.18015">
        <ele>179</ele>
        <time>2012-03-11T10:04:46Z</time>
      </trkpt>
      <trkpt lat="43.8038" lon="4.18018">
        <ele>179</ele>
        <time>2012-03-11T10:04:47Z</time>
      </trkpt>
      <trkpt lat="43.80381" lon="4.18021">
        <ele>179</ele>
        <time>2012-03-11T10:04:48Z</time>
      </trkpt>
      <trkpt lat="43.80382" lon="4.18024">
        <ele>179</ele>
        <time>2012-03-11T10:04:49Z</time>
      </trkpt>
      <trkpt lat="43.80383" lon="4.18026">
        <ele>179</ele>
        <time>2012-03-11T10:04:50Z</time>
      </trkpt>
      <trkpt lat="43.80384" lon="4.18029">
        <ele>179</ele>
        <time>2012-03-11T10:04:51Z</time>
      </trkpt>
      <trkpt lat="43.80386" lon="4.18032">
        <ele>179</ele>
        <time>2012-03-11T10:04:52Z</time>
      </trkpt>
      <trkpt lat="43.80387" lon="4.18034">
        <ele>179</ele>
        <time>2012-03-11T10:04:53Z</time>
      </trkpt>
      <trkpt lat="43.80388" lon="4.18037">
        <ele>179</ele>
        <time>2012-03-11T10:04:54Z</time>
      </trkpt>
      <trkpt lat="43.80389" lon="4.18041">
        <ele>179</ele>
        <time>2012-03-11T10:04:55Z</time>
      </trkpt>
      <trkpt lat="43.80391" lon="4.18045">
        <ele>179</ele>
        <time>2012-03-11T10:04:56Z</time>
      </trkpt>
      <trkpt lat="43.80392" lon="4.18048">
        <ele>179</ele>
        <time>2012-03-11T10:04:57Z</time>
      </trkpt>
      <trkpt lat="43.80394" lon="4.1805">
        <ele>179</ele>
        <time>2012-03-11T10:04:58Z</time>
      </trkpt>
      <trkpt lat="43.80394" lon="4.18053">
        <ele>179</ele>
        <time>2012-03-11T10:04:59Z</time>
      </trkpt>
      <trkpt lat="43.80396" lon="4.18056">
        <ele>179</ele>
        <time>2012-03-11T10:05:00Z</time>
      </trkpt>
      <trkpt lat="43.80397" lon="4.18058">
        <ele>179</ele>
        <time>2012-03-11T10:05:01Z</time>
      </trkpt>
      <trkpt lat="43.80397" lon="4.18061">
        <ele>179</ele>
        <time>2012-03-11T10:05:02Z</time>
      </trkpt>
      <trkpt lat="43.80399" lon="4.18063">
        <ele>179</ele>
        <time>2012-03-11T10:05:03Z</time>
      </trkpt>
      <trkpt lat="43.804" lon="4.18066">
        <ele>179</ele>
        <time>2012-03-11T10:05:04Z</time>
      </trkpt>
      <trkpt lat="43.80401" lon="4.18069">
        <ele>179</ele>
        <time>2012-03-11T10:05:05Z</time>
      </trkpt>
      <trkpt lat="43.80402" lon="4.18072">
        <ele>179</ele>
        <time>2012-03-11T10:05:06Z</time>
      </trkpt>
      <trkpt lat="43.80403" lon="4.18074">
        <ele>179</ele>
        <time>2012-03-11T10:05:07Z</time>
      </trkpt>
      <trkpt lat="43.80404" lon="4.18077">
        <ele>179</ele>
        <time>2012-03-11T10:05:08Z</time>
      </trkpt>
      <trkpt lat="43.80405" lon="4.18079">
        <ele>179</ele>
        <time>2012-03-11T10:05:09Z</time>
      </trkpt>
      <trkpt lat="43.80407" lon="4.18081">
        <ele>179</ele>
        <time>2012-03-11T10:05:10Z</time>
      </trkpt>
      <trkpt lat="43.80408" lon="4.18083">
        <ele>179</ele>
        <time>2012-03-11T10:05:11Z</time>
      </trkpt>
      <trkpt lat="43.80409" lon="4.18086">
        <ele>179</ele>
        <time>2012-03-11T10:05:12Z</time>
      </trkpt>
      <trkpt lat="43.80411" lon="4.18088">
        <ele>179</ele>
        <time>2012-03-11T10:05:13Z</time>
      </trkpt>
      <trkpt lat="43.80412" lon="4.18089">
        <ele>180</ele>
        <time>2012-03-11T10:05:14Z</time>
      </trkpt>
      <trkpt lat="43.80413" lon="4.18091">
        <ele>180</ele>
        <time>2012-03-11T10:05:15Z</time>
      </trkpt>
      <trkpt lat="43.80415" lon="4.18093">
        <ele>180</ele>
        <time>2012-03-11T10:05:16Z</time>
      </trkpt>
      <trkpt lat="43.80416" lon="4.18095">
        <ele>180</ele>
        <time>2012-03-11T10:05:17Z</time>
      </trkpt>
      <trkpt lat="43.80419" lon="4.18098">
        <ele>180</ele>
        <time>2012-03-11T10:05:18Z</time>
      </trkpt>
      <trkpt lat="43.80421" lon="4.18101">
        <ele>180</ele>
        <time>2012-03-11T10:05:19Z</time>
      </trkpt>
      <trkpt lat="43.80423" lon="4.18103">
        <ele>180</ele>
        <time>2012-03-11T10:05:20Z</time>
      </trkpt>
      <trkpt lat="43.80424" lon="4.18105">
        <ele>180</ele>
        <time>2012-03-11T10:05:21Z</time>
      </trkpt>
      <trkpt lat="43.80426" lon="4.18108">
        <ele>180</ele>
        <time>2012-03-11T10:05:22Z</time>
      </trkpt>
      <trkpt lat="43.80428" lon="4.1811">
        <ele>181</ele>
        <time>2012-03-11T10:05:23Z</time>
      </trkpt>
      <trkpt lat="43.8043" lon="4.18113">
        <ele>181</ele>
        <time>2012-03-11T10:05:24Z</time>
      </trkpt>
      <trkpt lat="43.80432" lon="4.18115">
        <ele>181</ele>
        <time>2012-03-11T10:05:25Z</time>
      </trkpt>
      <trkpt lat="43.80433" lon="4.18118">
        <ele>181</ele>
        <time>2012-03-11T10:05:26Z</time>
      </trkpt>
      <trkpt lat="43.80435" lon="4.1812">
        <ele>181</ele>
        <time>2012-03-11T10:05:27Z</time>
      </trkpt>
      <trkpt lat="43.80436" lon="4.18122">
        <ele>181</ele>
        <time>2012-03-11T10:05:28Z</time>
      </trkpt>
      <trkpt lat="43.80438" lon="4.18125">
        <ele>181</ele>
        <time>2012-03-11T10:05:29Z</time>
      </trkpt>
      <trkpt lat="43.8044" lon="4.18127">
        <ele>181</ele>
        <time>2012-03-11T10:05:30Z</time>
      </trkpt>
      <trkpt lat="43.80442" lon="4.18129">
        <ele>181</ele>
        <time>2012-03-11T10:05:31Z</time>
      </trkpt>
      <trkpt lat="43.80443" lon="4.18131">
        <ele>181</ele>
        <time>2012-03-11T10:05:32Z</time>
      </trkpt>
      <trkpt lat="43.80444" lon="4.18134">
        <ele>181</ele>
        <time>2012-03-11T10:05:33Z</time>
      </trkpt>
      <trkpt lat="43.80446" lon="4.18136">
        <ele>181</ele>
        <time>2012-03-11T10:05:34Z</time>
      </trkpt>
      <trkpt lat="43.80447" lon="4.18138">
        <ele>181</ele>
        <time>2012-03-11T10:05:35Z</time>
      </trkpt>
      <trkpt lat="43.80449" lon="4.1814">
        <ele>181</ele>
        <time>2012-03-11T10:05:36Z</time>
      </trkpt>
      <trkpt lat="43.8045" lon="4.18142">
        <ele>181</ele>
        <time>2012-03-11T10:05:37Z</time>
      </trkpt>
      <trkpt lat="43.80452" lon="4.18144">
        <ele>181</ele>
        <time>2012-03-11T10:05:38Z</time>
      </trkpt>
      <trkpt lat="43.80453" lon="4.18146">
        <ele>181</ele>
        <time>2012-03-11T10:05:39Z</time>
      </trkpt>
      <trkpt lat="43.80455" lon="4.18149">
        <ele>181</ele>
        <time>2012-03-11T10:05:40Z</time>
      </trkpt>
      <trkpt lat="43.80457" lon="4.18151">
        <ele>181</ele>
        <time>2012-03-11T10:05:41Z</time>
      </trkpt>
      <trkpt lat="43.80458" lon="4.18153">
        <ele>182</ele>
        <time>2012-03-11T10:05:42Z</time>
      </trkpt>
      <trkpt lat="43.8046" lon="4.18155">
        <ele>182</ele>
        <time>2012-03-11T10:05:43Z</time>
      </trkpt>
      <trkpt lat="43.80462" lon="4.18157">
        <ele>182</ele>
        <time>2012-03-11T10:05:44Z</time>
      </trkpt>
      <trkpt lat="43.80463" lon="4.18159">
        <ele>182</ele>
        <time>2012-03-11T10:05:45Z</time>
      </trkpt>
      <trkpt lat="43.80465" lon="4.18161">
        <ele>182</ele>
        <time>2012-03-11T10:05:46Z</time>
      </trkpt>
      <trkpt lat="43.80466" lon="4.18163">
        <ele>182</ele>
        <time>2012-03-11T10:05:47Z</time>
      </trkpt>
      <trkpt lat="43.80468" lon="4.18165">
        <ele>183</ele>
        <time>2012-03-11T10:05:48Z</time>
      </trkpt>
      <trkpt lat="43.8047" lon="4.18167">
        <ele>183</ele>
        <time>2012-03-11T10:05:49Z</time>
      </trkpt>
      <trkpt lat="43.80471" lon="4.18169">
        <ele>183</ele>
        <time>2012-03-11T10:05:50Z</time>
      </trkpt>
      <trkpt lat="43.80473" lon="4.18171">
        <ele>183</ele>
        <time>2012-03-11T10:05:51Z</time>
      </trkpt>
      <trkpt lat="43.80475" lon="4.18173">
        <ele>183</ele>
        <time>2012-03-11T10:05:52Z</time>
      </trkpt>
      <trkpt lat="43.80476" lon="4.18175">
        <ele>183</ele>
        <time>2012-03-11T10:05:53Z</time>
      </trkpt>
      <trkpt lat="43.80478" lon="4.18176">
        <ele>184</ele>
        <time>2012-03-11T10:05:54Z</time>
      </trkpt>
      <trkpt lat="43.8048" lon="4.18178">
        <ele>184</ele>
        <time>2012-03-11T10:05:55Z</time>
      </trkpt>
      <trkpt lat="43.80482" lon="4.18179">
        <ele>184</ele>
        <time>2012-03-11T10:05:56Z</time>
      </trkpt>
      <trkpt lat="43.80483" lon="4.18181">
        <ele>184</ele>
        <time>2012-03-11T10:05:57Z</time>
      </trkpt>
      <trkpt lat="43.80485" lon="4.18182">
        <ele>184</ele>
        <time>2012-03-11T10:05:58Z</time>
      </trkpt>
      <trkpt lat="43.80487" lon="4.18184">
        <ele>184</ele>
        <time>2012-03-11T10:05:59Z</time>
      </trkpt>
      <trkpt lat="43.80488" lon="4.18186">
        <ele>184</ele>
        <time>2012-03-11T10:06:00Z</time>
      </trkpt>
      <trkpt lat="43.8049" lon="4.18187">
        <ele>184</ele>
        <time>2012-03-11T10:06:01Z</time>
      </trkpt>
      <trkpt lat="43.80492" lon="4.18189">
        <ele>184</ele>
        <time>2012-03-11T10:06:02Z</time>
      </trkpt>
      <trkpt lat="43.80495" lon="4.18191">
        <ele>184</ele>
        <time>2012-03-11T10:06:03Z</time>
      </trkpt>
      <trkpt lat="43.80497" lon="4.18192">
        <ele>184</ele>
        <time>2012-03-11T10:06:04Z</time>
      </trkpt>
      <trkpt lat="43.80499" lon="4.18194">
        <ele>184</ele>
        <time>2012-03-11T10:06:05Z</time>
      </trkpt>
      <trkpt lat="43.805" lon="4.18195">
        <ele>184</ele>
        <time>2012-03-11T10:06:06Z</time>
      </trkpt>
      <trkpt lat="43.80502" lon="4.18197">
        <ele>185</ele>
        <time>2012-03-11T10:06:07Z</time>
      </trkpt>
      <trkpt lat="43.80504" lon="4.18198">
        <ele>185</ele>
        <time>2012-03-11T10:06:08Z</time>
      </trkpt>
      <trkpt lat="43.80505" lon="4.18199">
        <ele>185</ele>
        <time>2012-03-11T10:06:09Z</time>
      </trkpt>
      <trkpt lat="43.80506" lon="4.182">
        <ele>185</ele>
        <time>2012-03-11T10:06:10Z</time>
      </trkpt>
      <trkpt lat="43.80508" lon="4.18202">
        <ele>185</ele>
        <time>2012-03-11T10:06:11Z</time>
      </trkpt>
      <trkpt lat="43.8051" lon="4.18202">
        <ele>185</ele>
        <time>2012-03-11T10:06:12Z</time>
      </trkpt>
      <trkpt lat="43.80511" lon="4.18203">
        <ele>185</ele>
        <time>2012-03-11T10:06:13Z</time>
      </trkpt>
      <trkpt lat="43.80513" lon="4.18205">
        <ele>185</ele>
        <time>2012-03-11T10:06:14Z</time>
      </trkpt>
      <trkpt lat="43.80515" lon="4.18207">
        <ele>185</ele>
        <time>2012-03-11T10:06:15Z</time>
      </trkpt>
      <trkpt lat="43.80516" lon="4.18209">
        <ele>185</ele>
        <time>2012-03-11T10:06:16Z</time>
      </trkpt>
      <trkpt lat="43.80519" lon="4.18211">
        <ele>185</ele>
        <time>2012-03-11T10:06:17Z</time>
      </trkpt>
      <trkpt lat="43.80521" lon="4.18213">
        <ele>185</ele>
        <time>2012-03-11T10:06:18Z</time>
      </trkpt>
      <trkpt lat="43.80524" lon="4.18215">
        <ele>185</ele>
        <time>2012-03-11T10:06:19Z</time>
      </trkpt>
      <trkpt lat="43.80527" lon="4.18217">
        <ele>185</ele>
        <time>2012-03-11T10:06:20Z</time>
      </trkpt>
      <trkpt lat="43.8053" lon="4.18219">
        <ele>185</ele>
        <time>2012-03-11T10:06:21Z</time>
      </trkpt>
      <trkpt lat="43.80533" lon="4.18221">
        <ele>185</ele>
        <time>2012-03-11T10:06:22Z</time>
      </trkpt>
      <trkpt lat="43.80536" lon="4.18223">
        <ele>185</ele>
        <time>2012-03-11T10:06:23Z</time>
      </trkpt>
      <trkpt lat="43.80539" lon="4.18225">
        <ele>185</ele>
        <time>2012-03-11T10:06:24Z</time>
      </trkpt>
      <trkpt lat="43.80542" lon="4.18227">
        <ele>185</ele>
        <time>2012-03-11T10:06:25Z</time>
      </trkpt>
      <trkpt lat="43.80545" lon="4.18229">
        <ele>185</ele>
        <time>2012-03-11T10:06:26Z</time>
      </trkpt>
      <trkpt lat="43.80548" lon="4.18231">
        <ele>185</ele>
        <time>2012-03-11T10:06:27Z</time>
      </trkpt>
      <trkpt lat="43.80552" lon="4.18233">
        <ele>185</ele>
        <time>2012-03-11T10:06:28Z</time>
      </trkpt>
      <trkpt lat="43.80555" lon="4.18235">
        <ele>185</ele>
        <time>2012-03-11T10:06:29Z</time>
      </trkpt>
      <trkpt lat="43.80559" lon="4.18237">
        <ele>185</ele>
        <time>2012-03-11T10:06:30Z</time>
      </trkpt>
      <trkpt lat="43.80563" lon="4.18239">
        <ele>185</ele>
        <time>2012-03-11T10:06:31Z</time>
      </trkpt>
      <trkpt lat="43.80567" lon="4.18242">
        <ele>185</ele>
        <time>2012-03-11T10:06:32Z</time>
      </trkpt>
      <trkpt lat="43.80571" lon="4.18244">
        <ele>185</ele>
        <time>2012-03-11T10:06:33Z</time>
      </trkpt>
      <trkpt lat="43.80574" lon="4.18246">
        <ele>185</ele>
        <time>2012-03-11T10:06:34Z</time>
      </trkpt>
      <trkpt lat="43.80578" lon="4.18248">
        <ele>185</ele>
        <time>2012-03-11T10:06:35Z</time>
      </trkpt>
      <trkpt lat="43.80581" lon="4.18251">
        <ele>185</ele>
        <time>2012-03-11T10:06:36Z</time>
      </trkpt>
      <trkpt lat="43.80583" lon="4.18254">
        <ele>185</ele>
        <time>2012-03-11T10:06:37Z</time>
      </trkpt>
      <trkpt lat="43.80585" lon="4.18257">
        <ele>185</ele>
        <time>2012-03-11T10:06:38Z</time>
      </trkpt>
      <trkpt lat="43.80588" lon="4.1826">
        <ele>185</ele>
        <time>2012-03-11T10:06:39Z</time>
      </trkpt>
      <trkpt lat="43.8059" lon="4.18263">
        <ele>185</ele>
        <time>2012-03-11T10:06:40Z</time>
      </trkpt>
      <trkpt lat="43.80592" lon="4.18265">
        <ele>185</ele>
        <time>2012-03-11T10:06:41Z</time>
      </trkpt>
      <trkpt lat="43.80593" lon="4.18268">
        <ele>185</ele>
        <time>2012-03-11T10:06:42Z</time>
      </trkpt>
      <trkpt lat="43.80595" lon="4.1827">
        <ele>185</ele>
        <time>2012-03-11T10:06:43Z</time>
      </trkpt>
      <trkpt lat="43.80596" lon="4.18274">
        <ele>185</ele>
        <time>2012-03-11T10:06:44Z</time>
      </trkpt>
      <trkpt lat="43.80598" lon="4.18278">
        <ele>185</ele>
        <time>2012-03-11T10:06:45Z</time>
      </trkpt>
      <trkpt lat="43.806" lon="4.18281">
        <ele>185</ele>
        <time>2012-03-11T10:06:46Z</time>
      </trkpt>
      <trkpt lat="43.80602" lon="4.18284">
        <ele>185</ele>
        <time>2012-03-11T10:06:47Z</time>
      </trkpt>
      <trkpt lat="43.80604" lon="4.18287">
        <ele>185</ele>
        <time>2012-03-11T10:06:48Z</time>
      </trkpt>
      <trkpt lat="43.80606" lon="4.1829">
        <ele>185</ele>
        <time>2012-03-11T10:06:49Z</time>
      </trkpt>
      <trkpt lat="43.80609" lon="4.18292">
        <ele>185</ele>
        <time>2012-03-11T10:06:50Z</time>
      </trkpt>
      <trkpt lat="43.80611" lon="4.18294">
        <ele>185</ele>
        <time>2012-03-11T10:06:51Z</time>
      </trkpt>
      <trkpt lat="43.80614" lon="4.18296">
        <ele>185</ele>
        <time>2012-03-11T10:06:52Z</time>
      </trkpt>
      <trkpt lat="43.80616" lon="4.18297">
        <ele>186</ele>
        <time>2012-03-11T10:06:53Z</time>
      </trkpt>
      <trkpt lat="43.80619" lon="4.18298">
        <ele>186</ele>
        <time>2012-03-11T10:06:54Z</time>
      </trkpt>
      <trkpt lat="43.80622" lon="4.18299">
        <ele>186</ele>
        <time>2012-03-11T10:06:55Z</time>
      </trkpt>
      <trkpt lat="43.80625" lon="4.183">
        <ele>186</ele>
        <time>2012-03-11T10:06:56Z</time>
      </trkpt>
      <trkpt lat="43.80628" lon="4.183">
        <ele>187</ele>
        <time>2012-03-11T10:06:57Z</time>
      </trkpt>
      <trkpt lat="43.80631" lon="4.18301">
        <ele>187</ele>
        <time>2012-03-11T10:06:58Z</time>
      </trkpt>
      <trkpt lat="43.80634" lon="4.18302">
        <ele>187</ele>
        <time>2012-03-11T10:06:59Z</time>
      </trkpt>
      <trkpt lat="43.80637" lon="4.18302">
        <ele>187</ele>
        <time>2012-03-11T10:07:00Z</time>
      </trkpt>
      <trkpt lat="43.8064" lon="4.18303">
        <ele>187</ele>
        <time>2012-03-11T10:07:01Z</time>
      </trkpt>
      <trkpt lat="43.80643" lon="4.18303">
        <ele>187</ele>
        <time>2012-03-11T10:07:02Z</time>
      </trkpt>
      <trkpt lat="43.80646" lon="4.18304">
        <ele>187</ele>
        <time>2012-03-11T10:07:03Z</time>
      </trkpt>
      <trkpt lat="43.80649" lon="4.18304">
        <ele>187</ele>
        <time>2012-03-11T10:07:04Z</time>
      </trkpt>
      <trkpt lat="43.80651" lon="4.18305">
        <ele>187</ele>
        <time>2012-03-11T10:07:05Z</time>
      </trkpt>
      <trkpt lat="43.80655" lon="4.18305">
        <ele>187</ele>
        <time>2012-03-11T10:07:06Z</time>
      </trkpt>
      <trkpt lat="43.80658" lon="4.18306">
        <ele>187</ele>
        <time>2012-03-11T10:07:07Z</time>
      </trkpt>
      <trkpt lat="43.80661" lon="4.18306">
        <ele>187</ele>
        <time>2012-03-11T10:07:08Z</time>
      </trkpt>
      <trkpt lat="43.80664" lon="4.18306">
        <ele>187</ele>
        <time>2012-03-11T10:07:09Z</time>
      </trkpt>
      <trkpt lat="43.80667" lon="4.18306">
        <ele>187</ele>
        <time>2012-03-11T10:07:10Z</time>
      </trkpt>
      <trkpt lat="43.8067" lon="4.18306">
        <ele>188</ele>
        <time>2012-03-11T10:07:11Z</time>
      </trkpt>
      <trkpt lat="43.80672" lon="4.18306">
        <ele>188</ele>
        <time>2012-03-11T10:07:12Z</time>
      </trkpt>
      <trkpt lat="43.80675" lon="4.18305">
        <ele>188</ele>
        <time>2012-03-11T10:07:13Z</time>
      </trkpt>
      <trkpt lat="43.80678" lon="4.18305">
        <ele>188</ele>
        <time>2012-03-11T10:07:14Z</time>
      </trkpt>
      <trkpt lat="43.8068" lon="4.18305">
        <ele>188</ele>
        <time>2012-03-11T10:07:15Z</time>
      </trkpt>
      <trkpt lat="43.80682" lon="4.18304">
        <ele>188</ele>
        <time>2012-03-11T10:07:16Z</time>
      </trkpt>
      <trkpt lat="43.80685" lon="4.18304">
        <ele>188</ele>
        <time>2012-03-11T10:07:17Z</time>
      </trkpt>
      <trkpt lat="43.80688" lon="4.18304">
        <ele>188</ele>
        <time>2012-03-11T10:07:18Z</time>
      </trkpt>
      <trkpt lat="43.8069" lon="4.18303">
        <ele>189</ele>
        <time>2012-03-11T10:07:19Z</time>
      </trkpt>
      <trkpt lat="43.80693" lon="4.18303">
        <ele>189</ele>
        <time>2012-03-11T10:07:20Z</time>
      </trkpt>
      <trkpt lat="43.80695" lon="4.18302">
        <ele>189</ele>
        <time>2012-03-11T10:07:21Z</time>
      </trkpt>
      <trkpt lat="43.80698" lon="4.18302">
        <ele>189</ele>
        <time>2012-03-11T10:07:22Z</time>
      </trkpt>
      <trkpt lat="43.807" lon="4.18301">
        <ele>189</ele>
        <time>2012-03-11T10:07:23Z</time>
      </trkpt>
      <trkpt lat="43.80703" lon="4.18301">
        <ele>189</ele>
        <time>2012-03-11T10:07:24Z</time>
      </trkpt>
      <trkpt lat="43.80705" lon="4.183">
        <ele>190</ele>
        <time>2012-03-11T10:07:25Z</time>
      </trkpt>
      <trkpt lat="43.80708" lon="4.18299">
        <ele>190</ele>
        <time>2012-03-11T10:07:26Z</time>
      </trkpt>
      <trkpt lat="43.8071" lon="4.18299">
        <ele>190</ele>
        <time>2012-03-11T10:07:27Z</time>
      </trkpt>
      <trkpt lat="43.80713" lon="4.18299">
        <ele>190</ele>
        <time>2012-03-11T10:07:28Z</time>
      </trkpt>
      <trkpt lat="43.80715" lon="4.18299">
        <ele>190</ele>
        <time>2012-03-11T10:07:29Z</time>
      </trkpt>
      <trkpt lat="43.80717" lon="4.18299">
        <ele>190</ele>
        <time>2012-03-11T10:07:30Z</time>
      </trkpt>
      <trkpt lat="43.8072" lon="4.18298">
        <ele>191</ele>
        <time>2012-03-11T10:07:31Z</time>
      </trkpt>
      <trkpt lat="43.80722" lon="4.18298">
        <ele>191</ele>
        <time>2012-03-11T10:07:32Z</time>
      </trkpt>
      <trkpt lat="43.80725" lon="4.18297">
        <ele>191</ele>
        <time>2012-03-11T10:07:33Z</time>
      </trkpt>
      <trkpt lat="43.80727" lon="4.18297">
        <ele>191</ele>
        <time>2012-03-11T10:07:34Z</time>
      </trkpt>
      <trkpt lat="43.8073" lon="4.18296">
        <ele>192</ele>
        <time>2012-03-11T10:07:35Z</time>
      </trkpt>
      <trkpt lat="43.80732" lon="4.18296">
        <ele>192</ele>
        <time>2012-03-11T10:07:36Z</time>
      </trkpt>
      <trkpt lat="43.80734" lon="4.18296">
        <ele>192</ele>
        <time>2012-03-11T10:07:37Z</time>
      </trkpt>
      <trkpt lat="43.80737" lon="4.18295">
        <ele>192</ele>
        <time>2012-03-11T10:07:38Z</time>
      </trkpt>
      <trkpt lat="43.80739" lon="4.18294">
        <ele>192</ele>
        <time>2012-03-11T10:07:39Z</time>
      </trkpt>
      <trkpt lat="43.80742" lon="4.18294">
        <ele>192</ele>
        <time>2012-03-11T10:07:40Z</time>
      </trkpt>
      <trkpt lat="43.80744" lon="4.18293">
        <ele>193</ele>
        <time>2012-03-11T10:07:41Z</time>
      </trkpt>
      <trkpt lat="43.80747" lon="4.18293">
        <ele>193</ele>
        <time>2012-03-11T10:07:42Z</time>
      </trkpt>
      <trkpt lat="43.80749" lon="4.18292">
        <ele>193</ele>
        <time>2012-03-11T10:07:43Z</time>
      </trkpt>
      <trkpt lat="43.80751" lon="4.18291">
        <ele>193</ele>
        <time>2012-03-11T10:07:44Z</time>
      </trkpt>
      <trkpt lat="43.80754" lon="4.1829">
        <ele>193</ele>
        <time>2012-03-11T10:07:45Z</time>
      </trkpt>
      <trkpt lat="43.80756" lon="4.1829">
        <ele>194</ele>
        <time>2012-03-11T10:07:46Z</time>
      </trkpt>
      <trkpt lat="43.80758" lon="4.18289">
        <ele>194</ele>
        <time>2012-03-11T10:07:47Z</time>
      </trkpt>
      <trkpt lat="43.8076" lon="4.18288">
        <ele>194</ele>
        <time>2012-03-11T10:07:48Z</time>
      </trkpt>
      <trkpt lat="43.80763" lon="4.18287">
        <ele>194</ele>
        <time>2012-03-11T10:07:49Z</time>
      </trkpt>
      <trkpt lat="43.80765" lon="4.18287">
        <ele>194</ele>
        <time>2012-03-11T10:07:50Z</time>
      </trkpt>
      <trkpt lat="43.80767" lon="4.18286">
        <ele>195</ele>
        <time>2012-03-11T10:07:51Z</time>
      </trkpt>
      <trkpt lat="43.8077" lon="4.18285">
        <ele>195</ele>
        <time>2012-03-11T10:07:52Z</time>
      </trkpt>
      <trkpt lat="43.80772" lon="4.18284">
        <ele>195</ele>
        <time>2012-03-11T10:07:53Z</time>
      </trkpt>
      <trkpt lat="43.80774" lon="4.18283">
        <ele>195</ele>
        <time>2012-03-11T10:07:54Z</time>
      </trkpt>
      <trkpt lat="43.80777" lon="4.18282">
        <ele>195</ele>
        <time>2012-03-11T10:07:55Z</time>
      </trkpt>
      <trkpt lat="43.80779" lon="4.18281">
        <ele>195</ele>
        <time>2012-03-11T10:07:56Z</time>
      </trkpt>
      <trkpt lat="43.80781" lon="4.1828">
        <ele>195</ele>
        <time>2012-03-11T10:07:57Z</time>
      </trkpt>
      <trkpt lat="43.80783" lon="4.18279">
        <ele>195</ele>
        <time>2012-03-11T10:07:58Z</time>
      </trkpt>
      <trkpt lat="43.80786" lon="4.18277">
        <ele>196</ele>
        <time>2012-03-11T10:07:59Z</time>
      </trkpt>
      <trkpt lat="43.80788" lon="4.18276">
        <ele>196</ele>
        <time>2012-03-11T10:08:00Z</time>
      </trkpt>
      <trkpt lat="43.8079" lon="4.18275">
        <ele>196</ele>
        <time>2012-03-11T10:08:01Z</time>
      </trkpt>
      <trkpt lat="43.80792" lon="4.18273">
        <ele>196</ele>
        <time>2012-03-11T10:08:02Z</time>
      </trkpt>
      <trkpt lat="43.80795" lon="4.18272">
        <ele>196</ele>
        <time>2012-03-11T10:08:03Z</time>
      </trkpt>
      <trkpt lat="43.80797" lon="4.18271">
        <ele>196</ele>
        <time>2012-03-11T10:08:04Z</time>
      </trkpt>
      <trkpt lat="43.80799" lon="4.1827">
        <ele>196</ele>
        <time>2012-03-11T10:08:05Z</time>
      </trkpt>
      <trkpt lat="43.80801" lon="4.18268">
        <ele>196</ele>
        <time>2012-03-11T10:08:06Z</time>
      </trkpt>
      <trkpt lat="43.80803" lon="4.18267">
        <ele>196</ele>
        <time>2012-03-11T10:08:07Z</time>
      </trkpt>
      <trkpt lat="43.80805" lon="4.18265">
        <ele>196</ele>
        <time>2012-03-11T10:08:08Z</time>
      </trkpt>
      <trkpt lat="43.80807" lon="4.18264">
        <ele>196</ele>
        <time>2012-03-11T10:08:09Z</time>
      </trkpt>
      <trkpt lat="43.80809" lon="4.18263">
        <ele>196</ele>
        <time>2012-03-11T10:08:10Z</time>
      </trkpt>
      <trkpt lat="43.80811" lon="4.18262">
        <ele>196</ele>
        <time>2012-03-11T10:08:11Z</time>
      </trkpt>
      <trkpt lat="43.80812" lon="4.18261">
        <ele>196</ele>
        <time>2012-03-11T10:08:12Z</time>
      </trkpt>
      <trkpt lat="43.80814" lon="4.1826">
        <ele>196</ele>
        <time>2012-03-11T10:08:13Z</time>
      </trkpt>
      <trkpt lat="43.80816" lon="4.18259">
        <ele>196</ele>
        <time>2012-03-11T10:08:14Z</time>
      </trkpt>
      <trkpt lat="43.80817" lon="4.18258">
        <ele>196</ele>
        <time>2012-03-11T10:08:16Z</time>
      </trkpt>
      <trkpt lat="43.80818" lon="4.18257">
        <ele>196</ele>
        <time>2012-03-11T10:08:20Z</time>
      </trkpt>
      <trkpt lat="43.80819" lon="4.18256">
        <ele>196</ele>
        <time>2012-03-11T10:08:25Z</time>
      </trkpt>
      <trkpt lat="43.8082" lon="4.18256">
        <ele>196</ele>
        <time>2012-03-11T10:08:31Z</time>
      </trkpt>
      <trkpt lat="43.80822" lon="4.18257">
        <ele>196</ele>
        <time>2012-03-11T10:08:39Z</time>
      </trkpt>
      <trkpt lat="43.80823" lon="4.18258">
        <ele>196</ele>
        <time>2012-03-11T10:08:47Z</time>
      </trkpt>
      <trkpt lat="43.80824" lon="4.1826">
        <ele>196</ele>
        <time>2012-03-11T10:08:57Z</time>
      </trkpt>
      <trkpt lat="43.80825" lon="4.18261">
        <ele>196</ele>
        <time>2012-03-11T10:09:13Z</time>
      </trkpt>
      <trkpt lat="43.80826" lon="4.18262">
        <ele>195</ele>
        <time>2012-03-11T10:09:31Z</time>
      </trkpt>
      <trkpt lat="43.80827" lon="4.18263">
        <ele>194</ele>
        <time>2012-03-11T10:10:20Z</time>
      </trkpt>
      <trkpt lat="43.80828" lon="4.18264">
        <ele>192</ele>
        <time>2012-03-11T10:10:59Z</time>
      </trkpt>
      <trkpt lat="43.8083" lon="4.18265">
        <ele>191</ele>
        <time>2012-03-11T10:11:20Z</time>
      </trkpt>
      <trkpt lat="43.80828" lon="4.18266">
        <ele>191</ele>
        <time>2012-03-11T10:11:22Z</time>
      </trkpt>
      <trkpt lat="43.80826" lon="4.18266">
        <ele>191</ele>
        <time>2012-03-11T10:11:23Z</time>
      </trkpt>
      <trkpt lat="43.80825" lon="4.18265">
        <ele>191</ele>
        <time>2012-03-11T10:11:26Z</time>
      </trkpt>
      <trkpt lat="43.80824" lon="4.18265">
        <ele>191</ele>
        <time>2012-03-11T10:11:30Z</time>
      </trkpt>
      <trkpt lat="43.80822" lon="4.18265">
        <ele>191</ele>
        <time>2012-03-11T10:11:33Z</time>
      </trkpt>
      <trkpt lat="43.80821" lon="4.18265">
        <ele>191</ele>
        <time>2012-03-11T10:11:37Z</time>
      </trkpt>
      <trkpt lat="43.8082" lon="4.18265">
        <ele>191</ele>
        <time>2012-03-11T10:11:44Z</time>
      </trkpt>
      <trkpt lat="43.80819" lon="4.18265">
        <ele>191</ele>
        <time>2012-03-11T10:12:01Z</time>
      </trkpt>
      <trkpt lat="43.80819" lon="4.18266">
        <ele>191</ele>
        <time>2012-03-11T10:12:19Z</time>
      </trkpt>
      <trkpt lat="43.80817" lon="4.18267">
        <ele>191</ele>
        <time>2012-03-11T10:12:27Z</time>
      </trkpt>
      <trkpt lat="43.80819" lon="4.18267">
        <ele>194</ele>
        <time>2012-03-11T10:12:42Z</time>
      </trkpt>
      <trkpt lat="43.80818" lon="4.18265">
        <ele>196</ele>
        <time>2012-03-11T10:13:01Z</time>
      </trkpt>
      <trkpt lat="43.80817" lon="4.18265">
        <ele>196</ele>
        <time>2012-03-11T10:13:22Z</time>
      </trkpt>
      <trkpt lat="43.80817" lon="4.18266">
        <ele>196</ele>
        <time>2012-03-11T10:13:28Z</time>
      </trkpt>
      <trkpt lat="43.80816" lon="4.18265">
        <ele>200</ele>
        <time>2012-03-11T10:14:21Z</time>
      </trkpt>
      <trkpt lat="43.80815" lon="4.18266">
        <ele>200</ele>
        <time>2012-03-11T10:14:29Z</time>
      </trkpt>
      <trkpt lat="43.80814" lon="4.18264">
        <ele>200</ele>
        <time>2012-03-11T10:14:33Z</time>
      </trkpt>
      <trkpt lat="43.80815" lon="4.18263">
        <ele>204</ele>
        <time>2012-03-11T10:14:53Z</time>
      </trkpt>
      <trkpt lat="43.80816" lon="4.18264">
        <ele>202</ele>
        <time>2012-03-11T10:15:22Z</time>
      </trkpt>
      <trkpt lat="43.80816" lon="4.18266">
        <ele>202</ele>
        <time>2012-03-11T10:15:43Z</time>
      </trkpt>
      <trkpt lat="43.80814" lon="4.18266">
        <ele>202</ele>
        <time>2012-03-11T10:16:46Z</time>
      </trkpt>
      <trkpt lat="43.80813" lon="4.18266">
        <ele>202</ele>
        <time>2012-03-11T10:16:52Z</time>
      </trkpt>
      <trkpt lat="43.80813" lon="4.18268">
        <ele>202</ele>
        <time>2012-03-11T10:17:00Z</time>
      </trkpt>
      <trkpt lat="43.80814" lon="4.18266">
        <ele>200</ele>
        <time>2012-03-11T10:17:26Z</time>
      </trkpt>
      <trkpt lat="43.80814" lon="4.18265">
        <ele>200</ele>
        <time>2012-03-11T10:17:37Z</time>
      </trkpt>
      <trkpt lat="43.80815" lon="4.18266">
        <ele>200</ele>
        <time>2012-03-11T10:18:00Z</time>
      </trkpt>
      <trkpt lat="43.80815" lon="4.18265">
        <ele>200</ele>
        <time>2012-03-11T10:18:11Z</time>
      </trkpt>
      <trkpt lat="43.80815" lon="4.18266">
        <ele>200</ele>
        <time>2012-03-11T10:18:38Z</time>
      </trkpt>
      <trkpt lat="43.80815" lon="4.18265">
        <ele>200</ele>
        <time>2012-03-11T10:18:47Z</time>
      </trkpt>
      <trkpt lat="43.80817" lon="4.18264">
        <ele>200</ele>
        <time>2012-03-11T10:18:53Z</time>
      </trkpt>
      <trkpt lat="43.80818" lon="4.18263">
        <ele>200</ele>
        <time>2012-03-11T10:19:11Z</time>
      </trkpt>
      <trkpt lat="43.80817" lon="4.18263">
        <ele>200</ele>
        <time>2012-03-11T10:19:27Z</time>
      </trkpt>
      <trkpt lat="43.80816" lon="4.18265">
        <ele>200</ele>
        <time>2012-03-11T10:19:39Z</time>
      </trkpt>
      <trkpt lat="43.80816" lon="4.18264">
        <ele>200</ele>
        <time>2012-03-11T10:20:28Z</time>
      </trkpt>
      <trkpt lat="43.80817" lon="4.18264">
        <ele>200</ele>
        <time>2012-03-11T10:20:36Z</time>
      </trkpt>
      <trkpt lat="43.80816" lon="4.18264">
        <ele>201</ele>
        <time>2012-03-11T10:20:51Z</time>
      </trkpt>
      <trkpt lat="43.80815" lon="4.18265">
        <ele>201</ele>
        <time>2012-03-11T10:21:22Z</time>
      </trkpt>
      <trkpt lat="43.80815" lon="4.18264">
        <ele>201</ele>
        <time>2012-03-11T10:21:37Z</time>
      </trkpt>
      <trkpt lat="43.80814" lon="4.18265">
        <ele>204</ele>
        <time>2012-03-11T10:22:06Z</time>
      </trkpt>
      <trkpt lat="43.80815" lon="4.18263">
        <ele>204</ele>
        <time>2012-03-11T10:22:47Z</time>
      </trkpt>
      <trkpt lat="43.80816" lon="4.18261">
        <ele>204</ele>
        <time>2012-03-11T10:23:05Z</time>
      </trkpt>
      <trkpt lat="43.80817" lon="4.1826">
        <ele>209</ele>
        <time>2012-03-11T10:23:28Z</time>
      </trkpt>
      <trkpt lat="43.80817" lon="4.18259">
        <ele>212</ele>
        <time>2012-03-11T10:23:47Z</time>
      </trkpt>
      <trkpt lat="43.80816" lon="4.18258">
        <ele>213</ele>
        <time>2012-03-11T10:24:12Z</time>
      </trkpt>
      <trkpt lat="43.80816" lon="4.1826">
        <ele>212</ele>
        <time>2012-03-11T10:24:28Z</time>
      </trkpt>
      <trkpt lat="43.80817" lon="4.1826">
        <ele>211</ele>
        <time>2012-03-11T10:24:43Z</time>
      </trkpt>
      <trkpt lat="43.80818" lon="4.1826">
        <ele>211</ele>
        <time>2012-03-11T10:24:49Z</time>
      </trkpt>
      <trkpt lat="43.80819" lon="4.1826">
        <ele>211</ele>
        <time>2012-03-11T10:24:55Z</time>
      </trkpt>
      <trkpt lat="43.8082" lon="4.1826">
        <ele>211</ele>
        <time>2012-03-11T10:25:01Z</time>
      </trkpt>
      <trkpt lat="43.80819" lon="4.1826">
        <ele>205</ele>
        <time>2012-03-11T10:25:25Z</time>
      </trkpt>
      <trkpt lat="43.80818" lon="4.1826">
        <ele>200</ele>
        <time>2012-03-11T10:25:35Z</time>
      </trkpt>
      <trkpt lat="43.80817" lon="4.1826">
        <ele>196</ele>
        <time>2012-03-11T10:26:09Z</time>
      </trkpt>
      <trkpt lat="43.80818" lon="4.1826">
        <ele>196</ele>
        <time>2012-03-11T10:26:14Z</time>
      </trkpt>
      <trkpt lat="43.80819" lon="4.1826">
        <ele>194</ele>
        <time>2012-03-11T10:27:09Z</time>
      </trkpt>
      <trkpt lat="43.80821" lon="4.1826">
        <ele>194</ele>
        <time>2012-03-11T10:27:11Z</time>
      </trkpt>
      <trkpt lat="43.80823" lon="4.18259">
        <ele>194</ele>
        <time>2012-03-11T10:27:13Z</time>
      </trkpt>
      <trkpt lat="43.80824" lon="4.18258">
        <ele>194</ele>
        <time>2012-03-11T10:27:15Z</time>
      </trkpt>
      <trkpt lat="43.80825" lon="4.18256">
        <ele>194</ele>
        <time>2012-03-11T10:27:17Z</time>
      </trkpt>
      <trkpt lat="43.80826" lon="4.18254">
        <ele>194</ele>
        <time>2012-03-11T10:27:20Z</time>
      </trkpt>
      <trkpt lat="43.80827" lon="4.18254">
        <ele>194</ele>
        <time>2012-03-11T10:27:26Z</time>
      </trkpt>
      <trkpt lat="43.80828" lon="4.18253">
        <ele>194</ele>
        <time>2012-03-11T10:27:32Z</time>
      </trkpt>
      <trkpt lat="43.80829" lon="4.18251">
        <ele>194</ele>
        <time>2012-03-11T10:27:39Z</time>
      </trkpt>
      <trkpt lat="43.8083" lon="4.18253">
        <ele>194</ele>
        <time>2012-03-11T10:28:14Z</time>
      </trkpt>
      <trkpt lat="43.8083" lon="4.18254">
        <ele>194</ele>
        <time>2012-03-11T10:28:26Z</time>
      </trkpt>
      <trkpt lat="43.8083" lon="4.18256">
        <ele>194</ele>
        <time>2012-03-11T10:28:35Z</time>
      </trkpt>
      <trkpt lat="43.8083" lon="4.18254">
        <ele>194</ele>
        <time>2012-03-11T10:28:47Z</time>
      </trkpt>
      <trkpt lat="43.80829" lon="4.18256">
        <ele>194</ele>
        <time>2012-03-11T10:29:11Z</time>
      </trkpt>
      <trkpt lat="43.8083" lon="4.18256">
        <ele>193</ele>
        <time>2012-03-11T10:29:16Z</time>
      </trkpt>
      <trkpt lat="43.80831" lon="4.18255">
        <ele>192</ele>
        <time>2012-03-11T10:29:31Z</time>
      </trkpt>
      <trkpt lat="43.80832" lon="4.18257">
        <ele>192</ele>
        <time>2012-03-11T10:29:44Z</time>
      </trkpt>
      <trkpt lat="43.80831" lon="4.18255">
        <ele>192</ele>
        <time>2012-03-11T10:29:59Z</time>
      </trkpt>
      <trkpt lat="43.80829" lon="4.18256">
        <ele>192</ele>
        <time>2012-03-11T10:30:07Z</time>
      </trkpt>
      <trkpt lat="43.80828" lon="4.18258">
        <ele>192</ele>
        <time>2012-03-11T10:30:09Z</time>
      </trkpt>
      <trkpt lat="43.80829" lon="4.18257">
        <ele>194</ele>
        <time>2012-03-11T10:30:27Z</time>
      </trkpt>
      <trkpt lat="43.8083" lon="4.18258">
        <ele>198</ele>
        <time>2012-03-11T10:30:35Z</time>
      </trkpt>
      <trkpt lat="43.80832" lon="4.1826">
        <ele>198</ele>
        <time>2012-03-11T10:30:44Z</time>
      </trkpt>
      <trkpt lat="43.80832" lon="4.18261">
        <ele>198</ele>
        <time>2012-03-11T10:30:52Z</time>
      </trkpt>
      <trkpt lat="43.80833" lon="4.18264">
        <ele>198</ele>
        <time>2012-03-11T10:31:04Z</time>
      </trkpt>
      <trkpt lat="43.80834" lon="4.18267">
        <ele>198</ele>
        <time>2012-03-11T10:31:05Z</time>
      </trkpt>
      <trkpt lat="43.80835" lon="4.1827">
        <ele>198</ele>
        <time>2012-03-11T10:31:06Z</time>
      </trkpt>
      <trkpt lat="43.80835" lon="4.18273">
        <ele>198</ele>
        <time>2012-03-11T10:31:07Z</time>
      </trkpt>
      <trkpt lat="43.80833" lon="4.18275">
        <ele>198</ele>
        <time>2012-03-11T10:31:08Z</time>
      </trkpt>
      <trkpt lat="43.80832" lon="4.18278">
        <ele>198</ele>
        <time>2012-03-11T10:31:09Z</time>
      </trkpt>
      <trkpt lat="43.8083" lon="4.18281">
        <ele>198</ele>
        <time>2012-03-11T10:31:10Z</time>
      </trkpt>
      <trkpt lat="43.80827" lon="4.18284">
        <ele>197</ele>
        <time>2012-03-11T10:31:11Z</time>
      </trkpt>
      <trkpt lat="43.80826" lon="4.18286">
        <ele>197</ele>
        <time>2012-03-11T10:31:12Z</time>
      </trkpt>
      <trkpt lat="43.80826" lon="4.18288">
        <ele>196</ele>
        <time>2012-03-11T10:31:13Z</time>
      </trkpt>
      <trkpt lat="43.80827" lon="4.1829">
        <ele>195</ele>
        <time>2012-03-11T10:31:14Z</time>
      </trkpt>
      <trkpt lat="43.80828" lon="4.18292">
        <ele>195</ele>
        <time>2012-03-11T10:31:15Z</time>
      </trkpt>
      <trkpt lat="43.8083" lon="4.18294">
        <ele>194</ele>
        <time>2012-03-11T10:31:16Z</time>
      </trkpt>
      <trkpt lat="43.80831" lon="4.18295">
        <ele>193</ele>
        <time>2012-03-11T10:31:17Z</time>
      </trkpt>
      <trkpt lat="43.80832" lon="4.18297">
        <ele>192</ele>
        <time>2012-03-11T10:31:18Z</time>
      </trkpt>
      <trkpt lat="43.80831" lon="4.18299">
        <ele>191</ele>
        <time>2012-03-11T10:31:19Z</time>
      </trkpt>
      <trkpt lat="43.8083" lon="4.183">
        <ele>190</ele>
        <time>2012-03-11T10:31:20Z</time>
      </trkpt>
      <trkpt lat="43.80828" lon="4.18301">
        <ele>190</ele>
        <time>2012-03-11T10:31:21Z</time>
      </trkpt>
      <trkpt lat="43.80827" lon="4.18304">
        <ele>189</ele>
        <time>2012-03-11T10:31:22Z</time>
      </trkpt>
      <trkpt lat="43.80826" lon="4.18307">
        <ele>188</ele>
        <time>2012-03-11T10:31:23Z</time>
      </trkpt>
      <trkpt lat="43.80825" lon="4.18309">
        <ele>188</ele>
        <time>2012-03-11T10:31:24Z</time>
      </trkpt>
      <trkpt lat="43.80825" lon="4.18311">
        <ele>187</ele>
        <time>2012-03-11T10:31:25Z</time>
      </trkpt>
      <trkpt lat="43.80824" lon="4.18313">
        <ele>186</ele>
        <time>2012-03-11T10:31:26Z</time>
      </trkpt>
      <trkpt lat="43.80823" lon="4.18316">
        <ele>185</ele>
        <time>2012-03-11T10:31:27Z</time>
      </trkpt>
      <trkpt lat="43.80822" lon="4.18318">
        <ele>184</ele>
        <time>2012-03-11T10:31:28Z</time>
      </trkpt>
      <trkpt lat="43.80821" lon="4.18321">
        <ele>183</ele>
        <time>2012-03-11T10:31:29Z</time>
      </trkpt>
      <trkpt lat="43.8082" lon="4.18323">
        <ele>182</ele>
        <time>2012-03-11T10:31:30Z</time>
      </trkpt>
      <trkpt lat="43.80819" lon="4.18326">
        <ele>181</ele>
        <time>2012-03-11T10:31:31Z</time>
      </trkpt>
      <trkpt lat="43.80818" lon="4.18328">
        <ele>181</ele>
        <time>2012-03-11T10:31:32Z</time>
      </trkpt>
      <trkpt lat="43.80816" lon="4.1833">
        <ele>180</ele>
        <time>2012-03-11T10:31:33Z</time>
      </trkpt>
      <trkpt lat="43.80814" lon="4.18332">
        <ele>179</ele>
        <time>2012-03-11T10:31:34Z</time>
      </trkpt>
      <trkpt lat="43.80812" lon="4.18334">
        <ele>178</ele>
        <time>2012-03-11T10:31:35Z</time>
      </trkpt>
      <trkpt lat="43.80811" lon="4.18337">
        <ele>177</ele>
        <time>2012-03-11T10:31:36Z</time>
      </trkpt>
      <trkpt lat="43.8081" lon="4.18339">
        <ele>176</ele>
        <time>2012-03-11T10:31:37Z</time>
      </trkpt>
      <trkpt lat="43.80808" lon="4.18342">
        <ele>175</ele>
        <time>2012-03-11T10:31:38Z</time>
      </trkpt>
      <trkpt lat="43.80806" lon="4.18345">
        <ele>174</ele>
        <time>2012-03-11T10:31:39Z</time>
      </trkpt>
      <trkpt lat="43.80805" lon="4.18347">
        <ele>173</ele>
        <time>2012-03-11T10:31:40Z</time>
      </trkpt>
      <trkpt lat="43.80804" lon="4.18349">
        <ele>173</ele>
        <time>2012-03-11T10:31:41Z</time>
      </trkpt>
      <trkpt lat="43.80803" lon="4.1835">
        <ele>172</ele>
        <time>2012-03-11T10:31:42Z</time>
      </trkpt>
      <trkpt lat="43.80802" lon="4.18352">
        <ele>171</ele>
        <time>2012-03-11T10:31:43Z</time>
      </trkpt>
      <trkpt lat="43.80801" lon="4.18354">
        <ele>171</ele>
        <time>2012-03-11T10:31:44Z</time>
      </trkpt>
      <trkpt lat="43.808" lon="4.18357">
        <ele>169</ele>
        <time>2012-03-11T10:31:46Z</time>
      </trkpt>
      <trkpt lat="43.80799" lon="4.18359">
        <ele>169</ele>
        <time>2012-03-11T10:31:47Z</time>
      </trkpt>
      <trkpt lat="43.80799" lon="4.18362">
        <ele>168</ele>
        <time>2012-03-11T10:31:48Z</time>
      </trkpt>
      <trkpt lat="43.80798" lon="4.18365">
        <ele>167</ele>
        <time>2012-03-11T10:31:49Z</time>
      </trkpt>
      <trkpt lat="43.80798" lon="4.18367">
        <ele>166</ele>
        <time>2012-03-11T10:31:50Z</time>
      </trkpt>
      <trkpt lat="43.80797" lon="4.1837">
        <ele>165</ele>
        <time>2012-03-11T10:31:51Z</time>
      </trkpt>
      <trkpt lat="43.80797" lon="4.18373">
        <ele>164</ele>
        <time>2012-03-11T10:31:52Z</time>
      </trkpt>
      <trkpt lat="43.80796" lon="4.18375">
        <ele>163</ele>
        <time>2012-03-11T10:31:53Z</time>
      </trkpt>
      <trkpt lat="43.80796" lon="4.18378">
        <ele>163</ele>
        <time>2012-03-11T10:31:54Z</time>
      </trkpt>
      <trkpt lat="43.80796" lon="4.18381">
        <ele>162</ele>
        <time>2012-03-11T10:31:55Z</time>
      </trkpt>
      <trkpt lat="43.80797" lon="4.18384">
        <ele>161</ele>
        <time>2012-03-11T10:31:56Z</time>
      </trkpt>
      <trkpt lat="43.80798" lon="4.18387">
        <ele>160</ele>
        <time>2012-03-11T10:31:57Z</time>
      </trkpt>
      <trkpt lat="43.80799" lon="4.1839">
        <ele>159</ele>
        <time>2012-03-11T10:31:58Z</time>
      </trkpt>
      <trkpt lat="43.808" lon="4.18394">
        <ele>158</ele>
        <time>2012-03-11T10:31:59Z</time>
      </trkpt>
      <trkpt lat="43.808" lon="4.18398">
        <ele>157</ele>
        <time>2012-03-11T10:32:00Z</time>
      </trkpt>
      <trkpt lat="43.80801" lon="4.18402">
        <ele>156</ele>
        <time>2012-03-11T10:32:01Z</time>
      </trkpt>
      <trkpt lat="43.80802" lon="4.18407">
        <ele>155</ele>
        <time>2012-03-11T10:32:02Z</time>
      </trkpt>
      <trkpt lat="43.80803" lon="4.18411">
        <ele>154</ele>
        <time>2012-03-11T10:32:03Z</time>
      </trkpt>
      <trkpt lat="43.80803" lon="4.18416">
        <ele>153</ele>
        <time>2012-03-11T10:32:04Z</time>
      </trkpt>
      <trkpt lat="43.80803" lon="4.18421">
        <ele>152</ele>
        <time>2012-03-11T10:32:05Z</time>
      </trkpt>
      <trkpt lat="43.80803" lon="4.18425">
        <ele>151</ele>
        <time>2012-03-11T10:32:06Z</time>
      </trkpt>
      <trkpt lat="43.80803" lon="4.1843">
        <ele>150</ele>
        <time>2012-03-11T10:32:07Z</time>
      </trkpt>
      <trkpt lat="43.80804" lon="4.18434">
        <ele>149</ele>
        <time>2012-03-11T10:32:08Z</time>
      </trkpt>
      <trkpt lat="43.80804" lon="4.18438">
        <ele>148</ele>
        <time>2012-03-11T10:32:09Z</time>
      </trkpt>
      <trkpt lat="43.80804" lon="4.18442">
        <ele>147</ele>
        <time>2012-03-11T10:32:10Z</time>
      </trkpt>
      <trkpt lat="43.80804" lon="4.18446">
        <ele>146</ele>
        <time>2012-03-11T10:32:11Z</time>
      </trkpt>
      <trkpt lat="43.80804" lon="4.1845">
        <ele>145</ele>
        <time>2012-03-11T10:32:12Z</time>
      </trkpt>
      <trkpt lat="43.80804" lon="4.18454">
        <ele>144</ele>
        <time>2012-03-11T10:32:13Z</time>
      </trkpt>
      <trkpt lat="43.80804" lon="4.18458">
        <ele>143</ele>
        <time>2012-03-11T10:32:14Z</time>
      </trkpt>
      <trkpt lat="43.80805" lon="4.18461">
        <ele>142</ele>
        <time>2012-03-11T10:32:15Z</time>
      </trkpt>
      <trkpt lat="43.80804" lon="4.18465">
        <ele>141</ele>
        <time>2012-03-11T10:32:16Z</time>
      </trkpt>
      <trkpt lat="43.80804" lon="4.1847">
        <ele>140</ele>
        <time>2012-03-11T10:32:17Z</time>
      </trkpt>
      <trkpt lat="43.80806" lon="4.18474">
        <ele>139</ele>
        <time>2012-03-11T10:32:18Z</time>
      </trkpt>
      <trkpt lat="43.80808" lon="4.18479">
        <ele>138</ele>
        <time>2012-03-11T10:32:19Z</time>
      </trkpt>
      <trkpt lat="43.80811" lon="4.18483">
        <ele>137</ele>
        <time>2012-03-11T10:32:20Z</time>
      </trkpt>
      <trkpt lat="43.80813" lon="4.18488">
        <ele>136</ele>
        <time>2012-03-11T10:32:21Z</time>
      </trkpt>
      <trkpt lat="43.80814" lon="4.18491">
        <ele>135</ele>
        <time>2012-03-11T10:32:22Z</time>
      </trkpt>
      <trkpt lat="43.80814" lon="4.18498">
        <ele>134</ele>
        <time>2012-03-11T10:32:23Z</time>
      </trkpt>
      <trkpt lat="43.80814" lon="4.18505">
        <ele>133</ele>
        <time>2012-03-11T10:32:24Z</time>
      </trkpt>
      <trkpt lat="43.80814" lon="4.18512">
        <ele>132</ele>
        <time>2012-03-11T10:32:25Z</time>
      </trkpt>
      <trkpt lat="43.80813" lon="4.18518">
        <ele>131</ele>
        <time>2012-03-11T10:32:26Z</time>
      </trkpt>
      <trkpt lat="43.80812" lon="4.18524">
        <ele>130</ele>
        <time>2012-03-11T10:32:27Z</time>
      </trkpt>
      <trkpt lat="43.80811" lon="4.18531">
        <ele>128</ele>
        <time>2012-03-11T10:32:28Z</time>
      </trkpt>
      <trkpt lat="43.80811" lon="4.18537">
        <ele>127</ele>
        <time>2012-03-11T10:32:29Z</time>
      </trkpt>
      <trkpt lat="43.80809" lon="4.18542">
        <ele>126</ele>
        <time>2012-03-11T10:32:30Z</time>
      </trkpt>
      <trkpt lat="43.80809" lon="4.18548">
        <ele>124</ele>
        <time>2012-03-11T10:32:31Z</time>
      </trkpt>
      <trkpt lat="43.80809" lon="4.18555">
        <ele>123</ele>
        <time>2012-03-11T10:32:32Z</time>
      </trkpt>
      <trkpt lat="43.80806" lon="4.18564">
        <ele>121</ele>
        <time>2012-03-11T10:32:33Z</time>
      </trkpt>
      <trkpt lat="43.80804" lon="4.18571">
        <ele>119</ele>
        <time>2012-03-11T10:32:34Z</time>
      </trkpt>
      <trkpt lat="43.80803" lon="4.18577">
        <ele>117</ele>
        <time>2012-03-11T10:32:35Z</time>
      </trkpt>
      <trkpt lat="43.80802" lon="4.1858">
        <ele>115</ele>
        <time>2012-03-11T10:32:36Z</time>
      </trkpt>
      <trkpt lat="43.80801" lon="4.18583">
        <ele>111</ele>
        <time>2012-03-11T10:32:38Z</time>
      </trkpt>
      <trkpt lat="43.80802" lon="4.18586">
        <ele>109</ele>
        <time>2012-03-11T10:32:39Z</time>
      </trkpt>
      <trkpt lat="43.80803" lon="4.18589">
        <ele>107</ele>
        <time>2012-03-11T10:32:40Z</time>
      </trkpt>
      <trkpt lat="43.80806" lon="4.18595">
        <ele>105</ele>
        <time>2012-03-11T10:32:41Z</time>
      </trkpt>
      <trkpt lat="43.80809" lon="4.186">
        <ele>104</ele>
        <time>2012-03-11T10:32:42Z</time>
      </trkpt>
      <trkpt lat="43.80811" lon="4.18603">
        <ele>103</ele>
        <time>2012-03-11T10:32:43Z</time>
      </trkpt>
      <trkpt lat="43.80812" lon="4.18606">
        <ele>102</ele>
        <time>2012-03-11T10:32:44Z</time>
      </trkpt>
      <trkpt lat="43.80814" lon="4.1861">
        <ele>101</ele>
        <time>2012-03-11T10:32:45Z</time>
      </trkpt>
      <trkpt lat="43.80817" lon="4.18615">
        <ele>100</ele>
        <time>2012-03-11T10:32:46Z</time>
      </trkpt>
      <trkpt lat="43.8082" lon="4.18619">
        <ele>99</ele>
        <time>2012-03-11T10:32:47Z</time>
      </trkpt>
      <trkpt lat="43.80822" lon="4.18626">
        <ele>98</ele>
        <time>2012-03-11T10:32:48Z</time>
      </trkpt>
      <trkpt lat="43.80823" lon="4.18633">
        <ele>96</ele>
        <time>2012-03-11T10:32:49Z</time>
      </trkpt>
      <trkpt lat="43.80824" lon="4.18641">
        <ele>95</ele>
        <time>2012-03-11T10:32:50Z</time>
      </trkpt>
      <trkpt lat="43.80823" lon="4.18648">
        <ele>94</ele>
        <time>2012-03-11T10:32:51Z</time>
      </trkpt>
      <trkpt lat="43.80824" lon="4.18653">
        <ele>93</ele>
        <time>2012-03-11T10:32:52Z</time>
      </trkpt>
      <trkpt lat="43.80824" lon="4.18657">
        <ele>92</ele>
        <time>2012-03-11T10:32:53Z</time>
      </trkpt>
      <trkpt lat="43.80824" lon="4.18661">
        <ele>91</ele>
        <time>2012-03-11T10:32:54Z</time>
      </trkpt>
      <trkpt lat="43.80825" lon="4.18665">
        <ele>90</ele>
        <time>2012-03-11T10:32:55Z</time>
      </trkpt>
      <trkpt lat="43.80825" lon="4.18669">
        <ele>89</ele>
        <time>2012-03-11T10:32:56Z</time>
      </trkpt>
      <trkpt lat="43.80827" lon="4.18673">
        <ele>89</ele>
        <time>2012-03-11T10:32:57Z</time>
      </trkpt>
      <trkpt lat="43.80828" lon="4.18676">
        <ele>89</ele>
        <time>2012-03-11T10:32:58Z</time>
      </trkpt>
      <trkpt lat="43.8083" lon="4.1868">
        <ele>89</ele>
        <time>2012-03-11T10:32:59Z</time>
      </trkpt>
      <trkpt lat="43.80831" lon="4.18684">
        <ele>89</ele>
        <time>2012-03-11T10:33:00Z</time>
      </trkpt>
      <trkpt lat="43.80832" lon="4.18688">
        <ele>89</ele>
        <time>2012-03-11T10:33:01Z</time>
      </trkpt>
      <trkpt lat="43.80832" lon="4.18693">
        <ele>89</ele>
        <time>2012-03-11T10:33:02Z</time>
      </trkpt>
      <trkpt lat="43.80833" lon="4.187">
        <ele>89</ele>
        <time>2012-03-11T10:33:03Z</time>
      </trkpt>
      <trkpt lat="43.80832" lon="4.18707">
        <ele>88</ele>
        <time>2012-03-11T10:33:04Z</time>
      </trkpt>
      <trkpt lat="43.80833" lon="4.18714">
        <ele>87</ele>
        <time>2012-03-11T10:33:05Z</time>
      </trkpt>
      <trkpt lat="43.80833" lon="4.18722">
        <ele>86</ele>
        <time>2012-03-11T10:33:06Z</time>
      </trkpt>
      <trkpt lat="43.80832" lon="4.1873">
        <ele>85</ele>
        <time>2012-03-11T10:33:07Z</time>
      </trkpt>
      <trkpt lat="43.80832" lon="4.18737">
        <ele>85</ele>
        <time>2012-03-11T10:33:08Z</time>
      </trkpt>
      <trkpt lat="43.80833" lon="4.18744">
        <ele>84</ele>
        <time>2012-03-11T10:33:09Z</time>
      </trkpt>
      <trkpt lat="43.80835" lon="4.18751">
        <ele>83</ele>
        <time>2012-03-11T10:33:10Z</time>
      </trkpt>
      <trkpt lat="43.80837" lon="4.18759">
        <ele>83</ele>
        <time>2012-03-11T10:33:11Z</time>
      </trkpt>
      <trkpt lat="43.80839" lon="4.18764">
        <ele>83</ele>
        <time>2012-03-11T10:33:12Z</time>
      </trkpt>
      <trkpt lat="43.80841" lon="4.18771">
        <ele>83</ele>
        <time>2012-03-11T10:33:13Z</time>
      </trkpt>
      <trkpt lat="43.80843" lon="4.18777">
        <ele>83</ele>
        <time>2012-03-11T10:33:14Z</time>
      </trkpt>
      <trkpt lat="43.80842" lon="4.18782">
        <ele>83</ele>
        <time>2012-03-11T10:33:15Z</time>
      </trkpt>
      <trkpt lat="43.80842" lon="4.18786">
        <ele>83</ele>
        <time>2012-03-11T10:33:16Z</time>
      </trkpt>
      <trkpt lat="43.80843" lon="4.1879">
        <ele>82</ele>
        <time>2012-03-11T10:33:17Z</time>
      </trkpt>
      <trkpt lat="43.80847" lon="4.18791">
        <ele>81</ele>
        <time>2012-03-11T10:33:18Z</time>
      </trkpt>
      <trkpt lat="43.80852" lon="4.1879">
        <ele>80</ele>
        <time>2012-03-11T10:33:19Z</time>
      </trkpt>
      <trkpt lat="43.80857" lon="4.18792">
        <ele>79</ele>
        <time>2012-03-11T10:33:20Z</time>
      </trkpt>
      <trkpt lat="43.80863" lon="4.18793">
        <ele>78</ele>
        <time>2012-03-11T10:33:21Z</time>
      </trkpt>
      <trkpt lat="43.80873" lon="4.18792">
        <ele>77</ele>
        <time>2012-03-11T10:33:22Z</time>
      </trkpt>
      <trkpt lat="43.80883" lon="4.1879">
        <ele>76</ele>
        <time>2012-03-11T10:33:23Z</time>
      </trkpt>
      <trkpt lat="43.8089" lon="4.18788">
        <ele>75</ele>
        <time>2012-03-11T10:33:24Z</time>
      </trkpt>
      <trkpt lat="43.80895" lon="4.18788">
        <ele>74</ele>
        <time>2012-03-11T10:33:25Z</time>
      </trkpt>
      <trkpt lat="43.80899" lon="4.18788">
        <ele>74</ele>
        <time>2012-03-11T10:33:26Z</time>
      </trkpt>
      <trkpt lat="43.80902" lon="4.18788">
        <ele>73</ele>
        <time>2012-03-11T10:33:27Z</time>
      </trkpt>
      <trkpt lat="43.80905" lon="4.18788">
        <ele>72</ele>
        <time>2012-03-11T10:33:28Z</time>
      </trkpt>
      <trkpt lat="43.80907" lon="4.18789">
        <ele>72</ele>
        <time>2012-03-11T10:33:29Z</time>
      </trkpt>
      <trkpt lat="43.80908" lon="4.18788">
        <ele>71</ele>
        <time>2012-03-11T10:33:32Z</time>
      </trkpt>
      <trkpt lat="43.80908" lon="4.18786">
        <ele>71</ele>
        <time>2012-03-11T10:33:41Z</time>
      </trkpt>
      <trkpt lat="43.80908" lon="4.18785">
        <ele>71</ele>
        <time>2012-03-11T10:33:50Z</time>
      </trkpt>
      <trkpt lat="43.80908" lon="4.18783">
        <ele>71</ele>
        <time>2012-03-11T10:34:01Z</time>
      </trkpt>
      <trkpt lat="43.80909" lon="4.18785">
        <ele>71</ele>
        <time>2012-03-11T10:34:09Z</time>
      </trkpt>
      <trkpt lat="43.80911" lon="4.18786">
        <ele>71</ele>
        <time>2012-03-11T10:34:11Z</time>
      </trkpt>
      <trkpt lat="43.80912" lon="4.18789">
        <ele>71</ele>
        <time>2012-03-11T10:34:13Z</time>
      </trkpt>
      <trkpt lat="43.80913" lon="4.1879">
        <ele>71</ele>
        <time>2012-03-11T10:34:14Z</time>
      </trkpt>
      <trkpt lat="43.80914" lon="4.18792">
        <ele>71</ele>
        <time>2012-03-11T10:34:15Z</time>
      </trkpt>
      <trkpt lat="43.80915" lon="4.18794">
        <ele>71</ele>
        <time>2012-03-11T10:34:16Z</time>
      </trkpt>
      <trkpt lat="43.80916" lon="4.18796">
        <ele>71</ele>
        <time>2012-03-11T10:34:17Z</time>
      </trkpt>
      <trkpt lat="43.80917" lon="4.18798">
        <ele>71</ele>
        <time>2012-03-11T10:34:18Z</time>
      </trkpt>
      <trkpt lat="43.80919" lon="4.188">
        <ele>71</ele>
        <time>2012-03-11T10:34:19Z</time>
      </trkpt>
      <trkpt lat="43.8092" lon="4.18803">
        <ele>71</ele>
        <time>2012-03-11T10:34:20Z</time>
      </trkpt>
      <trkpt lat="43.80922" lon="4.18806">
        <ele>71</ele>
        <time>2012-03-11T10:34:21Z</time>
      </trkpt>
      <trkpt lat="43.80923" lon="4.18808">
        <ele>71</ele>
        <time>2012-03-11T10:34:22Z</time>
      </trkpt>
      <trkpt lat="43.80925" lon="4.18812">
        <ele>71</ele>
        <time>2012-03-11T10:34:23Z</time>
      </trkpt>
      <trkpt lat="43.80926" lon="4.18816">
        <ele>71</ele>
        <time>2012-03-11T10:34:24Z</time>
      </trkpt>
      <trkpt lat="43.80928" lon="4.1882">
        <ele>71</ele>
        <time>2012-03-11T10:34:25Z</time>
      </trkpt>
      <trkpt lat="43.80929" lon="4.18825">
        <ele>71</ele>
        <time>2012-03-11T10:34:26Z</time>
      </trkpt>
      <trkpt lat="43.80931" lon="4.18829">
        <ele>71</ele>
        <time>2012-03-11T10:34:27Z</time>
      </trkpt>
      <trkpt lat="43.80932" lon="4.18834">
        <ele>71</ele>
        <time>2012-03-11T10:34:28Z</time>
      </trkpt>
      <trkpt lat="43.80932" lon="4.18839">
        <ele>71</ele>
        <time>2012-03-11T10:34:29Z</time>
      </trkpt>
      <trkpt lat="43.80931" lon="4.18844">
        <ele>71</ele>
        <time>2012-03-11T10:34:30Z</time>
      </trkpt>
      <trkpt lat="43.80928" lon="4.18849">
        <ele>71</ele>
        <time>2012-03-11T10:34:31Z</time>
      </trkpt>
      <trkpt lat="43.80925" lon="4.18852">
        <ele>71</ele>
        <time>2012-03-11T10:34:32Z</time>
      </trkpt>
      <trkpt lat="43.80922" lon="4.18856">
        <ele>71</ele>
        <time>2012-03-11T10:34:33Z</time>
      </trkpt>
      <trkpt lat="43.80919" lon="4.18859">
        <ele>70</ele>
        <time>2012-03-11T10:34:34Z</time>
      </trkpt>
      <trkpt lat="43.80916" lon="4.18861">
        <ele>69</ele>
        <time>2012-03-11T10:34:35Z</time>
      </trkpt>
      <trkpt lat="43.80913" lon="4.18863">
        <ele>69</ele>
        <time>2012-03-11T10:34:36Z</time>
      </trkpt>
      <trkpt lat="43.8091" lon="4.18865">
        <ele>68</ele>
        <time>2012-03-11T10:34:37Z</time>
      </trkpt>
      <trkpt lat="43.80908" lon="4.18868">
        <ele>68</ele>
        <time>2012-03-11T10:34:38Z</time>
      </trkpt>
      <trkpt lat="43.80906" lon="4.18869">
        <ele>67</ele>
        <time>2012-03-11T10:34:39Z</time>
      </trkpt>
      <trkpt lat="43.80903" lon="4.18871">
        <ele>67</ele>
        <time>2012-03-11T10:34:40Z</time>
      </trkpt>
      <trkpt lat="43.80901" lon="4.18873">
        <ele>67</ele>
        <time>2012-03-11T10:34:41Z</time>
      </trkpt>
      <trkpt lat="43.80897" lon="4.18876">
        <ele>66</ele>
        <time>2012-03-11T10:34:42Z</time>
      </trkpt>
      <trkpt lat="43.80894" lon="4.18878">
        <ele>66</ele>
        <time>2012-03-11T10:34:43Z</time>
      </trkpt>
      <trkpt lat="43.80891" lon="4.18881">
        <ele>66</ele>
        <time>2012-03-11T10:34:44Z</time>
      </trkpt>
      <trkpt lat="43.80886" lon="4.18885">
        <ele>66</ele>
        <time>2012-03-11T10:34:45Z</time>
      </trkpt>
      <trkpt lat="43.80881" lon="4.18889">
        <ele>66</ele>
        <time>2012-03-11T10:34:46Z</time>
      </trkpt>
      <trkpt lat="43.80876" lon="4.18893">
        <ele>66</ele>
        <time>2012-03-11T10:34:47Z</time>
      </trkpt>
      <trkpt lat="43.80871" lon="4.18897">
        <ele>66</ele>
        <time>2012-03-11T10:34:48Z</time>
      </trkpt>
      <trkpt lat="43.80865" lon="4.18901">
        <ele>66</ele>
        <time>2012-03-11T10:34:49Z</time>
      </trkpt>
      <trkpt lat="43.8086" lon="4.18906">
        <ele>66</ele>
        <time>2012-03-11T10:34:50Z</time>
      </trkpt>
      <trkpt lat="43.80854" lon="4.18911">
        <ele>66</ele>
        <time>2012-03-11T10:34:51Z</time>
      </trkpt>
      <trkpt lat="43.80849" lon="4.18916">
        <ele>66</ele>
        <time>2012-03-11T10:34:52Z</time>
      </trkpt>
      <trkpt lat="43.80843" lon="4.18921">
        <ele>66</ele>
        <time>2012-03-11T10:34:53Z</time>
      </trkpt>
      <trkpt lat="43.80838" lon="4.18925">
        <ele>66</ele>
        <time>2012-03-11T10:34:54Z</time>
      </trkpt>
      <trkpt lat="43.80832" lon="4.1893">
        <ele>66</ele>
        <time>2012-03-11T10:34:55Z</time>
      </trkpt>
      <trkpt lat="43.80826" lon="4.18933">
        <ele>66</ele>
        <time>2012-03-11T10:34:56Z</time>
      </trkpt>
      <trkpt lat="43.80821" lon="4.18937">
        <ele>66</ele>
        <time>2012-03-11T10:34:57Z</time>
      </trkpt>
      <trkpt lat="43.80816" lon="4.18941">
        <ele>66</ele>
        <time>2012-03-11T10:34:58Z</time>
      </trkpt>
      <trkpt lat="43.8081" lon="4.18944">
        <ele>65</ele>
        <time>2012-03-11T10:34:59Z</time>
      </trkpt>
      <trkpt lat="43.80805" lon="4.18947">
        <ele>65</ele>
        <time>2012-03-11T10:35:00Z</time>
      </trkpt>
      <trkpt lat="43.80799" lon="4.1895">
        <ele>65</ele>
        <time>2012-03-11T10:35:01Z</time>
      </trkpt>
      <trkpt lat="43.80795" lon="4.18953">
        <ele>65</ele>
        <time>2012-03-11T10:35:02Z</time>
      </trkpt>
      <trkpt lat="43.8079" lon="4.18956">
        <ele>65</ele>
        <time>2012-03-11T10:35:03Z</time>
      </trkpt>
      <trkpt lat="43.80786" lon="4.1896">
        <ele>65</ele>
        <time>2012-03-11T10:35:04Z</time>
      </trkpt>
      <trkpt lat="43.80782" lon="4.18963">
        <ele>65</ele>
        <time>2012-03-11T10:35:05Z</time>
      </trkpt>
      <trkpt lat="43.80777" lon="4.18967">
        <ele>65</ele>
        <time>2012-03-11T10:35:06Z</time>
      </trkpt>
      <trkpt lat="43.80773" lon="4.1897">
        <ele>65</ele>
        <time>2012-03-11T10:35:07Z</time>
      </trkpt>
      <trkpt lat="43.80768" lon="4.18974">
        <ele>65</ele>
        <time>2012-03-11T10:35:08Z</time>
      </trkpt>
      <trkpt lat="43.80764" lon="4.18977">
        <ele>65</ele>
        <time>2012-03-11T10:35:09Z</time>
      </trkpt>
      <trkpt lat="43.80759" lon="4.18981">
        <ele>65</ele>
        <time>2012-03-11T10:35:10Z</time>
      </trkpt>
      <trkpt lat="43.80755" lon="4.18984">
        <ele>65</ele>
        <time>2012-03-11T10:35:11Z</time>
      </trkpt>
      <trkpt lat="43.8075" lon="4.18986">
        <ele>65</ele>
        <time>2012-03-11T10:35:12Z</time>
      </trkpt>
      <trkpt lat="43.80745" lon="4.1899">
        <ele>65</ele>
        <time>2012-03-11T10:35:13Z</time>
      </trkpt>
      <trkpt lat="43.80739" lon="4.18993">
        <ele>65</ele>
        <time>2012-03-11T10:35:14Z</time>
      </trkpt>
      <trkpt lat="43.80733" lon="4.18996">
        <ele>65</ele>
        <time>2012-03-11T10:35:15Z</time>
      </trkpt>
      <trkpt lat="43.80728" lon="4.18999">
        <ele>65</ele>
        <time>2012-03-11T10:35:16Z</time>
      </trkpt>
      <trkpt lat="43.80722" lon="4.19001">
        <ele>65</ele>
        <time>2012-03-11T10:35:17Z</time>
      </trkpt>
      <trkpt lat="43.80717" lon="4.19004">
        <ele>65</ele>
        <time>2012-03-11T10:35:18Z</time>
      </trkpt>
      <trkpt lat="43.80711" lon="4.19006">
        <ele>65</ele>
        <time>2012-03-11T10:35:19Z</time>
      </trkpt>
      <trkpt lat="43.80706" lon="4.19007">
        <ele>65</ele>
        <time>2012-03-11T10:35:20Z</time>
      </trkpt>
      <trkpt lat="43.80701" lon="4.19008">
        <ele>65</ele>
        <time>2012-03-11T10:35:21Z</time>
      </trkpt>
      <trkpt lat="43.80695" lon="4.19009">
        <ele>65</ele>
        <time>2012-03-11T10:35:22Z</time>
      </trkpt>
      <trkpt lat="43.80689" lon="4.1901">
        <ele>65</ele>
        <time>2012-03-11T10:35:23Z</time>
      </trkpt>
      <trkpt lat="43.80684" lon="4.19011">
        <ele>65</ele>
        <time>2012-03-11T10:35:24Z</time>
      </trkpt>
      <trkpt lat="43.80678" lon="4.19012">
        <ele>65</ele>
        <time>2012-03-11T10:35:25Z</time>
      </trkpt>
      <trkpt lat="43.80672" lon="4.19013">
        <ele>65</ele>
        <time>2012-03-11T10:35:26Z</time>
      </trkpt>
      <trkpt lat="43.80666" lon="4.19014">
        <ele>65</ele>
        <time>2012-03-11T10:35:27Z</time>
      </trkpt>
      <trkpt lat="43.80661" lon="4.19015">
        <ele>65</ele>
        <time>2012-03-11T10:35:28Z</time>
      </trkpt>
      <trkpt lat="43.80655" lon="4.19016">
        <ele>65</ele>
        <time>2012-03-11T10:35:29Z</time>
      </trkpt>
      <trkpt lat="43.80649" lon="4.19017">
        <ele>65</ele>
        <time>2012-03-11T10:35:30Z</time>
      </trkpt>
      <trkpt lat="43.80643" lon="4.19018">
        <ele>65</ele>
        <time>2012-03-11T10:35:31Z</time>
      </trkpt>
      <trkpt lat="43.80637" lon="4.19019">
        <ele>65</ele>
        <time>2012-03-11T10:35:32Z</time>
      </trkpt>
      <trkpt lat="43.80632" lon="4.1902">
        <ele>65</ele>
        <time>2012-03-11T10:35:33Z</time>
      </trkpt>
      <trkpt lat="43.80626" lon="4.19022">
        <ele>65</ele>
        <time>2012-03-11T10:35:34Z</time>
      </trkpt>
      <trkpt lat="43.80619" lon="4.19023">
        <ele>65</ele>
        <time>2012-03-11T10:35:35Z</time>
      </trkpt>
      <trkpt lat="43.80613" lon="4.19024">
        <ele>65</ele>
        <time>2012-03-11T10:35:36Z</time>
      </trkpt>
      <trkpt lat="43.80607" lon="4.19025">
        <ele>65</ele>
        <time>2012-03-11T10:35:37Z</time>
      </trkpt>
      <trkpt lat="43.80601" lon="4.19026">
        <ele>65</ele>
        <time>2012-03-11T10:35:38Z</time>
      </trkpt>
      <trkpt lat="43.80594" lon="4.19028">
        <ele>65</ele>
        <time>2012-03-11T10:35:39Z</time>
      </trkpt>
      <trkpt lat="43.80588" lon="4.19029">
        <ele>65</ele>
        <time>2012-03-11T10:35:40Z</time>
      </trkpt>
      <trkpt lat="43.80581" lon="4.1903">
        <ele>65</ele>
        <time>2012-03-11T10:35:41Z</time>
      </trkpt>
      <trkpt lat="43.80574" lon="4.19031">
        <ele>64</ele>
        <time>2012-03-11T10:35:42Z</time>
      </trkpt>
      <trkpt lat="43.80567" lon="4.19031">
        <ele>64</ele>
        <time>2012-03-11T10:35:43Z</time>
      </trkpt>
      <trkpt lat="43.80559" lon="4.19032">
        <ele>64</ele>
        <time>2012-03-11T10:35:44Z</time>
      </trkpt>
      <trkpt lat="43.80552" lon="4.19031">
        <ele>63</ele>
        <time>2012-03-11T10:35:45Z</time>
      </trkpt>
      <trkpt lat="43.80544" lon="4.19029">
        <ele>63</ele>
        <time>2012-03-11T10:35:46Z</time>
      </trkpt>
      <trkpt lat="43.80537" lon="4.19025">
        <ele>62</ele>
        <time>2012-03-11T10:35:47Z</time>
      </trkpt>
      <trkpt lat="43.80529" lon="4.19021">
        <ele>62</ele>
        <time>2012-03-11T10:35:48Z</time>
      </trkpt>
      <trkpt lat="43.80521" lon="4.19017">
        <ele>61</ele>
        <time>2012-03-11T10:35:49Z</time>
      </trkpt>
      <trkpt lat="43.80513" lon="4.19015">
        <ele>60</ele>
        <time>2012-03-11T10:35:50Z</time>
      </trkpt>
      <trkpt lat="43.80506" lon="4.19016">
        <ele>60</ele>
        <time>2012-03-11T10:35:51Z</time>
      </trkpt>
      <trkpt lat="43.80499" lon="4.19021">
        <ele>59</ele>
        <time>2012-03-11T10:35:52Z</time>
      </trkpt>
      <trkpt lat="43.80493" lon="4.19024">
        <ele>59</ele>
        <time>2012-03-11T10:35:53Z</time>
      </trkpt>
      <trkpt lat="43.80489" lon="4.19032">
        <ele>59</ele>
        <time>2012-03-11T10:35:54Z</time>
      </trkpt>
      <trkpt lat="43.80485" lon="4.1904">
        <ele>59</ele>
        <time>2012-03-11T10:35:55Z</time>
      </trkpt>
      <trkpt lat="43.8048" lon="4.19048">
        <ele>58</ele>
        <time>2012-03-11T10:35:56Z</time>
      </trkpt>
      <trkpt lat="43.80474" lon="4.19056">
        <ele>58</ele>
        <time>2012-03-11T10:35:57Z</time>
      </trkpt>
      <trkpt lat="43.80468" lon="4.19064">
        <ele>57</ele>
        <time>2012-03-11T10:35:58Z</time>
      </trkpt>
      <trkpt lat="43.80463" lon="4.1907">
        <ele>56</ele>
        <time>2012-03-11T10:35:59Z</time>
      </trkpt>
      <trkpt lat="43.80459" lon="4.19075">
        <ele>56</ele>
        <time>2012-03-11T10:36:00Z</time>
      </trkpt>
      <trkpt lat="43.80455" lon="4.19078">
        <ele>55</ele>
        <time>2012-03-11T10:36:01Z</time>
      </trkpt>
      <trkpt lat="43.8045" lon="4.19077">
        <ele>55</ele>
        <time>2012-03-11T10:36:02Z</time>
      </trkpt>
      <trkpt lat="43.80445" lon="4.19075">
        <ele>55</ele>
        <time>2012-03-11T10:36:03Z</time>
      </trkpt>
      <trkpt lat="43.80439" lon="4.19073">
        <ele>54</ele>
        <time>2012-03-11T10:36:04Z</time>
      </trkpt>
      <trkpt lat="43.80433" lon="4.19071">
        <ele>54</ele>
        <time>2012-03-11T10:36:05Z</time>
      </trkpt>
      <trkpt lat="43.80427" lon="4.1907">
        <ele>54</ele>
        <time>2012-03-11T10:36:06Z</time>
      </trkpt>
      <trkpt lat="43.80421" lon="4.19071">
        <ele>54</ele>
        <time>2012-03-11T10:36:07Z</time>
      </trkpt>
      <trkpt lat="43.80415" lon="4.19072">
        <ele>53</ele>
        <time>2012-03-11T10:36:08Z</time>
      </trkpt>
      <trkpt lat="43.80408" lon="4.19074">
        <ele>53</ele>
        <time>2012-03-11T10:36:09Z</time>
      </trkpt>
      <trkpt lat="43.80401" lon="4.19076">
        <ele>53</ele>
        <time>2012-03-11T10:36:10Z</time>
      </trkpt>
      <trkpt lat="43.80395" lon="4.19077">
        <ele>52</ele>
        <time>2012-03-11T10:36:11Z</time>
      </trkpt>
      <trkpt lat="43.80388" lon="4.19079">
        <ele>52</ele>
        <time>2012-03-11T10:36:12Z</time>
      </trkpt>
      <trkpt lat="43.80382" lon="4.19079">
        <ele>52</ele>
        <time>2012-03-11T10:36:13Z</time>
      </trkpt>
      <trkpt lat="43.80376" lon="4.19079">
        <ele>51</ele>
        <time>2012-03-11T10:36:14Z</time>
      </trkpt>
      <trkpt lat="43.80368" lon="4.19078">
        <ele>51</ele>
        <time>2012-03-11T10:36:15Z</time>
      </trkpt>
      <trkpt lat="43.80362" lon="4.19078">
        <ele>51</ele>
        <time>2012-03-11T10:36:16Z</time>
      </trkpt>
      <trkpt lat="43.80355" lon="4.19078">
        <ele>50</ele>
        <time>2012-03-11T10:36:17Z</time>
      </trkpt>
      <trkpt lat="43.80349" lon="4.19078">
        <ele>50</ele>
        <time>2012-03-11T10:36:18Z</time>
      </trkpt>
      <trkpt lat="43.80344" lon="4.19078">
        <ele>50</ele>
        <time>2012-03-11T10:36:19Z</time>
      </trkpt>
      <trkpt lat="43.80339" lon="4.19078">
        <ele>50</ele>
        <time>2012-03-11T10:36:20Z</time>
      </trkpt>
      <trkpt lat="43.80334" lon="4.19078">
        <ele>50</ele>
        <time>2012-03-11T10:36:21Z</time>
      </trkpt>
      <trkpt lat="43.8033" lon="4.19079">
        <ele>50</ele>
        <time>2012-03-11T10:36:22Z</time>
      </trkpt>
      <trkpt lat="43.80326" lon="4.19079">
        <ele>50</ele>
        <time>2012-03-11T10:36:23Z</time>
      </trkpt>
      <trkpt lat="43.80322" lon="4.1908">
        <ele>50</ele>
        <time>2012-03-11T10:36:24Z</time>
      </trkpt>
      <trkpt lat="43.80318" lon="4.19081">
        <ele>50</ele>
        <time>2012-03-11T10:36:25Z</time>
      </trkpt>
      <trkpt lat="43.80313" lon="4.19082">
        <ele>50</ele>
        <time>2012-03-11T10:36:26Z</time>
      </trkpt>
      <trkpt lat="43.80307" lon="4.19083">
        <ele>50</ele>
        <time>2012-03-11T10:36:27Z</time>
      </trkpt>
      <trkpt lat="43.80302" lon="4.19084">
        <ele>50</ele>
        <time>2012-03-11T10:36:28Z</time>
      </trkpt>
      <trkpt lat="43.80297" lon="4.19086">
        <ele>50</ele>
        <time>2012-03-11T10:36:29Z</time>
      </trkpt>
      <trkpt lat="43.80291" lon="4.19087">
        <ele>50</ele>
        <time>2012-03-11T10:36:30Z</time>
      </trkpt>
      <trkpt lat="43.80286" lon="4.19089">
        <ele>50</ele>
        <time>2012-03-11T10:36:31Z</time>
      </trkpt>
      <trkpt lat="43.80281" lon="4.1909">
        <ele>50</ele>
        <time>2012-03-11T10:36:32Z</time>
      </trkpt>
      <trkpt lat="43.80275" lon="4.19091">
        <ele>50</ele>
        <time>2012-03-11T10:36:33Z</time>
      </trkpt>
      <trkpt lat="43.8027" lon="4.19092">
        <ele>50</ele>
        <time>2012-03-11T10:36:34Z</time>
      </trkpt>
      <trkpt lat="43.80264" lon="4.19093">
        <ele>50</ele>
        <time>2012-03-11T10:36:35Z</time>
      </trkpt>
      <trkpt lat="43.80259" lon="4.19093">
        <ele>50</ele>
        <time>2012-03-11T10:36:36Z</time>
      </trkpt>
      <trkpt lat="43.80253" lon="4.19094">
        <ele>50</ele>
        <time>2012-03-11T10:36:37Z</time>
      </trkpt>
      <trkpt lat="43.80247" lon="4.19094">
        <ele>50</ele>
        <time>2012-03-11T10:36:38Z</time>
      </trkpt>
      <trkpt lat="43.80241" lon="4.19094">
        <ele>50</ele>
        <time>2012-03-11T10:36:39Z</time>
      </trkpt>
      <trkpt lat="43.80235" lon="4.19093">
        <ele>50</ele>
        <time>2012-03-11T10:36:40Z</time>
      </trkpt>
      <trkpt lat="43.80229" lon="4.19093">
        <ele>50</ele>
        <time>2012-03-11T10:36:41Z</time>
      </trkpt>
      <trkpt lat="43.80223" lon="4.19093">
        <ele>50</ele>
        <time>2012-03-11T10:36:42Z</time>
      </trkpt>
      <trkpt lat="43.80217" lon="4.19094">
        <ele>50</ele>
        <time>2012-03-11T10:36:43Z</time>
      </trkpt>
      <trkpt lat="43.80212" lon="4.19094">
        <ele>50</ele>
        <time>2012-03-11T10:36:44Z</time>
      </trkpt>
      <trkpt lat="43.80206" lon="4.19095">
        <ele>50</ele>
        <time>2012-03-11T10:36:45Z</time>
      </trkpt>
      <trkpt lat="43.80201" lon="4.19095">
        <ele>50</ele>
        <time>2012-03-11T10:36:46Z</time>
      </trkpt>
      <trkpt lat="43.80195" lon="4.19094">
        <ele>50</ele>
        <time>2012-03-11T10:36:47Z</time>
      </trkpt>
      <trkpt lat="43.8019" lon="4.19092">
        <ele>50</ele>
        <time>2012-03-11T10:36:48Z</time>
      </trkpt>
      <trkpt lat="43.80186" lon="4.19088">
        <ele>50</ele>
        <time>2012-03-11T10:36:49Z</time>
      </trkpt>
      <trkpt lat="43.80184" lon="4.19082">
        <ele>50</ele>
        <time>2012-03-11T10:36:50Z</time>
      </trkpt>
      <trkpt lat="43.80182" lon="4.19075">
        <ele>50</ele>
        <time>2012-03-11T10:36:51Z</time>
      </trkpt>
      <trkpt lat="43.8018" lon="4.19069">
        <ele>50</ele>
        <time>2012-03-11T10:36:52Z</time>
      </trkpt>
      <trkpt lat="43.80178" lon="4.19064">
        <ele>50</ele>
        <time>2012-03-11T10:36:53Z</time>
      </trkpt>
      <trkpt lat="43.80175" lon="4.1906">
        <ele>50</ele>
        <time>2012-03-11T10:36:54Z</time>
      </trkpt>
      <trkpt lat="43.80171" lon="4.19058">
        <ele>50</ele>
        <time>2012-03-11T10:36:55Z</time>
      </trkpt>
      <trkpt lat="43.80167" lon="4.19058">
        <ele>50</ele>
        <time>2012-03-11T10:36:56Z</time>
      </trkpt>
      <trkpt lat="43.80163" lon="4.19059">
        <ele>50</ele>
        <time>2012-03-11T10:36:57Z</time>
      </trkpt>
      <trkpt lat="43.80159" lon="4.1906">
        <ele>50</ele>
        <time>2012-03-11T10:36:58Z</time>
      </trkpt>
      <trkpt lat="43.80155" lon="4.19062">
        <ele>50</ele>
        <time>2012-03-11T10:36:59Z</time>
      </trkpt>
      <trkpt lat="43.80151" lon="4.19063">
        <ele>50</ele>
        <time>2012-03-11T10:37:00Z</time>
      </trkpt>
      <trkpt lat="43.80146" lon="4.19065">
        <ele>50</ele>
        <time>2012-03-11T10:37:01Z</time>
      </trkpt>
      <trkpt lat="43.80142" lon="4.19067">
        <ele>50</ele>
        <time>2012-03-11T10:37:02Z</time>
      </trkpt>
      <trkpt lat="43.80137" lon="4.1907">
        <ele>50</ele>
        <time>2012-03-11T10:37:03Z</time>
      </trkpt>
      <trkpt lat="43.80133" lon="4.19073">
        <ele>50</ele>
        <time>2012-03-11T10:37:04Z</time>
      </trkpt>
      <trkpt lat="43.80128" lon="4.19075">
        <ele>50</ele>
        <time>2012-03-11T10:37:05Z</time>
      </trkpt>
      <trkpt lat="43.80123" lon="4.19078">
        <ele>50</ele>
        <time>2012-03-11T10:37:06Z</time>
      </trkpt>
      <trkpt lat="43.80118" lon="4.1908">
        <ele>50</ele>
        <time>2012-03-11T10:37:07Z</time>
      </trkpt>
      <trkpt lat="43.80112" lon="4.19083">
        <ele>50</ele>
        <time>2012-03-11T10:37:08Z</time>
      </trkpt>
      <trkpt lat="43.80107" lon="4.19085">
        <ele>50</ele>
        <time>2012-03-11T10:37:09Z</time>
      </trkpt>
      <trkpt lat="43.80102" lon="4.19088">
        <ele>50</ele>
        <time>2012-03-11T10:37:10Z</time>
      </trkpt>
      <trkpt lat="43.80096" lon="4.1909">
        <ele>50</ele>
        <time>2012-03-11T10:37:11Z</time>
      </trkpt>
      <trkpt lat="43.80091" lon="4.19092">
        <ele>50</ele>
        <time>2012-03-11T10:37:12Z</time>
      </trkpt>
      <trkpt lat="43.80085" lon="4.19094">
        <ele>50</ele>
        <time>2012-03-11T10:37:13Z</time>
      </trkpt>
      <trkpt lat="43.8008" lon="4.19097">
        <ele>50</ele>
        <time>2012-03-11T10:37:14Z</time>
      </trkpt>
      <trkpt lat="43.80074" lon="4.19099">
        <ele>50</ele>
        <time>2012-03-11T10:37:15Z</time>
      </trkpt>
      <trkpt lat="43.80069" lon="4.19102">
        <ele>50</ele>
        <time>2012-03-11T10:37:16Z</time>
      </trkpt>
      <trkpt lat="43.80063" lon="4.19105">
        <ele>50</ele>
        <time>2012-03-11T10:37:17Z</time>
      </trkpt>
      <trkpt lat="43.80058" lon="4.19107">
        <ele>50</ele>
        <time>2012-03-11T10:37:18Z</time>
      </trkpt>
      <trkpt lat="43.80052" lon="4.1911">
        <ele>50</ele>
        <time>2012-03-11T10:37:19Z</time>
      </trkpt>
      <trkpt lat="43.80047" lon="4.19112">
        <ele>50</ele>
        <time>2012-03-11T10:37:20Z</time>
      </trkpt>
      <trkpt lat="43.80041" lon="4.19114">
        <ele>50</ele>
        <time>2012-03-11T10:37:21Z</time>
      </trkpt>
      <trkpt lat="43.80035" lon="4.19114">
        <ele>50</ele>
        <time>2012-03-11T10:37:22Z</time>
      </trkpt>
      <trkpt lat="43.80028" lon="4.19115">
        <ele>50</ele>
        <time>2012-03-11T10:37:23Z</time>
      </trkpt>
      <trkpt lat="43.80022" lon="4.19114">
        <ele>50</ele>
        <time>2012-03-11T10:37:24Z</time>
      </trkpt>
      <trkpt lat="43.80016" lon="4.19113">
        <ele>50</ele>
        <time>2012-03-11T10:37:25Z</time>
      </trkpt>
      <trkpt lat="43.8001" lon="4.19111">
        <ele>50</ele>
        <time>2012-03-11T10:37:26Z</time>
      </trkpt>
      <trkpt lat="43.80004" lon="4.19108">
        <ele>50</ele>
        <time>2012-03-11T10:37:27Z</time>
      </trkpt>
      <trkpt lat="43.79998" lon="4.19105">
        <ele>50</ele>
        <time>2012-03-11T10:37:28Z</time>
      </trkpt>
      <trkpt lat="43.79992" lon="4.19101">
        <ele>50</ele>
        <time>2012-03-11T10:37:29Z</time>
      </trkpt>
      <trkpt lat="43.79987" lon="4.19097">
        <ele>50</ele>
        <time>2012-03-11T10:37:30Z</time>
      </trkpt>
      <trkpt lat="43.79981" lon="4.19093">
        <ele>50</ele>
        <time>2012-03-11T10:37:31Z</time>
      </trkpt>
      <trkpt lat="43.79974" lon="4.1909">
        <ele>50</ele>
        <time>2012-03-11T10:37:32Z</time>
      </trkpt>
      <trkpt lat="43.79968" lon="4.1909">
        <ele>50</ele>
        <time>2012-03-11T10:37:33Z</time>
      </trkpt>
      <trkpt lat="43.79962" lon="4.19091">
        <ele>49</ele>
        <time>2012-03-11T10:37:34Z</time>
      </trkpt>
      <trkpt lat="43.79956" lon="4.19093">
        <ele>49</ele>
        <time>2012-03-11T10:37:35Z</time>
      </trkpt>
      <trkpt lat="43.7995" lon="4.19095">
        <ele>49</ele>
        <time>2012-03-11T10:37:36Z</time>
      </trkpt>
      <trkpt lat="43.79944" lon="4.19097">
        <ele>49</ele>
        <time>2012-03-11T10:37:37Z</time>
      </trkpt>
      <trkpt lat="43.79939" lon="4.19098">
        <ele>49</ele>
        <time>2012-03-11T10:37:38Z</time>
      </trkpt>
      <trkpt lat="43.79933" lon="4.19099">
        <ele>49</ele>
        <time>2012-03-11T10:37:39Z</time>
      </trkpt>
      <trkpt lat="43.79927" lon="4.19098">
        <ele>49</ele>
        <time>2012-03-11T10:37:40Z</time>
      </trkpt>
      <trkpt lat="43.79922" lon="4.19098">
        <ele>49</ele>
        <time>2012-03-11T10:37:41Z</time>
      </trkpt>
      <trkpt lat="43.79917" lon="4.19096">
        <ele>49</ele>
        <time>2012-03-11T10:37:42Z</time>
      </trkpt>
      <trkpt lat="43.79912" lon="4.19094">
        <ele>49</ele>
        <time>2012-03-11T10:37:43Z</time>
      </trkpt>
      <trkpt lat="43.79907" lon="4.19092">
        <ele>49</ele>
        <time>2012-03-11T10:37:44Z</time>
      </trkpt>
      <trkpt lat="43.79903" lon="4.19089">
        <ele>49</ele>
        <time>2012-03-11T10:37:45Z</time>
      </trkpt>
      <trkpt lat="43.79898" lon="4.19088">
        <ele>49</ele>
        <time>2012-03-11T10:37:46Z</time>
      </trkpt>
      <trkpt lat="43.79894" lon="4.19086">
        <ele>49</ele>
        <time>2012-03-11T10:37:47Z</time>
      </trkpt>
      <trkpt lat="43.7989" lon="4.19084">
        <ele>49</ele>
        <time>2012-03-11T10:37:48Z</time>
      </trkpt>
      <trkpt lat="43.79886" lon="4.19082">
        <ele>49</ele>
        <time>2012-03-11T10:37:49Z</time>
      </trkpt>
      <trkpt lat="43.79882" lon="4.1908">
        <ele>49</ele>
        <time>2012-03-11T10:37:50Z</time>
      </trkpt>
      <trkpt lat="43.79878" lon="4.19079">
        <ele>49</ele>
        <time>2012-03-11T10:37:51Z</time>
      </trkpt>
      <trkpt lat="43.79874" lon="4.19077">
        <ele>49</ele>
        <time>2012-03-11T10:37:52Z</time>
      </trkpt>
      <trkpt lat="43.7987" lon="4.19076">
        <ele>49</ele>
        <time>2012-03-11T10:37:53Z</time>
      </trkpt>
      <trkpt lat="43.79866" lon="4.19074">
        <ele>49</ele>
        <time>2012-03-11T10:37:54Z</time>
      </trkpt>
      <trkpt lat="43.79862" lon="4.19072">
        <ele>49</ele>
        <time>2012-03-11T10:37:55Z</time>
      </trkpt>
      <trkpt lat="43.79858" lon="4.19071">
        <ele>49</ele>
        <time>2012-03-11T10:37:56Z</time>
      </trkpt>
      <trkpt lat="43.79853" lon="4.19069">
        <ele>49</ele>
        <time>2012-03-11T10:37:57Z</time>
      </trkpt>
      <trkpt lat="43.79848" lon="4.19067">
        <ele>49</ele>
        <time>2012-03-11T10:37:58Z</time>
      </trkpt>
      <trkpt lat="43.79844" lon="4.19066">
        <ele>49</ele>
        <time>2012-03-11T10:37:59Z</time>
      </trkpt>
      <trkpt lat="43.79839" lon="4.19064">
        <ele>49</ele>
        <time>2012-03-11T10:38:00Z</time>
      </trkpt>
      <trkpt lat="43.79834" lon="4.19063">
        <ele>49</ele>
        <time>2012-03-11T10:38:01Z</time>
      </trkpt>
      <trkpt lat="43.79829" lon="4.19062">
        <ele>49</ele>
        <time>2012-03-11T10:38:02Z</time>
      </trkpt>
      <trkpt lat="43.79824" lon="4.19061">
        <ele>49</ele>
        <time>2012-03-11T10:38:03Z</time>
      </trkpt>
      <trkpt lat="43.79818" lon="4.1906">
        <ele>49</ele>
        <time>2012-03-11T10:38:04Z</time>
      </trkpt>
      <trkpt lat="43.79813" lon="4.19061">
        <ele>49</ele>
        <time>2012-03-11T10:38:05Z</time>
      </trkpt>
      <trkpt lat="43.79807" lon="4.19062">
        <ele>49</ele>
        <time>2012-03-11T10:38:06Z</time>
      </trkpt>
      <trkpt lat="43.79802" lon="4.19063">
        <ele>49</ele>
        <time>2012-03-11T10:38:07Z</time>
      </trkpt>
      <trkpt lat="43.79796" lon="4.19065">
        <ele>49</ele>
        <time>2012-03-11T10:38:08Z</time>
      </trkpt>
      <trkpt lat="43.7979" lon="4.19068">
        <ele>49</ele>
        <time>2012-03-11T10:38:09Z</time>
      </trkpt>
      <trkpt lat="43.79784" lon="4.1907">
        <ele>49</ele>
        <time>2012-03-11T10:38:10Z</time>
      </trkpt>
      <trkpt lat="43.79779" lon="4.19072">
        <ele>49</ele>
        <time>2012-03-11T10:38:11Z</time>
      </trkpt>
      <trkpt lat="43.79773" lon="4.19075">
        <ele>49</ele>
        <time>2012-03-11T10:38:12Z</time>
      </trkpt>
      <trkpt lat="43.79768" lon="4.19078">
        <ele>49</ele>
        <time>2012-03-11T10:38:13Z</time>
      </trkpt>
      <trkpt lat="43.79762" lon="4.19081">
        <ele>49</ele>
        <time>2012-03-11T10:38:14Z</time>
      </trkpt>
      <trkpt lat="43.79757" lon="4.19083">
        <ele>49</ele>
        <time>2012-03-11T10:38:15Z</time>
      </trkpt>
      <trkpt lat="43.79751" lon="4.19086">
        <ele>49</ele>
        <time>2012-03-11T10:38:16Z</time>
      </trkpt>
      <trkpt lat="43.79745" lon="4.19087">
        <ele>49</ele>
        <time>2012-03-11T10:38:17Z</time>
      </trkpt>
      <trkpt lat="43.79741" lon="4.19085">
        <ele>48</ele>
        <time>2012-03-11T10:38:18Z</time>
      </trkpt>
      <trkpt lat="43.79737" lon="4.19081">
        <ele>48</ele>
        <time>2012-03-11T10:38:19Z</time>
      </trkpt>
      <trkpt lat="43.79734" lon="4.19076">
        <ele>47</ele>
        <time>2012-03-11T10:38:20Z</time>
      </trkpt>
      <trkpt lat="43.79733" lon="4.1907">
        <ele>47</ele>
        <time>2012-03-11T10:38:21Z</time>
      </trkpt>
      <trkpt lat="43.79732" lon="4.19064">
        <ele>46</ele>
        <time>2012-03-11T10:38:22Z</time>
      </trkpt>
      <trkpt lat="43.79731" lon="4.19059">
        <ele>46</ele>
        <time>2012-03-11T10:38:23Z</time>
      </trkpt>
      <trkpt lat="43.79729" lon="4.19053">
        <ele>46</ele>
        <time>2012-03-11T10:38:24Z</time>
      </trkpt>
      <trkpt lat="43.79728" lon="4.19047">
        <ele>46</ele>
        <time>2012-03-11T10:38:25Z</time>
      </trkpt>
      <trkpt lat="43.79726" lon="4.19041">
        <ele>46</ele>
        <time>2012-03-11T10:38:26Z</time>
      </trkpt>
      <trkpt lat="43.79725" lon="4.19035">
        <ele>46</ele>
        <time>2012-03-11T10:38:27Z</time>
      </trkpt>
      <trkpt lat="43.79724" lon="4.1903">
        <ele>46</ele>
        <time>2012-03-11T10:38:28Z</time>
      </trkpt>
      <trkpt lat="43.79723" lon="4.19024">
        <ele>46</ele>
        <time>2012-03-11T10:38:29Z</time>
      </trkpt>
      <trkpt lat="43.79721" lon="4.19019">
        <ele>46</ele>
        <time>2012-03-11T10:38:30Z</time>
      </trkpt>
      <trkpt lat="43.7972" lon="4.19013">
        <ele>46</ele>
        <time>2012-03-11T10:38:31Z</time>
      </trkpt>
      <trkpt lat="43.79719" lon="4.19008">
        <ele>46</ele>
        <time>2012-03-11T10:38:32Z</time>
      </trkpt>
      <trkpt lat="43.79718" lon="4.19002">
        <ele>46</ele>
        <time>2012-03-11T10:38:33Z</time>
      </trkpt>
      <trkpt lat="43.79717" lon="4.18997">
        <ele>46</ele>
        <time>2012-03-11T10:38:34Z</time>
      </trkpt>
      <trkpt lat="43.79716" lon="4.18991">
        <ele>46</ele>
        <time>2012-03-11T10:38:35Z</time>
      </trkpt>
      <trkpt lat="43.79715" lon="4.18986">
        <ele>46</ele>
        <time>2012-03-11T10:38:36Z</time>
      </trkpt>
      <trkpt lat="43.79714" lon="4.18981">
        <ele>46</ele>
        <time>2012-03-11T10:38:37Z</time>
      </trkpt>
      <trkpt lat="43.79713" lon="4.18975">
        <ele>46</ele>
        <time>2012-03-11T10:38:38Z</time>
      </trkpt>
      <trkpt lat="43.79712" lon="4.1897">
        <ele>46</ele>
        <time>2012-03-11T10:38:39Z</time>
      </trkpt>
      <trkpt lat="43.79711" lon="4.18965">
        <ele>46</ele>
        <time>2012-03-11T10:38:40Z</time>
      </trkpt>
      <trkpt lat="43.7971" lon="4.1896">
        <ele>46</ele>
        <time>2012-03-11T10:38:41Z</time>
      </trkpt>
      <trkpt lat="43.79708" lon="4.18955">
        <ele>46</ele>
        <time>2012-03-11T10:38:42Z</time>
      </trkpt>
      <trkpt lat="43.79707" lon="4.1895">
        <ele>46</ele>
        <time>2012-03-11T10:38:43Z</time>
      </trkpt>
      <trkpt lat="43.79706" lon="4.18946">
        <ele>46</ele>
        <time>2012-03-11T10:38:44Z</time>
      </trkpt>
      <trkpt lat="43.79705" lon="4.18941">
        <ele>46</ele>
        <time>2012-03-11T10:38:45Z</time>
      </trkpt>
      <trkpt lat="43.79704" lon="4.18938">
        <ele>46</ele>
        <time>2012-03-11T10:38:46Z</time>
      </trkpt>
      <trkpt lat="43.79703" lon="4.18934">
        <ele>46</ele>
        <time>2012-03-11T10:38:47Z</time>
      </trkpt>
      <trkpt lat="43.79703" lon="4.18933">
        <ele>46</ele>
        <time>2012-03-11T10:38:48Z</time>
      </trkpt>
      <trkpt lat="43.79702" lon="4.18931">
        <ele>49</ele>
        <time>2012-03-11T10:38:57Z</time>
      </trkpt>
      <trkpt lat="43.79702" lon="4.1893">
        <ele>49</ele>
        <time>2012-03-11T10:38:59Z</time>
      </trkpt>
      <trkpt lat="43.79702" lon="4.18928">
        <ele>49</ele>
        <time>2012-03-11T10:39:00Z</time>
      </trkpt>
      <trkpt lat="43.79702" lon="4.18927">
        <ele>49</ele>
        <time>2012-03-11T10:39:01Z</time>
      </trkpt>
      <trkpt lat="43.79702" lon="4.18924">
        <ele>49</ele>
        <time>2012-03-11T10:39:02Z</time>
      </trkpt>
      <trkpt lat="43.797" lon="4.18921">
        <ele>49</ele>
        <time>2012-03-11T10:39:03Z</time>
      </trkpt>
      <trkpt lat="43.79699" lon="4.18918">
        <ele>49</ele>
        <time>2012-03-11T10:39:04Z</time>
      </trkpt>
      <trkpt lat="43.79697" lon="4.18914">
        <ele>49</ele>
        <time>2012-03-11T10:39:05Z</time>
      </trkpt>
      <trkpt lat="43.79696" lon="4.18909">
        <ele>49</ele>
        <time>2012-03-11T10:39:06Z</time>
      </trkpt>
      <trkpt lat="43.79694" lon="4.18905">
        <ele>49</ele>
        <time>2012-03-11T10:39:07Z</time>
      </trkpt>
      <trkpt lat="43.79692" lon="4.189">
        <ele>50</ele>
        <time>2012-03-11T10:39:08Z</time>
      </trkpt>
      <trkpt lat="43.7969" lon="4.18895">
        <ele>50</ele>
        <time>2012-03-11T10:39:09Z</time>
      </trkpt>
      <trkpt lat="43.79689" lon="4.1889">
        <ele>50</ele>
        <time>2012-03-11T10:39:10Z</time>
      </trkpt>
      <trkpt lat="43.79687" lon="4.18886">
        <ele>50</ele>
        <time>2012-03-11T10:39:11Z</time>
      </trkpt>
      <trkpt lat="43.79685" lon="4.18881">
        <ele>51</ele>
        <time>2012-03-11T10:39:12Z</time>
      </trkpt>
      <trkpt lat="43.79683" lon="4.18876">
        <ele>51</ele>
        <time>2012-03-11T10:39:13Z</time>
      </trkpt>
      <trkpt lat="43.79681" lon="4.18871">
        <ele>51</ele>
        <time>2012-03-11T10:39:14Z</time>
      </trkpt>
      <trkpt lat="43.79679" lon="4.18866">
        <ele>51</ele>
        <time>2012-03-11T10:39:15Z</time>
      </trkpt>
      <trkpt lat="43.79677" lon="4.18861">
        <ele>52</ele>
        <time>2012-03-11T10:39:16Z</time>
      </trkpt>
      <trkpt lat="43.79676" lon="4.18856">
        <ele>52</ele>
        <time>2012-03-11T10:39:17Z</time>
      </trkpt>
      <trkpt lat="43.79674" lon="4.18851">
        <ele>52</ele>
        <time>2012-03-11T10:39:18Z</time>
      </trkpt>
      <trkpt lat="43.79672" lon="4.18846">
        <ele>52</ele>
        <time>2012-03-11T10:39:19Z</time>
      </trkpt>
      <trkpt lat="43.79671" lon="4.18841">
        <ele>52</ele>
        <time>2012-03-11T10:39:20Z</time>
      </trkpt>
      <trkpt lat="43.7967" lon="4.18835">
        <ele>52</ele>
        <time>2012-03-11T10:39:21Z</time>
      </trkpt>
      <trkpt lat="43.79668" lon="4.1883">
        <ele>53</ele>
        <time>2012-03-11T10:39:22Z</time>
      </trkpt>
      <trkpt lat="43.79667" lon="4.18826">
        <ele>53</ele>
        <time>2012-03-11T10:39:23Z</time>
      </trkpt>
      <trkpt lat="43.79666" lon="4.18821">
        <ele>53</ele>
        <time>2012-03-11T10:39:24Z</time>
      </trkpt>
      <trkpt lat="43.79665" lon="4.18816">
        <ele>53</ele>
        <time>2012-03-11T10:39:25Z</time>
      </trkpt>
      <trkpt lat="43.79663" lon="4.18811">
        <ele>54</ele>
        <time>2012-03-11T10:39:26Z</time>
      </trkpt>
      <trkpt lat="43.79662" lon="4.18807">
        <ele>54</ele>
        <time>2012-03-11T10:39:27Z</time>
      </trkpt>
      <trkpt lat="43.7966" lon="4.18802">
        <ele>54</ele>
        <time>2012-03-11T10:39:28Z</time>
      </trkpt>
      <trkpt lat="43.79658" lon="4.18798">
        <ele>54</ele>
        <time>2012-03-11T10:39:29Z</time>
      </trkpt>
      <trkpt lat="43.79656" lon="4.18793">
        <ele>54</ele>
        <time>2012-03-11T10:39:30Z</time>
      </trkpt>
      <trkpt lat="43.79654" lon="4.18789">
        <ele>55</ele>
        <time>2012-03-11T10:39:31Z</time>
      </trkpt>
      <trkpt lat="43.79652" lon="4.18785">
        <ele>55</ele>
        <time>2012-03-11T10:39:32Z</time>
      </trkpt>
      <trkpt lat="43.79649" lon="4.18782">
        <ele>55</ele>
        <time>2012-03-11T10:39:33Z</time>
      </trkpt>
      <trkpt lat="43.79647" lon="4.18778">
        <ele>56</ele>
        <time>2012-03-11T10:39:34Z</time>
      </trkpt>
      <trkpt lat="43.79645" lon="4.18775">
        <ele>56</ele>
        <time>2012-03-11T10:39:35Z</time>
      </trkpt>
      <trkpt lat="43.79642" lon="4.18772">
        <ele>56</ele>
        <time>2012-03-11T10:39:36Z</time>
      </trkpt>
      <trkpt lat="43.7964" lon="4.18768">
        <ele>56</ele>
        <time>2012-03-11T10:39:37Z</time>
      </trkpt>
      <trkpt lat="43.79639" lon="4.18764">
        <ele>57</ele>
        <time>2012-03-11T10:39:38Z</time>
      </trkpt>
      <trkpt lat="43.79637" lon="4.18761">
        <ele>57</ele>
        <time>2012-03-11T10:39:39Z</time>
      </trkpt>
      <trkpt lat="43.79636" lon="4.18757">
        <ele>57</ele>
        <time>2012-03-11T10:39:40Z</time>
      </trkpt>
      <trkpt lat="43.79636" lon="4.18753">
        <ele>58</ele>
        <time>2012-03-11T10:39:41Z</time>
      </trkpt>
      <trkpt lat="43.79635" lon="4.18749">
        <ele>58</ele>
        <time>2012-03-11T10:39:42Z</time>
      </trkpt>
      <trkpt lat="43.79635" lon="4.18745">
        <ele>58</ele>
        <time>2012-03-11T10:39:43Z</time>
      </trkpt>
      <trkpt lat="43.79635" lon="4.18741">
        <ele>58</ele>
        <time>2012-03-11T10:39:44Z</time>
      </trkpt>
      <trkpt lat="43.79634" lon="4.18736">
        <ele>59</ele>
        <time>2012-03-11T10:39:45Z</time>
      </trkpt>
      <trkpt lat="43.79634" lon="4.18731">
        <ele>59</ele>
        <time>2012-03-11T10:39:46Z</time>
      </trkpt>
      <trkpt lat="43.79634" lon="4.18727">
        <ele>59</ele>
        <time>2012-03-11T10:39:47Z</time>
      </trkpt>
      <trkpt lat="43.79633" lon="4.18722">
        <ele>59</ele>
        <time>2012-03-11T10:39:48Z</time>
      </trkpt>
      <trkpt lat="43.79633" lon="4.18717">
        <ele>59</ele>
        <time>2012-03-11T10:39:49Z</time>
      </trkpt>
      <trkpt lat="43.79633" lon="4.18713">
        <ele>59</ele>
        <time>2012-03-11T10:39:50Z</time>
      </trkpt>
      <trkpt lat="43.79632" lon="4.18708">
        <ele>59</ele>
        <time>2012-03-11T10:39:51Z</time>
      </trkpt>
      <trkpt lat="43.79632" lon="4.18704">
        <ele>59</ele>
        <time>2012-03-11T10:39:52Z</time>
      </trkpt>
      <trkpt lat="43.79631" lon="4.18699">
        <ele>59</ele>
        <time>2012-03-11T10:39:53Z</time>
      </trkpt>
      <trkpt lat="43.79631" lon="4.18695">
        <ele>59</ele>
        <time>2012-03-11T10:39:54Z</time>
      </trkpt>
      <trkpt lat="43.79631" lon="4.18691">
        <ele>59</ele>
        <time>2012-03-11T10:39:55Z</time>
      </trkpt>
      <trkpt lat="43.79631" lon="4.18686">
        <ele>60</ele>
        <time>2012-03-11T10:39:56Z</time>
      </trkpt>
      <trkpt lat="43.7963" lon="4.18682">
        <ele>60</ele>
        <time>2012-03-11T10:39:57Z</time>
      </trkpt>
      <trkpt lat="43.7963" lon="4.18677">
        <ele>60</ele>
        <time>2012-03-11T10:39:58Z</time>
      </trkpt>
      <trkpt lat="43.7963" lon="4.18673">
        <ele>61</ele>
        <time>2012-03-11T10:39:59Z</time>
      </trkpt>
      <trkpt lat="43.7963" lon="4.18669">
        <ele>61</ele>
        <time>2012-03-11T10:40:00Z</time>
      </trkpt>
      <trkpt lat="43.79631" lon="4.18665">
        <ele>61</ele>
        <time>2012-03-11T10:40:01Z</time>
      </trkpt>
      <trkpt lat="43.79631" lon="4.18661">
        <ele>61</ele>
        <time>2012-03-11T10:40:02Z</time>
      </trkpt>
      <trkpt lat="43.79631" lon="4.18657">
        <ele>62</ele>
        <time>2012-03-11T10:40:03Z</time>
      </trkpt>
      <trkpt lat="43.79631" lon="4.18653">
        <ele>62</ele>
        <time>2012-03-11T10:40:04Z</time>
      </trkpt>
      <trkpt lat="43.79632" lon="4.18649">
        <ele>62</ele>
        <time>2012-03-11T10:40:05Z</time>
      </trkpt>
      <trkpt lat="43.79633" lon="4.18646">
        <ele>62</ele>
        <time>2012-03-11T10:40:06Z</time>
      </trkpt>
      <trkpt lat="43.79633" lon="4.18642">
        <ele>62</ele>
        <time>2012-03-11T10:40:07Z</time>
      </trkpt>
      <trkpt lat="43.79633" lon="4.18638">
        <ele>62</ele>
        <time>2012-03-11T10:40:08Z</time>
      </trkpt>
      <trkpt lat="43.79634" lon="4.18634">
        <ele>63</ele>
        <time>2012-03-11T10:40:09Z</time>
      </trkpt>
      <trkpt lat="43.79634" lon="4.18631">
        <ele>63</ele>
        <time>2012-03-11T10:40:10Z</time>
      </trkpt>
      <trkpt lat="43.79635" lon="4.18627">
        <ele>63</ele>
        <time>2012-03-11T10:40:11Z</time>
      </trkpt>
      <trkpt lat="43.79635" lon="4.18623">
        <ele>63</ele>
        <time>2012-03-11T10:40:12Z</time>
      </trkpt>
      <trkpt lat="43.79635" lon="4.1862">
        <ele>63</ele>
        <time>2012-03-11T10:40:13Z</time>
      </trkpt>
      <trkpt lat="43.79636" lon="4.18616">
        <ele>63</ele>
        <time>2012-03-11T10:40:14Z</time>
      </trkpt>
      <trkpt lat="43.79636" lon="4.18612">
        <ele>63</ele>
        <time>2012-03-11T10:40:15Z</time>
      </trkpt>
      <trkpt lat="43.79636" lon="4.18609">
        <ele>63</ele>
        <time>2012-03-11T10:40:16Z</time>
      </trkpt>
      <trkpt lat="43.79636" lon="4.18605">
        <ele>63</ele>
        <time>2012-03-11T10:40:17Z</time>
      </trkpt>
      <trkpt lat="43.79636" lon="4.18602">
        <ele>63</ele>
        <time>2012-03-11T10:40:18Z</time>
      </trkpt>
      <trkpt lat="43.79637" lon="4.18598">
        <ele>63</ele>
        <time>2012-03-11T10:40:19Z</time>
      </trkpt>
      <trkpt lat="43.79637" lon="4.18594">
        <ele>63</ele>
        <time>2012-03-11T10:40:20Z</time>
      </trkpt>
      <trkpt lat="43.79637" lon="4.1859">
        <ele>63</ele>
        <time>2012-03-11T10:40:21Z</time>
      </trkpt>
      <trkpt lat="43.79637" lon="4.18586">
        <ele>63</ele>
        <time>2012-03-11T10:40:22Z</time>
      </trkpt>
      <trkpt lat="43.79638" lon="4.18582">
        <ele>63</ele>
        <time>2012-03-11T10:40:23Z</time>
      </trkpt>
      <trkpt lat="43.79638" lon="4.18577">
        <ele>64</ele>
        <time>2012-03-11T10:40:24Z</time>
      </trkpt>
      <trkpt lat="43.79637" lon="4.18573">
        <ele>64</ele>
        <time>2012-03-11T10:40:25Z</time>
      </trkpt>
      <trkpt lat="43.79637" lon="4.18568">
        <ele>64</ele>
        <time>2012-03-11T10:40:26Z</time>
      </trkpt>
      <trkpt lat="43.79637" lon="4.18563">
        <ele>64</ele>
        <time>2012-03-11T10:40:27Z</time>
      </trkpt>
      <trkpt lat="43.79636" lon="4.18558">
        <ele>64</ele>
        <time>2012-03-11T10:40:28Z</time>
      </trkpt>
      <trkpt lat="43.79636" lon="4.18553">
        <ele>64</ele>
        <time>2012-03-11T10:40:29Z</time>
      </trkpt>
      <trkpt lat="43.79636" lon="4.18548">
        <ele>64</ele>
        <time>2012-03-11T10:40:30Z</time>
      </trkpt>
      <trkpt lat="43.79635" lon="4.18543">
        <ele>64</ele>
        <time>2012-03-11T10:40:31Z</time>
      </trkpt>
      <trkpt lat="43.79635" lon="4.18539">
        <ele>64</ele>
        <time>2012-03-11T10:40:32Z</time>
      </trkpt>
      <trkpt lat="43.79636" lon="4.18535">
        <ele>64</ele>
        <time>2012-03-11T10:40:33Z</time>
      </trkpt>
      <trkpt lat="43.79636" lon="4.18531">
        <ele>64</ele>
        <time>2012-03-11T10:40:34Z</time>
      </trkpt>
      <trkpt lat="43.79636" lon="4.18527">
        <ele>64</ele>
        <time>2012-03-11T10:40:35Z</time>
      </trkpt>
      <trkpt lat="43.79636" lon="4.18522">
        <ele>64</ele>
        <time>2012-03-11T10:40:36Z</time>
      </trkpt>
      <trkpt lat="43.79636" lon="4.18518">
        <ele>64</ele>
        <time>2012-03-11T10:40:37Z</time>
      </trkpt>
      <trkpt lat="43.79636" lon="4.18514">
        <ele>64</ele>
        <time>2012-03-11T10:40:38Z</time>
      </trkpt>
      <trkpt lat="43.79636" lon="4.1851">
        <ele>64</ele>
        <time>2012-03-11T10:40:39Z</time>
      </trkpt>
      <trkpt lat="43.79636" lon="4.18505">
        <ele>64</ele>
        <time>2012-03-11T10:40:40Z</time>
      </trkpt>
      <trkpt lat="43.79636" lon="4.18501">
        <ele>65</ele>
        <time>2012-03-11T10:40:41Z</time>
      </trkpt>
      <trkpt lat="43.79636" lon="4.18497">
        <ele>65</ele>
        <time>2012-03-11T10:40:42Z</time>
      </trkpt>
      <trkpt lat="43.79635" lon="4.18493">
        <ele>66</ele>
        <time>2012-03-11T10:40:43Z</time>
      </trkpt>
      <trkpt lat="43.79635" lon="4.18489">
        <ele>66</ele>
        <time>2012-03-11T10:40:44Z</time>
      </trkpt>
      <trkpt lat="43.79635" lon="4.18485">
        <ele>67</ele>
        <time>2012-03-11T10:40:45Z</time>
      </trkpt>
      <trkpt lat="43.79634" lon="4.18482">
        <ele>67</ele>
        <time>2012-03-11T10:40:46Z</time>
      </trkpt>
      <trkpt lat="43.79632" lon="4.18479">
        <ele>68</ele>
        <time>2012-03-11T10:40:47Z</time>
      </trkpt>
      <trkpt lat="43.79629" lon="4.18478">
        <ele>68</ele>
        <time>2012-03-11T10:40:48Z</time>
      </trkpt>
      <trkpt lat="43.79626" lon="4.1848">
        <ele>68</ele>
        <time>2012-03-11T10:40:49Z</time>
      </trkpt>
      <trkpt lat="43.79623" lon="4.18484">
        <ele>68</ele>
        <time>2012-03-11T10:40:50Z</time>
      </trkpt>
      <trkpt lat="43.7962" lon="4.18488">
        <ele>68</ele>
        <time>2012-03-11T10:40:51Z</time>
      </trkpt>
      <trkpt lat="43.79617" lon="4.18491">
        <ele>68</ele>
        <time>2012-03-11T10:40:52Z</time>
      </trkpt>
      <trkpt lat="43.79613" lon="4.18495">
        <ele>68</ele>
        <time>2012-03-11T10:40:53Z</time>
      </trkpt>
      <trkpt lat="43.7961" lon="4.18498">
        <ele>68</ele>
        <time>2012-03-11T10:40:54Z</time>
      </trkpt>
      <trkpt lat="43.79606" lon="4.18502">
        <ele>68</ele>
        <time>2012-03-11T10:40:55Z</time>
      </trkpt>
      <trkpt lat="43.79602" lon="4.18504">
        <ele>68</ele>
        <time>2012-03-11T10:40:56Z</time>
      </trkpt>
      <trkpt lat="43.79597" lon="4.18507">
        <ele>68</ele>
        <time>2012-03-11T10:40:57Z</time>
      </trkpt>
      <trkpt lat="43.79593" lon="4.1851">
        <ele>68</ele>
        <time>2012-03-11T10:40:58Z</time>
      </trkpt>
      <trkpt lat="43.79588" lon="4.18513">
        <ele>68</ele>
        <time>2012-03-11T10:40:59Z</time>
      </trkpt>
      <trkpt lat="43.79583" lon="4.18516">
        <ele>68</ele>
        <time>2012-03-11T10:41:00Z</time>
      </trkpt>
      <trkpt lat="43.79579" lon="4.18519">
        <ele>68</ele>
        <time>2012-03-11T10:41:01Z</time>
      </trkpt>
      <trkpt lat="43.79574" lon="4.18523">
        <ele>68</ele>
        <time>2012-03-11T10:41:02Z</time>
      </trkpt>
      <trkpt lat="43.79568" lon="4.18525">
        <ele>68</ele>
        <time>2012-03-11T10:41:03Z</time>
      </trkpt>
      <trkpt lat="43.79563" lon="4.18528">
        <ele>68</ele>
        <time>2012-03-11T10:41:04Z</time>
      </trkpt>
      <trkpt lat="43.79557" lon="4.18531">
        <ele>68</ele>
        <time>2012-03-11T10:41:05Z</time>
      </trkpt>
      <trkpt lat="43.79552" lon="4.18533">
        <ele>67</ele>
        <time>2012-03-11T10:41:06Z</time>
      </trkpt>
      <trkpt lat="43.79546" lon="4.18536">
        <ele>67</ele>
        <time>2012-03-11T10:41:07Z</time>
      </trkpt>
      <trkpt lat="43.7954" lon="4.18539">
        <ele>67</ele>
        <time>2012-03-11T10:41:08Z</time>
      </trkpt>
      <trkpt lat="43.79533" lon="4.18541">
        <ele>67</ele>
        <time>2012-03-11T10:41:09Z</time>
      </trkpt>
      <trkpt lat="43.79527" lon="4.18543">
        <ele>66</ele>
        <time>2012-03-11T10:41:10Z</time>
      </trkpt>
      <trkpt lat="43.79521" lon="4.18546">
        <ele>66</ele>
        <time>2012-03-11T10:41:11Z</time>
      </trkpt>
      <trkpt lat="43.79514" lon="4.18549">
        <ele>66</ele>
        <time>2012-03-11T10:41:12Z</time>
      </trkpt>
      <trkpt lat="43.79507" lon="4.18551">
        <ele>66</ele>
        <time>2012-03-11T10:41:13Z</time>
      </trkpt>
      <trkpt lat="43.79501" lon="4.18554">
        <ele>66</ele>
        <time>2012-03-11T10:41:14Z</time>
      </trkpt>
      <trkpt lat="43.79494" lon="4.18558">
        <ele>66</ele>
        <time>2012-03-11T10:41:15Z</time>
      </trkpt>
      <trkpt lat="43.79488" lon="4.18561">
        <ele>66</ele>
        <time>2012-03-11T10:41:16Z</time>
      </trkpt>
      <trkpt lat="43.79482" lon="4.18564">
        <ele>66</ele>
        <time>2012-03-11T10:41:17Z</time>
      </trkpt>
      <trkpt lat="43.79475" lon="4.18567">
        <ele>66</ele>
        <time>2012-03-11T10:41:18Z</time>
      </trkpt>
      <trkpt lat="43.79469" lon="4.1857">
        <ele>66</ele>
        <time>2012-03-11T10:41:19Z</time>
      </trkpt>
      <trkpt lat="43.79463" lon="4.18573">
        <ele>66</ele>
        <time>2012-03-11T10:41:20Z</time>
      </trkpt>
      <trkpt lat="43.79456" lon="4.18576">
        <ele>66</ele>
        <time>2012-03-11T10:41:21Z</time>
      </trkpt>
      <trkpt lat="43.7945" lon="4.18578">
        <ele>66</ele>
        <time>2012-03-11T10:41:22Z</time>
      </trkpt>
      <trkpt lat="43.79444" lon="4.18581">
        <ele>66</ele>
        <time>2012-03-11T10:41:23Z</time>
      </trkpt>
      <trkpt lat="43.79438" lon="4.18583">
        <ele>66</ele>
        <time>2012-03-11T10:41:24Z</time>
      </trkpt>
      <trkpt lat="43.79431" lon="4.18584">
        <ele>66</ele>
        <time>2012-03-11T10:41:25Z</time>
      </trkpt>
      <trkpt lat="43.79425" lon="4.18584">
        <ele>66</ele>
        <time>2012-03-11T10:41:26Z</time>
      </trkpt>
      <trkpt lat="43.79417" lon="4.18585">
        <ele>66</ele>
        <time>2012-03-11T10:41:27Z</time>
      </trkpt>
      <trkpt lat="43.79411" lon="4.18586">
        <ele>66</ele>
        <time>2012-03-11T10:41:28Z</time>
      </trkpt>
      <trkpt lat="43.79404" lon="4.18587">
        <ele>65</ele>
        <time>2012-03-11T10:41:29Z</time>
      </trkpt>
      <trkpt lat="43.79397" lon="4.18588">
        <ele>65</ele>
        <time>2012-03-11T10:41:30Z</time>
      </trkpt>
      <trkpt lat="43.79391" lon="4.18589">
        <ele>64</ele>
        <time>2012-03-11T10:41:31Z</time>
      </trkpt>
      <trkpt lat="43.79385" lon="4.1859">
        <ele>64</ele>
        <time>2012-03-11T10:41:32Z</time>
      </trkpt>
      <trkpt lat="43.79378" lon="4.18591">
        <ele>64</ele>
        <time>2012-03-11T10:41:33Z</time>
      </trkpt>
      <trkpt lat="43.79372" lon="4.18591">
        <ele>64</ele>
        <time>2012-03-11T10:41:34Z</time>
      </trkpt>
      <trkpt lat="43.79365" lon="4.18592">
        <ele>64</ele>
        <time>2012-03-11T10:41:35Z</time>
      </trkpt>
      <trkpt lat="43.79359" lon="4.18592">
        <ele>64</ele>
        <time>2012-03-11T10:41:36Z</time>
      </trkpt>
      <trkpt lat="43.79353" lon="4.18593">
        <ele>64</ele>
        <time>2012-03-11T10:41:37Z</time>
      </trkpt>
      <trkpt lat="43.79346" lon="4.18593">
        <ele>64</ele>
        <time>2012-03-11T10:41:38Z</time>
      </trkpt>
      <trkpt lat="43.7934" lon="4.18594">
        <ele>63</ele>
        <time>2012-03-11T10:41:39Z</time>
      </trkpt>
      <trkpt lat="43.79333" lon="4.18594">
        <ele>63</ele>
        <time>2012-03-11T10:41:40Z</time>
      </trkpt>
      <trkpt lat="43.79327" lon="4.18595">
        <ele>63</ele>
        <time>2012-03-11T10:41:41Z</time>
      </trkpt>
      <trkpt lat="43.7932" lon="4.18596">
        <ele>63</ele>
        <time>2012-03-11T10:41:42Z</time>
      </trkpt>
      <trkpt lat="43.79314" lon="4.18597">
        <ele>63</ele>
        <time>2012-03-11T10:41:43Z</time>
      </trkpt>
      <trkpt lat="43.79308" lon="4.186">
        <ele>63</ele>
        <time>2012-03-11T10:41:44Z</time>
      </trkpt>
      <trkpt lat="43.79302" lon="4.18602">
        <ele>63</ele>
        <time>2012-03-11T10:41:45Z</time>
      </trkpt>
      <trkpt lat="43.79295" lon="4.18605">
        <ele>62</ele>
        <time>2012-03-11T10:41:46Z</time>
      </trkpt>
      <trkpt lat="43.7929" lon="4.18607">
        <ele>62</ele>
        <time>2012-03-11T10:41:47Z</time>
      </trkpt>
      <trkpt lat="43.79283" lon="4.18609">
        <ele>62</ele>
        <time>2012-03-11T10:41:48Z</time>
      </trkpt>
      <trkpt lat="43.79277" lon="4.18611">
        <ele>62</ele>
        <time>2012-03-11T10:41:49Z</time>
      </trkpt>
      <trkpt lat="43.79271" lon="4.18614">
        <ele>62</ele>
        <time>2012-03-11T10:41:50Z</time>
      </trkpt>
      <trkpt lat="43.79265" lon="4.18617">
        <ele>62</ele>
        <time>2012-03-11T10:41:51Z</time>
      </trkpt>
      <trkpt lat="43.79259" lon="4.18619">
        <ele>61</ele>
        <time>2012-03-11T10:41:52Z</time>
      </trkpt>
      <trkpt lat="43.79253" lon="4.18622">
        <ele>61</ele>
        <time>2012-03-11T10:41:53Z</time>
      </trkpt>
      <trkpt lat="43.79247" lon="4.18625">
        <ele>61</ele>
        <time>2012-03-11T10:41:54Z</time>
      </trkpt>
      <trkpt lat="43.7924" lon="4.18628">
        <ele>61</ele>
        <time>2012-03-11T10:41:55Z</time>
      </trkpt>
      <trkpt lat="43.79234" lon="4.18631">
        <ele>61</ele>
        <time>2012-03-11T10:41:56Z</time>
      </trkpt>
      <trkpt lat="43.79228" lon="4.18634">
        <ele>61</ele>
        <time>2012-03-11T10:41:57Z</time>
      </trkpt>
      <trkpt lat="43.79222" lon="4.18637">
        <ele>60</ele>
        <time>2012-03-11T10:41:58Z</time>
      </trkpt>
      <trkpt lat="43.79216" lon="4.1864">
        <ele>60</ele>
        <time>2012-03-11T10:41:59Z</time>
      </trkpt>
      <trkpt lat="43.7921" lon="4.18643">
        <ele>60</ele>
        <time>2012-03-11T10:42:00Z</time>
      </trkpt>
      <trkpt lat="43.79204" lon="4.18646">
        <ele>60</ele>
        <time>2012-03-11T10:42:01Z</time>
      </trkpt>
      <trkpt lat="43.79198" lon="4.18649">
        <ele>59</ele>
        <time>2012-03-11T10:42:02Z</time>
      </trkpt>
      <trkpt lat="43.79192" lon="4.18651">
        <ele>59</ele>
        <time>2012-03-11T10:42:03Z</time>
      </trkpt>
      <trkpt lat="43.79185" lon="4.18654">
        <ele>59</ele>
        <time>2012-03-11T10:42:04Z</time>
      </trkpt>
      <trkpt lat="43.79179" lon="4.18657">
        <ele>58</ele>
        <time>2012-03-11T10:42:05Z</time>
      </trkpt>
      <trkpt lat="43.79174" lon="4.18661">
        <ele>58</ele>
        <time>2012-03-11T10:42:06Z</time>
      </trkpt>
      <trkpt lat="43.79168" lon="4.18664">
        <ele>58</ele>
        <time>2012-03-11T10:42:07Z</time>
      </trkpt>
      <trkpt lat="43.79162" lon="4.18667">
        <ele>58</ele>
        <time>2012-03-11T10:42:08Z</time>
      </trkpt>
      <trkpt lat="43.79156" lon="4.1867">
        <ele>58</ele>
        <time>2012-03-11T10:42:09Z</time>
      </trkpt>
      <trkpt lat="43.7915" lon="4.18673">
        <ele>58</ele>
        <time>2012-03-11T10:42:10Z</time>
      </trkpt>
      <trkpt lat="43.79145" lon="4.18676">
        <ele>58</ele>
        <time>2012-03-11T10:42:11Z</time>
      </trkpt>
      <trkpt lat="43.79139" lon="4.18679">
        <ele>58</ele>
        <time>2012-03-11T10:42:12Z</time>
      </trkpt>
      <trkpt lat="43.79133" lon="4.18681">
        <ele>58</ele>
        <time>2012-03-11T10:42:13Z</time>
      </trkpt>
      <trkpt lat="43.79128" lon="4.18685">
        <ele>58</ele>
        <time>2012-03-11T10:42:14Z</time>
      </trkpt>
      <trkpt lat="43.79122" lon="4.18688">
        <ele>57</ele>
        <time>2012-03-11T10:42:15Z</time>
      </trkpt>
      <trkpt lat="43.79116" lon="4.1869">
        <ele>57</ele>
        <time>2012-03-11T10:42:16Z</time>
      </trkpt>
      <trkpt lat="43.7911" lon="4.18693">
        <ele>57</ele>
        <time>2012-03-11T10:42:17Z</time>
      </trkpt>
      <trkpt lat="43.79105" lon="4.18696">
        <ele>57</ele>
        <time>2012-03-11T10:42:18Z</time>
      </trkpt>
      <trkpt lat="43.79099" lon="4.18699">
        <ele>57</ele>
        <time>2012-03-11T10:42:19Z</time>
      </trkpt>
      <trkpt lat="43.79093" lon="4.18702">
        <ele>57</ele>
        <time>2012-03-11T10:42:20Z</time>
      </trkpt>
      <trkpt lat="43.79087" lon="4.18705">
        <ele>57</ele>
        <time>2012-03-11T10:42:21Z</time>
      </trkpt>
      <trkpt lat="43.79081" lon="4.18707">
        <ele>56</ele>
        <time>2012-03-11T10:42:22Z</time>
      </trkpt>
      <trkpt lat="43.79075" lon="4.1871">
        <ele>56</ele>
        <time>2012-03-11T10:42:23Z</time>
      </trkpt>
      <trkpt lat="43.79069" lon="4.18712">
        <ele>56</ele>
        <time>2012-03-11T10:42:24Z</time>
      </trkpt>
      <trkpt lat="43.79063" lon="4.18715">
        <ele>56</ele>
        <time>2012-03-11T10:42:25Z</time>
      </trkpt>
      <trkpt lat="43.79058" lon="4.18717">
        <ele>56</ele>
        <time>2012-03-11T10:42:26Z</time>
      </trkpt>
      <trkpt lat="43.79052" lon="4.18718">
        <ele>56</ele>
        <time>2012-03-11T10:42:27Z</time>
      </trkpt>
      <trkpt lat="43.79045" lon="4.18719">
        <ele>56</ele>
        <time>2012-03-11T10:42:28Z</time>
      </trkpt>
      <trkpt lat="43.79039" lon="4.18717">
        <ele>56</ele>
        <time>2012-03-11T10:42:29Z</time>
      </trkpt>
      <trkpt lat="43.79033" lon="4.18714">
        <ele>56</ele>
        <time>2012-03-11T10:42:30Z</time>
      </trkpt>
      <trkpt lat="43.79028" lon="4.18711">
        <ele>56</ele>
        <time>2012-03-11T10:42:31Z</time>
      </trkpt>
      <trkpt lat="43.79023" lon="4.18707">
        <ele>56</ele>
        <time>2012-03-11T10:42:32Z</time>
      </trkpt>
      <trkpt lat="43.79018" lon="4.18704">
        <ele>56</ele>
        <time>2012-03-11T10:42:33Z</time>
      </trkpt>
      <trkpt lat="43.79013" lon="4.18701">
        <ele>56</ele>
        <time>2012-03-11T10:42:34Z</time>
      </trkpt>
      <trkpt lat="43.79008" lon="4.18698">
        <ele>56</ele>
        <time>2012-03-11T10:42:35Z</time>
      </trkpt>
      <trkpt lat="43.79002" lon="4.18695">
        <ele>56</ele>
        <time>2012-03-11T10:42:36Z</time>
      </trkpt>
      <trkpt lat="43.78997" lon="4.18693">
        <ele>56</ele>
        <time>2012-03-11T10:42:37Z</time>
      </trkpt>
      <trkpt lat="43.78992" lon="4.1869">
        <ele>56</ele>
        <time>2012-03-11T10:42:38Z</time>
      </trkpt>
      <trkpt lat="43.78987" lon="4.18687">
        <ele>56</ele>
        <time>2012-03-11T10:42:39Z</time>
      </trkpt>
      <trkpt lat="43.78982" lon="4.18684">
        <ele>56</ele>
        <time>2012-03-11T10:42:40Z</time>
      </trkpt>
      <trkpt lat="43.78976" lon="4.18681">
        <ele>56</ele>
        <time>2012-03-11T10:42:41Z</time>
      </trkpt>
      <trkpt lat="43.78971" lon="4.18679">
        <ele>56</ele>
        <time>2012-03-11T10:42:42Z</time>
      </trkpt>
      <trkpt lat="43.78966" lon="4.18676">
        <ele>56</ele>
        <time>2012-03-11T10:42:43Z</time>
      </trkpt>
      <trkpt lat="43.78961" lon="4.18673">
        <ele>56</ele>
        <time>2012-03-11T10:42:44Z</time>
      </trkpt>
      <trkpt lat="43.78956" lon="4.1867">
        <ele>56</ele>
        <time>2012-03-11T10:42:45Z</time>
      </trkpt>
      <trkpt lat="43.78951" lon="4.18667">
        <ele>56</ele>
        <time>2012-03-11T10:42:46Z</time>
      </trkpt>
      <trkpt lat="43.78946" lon="4.18665">
        <ele>56</ele>
        <time>2012-03-11T10:42:47Z</time>
      </trkpt>
      <trkpt lat="43.78941" lon="4.18663">
        <ele>56</ele>
        <time>2012-03-11T10:42:48Z</time>
      </trkpt>
      <trkpt lat="43.78936" lon="4.1866">
        <ele>56</ele>
        <time>2012-03-11T10:42:49Z</time>
      </trkpt>
      <trkpt lat="43.7893" lon="4.18658">
        <ele>56</ele>
        <time>2012-03-11T10:42:50Z</time>
      </trkpt>
      <trkpt lat="43.78925" lon="4.18655">
        <ele>56</ele>
        <time>2012-03-11T10:42:51Z</time>
      </trkpt>
      <trkpt lat="43.7892" lon="4.18653">
        <ele>56</ele>
        <time>2012-03-11T10:42:52Z</time>
      </trkpt>
      <trkpt lat="43.78915" lon="4.18651">
        <ele>56</ele>
        <time>2012-03-11T10:42:53Z</time>
      </trkpt>
      <trkpt lat="43.78911" lon="4.18649">
        <ele>56</ele>
        <time>2012-03-11T10:42:54Z</time>
      </trkpt>
      <trkpt lat="43.78906" lon="4.18647">
        <ele>56</ele>
        <time>2012-03-11T10:42:55Z</time>
      </trkpt>
      <trkpt lat="43.78902" lon="4.18646">
        <ele>56</ele>
        <time>2012-03-11T10:42:56Z</time>
      </trkpt>
      <trkpt lat="43.78898" lon="4.18645">
        <ele>57</ele>
        <time>2012-03-11T10:42:57Z</time>
      </trkpt>
      <trkpt lat="43.78894" lon="4.18644">
        <ele>57</ele>
        <time>2012-03-11T10:42:58Z</time>
      </trkpt>
      <trkpt lat="43.78889" lon="4.18643">
        <ele>57</ele>
        <time>2012-03-11T10:42:59Z</time>
      </trkpt>
      <trkpt lat="43.78885" lon="4.18643">
        <ele>57</ele>
        <time>2012-03-11T10:43:00Z</time>
      </trkpt>
      <trkpt lat="43.78881" lon="4.18642">
        <ele>57</ele>
        <time>2012-03-11T10:43:01Z</time>
      </trkpt>
      <trkpt lat="43.78878" lon="4.18641">
        <ele>58</ele>
        <time>2012-03-11T10:43:02Z</time>
      </trkpt>
      <trkpt lat="43.78875" lon="4.18641">
        <ele>58</ele>
        <time>2012-03-11T10:43:03Z</time>
      </trkpt>
      <trkpt lat="43.78873" lon="4.18641">
        <ele>58</ele>
        <time>2012-03-11T10:43:04Z</time>
      </trkpt>
      <trkpt lat="43.78872" lon="4.1864">
        <ele>58</ele>
        <time>2012-03-11T10:43:05Z</time>
      </trkpt>
      <trkpt lat="43.7887" lon="4.1864">
        <ele>59</ele>
        <time>2012-03-11T10:43:11Z</time>
      </trkpt>
      <trkpt lat="43.78868" lon="4.1864">
        <ele>60</ele>
        <time>2012-03-11T10:43:12Z</time>
      </trkpt>
      <trkpt lat="43.78865" lon="4.18641">
        <ele>60</ele>
        <time>2012-03-11T10:43:13Z</time>
      </trkpt>
      <trkpt lat="43.78862" lon="4.18641">
        <ele>60</ele>
        <time>2012-03-11T10:43:14Z</time>
      </trkpt>
      <trkpt lat="43.78858" lon="4.1864">
        <ele>60</ele>
        <time>2012-03-11T10:43:15Z</time>
      </trkpt>
      <trkpt lat="43.78853" lon="4.18639">
        <ele>60</ele>
        <time>2012-03-11T10:43:16Z</time>
      </trkpt>
      <trkpt lat="43.78849" lon="4.18636">
        <ele>60</ele>
        <time>2012-03-11T10:43:17Z</time>
      </trkpt>
      <trkpt lat="43.78846" lon="4.18631">
        <ele>60</ele>
        <time>2012-03-11T10:43:18Z</time>
      </trkpt>
      <trkpt lat="43.78843" lon="4.18626">
        <ele>60</ele>
        <time>2012-03-11T10:43:19Z</time>
      </trkpt>
      <trkpt lat="43.78841" lon="4.1862">
        <ele>60</ele>
        <time>2012-03-11T10:43:20Z</time>
      </trkpt>
      <trkpt lat="43.78838" lon="4.18615">
        <ele>60</ele>
        <time>2012-03-11T10:43:21Z</time>
      </trkpt>
      <trkpt lat="43.78834" lon="4.1861">
        <ele>60</ele>
        <time>2012-03-11T10:43:22Z</time>
      </trkpt>
      <trkpt lat="43.78831" lon="4.18605">
        <ele>60</ele>
        <time>2012-03-11T10:43:23Z</time>
      </trkpt>
      <trkpt lat="43.78828" lon="4.18601">
        <ele>60</ele>
        <time>2012-03-11T10:43:24Z</time>
      </trkpt>
      <trkpt lat="43.78825" lon="4.18596">
        <ele>60</ele>
        <time>2012-03-11T10:43:25Z</time>
      </trkpt>
      <trkpt lat="43.78821" lon="4.18592">
        <ele>60</ele>
        <time>2012-03-11T10:43:26Z</time>
      </trkpt>
      <trkpt lat="43.78818" lon="4.18587">
        <ele>60</ele>
        <time>2012-03-11T10:43:27Z</time>
      </trkpt>
      <trkpt lat="43.78815" lon="4.18583">
        <ele>60</ele>
        <time>2012-03-11T10:43:28Z</time>
      </trkpt>
      <trkpt lat="43.78812" lon="4.18578">
        <ele>60</ele>
        <time>2012-03-11T10:43:29Z</time>
      </trkpt>
      <trkpt lat="43.78809" lon="4.18575">
        <ele>60</ele>
        <time>2012-03-11T10:43:30Z</time>
      </trkpt>
      <trkpt lat="43.78805" lon="4.18571">
        <ele>60</ele>
        <time>2012-03-11T10:43:31Z</time>
      </trkpt>
      <trkpt lat="43.78801" lon="4.18568">
        <ele>60</ele>
        <time>2012-03-11T10:43:32Z</time>
      </trkpt>
      <trkpt lat="43.78798" lon="4.18565">
        <ele>60</ele>
        <time>2012-03-11T10:43:33Z</time>
      </trkpt>
      <trkpt lat="43.78794" lon="4.18563">
        <ele>60</ele>
        <time>2012-03-11T10:43:34Z</time>
      </trkpt>
      <trkpt lat="43.7879" lon="4.1856">
        <ele>60</ele>
        <time>2012-03-11T10:43:35Z</time>
      </trkpt>
      <trkpt lat="43.78786" lon="4.18557">
        <ele>60</ele>
        <time>2012-03-11T10:43:36Z</time>
      </trkpt>
      <trkpt lat="43.78782" lon="4.18555">
        <ele>60</ele>
        <time>2012-03-11T10:43:37Z</time>
      </trkpt>
      <trkpt lat="43.78778" lon="4.18553">
        <ele>60</ele>
        <time>2012-03-11T10:43:38Z</time>
      </trkpt>
      <trkpt lat="43.78775" lon="4.18552">
        <ele>60</ele>
        <time>2012-03-11T10:43:39Z</time>
      </trkpt>
      <trkpt lat="43.78771" lon="4.18551">
        <ele>60</ele>
        <time>2012-03-11T10:43:40Z</time>
      </trkpt>
      <trkpt lat="43.78767" lon="4.18551">
        <ele>60</ele>
        <time>2012-03-11T10:43:41Z</time>
      </trkpt>
      <trkpt lat="43.78764" lon="4.18551">
        <ele>60</ele>
        <time>2012-03-11T10:43:42Z</time>
      </trkpt>
      <trkpt lat="43.78761" lon="4.18552">
        <ele>60</ele>
        <time>2012-03-11T10:43:43Z</time>
      </trkpt>
      <trkpt lat="43.78758" lon="4.18553">
        <ele>60</ele>
        <time>2012-03-11T10:43:44Z</time>
      </trkpt>
      <trkpt lat="43.78756" lon="4.18555">
        <ele>60</ele>
        <time>2012-03-11T10:43:45Z</time>
      </trkpt>
      <trkpt lat="43.78753" lon="4.18557">
        <ele>60</ele>
        <time>2012-03-11T10:43:46Z</time>
      </trkpt>
      <trkpt lat="43.7875" lon="4.18558">
        <ele>60</ele>
        <time>2012-03-11T10:43:47Z</time>
      </trkpt>
      <trkpt lat="43.78747" lon="4.1856">
        <ele>60</ele>
        <time>2012-03-11T10:43:48Z</time>
      </trkpt>
      <trkpt lat="43.78744" lon="4.18561">
        <ele>60</ele>
        <time>2012-03-11T10:43:49Z</time>
      </trkpt>
      <trkpt lat="43.7874" lon="4.18562">
        <ele>60</ele>
        <time>2012-03-11T10:43:50Z</time>
      </trkpt>
      <trkpt lat="43.78737" lon="4.18563">
        <ele>60</ele>
        <time>2012-03-11T10:43:51Z</time>
      </trkpt>
      <trkpt lat="43.78734" lon="4.18563">
        <ele>60</ele>
        <time>2012-03-11T10:43:52Z</time>
      </trkpt>
      <trkpt lat="43.78731" lon="4.18563">
        <ele>60</ele>
        <time>2012-03-11T10:43:53Z</time>
      </trkpt>
      <trkpt lat="43.78728" lon="4.18563">
        <ele>60</ele>
        <time>2012-03-11T10:43:54Z</time>
      </trkpt>
      <trkpt lat="43.78725" lon="4.18563">
        <ele>60</ele>
        <time>2012-03-11T10:43:55Z</time>
      </trkpt>
      <trkpt lat="43.78723" lon="4.18563">
        <ele>60</ele>
        <time>2012-03-11T10:43:56Z</time>
      </trkpt>
      <trkpt lat="43.78721" lon="4.18564">
        <ele>60</ele>
        <time>2012-03-11T10:43:57Z</time>
      </trkpt>
      <trkpt lat="43.78719" lon="4.18563">
        <ele>60</ele>
        <time>2012-03-11T10:43:58Z</time>
      </trkpt>
      <trkpt lat="43.78716" lon="4.18563">
        <ele>60</ele>
        <time>2012-03-11T10:43:59Z</time>
      </trkpt>
      <trkpt lat="43.78714" lon="4.18563">
        <ele>60</ele>
        <time>2012-03-11T10:44:00Z</time>
      </trkpt>
      <trkpt lat="43.78711" lon="4.18563">
        <ele>60</ele>
        <time>2012-03-11T10:44:01Z</time>
      </trkpt>
      <trkpt lat="43.78709" lon="4.18562">
        <ele>60</ele>
        <time>2012-03-11T10:44:02Z</time>
      </trkpt>
      <trkpt lat="43.78708" lon="4.18562">
        <ele>60</ele>
        <time>2012-03-11T10:44:03Z</time>
      </trkpt>
      <trkpt lat="43.78706" lon="4.18563">
        <ele>60</ele>
        <time>2012-03-11T10:44:04Z</time>
      </trkpt>
      <trkpt lat="43.78704" lon="4.18563">
        <ele>61</ele>
        <time>2012-03-11T10:44:05Z</time>
      </trkpt>
      <trkpt lat="43.78701" lon="4.18562">
        <ele>61</ele>
        <time>2012-03-11T10:44:06Z</time>
      </trkpt>
      <trkpt lat="43.78699" lon="4.18562">
        <ele>62</ele>
        <time>2012-03-11T10:44:07Z</time>
      </trkpt>
      <trkpt lat="43.78697" lon="4.18562">
        <ele>63</ele>
        <time>2012-03-11T10:44:08Z</time>
      </trkpt>
      <trkpt lat="43.78695" lon="4.18562">
        <ele>63</ele>
        <time>2012-03-11T10:44:09Z</time>
      </trkpt>
      <trkpt lat="43.78693" lon="4.18562">
        <ele>63</ele>
        <time>2012-03-11T10:44:10Z</time>
      </trkpt>
      <trkpt lat="43.7869" lon="4.18561">
        <ele>63</ele>
        <time>2012-03-11T10:44:11Z</time>
      </trkpt>
      <trkpt lat="43.78687" lon="4.1856">
        <ele>63</ele>
        <time>2012-03-11T10:44:12Z</time>
      </trkpt>
      <trkpt lat="43.78685" lon="4.18559">
        <ele>63</ele>
        <time>2012-03-11T10:44:13Z</time>
      </trkpt>
      <trkpt lat="43.78682" lon="4.18558">
        <ele>63</ele>
        <time>2012-03-11T10:44:14Z</time>
      </trkpt>
      <trkpt lat="43.7868" lon="4.18558">
        <ele>63</ele>
        <time>2012-03-11T10:44:15Z</time>
      </trkpt>
      <trkpt lat="43.78677" lon="4.18557">
        <ele>63</ele>
        <time>2012-03-11T10:44:16Z</time>
      </trkpt>
      <trkpt lat="43.78674" lon="4.18556">
        <ele>63</ele>
        <time>2012-03-11T10:44:17Z</time>
      </trkpt>
      <trkpt lat="43.78672" lon="4.18555">
        <ele>63</ele>
        <time>2012-03-11T10:44:18Z</time>
      </trkpt>
      <trkpt lat="43.7867" lon="4.18554">
        <ele>63</ele>
        <time>2012-03-11T10:44:19Z</time>
      </trkpt>
      <trkpt lat="43.78668" lon="4.18553">
        <ele>63</ele>
        <time>2012-03-11T10:44:20Z</time>
      </trkpt>
      <trkpt lat="43.78666" lon="4.18552">
        <ele>63</ele>
        <time>2012-03-11T10:44:21Z</time>
      </trkpt>
      <trkpt lat="43.78664" lon="4.18551">
        <ele>63</ele>
        <time>2012-03-11T10:44:22Z</time>
      </trkpt>
      <trkpt lat="43.78663" lon="4.18549">
        <ele>63</ele>
        <time>2012-03-11T10:44:23Z</time>
      </trkpt>
      <trkpt lat="43.78661" lon="4.18548">
        <ele>63</ele>
        <time>2012-03-11T10:44:24Z</time>
      </trkpt>
      <trkpt lat="43.7866" lon="4.18546">
        <ele>63</ele>
        <time>2012-03-11T10:44:25Z</time>
      </trkpt>
      <trkpt lat="43.78658" lon="4.18545">
        <ele>63</ele>
        <time>2012-03-11T10:44:26Z</time>
      </trkpt>
      <trkpt lat="43.78657" lon="4.18544">
        <ele>63</ele>
        <time>2012-03-11T10:44:27Z</time>
      </trkpt>
      <trkpt lat="43.78654" lon="4.18543">
        <ele>63</ele>
        <time>2012-03-11T10:44:29Z</time>
      </trkpt>
      <trkpt lat="43.78652" lon="4.18543">
        <ele>64</ele>
        <time>2012-03-11T10:44:30Z</time>
      </trkpt>
      <trkpt lat="43.7865" lon="4.18543">
        <ele>65</ele>
        <time>2012-03-11T10:44:31Z</time>
      </trkpt>
      <trkpt lat="43.78649" lon="4.18544">
        <ele>65</ele>
        <time>2012-03-11T10:44:32Z</time>
      </trkpt>
      <trkpt lat="43.78648" lon="4.18546">
        <ele>66</ele>
        <time>2012-03-11T10:44:33Z</time>
      </trkpt>
      <trkpt lat="43.78647" lon="4.18547">
        <ele>67</ele>
        <time>2012-03-11T10:44:34Z</time>
      </trkpt>
      <trkpt lat="43.78645" lon="4.18549">
        <ele>67</ele>
        <time>2012-03-11T10:44:35Z</time>
      </trkpt>
      <trkpt lat="43.78644" lon="4.18551">
        <ele>67</ele>
        <time>2012-03-11T10:44:36Z</time>
      </trkpt>
      <trkpt lat="43.78642" lon="4.18553">
        <ele>67</ele>
        <time>2012-03-11T10:44:37Z</time>
      </trkpt>
      <trkpt lat="43.7864" lon="4.18554">
        <ele>67</ele>
        <time>2012-03-11T10:44:38Z</time>
      </trkpt>
      <trkpt lat="43.78638" lon="4.18555">
        <ele>67</ele>
        <time>2012-03-11T10:44:39Z</time>
      </trkpt>
      <trkpt lat="43.78636" lon="4.18556">
        <ele>67</ele>
        <time>2012-03-11T10:44:40Z</time>
      </trkpt>
      <trkpt lat="43.78635" lon="4.18555">
        <ele>67</ele>
        <time>2012-03-11T10:44:41Z</time>
      </trkpt>
      <trkpt lat="43.78634" lon="4.18553">
        <ele>67</ele>
        <time>2012-03-11T10:44:42Z</time>
      </trkpt>
      <trkpt lat="43.78634" lon="4.1855">
        <ele>67</ele>
        <time>2012-03-11T10:44:43Z</time>
      </trkpt>
      <trkpt lat="43.78634" lon="4.18548">
        <ele>67</ele>
        <time>2012-03-11T10:44:44Z</time>
      </trkpt>
      <trkpt lat="43.78633" lon="4.18546">
        <ele>67</ele>
        <time>2012-03-11T10:44:45Z</time>
      </trkpt>
      <trkpt lat="43.78633" lon="4.18544">
        <ele>67</ele>
        <time>2012-03-11T10:44:46Z</time>
      </trkpt>
      <trkpt lat="43.78633" lon="4.18541">
        <ele>67</ele>
        <time>2012-03-11T10:44:47Z</time>
      </trkpt>
      <trkpt lat="43.78633" lon="4.18539">
        <ele>67</ele>
        <time>2012-03-11T10:44:48Z</time>
      </trkpt>
      <trkpt lat="43.78633" lon="4.18536">
        <ele>67</ele>
        <time>2012-03-11T10:44:49Z</time>
      </trkpt>
      <trkpt lat="43.78633" lon="4.18533">
        <ele>67</ele>
        <time>2012-03-11T10:44:50Z</time>
      </trkpt>
      <trkpt lat="43.78633" lon="4.1853">
        <ele>67</ele>
        <time>2012-03-11T10:44:51Z</time>
      </trkpt>
      <trkpt lat="43.78633" lon="4.18528">
        <ele>67</ele>
        <time>2012-03-11T10:44:52Z</time>
      </trkpt>
      <trkpt lat="43.78633" lon="4.18525">
        <ele>67</ele>
        <time>2012-03-11T10:44:53Z</time>
      </trkpt>
      <trkpt lat="43.78634" lon="4.18521">
        <ele>67</ele>
        <time>2012-03-11T10:44:54Z</time>
      </trkpt>
      <trkpt lat="43.78634" lon="4.18519">
        <ele>67</ele>
        <time>2012-03-11T10:44:55Z</time>
      </trkpt>
      <trkpt lat="43.78633" lon="4.18516">
        <ele>67</ele>
        <time>2012-03-11T10:44:56Z</time>
      </trkpt>
      <trkpt lat="43.78633" lon="4.18512">
        <ele>67</ele>
        <time>2012-03-11T10:44:57Z</time>
      </trkpt>
      <trkpt lat="43.78633" lon="4.1851">
        <ele>67</ele>
        <time>2012-03-11T10:44:58Z</time>
      </trkpt>
      <trkpt lat="43.78634" lon="4.18507">
        <ele>67</ele>
        <time>2012-03-11T10:44:59Z</time>
      </trkpt>
      <trkpt lat="43.78634" lon="4.18504">
        <ele>67</ele>
        <time>2012-03-11T10:45:00Z</time>
      </trkpt>
      <trkpt lat="43.78633" lon="4.18501">
        <ele>67</ele>
        <time>2012-03-11T10:45:01Z</time>
      </trkpt>
      <trkpt lat="43.78633" lon="4.18498">
        <ele>67</ele>
        <time>2012-03-11T10:45:02Z</time>
      </trkpt>
      <trkpt lat="43.78633" lon="4.18495">
        <ele>67</ele>
        <time>2012-03-11T10:45:03Z</time>
      </trkpt>
      <trkpt lat="43.78632" lon="4.18492">
        <ele>67</ele>
        <time>2012-03-11T10:45:04Z</time>
      </trkpt>
      <trkpt lat="43.78632" lon="4.18489">
        <ele>67</ele>
        <time>2012-03-11T10:45:05Z</time>
      </trkpt>
      <trkpt lat="43.78632" lon="4.18484">
        <ele>67</ele>
        <time>2012-03-11T10:45:06Z</time>
      </trkpt>
      <trkpt lat="43.78633" lon="4.18481">
        <ele>67</ele>
        <time>2012-03-11T10:45:07Z</time>
      </trkpt>
      <trkpt lat="43.78633" lon="4.18478">
        <ele>67</ele>
        <time>2012-03-11T10:45:08Z</time>
      </trkpt>
      <trkpt lat="43.78633" lon="4.18475">
        <ele>67</ele>
        <time>2012-03-11T10:45:09Z</time>
      </trkpt>
      <trkpt lat="43.78633" lon="4.18471">
        <ele>67</ele>
        <time>2012-03-11T10:45:10Z</time>
      </trkpt>
      <trkpt lat="43.78634" lon="4.18468">
        <ele>67</ele>
        <time>2012-03-11T10:45:11Z</time>
      </trkpt>
      <trkpt lat="43.78634" lon="4.18464">
        <ele>67</ele>
        <time>2012-03-11T10:45:12Z</time>
      </trkpt>
      <trkpt lat="43.78635" lon="4.18461">
        <ele>67</ele>
        <time>2012-03-11T10:45:13Z</time>
      </trkpt>
      <trkpt lat="43.78635" lon="4.18457">
        <ele>67</ele>
        <time>2012-03-11T10:45:14Z</time>
      </trkpt>
      <trkpt lat="43.78635" lon="4.18454">
        <ele>67</ele>
        <time>2012-03-11T10:45:15Z</time>
      </trkpt>
      <trkpt lat="43.78636" lon="4.18451">
        <ele>67</ele>
        <time>2012-03-11T10:45:16Z</time>
      </trkpt>
      <trkpt lat="43.78637" lon="4.18448">
        <ele>67</ele>
        <time>2012-03-11T10:45:17Z</time>
      </trkpt>
      <trkpt lat="43.78637" lon="4.18445">
        <ele>66</ele>
        <time>2012-03-11T10:45:18Z</time>
      </trkpt>
      <trkpt lat="43.78638" lon="4.18442">
        <ele>66</ele>
        <time>2012-03-11T10:45:19Z</time>
      </trkpt>
      <trkpt lat="43.78639" lon="4.18439">
        <ele>66</ele>
        <time>2012-03-11T10:45:20Z</time>
      </trkpt>
      <trkpt lat="43.7864" lon="4.18435">
        <ele>66</ele>
        <time>2012-03-11T10:45:21Z</time>
      </trkpt>
      <trkpt lat="43.7864" lon="4.18431">
        <ele>66</ele>
        <time>2012-03-11T10:45:22Z</time>
      </trkpt>
      <trkpt lat="43.78641" lon="4.18428">
        <ele>66</ele>
        <time>2012-03-11T10:45:23Z</time>
      </trkpt>
      <trkpt lat="43.78642" lon="4.18424">
        <ele>66</ele>
        <time>2012-03-11T10:45:24Z</time>
      </trkpt>
      <trkpt lat="43.78642" lon="4.18421">
        <ele>66</ele>
        <time>2012-03-11T10:45:25Z</time>
      </trkpt>
      <trkpt lat="43.78642" lon="4.18417">
        <ele>66</ele>
        <time>2012-03-11T10:45:26Z</time>
      </trkpt>
      <trkpt lat="43.78642" lon="4.18413">
        <ele>66</ele>
        <time>2012-03-11T10:45:27Z</time>
      </trkpt>
      <trkpt lat="43.78642" lon="4.1841">
        <ele>66</ele>
        <time>2012-03-11T10:45:28Z</time>
      </trkpt>
      <trkpt lat="43.78642" lon="4.18407">
        <ele>66</ele>
        <time>2012-03-11T10:45:29Z</time>
      </trkpt>
      <trkpt lat="43.78641" lon="4.18404">
        <ele>66</ele>
        <time>2012-03-11T10:45:30Z</time>
      </trkpt>
      <trkpt lat="43.78641" lon="4.184">
        <ele>66</ele>
        <time>2012-03-11T10:45:31Z</time>
      </trkpt>
      <trkpt lat="43.78642" lon="4.18397">
        <ele>66</ele>
        <time>2012-03-11T10:45:32Z</time>
      </trkpt>
      <trkpt lat="43.78642" lon="4.18393">
        <ele>66</ele>
        <time>2012-03-11T10:45:33Z</time>
      </trkpt>
      <trkpt lat="43.78642" lon="4.1839">
        <ele>66</ele>
        <time>2012-03-11T10:45:34Z</time>
      </trkpt>
      <trkpt lat="43.78643" lon="4.18385">
        <ele>66</ele>
        <time>2012-03-11T10:45:35Z</time>
      </trkpt>
      <trkpt lat="43.78643" lon="4.18381">
        <ele>65</ele>
        <time>2012-03-11T10:45:36Z</time>
      </trkpt>
      <trkpt lat="43.78643" lon="4.18377">
        <ele>65</ele>
        <time>2012-03-11T10:45:37Z</time>
      </trkpt>
      <trkpt lat="43.78643" lon="4.18373">
        <ele>65</ele>
        <time>2012-03-11T10:45:38Z</time>
      </trkpt>
      <trkpt lat="43.78644" lon="4.18369">
        <ele>64</ele>
        <time>2012-03-11T10:45:39Z</time>
      </trkpt>
      <trkpt lat="43.78644" lon="4.18366">
        <ele>64</ele>
        <time>2012-03-11T10:45:40Z</time>
      </trkpt>
      <trkpt lat="43.78645" lon="4.18362">
        <ele>64</ele>
        <time>2012-03-11T10:45:41Z</time>
      </trkpt>
      <trkpt lat="43.78646" lon="4.18359">
        <ele>64</ele>
        <time>2012-03-11T10:45:42Z</time>
      </trkpt>
      <trkpt lat="43.78647" lon="4.18355">
        <ele>64</ele>
        <time>2012-03-11T10:45:43Z</time>
      </trkpt>
      <trkpt lat="43.78647" lon="4.18352">
        <ele>64</ele>
        <time>2012-03-11T10:45:44Z</time>
      </trkpt>
      <trkpt lat="43.78647" lon="4.18349">
        <ele>64</ele>
        <time>2012-03-11T10:45:45Z</time>
      </trkpt>
      <trkpt lat="43.78647" lon="4.18345">
        <ele>64</ele>
        <time>2012-03-11T10:45:46Z</time>
      </trkpt>
      <trkpt lat="43.78648" lon="4.18341">
        <ele>64</ele>
        <time>2012-03-11T10:45:47Z</time>
      </trkpt>
      <trkpt lat="43.78648" lon="4.18338">
        <ele>64</ele>
        <time>2012-03-11T10:45:48Z</time>
      </trkpt>
      <trkpt lat="43.78648" lon="4.18334">
        <ele>64</ele>
        <time>2012-03-11T10:45:49Z</time>
      </trkpt>
      <trkpt lat="43.78649" lon="4.18331">
        <ele>64</ele>
        <time>2012-03-11T10:45:50Z</time>
      </trkpt>
      <trkpt lat="43.7865" lon="4.18327">
        <ele>64</ele>
        <time>2012-03-11T10:45:51Z</time>
      </trkpt>
      <trkpt lat="43.7865" lon="4.18324">
        <ele>64</ele>
        <time>2012-03-11T10:45:52Z</time>
      </trkpt>
      <trkpt lat="43.78651" lon="4.1832">
        <ele>64</ele>
        <time>2012-03-11T10:45:53Z</time>
      </trkpt>
      <trkpt lat="43.78651" lon="4.18316">
        <ele>64</ele>
        <time>2012-03-11T10:45:54Z</time>
      </trkpt>
      <trkpt lat="43.78651" lon="4.18312">
        <ele>64</ele>
        <time>2012-03-11T10:45:55Z</time>
      </trkpt>
      <trkpt lat="43.78652" lon="4.18308">
        <ele>64</ele>
        <time>2012-03-11T10:45:56Z</time>
      </trkpt>
      <trkpt lat="43.78652" lon="4.18305">
        <ele>64</ele>
        <time>2012-03-11T10:45:57Z</time>
      </trkpt>
      <trkpt lat="43.78653" lon="4.18301">
        <ele>64</ele>
        <time>2012-03-11T10:45:58Z</time>
      </trkpt>
      <trkpt lat="43.78653" lon="4.18298">
        <ele>64</ele>
        <time>2012-03-11T10:45:59Z</time>
      </trkpt>
      <trkpt lat="43.78653" lon="4.18295">
        <ele>64</ele>
        <time>2012-03-11T10:46:00Z</time>
      </trkpt>
      <trkpt lat="43.78653" lon="4.18292">
        <ele>64</ele>
        <time>2012-03-11T10:46:01Z</time>
      </trkpt>
      <trkpt lat="43.78654" lon="4.18289">
        <ele>64</ele>
        <time>2012-03-11T10:46:02Z</time>
      </trkpt>
      <trkpt lat="43.78655" lon="4.18287">
        <ele>64</ele>
        <time>2012-03-11T10:46:03Z</time>
      </trkpt>
      <trkpt lat="43.78656" lon="4.18284">
        <ele>64</ele>
        <time>2012-03-11T10:46:04Z</time>
      </trkpt>
      <trkpt lat="43.78656" lon="4.18282">
        <ele>64</ele>
        <time>2012-03-11T10:46:05Z</time>
      </trkpt>
      <trkpt lat="43.78655" lon="4.1828">
        <ele>64</ele>
        <time>2012-03-11T10:46:06Z</time>
      </trkpt>
      <trkpt lat="43.78654" lon="4.18278">
        <ele>64</ele>
        <time>2012-03-11T10:46:07Z</time>
      </trkpt>
      <trkpt lat="43.78653" lon="4.18276">
        <ele>64</ele>
        <time>2012-03-11T10:46:08Z</time>
      </trkpt>
      <trkpt lat="43.78653" lon="4.18274">
        <ele>64</ele>
        <time>2012-03-11T10:46:09Z</time>
      </trkpt>
      <trkpt lat="43.78652" lon="4.18272">
        <ele>64</ele>
        <time>2012-03-11T10:46:10Z</time>
      </trkpt>
      <trkpt lat="43.78651" lon="4.1827">
        <ele>64</ele>
        <time>2012-03-11T10:46:11Z</time>
      </trkpt>
      <trkpt lat="43.78651" lon="4.18269">
        <ele>64</ele>
        <time>2012-03-11T10:46:12Z</time>
      </trkpt>
      <trkpt lat="43.7865" lon="4.18267">
        <ele>65</ele>
        <time>2012-03-11T10:46:13Z</time>
      </trkpt>
      <trkpt lat="43.78649" lon="4.18266">
        <ele>66</ele>
        <time>2012-03-11T10:46:14Z</time>
      </trkpt>
      <trkpt lat="43.78648" lon="4.18264">
        <ele>66</ele>
        <time>2012-03-11T10:46:15Z</time>
      </trkpt>
      <trkpt lat="43.78648" lon="4.18262">
        <ele>67</ele>
        <time>2012-03-11T10:46:16Z</time>
      </trkpt>
      <trkpt lat="43.78648" lon="4.18261">
        <ele>67</ele>
        <time>2012-03-11T10:46:17Z</time>
      </trkpt>
      <trkpt lat="43.78648" lon="4.18259">
        <ele>68</ele>
        <time>2012-03-11T10:46:18Z</time>
      </trkpt>
      <trkpt lat="43.78647" lon="4.18257">
        <ele>69</ele>
        <time>2012-03-11T10:46:19Z</time>
      </trkpt>
      <trkpt lat="43.78647" lon="4.18255">
        <ele>69</ele>
        <time>2012-03-11T10:46:20Z</time>
      </trkpt>
      <trkpt lat="43.78646" lon="4.18253">
        <ele>69</ele>
        <time>2012-03-11T10:46:21Z</time>
      </trkpt>
      <trkpt lat="43.78645" lon="4.1825">
        <ele>69</ele>
        <time>2012-03-11T10:46:23Z</time>
      </trkpt>
      <trkpt lat="43.78643" lon="4.18248">
        <ele>69</ele>
        <time>2012-03-11T10:46:24Z</time>
      </trkpt>
      <trkpt lat="43.78641" lon="4.18243">
        <ele>69</ele>
        <time>2012-03-11T10:46:27Z</time>
      </trkpt>
      <trkpt lat="43.78641" lon="4.1824">
        <ele>69</ele>
        <time>2012-03-11T10:46:28Z</time>
      </trkpt>
      <trkpt lat="43.78642" lon="4.18237">
        <ele>69</ele>
        <time>2012-03-11T10:46:29Z</time>
      </trkpt>
      <trkpt lat="43.7864" lon="4.18233">
        <ele>69</ele>
        <time>2012-03-11T10:46:31Z</time>
      </trkpt>
      <trkpt lat="43.78637" lon="4.18229">
        <ele>69</ele>
        <time>2012-03-11T10:46:34Z</time>
      </trkpt>
      <trkpt lat="43.78635" lon="4.18226">
        <ele>69</ele>
        <time>2012-03-11T10:46:35Z</time>
      </trkpt>
      <trkpt lat="43.78633" lon="4.18224">
        <ele>69</ele>
        <time>2012-03-11T10:46:36Z</time>
      </trkpt>
      <trkpt lat="43.78633" lon="4.18222">
        <ele>69</ele>
        <time>2012-03-11T10:46:39Z</time>
      </trkpt>
      <trkpt lat="43.78632" lon="4.18221">
        <ele>69</ele>
        <time>2012-03-11T10:46:40Z</time>
      </trkpt>
      <trkpt lat="43.78632" lon="4.18219">
        <ele>69</ele>
        <time>2012-03-11T10:46:41Z</time>
      </trkpt>
      <trkpt lat="43.78632" lon="4.18217">
        <ele>69</ele>
        <time>2012-03-11T10:46:42Z</time>
      </trkpt>
      <trkpt lat="43.78633" lon="4.18215">
        <ele>69</ele>
        <time>2012-03-11T10:46:43Z</time>
      </trkpt>
      <trkpt lat="43.78633" lon="4.18214">
        <ele>69</ele>
        <time>2012-03-11T10:46:44Z</time>
      </trkpt>
      <trkpt lat="43.78635" lon="4.18211">
        <ele>69</ele>
        <time>2012-03-11T10:46:46Z</time>
      </trkpt>
      <trkpt lat="43.78635" lon="4.1821">
        <ele>69</ele>
        <time>2012-03-11T10:46:47Z</time>
      </trkpt>
      <trkpt lat="43.78634" lon="4.18207">
        <ele>69</ele>
        <time>2012-03-11T10:46:48Z</time>
      </trkpt>
      <trkpt lat="43.78633" lon="4.18205">
        <ele>69</ele>
        <time>2012-03-11T10:46:49Z</time>
      </trkpt>
      <trkpt lat="43.78633" lon="4.18203">
        <ele>69</ele>
        <time>2012-03-11T10:46:50Z</time>
      </trkpt>
      <trkpt lat="43.78632" lon="4.18201">
        <ele>69</ele>
        <time>2012-03-11T10:46:51Z</time>
      </trkpt>
      <trkpt lat="43.78631" lon="4.18199">
        <ele>69</ele>
        <time>2012-03-11T10:46:52Z</time>
      </trkpt>
      <trkpt lat="43.78629" lon="4.18197">
        <ele>69</ele>
        <time>2012-03-11T10:46:53Z</time>
      </trkpt>
      <trkpt lat="43.78628" lon="4.18196">
        <ele>70</ele>
        <time>2012-03-11T10:46:54Z</time>
      </trkpt>
      <trkpt lat="43.78628" lon="4.18194">
        <ele>70</ele>
        <time>2012-03-11T10:46:55Z</time>
      </trkpt>
      <trkpt lat="43.78627" lon="4.18192">
        <ele>70</ele>
        <time>2012-03-11T10:46:56Z</time>
      </trkpt>
      <trkpt lat="43.78626" lon="4.18191">
        <ele>71</ele>
        <time>2012-03-11T10:46:57Z</time>
      </trkpt>
      <trkpt lat="43.78625" lon="4.18189">
        <ele>71</ele>
        <time>2012-03-11T10:46:58Z</time>
      </trkpt>
      <trkpt lat="43.78624" lon="4.18188">
        <ele>72</ele>
        <time>2012-03-11T10:46:59Z</time>
      </trkpt>
      <trkpt lat="43.78622" lon="4.18186">
        <ele>72</ele>
        <time>2012-03-11T10:47:00Z</time>
      </trkpt>
      <trkpt lat="43.78621" lon="4.18183">
        <ele>72</ele>
        <time>2012-03-11T10:47:02Z</time>
      </trkpt>
      <trkpt lat="43.7862" lon="4.1818">
        <ele>72</ele>
        <time>2012-03-11T10:47:04Z</time>
      </trkpt>
      <trkpt lat="43.78619" lon="4.18178">
        <ele>73</ele>
        <time>2012-03-11T10:47:06Z</time>
      </trkpt>
      <trkpt lat="43.78618" lon="4.18177">
        <ele>73</ele>
        <time>2012-03-11T10:47:07Z</time>
      </trkpt>
      <trkpt lat="43.78616" lon="4.18176">
        <ele>74</ele>
        <time>2012-03-11T10:47:08Z</time>
      </trkpt>
      <trkpt lat="43.78614" lon="4.18175">
        <ele>74</ele>
        <time>2012-03-11T10:47:09Z</time>
      </trkpt>
      <trkpt lat="43.78613" lon="4.18174">
        <ele>74</ele>
        <time>2012-03-11T10:47:10Z</time>
      </trkpt>
      <trkpt lat="43.78611" lon="4.18173">
        <ele>74</ele>
        <time>2012-03-11T10:47:11Z</time>
      </trkpt>
      <trkpt lat="43.7861" lon="4.18174">
        <ele>74</ele>
        <time>2012-03-11T10:47:12Z</time>
      </trkpt>
      <trkpt lat="43.78608" lon="4.18175">
        <ele>74</ele>
        <time>2012-03-11T10:47:13Z</time>
      </trkpt>
      <trkpt lat="43.78607" lon="4.18176">
        <ele>75</ele>
        <time>2012-03-11T10:47:14Z</time>
      </trkpt>
      <trkpt lat="43.78606" lon="4.18177">
        <ele>75</ele>
        <time>2012-03-11T10:47:15Z</time>
      </trkpt>
      <trkpt lat="43.78605" lon="4.18179">
        <ele>75</ele>
        <time>2012-03-11T10:47:16Z</time>
      </trkpt>
      <trkpt lat="43.78604" lon="4.18181">
        <ele>75</ele>
        <time>2012-03-11T10:47:17Z</time>
      </trkpt>
      <trkpt lat="43.78603" lon="4.18184">
        <ele>75</ele>
        <time>2012-03-11T10:47:18Z</time>
      </trkpt>
      <trkpt lat="43.78603" lon="4.18186">
        <ele>75</ele>
        <time>2012-03-11T10:47:19Z</time>
      </trkpt>
      <trkpt lat="43.78602" lon="4.18188">
        <ele>75</ele>
        <time>2012-03-11T10:47:20Z</time>
      </trkpt>
      <trkpt lat="43.78602" lon="4.18191">
        <ele>75</ele>
        <time>2012-03-11T10:47:21Z</time>
      </trkpt>
      <trkpt lat="43.78601" lon="4.18193">
        <ele>75</ele>
        <time>2012-03-11T10:47:22Z</time>
      </trkpt>
      <trkpt lat="43.78601" lon="4.18195">
        <ele>75</ele>
        <time>2012-03-11T10:47:23Z</time>
      </trkpt>
      <trkpt lat="43.78601" lon="4.18197">
        <ele>75</ele>
        <time>2012-03-11T10:47:24Z</time>
      </trkpt>
      <trkpt lat="43.786" lon="4.182">
        <ele>75</ele>
        <time>2012-03-11T10:47:25Z</time>
      </trkpt>
      <trkpt lat="43.786" lon="4.18202">
        <ele>75</ele>
        <time>2012-03-11T10:47:26Z</time>
      </trkpt>
      <trkpt lat="43.786" lon="4.18204">
        <ele>75</ele>
        <time>2012-03-11T10:47:27Z</time>
      </trkpt>
      <trkpt lat="43.786" lon="4.18208">
        <ele>75</ele>
        <time>2012-03-11T10:47:28Z</time>
      </trkpt>
      <trkpt lat="43.78599" lon="4.18211">
        <ele>75</ele>
        <time>2012-03-11T10:47:29Z</time>
      </trkpt>
      <trkpt lat="43.78599" lon="4.18213">
        <ele>75</ele>
        <time>2012-03-11T10:47:30Z</time>
      </trkpt>
      <trkpt lat="43.78598" lon="4.18216">
        <ele>75</ele>
        <time>2012-03-11T10:47:31Z</time>
      </trkpt>
      <trkpt lat="43.78598" lon="4.1822">
        <ele>75</ele>
        <time>2012-03-11T10:47:32Z</time>
      </trkpt>
      <trkpt lat="43.78598" lon="4.18223">
        <ele>75</ele>
        <time>2012-03-11T10:47:33Z</time>
      </trkpt>
      <trkpt lat="43.78597" lon="4.18226">
        <ele>75</ele>
        <time>2012-03-11T10:47:34Z</time>
      </trkpt>
      <trkpt lat="43.78596" lon="4.18229">
        <ele>75</ele>
        <time>2012-03-11T10:47:35Z</time>
      </trkpt>
      <trkpt lat="43.78597" lon="4.18232">
        <ele>75</ele>
        <time>2012-03-11T10:47:36Z</time>
      </trkpt>
      <trkpt lat="43.78596" lon="4.18235">
        <ele>75</ele>
        <time>2012-03-11T10:47:37Z</time>
      </trkpt>
      <trkpt lat="43.78595" lon="4.18238">
        <ele>75</ele>
        <time>2012-03-11T10:47:38Z</time>
      </trkpt>
      <trkpt lat="43.78594" lon="4.18241">
        <ele>75</ele>
        <time>2012-03-11T10:47:39Z</time>
      </trkpt>
      <trkpt lat="43.78593" lon="4.18243">
        <ele>75</ele>
        <time>2012-03-11T10:47:40Z</time>
      </trkpt>
      <trkpt lat="43.78592" lon="4.18245">
        <ele>75</ele>
        <time>2012-03-11T10:47:41Z</time>
      </trkpt>
      <trkpt lat="43.78591" lon="4.18246">
        <ele>75</ele>
        <time>2012-03-11T10:47:42Z</time>
      </trkpt>
      <trkpt lat="43.7859" lon="4.18248">
        <ele>76</ele>
        <time>2012-03-11T10:47:43Z</time>
      </trkpt>
      <trkpt lat="43.78588" lon="4.18249">
        <ele>77</ele>
        <time>2012-03-11T10:47:44Z</time>
      </trkpt>
      <trkpt lat="43.78587" lon="4.18251">
        <ele>77</ele>
        <time>2012-03-11T10:47:45Z</time>
      </trkpt>
      <trkpt lat="43.78587" lon="4.18253">
        <ele>78</ele>
        <time>2012-03-11T10:47:46Z</time>
      </trkpt>
      <trkpt lat="43.78586" lon="4.18255">
        <ele>79</ele>
        <time>2012-03-11T10:47:47Z</time>
      </trkpt>
      <trkpt lat="43.78585" lon="4.18256">
        <ele>80</ele>
        <time>2012-03-11T10:47:48Z</time>
      </trkpt>
      <trkpt lat="43.78584" lon="4.18257">
        <ele>81</ele>
        <time>2012-03-11T10:47:49Z</time>
      </trkpt>
      <trkpt lat="43.78583" lon="4.18259">
        <ele>82</ele>
        <time>2012-03-11T10:47:50Z</time>
      </trkpt>
      <trkpt lat="43.78582" lon="4.18261">
        <ele>83</ele>
        <time>2012-03-11T10:47:51Z</time>
      </trkpt>
      <trkpt lat="43.78582" lon="4.18263">
        <ele>83</ele>
        <time>2012-03-11T10:47:52Z</time>
      </trkpt>
      <trkpt lat="43.78581" lon="4.18265">
        <ele>83</ele>
        <time>2012-03-11T10:47:53Z</time>
      </trkpt>
      <trkpt lat="43.78579" lon="4.18268">
        <ele>84</ele>
        <time>2012-03-11T10:47:55Z</time>
      </trkpt>
      <trkpt lat="43.78578" lon="4.1827">
        <ele>84</ele>
        <time>2012-03-11T10:47:56Z</time>
      </trkpt>
      <trkpt lat="43.78576" lon="4.18273">
        <ele>84</ele>
        <time>2012-03-11T10:47:58Z</time>
      </trkpt>
      <trkpt lat="43.78576" lon="4.18275">
        <ele>84</ele>
        <time>2012-03-11T10:47:59Z</time>
      </trkpt>
      <trkpt lat="43.78574" lon="4.18277">
        <ele>84</ele>
        <time>2012-03-11T10:48:00Z</time>
      </trkpt>
      <trkpt lat="43.78573" lon="4.18279">
        <ele>84</ele>
        <time>2012-03-11T10:48:01Z</time>
      </trkpt>
      <trkpt lat="43.78572" lon="4.18281">
        <ele>84</ele>
        <time>2012-03-11T10:48:02Z</time>
      </trkpt>
      <trkpt lat="43.78572" lon="4.18284">
        <ele>84</ele>
        <time>2012-03-11T10:48:03Z</time>
      </trkpt>
      <trkpt lat="43.78571" lon="4.18286">
        <ele>84</ele>
        <time>2012-03-11T10:48:04Z</time>
      </trkpt>
      <trkpt lat="43.7857" lon="4.18288">
        <ele>84</ele>
        <time>2012-03-11T10:48:05Z</time>
      </trkpt>
      <trkpt lat="43.78569" lon="4.18289">
        <ele>84</ele>
        <time>2012-03-11T10:48:06Z</time>
      </trkpt>
      <trkpt lat="43.78569" lon="4.18291">
        <ele>84</ele>
        <time>2012-03-11T10:48:07Z</time>
      </trkpt>
      <trkpt lat="43.78568" lon="4.18293">
        <ele>84</ele>
        <time>2012-03-11T10:48:08Z</time>
      </trkpt>
      <trkpt lat="43.78567" lon="4.18294">
        <ele>85</ele>
        <time>2012-03-11T10:48:09Z</time>
      </trkpt>
      <trkpt lat="43.78566" lon="4.18296">
        <ele>85</ele>
        <time>2012-03-11T10:48:10Z</time>
      </trkpt>
      <trkpt lat="43.78565" lon="4.18297">
        <ele>86</ele>
        <time>2012-03-11T10:48:11Z</time>
      </trkpt>
      <trkpt lat="43.78564" lon="4.18299">
        <ele>87</ele>
        <time>2012-03-11T10:48:12Z</time>
      </trkpt>
      <trkpt lat="43.78563" lon="4.18301">
        <ele>87</ele>
        <time>2012-03-11T10:48:13Z</time>
      </trkpt>
      <trkpt lat="43.78562" lon="4.18303">
        <ele>87</ele>
        <time>2012-03-11T10:48:14Z</time>
      </trkpt>
      <trkpt lat="43.78562" lon="4.18305">
        <ele>88</ele>
        <time>2012-03-11T10:48:15Z</time>
      </trkpt>
      <trkpt lat="43.78561" lon="4.18307">
        <ele>88</ele>
        <time>2012-03-11T10:48:16Z</time>
      </trkpt>
      <trkpt lat="43.78561" lon="4.18309">
        <ele>89</ele>
        <time>2012-03-11T10:48:17Z</time>
      </trkpt>
      <trkpt lat="43.78561" lon="4.1831">
        <ele>89</ele>
        <time>2012-03-11T10:48:18Z</time>
      </trkpt>
      <trkpt lat="43.78559" lon="4.18311">
        <ele>90</ele>
        <time>2012-03-11T10:48:19Z</time>
      </trkpt>
      <trkpt lat="43.78558" lon="4.18315">
        <ele>91</ele>
        <time>2012-03-11T10:48:21Z</time>
      </trkpt>
      <trkpt lat="43.78557" lon="4.18318">
        <ele>92</ele>
        <time>2012-03-11T10:48:22Z</time>
      </trkpt>
      <trkpt lat="43.78556" lon="4.1832">
        <ele>92</ele>
        <time>2012-03-11T10:48:23Z</time>
      </trkpt>
      <trkpt lat="43.78555" lon="4.1832">
        <ele>93</ele>
        <time>2012-03-11T10:48:27Z</time>
      </trkpt>
      <trkpt lat="43.78555" lon="4.18322">
        <ele>93</ele>
        <time>2012-03-11T10:48:33Z</time>
      </trkpt>
      <trkpt lat="43.78555" lon="4.18323">
        <ele>93</ele>
        <time>2012-03-11T10:48:40Z</time>
      </trkpt>
      <trkpt lat="43.78554" lon="4.18326">
        <ele>93</ele>
        <time>2012-03-11T10:48:43Z</time>
      </trkpt>
      <trkpt lat="43.78554" lon="4.18327">
        <ele>93</ele>
        <time>2012-03-11T10:48:44Z</time>
      </trkpt>
      <trkpt lat="43.78553" lon="4.18329">
        <ele>93</ele>
        <time>2012-03-11T10:48:45Z</time>
      </trkpt>
      <trkpt lat="43.78552" lon="4.18331">
        <ele>93</ele>
        <time>2012-03-11T10:48:46Z</time>
      </trkpt>
      <trkpt lat="43.78551" lon="4.18333">
        <ele>93</ele>
        <time>2012-03-11T10:48:47Z</time>
      </trkpt>
      <trkpt lat="43.7855" lon="4.18335">
        <ele>93</ele>
        <time>2012-03-11T10:48:48Z</time>
      </trkpt>
      <trkpt lat="43.78549" lon="4.18337">
        <ele>93</ele>
        <time>2012-03-11T10:48:49Z</time>
      </trkpt>
      <trkpt lat="43.78548" lon="4.18338">
        <ele>93</ele>
        <time>2012-03-11T10:48:50Z</time>
      </trkpt>
      <trkpt lat="43.78546" lon="4.18341">
        <ele>93</ele>
        <time>2012-03-11T10:48:52Z</time>
      </trkpt>
      <trkpt lat="43.78545" lon="4.18342">
        <ele>93</ele>
        <time>2012-03-11T10:48:53Z</time>
      </trkpt>
      <trkpt lat="43.78543" lon="4.18343">
        <ele>93</ele>
        <time>2012-03-11T10:48:54Z</time>
      </trkpt>
      <trkpt lat="43.78542" lon="4.18344">
        <ele>93</ele>
        <time>2012-03-11T10:48:55Z</time>
      </trkpt>
      <trkpt lat="43.7854" lon="4.18344">
        <ele>93</ele>
        <time>2012-03-11T10:48:56Z</time>
      </trkpt>
      <trkpt lat="43.78538" lon="4.18344">
        <ele>93</ele>
        <time>2012-03-11T10:48:57Z</time>
      </trkpt>
      <trkpt lat="43.78537" lon="4.18342">
        <ele>93</ele>
        <time>2012-03-11T10:48:59Z</time>
      </trkpt>
      <trkpt lat="43.78537" lon="4.1834">
        <ele>93</ele>
        <time>2012-03-11T10:49:00Z</time>
      </trkpt>
      <trkpt lat="43.78537" lon="4.18337">
        <ele>93</ele>
        <time>2012-03-11T10:49:02Z</time>
      </trkpt>
      <trkpt lat="43.78536" lon="4.18336">
        <ele>93</ele>
        <time>2012-03-11T10:49:03Z</time>
      </trkpt>
      <trkpt lat="43.78536" lon="4.18334">
        <ele>93</ele>
        <time>2012-03-11T10:49:04Z</time>
      </trkpt>
      <trkpt lat="43.78535" lon="4.18332">
        <ele>93</ele>
        <time>2012-03-11T10:49:05Z</time>
      </trkpt>
      <trkpt lat="43.78535" lon="4.1833">
        <ele>93</ele>
        <time>2012-03-11T10:49:06Z</time>
      </trkpt>
      <trkpt lat="43.78536" lon="4.18328">
        <ele>93</ele>
        <time>2012-03-11T10:49:07Z</time>
      </trkpt>
      <trkpt lat="43.78537" lon="4.18326">
        <ele>93</ele>
        <time>2012-03-11T10:49:08Z</time>
      </trkpt>
      <trkpt lat="43.78537" lon="4.18324">
        <ele>93</ele>
        <time>2012-03-11T10:49:09Z</time>
      </trkpt>
      <trkpt lat="43.78537" lon="4.18321">
        <ele>93</ele>
        <time>2012-03-11T10:49:10Z</time>
      </trkpt>
      <trkpt lat="43.78537" lon="4.18318">
        <ele>93</ele>
        <time>2012-03-11T10:49:11Z</time>
      </trkpt>
      <trkpt lat="43.78537" lon="4.18316">
        <ele>93</ele>
        <time>2012-03-11T10:49:12Z</time>
      </trkpt>
      <trkpt lat="43.78537" lon="4.18313">
        <ele>93</ele>
        <time>2012-03-11T10:49:13Z</time>
      </trkpt>
      <trkpt lat="43.78537" lon="4.1831">
        <ele>93</ele>
        <time>2012-03-11T10:49:14Z</time>
      </trkpt>
      <trkpt lat="43.78537" lon="4.18308">
        <ele>93</ele>
        <time>2012-03-11T10:49:15Z</time>
      </trkpt>
      <trkpt lat="43.78537" lon="4.18305">
        <ele>93</ele>
        <time>2012-03-11T10:49:16Z</time>
      </trkpt>
      <trkpt lat="43.78537" lon="4.18303">
        <ele>93</ele>
        <time>2012-03-11T10:49:17Z</time>
      </trkpt>
      <trkpt lat="43.78537" lon="4.183">
        <ele>93</ele>
        <time>2012-03-11T10:49:18Z</time>
      </trkpt>
      <trkpt lat="43.78536" lon="4.18297">
        <ele>93</ele>
        <time>2012-03-11T10:49:19Z</time>
      </trkpt>
      <trkpt lat="43.78536" lon="4.18295">
        <ele>93</ele>
        <time>2012-03-11T10:49:20Z</time>
      </trkpt>
      <trkpt lat="43.78536" lon="4.18293">
        <ele>94</ele>
        <time>2012-03-11T10:49:21Z</time>
      </trkpt>
      <trkpt lat="43.78537" lon="4.18291">
        <ele>94</ele>
        <time>2012-03-11T10:49:22Z</time>
      </trkpt>
      <trkpt lat="43.78537" lon="4.18287">
        <ele>95</ele>
        <time>2012-03-11T10:49:23Z</time>
      </trkpt>
      <trkpt lat="43.78537" lon="4.18284">
        <ele>95</ele>
        <time>2012-03-11T10:49:24Z</time>
      </trkpt>
      <trkpt lat="43.78537" lon="4.18281">
        <ele>96</ele>
        <time>2012-03-11T10:49:25Z</time>
      </trkpt>
      <trkpt lat="43.78537" lon="4.18279">
        <ele>96</ele>
        <time>2012-03-11T10:49:26Z</time>
      </trkpt>
      <trkpt lat="43.78537" lon="4.18277">
        <ele>97</ele>
        <time>2012-03-11T10:49:27Z</time>
      </trkpt>
      <trkpt lat="43.78537" lon="4.18274">
        <ele>98</ele>
        <time>2012-03-11T10:49:28Z</time>
      </trkpt>
      <trkpt lat="43.78537" lon="4.18271">
        <ele>98</ele>
        <time>2012-03-11T10:49:29Z</time>
      </trkpt>
      <trkpt lat="43.78537" lon="4.18268">
        <ele>98</ele>
        <time>2012-03-11T10:49:30Z</time>
      </trkpt>
      <trkpt lat="43.78536" lon="4.18265">
        <ele>98</ele>
        <time>2012-03-11T10:49:31Z</time>
      </trkpt>
      <trkpt lat="43.78536" lon="4.18263">
        <ele>99</ele>
        <time>2012-03-11T10:49:32Z</time>
      </trkpt>
      <trkpt lat="43.78535" lon="4.1826">
        <ele>99</ele>
        <time>2012-03-11T10:49:33Z</time>
      </trkpt>
      <trkpt lat="43.78535" lon="4.18257">
        <ele>99</ele>
        <time>2012-03-11T10:49:34Z</time>
      </trkpt>
      <trkpt lat="43.78534" lon="4.18255">
        <ele>99</ele>
        <time>2012-03-11T10:49:35Z</time>
      </trkpt>
      <trkpt lat="43.78533" lon="4.18251">
        <ele>99</ele>
        <time>2012-03-11T10:49:36Z</time>
      </trkpt>
      <trkpt lat="43.78533" lon="4.18248">
        <ele>99</ele>
        <time>2012-03-11T10:49:37Z</time>
      </trkpt>
      <trkpt lat="43.78532" lon="4.18245">
        <ele>99</ele>
        <time>2012-03-11T10:49:38Z</time>
      </trkpt>
      <trkpt lat="43.78532" lon="4.18242">
        <ele>99</ele>
        <time>2012-03-11T10:49:39Z</time>
      </trkpt>
      <trkpt lat="43.78532" lon="4.18239">
        <ele>99</ele>
        <time>2012-03-11T10:49:40Z</time>
      </trkpt>
      <trkpt lat="43.78532" lon="4.18236">
        <ele>99</ele>
        <time>2012-03-11T10:49:41Z</time>
      </trkpt>
      <trkpt lat="43.78531" lon="4.18233">
        <ele>99</ele>
        <time>2012-03-11T10:49:42Z</time>
      </trkpt>
      <trkpt lat="43.78531" lon="4.1823">
        <ele>99</ele>
        <time>2012-03-11T10:49:43Z</time>
      </trkpt>
      <trkpt lat="43.7853" lon="4.18227">
        <ele>99</ele>
        <time>2012-03-11T10:49:44Z</time>
      </trkpt>
      <trkpt lat="43.78529" lon="4.18224">
        <ele>99</ele>
        <time>2012-03-11T10:49:45Z</time>
      </trkpt>
      <trkpt lat="43.78529" lon="4.18222">
        <ele>99</ele>
        <time>2012-03-11T10:49:46Z</time>
      </trkpt>
      <trkpt lat="43.78529" lon="4.18219">
        <ele>99</ele>
        <time>2012-03-11T10:49:47Z</time>
      </trkpt>
      <trkpt lat="43.78528" lon="4.18216">
        <ele>99</ele>
        <time>2012-03-11T10:49:48Z</time>
      </trkpt>
      <trkpt lat="43.78526" lon="4.18213">
        <ele>100</ele>
        <time>2012-03-11T10:49:49Z</time>
      </trkpt>
      <trkpt lat="43.78524" lon="4.18209">
        <ele>100</ele>
        <time>2012-03-11T10:49:50Z</time>
      </trkpt>
      <trkpt lat="43.78523" lon="4.18206">
        <ele>100</ele>
        <time>2012-03-11T10:49:51Z</time>
      </trkpt>
      <trkpt lat="43.78522" lon="4.18203">
        <ele>100</ele>
        <time>2012-03-11T10:49:52Z</time>
      </trkpt>
      <trkpt lat="43.78521" lon="4.18201">
        <ele>100</ele>
        <time>2012-03-11T10:49:53Z</time>
      </trkpt>
      <trkpt lat="43.7852" lon="4.18198">
        <ele>100</ele>
        <time>2012-03-11T10:49:54Z</time>
      </trkpt>
      <trkpt lat="43.78519" lon="4.18195">
        <ele>100</ele>
        <time>2012-03-11T10:49:55Z</time>
      </trkpt>
      <trkpt lat="43.78518" lon="4.18192">
        <ele>100</ele>
        <time>2012-03-11T10:49:56Z</time>
      </trkpt>
      <trkpt lat="43.78517" lon="4.18191">
        <ele>100</ele>
        <time>2012-03-11T10:49:57Z</time>
      </trkpt>
      <trkpt lat="43.78516" lon="4.18188">
        <ele>100</ele>
        <time>2012-03-11T10:49:58Z</time>
      </trkpt>
      <trkpt lat="43.78514" lon="4.18186">
        <ele>100</ele>
        <time>2012-03-11T10:49:59Z</time>
      </trkpt>
      <trkpt lat="43.78513" lon="4.18184">
        <ele>100</ele>
        <time>2012-03-11T10:50:00Z</time>
      </trkpt>
      <trkpt lat="43.78511" lon="4.18182">
        <ele>100</ele>
        <time>2012-03-11T10:50:01Z</time>
      </trkpt>
      <trkpt lat="43.7851" lon="4.1818">
        <ele>100</ele>
        <time>2012-03-11T10:50:02Z</time>
      </trkpt>
      <trkpt lat="43.78509" lon="4.18178">
        <ele>100</ele>
        <time>2012-03-11T10:50:03Z</time>
      </trkpt>
      <trkpt lat="43.78508" lon="4.18175">
        <ele>100</ele>
        <time>2012-03-11T10:50:04Z</time>
      </trkpt>
      <trkpt lat="43.78507" lon="4.18173">
        <ele>100</ele>
        <time>2012-03-11T10:50:05Z</time>
      </trkpt>
      <trkpt lat="43.78506" lon="4.18171">
        <ele>100</ele>
        <time>2012-03-11T10:50:06Z</time>
      </trkpt>
      <trkpt lat="43.78505" lon="4.18169">
        <ele>101</ele>
        <time>2012-03-11T10:50:07Z</time>
      </trkpt>
      <trkpt lat="43.78503" lon="4.18167">
        <ele>101</ele>
        <time>2012-03-11T10:50:08Z</time>
      </trkpt>
      <trkpt lat="43.78502" lon="4.18165">
        <ele>101</ele>
        <time>2012-03-11T10:50:09Z</time>
      </trkpt>
      <trkpt lat="43.78501" lon="4.18164">
        <ele>102</ele>
        <time>2012-03-11T10:50:10Z</time>
      </trkpt>
      <trkpt lat="43.785" lon="4.18162">
        <ele>102</ele>
        <time>2012-03-11T10:50:11Z</time>
      </trkpt>
      <trkpt lat="43.78499" lon="4.18161">
        <ele>102</ele>
        <time>2012-03-11T10:50:12Z</time>
      </trkpt>
      <trkpt lat="43.78498" lon="4.18159">
        <ele>103</ele>
        <time>2012-03-11T10:50:13Z</time>
      </trkpt>
      <trkpt lat="43.78496" lon="4.18157">
        <ele>103</ele>
        <time>2012-03-11T10:50:14Z</time>
      </trkpt>
      <trkpt lat="43.78495" lon="4.18156">
        <ele>103</ele>
        <time>2012-03-11T10:50:15Z</time>
      </trkpt>
      <trkpt lat="43.78494" lon="4.18155">
        <ele>104</ele>
        <time>2012-03-11T10:50:16Z</time>
      </trkpt>
      <trkpt lat="43.78493" lon="4.18153">
        <ele>104</ele>
        <time>2012-03-11T10:50:17Z</time>
      </trkpt>
      <trkpt lat="43.7849" lon="4.18151">
        <ele>104</ele>
        <time>2012-03-11T10:50:18Z</time>
      </trkpt>
      <trkpt lat="43.78489" lon="4.18149">
        <ele>104</ele>
        <time>2012-03-11T10:50:19Z</time>
      </trkpt>
      <trkpt lat="43.78487" lon="4.18148">
        <ele>104</ele>
        <time>2012-03-11T10:50:21Z</time>
      </trkpt>
      <trkpt lat="43.78485" lon="4.18147">
        <ele>104</ele>
        <time>2012-03-11T10:50:22Z</time>
      </trkpt>
      <trkpt lat="43.78484" lon="4.18145">
        <ele>104</ele>
        <time>2012-03-11T10:50:24Z</time>
      </trkpt>
      <trkpt lat="43.78482" lon="4.18143">
        <ele>104</ele>
        <time>2012-03-11T10:50:26Z</time>
      </trkpt>
      <trkpt lat="43.7848" lon="4.18142">
        <ele>104</ele>
        <time>2012-03-11T10:50:28Z</time>
      </trkpt>
      <trkpt lat="43.78479" lon="4.1814">
        <ele>104</ele>
        <time>2012-03-11T10:50:30Z</time>
      </trkpt>
      <trkpt lat="43.78477" lon="4.18138">
        <ele>104</ele>
        <time>2012-03-11T10:50:31Z</time>
      </trkpt>
      <trkpt lat="43.78476" lon="4.18137">
        <ele>104</ele>
        <time>2012-03-11T10:50:32Z</time>
      </trkpt>
      <trkpt lat="43.78474" lon="4.18136">
        <ele>104</ele>
        <time>2012-03-11T10:50:33Z</time>
      </trkpt>
      <trkpt lat="43.78473" lon="4.18134">
        <ele>104</ele>
        <time>2012-03-11T10:50:35Z</time>
      </trkpt>
      <trkpt lat="43.78472" lon="4.18133">
        <ele>105</ele>
        <time>2012-03-11T10:50:36Z</time>
      </trkpt>
      <trkpt lat="43.78471" lon="4.18131">
        <ele>105</ele>
        <time>2012-03-11T10:50:37Z</time>
      </trkpt>
      <trkpt lat="43.7847" lon="4.1813">
        <ele>106</ele>
        <time>2012-03-11T10:50:38Z</time>
      </trkpt>
      <trkpt lat="43.7847" lon="4.18128">
        <ele>107</ele>
        <time>2012-03-11T10:50:39Z</time>
      </trkpt>
      <trkpt lat="43.78468" lon="4.18125">
        <ele>108</ele>
        <time>2012-03-11T10:50:41Z</time>
      </trkpt>
      <trkpt lat="43.78468" lon="4.18124">
        <ele>108</ele>
        <time>2012-03-11T10:50:42Z</time>
      </trkpt>
      <trkpt lat="43.78467" lon="4.18122">
        <ele>108</ele>
        <time>2012-03-11T10:50:43Z</time>
      </trkpt>
      <trkpt lat="43.78467" lon="4.18121">
        <ele>109</ele>
        <time>2012-03-11T10:50:44Z</time>
      </trkpt>
      <trkpt lat="43.78467" lon="4.18119">
        <ele>109</ele>
        <time>2012-03-11T10:50:45Z</time>
      </trkpt>
      <trkpt lat="43.78466" lon="4.18118">
        <ele>109</ele>
        <time>2012-03-11T10:50:46Z</time>
      </trkpt>
      <trkpt lat="43.78466" lon="4.18116">
        <ele>109</ele>
        <time>2012-03-11T10:50:47Z</time>
      </trkpt>
      <trkpt lat="43.78466" lon="4.18114">
        <ele>110</ele>
        <time>2012-03-11T10:50:48Z</time>
      </trkpt>
      <trkpt lat="43.78465" lon="4.18113">
        <ele>110</ele>
        <time>2012-03-11T10:50:49Z</time>
      </trkpt>
      <trkpt lat="43.78466" lon="4.18111">
        <ele>110</ele>
        <time>2012-03-11T10:50:50Z</time>
      </trkpt>
      <trkpt lat="43.78466" lon="4.1811">
        <ele>110</ele>
        <time>2012-03-11T10:50:51Z</time>
      </trkpt>
      <trkpt lat="43.78466" lon="4.18107">
        <ele>111</ele>
        <time>2012-03-11T10:50:53Z</time>
      </trkpt>
      <trkpt lat="43.78466" lon="4.18106">
        <ele>111</ele>
        <time>2012-03-11T10:50:54Z</time>
      </trkpt>
      <trkpt lat="43.78466" lon="4.18103">
        <ele>112</ele>
        <time>2012-03-11T10:50:56Z</time>
      </trkpt>
      <trkpt lat="43.78466" lon="4.18101">
        <ele>112</ele>
        <time>2012-03-11T10:50:57Z</time>
      </trkpt>
      <trkpt lat="43.78465" lon="4.18099">
        <ele>112</ele>
        <time>2012-03-11T10:50:58Z</time>
      </trkpt>
      <trkpt lat="43.78465" lon="4.18098">
        <ele>113</ele>
        <time>2012-03-11T10:50:59Z</time>
      </trkpt>
      <trkpt lat="43.78464" lon="4.18096">
        <ele>113</ele>
        <time>2012-03-11T10:51:00Z</time>
      </trkpt>
      <trkpt lat="43.78464" lon="4.18094">
        <ele>113</ele>
        <time>2012-03-11T10:51:01Z</time>
      </trkpt>
      <trkpt lat="43.78463" lon="4.18093">
        <ele>114</ele>
        <time>2012-03-11T10:51:02Z</time>
      </trkpt>
      <trkpt lat="43.78463" lon="4.18091">
        <ele>114</ele>
        <time>2012-03-11T10:51:03Z</time>
      </trkpt>
      <trkpt lat="43.78462" lon="4.18089">
        <ele>114</ele>
        <time>2012-03-11T10:51:04Z</time>
      </trkpt>
      <trkpt lat="43.78462" lon="4.18086">
        <ele>115</ele>
        <time>2012-03-11T10:51:06Z</time>
      </trkpt>
      <trkpt lat="43.78462" lon="4.18084">
        <ele>115</ele>
        <time>2012-03-11T10:51:07Z</time>
      </trkpt>
      <trkpt lat="43.78461" lon="4.18082">
        <ele>115</ele>
        <time>2012-03-11T10:51:08Z</time>
      </trkpt>
      <trkpt lat="43.78461" lon="4.1808">
        <ele>116</ele>
        <time>2012-03-11T10:51:09Z</time>
      </trkpt>
      <trkpt lat="43.7846" lon="4.18078">
        <ele>116</ele>
        <time>2012-03-11T10:51:10Z</time>
      </trkpt>
      <trkpt lat="43.7846" lon="4.18076">
        <ele>117</ele>
        <time>2012-03-11T10:51:11Z</time>
      </trkpt>
      <trkpt lat="43.78461" lon="4.18074">
        <ele>117</ele>
        <time>2012-03-11T10:51:12Z</time>
      </trkpt>
      <trkpt lat="43.78461" lon="4.18073">
        <ele>117</ele>
        <time>2012-03-11T10:51:13Z</time>
      </trkpt>
      <trkpt lat="43.78461" lon="4.18071">
        <ele>118</ele>
        <time>2012-03-11T10:51:14Z</time>
      </trkpt>
      <trkpt lat="43.78461" lon="4.18069">
        <ele>118</ele>
        <time>2012-03-11T10:51:15Z</time>
      </trkpt>
      <trkpt lat="43.7846" lon="4.18068">
        <ele>118</ele>
        <time>2012-03-11T10:51:16Z</time>
      </trkpt>
      <trkpt lat="43.7846" lon="4.18066">
        <ele>118</ele>
        <time>2012-03-11T10:51:17Z</time>
      </trkpt>
      <trkpt lat="43.78459" lon="4.18065">
        <ele>118</ele>
        <time>2012-03-11T10:51:18Z</time>
      </trkpt>
      <trkpt lat="43.78458" lon="4.18063">
        <ele>118</ele>
        <time>2012-03-11T10:51:19Z</time>
      </trkpt>
      <trkpt lat="43.78457" lon="4.18061">
        <ele>118</ele>
        <time>2012-03-11T10:51:21Z</time>
      </trkpt>
      <trkpt lat="43.78455" lon="4.18059">
        <ele>118</ele>
        <time>2012-03-11T10:51:23Z</time>
      </trkpt>
      <trkpt lat="43.78454" lon="4.18058">
        <ele>118</ele>
        <time>2012-03-11T10:51:24Z</time>
      </trkpt>
      <trkpt lat="43.78453" lon="4.18056">
        <ele>118</ele>
        <time>2012-03-11T10:51:25Z</time>
      </trkpt>
      <trkpt lat="43.78452" lon="4.18054">
        <ele>119</ele>
        <time>2012-03-11T10:51:27Z</time>
      </trkpt>
      <trkpt lat="43.7845" lon="4.18051">
        <ele>119</ele>
        <time>2012-03-11T10:51:29Z</time>
      </trkpt>
      <trkpt lat="43.78448" lon="4.18049">
        <ele>120</ele>
        <time>2012-03-11T10:51:31Z</time>
      </trkpt>
      <trkpt lat="43.78447" lon="4.18047">
        <ele>120</ele>
        <time>2012-03-11T10:51:33Z</time>
      </trkpt>
      <trkpt lat="43.78445" lon="4.18046">
        <ele>120</ele>
        <time>2012-03-11T10:51:34Z</time>
      </trkpt>
      <trkpt lat="43.78444" lon="4.18044">
        <ele>120</ele>
        <time>2012-03-11T10:51:36Z</time>
      </trkpt>
      <trkpt lat="43.78443" lon="4.18043">
        <ele>121</ele>
        <time>2012-03-11T10:51:37Z</time>
      </trkpt>
      <trkpt lat="43.78442" lon="4.18042">
        <ele>121</ele>
        <time>2012-03-11T10:51:39Z</time>
      </trkpt>
      <trkpt lat="43.7844" lon="4.18041">
        <ele>122</ele>
        <time>2012-03-11T10:51:41Z</time>
      </trkpt>
      <trkpt lat="43.78438" lon="4.18039">
        <ele>123</ele>
        <time>2012-03-11T10:51:43Z</time>
      </trkpt>
      <trkpt lat="43.78437" lon="4.18038">
        <ele>124</ele>
        <time>2012-03-11T10:51:45Z</time>
      </trkpt>
      <trkpt lat="43.78435" lon="4.18036">
        <ele>124</ele>
        <time>2012-03-11T10:51:47Z</time>
      </trkpt>
      <trkpt lat="43.78432" lon="4.18035">
        <ele>124</ele>
        <time>2012-03-11T10:51:48Z</time>
      </trkpt>
      <trkpt lat="43.78431" lon="4.18035">
        <ele>124</ele>
        <time>2012-03-11T10:51:49Z</time>
      </trkpt>
      <trkpt lat="43.7843" lon="4.18033">
        <ele>124</ele>
        <time>2012-03-11T10:51:50Z</time>
      </trkpt>
      <trkpt lat="43.78429" lon="4.18033">
        <ele>124</ele>
        <time>2012-03-11T10:51:51Z</time>
      </trkpt>
      <trkpt lat="43.78427" lon="4.18032">
        <ele>124</ele>
        <time>2012-03-11T10:51:53Z</time>
      </trkpt>
      <trkpt lat="43.78425" lon="4.18032">
        <ele>124</ele>
        <time>2012-03-11T10:51:55Z</time>
      </trkpt>
      <trkpt lat="43.78423" lon="4.18032">
        <ele>125</ele>
        <time>2012-03-11T10:51:57Z</time>
      </trkpt>
      <trkpt lat="43.78422" lon="4.18032">
        <ele>126</ele>
        <time>2012-03-11T10:51:58Z</time>
      </trkpt>
      <trkpt lat="43.7842" lon="4.18032">
        <ele>126</ele>
        <time>2012-03-11T10:52:00Z</time>
      </trkpt>
      <trkpt lat="43.78418" lon="4.18032">
        <ele>126</ele>
        <time>2012-03-11T10:52:01Z</time>
      </trkpt>
      <trkpt lat="43.78416" lon="4.18032">
        <ele>127</ele>
        <time>2012-03-11T10:52:03Z</time>
      </trkpt>
      <trkpt lat="43.78414" lon="4.18031">
        <ele>127</ele>
        <time>2012-03-11T10:52:05Z</time>
      </trkpt>
      <trkpt lat="43.78412" lon="4.18031">
        <ele>128</ele>
        <time>2012-03-11T10:52:07Z</time>
      </trkpt>
      <trkpt lat="43.7841" lon="4.18031">
        <ele>129</ele>
        <time>2012-03-11T10:52:09Z</time>
      </trkpt>
      <trkpt lat="43.78408" lon="4.18031">
        <ele>129</ele>
        <time>2012-03-11T10:52:11Z</time>
      </trkpt>
      <trkpt lat="43.78406" lon="4.18031">
        <ele>130</ele>
        <time>2012-03-11T10:52:13Z</time>
      </trkpt>
      <trkpt lat="43.78405" lon="4.18031">
        <ele>130</ele>
        <time>2012-03-11T10:52:15Z</time>
      </trkpt>
      <trkpt lat="43.78402" lon="4.1803">
        <ele>131</ele>
        <time>2012-03-11T10:52:17Z</time>
      </trkpt>
      <trkpt lat="43.784" lon="4.1803">
        <ele>131</ele>
        <time>2012-03-11T10:52:19Z</time>
      </trkpt>
      <trkpt lat="43.78398" lon="4.1803">
        <ele>131</ele>
        <time>2012-03-11T10:52:21Z</time>
      </trkpt>
      <trkpt lat="43.78397" lon="4.1803">
        <ele>132</ele>
        <time>2012-03-11T10:52:22Z</time>
      </trkpt>
      <trkpt lat="43.78396" lon="4.1803">
        <ele>132</ele>
        <time>2012-03-11T10:52:23Z</time>
      </trkpt>
      <trkpt lat="43.78394" lon="4.1803">
        <ele>132</ele>
        <time>2012-03-11T10:52:25Z</time>
      </trkpt>
      <trkpt lat="43.78392" lon="4.18029">
        <ele>133</ele>
        <time>2012-03-11T10:52:27Z</time>
      </trkpt>
      <trkpt lat="43.7839" lon="4.18029">
        <ele>133</ele>
        <time>2012-03-11T10:52:29Z</time>
      </trkpt>
      <trkpt lat="43.78388" lon="4.18028">
        <ele>133</ele>
        <time>2012-03-11T10:52:30Z</time>
      </trkpt>
      <trkpt lat="43.78386" lon="4.18028">
        <ele>134</ele>
        <time>2012-03-11T10:52:32Z</time>
      </trkpt>
      <trkpt lat="43.78385" lon="4.18028">
        <ele>134</ele>
        <time>2012-03-11T10:52:36Z</time>
      </trkpt>
      <trkpt lat="43.78383" lon="4.18028">
        <ele>134</ele>
        <time>2012-03-11T10:52:37Z</time>
      </trkpt>
      <trkpt lat="43.78382" lon="4.18028">
        <ele>134</ele>
        <time>2012-03-11T10:52:38Z</time>
      </trkpt>
      <trkpt lat="43.7838" lon="4.18027">
        <ele>134</ele>
        <time>2012-03-11T10:52:39Z</time>
      </trkpt>
      <trkpt lat="43.78379" lon="4.18026">
        <ele>134</ele>
        <time>2012-03-11T10:52:40Z</time>
      </trkpt>
      <trkpt lat="43.78378" lon="4.18026">
        <ele>135</ele>
        <time>2012-03-11T10:52:41Z</time>
      </trkpt>
      <trkpt lat="43.78376" lon="4.18026">
        <ele>135</ele>
        <time>2012-03-11T10:52:42Z</time>
      </trkpt>
      <trkpt lat="43.78374" lon="4.18025">
        <ele>135</ele>
        <time>2012-03-11T10:52:43Z</time>
      </trkpt>
      <trkpt lat="43.78373" lon="4.18025">
        <ele>135</ele>
        <time>2012-03-11T10:52:44Z</time>
      </trkpt>
      <trkpt lat="43.78372" lon="4.18025">
        <ele>135</ele>
        <time>2012-03-11T10:52:45Z</time>
      </trkpt>
      <trkpt lat="43.7837" lon="4.18025">
        <ele>136</ele>
        <time>2012-03-11T10:52:46Z</time>
      </trkpt>
      <trkpt lat="43.78368" lon="4.18025">
        <ele>136</ele>
        <time>2012-03-11T10:52:47Z</time>
      </trkpt>
      <trkpt lat="43.78366" lon="4.18025">
        <ele>136</ele>
        <time>2012-03-11T10:52:48Z</time>
      </trkpt>
      <trkpt lat="43.78365" lon="4.18025">
        <ele>136</ele>
        <time>2012-03-11T10:52:49Z</time>
      </trkpt>
      <trkpt lat="43.78363" lon="4.18025">
        <ele>137</ele>
        <time>2012-03-11T10:52:50Z</time>
      </trkpt>
      <trkpt lat="43.78361" lon="4.18025">
        <ele>137</ele>
        <time>2012-03-11T10:52:51Z</time>
      </trkpt>
      <trkpt lat="43.7836" lon="4.18025">
        <ele>137</ele>
        <time>2012-03-11T10:52:52Z</time>
      </trkpt>
      <trkpt lat="43.78358" lon="4.18025">
        <ele>137</ele>
        <time>2012-03-11T10:52:53Z</time>
      </trkpt>
      <trkpt lat="43.78356" lon="4.18025">
        <ele>137</ele>
        <time>2012-03-11T10:52:54Z</time>
      </trkpt>
      <trkpt lat="43.78355" lon="4.18025">
        <ele>137</ele>
        <time>2012-03-11T10:52:55Z</time>
      </trkpt>
      <trkpt lat="43.78353" lon="4.18025">
        <ele>137</ele>
        <time>2012-03-11T10:52:56Z</time>
      </trkpt>
      <trkpt lat="43.78352" lon="4.18025">
        <ele>137</ele>
        <time>2012-03-11T10:52:57Z</time>
      </trkpt>
      <trkpt lat="43.7835" lon="4.18025">
        <ele>137</ele>
        <time>2012-03-11T10:52:58Z</time>
      </trkpt>
      <trkpt lat="43.78348" lon="4.18025">
        <ele>137</ele>
        <time>2012-03-11T10:52:59Z</time>
      </trkpt>
      <trkpt lat="43.78347" lon="4.18025">
        <ele>138</ele>
        <time>2012-03-11T10:53:00Z</time>
      </trkpt>
      <trkpt lat="43.78345" lon="4.18025">
        <ele>138</ele>
        <time>2012-03-11T10:53:01Z</time>
      </trkpt>
      <trkpt lat="43.78343" lon="4.18025">
        <ele>138</ele>
        <time>2012-03-11T10:53:02Z</time>
      </trkpt>
      <trkpt lat="43.78342" lon="4.18025">
        <ele>138</ele>
        <time>2012-03-11T10:53:03Z</time>
      </trkpt>
      <trkpt lat="43.78339" lon="4.18024">
        <ele>138</ele>
        <time>2012-03-11T10:53:04Z</time>
      </trkpt>
      <trkpt lat="43.78336" lon="4.18024">
        <ele>138</ele>
        <time>2012-03-11T10:53:05Z</time>
      </trkpt>
      <trkpt lat="43.78334" lon="4.18023">
        <ele>138</ele>
        <time>2012-03-11T10:53:06Z</time>
      </trkpt>
      <trkpt lat="43.78332" lon="4.18023">
        <ele>138</ele>
        <time>2012-03-11T10:53:07Z</time>
      </trkpt>
      <trkpt lat="43.78331" lon="4.18023">
        <ele>138</ele>
        <time>2012-03-11T10:53:08Z</time>
      </trkpt>
      <trkpt lat="43.78328" lon="4.18022">
        <ele>138</ele>
        <time>2012-03-11T10:53:09Z</time>
      </trkpt>
      <trkpt lat="43.78326" lon="4.18022">
        <ele>138</ele>
        <time>2012-03-11T10:53:10Z</time>
      </trkpt>
      <trkpt lat="43.78324" lon="4.18022">
        <ele>138</ele>
        <time>2012-03-11T10:53:11Z</time>
      </trkpt>
      <trkpt lat="43.78322" lon="4.18022">
        <ele>138</ele>
        <time>2012-03-11T10:53:12Z</time>
      </trkpt>
      <trkpt lat="43.78319" lon="4.18021">
        <ele>138</ele>
        <time>2012-03-11T10:53:13Z</time>
      </trkpt>
      <trkpt lat="43.78317" lon="4.18021">
        <ele>138</ele>
        <time>2012-03-11T10:53:14Z</time>
      </trkpt>
      <trkpt lat="43.78315" lon="4.18021">
        <ele>138</ele>
        <time>2012-03-11T10:53:15Z</time>
      </trkpt>
      <trkpt lat="43.78313" lon="4.18021">
        <ele>138</ele>
        <time>2012-03-11T10:53:16Z</time>
      </trkpt>
      <trkpt lat="43.7831" lon="4.18021">
        <ele>138</ele>
        <time>2012-03-11T10:53:17Z</time>
      </trkpt>
      <trkpt lat="43.78308" lon="4.1802">
        <ele>138</ele>
        <time>2012-03-11T10:53:18Z</time>
      </trkpt>
      <trkpt lat="43.78306" lon="4.1802">
        <ele>138</ele>
        <time>2012-03-11T10:53:19Z</time>
      </trkpt>
      <trkpt lat="43.78304" lon="4.1802">
        <ele>138</ele>
        <time>2012-03-11T10:53:20Z</time>
      </trkpt>
      <trkpt lat="43.78301" lon="4.1802">
        <ele>138</ele>
        <time>2012-03-11T10:53:21Z</time>
      </trkpt>
      <trkpt lat="43.78299" lon="4.18021">
        <ele>138</ele>
        <time>2012-03-11T10:53:22Z</time>
      </trkpt>
      <trkpt lat="43.78297" lon="4.18021">
        <ele>138</ele>
        <time>2012-03-11T10:53:23Z</time>
      </trkpt>
      <trkpt lat="43.78295" lon="4.18021">
        <ele>138</ele>
        <time>2012-03-11T10:53:24Z</time>
      </trkpt>
      <trkpt lat="43.78294" lon="4.18021">
        <ele>138</ele>
        <time>2012-03-11T10:53:25Z</time>
      </trkpt>
      <trkpt lat="43.78292" lon="4.18021">
        <ele>138</ele>
        <time>2012-03-11T10:53:26Z</time>
      </trkpt>
      <trkpt lat="43.7829" lon="4.18021">
        <ele>138</ele>
        <time>2012-03-11T10:53:27Z</time>
      </trkpt>
      <trkpt lat="43.78289" lon="4.18021">
        <ele>138</ele>
        <time>2012-03-11T10:53:28Z</time>
      </trkpt>
      <trkpt lat="43.78287" lon="4.18021">
        <ele>138</ele>
        <time>2012-03-11T10:53:29Z</time>
      </trkpt>
      <trkpt lat="43.78285" lon="4.18021">
        <ele>138</ele>
        <time>2012-03-11T10:53:30Z</time>
      </trkpt>
      <trkpt lat="43.78283" lon="4.1802">
        <ele>138</ele>
        <time>2012-03-11T10:53:31Z</time>
      </trkpt>
      <trkpt lat="43.78281" lon="4.1802">
        <ele>138</ele>
        <time>2012-03-11T10:53:32Z</time>
      </trkpt>
      <trkpt lat="43.78279" lon="4.1802">
        <ele>138</ele>
        <time>2012-03-11T10:53:33Z</time>
      </trkpt>
      <trkpt lat="43.78278" lon="4.1802">
        <ele>138</ele>
        <time>2012-03-11T10:53:34Z</time>
      </trkpt>
      <trkpt lat="43.78276" lon="4.1802">
        <ele>138</ele>
        <time>2012-03-11T10:53:35Z</time>
      </trkpt>
      <trkpt lat="43.78273" lon="4.18019">
        <ele>138</ele>
        <time>2012-03-11T10:53:36Z</time>
      </trkpt>
      <trkpt lat="43.78271" lon="4.18019">
        <ele>138</ele>
        <time>2012-03-11T10:53:37Z</time>
      </trkpt>
      <trkpt lat="43.7827" lon="4.18019">
        <ele>138</ele>
        <time>2012-03-11T10:53:38Z</time>
      </trkpt>
      <trkpt lat="43.78268" lon="4.18019">
        <ele>138</ele>
        <time>2012-03-11T10:53:39Z</time>
      </trkpt>
      <trkpt lat="43.78266" lon="4.18019">
        <ele>138</ele>
        <time>2012-03-11T10:53:40Z</time>
      </trkpt>
      <trkpt lat="43.78264" lon="4.18018">
        <ele>138</ele>
        <time>2012-03-11T10:53:41Z</time>
      </trkpt>
      <trkpt lat="43.78263" lon="4.18018">
        <ele>138</ele>
        <time>2012-03-11T10:53:42Z</time>
      </trkpt>
      <trkpt lat="43.78261" lon="4.18018">
        <ele>138</ele>
        <time>2012-03-11T10:53:43Z</time>
      </trkpt>
      <trkpt lat="43.7826" lon="4.18018">
        <ele>138</ele>
        <time>2012-03-11T10:53:44Z</time>
      </trkpt>
      <trkpt lat="43.78258" lon="4.18018">
        <ele>138</ele>
        <time>2012-03-11T10:53:45Z</time>
      </trkpt>
      <trkpt lat="43.78257" lon="4.18018">
        <ele>138</ele>
        <time>2012-03-11T10:53:46Z</time>
      </trkpt>
      <trkpt lat="43.78255" lon="4.18018">
        <ele>138</ele>
        <time>2012-03-11T10:53:47Z</time>
      </trkpt>
      <trkpt lat="43.78253" lon="4.18018">
        <ele>138</ele>
        <time>2012-03-11T10:53:48Z</time>
      </trkpt>
      <trkpt lat="43.78252" lon="4.18018">
        <ele>138</ele>
        <time>2012-03-11T10:53:49Z</time>
      </trkpt>
      <trkpt lat="43.7825" lon="4.18018">
        <ele>138</ele>
        <time>2012-03-11T10:53:50Z</time>
      </trkpt>
      <trkpt lat="43.78248" lon="4.18019">
        <ele>138</ele>
        <time>2012-03-11T10:53:51Z</time>
      </trkpt>
      <trkpt lat="43.78247" lon="4.1802">
        <ele>138</ele>
        <time>2012-03-11T10:53:52Z</time>
      </trkpt>
      <trkpt lat="43.78246" lon="4.1802">
        <ele>138</ele>
        <time>2012-03-11T10:53:53Z</time>
      </trkpt>
      <trkpt lat="43.78244" lon="4.18021">
        <ele>138</ele>
        <time>2012-03-11T10:53:54Z</time>
      </trkpt>
      <trkpt lat="43.78243" lon="4.18022">
        <ele>138</ele>
        <time>2012-03-11T10:53:55Z</time>
      </trkpt>
      <trkpt lat="43.78242" lon="4.18024">
        <ele>138</ele>
        <time>2012-03-11T10:53:56Z</time>
      </trkpt>
      <trkpt lat="43.7824" lon="4.18025">
        <ele>138</ele>
        <time>2012-03-11T10:53:57Z</time>
      </trkpt>
      <trkpt lat="43.78239" lon="4.18026">
        <ele>139</ele>
        <time>2012-03-11T10:53:58Z</time>
      </trkpt>
      <trkpt lat="43.78237" lon="4.18027">
        <ele>139</ele>
        <time>2012-03-11T10:53:59Z</time>
      </trkpt>
      <trkpt lat="43.78236" lon="4.18028">
        <ele>139</ele>
        <time>2012-03-11T10:54:00Z</time>
      </trkpt>
      <trkpt lat="43.78234" lon="4.18029">
        <ele>139</ele>
        <time>2012-03-11T10:54:01Z</time>
      </trkpt>
      <trkpt lat="43.78233" lon="4.18031">
        <ele>139</ele>
        <time>2012-03-11T10:54:02Z</time>
      </trkpt>
      <trkpt lat="43.78233" lon="4.18033">
        <ele>139</ele>
        <time>2012-03-11T10:54:03Z</time>
      </trkpt>
      <trkpt lat="43.78231" lon="4.18035">
        <ele>139</ele>
        <time>2012-03-11T10:54:04Z</time>
      </trkpt>
      <trkpt lat="43.78229" lon="4.18036">
        <ele>139</ele>
        <time>2012-03-11T10:54:05Z</time>
      </trkpt>
      <trkpt lat="43.78228" lon="4.18037">
        <ele>139</ele>
        <time>2012-03-11T10:54:06Z</time>
      </trkpt>
      <trkpt lat="43.78225" lon="4.18038">
        <ele>139</ele>
        <time>2012-03-11T10:54:07Z</time>
      </trkpt>
      <trkpt lat="43.78224" lon="4.1804">
        <ele>139</ele>
        <time>2012-03-11T10:54:08Z</time>
      </trkpt>
      <trkpt lat="43.78223" lon="4.18041">
        <ele>139</ele>
        <time>2012-03-11T10:54:09Z</time>
      </trkpt>
      <trkpt lat="43.78221" lon="4.18043">
        <ele>139</ele>
        <time>2012-03-11T10:54:10Z</time>
      </trkpt>
      <trkpt lat="43.78219" lon="4.18045">
        <ele>139</ele>
        <time>2012-03-11T10:54:11Z</time>
      </trkpt>
      <trkpt lat="43.78218" lon="4.18046">
        <ele>139</ele>
        <time>2012-03-11T10:54:12Z</time>
      </trkpt>
      <trkpt lat="43.78217" lon="4.18047">
        <ele>139</ele>
        <time>2012-03-11T10:54:13Z</time>
      </trkpt>
      <trkpt lat="43.78215" lon="4.18047">
        <ele>139</ele>
        <time>2012-03-11T10:54:16Z</time>
      </trkpt>
      <trkpt lat="43.78215" lon="4.18049">
        <ele>139</ele>
        <time>2012-03-11T10:54:20Z</time>
      </trkpt>
      <trkpt lat="43.78214" lon="4.1805">
        <ele>139</ele>
        <time>2012-03-11T10:54:21Z</time>
      </trkpt>
      <trkpt lat="43.78212" lon="4.18053">
        <ele>139</ele>
        <time>2012-03-11T10:54:23Z</time>
      </trkpt>
      <trkpt lat="43.78212" lon="4.18054">
        <ele>139</ele>
        <time>2012-03-11T10:54:24Z</time>
      </trkpt>
      <trkpt lat="43.78211" lon="4.18056">
        <ele>139</ele>
        <time>2012-03-11T10:54:25Z</time>
      </trkpt>
      <trkpt lat="43.78211" lon="4.18058">
        <ele>139</ele>
        <time>2012-03-11T10:54:26Z</time>
      </trkpt>
      <trkpt lat="43.7821" lon="4.18061">
        <ele>139</ele>
        <time>2012-03-11T10:54:28Z</time>
      </trkpt>
      <trkpt lat="43.7821" lon="4.18063">
        <ele>139</ele>
        <time>2012-03-11T10:54:29Z</time>
      </trkpt>
      <trkpt lat="43.7821" lon="4.18065">
        <ele>139</ele>
        <time>2012-03-11T10:54:30Z</time>
      </trkpt>
      <trkpt lat="43.7821" lon="4.18067">
        <ele>140</ele>
        <time>2012-03-11T10:54:31Z</time>
      </trkpt>
      <trkpt lat="43.7821" lon="4.18068">
        <ele>141</ele>
        <time>2012-03-11T10:54:32Z</time>
      </trkpt>
      <trkpt lat="43.78211" lon="4.1807">
        <ele>141</ele>
        <time>2012-03-11T10:54:33Z</time>
      </trkpt>
      <trkpt lat="43.7821" lon="4.18072">
        <ele>142</ele>
        <time>2012-03-11T10:54:34Z</time>
      </trkpt>
      <trkpt lat="43.7821" lon="4.18074">
        <ele>142</ele>
        <time>2012-03-11T10:54:35Z</time>
      </trkpt>
      <trkpt lat="43.78211" lon="4.18075">
        <ele>143</ele>
        <time>2012-03-11T10:54:36Z</time>
      </trkpt>
      <trkpt lat="43.78211" lon="4.18077">
        <ele>143</ele>
        <time>2012-03-11T10:54:37Z</time>
      </trkpt>
      <trkpt lat="43.78211" lon="4.18079">
        <ele>143</ele>
        <time>2012-03-11T10:54:38Z</time>
      </trkpt>
      <trkpt lat="43.78211" lon="4.18081">
        <ele>144</ele>
        <time>2012-03-11T10:54:39Z</time>
      </trkpt>
      <trkpt lat="43.78211" lon="4.18082">
        <ele>144</ele>
        <time>2012-03-11T10:54:40Z</time>
      </trkpt>
      <trkpt lat="43.78211" lon="4.18084">
        <ele>145</ele>
        <time>2012-03-11T10:54:41Z</time>
      </trkpt>
      <trkpt lat="43.78211" lon="4.18087">
        <ele>145</ele>
        <time>2012-03-11T10:54:42Z</time>
      </trkpt>
      <trkpt lat="43.78211" lon="4.18089">
        <ele>145</ele>
        <time>2012-03-11T10:54:43Z</time>
      </trkpt>
      <trkpt lat="43.78212" lon="4.18091">
        <ele>145</ele>
        <time>2012-03-11T10:54:45Z</time>
      </trkpt>
      <trkpt lat="43.78212" lon="4.18093">
        <ele>145</ele>
        <time>2012-03-11T10:54:46Z</time>
      </trkpt>
      <trkpt lat="43.78212" lon="4.18096">
        <ele>145</ele>
        <time>2012-03-11T10:54:47Z</time>
      </trkpt>
      <trkpt lat="43.78212" lon="4.18098">
        <ele>145</ele>
        <time>2012-03-11T10:54:48Z</time>
      </trkpt>
      <trkpt lat="43.78212" lon="4.18101">
        <ele>146</ele>
        <time>2012-03-11T10:54:49Z</time>
      </trkpt>
      <trkpt lat="43.78212" lon="4.18103">
        <ele>146</ele>
        <time>2012-03-11T10:54:50Z</time>
      </trkpt>
      <trkpt lat="43.78212" lon="4.18106">
        <ele>146</ele>
        <time>2012-03-11T10:54:51Z</time>
      </trkpt>
      <trkpt lat="43.78212" lon="4.18108">
        <ele>146</ele>
        <time>2012-03-11T10:54:52Z</time>
      </trkpt>
      <trkpt lat="43.78212" lon="4.18111">
        <ele>147</ele>
        <time>2012-03-11T10:54:53Z</time>
      </trkpt>
      <trkpt lat="43.78213" lon="4.18114">
        <ele>147</ele>
        <time>2012-03-11T10:54:54Z</time>
      </trkpt>
      <trkpt lat="43.78213" lon="4.18117">
        <ele>147</ele>
        <time>2012-03-11T10:54:55Z</time>
      </trkpt>
      <trkpt lat="43.78213" lon="4.18119">
        <ele>147</ele>
        <time>2012-03-11T10:54:56Z</time>
      </trkpt>
      <trkpt lat="43.78214" lon="4.18122">
        <ele>148</ele>
        <time>2012-03-11T10:54:57Z</time>
      </trkpt>
      <trkpt lat="43.78214" lon="4.18126">
        <ele>148</ele>
        <time>2012-03-11T10:54:58Z</time>
      </trkpt>
      <trkpt lat="43.78215" lon="4.18129">
        <ele>148</ele>
        <time>2012-03-11T10:54:59Z</time>
      </trkpt>
      <trkpt lat="43.78215" lon="4.18132">
        <ele>148</ele>
        <time>2012-03-11T10:55:00Z</time>
      </trkpt>
      <trkpt lat="43.78215" lon="4.18135">
        <ele>148</ele>
        <time>2012-03-11T10:55:01Z</time>
      </trkpt>
      <trkpt lat="43.78216" lon="4.18139">
        <ele>149</ele>
        <time>2012-03-11T10:55:02Z</time>
      </trkpt>
      <trkpt lat="43.78216" lon="4.18143">
        <ele>149</ele>
        <time>2012-03-11T10:55:03Z</time>
      </trkpt>
      <trkpt lat="43.78216" lon="4.18146">
        <ele>149</ele>
        <time>2012-03-11T10:55:04Z</time>
      </trkpt>
      <trkpt lat="43.78216" lon="4.1815">
        <ele>149</ele>
        <time>2012-03-11T10:55:05Z</time>
      </trkpt>
      <trkpt lat="43.78216" lon="4.18154">
        <ele>149</ele>
        <time>2012-03-11T10:55:06Z</time>
      </trkpt>
      <trkpt lat="43.78217" lon="4.18157">
        <ele>149</ele>
        <time>2012-03-11T10:55:07Z</time>
      </trkpt>
      <trkpt lat="43.78216" lon="4.18161">
        <ele>149</ele>
        <time>2012-03-11T10:55:08Z</time>
      </trkpt>
      <trkpt lat="43.78216" lon="4.18165">
        <ele>149</ele>
        <time>2012-03-11T10:55:09Z</time>
      </trkpt>
      <trkpt lat="43.78216" lon="4.18169">
        <ele>149</ele>
        <time>2012-03-11T10:55:10Z</time>
      </trkpt>
      <trkpt lat="43.78216" lon="4.18173">
        <ele>149</ele>
        <time>2012-03-11T10:55:11Z</time>
      </trkpt>
      <trkpt lat="43.78215" lon="4.18177">
        <ele>149</ele>
        <time>2012-03-11T10:55:12Z</time>
      </trkpt>
      <trkpt lat="43.78215" lon="4.1818">
        <ele>149</ele>
        <time>2012-03-11T10:55:13Z</time>
      </trkpt>
      <trkpt lat="43.78215" lon="4.18185">
        <ele>149</ele>
        <time>2012-03-11T10:55:14Z</time>
      </trkpt>
      <trkpt lat="43.78214" lon="4.18189">
        <ele>149</ele>
        <time>2012-03-11T10:55:15Z</time>
      </trkpt>
      <trkpt lat="43.78214" lon="4.18193">
        <ele>149</ele>
        <time>2012-03-11T10:55:16Z</time>
      </trkpt>
      <trkpt lat="43.78213" lon="4.18197">
        <ele>149</ele>
        <time>2012-03-11T10:55:17Z</time>
      </trkpt>
      <trkpt lat="43.78212" lon="4.18201">
        <ele>149</ele>
        <time>2012-03-11T10:55:18Z</time>
      </trkpt>
      <trkpt lat="43.78212" lon="4.18205">
        <ele>149</ele>
        <time>2012-03-11T10:55:19Z</time>
      </trkpt>
      <trkpt lat="43.78211" lon="4.18209">
        <ele>150</ele>
        <time>2012-03-11T10:55:20Z</time>
      </trkpt>
      <trkpt lat="43.7821" lon="4.18213">
        <ele>150</ele>
        <time>2012-03-11T10:55:21Z</time>
      </trkpt>
      <trkpt lat="43.78209" lon="4.18217">
        <ele>150</ele>
        <time>2012-03-11T10:55:22Z</time>
      </trkpt>
      <trkpt lat="43.78208" lon="4.1822">
        <ele>150</ele>
        <time>2012-03-11T10:55:23Z</time>
      </trkpt>
      <trkpt lat="43.78207" lon="4.18223">
        <ele>150</ele>
        <time>2012-03-11T10:55:24Z</time>
      </trkpt>
      <trkpt lat="43.78205" lon="4.18226">
        <ele>150</ele>
        <time>2012-03-11T10:55:25Z</time>
      </trkpt>
      <trkpt lat="43.78204" lon="4.18227">
        <ele>150</ele>
        <time>2012-03-11T10:55:26Z</time>
      </trkpt>
      <trkpt lat="43.78202" lon="4.18229">
        <ele>150</ele>
        <time>2012-03-11T10:55:27Z</time>
      </trkpt>
      <trkpt lat="43.78201" lon="4.1823">
        <ele>151</ele>
        <time>2012-03-11T10:55:28Z</time>
      </trkpt>
      <trkpt lat="43.782" lon="4.18232">
        <ele>151</ele>
        <time>2012-03-11T10:55:30Z</time>
      </trkpt>
      <trkpt lat="43.78199" lon="4.18233">
        <ele>151</ele>
        <time>2012-03-11T10:55:31Z</time>
      </trkpt>
      <trkpt lat="43.78199" lon="4.18236">
        <ele>151</ele>
        <time>2012-03-11T10:55:32Z</time>
      </trkpt>
      <trkpt lat="43.78199" lon="4.18239">
        <ele>151</ele>
        <time>2012-03-11T10:55:33Z</time>
      </trkpt>
      <trkpt lat="43.78198" lon="4.18242">
        <ele>151</ele>
        <time>2012-03-11T10:55:34Z</time>
      </trkpt>
      <trkpt lat="43.78197" lon="4.18246">
        <ele>151</ele>
        <time>2012-03-11T10:55:35Z</time>
      </trkpt>
      <trkpt lat="43.78197" lon="4.1825">
        <ele>151</ele>
        <time>2012-03-11T10:55:36Z</time>
      </trkpt>
      <trkpt lat="43.78196" lon="4.18253">
        <ele>151</ele>
        <time>2012-03-11T10:55:37Z</time>
      </trkpt>
      <trkpt lat="43.78195" lon="4.18256">
        <ele>151</ele>
        <time>2012-03-11T10:55:38Z</time>
      </trkpt>
      <trkpt lat="43.78194" lon="4.18259">
        <ele>151</ele>
        <time>2012-03-11T10:55:39Z</time>
      </trkpt>
      <trkpt lat="43.78193" lon="4.18262">
        <ele>151</ele>
        <time>2012-03-11T10:55:40Z</time>
      </trkpt>
      <trkpt lat="43.78193" lon="4.18265">
        <ele>151</ele>
        <time>2012-03-11T10:55:41Z</time>
      </trkpt>
      <trkpt lat="43.78191" lon="4.18267">
        <ele>151</ele>
        <time>2012-03-11T10:55:42Z</time>
      </trkpt>
      <trkpt lat="43.78191" lon="4.1827">
        <ele>151</ele>
        <time>2012-03-11T10:55:43Z</time>
      </trkpt>
      <trkpt lat="43.7819" lon="4.18273">
        <ele>151</ele>
        <time>2012-03-11T10:55:44Z</time>
      </trkpt>
      <trkpt lat="43.78189" lon="4.18277">
        <ele>151</ele>
        <time>2012-03-11T10:55:45Z</time>
      </trkpt>
      <trkpt lat="43.78188" lon="4.1828">
        <ele>151</ele>
        <time>2012-03-11T10:55:46Z</time>
      </trkpt>
      <trkpt lat="43.78188" lon="4.18284">
        <ele>151</ele>
        <time>2012-03-11T10:55:47Z</time>
      </trkpt>
      <trkpt lat="43.78187" lon="4.18288">
        <ele>151</ele>
        <time>2012-03-11T10:55:48Z</time>
      </trkpt>
      <trkpt lat="43.78186" lon="4.18292">
        <ele>151</ele>
        <time>2012-03-11T10:55:49Z</time>
      </trkpt>
      <trkpt lat="43.78186" lon="4.18295">
        <ele>151</ele>
        <time>2012-03-11T10:55:50Z</time>
      </trkpt>
      <trkpt lat="43.78185" lon="4.18298">
        <ele>151</ele>
        <time>2012-03-11T10:55:51Z</time>
      </trkpt>
      <trkpt lat="43.78184" lon="4.18301">
        <ele>151</ele>
        <time>2012-03-11T10:55:52Z</time>
      </trkpt>
      <trkpt lat="43.78183" lon="4.18304">
        <ele>151</ele>
        <time>2012-03-11T10:55:53Z</time>
      </trkpt>
      <trkpt lat="43.78182" lon="4.18307">
        <ele>151</ele>
        <time>2012-03-11T10:55:54Z</time>
      </trkpt>
      <trkpt lat="43.78182" lon="4.18311">
        <ele>151</ele>
        <time>2012-03-11T10:55:55Z</time>
      </trkpt>
      <trkpt lat="43.78181" lon="4.18315">
        <ele>151</ele>
        <time>2012-03-11T10:55:56Z</time>
      </trkpt>
      <trkpt lat="43.78181" lon="4.18318">
        <ele>151</ele>
        <time>2012-03-11T10:55:57Z</time>
      </trkpt>
      <trkpt lat="43.7818" lon="4.18321">
        <ele>151</ele>
        <time>2012-03-11T10:55:58Z</time>
      </trkpt>
      <trkpt lat="43.7818" lon="4.18324">
        <ele>151</ele>
        <time>2012-03-11T10:55:59Z</time>
      </trkpt>
      <trkpt lat="43.78179" lon="4.18327">
        <ele>151</ele>
        <time>2012-03-11T10:56:00Z</time>
      </trkpt>
      <trkpt lat="43.78178" lon="4.18329">
        <ele>151</ele>
        <time>2012-03-11T10:56:01Z</time>
      </trkpt>
      <trkpt lat="43.78177" lon="4.18332">
        <ele>151</ele>
        <time>2012-03-11T10:56:02Z</time>
      </trkpt>
      <trkpt lat="43.78176" lon="4.18334">
        <ele>151</ele>
        <time>2012-03-11T10:56:03Z</time>
      </trkpt>
      <trkpt lat="43.78175" lon="4.18338">
        <ele>151</ele>
        <time>2012-03-11T10:56:04Z</time>
      </trkpt>
      <trkpt lat="43.78174" lon="4.18339">
        <ele>152</ele>
        <time>2012-03-11T10:56:05Z</time>
      </trkpt>
      <trkpt lat="43.78173" lon="4.1834">
        <ele>153</ele>
        <time>2012-03-11T10:56:07Z</time>
      </trkpt>
      <trkpt lat="43.78172" lon="4.18343">
        <ele>153</ele>
        <time>2012-03-11T10:56:09Z</time>
      </trkpt>
      <trkpt lat="43.7817" lon="4.18345">
        <ele>154</ele>
        <time>2012-03-11T10:56:11Z</time>
      </trkpt>
      <trkpt lat="43.78168" lon="4.18347">
        <ele>154</ele>
        <time>2012-03-11T10:56:13Z</time>
      </trkpt>
      <trkpt lat="43.78167" lon="4.18349">
        <ele>155</ele>
        <time>2012-03-11T10:56:15Z</time>
      </trkpt>
      <trkpt lat="43.78166" lon="4.18351">
        <ele>155</ele>
        <time>2012-03-11T10:56:17Z</time>
      </trkpt>
      <trkpt lat="43.78165" lon="4.18351">
        <ele>155</ele>
        <time>2012-03-11T10:56:23Z</time>
      </trkpt>
      <trkpt lat="43.78164" lon="4.18351">
        <ele>155</ele>
        <time>2012-03-11T10:56:34Z</time>
      </trkpt>
      <trkpt lat="43.78162" lon="4.18351">
        <ele>155</ele>
        <time>2012-03-11T10:56:46Z</time>
      </trkpt>
      <trkpt lat="43.78161" lon="4.1835">
        <ele>155</ele>
        <time>2012-03-11T10:57:02Z</time>
      </trkpt>
      <trkpt lat="43.7816" lon="4.18349">
        <ele>156</ele>
        <time>2012-03-11T10:57:39Z</time>
      </trkpt>
      <trkpt lat="43.7816" lon="4.18347">
        <ele>160</ele>
        <time>2012-03-11T11:00:05Z</time>
      </trkpt>
      <trkpt lat="43.7816" lon="4.18349">
        <ele>161</ele>
        <time>2012-03-11T11:01:09Z</time>
      </trkpt>
      <trkpt lat="43.7816" lon="4.1835">
        <ele>161</ele>
        <time>2012-03-11T11:01:36Z</time>
      </trkpt>
      <trkpt lat="43.78161" lon="4.18351">
        <ele>161</ele>
        <time>2012-03-11T11:01:48Z</time>
      </trkpt>
      <trkpt lat="43.78161" lon="4.18349">
        <ele>161</ele>
        <time>2012-03-11T11:02:09Z</time>
      </trkpt>
      <trkpt lat="43.7816" lon="4.18348">
        <ele>163</ele>
        <time>2012-03-11T11:02:21Z</time>
      </trkpt>
      <trkpt lat="43.78159" lon="4.18349">
        <ele>163</ele>
        <time>2012-03-11T11:02:30Z</time>
      </trkpt>
      <trkpt lat="43.78159" lon="4.18351">
        <ele>163</ele>
        <time>2012-03-11T11:02:45Z</time>
      </trkpt>
      <trkpt lat="43.78157" lon="4.18351">
        <ele>163</ele>
        <time>2012-03-11T11:02:50Z</time>
      </trkpt>
      <trkpt lat="43.78157" lon="4.18353">
        <ele>160</ele>
        <time>2012-03-11T11:03:01Z</time>
      </trkpt>
      <trkpt lat="43.78158" lon="4.18354">
        <ele>159</ele>
        <time>2012-03-11T11:03:15Z</time>
      </trkpt>
      <trkpt lat="43.78157" lon="4.18354">
        <ele>158</ele>
        <time>2012-03-11T11:03:37Z</time>
      </trkpt>
      <trkpt lat="43.78156" lon="4.18353">
        <ele>157</ele>
        <time>2012-03-11T11:04:16Z</time>
      </trkpt>
      <trkpt lat="43.78156" lon="4.18351">
        <ele>157</ele>
        <time>2012-03-11T11:04:19Z</time>
      </trkpt>
      <trkpt lat="43.78156" lon="4.1835">
        <ele>157</ele>
        <time>2012-03-11T11:04:24Z</time>
      </trkpt>
      <trkpt lat="43.78156" lon="4.18348">
        <ele>157</ele>
        <time>2012-03-11T11:04:33Z</time>
      </trkpt>
      <trkpt lat="43.78157" lon="4.18348">
        <ele>159</ele>
        <time>2012-03-11T11:04:49Z</time>
      </trkpt>
      <trkpt lat="43.78158" lon="4.18348">
        <ele>160</ele>
        <time>2012-03-11T11:04:55Z</time>
      </trkpt>
      <trkpt lat="43.78159" lon="4.18349">
        <ele>161</ele>
        <time>2012-03-11T11:05:08Z</time>
      </trkpt>
      <trkpt lat="43.7816" lon="4.18347">
        <ele>162</ele>
        <time>2012-03-11T11:06:10Z</time>
      </trkpt>
      <trkpt lat="43.78159" lon="4.18345">
        <ele>164</ele>
        <time>2012-03-11T11:06:39Z</time>
      </trkpt>
      <trkpt lat="43.78159" lon="4.18347">
        <ele>164</ele>
        <time>2012-03-11T11:07:05Z</time>
      </trkpt>
      <trkpt lat="43.7816" lon="4.18349">
        <ele>164</ele>
        <time>2012-03-11T11:07:08Z</time>
      </trkpt>
      <trkpt lat="43.78159" lon="4.18348">
        <ele>164</ele>
        <time>2012-03-11T11:07:33Z</time>
      </trkpt>
      <trkpt lat="43.78158" lon="4.18348">
        <ele>164</ele>
        <time>2012-03-11T11:08:37Z</time>
      </trkpt>
      <trkpt lat="43.78157" lon="4.18349">
        <ele>164</ele>
        <time>2012-03-11T11:08:42Z</time>
      </trkpt>
      <trkpt lat="43.78156" lon="4.18351">
        <ele>164</ele>
        <time>2012-03-11T11:08:52Z</time>
      </trkpt>
      <trkpt lat="43.78156" lon="4.18349">
        <ele>164</ele>
        <time>2012-03-11T11:08:56Z</time>
      </trkpt>
      <trkpt lat="43.78156" lon="4.18348">
        <ele>164</ele>
        <time>2012-03-11T11:09:02Z</time>
      </trkpt>
      <trkpt lat="43.78156" lon="4.18346">
        <ele>164</ele>
        <time>2012-03-11T11:09:12Z</time>
      </trkpt>
      <trkpt lat="43.78157" lon="4.18346">
        <ele>164</ele>
        <time>2012-03-11T11:09:33Z</time>
      </trkpt>
      <trkpt lat="43.78158" lon="4.18347">
        <ele>164</ele>
        <time>2012-03-11T11:10:22Z</time>
      </trkpt>
      <trkpt lat="43.78157" lon="4.18346">
        <ele>164</ele>
        <time>2012-03-11T11:11:03Z</time>
      </trkpt>
      <trkpt lat="43.78158" lon="4.18346">
        <ele>164</ele>
        <time>2012-03-11T11:11:39Z</time>
      </trkpt>
      <trkpt lat="43.78158" lon="4.18344">
        <ele>164</ele>
        <time>2012-03-11T11:13:13Z</time>
      </trkpt>
      <trkpt lat="43.78157" lon="4.18343">
        <ele>165</ele>
        <time>2012-03-11T11:13:52Z</time>
      </trkpt>
      <trkpt lat="43.78159" lon="4.18343">
        <ele>166</ele>
        <time>2012-03-11T11:14:41Z</time>
      </trkpt>
      <trkpt lat="43.78159" lon="4.18345">
        <ele>166</ele>
        <time>2012-03-11T11:14:49Z</time>
      </trkpt>
      <trkpt lat="43.78159" lon="4.18347">
        <ele>166</ele>
        <time>2012-03-11T11:14:58Z</time>
      </trkpt>
      <trkpt lat="43.78159" lon="4.18348">
        <ele>166</ele>
        <time>2012-03-11T11:15:13Z</time>
      </trkpt>
      <trkpt lat="43.78159" lon="4.18347">
        <ele>166</ele>
        <time>2012-03-11T11:15:57Z</time>
      </trkpt>
      <trkpt lat="43.78157" lon="4.18345">
        <ele>166</ele>
        <time>2012-03-11T11:16:24Z</time>
      </trkpt>
      <trkpt lat="43.78158" lon="4.18347">
        <ele>165</ele>
        <time>2012-03-11T11:16:43Z</time>
      </trkpt>
      <trkpt lat="43.78159" lon="4.18348">
        <ele>165</ele>
        <time>2012-03-11T11:16:49Z</time>
      </trkpt>
      <trkpt lat="43.7816" lon="4.1835">
        <ele>165</ele>
        <time>2012-03-11T11:16:58Z</time>
      </trkpt>
      <trkpt lat="43.7816" lon="4.18352">
        <ele>165</ele>
        <time>2012-03-11T11:17:08Z</time>
      </trkpt>
      <trkpt lat="43.78161" lon="4.18352">
        <ele>164</ele>
        <time>2012-03-11T11:17:34Z</time>
      </trkpt>
      <trkpt lat="43.78161" lon="4.18351">
        <ele>164</ele>
        <time>2012-03-11T11:17:40Z</time>
      </trkpt>
      <trkpt lat="43.78159" lon="4.1835">
        <ele>163</ele>
        <time>2012-03-11T11:18:00Z</time>
      </trkpt>
      <trkpt lat="43.78159" lon="4.18348">
        <ele>163</ele>
        <time>2012-03-11T11:18:13Z</time>
      </trkpt>
      <trkpt lat="43.78159" lon="4.18347">
        <ele>163</ele>
        <time>2012-03-11T11:18:21Z</time>
      </trkpt>
      <trkpt lat="43.78157" lon="4.18346">
        <ele>163</ele>
        <time>2012-03-11T11:18:34Z</time>
      </trkpt>
      <trkpt lat="43.78156" lon="4.18344">
        <ele>162</ele>
        <time>2012-03-11T11:18:41Z</time>
      </trkpt>
      <trkpt lat="43.78155" lon="4.18343">
        <ele>161</ele>
        <time>2012-03-11T11:18:55Z</time>
      </trkpt>
      <trkpt lat="43.78156" lon="4.18343">
        <ele>161</ele>
        <time>2012-03-11T11:19:18Z</time>
      </trkpt>
      <trkpt lat="43.78157" lon="4.18345">
        <ele>161</ele>
        <time>2012-03-11T11:19:20Z</time>
      </trkpt>
      <trkpt lat="43.78157" lon="4.18346">
        <ele>161</ele>
        <time>2012-03-11T11:19:23Z</time>
      </trkpt>
      <trkpt lat="43.78158" lon="4.18348">
        <ele>161</ele>
        <time>2012-03-11T11:19:27Z</time>
      </trkpt>
      <trkpt lat="43.78158" lon="4.18349">
        <ele>161</ele>
        <time>2012-03-11T11:19:32Z</time>
      </trkpt>
      <trkpt lat="43.78159" lon="4.1835">
        <ele>161</ele>
        <time>2012-03-11T11:19:44Z</time>
      </trkpt>
      <trkpt lat="43.78161" lon="4.18351">
        <ele>161</ele>
        <time>2012-03-11T11:20:05Z</time>
      </trkpt>
      <trkpt lat="43.78162" lon="4.18352">
        <ele>161</ele>
        <time>2012-03-11T11:20:22Z</time>
      </trkpt>
      <trkpt lat="43.78163" lon="4.18353">
        <ele>161</ele>
        <time>2012-03-11T11:22:03Z</time>
      </trkpt>
      <trkpt lat="43.78164" lon="4.18353">
        <ele>161</ele>
        <time>2012-03-11T11:22:36Z</time>
      </trkpt>
      <trkpt lat="43.78164" lon="4.18351">
        <ele>161</ele>
        <time>2012-03-11T11:23:19Z</time>
      </trkpt>
      <trkpt lat="43.78163" lon="4.1835">
        <ele>161</ele>
        <time>2012-03-11T11:23:22Z</time>
      </trkpt>
      <trkpt lat="43.78162" lon="4.18348">
        <ele>161</ele>
        <time>2012-03-11T11:23:26Z</time>
      </trkpt>
      <trkpt lat="43.78162" lon="4.18346">
        <ele>161</ele>
        <time>2012-03-11T11:23:29Z</time>
      </trkpt>
      <trkpt lat="43.78161" lon="4.18344">
        <ele>161</ele>
        <time>2012-03-11T11:23:33Z</time>
      </trkpt>
      <trkpt lat="43.78161" lon="4.18343">
        <ele>161</ele>
        <time>2012-03-11T11:23:37Z</time>
      </trkpt>
      <trkpt lat="43.7816" lon="4.18341">
        <ele>161</ele>
        <time>2012-03-11T11:23:40Z</time>
      </trkpt>
      <trkpt lat="43.7816" lon="4.1834">
        <ele>161</ele>
        <time>2012-03-11T11:23:43Z</time>
      </trkpt>
      <trkpt lat="43.78159" lon="4.18338">
        <ele>161</ele>
        <time>2012-03-11T11:23:48Z</time>
      </trkpt>
      <trkpt lat="43.78159" lon="4.18337">
        <ele>161</ele>
        <time>2012-03-11T11:23:54Z</time>
      </trkpt>
      <trkpt lat="43.78159" lon="4.18335">
        <ele>161</ele>
        <time>2012-03-11T11:24:12Z</time>
      </trkpt>
      <trkpt lat="43.78158" lon="4.18334">
        <ele>162</ele>
        <time>2012-03-11T11:24:23Z</time>
      </trkpt>
      <trkpt lat="43.78159" lon="4.18335">
        <ele>163</ele>
        <time>2012-03-11T11:24:54Z</time>
      </trkpt>
      <trkpt lat="43.78159" lon="4.18337">
        <ele>163</ele>
        <time>2012-03-11T11:24:59Z</time>
      </trkpt>
      <trkpt lat="43.78161" lon="4.18339">
        <ele>163</ele>
        <time>2012-03-11T11:25:03Z</time>
      </trkpt>
      <trkpt lat="43.78162" lon="4.1834">
        <ele>164</ele>
        <time>2012-03-11T11:25:06Z</time>
      </trkpt>
      <trkpt lat="43.78162" lon="4.18343">
        <ele>164</ele>
        <time>2012-03-11T11:25:08Z</time>
      </trkpt>
      <trkpt lat="43.78162" lon="4.18345">
        <ele>164</ele>
        <time>2012-03-11T11:25:10Z</time>
      </trkpt>
      <trkpt lat="43.78161" lon="4.18347">
        <ele>164</ele>
        <time>2012-03-11T11:25:15Z</time>
      </trkpt>
      <trkpt lat="43.78162" lon="4.1835">
        <ele>164</ele>
        <time>2012-03-11T11:25:21Z</time>
      </trkpt>
      <trkpt lat="43.78162" lon="4.18352">
        <ele>164</ele>
        <time>2012-03-11T11:25:23Z</time>
      </trkpt>
      <trkpt lat="43.78162" lon="4.18353">
        <ele>164</ele>
        <time>2012-03-11T11:25:26Z</time>
      </trkpt>
      <trkpt lat="43.78163" lon="4.18355">
        <ele>164</ele>
        <time>2012-03-11T11:25:29Z</time>
      </trkpt>
      <trkpt lat="43.78162" lon="4.18356">
        <ele>164</ele>
        <time>2012-03-11T11:25:32Z</time>
      </trkpt>
      <trkpt lat="43.78162" lon="4.18358">
        <ele>164</ele>
        <time>2012-03-11T11:25:35Z</time>
      </trkpt>
      <trkpt lat="43.78164" lon="4.18357">
        <ele>161</ele>
        <time>2012-03-11T11:25:41Z</time>
      </trkpt>
      <trkpt lat="43.78165" lon="4.18359">
        <ele>159</ele>
        <time>2012-03-11T11:25:51Z</time>
      </trkpt>
      <trkpt lat="43.78165" lon="4.18361">
        <ele>159</ele>
        <time>2012-03-11T11:25:53Z</time>
      </trkpt>
      <trkpt lat="43.78165" lon="4.18362">
        <ele>157</ele>
        <time>2012-03-11T11:26:00Z</time>
      </trkpt>
      <trkpt lat="43.78163" lon="4.18362">
        <ele>157</ele>
        <time>2012-03-11T11:26:05Z</time>
      </trkpt>
      <trkpt lat="43.78164" lon="4.18361">
        <ele>157</ele>
        <time>2012-03-11T11:26:11Z</time>
      </trkpt>
      <trkpt lat="43.78164" lon="4.18359">
        <ele>156</ele>
        <time>2012-03-11T11:26:22Z</time>
      </trkpt>
      <trkpt lat="43.78164" lon="4.18358">
        <ele>156</ele>
        <time>2012-03-11T11:26:28Z</time>
      </trkpt>
      <trkpt lat="43.78164" lon="4.18356">
        <ele>156</ele>
        <time>2012-03-11T11:26:33Z</time>
      </trkpt>
      <trkpt lat="43.78165" lon="4.18357">
        <ele>156</ele>
        <time>2012-03-11T11:26:34Z</time>
      </trkpt>
      <trkpt lat="43.78167" lon="4.18359">
        <ele>156</ele>
        <time>2012-03-11T11:26:36Z</time>
      </trkpt>
      <trkpt lat="43.78167" lon="4.1836">
        <ele>156</ele>
        <time>2012-03-11T11:26:39Z</time>
      </trkpt>
      <trkpt lat="43.78165" lon="4.18361">
        <ele>156</ele>
        <time>2012-03-11T11:26:44Z</time>
      </trkpt>
      <trkpt lat="43.78165" lon="4.18362">
        <ele>156</ele>
        <time>2012-03-11T11:26:52Z</time>
      </trkpt>
      <trkpt lat="43.78164" lon="4.18361">
        <ele>156</ele>
        <time>2012-03-11T11:27:18Z</time>
      </trkpt>
      <trkpt lat="43.78163" lon="4.1836">
        <ele>156</ele>
        <time>2012-03-11T11:27:29Z</time>
      </trkpt>
      <trkpt lat="43.78162" lon="4.18358">
        <ele>161</ele>
        <time>2012-03-11T11:27:46Z</time>
      </trkpt>
      <trkpt lat="43.78161" lon="4.18358">
        <ele>161</ele>
        <time>2012-03-11T11:27:50Z</time>
      </trkpt>
      <trkpt lat="43.78159" lon="4.18358">
        <ele>161</ele>
        <time>2012-03-11T11:27:53Z</time>
      </trkpt>
      <trkpt lat="43.78161" lon="4.18358">
        <ele>161</ele>
        <time>2012-03-11T11:27:57Z</time>
      </trkpt>
      <trkpt lat="43.78162" lon="4.18358">
        <ele>161</ele>
        <time>2012-03-11T11:28:00Z</time>
      </trkpt>
      <trkpt lat="43.78163" lon="4.18358">
        <ele>161</ele>
        <time>2012-03-11T11:28:04Z</time>
      </trkpt>
      <trkpt lat="43.78165" lon="4.18359">
        <ele>161</ele>
        <time>2012-03-11T11:28:11Z</time>
      </trkpt>
      <trkpt lat="43.78164" lon="4.18359">
        <ele>161</ele>
        <time>2012-03-11T11:28:16Z</time>
      </trkpt>
      <trkpt lat="43.78162" lon="4.1836">
        <ele>161</ele>
        <time>2012-03-11T11:28:20Z</time>
      </trkpt>
      <trkpt lat="43.78163" lon="4.18361">
        <ele>161</ele>
        <time>2012-03-11T11:28:23Z</time>
      </trkpt>
      <trkpt lat="43.78164" lon="4.18363">
        <ele>161</ele>
        <time>2012-03-11T11:28:25Z</time>
      </trkpt>
      <trkpt lat="43.78165" lon="4.18364">
        <ele>161</ele>
        <time>2012-03-11T11:28:28Z</time>
      </trkpt>
      <trkpt lat="43.78167" lon="4.18364">
        <ele>161</ele>
        <time>2012-03-11T11:28:40Z</time>
      </trkpt>
      <trkpt lat="43.78166" lon="4.18362">
        <ele>159</ele>
        <time>2012-03-11T11:28:45Z</time>
      </trkpt>
      <trkpt lat="43.78166" lon="4.18364">
        <ele>159</ele>
        <time>2012-03-11T11:29:07Z</time>
      </trkpt>
      <trkpt lat="43.78166" lon="4.18366">
        <ele>153</ele>
        <time>2012-03-11T11:29:17Z</time>
      </trkpt>
      <trkpt lat="43.78165" lon="4.18364">
        <ele>153</ele>
        <time>2012-03-11T11:29:33Z</time>
      </trkpt>
      <trkpt lat="43.78164" lon="4.18364">
        <ele>153</ele>
        <time>2012-03-11T11:29:43Z</time>
      </trkpt>
      <trkpt lat="43.78164" lon="4.18362">
        <ele>156</ele>
        <time>2012-03-11T11:30:01Z</time>
      </trkpt>
      <trkpt lat="43.78163" lon="4.18364">
        <ele>156</ele>
        <time>2012-03-11T11:30:10Z</time>
      </trkpt>
      <trkpt lat="43.78164" lon="4.18365">
        <ele>156</ele>
        <time>2012-03-11T11:30:17Z</time>
      </trkpt>
      <trkpt lat="43.78164" lon="4.18367">
        <ele>158</ele>
        <time>2012-03-11T11:30:38Z</time>
      </trkpt>
      <trkpt lat="43.78163" lon="4.18368">
        <ele>159</ele>
        <time>2012-03-11T11:31:03Z</time>
      </trkpt>
      <trkpt lat="43.78163" lon="4.1837">
        <ele>159</ele>
        <time>2012-03-11T11:31:04Z</time>
      </trkpt>
      <trkpt lat="43.78161" lon="4.18373">
        <ele>159</ele>
        <time>2012-03-11T11:31:05Z</time>
      </trkpt>
      <trkpt lat="43.78159" lon="4.18375">
        <ele>159</ele>
        <time>2012-03-11T11:31:06Z</time>
      </trkpt>
      <trkpt lat="43.78157" lon="4.18376">
        <ele>159</ele>
        <time>2012-03-11T11:31:07Z</time>
      </trkpt>
      <trkpt lat="43.78155" lon="4.18376">
        <ele>159</ele>
        <time>2012-03-11T11:31:11Z</time>
      </trkpt>
      <trkpt lat="43.78153" lon="4.18376">
        <ele>159</ele>
        <time>2012-03-11T11:31:13Z</time>
      </trkpt>
      <trkpt lat="43.78152" lon="4.18375">
        <ele>159</ele>
        <time>2012-03-11T11:31:14Z</time>
      </trkpt>
      <trkpt lat="43.7815" lon="4.18374">
        <ele>159</ele>
        <time>2012-03-11T11:31:15Z</time>
      </trkpt>
      <trkpt lat="43.78148" lon="4.18373">
        <ele>159</ele>
        <time>2012-03-11T11:31:16Z</time>
      </trkpt>
      <trkpt lat="43.78147" lon="4.18372">
        <ele>159</ele>
        <time>2012-03-11T11:31:17Z</time>
      </trkpt>
      <trkpt lat="43.78145" lon="4.18369">
        <ele>159</ele>
        <time>2012-03-11T11:31:19Z</time>
      </trkpt>
      <trkpt lat="43.78145" lon="4.18367">
        <ele>158</ele>
        <time>2012-03-11T11:31:20Z</time>
      </trkpt>
      <trkpt lat="43.78144" lon="4.18364">
        <ele>158</ele>
        <time>2012-03-11T11:31:21Z</time>
      </trkpt>
      <trkpt lat="43.78144" lon="4.18363">
        <ele>157</ele>
        <time>2012-03-11T11:31:22Z</time>
      </trkpt>
      <trkpt lat="43.78143" lon="4.18364">
        <ele>155</ele>
        <time>2012-03-11T11:31:26Z</time>
      </trkpt>
      <trkpt lat="43.78141" lon="4.18366">
        <ele>155</ele>
        <time>2012-03-11T11:31:27Z</time>
      </trkpt>
      <trkpt lat="43.7814" lon="4.18366">
        <ele>155</ele>
        <time>2012-03-11T11:31:28Z</time>
      </trkpt>
      <trkpt lat="43.78139" lon="4.18363">
        <ele>154</ele>
        <time>2012-03-11T11:31:30Z</time>
      </trkpt>
      <trkpt lat="43.78139" lon="4.18359">
        <ele>154</ele>
        <time>2012-03-11T11:31:31Z</time>
      </trkpt>
      <trkpt lat="43.78139" lon="4.18354">
        <ele>154</ele>
        <time>2012-03-11T11:31:32Z</time>
      </trkpt>
      <trkpt lat="43.78139" lon="4.18349">
        <ele>154</ele>
        <time>2012-03-11T11:31:33Z</time>
      </trkpt>
      <trkpt lat="43.78139" lon="4.18342">
        <ele>154</ele>
        <time>2012-03-11T11:31:34Z</time>
      </trkpt>
      <trkpt lat="43.7814" lon="4.18334">
        <ele>154</ele>
        <time>2012-03-11T11:31:35Z</time>
      </trkpt>
      <trkpt lat="43.7814" lon="4.18326">
        <ele>154</ele>
        <time>2012-03-11T11:31:36Z</time>
      </trkpt>
      <trkpt lat="43.78141" lon="4.18317">
        <ele>153</ele>
        <time>2012-03-11T11:31:37Z</time>
      </trkpt>
      <trkpt lat="43.78143" lon="4.18309">
        <ele>153</ele>
        <time>2012-03-11T11:31:38Z</time>
      </trkpt>
      <trkpt lat="43.78145" lon="4.18299">
        <ele>153</ele>
        <time>2012-03-11T11:31:39Z</time>
      </trkpt>
      <trkpt lat="43.78147" lon="4.1829">
        <ele>152</ele>
        <time>2012-03-11T11:31:40Z</time>
      </trkpt>
      <trkpt lat="43.78149" lon="4.1828">
        <ele>151</ele>
        <time>2012-03-11T11:31:41Z</time>
      </trkpt>
      <trkpt lat="43.78151" lon="4.18271">
        <ele>151</ele>
        <time>2012-03-11T11:31:42Z</time>
      </trkpt>
      <trkpt lat="43.78154" lon="4.18262">
        <ele>150</ele>
        <time>2012-03-11T11:31:43Z</time>
      </trkpt>
      <trkpt lat="43.78157" lon="4.18253">
        <ele>150</ele>
        <time>2012-03-11T11:31:44Z</time>
      </trkpt>
      <trkpt lat="43.7816" lon="4.18243">
        <ele>150</ele>
        <time>2012-03-11T11:31:45Z</time>
      </trkpt>
      <trkpt lat="43.78163" lon="4.18232">
        <ele>150</ele>
        <time>2012-03-11T11:31:46Z</time>
      </trkpt>
      <trkpt lat="43.78165" lon="4.18223">
        <ele>150</ele>
        <time>2012-03-11T11:31:47Z</time>
      </trkpt>
      <trkpt lat="43.78167" lon="4.18215">
        <ele>150</ele>
        <time>2012-03-11T11:31:48Z</time>
      </trkpt>
      <trkpt lat="43.78168" lon="4.18208">
        <ele>150</ele>
        <time>2012-03-11T11:31:49Z</time>
      </trkpt>
      <trkpt lat="43.78169" lon="4.18203">
        <ele>150</ele>
        <time>2012-03-11T11:31:50Z</time>
      </trkpt>
      <trkpt lat="43.7817" lon="4.18197">
        <ele>150</ele>
        <time>2012-03-11T11:31:51Z</time>
      </trkpt>
      <trkpt lat="43.78171" lon="4.18192">
        <ele>150</ele>
        <time>2012-03-11T11:31:52Z</time>
      </trkpt>
      <trkpt lat="43.78169" lon="4.18187">
        <ele>150</ele>
        <time>2012-03-11T11:31:53Z</time>
      </trkpt>
      <trkpt lat="43.78167" lon="4.18181">
        <ele>150</ele>
        <time>2012-03-11T11:31:54Z</time>
      </trkpt>
      <trkpt lat="43.78165" lon="4.18173">
        <ele>150</ele>
        <time>2012-03-11T11:31:55Z</time>
      </trkpt>
      <trkpt lat="43.78164" lon="4.18164">
        <ele>150</ele>
        <time>2012-03-11T11:31:56Z</time>
      </trkpt>
      <trkpt lat="43.78163" lon="4.18155">
        <ele>150</ele>
        <time>2012-03-11T11:31:57Z</time>
      </trkpt>
      <trkpt lat="43.78161" lon="4.18147">
        <ele>149</ele>
        <time>2012-03-11T11:31:58Z</time>
      </trkpt>
      <trkpt lat="43.78159" lon="4.18139">
        <ele>149</ele>
        <time>2012-03-11T11:31:59Z</time>
      </trkpt>
      <trkpt lat="43.78159" lon="4.18132">
        <ele>149</ele>
        <time>2012-03-11T11:32:00Z</time>
      </trkpt>
      <trkpt lat="43.78158" lon="4.18126">
        <ele>149</ele>
        <time>2012-03-11T11:32:01Z</time>
      </trkpt>
      <trkpt lat="43.78157" lon="4.1812">
        <ele>149</ele>
        <time>2012-03-11T11:32:02Z</time>
      </trkpt>
      <trkpt lat="43.78155" lon="4.18115">
        <ele>149</ele>
        <time>2012-03-11T11:32:03Z</time>
      </trkpt>
      <trkpt lat="43.78155" lon="4.18109">
        <ele>148</ele>
        <time>2012-03-11T11:32:04Z</time>
      </trkpt>
      <trkpt lat="43.78156" lon="4.18103">
        <ele>148</ele>
        <time>2012-03-11T11:32:05Z</time>
      </trkpt>
      <trkpt lat="43.78157" lon="4.18096">
        <ele>147</ele>
        <time>2012-03-11T11:32:06Z</time>
      </trkpt>
      <trkpt lat="43.78158" lon="4.18089">
        <ele>147</ele>
        <time>2012-03-11T11:32:07Z</time>
      </trkpt>
      <trkpt lat="43.7816" lon="4.18081">
        <ele>147</ele>
        <time>2012-03-11T11:32:08Z</time>
      </trkpt>
      <trkpt lat="43.78162" lon="4.18074">
        <ele>146</ele>
        <time>2012-03-11T11:32:09Z</time>
      </trkpt>
      <trkpt lat="43.78165" lon="4.18067">
        <ele>146</ele>
        <time>2012-03-11T11:32:10Z</time>
      </trkpt>
      <trkpt lat="43.78167" lon="4.1806">
        <ele>146</ele>
        <time>2012-03-11T11:32:11Z</time>
      </trkpt>
      <trkpt lat="43.7817" lon="4.18053">
        <ele>146</ele>
        <time>2012-03-11T11:32:12Z</time>
      </trkpt>
      <trkpt lat="43.78171" lon="4.18046">
        <ele>146</ele>
        <time>2012-03-11T11:32:13Z</time>
      </trkpt>
      <trkpt lat="43.78173" lon="4.18038">
        <ele>146</ele>
        <time>2012-03-11T11:32:14Z</time>
      </trkpt>
      <trkpt lat="43.78174" lon="4.18029">
        <ele>146</ele>
        <time>2012-03-11T11:32:15Z</time>
      </trkpt>
      <trkpt lat="43.78175" lon="4.18022">
        <ele>146</ele>
        <time>2012-03-11T11:32:16Z</time>
      </trkpt>
      <trkpt lat="43.78178" lon="4.18015">
        <ele>146</ele>
        <time>2012-03-11T11:32:17Z</time>
      </trkpt>
      <trkpt lat="43.78181" lon="4.18008">
        <ele>146</ele>
        <time>2012-03-11T11:32:18Z</time>
      </trkpt>
      <trkpt lat="43.78181" lon="4.18003">
        <ele>146</ele>
        <time>2012-03-11T11:32:19Z</time>
      </trkpt>
      <trkpt lat="43.78181" lon="4.17997">
        <ele>146</ele>
        <time>2012-03-11T11:32:20Z</time>
      </trkpt>
      <trkpt lat="43.7818" lon="4.1799">
        <ele>146</ele>
        <time>2012-03-11T11:32:21Z</time>
      </trkpt>
      <trkpt lat="43.7818" lon="4.17984">
        <ele>145</ele>
        <time>2012-03-11T11:32:22Z</time>
      </trkpt>
      <trkpt lat="43.78178" lon="4.17978">
        <ele>144</ele>
        <time>2012-03-11T11:32:23Z</time>
      </trkpt>
      <trkpt lat="43.78177" lon="4.17972">
        <ele>143</ele>
        <time>2012-03-11T11:32:24Z</time>
      </trkpt>
      <trkpt lat="43.78175" lon="4.17966">
        <ele>142</ele>
        <time>2012-03-11T11:32:25Z</time>
      </trkpt>
      <trkpt lat="43.78175" lon="4.17959">
        <ele>141</ele>
        <time>2012-03-11T11:32:26Z</time>
      </trkpt>
      <trkpt lat="43.78175" lon="4.17952">
        <ele>140</ele>
        <time>2012-03-11T11:32:27Z</time>
      </trkpt>
      <trkpt lat="43.78174" lon="4.17946">
        <ele>139</ele>
        <time>2012-03-11T11:32:28Z</time>
      </trkpt>
      <trkpt lat="43.78171" lon="4.1794">
        <ele>138</ele>
        <time>2012-03-11T11:32:29Z</time>
      </trkpt>
      <trkpt lat="43.78168" lon="4.17935">
        <ele>137</ele>
        <time>2012-03-11T11:32:30Z</time>
      </trkpt>
      <trkpt lat="43.78165" lon="4.1793">
        <ele>136</ele>
        <time>2012-03-11T11:32:31Z</time>
      </trkpt>
      <trkpt lat="43.78161" lon="4.17925">
        <ele>135</ele>
        <time>2012-03-11T11:32:32Z</time>
      </trkpt>
      <trkpt lat="43.78157" lon="4.17922">
        <ele>134</ele>
        <time>2012-03-11T11:32:33Z</time>
      </trkpt>
      <trkpt lat="43.78152" lon="4.17922">
        <ele>133</ele>
        <time>2012-03-11T11:32:34Z</time>
      </trkpt>
      <trkpt lat="43.78148" lon="4.17922">
        <ele>132</ele>
        <time>2012-03-11T11:32:35Z</time>
      </trkpt>
      <trkpt lat="43.78144" lon="4.17923">
        <ele>131</ele>
        <time>2012-03-11T11:32:36Z</time>
      </trkpt>
      <trkpt lat="43.78142" lon="4.17923">
        <ele>129</ele>
        <time>2012-03-11T11:32:37Z</time>
      </trkpt>
      <trkpt lat="43.7814" lon="4.17922">
        <ele>128</ele>
        <time>2012-03-11T11:32:38Z</time>
      </trkpt>
      <trkpt lat="43.78138" lon="4.17921">
        <ele>126</ele>
        <time>2012-03-11T11:32:40Z</time>
      </trkpt>
      <trkpt lat="43.78136" lon="4.17922">
        <ele>124</ele>
        <time>2012-03-11T11:32:42Z</time>
      </trkpt>
      <trkpt lat="43.78134" lon="4.17921">
        <ele>123</ele>
        <time>2012-03-11T11:32:43Z</time>
      </trkpt>
      <trkpt lat="43.78132" lon="4.1792">
        <ele>122</ele>
        <time>2012-03-11T11:32:44Z</time>
      </trkpt>
      <trkpt lat="43.7813" lon="4.17919">
        <ele>121</ele>
        <time>2012-03-11T11:32:45Z</time>
      </trkpt>
      <trkpt lat="43.78128" lon="4.17918">
        <ele>120</ele>
        <time>2012-03-11T11:32:46Z</time>
      </trkpt>
      <trkpt lat="43.78126" lon="4.17918">
        <ele>119</ele>
        <time>2012-03-11T11:32:47Z</time>
      </trkpt>
      <trkpt lat="43.78123" lon="4.17919">
        <ele>118</ele>
        <time>2012-03-11T11:32:48Z</time>
      </trkpt>
      <trkpt lat="43.78117" lon="4.17919">
        <ele>117</ele>
        <time>2012-03-11T11:32:49Z</time>
      </trkpt>
      <trkpt lat="43.78112" lon="4.17918">
        <ele>116</ele>
        <time>2012-03-11T11:32:50Z</time>
      </trkpt>
      <trkpt lat="43.78108" lon="4.17917">
        <ele>115</ele>
        <time>2012-03-11T11:32:51Z</time>
      </trkpt>
      <trkpt lat="43.78105" lon="4.17915">
        <ele>114</ele>
        <time>2012-03-11T11:32:52Z</time>
      </trkpt>
      <trkpt lat="43.78101" lon="4.17911">
        <ele>114</ele>
        <time>2012-03-11T11:32:53Z</time>
      </trkpt>
      <trkpt lat="43.78099" lon="4.17907">
        <ele>114</ele>
        <time>2012-03-11T11:32:54Z</time>
      </trkpt>
      <trkpt lat="43.78098" lon="4.17905">
        <ele>114</ele>
        <time>2012-03-11T11:32:55Z</time>
      </trkpt>
      <trkpt lat="43.78096" lon="4.17902">
        <ele>114</ele>
        <time>2012-03-11T11:32:56Z</time>
      </trkpt>
      <trkpt lat="43.78092" lon="4.17898">
        <ele>114</ele>
        <time>2012-03-11T11:32:57Z</time>
      </trkpt>
      <trkpt lat="43.78089" lon="4.17894">
        <ele>114</ele>
        <time>2012-03-11T11:32:58Z</time>
      </trkpt>
      <trkpt lat="43.78088" lon="4.17891">
        <ele>114</ele>
        <time>2012-03-11T11:32:59Z</time>
      </trkpt>
      <trkpt lat="43.78086" lon="4.17888">
        <ele>114</ele>
        <time>2012-03-11T11:33:00Z</time>
      </trkpt>
      <trkpt lat="43.78084" lon="4.17886">
        <ele>114</ele>
        <time>2012-03-11T11:33:01Z</time>
      </trkpt>
      <trkpt lat="43.78082" lon="4.17883">
        <ele>114</ele>
        <time>2012-03-11T11:33:02Z</time>
      </trkpt>
      <trkpt lat="43.78078" lon="4.1788">
        <ele>114</ele>
        <time>2012-03-11T11:33:03Z</time>
      </trkpt>
      <trkpt lat="43.78075" lon="4.17877">
        <ele>115</ele>
        <time>2012-03-11T11:33:04Z</time>
      </trkpt>
      <trkpt lat="43.78072" lon="4.17874">
        <ele>115</ele>
        <time>2012-03-11T11:33:05Z</time>
      </trkpt>
      <trkpt lat="43.78069" lon="4.1787">
        <ele>115</ele>
        <time>2012-03-11T11:33:06Z</time>
      </trkpt>
      <trkpt lat="43.78066" lon="4.17867">
        <ele>115</ele>
        <time>2012-03-11T11:33:07Z</time>
      </trkpt>
      <trkpt lat="43.78063" lon="4.17863">
        <ele>116</ele>
        <time>2012-03-11T11:33:08Z</time>
      </trkpt>
      <trkpt lat="43.78061" lon="4.1786">
        <ele>116</ele>
        <time>2012-03-11T11:33:09Z</time>
      </trkpt>
      <trkpt lat="43.78059" lon="4.17856">
        <ele>117</ele>
        <time>2012-03-11T11:33:10Z</time>
      </trkpt>
      <trkpt lat="43.78058" lon="4.17852">
        <ele>117</ele>
        <time>2012-03-11T11:33:11Z</time>
      </trkpt>
      <trkpt lat="43.78056" lon="4.17848">
        <ele>117</ele>
        <time>2012-03-11T11:33:12Z</time>
      </trkpt>
      <trkpt lat="43.78055" lon="4.17845">
        <ele>118</ele>
        <time>2012-03-11T11:33:13Z</time>
      </trkpt>
      <trkpt lat="43.78054" lon="4.17841">
        <ele>118</ele>
        <time>2012-03-11T11:33:14Z</time>
      </trkpt>
      <trkpt lat="43.78052" lon="4.17838">
        <ele>118</ele>
        <time>2012-03-11T11:33:15Z</time>
      </trkpt>
      <trkpt lat="43.78051" lon="4.17834">
        <ele>118</ele>
        <time>2012-03-11T11:33:16Z</time>
      </trkpt>
      <trkpt lat="43.7805" lon="4.17831">
        <ele>118</ele>
        <time>2012-03-11T11:33:17Z</time>
      </trkpt>
      <trkpt lat="43.78049" lon="4.17827">
        <ele>118</ele>
        <time>2012-03-11T11:33:18Z</time>
      </trkpt>
      <trkpt lat="43.78048" lon="4.17824">
        <ele>118</ele>
        <time>2012-03-11T11:33:19Z</time>
      </trkpt>
      <trkpt lat="43.78045" lon="4.1782">
        <ele>118</ele>
        <time>2012-03-11T11:33:20Z</time>
      </trkpt>
      <trkpt lat="43.78043" lon="4.17816">
        <ele>118</ele>
        <time>2012-03-11T11:33:21Z</time>
      </trkpt>
      <trkpt lat="43.78042" lon="4.17814">
        <ele>118</ele>
        <time>2012-03-11T11:33:22Z</time>
      </trkpt>
      <trkpt lat="43.7804" lon="4.17811">
        <ele>118</ele>
        <time>2012-03-11T11:33:23Z</time>
      </trkpt>
      <trkpt lat="43.78039" lon="4.17807">
        <ele>118</ele>
        <time>2012-03-11T11:33:24Z</time>
      </trkpt>
      <trkpt lat="43.78038" lon="4.17804">
        <ele>118</ele>
        <time>2012-03-11T11:33:25Z</time>
      </trkpt>
      <trkpt lat="43.78037" lon="4.178">
        <ele>118</ele>
        <time>2012-03-11T11:33:26Z</time>
      </trkpt>
      <trkpt lat="43.78036" lon="4.17797">
        <ele>118</ele>
        <time>2012-03-11T11:33:27Z</time>
      </trkpt>
      <trkpt lat="43.78036" lon="4.17794">
        <ele>118</ele>
        <time>2012-03-11T11:33:28Z</time>
      </trkpt>
      <trkpt lat="43.78037" lon="4.17791">
        <ele>118</ele>
        <time>2012-03-11T11:33:29Z</time>
      </trkpt>
      <trkpt lat="43.78037" lon="4.17788">
        <ele>118</ele>
        <time>2012-03-11T11:33:30Z</time>
      </trkpt>
      <trkpt lat="43.78038" lon="4.17784">
        <ele>118</ele>
        <time>2012-03-11T11:33:31Z</time>
      </trkpt>
      <trkpt lat="43.78038" lon="4.17781">
        <ele>118</ele>
        <time>2012-03-11T11:33:32Z</time>
      </trkpt>
      <trkpt lat="43.78039" lon="4.17778">
        <ele>118</ele>
        <time>2012-03-11T11:33:33Z</time>
      </trkpt>
      <trkpt lat="43.7804" lon="4.17773">
        <ele>118</ele>
        <time>2012-03-11T11:33:34Z</time>
      </trkpt>
      <trkpt lat="43.7804" lon="4.17767">
        <ele>118</ele>
        <time>2012-03-11T11:33:35Z</time>
      </trkpt>
      <trkpt lat="43.7804" lon="4.17761">
        <ele>118</ele>
        <time>2012-03-11T11:33:36Z</time>
      </trkpt>
      <trkpt lat="43.78039" lon="4.17754">
        <ele>118</ele>
        <time>2012-03-11T11:33:37Z</time>
      </trkpt>
      <trkpt lat="43.78038" lon="4.17747">
        <ele>118</ele>
        <time>2012-03-11T11:33:38Z</time>
      </trkpt>
      <trkpt lat="43.78036" lon="4.1774">
        <ele>118</ele>
        <time>2012-03-11T11:33:39Z</time>
      </trkpt>
      <trkpt lat="43.78035" lon="4.17732">
        <ele>118</ele>
        <time>2012-03-11T11:33:40Z</time>
      </trkpt>
      <trkpt lat="43.78034" lon="4.17723">
        <ele>117</ele>
        <time>2012-03-11T11:33:41Z</time>
      </trkpt>
      <trkpt lat="43.78032" lon="4.17716">
        <ele>117</ele>
        <time>2012-03-11T11:33:42Z</time>
      </trkpt>
      <trkpt lat="43.78031" lon="4.17708">
        <ele>116</ele>
        <time>2012-03-11T11:33:43Z</time>
      </trkpt>
      <trkpt lat="43.7803" lon="4.177">
        <ele>116</ele>
        <time>2012-03-11T11:33:44Z</time>
      </trkpt>
      <trkpt lat="43.78028" lon="4.17691">
        <ele>115</ele>
        <time>2012-03-11T11:33:45Z</time>
      </trkpt>
      <trkpt lat="43.78026" lon="4.17683">
        <ele>115</ele>
        <time>2012-03-11T11:33:46Z</time>
      </trkpt>
      <trkpt lat="43.78025" lon="4.17674">
        <ele>114</ele>
        <time>2012-03-11T11:33:47Z</time>
      </trkpt>
      <trkpt lat="43.78022" lon="4.17667">
        <ele>113</ele>
        <time>2012-03-11T11:33:48Z</time>
      </trkpt>
      <trkpt lat="43.7802" lon="4.17663">
        <ele>113</ele>
        <time>2012-03-11T11:33:49Z</time>
      </trkpt>
      <trkpt lat="43.78016" lon="4.17661">
        <ele>112</ele>
        <time>2012-03-11T11:33:50Z</time>
      </trkpt>
      <trkpt lat="43.78013" lon="4.1766">
        <ele>112</ele>
        <time>2012-03-11T11:33:51Z</time>
      </trkpt>
      <trkpt lat="43.7801" lon="4.17658">
        <ele>111</ele>
        <time>2012-03-11T11:33:52Z</time>
      </trkpt>
      <trkpt lat="43.78007" lon="4.17657">
        <ele>110</ele>
        <time>2012-03-11T11:33:53Z</time>
      </trkpt>
      <trkpt lat="43.78003" lon="4.17657">
        <ele>110</ele>
        <time>2012-03-11T11:33:54Z</time>
      </trkpt>
      <trkpt lat="43.78001" lon="4.17655">
        <ele>109</ele>
        <time>2012-03-11T11:33:55Z</time>
      </trkpt>
      <trkpt lat="43.77996" lon="4.17652">
        <ele>108</ele>
        <time>2012-03-11T11:33:56Z</time>
      </trkpt>
      <trkpt lat="43.7799" lon="4.17649">
        <ele>107</ele>
        <time>2012-03-11T11:33:57Z</time>
      </trkpt>
      <trkpt lat="43.77986" lon="4.17647">
        <ele>106</ele>
        <time>2012-03-11T11:33:58Z</time>
      </trkpt>
      <trkpt lat="43.7798" lon="4.17646">
        <ele>105</ele>
        <time>2012-03-11T11:33:59Z</time>
      </trkpt>
      <trkpt lat="43.77976" lon="4.17645">
        <ele>104</ele>
        <time>2012-03-11T11:34:00Z</time>
      </trkpt>
      <trkpt lat="43.77971" lon="4.17646">
        <ele>103</ele>
        <time>2012-03-11T11:34:01Z</time>
      </trkpt>
      <trkpt lat="43.77967" lon="4.17646">
        <ele>102</ele>
        <time>2012-03-11T11:34:02Z</time>
      </trkpt>
      <trkpt lat="43.77964" lon="4.17647">
        <ele>101</ele>
        <time>2012-03-11T11:34:03Z</time>
      </trkpt>
      <trkpt lat="43.77962" lon="4.17647">
        <ele>100</ele>
        <time>2012-03-11T11:34:04Z</time>
      </trkpt>
      <trkpt lat="43.77959" lon="4.17647">
        <ele>99</ele>
        <time>2012-03-11T11:34:05Z</time>
      </trkpt>
      <trkpt lat="43.77958" lon="4.17646">
        <ele>97</ele>
        <time>2012-03-11T11:34:07Z</time>
      </trkpt>
      <trkpt lat="43.77956" lon="4.17646">
        <ele>94</ele>
        <time>2012-03-11T11:34:10Z</time>
      </trkpt>
      <trkpt lat="43.77954" lon="4.17645">
        <ele>93</ele>
        <time>2012-03-11T11:34:11Z</time>
      </trkpt>
      <trkpt lat="43.77952" lon="4.17645">
        <ele>92</ele>
        <time>2012-03-11T11:34:12Z</time>
      </trkpt>
      <trkpt lat="43.7795" lon="4.17646">
        <ele>92</ele>
        <time>2012-03-11T11:34:13Z</time>
      </trkpt>
      <trkpt lat="43.77948" lon="4.17646">
        <ele>91</ele>
        <time>2012-03-11T11:34:14Z</time>
      </trkpt>
      <trkpt lat="43.77945" lon="4.17645">
        <ele>91</ele>
        <time>2012-03-11T11:34:15Z</time>
      </trkpt>
      <trkpt lat="43.77942" lon="4.17645">
        <ele>90</ele>
        <time>2012-03-11T11:34:16Z</time>
      </trkpt>
      <trkpt lat="43.77938" lon="4.17646">
        <ele>90</ele>
        <time>2012-03-11T11:34:17Z</time>
      </trkpt>
      <trkpt lat="43.77934" lon="4.17645">
        <ele>89</ele>
        <time>2012-03-11T11:34:18Z</time>
      </trkpt>
      <trkpt lat="43.7793" lon="4.17643">
        <ele>88</ele>
        <time>2012-03-11T11:34:19Z</time>
      </trkpt>
      <trkpt lat="43.77927" lon="4.17642">
        <ele>88</ele>
        <time>2012-03-11T11:34:20Z</time>
      </trkpt>
      <trkpt lat="43.77924" lon="4.17642">
        <ele>87</ele>
        <time>2012-03-11T11:34:21Z</time>
      </trkpt>
      <trkpt lat="43.7792" lon="4.17641">
        <ele>86</ele>
        <time>2012-03-11T11:34:22Z</time>
      </trkpt>
      <trkpt lat="43.77916" lon="4.17641">
        <ele>85</ele>
        <time>2012-03-11T11:34:23Z</time>
      </trkpt>
      <trkpt lat="43.77911" lon="4.1764">
        <ele>85</ele>
        <time>2012-03-11T11:34:24Z</time>
      </trkpt>
      <trkpt lat="43.77906" lon="4.17639">
        <ele>84</ele>
        <time>2012-03-11T11:34:25Z</time>
      </trkpt>
      <trkpt lat="43.77901" lon="4.17639">
        <ele>83</ele>
        <time>2012-03-11T11:34:26Z</time>
      </trkpt>
      <trkpt lat="43.77897" lon="4.1764">
        <ele>82</ele>
        <time>2012-03-11T11:34:27Z</time>
      </trkpt>
      <trkpt lat="43.77895" lon="4.17641">
        <ele>81</ele>
        <time>2012-03-11T11:34:28Z</time>
      </trkpt>
      <trkpt lat="43.77892" lon="4.17643">
        <ele>80</ele>
        <time>2012-03-11T11:34:29Z</time>
      </trkpt>
      <trkpt lat="43.77888" lon="4.17645">
        <ele>79</ele>
        <time>2012-03-11T11:34:30Z</time>
      </trkpt>
      <trkpt lat="43.77884" lon="4.17646">
        <ele>78</ele>
        <time>2012-03-11T11:34:31Z</time>
      </trkpt>
      <trkpt lat="43.77879" lon="4.17647">
        <ele>77</ele>
        <time>2012-03-11T11:34:32Z</time>
      </trkpt>
      <trkpt lat="43.77875" lon="4.17647">
        <ele>76</ele>
        <time>2012-03-11T11:34:33Z</time>
      </trkpt>
      <trkpt lat="43.77871" lon="4.17647">
        <ele>76</ele>
        <time>2012-03-11T11:34:34Z</time>
      </trkpt>
      <trkpt lat="43.77868" lon="4.17648">
        <ele>75</ele>
        <time>2012-03-11T11:34:35Z</time>
      </trkpt>
      <trkpt lat="43.77865" lon="4.17651">
        <ele>74</ele>
        <time>2012-03-11T11:34:36Z</time>
      </trkpt>
      <trkpt lat="43.77861" lon="4.17653">
        <ele>73</ele>
        <time>2012-03-11T11:34:37Z</time>
      </trkpt>
      <trkpt lat="43.7786" lon="4.17654">
        <ele>72</ele>
        <time>2012-03-11T11:34:38Z</time>
      </trkpt>
      <trkpt lat="43.77859" lon="4.17653">
        <ele>67</ele>
        <time>2012-03-11T11:34:43Z</time>
      </trkpt>
      <trkpt lat="43.77858" lon="4.17655">
        <ele>66</ele>
        <time>2012-03-11T11:34:45Z</time>
      </trkpt>
      <trkpt lat="43.77857" lon="4.17656">
        <ele>66</ele>
        <time>2012-03-11T11:34:48Z</time>
      </trkpt>
      <trkpt lat="43.77856" lon="4.17655">
        <ele>66</ele>
        <time>2012-03-11T11:34:51Z</time>
      </trkpt>
      <trkpt lat="43.77855" lon="4.17653">
        <ele>66</ele>
        <time>2012-03-11T11:34:57Z</time>
      </trkpt>
      <trkpt lat="43.77855" lon="4.17651">
        <ele>66</ele>
        <time>2012-03-11T11:35:01Z</time>
      </trkpt>
      <trkpt lat="43.77853" lon="4.17651">
        <ele>66</ele>
        <time>2012-03-11T11:35:19Z</time>
      </trkpt>
      <trkpt lat="43.77852" lon="4.17652">
        <ele>66</ele>
        <time>2012-03-11T11:35:25Z</time>
      </trkpt>
      <trkpt lat="43.77851" lon="4.1765">
        <ele>66</ele>
        <time>2012-03-11T11:35:30Z</time>
      </trkpt>
      <trkpt lat="43.77853" lon="4.17651">
        <ele>66</ele>
        <time>2012-03-11T11:35:36Z</time>
      </trkpt>
      <trkpt lat="43.77854" lon="4.17651">
        <ele>66</ele>
        <time>2012-03-11T11:35:40Z</time>
      </trkpt>
      <trkpt lat="43.77855" lon="4.17653">
        <ele>66</ele>
        <time>2012-03-11T11:35:42Z</time>
      </trkpt>
      <trkpt lat="43.77854" lon="4.17651">
        <ele>64</ele>
        <time>2012-03-11T11:35:53Z</time>
      </trkpt>
      <trkpt lat="43.77853" lon="4.1765">
        <ele>62</ele>
        <time>2012-03-11T11:35:56Z</time>
      </trkpt>
      <trkpt lat="43.77853" lon="4.17648">
        <ele>58</ele>
        <time>2012-03-11T11:36:00Z</time>
      </trkpt>
      <trkpt lat="43.77854" lon="4.1765">
        <ele>52</ele>
        <time>2012-03-11T11:36:09Z</time>
      </trkpt>
      <trkpt lat="43.77855" lon="4.1765">
        <ele>52</ele>
        <time>2012-03-11T11:36:15Z</time>
      </trkpt>
      <trkpt lat="43.77856" lon="4.17651">
        <ele>52</ele>
        <time>2012-03-11T11:36:19Z</time>
      </trkpt>
      <trkpt lat="43.77858" lon="4.17651">
        <ele>52</ele>
        <time>2012-03-11T11:36:22Z</time>
      </trkpt>
      <trkpt lat="43.77859" lon="4.17652">
        <ele>52</ele>
        <time>2012-03-11T11:36:26Z</time>
      </trkpt>
      <trkpt lat="43.77857" lon="4.1765">
        <ele>52</ele>
        <time>2012-03-11T11:36:32Z</time>
      </trkpt>
      <trkpt lat="43.77855" lon="4.17651">
        <ele>52</ele>
        <time>2012-03-11T11:36:33Z</time>
      </trkpt>
      <trkpt lat="43.77852" lon="4.17651">
        <ele>52</ele>
        <time>2012-03-11T11:36:34Z</time>
      </trkpt>
      <trkpt lat="43.7785" lon="4.17652">
        <ele>53</ele>
        <time>2012-03-11T11:36:35Z</time>
      </trkpt>
      <trkpt lat="43.77847" lon="4.17652">
        <ele>54</ele>
        <time>2012-03-11T11:36:36Z</time>
      </trkpt>
      <trkpt lat="43.77845" lon="4.17652">
        <ele>55</ele>
        <time>2012-03-11T11:36:37Z</time>
      </trkpt>
      <trkpt lat="43.77844" lon="4.17652">
        <ele>55</ele>
        <time>2012-03-11T11:36:38Z</time>
      </trkpt>
      <trkpt lat="43.77842" lon="4.17654">
        <ele>59</ele>
        <time>2012-03-11T11:36:45Z</time>
      </trkpt>
      <trkpt lat="43.77841" lon="4.17654">
        <ele>60</ele>
        <time>2012-03-11T11:36:46Z</time>
      </trkpt>
      <trkpt lat="43.77839" lon="4.17655">
        <ele>60</ele>
        <time>2012-03-11T11:36:47Z</time>
      </trkpt>
      <trkpt lat="43.77836" lon="4.17655">
        <ele>60</ele>
        <time>2012-03-11T11:36:48Z</time>
      </trkpt>
      <trkpt lat="43.77833" lon="4.17657">
        <ele>61</ele>
        <time>2012-03-11T11:36:49Z</time>
      </trkpt>
      <trkpt lat="43.7783" lon="4.17658">
        <ele>61</ele>
        <time>2012-03-11T11:36:50Z</time>
      </trkpt>
      <trkpt lat="43.77826" lon="4.1766">
        <ele>61</ele>
        <time>2012-03-11T11:36:51Z</time>
      </trkpt>
      <trkpt lat="43.77823" lon="4.17662">
        <ele>61</ele>
        <time>2012-03-11T11:36:52Z</time>
      </trkpt>
      <trkpt lat="43.7782" lon="4.17665">
        <ele>61</ele>
        <time>2012-03-11T11:36:53Z</time>
      </trkpt>
      <trkpt lat="43.77818" lon="4.17668">
        <ele>61</ele>
        <time>2012-03-11T11:36:54Z</time>
      </trkpt>
      <trkpt lat="43.77816" lon="4.17672">
        <ele>61</ele>
        <time>2012-03-11T11:36:55Z</time>
      </trkpt>
      <trkpt lat="43.77815" lon="4.17676">
        <ele>61</ele>
        <time>2012-03-11T11:36:56Z</time>
      </trkpt>
      <trkpt lat="43.77815" lon="4.17681">
        <ele>61</ele>
        <time>2012-03-11T11:36:57Z</time>
      </trkpt>
      <trkpt lat="43.77815" lon="4.17686">
        <ele>61</ele>
        <time>2012-03-11T11:36:58Z</time>
      </trkpt>
      <trkpt lat="43.77815" lon="4.17692">
        <ele>61</ele>
        <time>2012-03-11T11:36:59Z</time>
      </trkpt>
      <trkpt lat="43.77816" lon="4.17697">
        <ele>61</ele>
        <time>2012-03-11T11:37:00Z</time>
      </trkpt>
      <trkpt lat="43.77816" lon="4.17703">
        <ele>61</ele>
        <time>2012-03-11T11:37:01Z</time>
      </trkpt>
      <trkpt lat="43.77816" lon="4.1771">
        <ele>61</ele>
        <time>2012-03-11T11:37:02Z</time>
      </trkpt>
      <trkpt lat="43.77817" lon="4.17719">
        <ele>61</ele>
        <time>2012-03-11T11:37:03Z</time>
      </trkpt>
      <trkpt lat="43.77818" lon="4.17729">
        <ele>61</ele>
        <time>2012-03-11T11:37:04Z</time>
      </trkpt>
      <trkpt lat="43.77817" lon="4.17738">
        <ele>61</ele>
        <time>2012-03-11T11:37:05Z</time>
      </trkpt>
      <trkpt lat="43.77816" lon="4.17748">
        <ele>61</ele>
        <time>2012-03-11T11:37:06Z</time>
      </trkpt>
      <trkpt lat="43.77814" lon="4.17757">
        <ele>61</ele>
        <time>2012-03-11T11:37:07Z</time>
      </trkpt>
      <trkpt lat="43.77813" lon="4.17766">
        <ele>61</ele>
        <time>2012-03-11T11:37:08Z</time>
      </trkpt>
      <trkpt lat="43.77811" lon="4.17775">
        <ele>61</ele>
        <time>2012-03-11T11:37:09Z</time>
      </trkpt>
      <trkpt lat="43.7781" lon="4.17784">
        <ele>61</ele>
        <time>2012-03-11T11:37:10Z</time>
      </trkpt>
      <trkpt lat="43.77809" lon="4.17792">
        <ele>61</ele>
        <time>2012-03-11T11:37:11Z</time>
      </trkpt>
      <trkpt lat="43.77808" lon="4.178">
        <ele>61</ele>
        <time>2012-03-11T11:37:12Z</time>
      </trkpt>
      <trkpt lat="43.77808" lon="4.17808">
        <ele>61</ele>
        <time>2012-03-11T11:37:13Z</time>
      </trkpt>
      <trkpt lat="43.77808" lon="4.17815">
        <ele>61</ele>
        <time>2012-03-11T11:37:14Z</time>
      </trkpt>
      <trkpt lat="43.77808" lon="4.17823">
        <ele>61</ele>
        <time>2012-03-11T11:37:15Z</time>
      </trkpt>
      <trkpt lat="43.77807" lon="4.1783">
        <ele>61</ele>
        <time>2012-03-11T11:37:16Z</time>
      </trkpt>
      <trkpt lat="43.77807" lon="4.17837">
        <ele>61</ele>
        <time>2012-03-11T11:37:17Z</time>
      </trkpt>
      <trkpt lat="43.77808" lon="4.17845">
        <ele>61</ele>
        <time>2012-03-11T11:37:18Z</time>
      </trkpt>
      <trkpt lat="43.77808" lon="4.17853">
        <ele>61</ele>
        <time>2012-03-11T11:37:19Z</time>
      </trkpt>
      <trkpt lat="43.77809" lon="4.17862">
        <ele>61</ele>
        <time>2012-03-11T11:37:20Z</time>
      </trkpt>
      <trkpt lat="43.77809" lon="4.1787">
        <ele>61</ele>
        <time>2012-03-11T11:37:21Z</time>
      </trkpt>
      <trkpt lat="43.7781" lon="4.17877">
        <ele>61</ele>
        <time>2012-03-11T11:37:22Z</time>
      </trkpt>
      <trkpt lat="43.7781" lon="4.17886">
        <ele>61</ele>
        <time>2012-03-11T11:37:23Z</time>
      </trkpt>
      <trkpt lat="43.77811" lon="4.17894">
        <ele>61</ele>
        <time>2012-03-11T11:37:24Z</time>
      </trkpt>
      <trkpt lat="43.77812" lon="4.17902">
        <ele>61</ele>
        <time>2012-03-11T11:37:25Z</time>
      </trkpt>
      <trkpt lat="43.77813" lon="4.1791">
        <ele>61</ele>
        <time>2012-03-11T11:37:26Z</time>
      </trkpt>
      <trkpt lat="43.77814" lon="4.17919">
        <ele>61</ele>
        <time>2012-03-11T11:37:27Z</time>
      </trkpt>
      <trkpt lat="43.77814" lon="4.17927">
        <ele>61</ele>
        <time>2012-03-11T11:37:28Z</time>
      </trkpt>
      <trkpt lat="43.77815" lon="4.17935">
        <ele>61</ele>
        <time>2012-03-11T11:37:29Z</time>
      </trkpt>
      <trkpt lat="43.77816" lon="4.17943">
        <ele>61</ele>
        <time>2012-03-11T11:37:30Z</time>
      </trkpt>
      <trkpt lat="43.77816" lon="4.1795">
        <ele>61</ele>
        <time>2012-03-11T11:37:31Z</time>
      </trkpt>
      <trkpt lat="43.77817" lon="4.17957">
        <ele>61</ele>
        <time>2012-03-11T11:37:32Z</time>
      </trkpt>
      <trkpt lat="43.77817" lon="4.17964">
        <ele>61</ele>
        <time>2012-03-11T11:37:33Z</time>
      </trkpt>
      <trkpt lat="43.77818" lon="4.17971">
        <ele>61</ele>
        <time>2012-03-11T11:37:34Z</time>
      </trkpt>
      <trkpt lat="43.77819" lon="4.17978">
        <ele>61</ele>
        <time>2012-03-11T11:37:35Z</time>
      </trkpt>
      <trkpt lat="43.77819" lon="4.17985">
        <ele>61</ele>
        <time>2012-03-11T11:37:36Z</time>
      </trkpt>
      <trkpt lat="43.7782" lon="4.17992">
        <ele>61</ele>
        <time>2012-03-11T11:37:37Z</time>
      </trkpt>
      <trkpt lat="43.77821" lon="4.17998">
        <ele>61</ele>
        <time>2012-03-11T11:37:38Z</time>
      </trkpt>
      <trkpt lat="43.77821" lon="4.18004">
        <ele>61</ele>
        <time>2012-03-11T11:37:39Z</time>
      </trkpt>
      <trkpt lat="43.77822" lon="4.1801">
        <ele>61</ele>
        <time>2012-03-11T11:37:40Z</time>
      </trkpt>
      <trkpt lat="43.77823" lon="4.18016">
        <ele>61</ele>
        <time>2012-03-11T11:37:41Z</time>
      </trkpt>
      <trkpt lat="43.77824" lon="4.18022">
        <ele>61</ele>
        <time>2012-03-11T11:37:42Z</time>
      </trkpt>
      <trkpt lat="43.77824" lon="4.18029">
        <ele>61</ele>
        <time>2012-03-11T11:37:43Z</time>
      </trkpt>
      <trkpt lat="43.77824" lon="4.18036">
        <ele>61</ele>
        <time>2012-03-11T11:37:44Z</time>
      </trkpt>
      <trkpt lat="43.77825" lon="4.18044">
        <ele>61</ele>
        <time>2012-03-11T11:37:45Z</time>
      </trkpt>
      <trkpt lat="43.77824" lon="4.18052">
        <ele>61</ele>
        <time>2012-03-11T11:37:46Z</time>
      </trkpt>
      <trkpt lat="43.77823" lon="4.18061">
        <ele>61</ele>
        <time>2012-03-11T11:37:47Z</time>
      </trkpt>
      <trkpt lat="43.77822" lon="4.1807">
        <ele>61</ele>
        <time>2012-03-11T11:37:48Z</time>
      </trkpt>
      <trkpt lat="43.77822" lon="4.18081">
        <ele>60</ele>
        <time>2012-03-11T11:37:49Z</time>
      </trkpt>
      <trkpt lat="43.77824" lon="4.18091">
        <ele>60</ele>
        <time>2012-03-11T11:37:50Z</time>
      </trkpt>
      <trkpt lat="43.77826" lon="4.18101">
        <ele>60</ele>
        <time>2012-03-11T11:37:51Z</time>
      </trkpt>
      <trkpt lat="43.77829" lon="4.18109">
        <ele>59</ele>
        <time>2012-03-11T11:37:52Z</time>
      </trkpt>
      <trkpt lat="43.77831" lon="4.18117">
        <ele>59</ele>
        <time>2012-03-11T11:37:53Z</time>
      </trkpt>
      <trkpt lat="43.77835" lon="4.18124">
        <ele>59</ele>
        <time>2012-03-11T11:37:54Z</time>
      </trkpt>
      <trkpt lat="43.77838" lon="4.18131">
        <ele>59</ele>
        <time>2012-03-11T11:37:55Z</time>
      </trkpt>
      <trkpt lat="43.77841" lon="4.18137">
        <ele>59</ele>
        <time>2012-03-11T11:37:56Z</time>
      </trkpt>
      <trkpt lat="43.77844" lon="4.18142">
        <ele>59</ele>
        <time>2012-03-11T11:37:57Z</time>
      </trkpt>
      <trkpt lat="43.77846" lon="4.18148">
        <ele>59</ele>
        <time>2012-03-11T11:37:58Z</time>
      </trkpt>
      <trkpt lat="43.77847" lon="4.18152">
        <ele>59</ele>
        <time>2012-03-11T11:37:59Z</time>
      </trkpt>
      <trkpt lat="43.77848" lon="4.18156">
        <ele>59</ele>
        <time>2012-03-11T11:38:00Z</time>
      </trkpt>
      <trkpt lat="43.77849" lon="4.1816">
        <ele>59</ele>
        <time>2012-03-11T11:38:01Z</time>
      </trkpt>
      <trkpt lat="43.77849" lon="4.18164">
        <ele>59</ele>
        <time>2012-03-11T11:38:02Z</time>
      </trkpt>
      <trkpt lat="43.77849" lon="4.18169">
        <ele>59</ele>
        <time>2012-03-11T11:38:03Z</time>
      </trkpt>
      <trkpt lat="43.77848" lon="4.18173">
        <ele>59</ele>
        <time>2012-03-11T11:38:04Z</time>
      </trkpt>
      <trkpt lat="43.77848" lon="4.18178">
        <ele>59</ele>
        <time>2012-03-11T11:38:05Z</time>
      </trkpt>
      <trkpt lat="43.77848" lon="4.18183">
        <ele>59</ele>
        <time>2012-03-11T11:38:06Z</time>
      </trkpt>
      <trkpt lat="43.77848" lon="4.18187">
        <ele>59</ele>
        <time>2012-03-11T11:38:07Z</time>
      </trkpt>
      <trkpt lat="43.77849" lon="4.18191">
        <ele>59</ele>
        <time>2012-03-11T11:38:08Z</time>
      </trkpt>
      <trkpt lat="43.7785" lon="4.18196">
        <ele>59</ele>
        <time>2012-03-11T11:38:09Z</time>
      </trkpt>
      <trkpt lat="43.77851" lon="4.18201">
        <ele>59</ele>
        <time>2012-03-11T11:38:10Z</time>
      </trkpt>
      <trkpt lat="43.77851" lon="4.18206">
        <ele>59</ele>
        <time>2012-03-11T11:38:11Z</time>
      </trkpt>
      <trkpt lat="43.77853" lon="4.1821">
        <ele>59</ele>
        <time>2012-03-11T11:38:12Z</time>
      </trkpt>
      <trkpt lat="43.77853" lon="4.18215">
        <ele>59</ele>
        <time>2012-03-11T11:38:13Z</time>
      </trkpt>
      <trkpt lat="43.77854" lon="4.18219">
        <ele>59</ele>
        <time>2012-03-11T11:38:14Z</time>
      </trkpt>
      <trkpt lat="43.77855" lon="4.18223">
        <ele>59</ele>
        <time>2012-03-11T11:38:15Z</time>
      </trkpt>
      <trkpt lat="43.77856" lon="4.18228">
        <ele>59</ele>
        <time>2012-03-11T11:38:16Z</time>
      </trkpt>
      <trkpt lat="43.77857" lon="4.18233">
        <ele>59</ele>
        <time>2012-03-11T11:38:17Z</time>
      </trkpt>
      <trkpt lat="43.77858" lon="4.18238">
        <ele>59</ele>
        <time>2012-03-11T11:38:18Z</time>
      </trkpt>
      <trkpt lat="43.77859" lon="4.18244">
        <ele>59</ele>
        <time>2012-03-11T11:38:19Z</time>
      </trkpt>
      <trkpt lat="43.7786" lon="4.1825">
        <ele>59</ele>
        <time>2012-03-11T11:38:20Z</time>
      </trkpt>
      <trkpt lat="43.77861" lon="4.18256">
        <ele>59</ele>
        <time>2012-03-11T11:38:21Z</time>
      </trkpt>
      <trkpt lat="43.77862" lon="4.18262">
        <ele>59</ele>
        <time>2012-03-11T11:38:22Z</time>
      </trkpt>
      <trkpt lat="43.77864" lon="4.18268">
        <ele>59</ele>
        <time>2012-03-11T11:38:23Z</time>
      </trkpt>
      <trkpt lat="43.77866" lon="4.18273">
        <ele>59</ele>
        <time>2012-03-11T11:38:24Z</time>
      </trkpt>
      <trkpt lat="43.77869" lon="4.18278">
        <ele>59</ele>
        <time>2012-03-11T11:38:25Z</time>
      </trkpt>
      <trkpt lat="43.77871" lon="4.18282">
        <ele>59</ele>
        <time>2012-03-11T11:38:26Z</time>
      </trkpt>
      <trkpt lat="43.77874" lon="4.18286">
        <ele>59</ele>
        <time>2012-03-11T11:38:27Z</time>
      </trkpt>
      <trkpt lat="43.77876" lon="4.18289">
        <ele>59</ele>
        <time>2012-03-11T11:38:28Z</time>
      </trkpt>
      <trkpt lat="43.77879" lon="4.18292">
        <ele>59</ele>
        <time>2012-03-11T11:38:29Z</time>
      </trkpt>
      <trkpt lat="43.77881" lon="4.18295">
        <ele>59</ele>
        <time>2012-03-11T11:38:30Z</time>
      </trkpt>
      <trkpt lat="43.77884" lon="4.18299">
        <ele>59</ele>
        <time>2012-03-11T11:38:31Z</time>
      </trkpt>
      <trkpt lat="43.77887" lon="4.18303">
        <ele>59</ele>
        <time>2012-03-11T11:38:32Z</time>
      </trkpt>
      <trkpt lat="43.77889" lon="4.18307">
        <ele>59</ele>
        <time>2012-03-11T11:38:33Z</time>
      </trkpt>
      <trkpt lat="43.77892" lon="4.18311">
        <ele>59</ele>
        <time>2012-03-11T11:38:34Z</time>
      </trkpt>
      <trkpt lat="43.77894" lon="4.18316">
        <ele>59</ele>
        <time>2012-03-11T11:38:35Z</time>
      </trkpt>
      <trkpt lat="43.77896" lon="4.1832">
        <ele>59</ele>
        <time>2012-03-11T11:38:36Z</time>
      </trkpt>
      <trkpt lat="43.77898" lon="4.18324">
        <ele>59</ele>
        <time>2012-03-11T11:38:37Z</time>
      </trkpt>
      <trkpt lat="43.779" lon="4.18328">
        <ele>59</ele>
        <time>2012-03-11T11:38:38Z</time>
      </trkpt>
      <trkpt lat="43.77902" lon="4.18332">
        <ele>59</ele>
        <time>2012-03-11T11:38:39Z</time>
      </trkpt>
      <trkpt lat="43.77904" lon="4.18336">
        <ele>59</ele>
        <time>2012-03-11T11:38:40Z</time>
      </trkpt>
      <trkpt lat="43.77906" lon="4.1834">
        <ele>59</ele>
        <time>2012-03-11T11:38:41Z</time>
      </trkpt>
      <trkpt lat="43.77908" lon="4.18343">
        <ele>59</ele>
        <time>2012-03-11T11:38:42Z</time>
      </trkpt>
      <trkpt lat="43.77911" lon="4.18347">
        <ele>59</ele>
        <time>2012-03-11T11:38:43Z</time>
      </trkpt>
      <trkpt lat="43.77913" lon="4.1835">
        <ele>59</ele>
        <time>2012-03-11T11:38:44Z</time>
      </trkpt>
      <trkpt lat="43.77916" lon="4.18353">
        <ele>59</ele>
        <time>2012-03-11T11:38:45Z</time>
      </trkpt>
      <trkpt lat="43.77918" lon="4.18356">
        <ele>59</ele>
        <time>2012-03-11T11:38:46Z</time>
      </trkpt>
      <trkpt lat="43.77921" lon="4.18359">
        <ele>59</ele>
        <time>2012-03-11T11:38:47Z</time>
      </trkpt>
      <trkpt lat="43.77923" lon="4.18361">
        <ele>59</ele>
        <time>2012-03-11T11:38:48Z</time>
      </trkpt>
      <trkpt lat="43.77925" lon="4.18364">
        <ele>59</ele>
        <time>2012-03-11T11:38:49Z</time>
      </trkpt>
      <trkpt lat="43.77927" lon="4.18367">
        <ele>59</ele>
        <time>2012-03-11T11:38:50Z</time>
      </trkpt>
      <trkpt lat="43.77929" lon="4.1837">
        <ele>59</ele>
        <time>2012-03-11T11:38:51Z</time>
      </trkpt>
      <trkpt lat="43.7793" lon="4.18373">
        <ele>59</ele>
        <time>2012-03-11T11:38:52Z</time>
      </trkpt>
      <trkpt lat="43.77932" lon="4.18377">
        <ele>59</ele>
        <time>2012-03-11T11:38:53Z</time>
      </trkpt>
      <trkpt lat="43.77933" lon="4.1838">
        <ele>59</ele>
        <time>2012-03-11T11:38:54Z</time>
      </trkpt>
      <trkpt lat="43.77934" lon="4.18385">
        <ele>59</ele>
        <time>2012-03-11T11:38:55Z</time>
      </trkpt>
      <trkpt lat="43.77935" lon="4.18389">
        <ele>59</ele>
        <time>2012-03-11T11:38:56Z</time>
      </trkpt>
      <trkpt lat="43.77935" lon="4.18394">
        <ele>59</ele>
        <time>2012-03-11T11:38:57Z</time>
      </trkpt>
      <trkpt lat="43.77935" lon="4.18398">
        <ele>59</ele>
        <time>2012-03-11T11:38:58Z</time>
      </trkpt>
      <trkpt lat="43.77936" lon="4.18401">
        <ele>59</ele>
        <time>2012-03-11T11:38:59Z</time>
      </trkpt>
      <trkpt lat="43.77936" lon="4.18406">
        <ele>59</ele>
        <time>2012-03-11T11:39:00Z</time>
      </trkpt>
      <trkpt lat="43.77937" lon="4.1841">
        <ele>59</ele>
        <time>2012-03-11T11:39:01Z</time>
      </trkpt>
      <trkpt lat="43.77937" lon="4.18413">
        <ele>59</ele>
        <time>2012-03-11T11:39:02Z</time>
      </trkpt>
      <trkpt lat="43.77937" lon="4.18418">
        <ele>59</ele>
        <time>2012-03-11T11:39:03Z</time>
      </trkpt>
      <trkpt lat="43.77938" lon="4.18422">
        <ele>59</ele>
        <time>2012-03-11T11:39:04Z</time>
      </trkpt>
      <trkpt lat="43.77938" lon="4.18427">
        <ele>59</ele>
        <time>2012-03-11T11:39:05Z</time>
      </trkpt>
      <trkpt lat="43.77939" lon="4.18431">
        <ele>59</ele>
        <time>2012-03-11T11:39:06Z</time>
      </trkpt>
      <trkpt lat="43.7794" lon="4.18436">
        <ele>59</ele>
        <time>2012-03-11T11:39:07Z</time>
      </trkpt>
      <trkpt lat="43.7794" lon="4.18441">
        <ele>59</ele>
        <time>2012-03-11T11:39:08Z</time>
      </trkpt>
      <trkpt lat="43.77941" lon="4.18447">
        <ele>59</ele>
        <time>2012-03-11T11:39:09Z</time>
      </trkpt>
      <trkpt lat="43.77942" lon="4.18453">
        <ele>59</ele>
        <time>2012-03-11T11:39:10Z</time>
      </trkpt>
      <trkpt lat="43.77943" lon="4.18458">
        <ele>59</ele>
        <time>2012-03-11T11:39:11Z</time>
      </trkpt>
      <trkpt lat="43.77944" lon="4.18464">
        <ele>59</ele>
        <time>2012-03-11T11:39:12Z</time>
      </trkpt>
      <trkpt lat="43.77945" lon="4.1847">
        <ele>59</ele>
        <time>2012-03-11T11:39:13Z</time>
      </trkpt>
      <trkpt lat="43.77946" lon="4.18476">
        <ele>59</ele>
        <time>2012-03-11T11:39:14Z</time>
      </trkpt>
      <trkpt lat="43.77947" lon="4.18482">
        <ele>59</ele>
        <time>2012-03-11T11:39:15Z</time>
      </trkpt>
      <trkpt lat="43.77948" lon="4.18488">
        <ele>59</ele>
        <time>2012-03-11T11:39:16Z</time>
      </trkpt>
      <trkpt lat="43.77949" lon="4.18494">
        <ele>59</ele>
        <time>2012-03-11T11:39:17Z</time>
      </trkpt>
      <trkpt lat="43.77949" lon="4.185">
        <ele>59</ele>
        <time>2012-03-11T11:39:18Z</time>
      </trkpt>
      <trkpt lat="43.7795" lon="4.18506">
        <ele>59</ele>
        <time>2012-03-11T11:39:19Z</time>
      </trkpt>
      <trkpt lat="43.7795" lon="4.18512">
        <ele>59</ele>
        <time>2012-03-11T11:39:20Z</time>
      </trkpt>
      <trkpt lat="43.77951" lon="4.18518">
        <ele>59</ele>
        <time>2012-03-11T11:39:21Z</time>
      </trkpt>
      <trkpt lat="43.77951" lon="4.18525">
        <ele>59</ele>
        <time>2012-03-11T11:39:22Z</time>
      </trkpt>
      <trkpt lat="43.77952" lon="4.18531">
        <ele>59</ele>
        <time>2012-03-11T11:39:23Z</time>
      </trkpt>
      <trkpt lat="43.77953" lon="4.18538">
        <ele>59</ele>
        <time>2012-03-11T11:39:24Z</time>
      </trkpt>
      <trkpt lat="43.77953" lon="4.18545">
        <ele>59</ele>
        <time>2012-03-11T11:39:25Z</time>
      </trkpt>
      <trkpt lat="43.77954" lon="4.18551">
        <ele>59</ele>
        <time>2012-03-11T11:39:26Z</time>
      </trkpt>
      <trkpt lat="43.77955" lon="4.18558">
        <ele>59</ele>
        <time>2012-03-11T11:39:27Z</time>
      </trkpt>
      <trkpt lat="43.77955" lon="4.18565">
        <ele>59</ele>
        <time>2012-03-11T11:39:28Z</time>
      </trkpt>
      <trkpt lat="43.77956" lon="4.18572">
        <ele>59</ele>
        <time>2012-03-11T11:39:29Z</time>
      </trkpt>
      <trkpt lat="43.77958" lon="4.18579">
        <ele>59</ele>
        <time>2012-03-11T11:39:30Z</time>
      </trkpt>
      <trkpt lat="43.7796" lon="4.18586">
        <ele>59</ele>
        <time>2012-03-11T11:39:31Z</time>
      </trkpt>
      <trkpt lat="43.77962" lon="4.18593">
        <ele>59</ele>
        <time>2012-03-11T11:39:32Z</time>
      </trkpt>
      <trkpt lat="43.77964" lon="4.186">
        <ele>59</ele>
        <time>2012-03-11T11:39:33Z</time>
      </trkpt>
      <trkpt lat="43.77967" lon="4.18607">
        <ele>59</ele>
        <time>2012-03-11T11:39:34Z</time>
      </trkpt>
      <trkpt lat="43.77969" lon="4.18614">
        <ele>59</ele>
        <time>2012-03-11T11:39:35Z</time>
      </trkpt>
      <trkpt lat="43.7797" lon="4.1862">
        <ele>59</ele>
        <time>2012-03-11T11:39:36Z</time>
      </trkpt>
      <trkpt lat="43.77972" lon="4.18626">
        <ele>59</ele>
        <time>2012-03-11T11:39:37Z</time>
      </trkpt>
      <trkpt lat="43.77974" lon="4.18632">
        <ele>59</ele>
        <time>2012-03-11T11:39:38Z</time>
      </trkpt>
      <trkpt lat="43.77976" lon="4.18637">
        <ele>59</ele>
        <time>2012-03-11T11:39:39Z</time>
      </trkpt>
      <trkpt lat="43.77978" lon="4.18643">
        <ele>59</ele>
        <time>2012-03-11T11:39:40Z</time>
      </trkpt>
      <trkpt lat="43.77979" lon="4.18648">
        <ele>59</ele>
        <time>2012-03-11T11:39:41Z</time>
      </trkpt>
      <trkpt lat="43.77981" lon="4.18653">
        <ele>59</ele>
        <time>2012-03-11T11:39:42Z</time>
      </trkpt>
      <trkpt lat="43.77983" lon="4.18658">
        <ele>59</ele>
        <time>2012-03-11T11:39:43Z</time>
      </trkpt>
      <trkpt lat="43.77984" lon="4.18664">
        <ele>59</ele>
        <time>2012-03-11T11:39:44Z</time>
      </trkpt>
      <trkpt lat="43.77986" lon="4.1867">
        <ele>59</ele>
        <time>2012-03-11T11:39:45Z</time>
      </trkpt>
      <trkpt lat="43.77988" lon="4.18677">
        <ele>59</ele>
        <time>2012-03-11T11:39:46Z</time>
      </trkpt>
      <trkpt lat="43.77989" lon="4.18683">
        <ele>59</ele>
        <time>2012-03-11T11:39:47Z</time>
      </trkpt>
      <trkpt lat="43.77991" lon="4.1869">
        <ele>59</ele>
        <time>2012-03-11T11:39:48Z</time>
      </trkpt>
      <trkpt lat="43.77992" lon="4.18698">
        <ele>59</ele>
        <time>2012-03-11T11:39:49Z</time>
      </trkpt>
      <trkpt lat="43.77994" lon="4.18705">
        <ele>59</ele>
        <time>2012-03-11T11:39:50Z</time>
      </trkpt>
      <trkpt lat="43.77996" lon="4.18711">
        <ele>59</ele>
        <time>2012-03-11T11:39:51Z</time>
      </trkpt>
      <trkpt lat="43.77998" lon="4.18718">
        <ele>59</ele>
        <time>2012-03-11T11:39:52Z</time>
      </trkpt>
      <trkpt lat="43.77999" lon="4.18726">
        <ele>59</ele>
        <time>2012-03-11T11:39:53Z</time>
      </trkpt>
      <trkpt lat="43.78" lon="4.18733">
        <ele>59</ele>
        <time>2012-03-11T11:39:54Z</time>
      </trkpt>
      <trkpt lat="43.78002" lon="4.18741">
        <ele>59</ele>
        <time>2012-03-11T11:39:55Z</time>
      </trkpt>
      <trkpt lat="43.78004" lon="4.18749">
        <ele>59</ele>
        <time>2012-03-11T11:39:56Z</time>
      </trkpt>
      <trkpt lat="43.78005" lon="4.18755">
        <ele>59</ele>
        <time>2012-03-11T11:39:57Z</time>
      </trkpt>
      <trkpt lat="43.78007" lon="4.18763">
        <ele>59</ele>
        <time>2012-03-11T11:39:58Z</time>
      </trkpt>
      <trkpt lat="43.7801" lon="4.1877">
        <ele>59</ele>
        <time>2012-03-11T11:39:59Z</time>
      </trkpt>
      <trkpt lat="43.78012" lon="4.18777">
        <ele>59</ele>
        <time>2012-03-11T11:40:00Z</time>
      </trkpt>
      <trkpt lat="43.78014" lon="4.18784">
        <ele>59</ele>
        <time>2012-03-11T11:40:01Z</time>
      </trkpt>
      <trkpt lat="43.78016" lon="4.18791">
        <ele>59</ele>
        <time>2012-03-11T11:40:02Z</time>
      </trkpt>
      <trkpt lat="43.78018" lon="4.18797">
        <ele>59</ele>
        <time>2012-03-11T11:40:03Z</time>
      </trkpt>
      <trkpt lat="43.78019" lon="4.18804">
        <ele>59</ele>
        <time>2012-03-11T11:40:04Z</time>
      </trkpt>
      <trkpt lat="43.78021" lon="4.1881">
        <ele>59</ele>
        <time>2012-03-11T11:40:05Z</time>
      </trkpt>
      <trkpt lat="43.78022" lon="4.18816">
        <ele>59</ele>
        <time>2012-03-11T11:40:06Z</time>
      </trkpt>
      <trkpt lat="43.78024" lon="4.18822">
        <ele>59</ele>
        <time>2012-03-11T11:40:07Z</time>
      </trkpt>
      <trkpt lat="43.78025" lon="4.18828">
        <ele>59</ele>
        <time>2012-03-11T11:40:08Z</time>
      </trkpt>
      <trkpt lat="43.78027" lon="4.18833">
        <ele>59</ele>
        <time>2012-03-11T11:40:09Z</time>
      </trkpt>
      <trkpt lat="43.78027" lon="4.18838">
        <ele>59</ele>
        <time>2012-03-11T11:40:10Z</time>
      </trkpt>
      <trkpt lat="43.78028" lon="4.18844">
        <ele>59</ele>
        <time>2012-03-11T11:40:11Z</time>
      </trkpt>
      <trkpt lat="43.7803" lon="4.1885">
        <ele>59</ele>
        <time>2012-03-11T11:40:12Z</time>
      </trkpt>
      <trkpt lat="43.78032" lon="4.18856">
        <ele>59</ele>
        <time>2012-03-11T11:40:13Z</time>
      </trkpt>
      <trkpt lat="43.78033" lon="4.18862">
        <ele>59</ele>
        <time>2012-03-11T11:40:14Z</time>
      </trkpt>
      <trkpt lat="43.78035" lon="4.18868">
        <ele>59</ele>
        <time>2012-03-11T11:40:15Z</time>
      </trkpt>
      <trkpt lat="43.78037" lon="4.18874">
        <ele>59</ele>
        <time>2012-03-11T11:40:16Z</time>
      </trkpt>
      <trkpt lat="43.78039" lon="4.18879">
        <ele>59</ele>
        <time>2012-03-11T11:40:17Z</time>
      </trkpt>
      <trkpt lat="43.78041" lon="4.18886">
        <ele>58</ele>
        <time>2012-03-11T11:40:18Z</time>
      </trkpt>
      <trkpt lat="43.78042" lon="4.18891">
        <ele>58</ele>
        <time>2012-03-11T11:40:19Z</time>
      </trkpt>
      <trkpt lat="43.78045" lon="4.18897">
        <ele>57</ele>
        <time>2012-03-11T11:40:20Z</time>
      </trkpt>
      <trkpt lat="43.78048" lon="4.18904">
        <ele>56</ele>
        <time>2012-03-11T11:40:21Z</time>
      </trkpt>
      <trkpt lat="43.78051" lon="4.1891">
        <ele>56</ele>
        <time>2012-03-11T11:40:22Z</time>
      </trkpt>
      <trkpt lat="43.78055" lon="4.18916">
        <ele>55</ele>
        <time>2012-03-11T11:40:23Z</time>
      </trkpt>
      <trkpt lat="43.78058" lon="4.18922">
        <ele>55</ele>
        <time>2012-03-11T11:40:24Z</time>
      </trkpt>
      <trkpt lat="43.78061" lon="4.18929">
        <ele>55</ele>
        <time>2012-03-11T11:40:25Z</time>
      </trkpt>
      <trkpt lat="43.78064" lon="4.18935">
        <ele>55</ele>
        <time>2012-03-11T11:40:26Z</time>
      </trkpt>
      <trkpt lat="43.78067" lon="4.18942">
        <ele>55</ele>
        <time>2012-03-11T11:40:27Z</time>
      </trkpt>
      <trkpt lat="43.7807" lon="4.18948">
        <ele>55</ele>
        <time>2012-03-11T11:40:28Z</time>
      </trkpt>
      <trkpt lat="43.78074" lon="4.18954">
        <ele>55</ele>
        <time>2012-03-11T11:40:29Z</time>
      </trkpt>
      <trkpt lat="43.78077" lon="4.1896">
        <ele>55</ele>
        <time>2012-03-11T11:40:30Z</time>
      </trkpt>
      <trkpt lat="43.7808" lon="4.18965">
        <ele>55</ele>
        <time>2012-03-11T11:40:31Z</time>
      </trkpt>
      <trkpt lat="43.78084" lon="4.18969">
        <ele>55</ele>
        <time>2012-03-11T11:40:32Z</time>
      </trkpt>
      <trkpt lat="43.78087" lon="4.18973">
        <ele>55</ele>
        <time>2012-03-11T11:40:33Z</time>
      </trkpt>
      <trkpt lat="43.78091" lon="4.18976">
        <ele>55</ele>
        <time>2012-03-11T11:40:34Z</time>
      </trkpt>
      <trkpt lat="43.78094" lon="4.18978">
        <ele>55</ele>
        <time>2012-03-11T11:40:35Z</time>
      </trkpt>
      <trkpt lat="43.78098" lon="4.18981">
        <ele>55</ele>
        <time>2012-03-11T11:40:36Z</time>
      </trkpt>
      <trkpt lat="43.78102" lon="4.18982">
        <ele>55</ele>
        <time>2012-03-11T11:40:37Z</time>
      </trkpt>
      <trkpt lat="43.78106" lon="4.18984">
        <ele>55</ele>
        <time>2012-03-11T11:40:38Z</time>
      </trkpt>
      <trkpt lat="43.78109" lon="4.18985">
        <ele>55</ele>
        <time>2012-03-11T11:40:39Z</time>
      </trkpt>
      <trkpt lat="43.78112" lon="4.18986">
        <ele>55</ele>
        <time>2012-03-11T11:40:40Z</time>
      </trkpt>
      <trkpt lat="43.78116" lon="4.18988">
        <ele>55</ele>
        <time>2012-03-11T11:40:41Z</time>
      </trkpt>
      <trkpt lat="43.78118" lon="4.18989">
        <ele>55</ele>
        <time>2012-03-11T11:40:42Z</time>
      </trkpt>
      <trkpt lat="43.78121" lon="4.18991">
        <ele>55</ele>
        <time>2012-03-11T11:40:43Z</time>
      </trkpt>
      <trkpt lat="43.78124" lon="4.18992">
        <ele>55</ele>
        <time>2012-03-11T11:40:44Z</time>
      </trkpt>
      <trkpt lat="43.78127" lon="4.18993">
        <ele>55</ele>
        <time>2012-03-11T11:40:45Z</time>
      </trkpt>
      <trkpt lat="43.78129" lon="4.18994">
        <ele>55</ele>
        <time>2012-03-11T11:40:46Z</time>
      </trkpt>
      <trkpt lat="43.78132" lon="4.18995">
        <ele>55</ele>
        <time>2012-03-11T11:40:47Z</time>
      </trkpt>
      <trkpt lat="43.78134" lon="4.18995">
        <ele>55</ele>
        <time>2012-03-11T11:40:48Z</time>
      </trkpt>
      <trkpt lat="43.78137" lon="4.18996">
        <ele>55</ele>
        <time>2012-03-11T11:40:49Z</time>
      </trkpt>
      <trkpt lat="43.78139" lon="4.18998">
        <ele>55</ele>
        <time>2012-03-11T11:40:50Z</time>
      </trkpt>
      <trkpt lat="43.78142" lon="4.18998">
        <ele>55</ele>
        <time>2012-03-11T11:40:51Z</time>
      </trkpt>
      <trkpt lat="43.78144" lon="4.19">
        <ele>55</ele>
        <time>2012-03-11T11:40:52Z</time>
      </trkpt>
      <trkpt lat="43.78146" lon="4.19001">
        <ele>55</ele>
        <time>2012-03-11T11:40:53Z</time>
      </trkpt>
      <trkpt lat="43.78149" lon="4.19003">
        <ele>55</ele>
        <time>2012-03-11T11:40:54Z</time>
      </trkpt>
      <trkpt lat="43.78151" lon="4.19005">
        <ele>55</ele>
        <time>2012-03-11T11:40:55Z</time>
      </trkpt>
      <trkpt lat="43.78153" lon="4.19006">
        <ele>55</ele>
        <time>2012-03-11T11:40:56Z</time>
      </trkpt>
      <trkpt lat="43.78155" lon="4.19008">
        <ele>55</ele>
        <time>2012-03-11T11:40:57Z</time>
      </trkpt>
      <trkpt lat="43.78157" lon="4.19009">
        <ele>55</ele>
        <time>2012-03-11T11:40:58Z</time>
      </trkpt>
      <trkpt lat="43.7816" lon="4.19011">
        <ele>55</ele>
        <time>2012-03-11T11:40:59Z</time>
      </trkpt>
      <trkpt lat="43.78162" lon="4.19012">
        <ele>55</ele>
        <time>2012-03-11T11:41:00Z</time>
      </trkpt>
      <trkpt lat="43.78165" lon="4.19013">
        <ele>55</ele>
        <time>2012-03-11T11:41:01Z</time>
      </trkpt>
      <trkpt lat="43.78167" lon="4.19015">
        <ele>55</ele>
        <time>2012-03-11T11:41:02Z</time>
      </trkpt>
      <trkpt lat="43.78169" lon="4.19015">
        <ele>55</ele>
        <time>2012-03-11T11:41:03Z</time>
      </trkpt>
      <trkpt lat="43.78171" lon="4.19016">
        <ele>55</ele>
        <time>2012-03-11T11:41:04Z</time>
      </trkpt>
      <trkpt lat="43.78173" lon="4.19016">
        <ele>56</ele>
        <time>2012-03-11T11:41:05Z</time>
      </trkpt>
      <trkpt lat="43.78175" lon="4.19017">
        <ele>56</ele>
        <time>2012-03-11T11:41:06Z</time>
      </trkpt>
      <trkpt lat="43.78177" lon="4.19018">
        <ele>56</ele>
        <time>2012-03-11T11:41:07Z</time>
      </trkpt>
      <trkpt lat="43.78179" lon="4.19018">
        <ele>56</ele>
        <time>2012-03-11T11:41:08Z</time>
      </trkpt>
      <trkpt lat="43.78181" lon="4.19019">
        <ele>56</ele>
        <time>2012-03-11T11:41:09Z</time>
      </trkpt>
      <trkpt lat="43.78183" lon="4.19019">
        <ele>56</ele>
        <time>2012-03-11T11:41:10Z</time>
      </trkpt>
      <trkpt lat="43.78184" lon="4.1902">
        <ele>56</ele>
        <time>2012-03-11T11:41:11Z</time>
      </trkpt>
      <trkpt lat="43.78186" lon="4.1902">
        <ele>56</ele>
        <time>2012-03-11T11:41:12Z</time>
      </trkpt>
      <trkpt lat="43.78188" lon="4.1902">
        <ele>56</ele>
        <time>2012-03-11T11:41:13Z</time>
      </trkpt>
      <trkpt lat="43.7819" lon="4.19021">
        <ele>56</ele>
        <time>2012-03-11T11:41:14Z</time>
      </trkpt>
      <trkpt lat="43.78191" lon="4.19021">
        <ele>56</ele>
        <time>2012-03-11T11:41:15Z</time>
      </trkpt>
      <trkpt lat="43.78193" lon="4.19021">
        <ele>56</ele>
        <time>2012-03-11T11:41:16Z</time>
      </trkpt>
      <trkpt lat="43.78195" lon="4.19021">
        <ele>56</ele>
        <time>2012-03-11T11:41:17Z</time>
      </trkpt>
      <trkpt lat="43.78196" lon="4.19021">
        <ele>56</ele>
        <time>2012-03-11T11:41:18Z</time>
      </trkpt>
      <trkpt lat="43.78199" lon="4.19022">
        <ele>56</ele>
        <time>2012-03-11T11:41:19Z</time>
      </trkpt>
      <trkpt lat="43.782" lon="4.19022">
        <ele>56</ele>
        <time>2012-03-11T11:41:20Z</time>
      </trkpt>
      <trkpt lat="43.78202" lon="4.19022">
        <ele>56</ele>
        <time>2012-03-11T11:41:21Z</time>
      </trkpt>
      <trkpt lat="43.78204" lon="4.19022">
        <ele>56</ele>
        <time>2012-03-11T11:41:22Z</time>
      </trkpt>
      <trkpt lat="43.78205" lon="4.19023">
        <ele>57</ele>
        <time>2012-03-11T11:41:23Z</time>
      </trkpt>
      <trkpt lat="43.78207" lon="4.19024">
        <ele>57</ele>
        <time>2012-03-11T11:41:24Z</time>
      </trkpt>
      <trkpt lat="43.78209" lon="4.19024">
        <ele>58</ele>
        <time>2012-03-11T11:41:25Z</time>
      </trkpt>
      <trkpt lat="43.78211" lon="4.19024">
        <ele>59</ele>
        <time>2012-03-11T11:41:26Z</time>
      </trkpt>
      <trkpt lat="43.78212" lon="4.19025">
        <ele>60</ele>
        <time>2012-03-11T11:41:27Z</time>
      </trkpt>
      <trkpt lat="43.78214" lon="4.19025">
        <ele>61</ele>
        <time>2012-03-11T11:41:28Z</time>
      </trkpt>
      <trkpt lat="43.78216" lon="4.19026">
        <ele>61</ele>
        <time>2012-03-11T11:41:29Z</time>
      </trkpt>
      <trkpt lat="43.78217" lon="4.19026">
        <ele>61</ele>
        <time>2012-03-11T11:41:30Z</time>
      </trkpt>
      <trkpt lat="43.78219" lon="4.19026">
        <ele>62</ele>
        <time>2012-03-11T11:41:31Z</time>
      </trkpt>
      <trkpt lat="43.7822" lon="4.19027">
        <ele>62</ele>
        <time>2012-03-11T11:41:32Z</time>
      </trkpt>
      <trkpt lat="43.78222" lon="4.19027">
        <ele>63</ele>
        <time>2012-03-11T11:41:33Z</time>
      </trkpt>
      <trkpt lat="43.78224" lon="4.19027">
        <ele>63</ele>
        <time>2012-03-11T11:41:34Z</time>
      </trkpt>
      <trkpt lat="43.78225" lon="4.19027">
        <ele>63</ele>
        <time>2012-03-11T11:41:35Z</time>
      </trkpt>
      <trkpt lat="43.78227" lon="4.19026">
        <ele>64</ele>
        <time>2012-03-11T11:41:36Z</time>
      </trkpt>
      <trkpt lat="43.78228" lon="4.19026">
        <ele>64</ele>
        <time>2012-03-11T11:41:37Z</time>
      </trkpt>
      <trkpt lat="43.7823" lon="4.19026">
        <ele>64</ele>
        <time>2012-03-11T11:41:38Z</time>
      </trkpt>
      <trkpt lat="43.78232" lon="4.19027">
        <ele>64</ele>
        <time>2012-03-11T11:41:39Z</time>
      </trkpt>
      <trkpt lat="43.78233" lon="4.19027">
        <ele>64</ele>
        <time>2012-03-11T11:41:40Z</time>
      </trkpt>
      <trkpt lat="43.78235" lon="4.19027">
        <ele>64</ele>
        <time>2012-03-11T11:41:41Z</time>
      </trkpt>
      <trkpt lat="43.78236" lon="4.19027">
        <ele>64</ele>
        <time>2012-03-11T11:41:42Z</time>
      </trkpt>
      <trkpt lat="43.78238" lon="4.19028">
        <ele>64</ele>
        <time>2012-03-11T11:41:43Z</time>
      </trkpt>
      <trkpt lat="43.78239" lon="4.19028">
        <ele>64</ele>
        <time>2012-03-11T11:41:44Z</time>
      </trkpt>
      <trkpt lat="43.78241" lon="4.19029">
        <ele>64</ele>
        <time>2012-03-11T11:41:45Z</time>
      </trkpt>
      <trkpt lat="43.78243" lon="4.19029">
        <ele>65</ele>
        <time>2012-03-11T11:41:46Z</time>
      </trkpt>
      <trkpt lat="43.78244" lon="4.1903">
        <ele>65</ele>
        <time>2012-03-11T11:41:47Z</time>
      </trkpt>
      <trkpt lat="43.78246" lon="4.19029">
        <ele>66</ele>
        <time>2012-03-11T11:41:48Z</time>
      </trkpt>
      <trkpt lat="43.78247" lon="4.19029">
        <ele>66</ele>
        <time>2012-03-11T11:41:49Z</time>
      </trkpt>
      <trkpt lat="43.78249" lon="4.19029">
        <ele>66</ele>
        <time>2012-03-11T11:41:50Z</time>
      </trkpt>
      <trkpt lat="43.7825" lon="4.19029">
        <ele>66</ele>
        <time>2012-03-11T11:41:51Z</time>
      </trkpt>
      <trkpt lat="43.78252" lon="4.19029">
        <ele>66</ele>
        <time>2012-03-11T11:41:52Z</time>
      </trkpt>
      <trkpt lat="43.78254" lon="4.19029">
        <ele>66</ele>
        <time>2012-03-11T11:41:53Z</time>
      </trkpt>
      <trkpt lat="43.78255" lon="4.19029">
        <ele>66</ele>
        <time>2012-03-11T11:41:54Z</time>
      </trkpt>
      <trkpt lat="43.78257" lon="4.19029">
        <ele>66</ele>
        <time>2012-03-11T11:41:55Z</time>
      </trkpt>
      <trkpt lat="43.78259" lon="4.19028">
        <ele>66</ele>
        <time>2012-03-11T11:41:56Z</time>
      </trkpt>
      <trkpt lat="43.7826" lon="4.19027">
        <ele>67</ele>
        <time>2012-03-11T11:41:57Z</time>
      </trkpt>
      <trkpt lat="43.78261" lon="4.19026">
        <ele>67</ele>
        <time>2012-03-11T11:41:58Z</time>
      </trkpt>
      <trkpt lat="43.78262" lon="4.19026">
        <ele>68</ele>
        <time>2012-03-11T11:41:59Z</time>
      </trkpt>
      <trkpt lat="43.78264" lon="4.19026">
        <ele>68</ele>
        <time>2012-03-11T11:42:00Z</time>
      </trkpt>
      <trkpt lat="43.78265" lon="4.19025">
        <ele>68</ele>
        <time>2012-03-11T11:42:01Z</time>
      </trkpt>
      <trkpt lat="43.78267" lon="4.19023">
        <ele>69</ele>
        <time>2012-03-11T11:42:03Z</time>
      </trkpt>
      <trkpt lat="43.78268" lon="4.19021">
        <ele>69</ele>
        <time>2012-03-11T11:42:04Z</time>
      </trkpt>
      <trkpt lat="43.78269" lon="4.19019">
        <ele>69</ele>
        <time>2012-03-11T11:42:05Z</time>
      </trkpt>
      <trkpt lat="43.7827" lon="4.19017">
        <ele>69</ele>
        <time>2012-03-11T11:42:06Z</time>
      </trkpt>
      <trkpt lat="43.78272" lon="4.19015">
        <ele>69</ele>
        <time>2012-03-11T11:42:07Z</time>
      </trkpt>
      <trkpt lat="43.78274" lon="4.19013">
        <ele>69</ele>
        <time>2012-03-11T11:42:08Z</time>
      </trkpt>
      <trkpt lat="43.78275" lon="4.19011">
        <ele>69</ele>
        <time>2012-03-11T11:42:09Z</time>
      </trkpt>
      <trkpt lat="43.78277" lon="4.1901">
        <ele>69</ele>
        <time>2012-03-11T11:42:10Z</time>
      </trkpt>
      <trkpt lat="43.78278" lon="4.19008">
        <ele>69</ele>
        <time>2012-03-11T11:42:11Z</time>
      </trkpt>
      <trkpt lat="43.78279" lon="4.19007">
        <ele>69</ele>
        <time>2012-03-11T11:42:12Z</time>
      </trkpt>
      <trkpt lat="43.7828" lon="4.19005">
        <ele>69</ele>
        <time>2012-03-11T11:42:13Z</time>
      </trkpt>
      <trkpt lat="43.78281" lon="4.19004">
        <ele>69</ele>
        <time>2012-03-11T11:42:14Z</time>
      </trkpt>
      <trkpt lat="43.78281" lon="4.19002">
        <ele>69</ele>
        <time>2012-03-11T11:42:15Z</time>
      </trkpt>
      <trkpt lat="43.78283" lon="4.19">
        <ele>69</ele>
        <time>2012-03-11T11:42:16Z</time>
      </trkpt>
      <trkpt lat="43.78284" lon="4.18998">
        <ele>70</ele>
        <time>2012-03-11T11:42:17Z</time>
      </trkpt>
      <trkpt lat="43.78285" lon="4.18996">
        <ele>70</ele>
        <time>2012-03-11T11:42:18Z</time>
      </trkpt>
      <trkpt lat="43.78287" lon="4.18995">
        <ele>70</ele>
        <time>2012-03-11T11:42:19Z</time>
      </trkpt>
      <trkpt lat="43.78289" lon="4.18994">
        <ele>70</ele>
        <time>2012-03-11T11:42:20Z</time>
      </trkpt>
      <trkpt lat="43.78291" lon="4.18993">
        <ele>71</ele>
        <time>2012-03-11T11:42:21Z</time>
      </trkpt>
      <trkpt lat="43.78293" lon="4.18991">
        <ele>71</ele>
        <time>2012-03-11T11:42:22Z</time>
      </trkpt>
      <trkpt lat="43.78295" lon="4.1899">
        <ele>71</ele>
        <time>2012-03-11T11:42:23Z</time>
      </trkpt>
      <trkpt lat="43.78298" lon="4.18987">
        <ele>71</ele>
        <time>2012-03-11T11:42:24Z</time>
      </trkpt>
      <trkpt lat="43.783" lon="4.18985">
        <ele>71</ele>
        <time>2012-03-11T11:42:25Z</time>
      </trkpt>
      <trkpt lat="43.78302" lon="4.18983">
        <ele>71</ele>
        <time>2012-03-11T11:42:26Z</time>
      </trkpt>
      <trkpt lat="43.78305" lon="4.18981">
        <ele>71</ele>
        <time>2012-03-11T11:42:27Z</time>
      </trkpt>
      <trkpt lat="43.78307" lon="4.18979">
        <ele>71</ele>
        <time>2012-03-11T11:42:28Z</time>
      </trkpt>
      <trkpt lat="43.78309" lon="4.18976">
        <ele>71</ele>
        <time>2012-03-11T11:42:29Z</time>
      </trkpt>
      <trkpt lat="43.78311" lon="4.18974">
        <ele>71</ele>
        <time>2012-03-11T11:42:30Z</time>
      </trkpt>
      <trkpt lat="43.78313" lon="4.1897">
        <ele>71</ele>
        <time>2012-03-11T11:42:31Z</time>
      </trkpt>
      <trkpt lat="43.78315" lon="4.18966">
        <ele>71</ele>
        <time>2012-03-11T11:42:32Z</time>
      </trkpt>
      <trkpt lat="43.78317" lon="4.18962">
        <ele>71</ele>
        <time>2012-03-11T11:42:33Z</time>
      </trkpt>
      <trkpt lat="43.7832" lon="4.18958">
        <ele>71</ele>
        <time>2012-03-11T11:42:34Z</time>
      </trkpt>
      <trkpt lat="43.78323" lon="4.18954">
        <ele>71</ele>
        <time>2012-03-11T11:42:35Z</time>
      </trkpt>
      <trkpt lat="43.78325" lon="4.1895">
        <ele>71</ele>
        <time>2012-03-11T11:42:36Z</time>
      </trkpt>
      <trkpt lat="43.78327" lon="4.18946">
        <ele>71</ele>
        <time>2012-03-11T11:42:37Z</time>
      </trkpt>
      <trkpt lat="43.7833" lon="4.18942">
        <ele>71</ele>
        <time>2012-03-11T11:42:38Z</time>
      </trkpt>
      <trkpt lat="43.78333" lon="4.18937">
        <ele>71</ele>
        <time>2012-03-11T11:42:39Z</time>
      </trkpt>
      <trkpt lat="43.78336" lon="4.18934">
        <ele>71</ele>
        <time>2012-03-11T11:42:40Z</time>
      </trkpt>
      <trkpt lat="43.78339" lon="4.1893">
        <ele>71</ele>
        <time>2012-03-11T11:42:41Z</time>
      </trkpt>
      <trkpt lat="43.78342" lon="4.18926">
        <ele>71</ele>
        <time>2012-03-11T11:42:42Z</time>
      </trkpt>
      <trkpt lat="43.78345" lon="4.18922">
        <ele>72</ele>
        <time>2012-03-11T11:42:43Z</time>
      </trkpt>
      <trkpt lat="43.78348" lon="4.18919">
        <ele>72</ele>
        <time>2012-03-11T11:42:44Z</time>
      </trkpt>
      <trkpt lat="43.78352" lon="4.18915">
        <ele>72</ele>
        <time>2012-03-11T11:42:45Z</time>
      </trkpt>
      <trkpt lat="43.78355" lon="4.18912">
        <ele>73</ele>
        <time>2012-03-11T11:42:46Z</time>
      </trkpt>
      <trkpt lat="43.78359" lon="4.18909">
        <ele>73</ele>
        <time>2012-03-11T11:42:47Z</time>
      </trkpt>
      <trkpt lat="43.78363" lon="4.18904">
        <ele>73</ele>
        <time>2012-03-11T11:42:48Z</time>
      </trkpt>
      <trkpt lat="43.78367" lon="4.18899">
        <ele>73</ele>
        <time>2012-03-11T11:42:49Z</time>
      </trkpt>
      <trkpt lat="43.78371" lon="4.18894">
        <ele>73</ele>
        <time>2012-03-11T11:42:50Z</time>
      </trkpt>
      <trkpt lat="43.78376" lon="4.18889">
        <ele>73</ele>
        <time>2012-03-11T11:42:51Z</time>
      </trkpt>
      <trkpt lat="43.78381" lon="4.18883">
        <ele>73</ele>
        <time>2012-03-11T11:42:52Z</time>
      </trkpt>
      <trkpt lat="43.78386" lon="4.18879">
        <ele>72</ele>
        <time>2012-03-11T11:42:53Z</time>
      </trkpt>
      <trkpt lat="43.78391" lon="4.18871">
        <ele>71</ele>
        <time>2012-03-11T11:42:54Z</time>
      </trkpt>
      <trkpt lat="43.78396" lon="4.18864">
        <ele>70</ele>
        <time>2012-03-11T11:42:55Z</time>
      </trkpt>
      <trkpt lat="43.78401" lon="4.18856">
        <ele>69</ele>
        <time>2012-03-11T11:42:56Z</time>
      </trkpt>
      <trkpt lat="43.78406" lon="4.1885">
        <ele>68</ele>
        <time>2012-03-11T11:42:57Z</time>
      </trkpt>
      <trkpt lat="43.78411" lon="4.18843">
        <ele>67</ele>
        <time>2012-03-11T11:42:58Z</time>
      </trkpt>
      <trkpt lat="43.78414" lon="4.18834">
        <ele>66</ele>
        <time>2012-03-11T11:42:59Z</time>
      </trkpt>
      <trkpt lat="43.78417" lon="4.18826">
        <ele>65</ele>
        <time>2012-03-11T11:43:00Z</time>
      </trkpt>
      <trkpt lat="43.78418" lon="4.18819">
        <ele>64</ele>
        <time>2012-03-11T11:43:01Z</time>
      </trkpt>
      <trkpt lat="43.78419" lon="4.18814">
        <ele>63</ele>
        <time>2012-03-11T11:43:02Z</time>
      </trkpt>
      <trkpt lat="43.78421" lon="4.18811">
        <ele>62</ele>
        <time>2012-03-11T11:43:03Z</time>
      </trkpt>
      <trkpt lat="43.7842" lon="4.18807">
        <ele>62</ele>
        <time>2012-03-11T11:43:04Z</time>
      </trkpt>
      <trkpt lat="43.7842" lon="4.18803">
        <ele>62</ele>
        <time>2012-03-11T11:43:05Z</time>
      </trkpt>
      <trkpt lat="43.7842" lon="4.18799">
        <ele>62</ele>
        <time>2012-03-11T11:43:06Z</time>
      </trkpt>
      <trkpt lat="43.78421" lon="4.18795">
        <ele>62</ele>
        <time>2012-03-11T11:43:07Z</time>
      </trkpt>
      <trkpt lat="43.78422" lon="4.1879">
        <ele>62</ele>
        <time>2012-03-11T11:43:08Z</time>
      </trkpt>
      <trkpt lat="43.78423" lon="4.18785">
        <ele>62</ele>
        <time>2012-03-11T11:43:09Z</time>
      </trkpt>
      <trkpt lat="43.78423" lon="4.18778">
        <ele>61</ele>
        <time>2012-03-11T11:43:10Z</time>
      </trkpt>
      <trkpt lat="43.78424" lon="4.18771">
        <ele>61</ele>
        <time>2012-03-11T11:43:11Z</time>
      </trkpt>
      <trkpt lat="43.78425" lon="4.18764">
        <ele>61</ele>
        <time>2012-03-11T11:43:12Z</time>
      </trkpt>
      <trkpt lat="43.78426" lon="4.18757">
        <ele>61</ele>
        <time>2012-03-11T11:43:13Z</time>
      </trkpt>
      <trkpt lat="43.78428" lon="4.1875">
        <ele>60</ele>
        <time>2012-03-11T11:43:14Z</time>
      </trkpt>
      <trkpt lat="43.78429" lon="4.18744">
        <ele>60</ele>
        <time>2012-03-11T11:43:15Z</time>
      </trkpt>
      <trkpt lat="43.7843" lon="4.18739">
        <ele>60</ele>
        <time>2012-03-11T11:43:16Z</time>
      </trkpt>
      <trkpt lat="43.78431" lon="4.18734">
        <ele>60</ele>
        <time>2012-03-11T11:43:17Z</time>
      </trkpt>
      <trkpt lat="43.78432" lon="4.1873">
        <ele>60</ele>
        <time>2012-03-11T11:43:18Z</time>
      </trkpt>
      <trkpt lat="43.78433" lon="4.18727">
        <ele>60</ele>
        <time>2012-03-11T11:43:19Z</time>
      </trkpt>
      <trkpt lat="43.78434" lon="4.18724">
        <ele>60</ele>
        <time>2012-03-11T11:43:20Z</time>
      </trkpt>
      <trkpt lat="43.78434" lon="4.18721">
        <ele>60</ele>
        <time>2012-03-11T11:43:21Z</time>
      </trkpt>
      <trkpt lat="43.78435" lon="4.18719">
        <ele>60</ele>
        <time>2012-03-11T11:43:22Z</time>
      </trkpt>
      <trkpt lat="43.78436" lon="4.18716">
        <ele>60</ele>
        <time>2012-03-11T11:43:23Z</time>
      </trkpt>
      <trkpt lat="43.78437" lon="4.18713">
        <ele>60</ele>
        <time>2012-03-11T11:43:24Z</time>
      </trkpt>
      <trkpt lat="43.78439" lon="4.18711">
        <ele>60</ele>
        <time>2012-03-11T11:43:25Z</time>
      </trkpt>
      <trkpt lat="43.7844" lon="4.18708">
        <ele>61</ele>
        <time>2012-03-11T11:43:26Z</time>
      </trkpt>
      <trkpt lat="43.78441" lon="4.18705">
        <ele>61</ele>
        <time>2012-03-11T11:43:27Z</time>
      </trkpt>
      <trkpt lat="43.78442" lon="4.18703">
        <ele>62</ele>
        <time>2012-03-11T11:43:28Z</time>
      </trkpt>
      <trkpt lat="43.78444" lon="4.187">
        <ele>62</ele>
        <time>2012-03-11T11:43:29Z</time>
      </trkpt>
      <trkpt lat="43.78445" lon="4.18698">
        <ele>62</ele>
        <time>2012-03-11T11:43:30Z</time>
      </trkpt>
      <trkpt lat="43.78446" lon="4.18695">
        <ele>63</ele>
        <time>2012-03-11T11:43:31Z</time>
      </trkpt>
      <trkpt lat="43.78448" lon="4.18693">
        <ele>63</ele>
        <time>2012-03-11T11:43:32Z</time>
      </trkpt>
      <trkpt lat="43.78449" lon="4.18691">
        <ele>64</ele>
        <time>2012-03-11T11:43:33Z</time>
      </trkpt>
      <trkpt lat="43.7845" lon="4.18689">
        <ele>64</ele>
        <time>2012-03-11T11:43:34Z</time>
      </trkpt>
      <trkpt lat="43.78452" lon="4.18686">
        <ele>65</ele>
        <time>2012-03-11T11:43:35Z</time>
      </trkpt>
      <trkpt lat="43.78453" lon="4.18684">
        <ele>65</ele>
        <time>2012-03-11T11:43:36Z</time>
      </trkpt>
      <trkpt lat="43.78455" lon="4.18682">
        <ele>65</ele>
        <time>2012-03-11T11:43:37Z</time>
      </trkpt>
      <trkpt lat="43.78456" lon="4.1868">
        <ele>65</ele>
        <time>2012-03-11T11:43:38Z</time>
      </trkpt>
      <trkpt lat="43.78458" lon="4.18678">
        <ele>65</ele>
        <time>2012-03-11T11:43:39Z</time>
      </trkpt>
      <trkpt lat="43.7846" lon="4.18676">
        <ele>65</ele>
        <time>2012-03-11T11:43:40Z</time>
      </trkpt>
      <trkpt lat="43.78461" lon="4.18674">
        <ele>65</ele>
        <time>2012-03-11T11:43:41Z</time>
      </trkpt>
      <trkpt lat="43.78463" lon="4.18672">
        <ele>65</ele>
        <time>2012-03-11T11:43:42Z</time>
      </trkpt>
      <trkpt lat="43.78465" lon="4.18669">
        <ele>65</ele>
        <time>2012-03-11T11:43:43Z</time>
      </trkpt>
      <trkpt lat="43.78467" lon="4.18667">
        <ele>65</ele>
        <time>2012-03-11T11:43:44Z</time>
      </trkpt>
      <trkpt lat="43.78469" lon="4.18665">
        <ele>65</ele>
        <time>2012-03-11T11:43:45Z</time>
      </trkpt>
      <trkpt lat="43.78471" lon="4.18662">
        <ele>65</ele>
        <time>2012-03-11T11:43:46Z</time>
      </trkpt>
      <trkpt lat="43.78473" lon="4.18661">
        <ele>65</ele>
        <time>2012-03-11T11:43:47Z</time>
      </trkpt>
      <trkpt lat="43.78476" lon="4.18659">
        <ele>65</ele>
        <time>2012-03-11T11:43:48Z</time>
      </trkpt>
      <trkpt lat="43.78477" lon="4.18657">
        <ele>65</ele>
        <time>2012-03-11T11:43:49Z</time>
      </trkpt>
      <trkpt lat="43.78479" lon="4.18655">
        <ele>65</ele>
        <time>2012-03-11T11:43:50Z</time>
      </trkpt>
      <trkpt lat="43.78482" lon="4.18652">
        <ele>65</ele>
        <time>2012-03-11T11:43:51Z</time>
      </trkpt>
      <trkpt lat="43.78484" lon="4.18649">
        <ele>65</ele>
        <time>2012-03-11T11:43:52Z</time>
      </trkpt>
      <trkpt lat="43.78486" lon="4.18646">
        <ele>65</ele>
        <time>2012-03-11T11:43:53Z</time>
      </trkpt>
      <trkpt lat="43.78487" lon="4.18643">
        <ele>65</ele>
        <time>2012-03-11T11:43:54Z</time>
      </trkpt>
      <trkpt lat="43.78489" lon="4.1864">
        <ele>65</ele>
        <time>2012-03-11T11:43:55Z</time>
      </trkpt>
      <trkpt lat="43.7849" lon="4.18637">
        <ele>65</ele>
        <time>2012-03-11T11:43:56Z</time>
      </trkpt>
      <trkpt lat="43.78491" lon="4.18633">
        <ele>65</ele>
        <time>2012-03-11T11:43:57Z</time>
      </trkpt>
      <trkpt lat="43.78492" lon="4.1863">
        <ele>65</ele>
        <time>2012-03-11T11:43:58Z</time>
      </trkpt>
      <trkpt lat="43.78493" lon="4.18627">
        <ele>65</ele>
        <time>2012-03-11T11:43:59Z</time>
      </trkpt>
      <trkpt lat="43.78494" lon="4.18624">
        <ele>65</ele>
        <time>2012-03-11T11:44:00Z</time>
      </trkpt>
      <trkpt lat="43.78495" lon="4.18621">
        <ele>65</ele>
        <time>2012-03-11T11:44:01Z</time>
      </trkpt>
      <trkpt lat="43.78495" lon="4.18618">
        <ele>65</ele>
        <time>2012-03-11T11:44:02Z</time>
      </trkpt>
      <trkpt lat="43.78495" lon="4.18615">
        <ele>65</ele>
        <time>2012-03-11T11:44:03Z</time>
      </trkpt>
      <trkpt lat="43.78495" lon="4.18614">
        <ele>65</ele>
        <time>2012-03-11T11:44:04Z</time>
      </trkpt>
      <trkpt lat="43.78497" lon="4.1861">
        <ele>66</ele>
        <time>2012-03-11T11:44:05Z</time>
      </trkpt>
      <trkpt lat="43.78497" lon="4.18608">
        <ele>67</ele>
        <time>2012-03-11T11:44:06Z</time>
      </trkpt>
      <trkpt lat="43.78498" lon="4.18605">
        <ele>68</ele>
        <time>2012-03-11T11:44:07Z</time>
      </trkpt>
      <trkpt lat="43.78499" lon="4.18603">
        <ele>68</ele>
        <time>2012-03-11T11:44:08Z</time>
      </trkpt>
      <trkpt lat="43.785" lon="4.186">
        <ele>68</ele>
        <time>2012-03-11T11:44:09Z</time>
      </trkpt>
      <trkpt lat="43.78501" lon="4.18598">
        <ele>68</ele>
        <time>2012-03-11T11:44:10Z</time>
      </trkpt>
      <trkpt lat="43.78503" lon="4.18595">
        <ele>68</ele>
        <time>2012-03-11T11:44:11Z</time>
      </trkpt>
      <trkpt lat="43.78504" lon="4.18593">
        <ele>68</ele>
        <time>2012-03-11T11:44:12Z</time>
      </trkpt>
      <trkpt lat="43.78505" lon="4.1859">
        <ele>68</ele>
        <time>2012-03-11T11:44:13Z</time>
      </trkpt>
      <trkpt lat="43.78506" lon="4.18587">
        <ele>68</ele>
        <time>2012-03-11T11:44:14Z</time>
      </trkpt>
      <trkpt lat="43.78507" lon="4.18584">
        <ele>68</ele>
        <time>2012-03-11T11:44:15Z</time>
      </trkpt>
      <trkpt lat="43.78508" lon="4.1858">
        <ele>68</ele>
        <time>2012-03-11T11:44:16Z</time>
      </trkpt>
      <trkpt lat="43.7851" lon="4.18576">
        <ele>68</ele>
        <time>2012-03-11T11:44:17Z</time>
      </trkpt>
      <trkpt lat="43.78511" lon="4.18571">
        <ele>68</ele>
        <time>2012-03-11T11:44:18Z</time>
      </trkpt>
      <trkpt lat="43.78514" lon="4.18565">
        <ele>68</ele>
        <time>2012-03-11T11:44:19Z</time>
      </trkpt>
      <trkpt lat="43.78517" lon="4.18559">
        <ele>68</ele>
        <time>2012-03-11T11:44:20Z</time>
      </trkpt>
      <trkpt lat="43.78521" lon="4.18552">
        <ele>68</ele>
        <time>2012-03-11T11:44:21Z</time>
      </trkpt>
      <trkpt lat="43.78524" lon="4.18543">
        <ele>68</ele>
        <time>2012-03-11T11:44:22Z</time>
      </trkpt>
      <trkpt lat="43.78529" lon="4.18534">
        <ele>68</ele>
        <time>2012-03-11T11:44:23Z</time>
      </trkpt>
      <trkpt lat="43.78533" lon="4.18525">
        <ele>68</ele>
        <time>2012-03-11T11:44:24Z</time>
      </trkpt>
      <trkpt lat="43.78537" lon="4.18516">
        <ele>68</ele>
        <time>2012-03-11T11:44:25Z</time>
      </trkpt>
      <trkpt lat="43.78541" lon="4.18509">
        <ele>68</ele>
        <time>2012-03-11T11:44:26Z</time>
      </trkpt>
      <trkpt lat="43.78544" lon="4.18503">
        <ele>68</ele>
        <time>2012-03-11T11:44:27Z</time>
      </trkpt>
      <trkpt lat="43.78547" lon="4.18498">
        <ele>68</ele>
        <time>2012-03-11T11:44:28Z</time>
      </trkpt>
      <trkpt lat="43.78549" lon="4.18495">
        <ele>68</ele>
        <time>2012-03-11T11:44:29Z</time>
      </trkpt>
      <trkpt lat="43.78551" lon="4.18492">
        <ele>67</ele>
        <time>2012-03-11T11:44:30Z</time>
      </trkpt>
      <trkpt lat="43.78553" lon="4.18489">
        <ele>66</ele>
        <time>2012-03-11T11:44:31Z</time>
      </trkpt>
      <trkpt lat="43.78554" lon="4.18486">
        <ele>66</ele>
        <time>2012-03-11T11:44:32Z</time>
      </trkpt>
      <trkpt lat="43.78556" lon="4.18484">
        <ele>66</ele>
        <time>2012-03-11T11:44:33Z</time>
      </trkpt>
      <trkpt lat="43.78557" lon="4.18481">
        <ele>66</ele>
        <time>2012-03-11T11:44:34Z</time>
      </trkpt>
      <trkpt lat="43.78558" lon="4.18479">
        <ele>66</ele>
        <time>2012-03-11T11:44:35Z</time>
      </trkpt>
      <trkpt lat="43.78559" lon="4.18477">
        <ele>66</ele>
        <time>2012-03-11T11:44:36Z</time>
      </trkpt>
      <trkpt lat="43.78559" lon="4.18475">
        <ele>66</ele>
        <time>2012-03-11T11:44:37Z</time>
      </trkpt>
      <trkpt lat="43.7856" lon="4.18472">
        <ele>66</ele>
        <time>2012-03-11T11:44:38Z</time>
      </trkpt>
      <trkpt lat="43.78561" lon="4.1847">
        <ele>65</ele>
        <time>2012-03-11T11:44:39Z</time>
      </trkpt>
      <trkpt lat="43.78562" lon="4.18467">
        <ele>65</ele>
        <time>2012-03-11T11:44:40Z</time>
      </trkpt>
      <trkpt lat="43.78562" lon="4.18464">
        <ele>65</ele>
        <time>2012-03-11T11:44:41Z</time>
      </trkpt>
      <trkpt lat="43.78563" lon="4.18461">
        <ele>64</ele>
        <time>2012-03-11T11:44:42Z</time>
      </trkpt>
      <trkpt lat="43.78563" lon="4.18458">
        <ele>64</ele>
        <time>2012-03-11T11:44:43Z</time>
      </trkpt>
      <trkpt lat="43.78563" lon="4.18455">
        <ele>64</ele>
        <time>2012-03-11T11:44:44Z</time>
      </trkpt>
      <trkpt lat="43.78562" lon="4.18452">
        <ele>64</ele>
        <time>2012-03-11T11:44:45Z</time>
      </trkpt>
      <trkpt lat="43.78562" lon="4.1845">
        <ele>64</ele>
        <time>2012-03-11T11:44:46Z</time>
      </trkpt>
      <trkpt lat="43.78562" lon="4.18448">
        <ele>64</ele>
        <time>2012-03-11T11:44:48Z</time>
      </trkpt>
      <trkpt lat="43.78563" lon="4.18447">
        <ele>65</ele>
        <time>2012-03-11T11:44:52Z</time>
      </trkpt>
      <trkpt lat="43.78563" lon="4.18445">
        <ele>69</ele>
        <time>2012-03-11T11:44:56Z</time>
      </trkpt>
      <trkpt lat="43.78563" lon="4.18444">
        <ele>70</ele>
        <time>2012-03-11T11:44:57Z</time>
      </trkpt>
      <trkpt lat="43.78562" lon="4.18442">
        <ele>71</ele>
        <time>2012-03-11T11:44:58Z</time>
      </trkpt>
      <trkpt lat="43.78561" lon="4.1844">
        <ele>72</ele>
        <time>2012-03-11T11:44:59Z</time>
      </trkpt>
      <trkpt lat="43.7856" lon="4.18439">
        <ele>73</ele>
        <time>2012-03-11T11:45:00Z</time>
      </trkpt>
      <trkpt lat="43.7856" lon="4.18437">
        <ele>73</ele>
        <time>2012-03-11T11:45:01Z</time>
      </trkpt>
      <trkpt lat="43.78559" lon="4.18436">
        <ele>73</ele>
        <time>2012-03-11T11:45:03Z</time>
      </trkpt>
      <trkpt lat="43.7856" lon="4.18437">
        <ele>74</ele>
        <time>2012-03-11T11:45:06Z</time>
      </trkpt>
      <trkpt lat="43.78561" lon="4.18439">
        <ele>76</ele>
        <time>2012-03-11T11:45:09Z</time>
      </trkpt>
      <trkpt lat="43.7856" lon="4.18437">
        <ele>77</ele>
        <time>2012-03-11T11:45:45Z</time>
      </trkpt>
      <trkpt lat="43.78559" lon="4.18435">
        <ele>77</ele>
        <time>2012-03-11T11:45:46Z</time>
      </trkpt>
      <trkpt lat="43.78559" lon="4.18434">
        <ele>77</ele>
        <time>2012-03-11T11:45:47Z</time>
      </trkpt>
      <trkpt lat="43.78559" lon="4.18432">
        <ele>77</ele>
        <time>2012-03-11T11:45:48Z</time>
      </trkpt>
      <trkpt lat="43.78559" lon="4.1843">
        <ele>77</ele>
        <time>2012-03-11T11:45:49Z</time>
      </trkpt>
      <trkpt lat="43.78558" lon="4.18428">
        <ele>77</ele>
        <time>2012-03-11T11:45:50Z</time>
      </trkpt>
      <trkpt lat="43.78557" lon="4.18426">
        <ele>77</ele>
        <time>2012-03-11T11:45:51Z</time>
      </trkpt>
      <trkpt lat="43.78557" lon="4.18425">
        <ele>77</ele>
        <time>2012-03-11T11:45:52Z</time>
      </trkpt>
      <trkpt lat="43.78557" lon="4.18423">
        <ele>77</ele>
        <time>2012-03-11T11:45:53Z</time>
      </trkpt>
      <trkpt lat="43.78557" lon="4.18421">
        <ele>77</ele>
        <time>2012-03-11T11:45:54Z</time>
      </trkpt>
      <trkpt lat="43.78556" lon="4.18419">
        <ele>77</ele>
        <time>2012-03-11T11:45:55Z</time>
      </trkpt>
      <trkpt lat="43.78556" lon="4.18417">
        <ele>77</ele>
        <time>2012-03-11T11:45:56Z</time>
      </trkpt>
      <trkpt lat="43.78555" lon="4.18416">
        <ele>77</ele>
        <time>2012-03-11T11:45:57Z</time>
      </trkpt>
      <trkpt lat="43.78554" lon="4.18412">
        <ele>77</ele>
        <time>2012-03-11T11:45:59Z</time>
      </trkpt>
      <trkpt lat="43.78554" lon="4.1841">
        <ele>77</ele>
        <time>2012-03-11T11:46:00Z</time>
      </trkpt>
      <trkpt lat="43.78553" lon="4.18409">
        <ele>77</ele>
        <time>2012-03-11T11:46:01Z</time>
      </trkpt>
      <trkpt lat="43.78553" lon="4.18407">
        <ele>77</ele>
        <time>2012-03-11T11:46:02Z</time>
      </trkpt>
      <trkpt lat="43.78552" lon="4.18405">
        <ele>77</ele>
        <time>2012-03-11T11:46:03Z</time>
      </trkpt>
      <trkpt lat="43.7855" lon="4.18402">
        <ele>77</ele>
        <time>2012-03-11T11:46:05Z</time>
      </trkpt>
      <trkpt lat="43.78549" lon="4.184">
        <ele>77</ele>
        <time>2012-03-11T11:46:07Z</time>
      </trkpt>
      <trkpt lat="43.78548" lon="4.18398">
        <ele>77</ele>
        <time>2012-03-11T11:46:09Z</time>
      </trkpt>
      <trkpt lat="43.78547" lon="4.18396">
        <ele>77</ele>
        <time>2012-03-11T11:46:10Z</time>
      </trkpt>
      <trkpt lat="43.78547" lon="4.18395">
        <ele>77</ele>
        <time>2012-03-11T11:46:11Z</time>
      </trkpt>
      <trkpt lat="43.78546" lon="4.18393">
        <ele>77</ele>
        <time>2012-03-11T11:46:12Z</time>
      </trkpt>
      <trkpt lat="43.78546" lon="4.18391">
        <ele>77</ele>
        <time>2012-03-11T11:46:13Z</time>
      </trkpt>
      <trkpt lat="43.78546" lon="4.18389">
        <ele>77</ele>
        <time>2012-03-11T11:46:14Z</time>
      </trkpt>
      <trkpt lat="43.78545" lon="4.18387">
        <ele>77</ele>
        <time>2012-03-11T11:46:15Z</time>
      </trkpt>
      <trkpt lat="43.78545" lon="4.18385">
        <ele>77</ele>
        <time>2012-03-11T11:46:16Z</time>
      </trkpt>
      <trkpt lat="43.78545" lon="4.18382">
        <ele>77</ele>
        <time>2012-03-11T11:46:17Z</time>
      </trkpt>
      <trkpt lat="43.78545" lon="4.1838">
        <ele>77</ele>
        <time>2012-03-11T11:46:18Z</time>
      </trkpt>
      <trkpt lat="43.78545" lon="4.18378">
        <ele>77</ele>
        <time>2012-03-11T11:46:19Z</time>
      </trkpt>
      <trkpt lat="43.78545" lon="4.18376">
        <ele>77</ele>
        <time>2012-03-11T11:46:20Z</time>
      </trkpt>
      <trkpt lat="43.78544" lon="4.18374">
        <ele>77</ele>
        <time>2012-03-11T11:46:21Z</time>
      </trkpt>
      <trkpt lat="43.78543" lon="4.18373">
        <ele>77</ele>
        <time>2012-03-11T11:46:22Z</time>
      </trkpt>
      <trkpt lat="43.78543" lon="4.18371">
        <ele>77</ele>
        <time>2012-03-11T11:46:23Z</time>
      </trkpt>
      <trkpt lat="43.78543" lon="4.18369">
        <ele>77</ele>
        <time>2012-03-11T11:46:25Z</time>
      </trkpt>
      <trkpt lat="43.78542" lon="4.18367">
        <ele>77</ele>
        <time>2012-03-11T11:46:26Z</time>
      </trkpt>
      <trkpt lat="43.7854" lon="4.18364">
        <ele>77</ele>
        <time>2012-03-11T11:46:28Z</time>
      </trkpt>
      <trkpt lat="43.78539" lon="4.18362">
        <ele>77</ele>
        <time>2012-03-11T11:46:29Z</time>
      </trkpt>
      <trkpt lat="43.78539" lon="4.18361">
        <ele>77</ele>
        <time>2012-03-11T11:46:30Z</time>
      </trkpt>
      <trkpt lat="43.78539" lon="4.18359">
        <ele>77</ele>
        <time>2012-03-11T11:46:31Z</time>
      </trkpt>
      <trkpt lat="43.78539" lon="4.18357">
        <ele>78</ele>
        <time>2012-03-11T11:46:32Z</time>
      </trkpt>
      <trkpt lat="43.78539" lon="4.18355">
        <ele>78</ele>
        <time>2012-03-11T11:46:33Z</time>
      </trkpt>
      <trkpt lat="43.78539" lon="4.18353">
        <ele>78</ele>
        <time>2012-03-11T11:46:34Z</time>
      </trkpt>
      <trkpt lat="43.78539" lon="4.18352">
        <ele>78</ele>
        <time>2012-03-11T11:46:35Z</time>
      </trkpt>
      <trkpt lat="43.78538" lon="4.18349">
        <ele>78</ele>
        <time>2012-03-11T11:46:37Z</time>
      </trkpt>
      <trkpt lat="43.78537" lon="4.18349">
        <ele>78</ele>
        <time>2012-03-11T11:46:38Z</time>
      </trkpt>
      <trkpt lat="43.78535" lon="4.18346">
        <ele>78</ele>
        <time>2012-03-11T11:46:40Z</time>
      </trkpt>
      <trkpt lat="43.78535" lon="4.18344">
        <ele>79</ele>
        <time>2012-03-11T11:46:41Z</time>
      </trkpt>
      <trkpt lat="43.78535" lon="4.18343">
        <ele>80</ele>
        <time>2012-03-11T11:46:42Z</time>
      </trkpt>
      <trkpt lat="43.78534" lon="4.1834">
        <ele>82</ele>
        <time>2012-03-11T11:46:44Z</time>
      </trkpt>
      <trkpt lat="43.78534" lon="4.18338">
        <ele>84</ele>
        <time>2012-03-11T11:46:46Z</time>
      </trkpt>
      <trkpt lat="43.78533" lon="4.18336">
        <ele>85</ele>
        <time>2012-03-11T11:46:47Z</time>
      </trkpt>
      <trkpt lat="43.78533" lon="4.18335">
        <ele>85</ele>
        <time>2012-03-11T11:46:48Z</time>
      </trkpt>
      <trkpt lat="43.78534" lon="4.18332">
        <ele>85</ele>
        <time>2012-03-11T11:46:50Z</time>
      </trkpt>
      <trkpt lat="43.78534" lon="4.1833">
        <ele>85</ele>
        <time>2012-03-11T11:46:52Z</time>
      </trkpt>
      <trkpt lat="43.78534" lon="4.18328">
        <ele>85</ele>
        <time>2012-03-11T11:46:54Z</time>
      </trkpt>
      <trkpt lat="43.78533" lon="4.18327">
        <ele>82</ele>
        <time>2012-03-11T11:46:57Z</time>
      </trkpt>
      <trkpt lat="43.78532" lon="4.18326">
        <ele>77</ele>
        <time>2012-03-11T11:47:03Z</time>
      </trkpt>
      <trkpt lat="43.78533" lon="4.18325">
        <ele>76</ele>
        <time>2012-03-11T11:47:07Z</time>
      </trkpt>
      <trkpt lat="43.78534" lon="4.18324">
        <ele>76</ele>
        <time>2012-03-11T11:47:17Z</time>
      </trkpt>
      <trkpt lat="43.78535" lon="4.18325">
        <ele>76</ele>
        <time>2012-03-11T11:47:22Z</time>
      </trkpt>
      <trkpt lat="43.78537" lon="4.18325">
        <ele>76</ele>
        <time>2012-03-11T11:47:27Z</time>
      </trkpt>
      <trkpt lat="43.78538" lon="4.18326">
        <ele>82</ele>
        <time>2012-03-11T11:47:36Z</time>
      </trkpt>
      <trkpt lat="43.78536" lon="4.18326">
        <ele>85</ele>
        <time>2012-03-11T11:47:40Z</time>
      </trkpt>
      <trkpt lat="43.78535" lon="4.18328">
        <ele>92</ele>
        <time>2012-03-11T11:47:47Z</time>
      </trkpt>
      <trkpt lat="43.78534" lon="4.18329">
        <ele>95</ele>
        <time>2012-03-11T11:47:52Z</time>
      </trkpt>
      <trkpt lat="43.78533" lon="4.18328">
        <ele>98</ele>
        <time>2012-03-11T11:48:03Z</time>
      </trkpt>
      <trkpt lat="43.78532" lon="4.1833">
        <ele>98</ele>
        <time>2012-03-11T11:48:20Z</time>
      </trkpt>
      <trkpt lat="43.78532" lon="4.18332">
        <ele>98</ele>
        <time>2012-03-11T11:48:21Z</time>
      </trkpt>
      <trkpt lat="43.78532" lon="4.18334">
        <ele>98</ele>
        <time>2012-03-11T11:48:23Z</time>
      </trkpt>
      <trkpt lat="43.78533" lon="4.18334">
        <ele>99</ele>
        <time>2012-03-11T11:48:26Z</time>
      </trkpt>
      <trkpt lat="43.78533" lon="4.18332">
        <ele>100</ele>
        <time>2012-03-11T11:48:32Z</time>
      </trkpt>
      <trkpt lat="43.78534" lon="4.1833">
        <ele>100</ele>
        <time>2012-03-11T11:48:33Z</time>
      </trkpt>
      <trkpt lat="43.78534" lon="4.18328">
        <ele>100</ele>
        <time>2012-03-11T11:48:34Z</time>
      </trkpt>
      <trkpt lat="43.78534" lon="4.18327">
        <ele>100</ele>
        <time>2012-03-11T11:48:35Z</time>
      </trkpt>
      <trkpt lat="43.78534" lon="4.18325">
        <ele>100</ele>
        <time>2012-03-11T11:48:36Z</time>
      </trkpt>
      <trkpt lat="43.78534" lon="4.18322">
        <ele>100</ele>
        <time>2012-03-11T11:48:37Z</time>
      </trkpt>
      <trkpt lat="43.78534" lon="4.1832">
        <ele>100</ele>
        <time>2012-03-11T11:48:38Z</time>
      </trkpt>
      <trkpt lat="43.78534" lon="4.18318">
        <ele>100</ele>
        <time>2012-03-11T11:48:39Z</time>
      </trkpt>
      <trkpt lat="43.78533" lon="4.18316">
        <ele>100</ele>
        <time>2012-03-11T11:48:40Z</time>
      </trkpt>
      <trkpt lat="43.78533" lon="4.18314">
        <ele>100</ele>
        <time>2012-03-11T11:48:41Z</time>
      </trkpt>
      <trkpt lat="43.78533" lon="4.18311">
        <ele>100</ele>
        <time>2012-03-11T11:48:42Z</time>
      </trkpt>
      <trkpt lat="43.78533" lon="4.18309">
        <ele>100</ele>
        <time>2012-03-11T11:48:43Z</time>
      </trkpt>
      <trkpt lat="43.78533" lon="4.18307">
        <ele>100</ele>
        <time>2012-03-11T11:48:44Z</time>
      </trkpt>
      <trkpt lat="43.78533" lon="4.18304">
        <ele>100</ele>
        <time>2012-03-11T11:48:45Z</time>
      </trkpt>
      <trkpt lat="43.78532" lon="4.18302">
        <ele>100</ele>
        <time>2012-03-11T11:48:46Z</time>
      </trkpt>
      <trkpt lat="43.78532" lon="4.18299">
        <ele>100</ele>
        <time>2012-03-11T11:48:47Z</time>
      </trkpt>
      <trkpt lat="43.78531" lon="4.18297">
        <ele>100</ele>
        <time>2012-03-11T11:48:48Z</time>
      </trkpt>
      <trkpt lat="43.78531" lon="4.18295">
        <ele>100</ele>
        <time>2012-03-11T11:48:49Z</time>
      </trkpt>
      <trkpt lat="43.78531" lon="4.18292">
        <ele>100</ele>
        <time>2012-03-11T11:48:50Z</time>
      </trkpt>
      <trkpt lat="43.78531" lon="4.18289">
        <ele>100</ele>
        <time>2012-03-11T11:48:51Z</time>
      </trkpt>
      <trkpt lat="43.78531" lon="4.18287">
        <ele>100</ele>
        <time>2012-03-11T11:48:52Z</time>
      </trkpt>
      <trkpt lat="43.7853" lon="4.18284">
        <ele>100</ele>
        <time>2012-03-11T11:48:53Z</time>
      </trkpt>
      <trkpt lat="43.7853" lon="4.18282">
        <ele>100</ele>
        <time>2012-03-11T11:48:54Z</time>
      </trkpt>
      <trkpt lat="43.7853" lon="4.1828">
        <ele>100</ele>
        <time>2012-03-11T11:48:55Z</time>
      </trkpt>
      <trkpt lat="43.78529" lon="4.18277">
        <ele>100</ele>
        <time>2012-03-11T11:48:56Z</time>
      </trkpt>
      <trkpt lat="43.78529" lon="4.18275">
        <ele>100</ele>
        <time>2012-03-11T11:48:57Z</time>
      </trkpt>
      <trkpt lat="43.78529" lon="4.18272">
        <ele>100</ele>
        <time>2012-03-11T11:48:58Z</time>
      </trkpt>
      <trkpt lat="43.78529" lon="4.18269">
        <ele>100</ele>
        <time>2012-03-11T11:48:59Z</time>
      </trkpt>
      <trkpt lat="43.78529" lon="4.18267">
        <ele>100</ele>
        <time>2012-03-11T11:49:00Z</time>
      </trkpt>
      <trkpt lat="43.78529" lon="4.18264">
        <ele>100</ele>
        <time>2012-03-11T11:49:01Z</time>
      </trkpt>
      <trkpt lat="43.78529" lon="4.18262">
        <ele>100</ele>
        <time>2012-03-11T11:49:02Z</time>
      </trkpt>
      <trkpt lat="43.78528" lon="4.18259">
        <ele>100</ele>
        <time>2012-03-11T11:49:03Z</time>
      </trkpt>
      <trkpt lat="43.78529" lon="4.18257">
        <ele>100</ele>
        <time>2012-03-11T11:49:04Z</time>
      </trkpt>
      <trkpt lat="43.78529" lon="4.18255">
        <ele>100</ele>
        <time>2012-03-11T11:49:05Z</time>
      </trkpt>
      <trkpt lat="43.78528" lon="4.18252">
        <ele>100</ele>
        <time>2012-03-11T11:49:06Z</time>
      </trkpt>
      <trkpt lat="43.78528" lon="4.18249">
        <ele>100</ele>
        <time>2012-03-11T11:49:07Z</time>
      </trkpt>
      <trkpt lat="43.78527" lon="4.18247">
        <ele>100</ele>
        <time>2012-03-11T11:49:08Z</time>
      </trkpt>
      <trkpt lat="43.78527" lon="4.18244">
        <ele>100</ele>
        <time>2012-03-11T11:49:09Z</time>
      </trkpt>
      <trkpt lat="43.78526" lon="4.18241">
        <ele>100</ele>
        <time>2012-03-11T11:49:10Z</time>
      </trkpt>
      <trkpt lat="43.78526" lon="4.18238">
        <ele>100</ele>
        <time>2012-03-11T11:49:11Z</time>
      </trkpt>
      <trkpt lat="43.78525" lon="4.18235">
        <ele>100</ele>
        <time>2012-03-11T11:49:12Z</time>
      </trkpt>
      <trkpt lat="43.78525" lon="4.18233">
        <ele>100</ele>
        <time>2012-03-11T11:49:13Z</time>
      </trkpt>
      <trkpt lat="43.78524" lon="4.1823">
        <ele>100</ele>
        <time>2012-03-11T11:49:14Z</time>
      </trkpt>
      <trkpt lat="43.78524" lon="4.18226">
        <ele>100</ele>
        <time>2012-03-11T11:49:15Z</time>
      </trkpt>
      <trkpt lat="43.78523" lon="4.18223">
        <ele>100</ele>
        <time>2012-03-11T11:49:16Z</time>
      </trkpt>
      <trkpt lat="43.78522" lon="4.18221">
        <ele>100</ele>
        <time>2012-03-11T11:49:17Z</time>
      </trkpt>
      <trkpt lat="43.78522" lon="4.18218">
        <ele>99</ele>
        <time>2012-03-11T11:49:18Z</time>
      </trkpt>
      <trkpt lat="43.78521" lon="4.18215">
        <ele>99</ele>
        <time>2012-03-11T11:49:19Z</time>
      </trkpt>
      <trkpt lat="43.7852" lon="4.18213">
        <ele>99</ele>
        <time>2012-03-11T11:49:20Z</time>
      </trkpt>
      <trkpt lat="43.78519" lon="4.1821">
        <ele>99</ele>
        <time>2012-03-11T11:49:21Z</time>
      </trkpt>
      <trkpt lat="43.78519" lon="4.18207">
        <ele>99</ele>
        <time>2012-03-11T11:49:22Z</time>
      </trkpt>
      <trkpt lat="43.78518" lon="4.18204">
        <ele>99</ele>
        <time>2012-03-11T11:49:23Z</time>
      </trkpt>
      <trkpt lat="43.78516" lon="4.18202">
        <ele>99</ele>
        <time>2012-03-11T11:49:24Z</time>
      </trkpt>
      <trkpt lat="43.78515" lon="4.18198">
        <ele>99</ele>
        <time>2012-03-11T11:49:25Z</time>
      </trkpt>
      <trkpt lat="43.78515" lon="4.18196">
        <ele>99</ele>
        <time>2012-03-11T11:49:26Z</time>
      </trkpt>
      <trkpt lat="43.78515" lon="4.18194">
        <ele>99</ele>
        <time>2012-03-11T11:49:27Z</time>
      </trkpt>
      <trkpt lat="43.78514" lon="4.18193">
        <ele>99</ele>
        <time>2012-03-11T11:49:28Z</time>
      </trkpt>
      <trkpt lat="43.78514" lon="4.18191">
        <ele>99</ele>
        <time>2012-03-11T11:49:29Z</time>
      </trkpt>
      <trkpt lat="43.78513" lon="4.18189">
        <ele>99</ele>
        <time>2012-03-11T11:49:30Z</time>
      </trkpt>
      <trkpt lat="43.78513" lon="4.18187">
        <ele>99</ele>
        <time>2012-03-11T11:49:31Z</time>
      </trkpt>
      <trkpt lat="43.78512" lon="4.18185">
        <ele>99</ele>
        <time>2012-03-11T11:49:32Z</time>
      </trkpt>
      <trkpt lat="43.7851" lon="4.18183">
        <ele>99</ele>
        <time>2012-03-11T11:49:34Z</time>
      </trkpt>
      <trkpt lat="43.78509" lon="4.18181">
        <ele>99</ele>
        <time>2012-03-11T11:49:35Z</time>
      </trkpt>
      <trkpt lat="43.78508" lon="4.1818">
        <ele>99</ele>
        <time>2012-03-11T11:49:36Z</time>
      </trkpt>
      <trkpt lat="43.78507" lon="4.18178">
        <ele>99</ele>
        <time>2012-03-11T11:49:37Z</time>
      </trkpt>
      <trkpt lat="43.78506" lon="4.18177">
        <ele>99</ele>
        <time>2012-03-11T11:49:38Z</time>
      </trkpt>
      <trkpt lat="43.78505" lon="4.18175">
        <ele>99</ele>
        <time>2012-03-11T11:49:39Z</time>
      </trkpt>
      <trkpt lat="43.78504" lon="4.18174">
        <ele>99</ele>
        <time>2012-03-11T11:49:40Z</time>
      </trkpt>
      <trkpt lat="43.78501" lon="4.1817">
        <ele>99</ele>
        <time>2012-03-11T11:49:42Z</time>
      </trkpt>
      <trkpt lat="43.785" lon="4.18169">
        <ele>99</ele>
        <time>2012-03-11T11:49:43Z</time>
      </trkpt>
      <trkpt lat="43.78498" lon="4.18167">
        <ele>99</ele>
        <time>2012-03-11T11:49:44Z</time>
      </trkpt>
      <trkpt lat="43.78497" lon="4.18165">
        <ele>99</ele>
        <time>2012-03-11T11:49:45Z</time>
      </trkpt>
      <trkpt lat="43.78495" lon="4.18164">
        <ele>99</ele>
        <time>2012-03-11T11:49:48Z</time>
      </trkpt>
      <trkpt lat="43.78494" lon="4.18163">
        <ele>99</ele>
        <time>2012-03-11T11:49:49Z</time>
      </trkpt>
      <trkpt lat="43.78492" lon="4.18161">
        <ele>99</ele>
        <time>2012-03-11T11:49:51Z</time>
      </trkpt>
      <trkpt lat="43.78491" lon="4.1816">
        <ele>99</ele>
        <time>2012-03-11T11:49:52Z</time>
      </trkpt>
      <trkpt lat="43.78489" lon="4.18159">
        <ele>99</ele>
        <time>2012-03-11T11:49:53Z</time>
      </trkpt>
      <trkpt lat="43.78487" lon="4.18158">
        <ele>99</ele>
        <time>2012-03-11T11:49:54Z</time>
      </trkpt>
      <trkpt lat="43.78485" lon="4.18157">
        <ele>99</ele>
        <time>2012-03-11T11:49:55Z</time>
      </trkpt>
      <trkpt lat="43.78484" lon="4.18154">
        <ele>99</ele>
        <time>2012-03-11T11:49:57Z</time>
      </trkpt>
      <trkpt lat="43.78482" lon="4.18153">
        <ele>99</ele>
        <time>2012-03-11T11:49:59Z</time>
      </trkpt>
      <trkpt lat="43.78479" lon="4.18151">
        <ele>99</ele>
        <time>2012-03-11T11:50:01Z</time>
      </trkpt>
      <trkpt lat="43.78478" lon="4.1815">
        <ele>99</ele>
        <time>2012-03-11T11:50:03Z</time>
      </trkpt>
      <trkpt lat="43.78477" lon="4.18148">
        <ele>98</ele>
        <time>2012-03-11T11:50:05Z</time>
      </trkpt>
      <trkpt lat="43.78476" lon="4.18146">
        <ele>98</ele>
        <time>2012-03-11T11:50:06Z</time>
      </trkpt>
      <trkpt lat="43.78475" lon="4.18144">
        <ele>98</ele>
        <time>2012-03-11T11:50:08Z</time>
      </trkpt>
      <trkpt lat="43.78475" lon="4.18141">
        <ele>98</ele>
        <time>2012-03-11T11:50:10Z</time>
      </trkpt>
      <trkpt lat="43.78474" lon="4.18139">
        <ele>98</ele>
        <time>2012-03-11T11:50:12Z</time>
      </trkpt>
      <trkpt lat="43.78473" lon="4.18137">
        <ele>98</ele>
        <time>2012-03-11T11:50:14Z</time>
      </trkpt>
      <trkpt lat="43.78471" lon="4.18135">
        <ele>98</ele>
        <time>2012-03-11T11:50:16Z</time>
      </trkpt>
      <trkpt lat="43.7847" lon="4.18133">
        <ele>98</ele>
        <time>2012-03-11T11:50:18Z</time>
      </trkpt>
      <trkpt lat="43.78469" lon="4.18131">
        <ele>98</ele>
        <time>2012-03-11T11:50:20Z</time>
      </trkpt>
      <trkpt lat="43.78467" lon="4.18129">
        <ele>98</ele>
        <time>2012-03-11T11:50:22Z</time>
      </trkpt>
      <trkpt lat="43.78466" lon="4.18127">
        <ele>98</ele>
        <time>2012-03-11T11:50:24Z</time>
      </trkpt>
      <trkpt lat="43.78464" lon="4.18125">
        <ele>98</ele>
        <time>2012-03-11T11:50:26Z</time>
      </trkpt>
      <trkpt lat="43.78463" lon="4.18122">
        <ele>98</ele>
        <time>2012-03-11T11:50:28Z</time>
      </trkpt>
      <trkpt lat="43.78462" lon="4.18121">
        <ele>98</ele>
        <time>2012-03-11T11:50:30Z</time>
      </trkpt>
      <trkpt lat="43.78462" lon="4.18119">
        <ele>98</ele>
        <time>2012-03-11T11:50:32Z</time>
      </trkpt>
      <trkpt lat="43.78461" lon="4.18117">
        <ele>98</ele>
        <time>2012-03-11T11:50:34Z</time>
      </trkpt>
      <trkpt lat="43.78461" lon="4.18115">
        <ele>98</ele>
        <time>2012-03-11T11:50:36Z</time>
      </trkpt>
      <trkpt lat="43.78461" lon="4.18112">
        <ele>98</ele>
        <time>2012-03-11T11:50:38Z</time>
      </trkpt>
      <trkpt lat="43.78461" lon="4.18111">
        <ele>98</ele>
        <time>2012-03-11T11:50:39Z</time>
      </trkpt>
      <trkpt lat="43.78462" lon="4.18108">
        <ele>98</ele>
        <time>2012-03-11T11:50:41Z</time>
      </trkpt>
      <trkpt lat="43.78462" lon="4.18106">
        <ele>99</ele>
        <time>2012-03-11T11:50:42Z</time>
      </trkpt>
      <trkpt lat="43.78461" lon="4.18105">
        <ele>101</ele>
        <time>2012-03-11T11:50:44Z</time>
      </trkpt>
      <trkpt lat="43.7846" lon="4.18102">
        <ele>103</ele>
        <time>2012-03-11T11:50:46Z</time>
      </trkpt>
      <trkpt lat="43.7846" lon="4.181">
        <ele>103</ele>
        <time>2012-03-11T11:50:48Z</time>
      </trkpt>
      <trkpt lat="43.78459" lon="4.18098">
        <ele>105</ele>
        <time>2012-03-11T11:50:50Z</time>
      </trkpt>
      <trkpt lat="43.78459" lon="4.18097">
        <ele>105</ele>
        <time>2012-03-11T11:50:51Z</time>
      </trkpt>
      <trkpt lat="43.78459" lon="4.18095">
        <ele>106</ele>
        <time>2012-03-11T11:50:52Z</time>
      </trkpt>
      <trkpt lat="43.78458" lon="4.18093">
        <ele>106</ele>
        <time>2012-03-11T11:50:54Z</time>
      </trkpt>
      <trkpt lat="43.78458" lon="4.1809">
        <ele>107</ele>
        <time>2012-03-11T11:50:56Z</time>
      </trkpt>
      <trkpt lat="43.78457" lon="4.18088">
        <ele>108</ele>
        <time>2012-03-11T11:50:58Z</time>
      </trkpt>
      <trkpt lat="43.78457" lon="4.18085">
        <ele>108</ele>
        <time>2012-03-11T11:51:00Z</time>
      </trkpt>
      <trkpt lat="43.78457" lon="4.18084">
        <ele>108</ele>
        <time>2012-03-11T11:51:01Z</time>
      </trkpt>
      <trkpt lat="43.78456" lon="4.18082">
        <ele>109</ele>
        <time>2012-03-11T11:51:03Z</time>
      </trkpt>
      <trkpt lat="43.78456" lon="4.1808">
        <ele>109</ele>
        <time>2012-03-11T11:51:04Z</time>
      </trkpt>
      <trkpt lat="43.78456" lon="4.18079">
        <ele>109</ele>
        <time>2012-03-11T11:51:05Z</time>
      </trkpt>
      <trkpt lat="43.78456" lon="4.18077">
        <ele>109</ele>
        <time>2012-03-11T11:51:06Z</time>
      </trkpt>
      <trkpt lat="43.78456" lon="4.18074">
        <ele>109</ele>
        <time>2012-03-11T11:51:08Z</time>
      </trkpt>
      <trkpt lat="43.78456" lon="4.18073">
        <ele>109</ele>
        <time>2012-03-11T11:51:09Z</time>
      </trkpt>
      <trkpt lat="43.78455" lon="4.18071">
        <ele>109</ele>
        <time>2012-03-11T11:51:10Z</time>
      </trkpt>
      <trkpt lat="43.78455" lon="4.18069">
        <ele>109</ele>
        <time>2012-03-11T11:51:12Z</time>
      </trkpt>
      <trkpt lat="43.78454" lon="4.18066">
        <ele>109</ele>
        <time>2012-03-11T11:51:14Z</time>
      </trkpt>
      <trkpt lat="43.78453" lon="4.18064">
        <ele>109</ele>
        <time>2012-03-11T11:51:16Z</time>
      </trkpt>
      <trkpt lat="43.78452" lon="4.18061">
        <ele>109</ele>
        <time>2012-03-11T11:51:18Z</time>
      </trkpt>
      <trkpt lat="43.78451" lon="4.18059">
        <ele>109</ele>
        <time>2012-03-11T11:51:20Z</time>
      </trkpt>
      <trkpt lat="43.7845" lon="4.18057">
        <ele>109</ele>
        <time>2012-03-11T11:51:21Z</time>
      </trkpt>
      <trkpt lat="43.78449" lon="4.18055">
        <ele>109</ele>
        <time>2012-03-11T11:51:23Z</time>
      </trkpt>
      <trkpt lat="43.78449" lon="4.18053">
        <ele>109</ele>
        <time>2012-03-11T11:51:25Z</time>
      </trkpt>
      <trkpt lat="43.7845" lon="4.18055">
        <ele>111</ele>
        <time>2012-03-11T11:51:29Z</time>
      </trkpt>
      <trkpt lat="43.7845" lon="4.18056">
        <ele>114</ele>
        <time>2012-03-11T11:51:33Z</time>
      </trkpt>
      <trkpt lat="43.7845" lon="4.18054">
        <ele>118</ele>
        <time>2012-03-11T11:51:38Z</time>
      </trkpt>
      <trkpt lat="43.7845" lon="4.18053">
        <ele>118</ele>
        <time>2012-03-11T11:51:39Z</time>
      </trkpt>
      <trkpt lat="43.78449" lon="4.1805">
        <ele>118</ele>
        <time>2012-03-11T11:51:41Z</time>
      </trkpt>
      <trkpt lat="43.78448" lon="4.18048">
        <ele>118</ele>
        <time>2012-03-11T11:51:43Z</time>
      </trkpt>
      <trkpt lat="43.78447" lon="4.18046">
        <ele>118</ele>
        <time>2012-03-11T11:51:45Z</time>
      </trkpt>
      <trkpt lat="43.78445" lon="4.18046">
        <ele>118</ele>
        <time>2012-03-11T11:51:46Z</time>
      </trkpt>
      <trkpt lat="43.78444" lon="4.18044">
        <ele>118</ele>
        <time>2012-03-11T11:51:48Z</time>
      </trkpt>
      <trkpt lat="43.78442" lon="4.18044">
        <ele>118</ele>
        <time>2012-03-11T11:51:49Z</time>
      </trkpt>
      <trkpt lat="43.78441" lon="4.18043">
        <ele>118</ele>
        <time>2012-03-11T11:51:50Z</time>
      </trkpt>
      <trkpt lat="43.78439" lon="4.18042">
        <ele>118</ele>
        <time>2012-03-11T11:51:52Z</time>
      </trkpt>
      <trkpt lat="43.78438" lon="4.1804">
        <ele>118</ele>
        <time>2012-03-11T11:51:54Z</time>
      </trkpt>
      <trkpt lat="43.78437" lon="4.18039">
        <ele>118</ele>
        <time>2012-03-11T11:51:55Z</time>
      </trkpt>
      <trkpt lat="43.78436" lon="4.18037">
        <ele>118</ele>
        <time>2012-03-11T11:51:57Z</time>
      </trkpt>
      <trkpt lat="43.78433" lon="4.18036">
        <ele>118</ele>
        <time>2012-03-11T11:51:59Z</time>
      </trkpt>
      <trkpt lat="43.78432" lon="4.18036">
        <ele>118</ele>
        <time>2012-03-11T11:52:00Z</time>
      </trkpt>
      <trkpt lat="43.78431" lon="4.18036">
        <ele>118</ele>
        <time>2012-03-11T11:52:01Z</time>
      </trkpt>
      <trkpt lat="43.78429" lon="4.18035">
        <ele>118</ele>
        <time>2012-03-11T11:52:02Z</time>
      </trkpt>
      <trkpt lat="43.78428" lon="4.18035">
        <ele>118</ele>
        <time>2012-03-11T11:52:03Z</time>
      </trkpt>
      <trkpt lat="43.78427" lon="4.18034">
        <ele>118</ele>
        <time>2012-03-11T11:52:04Z</time>
      </trkpt>
      <trkpt lat="43.78425" lon="4.18034">
        <ele>118</ele>
        <time>2012-03-11T11:52:06Z</time>
      </trkpt>
      <trkpt lat="43.78423" lon="4.18033">
        <ele>118</ele>
        <time>2012-03-11T11:52:08Z</time>
      </trkpt>
      <trkpt lat="43.78421" lon="4.18032">
        <ele>118</ele>
        <time>2012-03-11T11:52:10Z</time>
      </trkpt>
      <trkpt lat="43.7842" lon="4.18032">
        <ele>118</ele>
        <time>2012-03-11T11:52:11Z</time>
      </trkpt>
      <trkpt lat="43.78419" lon="4.18032">
        <ele>118</ele>
        <time>2012-03-11T11:52:12Z</time>
      </trkpt>
      <trkpt lat="43.78416" lon="4.18031">
        <ele>118</ele>
        <time>2012-03-11T11:52:14Z</time>
      </trkpt>
      <trkpt lat="43.78415" lon="4.18031">
        <ele>118</ele>
        <time>2012-03-11T11:52:16Z</time>
      </trkpt>
      <trkpt lat="43.78412" lon="4.18031">
        <ele>118</ele>
        <time>2012-03-11T11:52:18Z</time>
      </trkpt>
      <trkpt lat="43.7841" lon="4.1803">
        <ele>118</ele>
        <time>2012-03-11T11:52:20Z</time>
      </trkpt>
      <trkpt lat="43.78408" lon="4.1803">
        <ele>118</ele>
        <time>2012-03-11T11:52:22Z</time>
      </trkpt>
      <trkpt lat="43.78407" lon="4.18029">
        <ele>118</ele>
        <time>2012-03-11T11:52:24Z</time>
      </trkpt>
      <trkpt lat="43.78405" lon="4.18029">
        <ele>118</ele>
        <time>2012-03-11T11:52:26Z</time>
      </trkpt>
      <trkpt lat="43.78403" lon="4.18029">
        <ele>119</ele>
        <time>2012-03-11T11:52:27Z</time>
      </trkpt>
      <trkpt lat="43.78401" lon="4.18029">
        <ele>119</ele>
        <time>2012-03-11T11:52:29Z</time>
      </trkpt>
      <trkpt lat="43.78399" lon="4.18029">
        <ele>120</ele>
        <time>2012-03-11T11:52:31Z</time>
      </trkpt>
      <trkpt lat="43.78398" lon="4.18029">
        <ele>121</ele>
        <time>2012-03-11T11:52:32Z</time>
      </trkpt>
      <trkpt lat="43.78397" lon="4.18028">
        <ele>121</ele>
        <time>2012-03-11T11:52:33Z</time>
      </trkpt>
      <trkpt lat="43.78395" lon="4.18027">
        <ele>122</ele>
        <time>2012-03-11T11:52:35Z</time>
      </trkpt>
      <trkpt lat="43.78393" lon="4.18027">
        <ele>123</ele>
        <time>2012-03-11T11:52:37Z</time>
      </trkpt>
      <trkpt lat="43.78392" lon="4.18027">
        <ele>123</ele>
        <time>2012-03-11T11:52:39Z</time>
      </trkpt>
      <trkpt lat="43.7839" lon="4.18026">
        <ele>124</ele>
        <time>2012-03-11T11:52:41Z</time>
      </trkpt>
      <trkpt lat="43.78387" lon="4.18026">
        <ele>125</ele>
        <time>2012-03-11T11:52:43Z</time>
      </trkpt>
      <trkpt lat="43.78386" lon="4.18026">
        <ele>126</ele>
        <time>2012-03-11T11:52:45Z</time>
      </trkpt>
      <trkpt lat="43.78384" lon="4.18025">
        <ele>127</ele>
        <time>2012-03-11T11:52:49Z</time>
      </trkpt>
      <trkpt lat="43.78383" lon="4.18026">
        <ele>127</ele>
        <time>2012-03-11T11:52:55Z</time>
      </trkpt>
      <trkpt lat="43.78382" lon="4.18027">
        <ele>128</ele>
        <time>2012-03-11T11:53:03Z</time>
      </trkpt>
      <trkpt lat="43.7838" lon="4.18027">
        <ele>128</ele>
        <time>2012-03-11T11:53:05Z</time>
      </trkpt>
      <trkpt lat="43.78379" lon="4.18027">
        <ele>128</ele>
        <time>2012-03-11T11:53:06Z</time>
      </trkpt>
      <trkpt lat="43.78378" lon="4.18026">
        <ele>128</ele>
        <time>2012-03-11T11:53:07Z</time>
      </trkpt>
      <trkpt lat="43.78376" lon="4.18026">
        <ele>128</ele>
        <time>2012-03-11T11:53:08Z</time>
      </trkpt>
      <trkpt lat="43.78375" lon="4.18025">
        <ele>128</ele>
        <time>2012-03-11T11:53:09Z</time>
      </trkpt>
      <trkpt lat="43.78373" lon="4.18025">
        <ele>128</ele>
        <time>2012-03-11T11:53:10Z</time>
      </trkpt>
      <trkpt lat="43.78371" lon="4.18024">
        <ele>128</ele>
        <time>2012-03-11T11:53:11Z</time>
      </trkpt>
      <trkpt lat="43.78369" lon="4.18024">
        <ele>128</ele>
        <time>2012-03-11T11:53:12Z</time>
      </trkpt>
      <trkpt lat="43.78367" lon="4.18024">
        <ele>128</ele>
        <time>2012-03-11T11:53:13Z</time>
      </trkpt>
      <trkpt lat="43.78365" lon="4.18023">
        <ele>128</ele>
        <time>2012-03-11T11:53:14Z</time>
      </trkpt>
      <trkpt lat="43.78364" lon="4.18023">
        <ele>128</ele>
        <time>2012-03-11T11:53:15Z</time>
      </trkpt>
      <trkpt lat="43.78363" lon="4.18022">
        <ele>128</ele>
        <time>2012-03-11T11:53:16Z</time>
      </trkpt>
      <trkpt lat="43.7836" lon="4.18022">
        <ele>128</ele>
        <time>2012-03-11T11:53:18Z</time>
      </trkpt>
      <trkpt lat="43.78358" lon="4.18022">
        <ele>128</ele>
        <time>2012-03-11T11:53:20Z</time>
      </trkpt>
      <trkpt lat="43.78356" lon="4.18022">
        <ele>128</ele>
        <time>2012-03-11T11:53:22Z</time>
      </trkpt>
      <trkpt lat="43.78355" lon="4.18022">
        <ele>128</ele>
        <time>2012-03-11T11:53:23Z</time>
      </trkpt>
      <trkpt lat="43.78352" lon="4.18022">
        <ele>128</ele>
        <time>2012-03-11T11:53:25Z</time>
      </trkpt>
      <trkpt lat="43.7835" lon="4.18022">
        <ele>128</ele>
        <time>2012-03-11T11:53:26Z</time>
      </trkpt>
      <trkpt lat="43.78349" lon="4.18022">
        <ele>129</ele>
        <time>2012-03-11T11:53:27Z</time>
      </trkpt>
      <trkpt lat="43.78347" lon="4.18022">
        <ele>129</ele>
        <time>2012-03-11T11:53:28Z</time>
      </trkpt>
      <trkpt lat="43.78345" lon="4.18022">
        <ele>129</ele>
        <time>2012-03-11T11:53:29Z</time>
      </trkpt>
      <trkpt lat="43.78344" lon="4.18022">
        <ele>130</ele>
        <time>2012-03-11T11:53:30Z</time>
      </trkpt>
      <trkpt lat="43.78342" lon="4.18022">
        <ele>130</ele>
        <time>2012-03-11T11:53:31Z</time>
      </trkpt>
      <trkpt lat="43.78341" lon="4.18022">
        <ele>130</ele>
        <time>2012-03-11T11:53:32Z</time>
      </trkpt>
      <trkpt lat="43.78339" lon="4.18022">
        <ele>131</ele>
        <time>2012-03-11T11:53:33Z</time>
      </trkpt>
      <trkpt lat="43.78338" lon="4.18022">
        <ele>131</ele>
        <time>2012-03-11T11:53:34Z</time>
      </trkpt>
      <trkpt lat="43.78337" lon="4.18022">
        <ele>132</ele>
        <time>2012-03-11T11:53:35Z</time>
      </trkpt>
      <trkpt lat="43.78336" lon="4.18023">
        <ele>132</ele>
        <time>2012-03-11T11:53:36Z</time>
      </trkpt>
      <trkpt lat="43.78334" lon="4.18023">
        <ele>132</ele>
        <time>2012-03-11T11:53:37Z</time>
      </trkpt>
      <trkpt lat="43.78332" lon="4.18023">
        <ele>133</ele>
        <time>2012-03-11T11:53:38Z</time>
      </trkpt>
      <trkpt lat="43.78329" lon="4.18024">
        <ele>134</ele>
        <time>2012-03-11T11:53:40Z</time>
      </trkpt>
      <trkpt lat="43.78328" lon="4.18024">
        <ele>134</ele>
        <time>2012-03-11T11:53:41Z</time>
      </trkpt>
      <trkpt lat="43.78327" lon="4.18024">
        <ele>135</ele>
        <time>2012-03-11T11:53:42Z</time>
      </trkpt>
      <trkpt lat="43.78326" lon="4.18023">
        <ele>135</ele>
        <time>2012-03-11T11:53:43Z</time>
      </trkpt>
      <trkpt lat="43.78324" lon="4.18023">
        <ele>136</ele>
        <time>2012-03-11T11:53:44Z</time>
      </trkpt>
      <trkpt lat="43.78323" lon="4.18023">
        <ele>136</ele>
        <time>2012-03-11T11:53:45Z</time>
      </trkpt>
      <trkpt lat="43.78321" lon="4.18023">
        <ele>136</ele>
        <time>2012-03-11T11:53:46Z</time>
      </trkpt>
      <trkpt lat="43.7832" lon="4.18023">
        <ele>136</ele>
        <time>2012-03-11T11:53:47Z</time>
      </trkpt>
      <trkpt lat="43.78318" lon="4.18023">
        <ele>137</ele>
        <time>2012-03-11T11:53:48Z</time>
      </trkpt>
      <trkpt lat="43.78317" lon="4.18023">
        <ele>137</ele>
        <time>2012-03-11T11:53:49Z</time>
      </trkpt>
      <trkpt lat="43.78315" lon="4.18023">
        <ele>137</ele>
        <time>2012-03-11T11:53:50Z</time>
      </trkpt>
      <trkpt lat="43.78314" lon="4.18022">
        <ele>137</ele>
        <time>2012-03-11T11:53:51Z</time>
      </trkpt>
      <trkpt lat="43.78313" lon="4.18022">
        <ele>137</ele>
        <time>2012-03-11T11:53:52Z</time>
      </trkpt>
      <trkpt lat="43.78311" lon="4.18021">
        <ele>137</ele>
        <time>2012-03-11T11:53:54Z</time>
      </trkpt>
      <trkpt lat="43.78309" lon="4.18019">
        <ele>137</ele>
        <time>2012-03-11T11:53:56Z</time>
      </trkpt>
      <trkpt lat="43.78307" lon="4.18019">
        <ele>137</ele>
        <time>2012-03-11T11:53:57Z</time>
      </trkpt>
      <trkpt lat="43.78306" lon="4.18018">
        <ele>137</ele>
        <time>2012-03-11T11:53:58Z</time>
      </trkpt>
      <trkpt lat="43.78305" lon="4.18018">
        <ele>137</ele>
        <time>2012-03-11T11:53:59Z</time>
      </trkpt>
      <trkpt lat="43.78304" lon="4.18017">
        <ele>137</ele>
        <time>2012-03-11T11:54:01Z</time>
      </trkpt>
      <trkpt lat="43.78302" lon="4.18017">
        <ele>137</ele>
        <time>2012-03-11T11:54:02Z</time>
      </trkpt>
      <trkpt lat="43.783" lon="4.18017">
        <ele>137</ele>
        <time>2012-03-11T11:54:03Z</time>
      </trkpt>
      <trkpt lat="43.78299" lon="4.18017">
        <ele>137</ele>
        <time>2012-03-11T11:54:04Z</time>
      </trkpt>
      <trkpt lat="43.78297" lon="4.18018">
        <ele>137</ele>
        <time>2012-03-11T11:54:05Z</time>
      </trkpt>
      <trkpt lat="43.78296" lon="4.18018">
        <ele>137</ele>
        <time>2012-03-11T11:54:06Z</time>
      </trkpt>
      <trkpt lat="43.78294" lon="4.18018">
        <ele>137</ele>
        <time>2012-03-11T11:54:07Z</time>
      </trkpt>
      <trkpt lat="43.78292" lon="4.18019">
        <ele>137</ele>
        <time>2012-03-11T11:54:08Z</time>
      </trkpt>
      <trkpt lat="43.7829" lon="4.18019">
        <ele>137</ele>
        <time>2012-03-11T11:54:09Z</time>
      </trkpt>
      <trkpt lat="43.78289" lon="4.18018">
        <ele>137</ele>
        <time>2012-03-11T11:54:10Z</time>
      </trkpt>
      <trkpt lat="43.78287" lon="4.18018">
        <ele>137</ele>
        <time>2012-03-11T11:54:11Z</time>
      </trkpt>
      <trkpt lat="43.78286" lon="4.18018">
        <ele>137</ele>
        <time>2012-03-11T11:54:12Z</time>
      </trkpt>
      <trkpt lat="43.78284" lon="4.18018">
        <ele>137</ele>
        <time>2012-03-11T11:54:13Z</time>
      </trkpt>
      <trkpt lat="43.78283" lon="4.18018">
        <ele>137</ele>
        <time>2012-03-11T11:54:14Z</time>
      </trkpt>
      <trkpt lat="43.78281" lon="4.18018">
        <ele>137</ele>
        <time>2012-03-11T11:54:15Z</time>
      </trkpt>
      <trkpt lat="43.7828" lon="4.18018">
        <ele>137</ele>
        <time>2012-03-11T11:54:16Z</time>
      </trkpt>
      <trkpt lat="43.78278" lon="4.18018">
        <ele>137</ele>
        <time>2012-03-11T11:54:17Z</time>
      </trkpt>
      <trkpt lat="43.78276" lon="4.18018">
        <ele>137</ele>
        <time>2012-03-11T11:54:18Z</time>
      </trkpt>
      <trkpt lat="43.78274" lon="4.18018">
        <ele>137</ele>
        <time>2012-03-11T11:54:19Z</time>
      </trkpt>
      <trkpt lat="43.78272" lon="4.18018">
        <ele>137</ele>
        <time>2012-03-11T11:54:20Z</time>
      </trkpt>
      <trkpt lat="43.7827" lon="4.18019">
        <ele>138</ele>
        <time>2012-03-11T11:54:21Z</time>
      </trkpt>
      <trkpt lat="43.78269" lon="4.18019">
        <ele>138</ele>
        <time>2012-03-11T11:54:22Z</time>
      </trkpt>
      <trkpt lat="43.78267" lon="4.18019">
        <ele>139</ele>
        <time>2012-03-11T11:54:23Z</time>
      </trkpt>
      <trkpt lat="43.78265" lon="4.18018">
        <ele>139</ele>
        <time>2012-03-11T11:54:24Z</time>
      </trkpt>
      <trkpt lat="43.78264" lon="4.18018">
        <ele>140</ele>
        <time>2012-03-11T11:54:25Z</time>
      </trkpt>
      <trkpt lat="43.78262" lon="4.18018">
        <ele>140</ele>
        <time>2012-03-11T11:54:26Z</time>
      </trkpt>
      <trkpt lat="43.78261" lon="4.18018">
        <ele>141</ele>
        <time>2012-03-11T11:54:27Z</time>
      </trkpt>
      <trkpt lat="43.78259" lon="4.18018">
        <ele>141</ele>
        <time>2012-03-11T11:54:28Z</time>
      </trkpt>
      <trkpt lat="43.78257" lon="4.18018">
        <ele>141</ele>
        <time>2012-03-11T11:54:29Z</time>
      </trkpt>
      <trkpt lat="43.78255" lon="4.18017">
        <ele>142</ele>
        <time>2012-03-11T11:54:30Z</time>
      </trkpt>
      <trkpt lat="43.78254" lon="4.18017">
        <ele>142</ele>
        <time>2012-03-11T11:54:31Z</time>
      </trkpt>
      <trkpt lat="43.78252" lon="4.18017">
        <ele>142</ele>
        <time>2012-03-11T11:54:32Z</time>
      </trkpt>
      <trkpt lat="43.78251" lon="4.18016">
        <ele>142</ele>
        <time>2012-03-11T11:54:33Z</time>
      </trkpt>
      <trkpt lat="43.78249" lon="4.18016">
        <ele>143</ele>
        <time>2012-03-11T11:54:34Z</time>
      </trkpt>
      <trkpt lat="43.78247" lon="4.18016">
        <ele>143</ele>
        <time>2012-03-11T11:54:35Z</time>
      </trkpt>
      <trkpt lat="43.78246" lon="4.18016">
        <ele>143</ele>
        <time>2012-03-11T11:54:36Z</time>
      </trkpt>
      <trkpt lat="43.78245" lon="4.18016">
        <ele>143</ele>
        <time>2012-03-11T11:54:37Z</time>
      </trkpt>
      <trkpt lat="43.78243" lon="4.18015">
        <ele>143</ele>
        <time>2012-03-11T11:54:39Z</time>
      </trkpt>
      <trkpt lat="43.78241" lon="4.18016">
        <ele>143</ele>
        <time>2012-03-11T11:54:40Z</time>
      </trkpt>
      <trkpt lat="43.7824" lon="4.18016">
        <ele>143</ele>
        <time>2012-03-11T11:54:41Z</time>
      </trkpt>
      <trkpt lat="43.78239" lon="4.18017">
        <ele>143</ele>
        <time>2012-03-11T11:54:42Z</time>
      </trkpt>
      <trkpt lat="43.78237" lon="4.18017">
        <ele>144</ele>
        <time>2012-03-11T11:54:43Z</time>
      </trkpt>
      <trkpt lat="43.78235" lon="4.18018">
        <ele>144</ele>
        <time>2012-03-11T11:54:44Z</time>
      </trkpt>
      <trkpt lat="43.78234" lon="4.18019">
        <ele>144</ele>
        <time>2012-03-11T11:54:45Z</time>
      </trkpt>
      <trkpt lat="43.78233" lon="4.1802">
        <ele>144</ele>
        <time>2012-03-11T11:54:46Z</time>
      </trkpt>
      <trkpt lat="43.78231" lon="4.18021">
        <ele>144</ele>
        <time>2012-03-11T11:54:47Z</time>
      </trkpt>
      <trkpt lat="43.78229" lon="4.18023">
        <ele>144</ele>
        <time>2012-03-11T11:54:49Z</time>
      </trkpt>
      <trkpt lat="43.78228" lon="4.18025">
        <ele>144</ele>
        <time>2012-03-11T11:54:50Z</time>
      </trkpt>
      <trkpt lat="43.78226" lon="4.18026">
        <ele>144</ele>
        <time>2012-03-11T11:54:51Z</time>
      </trkpt>
      <trkpt lat="43.78225" lon="4.18028">
        <ele>144</ele>
        <time>2012-03-11T11:54:52Z</time>
      </trkpt>
      <trkpt lat="43.78224" lon="4.18029">
        <ele>144</ele>
        <time>2012-03-11T11:54:53Z</time>
      </trkpt>
      <trkpt lat="43.78222" lon="4.18032">
        <ele>144</ele>
        <time>2012-03-11T11:54:55Z</time>
      </trkpt>
      <trkpt lat="43.78221" lon="4.18034">
        <ele>145</ele>
        <time>2012-03-11T11:54:56Z</time>
      </trkpt>
      <trkpt lat="43.7822" lon="4.18035">
        <ele>145</ele>
        <time>2012-03-11T11:54:57Z</time>
      </trkpt>
      <trkpt lat="43.78219" lon="4.18036">
        <ele>145</ele>
        <time>2012-03-11T11:54:58Z</time>
      </trkpt>
      <trkpt lat="43.78218" lon="4.18038">
        <ele>145</ele>
        <time>2012-03-11T11:54:59Z</time>
      </trkpt>
      <trkpt lat="43.78217" lon="4.1804">
        <ele>146</ele>
        <time>2012-03-11T11:55:00Z</time>
      </trkpt>
      <trkpt lat="43.78216" lon="4.18041">
        <ele>146</ele>
        <time>2012-03-11T11:55:01Z</time>
      </trkpt>
      <trkpt lat="43.78215" lon="4.18043">
        <ele>147</ele>
        <time>2012-03-11T11:55:02Z</time>
      </trkpt>
      <trkpt lat="43.78214" lon="4.18044">
        <ele>147</ele>
        <time>2012-03-11T11:55:03Z</time>
      </trkpt>
      <trkpt lat="43.78213" lon="4.18045">
        <ele>147</ele>
        <time>2012-03-11T11:55:04Z</time>
      </trkpt>
      <trkpt lat="43.78212" lon="4.18047">
        <ele>147</ele>
        <time>2012-03-11T11:55:05Z</time>
      </trkpt>
      <trkpt lat="43.78211" lon="4.18048">
        <ele>147</ele>
        <time>2012-03-11T11:55:06Z</time>
      </trkpt>
      <trkpt lat="43.7821" lon="4.1805">
        <ele>147</ele>
        <time>2012-03-11T11:55:07Z</time>
      </trkpt>
      <trkpt lat="43.7821" lon="4.18052">
        <ele>147</ele>
        <time>2012-03-11T11:55:08Z</time>
      </trkpt>
      <trkpt lat="43.78209" lon="4.18054">
        <ele>147</ele>
        <time>2012-03-11T11:55:10Z</time>
      </trkpt>
      <trkpt lat="43.78208" lon="4.18057">
        <ele>147</ele>
        <time>2012-03-11T11:55:12Z</time>
      </trkpt>
      <trkpt lat="43.78208" lon="4.1806">
        <ele>147</ele>
        <time>2012-03-11T11:55:13Z</time>
      </trkpt>
      <trkpt lat="43.78207" lon="4.18062">
        <ele>147</ele>
        <time>2012-03-11T11:55:14Z</time>
      </trkpt>
      <trkpt lat="43.78207" lon="4.18064">
        <ele>147</ele>
        <time>2012-03-11T11:55:15Z</time>
      </trkpt>
      <trkpt lat="43.78207" lon="4.18068">
        <ele>147</ele>
        <time>2012-03-11T11:55:16Z</time>
      </trkpt>
      <trkpt lat="43.78207" lon="4.1807">
        <ele>147</ele>
        <time>2012-03-11T11:55:17Z</time>
      </trkpt>
      <trkpt lat="43.78207" lon="4.18073">
        <ele>147</ele>
        <time>2012-03-11T11:55:18Z</time>
      </trkpt>
      <trkpt lat="43.78208" lon="4.18075">
        <ele>147</ele>
        <time>2012-03-11T11:55:19Z</time>
      </trkpt>
      <trkpt lat="43.78209" lon="4.18078">
        <ele>147</ele>
        <time>2012-03-11T11:55:20Z</time>
      </trkpt>
      <trkpt lat="43.78209" lon="4.1808">
        <ele>148</ele>
        <time>2012-03-11T11:55:21Z</time>
      </trkpt>
      <trkpt lat="43.78209" lon="4.18081">
        <ele>148</ele>
        <time>2012-03-11T11:55:22Z</time>
      </trkpt>
      <trkpt lat="43.78209" lon="4.18083">
        <ele>148</ele>
        <time>2012-03-11T11:55:23Z</time>
      </trkpt>
      <trkpt lat="43.78209" lon="4.18085">
        <ele>148</ele>
        <time>2012-03-11T11:55:24Z</time>
      </trkpt>
      <trkpt lat="43.78209" lon="4.18087">
        <ele>149</ele>
        <time>2012-03-11T11:55:25Z</time>
      </trkpt>
      <trkpt lat="43.78209" lon="4.18089">
        <ele>149</ele>
        <time>2012-03-11T11:55:26Z</time>
      </trkpt>
      <trkpt lat="43.78208" lon="4.1809">
        <ele>149</ele>
        <time>2012-03-11T11:55:27Z</time>
      </trkpt>
      <trkpt lat="43.78208" lon="4.18092">
        <ele>149</ele>
        <time>2012-03-11T11:55:28Z</time>
      </trkpt>
      <trkpt lat="43.78208" lon="4.18095">
        <ele>149</ele>
        <time>2012-03-11T11:55:29Z</time>
      </trkpt>
      <trkpt lat="43.78208" lon="4.18097">
        <ele>149</ele>
        <time>2012-03-11T11:55:30Z</time>
      </trkpt>
      <trkpt lat="43.78208" lon="4.18099">
        <ele>149</ele>
        <time>2012-03-11T11:55:31Z</time>
      </trkpt>
      <trkpt lat="43.78208" lon="4.18101">
        <ele>149</ele>
        <time>2012-03-11T11:55:32Z</time>
      </trkpt>
      <trkpt lat="43.78208" lon="4.18103">
        <ele>149</ele>
        <time>2012-03-11T11:55:33Z</time>
      </trkpt>
      <trkpt lat="43.78209" lon="4.18106">
        <ele>149</ele>
        <time>2012-03-11T11:55:34Z</time>
      </trkpt>
      <trkpt lat="43.7821" lon="4.18109">
        <ele>149</ele>
        <time>2012-03-11T11:55:35Z</time>
      </trkpt>
      <trkpt lat="43.7821" lon="4.18111">
        <ele>149</ele>
        <time>2012-03-11T11:55:36Z</time>
      </trkpt>
      <trkpt lat="43.78211" lon="4.18114">
        <ele>149</ele>
        <time>2012-03-11T11:55:37Z</time>
      </trkpt>
      <trkpt lat="43.78211" lon="4.18116">
        <ele>149</ele>
        <time>2012-03-11T11:55:38Z</time>
      </trkpt>
      <trkpt lat="43.78212" lon="4.18119">
        <ele>149</ele>
        <time>2012-03-11T11:55:39Z</time>
      </trkpt>
      <trkpt lat="43.78212" lon="4.18121">
        <ele>149</ele>
        <time>2012-03-11T11:55:40Z</time>
      </trkpt>
      <trkpt lat="43.78212" lon="4.18123">
        <ele>149</ele>
        <time>2012-03-11T11:55:41Z</time>
      </trkpt>
      <trkpt lat="43.78212" lon="4.18125">
        <ele>149</ele>
        <time>2012-03-11T11:55:42Z</time>
      </trkpt>
      <trkpt lat="43.78212" lon="4.18128">
        <ele>149</ele>
        <time>2012-03-11T11:55:43Z</time>
      </trkpt>
      <trkpt lat="43.78212" lon="4.1813">
        <ele>149</ele>
        <time>2012-03-11T11:55:44Z</time>
      </trkpt>
      <trkpt lat="43.78213" lon="4.18134">
        <ele>149</ele>
        <time>2012-03-11T11:55:45Z</time>
      </trkpt>
      <trkpt lat="43.78214" lon="4.18138">
        <ele>149</ele>
        <time>2012-03-11T11:55:46Z</time>
      </trkpt>
      <trkpt lat="43.78215" lon="4.18142">
        <ele>149</ele>
        <time>2012-03-11T11:55:47Z</time>
      </trkpt>
      <trkpt lat="43.78215" lon="4.18145">
        <ele>149</ele>
        <time>2012-03-11T11:55:48Z</time>
      </trkpt>
      <trkpt lat="43.78216" lon="4.18149">
        <ele>149</ele>
        <time>2012-03-11T11:55:49Z</time>
      </trkpt>
      <trkpt lat="43.78216" lon="4.18152">
        <ele>149</ele>
        <time>2012-03-11T11:55:50Z</time>
      </trkpt>
      <trkpt lat="43.78216" lon="4.18155">
        <ele>149</ele>
        <time>2012-03-11T11:55:51Z</time>
      </trkpt>
      <trkpt lat="43.78216" lon="4.18158">
        <ele>149</ele>
        <time>2012-03-11T11:55:52Z</time>
      </trkpt>
      <trkpt lat="43.78216" lon="4.18162">
        <ele>149</ele>
        <time>2012-03-11T11:55:53Z</time>
      </trkpt>
      <trkpt lat="43.78216" lon="4.18165">
        <ele>149</ele>
        <time>2012-03-11T11:55:54Z</time>
      </trkpt>
      <trkpt lat="43.78216" lon="4.18169">
        <ele>149</ele>
        <time>2012-03-11T11:55:55Z</time>
      </trkpt>
      <trkpt lat="43.78216" lon="4.18172">
        <ele>150</ele>
        <time>2012-03-11T11:55:56Z</time>
      </trkpt>
      <trkpt lat="43.78217" lon="4.18176">
        <ele>150</ele>
        <time>2012-03-11T11:55:57Z</time>
      </trkpt>
      <trkpt lat="43.78217" lon="4.1818">
        <ele>151</ele>
        <time>2012-03-11T11:55:58Z</time>
      </trkpt>
      <trkpt lat="43.78217" lon="4.18183">
        <ele>152</ele>
        <time>2012-03-11T11:55:59Z</time>
      </trkpt>
      <trkpt lat="43.78217" lon="4.18187">
        <ele>152</ele>
        <time>2012-03-11T11:56:00Z</time>
      </trkpt>
      <trkpt lat="43.78217" lon="4.18191">
        <ele>153</ele>
        <time>2012-03-11T11:56:01Z</time>
      </trkpt>
      <trkpt lat="43.78217" lon="4.18194">
        <ele>154</ele>
        <time>2012-03-11T11:56:02Z</time>
      </trkpt>
      <trkpt lat="43.78216" lon="4.18197">
        <ele>154</ele>
        <time>2012-03-11T11:56:03Z</time>
      </trkpt>
      <trkpt lat="43.78215" lon="4.18199">
        <ele>155</ele>
        <time>2012-03-11T11:56:04Z</time>
      </trkpt>
      <trkpt lat="43.78215" lon="4.18202">
        <ele>155</ele>
        <time>2012-03-11T11:56:05Z</time>
      </trkpt>
      <trkpt lat="43.78215" lon="4.18205">
        <ele>156</ele>
        <time>2012-03-11T11:56:06Z</time>
      </trkpt>
      <trkpt lat="43.78215" lon="4.18208">
        <ele>156</ele>
        <time>2012-03-11T11:56:07Z</time>
      </trkpt>
      <trkpt lat="43.78214" lon="4.18211">
        <ele>156</ele>
        <time>2012-03-11T11:56:08Z</time>
      </trkpt>
      <trkpt lat="43.78213" lon="4.18214">
        <ele>157</ele>
        <time>2012-03-11T11:56:09Z</time>
      </trkpt>
      <trkpt lat="43.78212" lon="4.18216">
        <ele>157</ele>
        <time>2012-03-11T11:56:10Z</time>
      </trkpt>
      <trkpt lat="43.7821" lon="4.1822">
        <ele>158</ele>
        <time>2012-03-11T11:56:11Z</time>
      </trkpt>
      <trkpt lat="43.78209" lon="4.18222">
        <ele>158</ele>
        <time>2012-03-11T11:56:12Z</time>
      </trkpt>
      <trkpt lat="43.78208" lon="4.18225">
        <ele>158</ele>
        <time>2012-03-11T11:56:13Z</time>
      </trkpt>
      <trkpt lat="43.78208" lon="4.18228">
        <ele>158</ele>
        <time>2012-03-11T11:56:14Z</time>
      </trkpt>
      <trkpt lat="43.78207" lon="4.18231">
        <ele>158</ele>
        <time>2012-03-11T11:56:15Z</time>
      </trkpt>
      <trkpt lat="43.78205" lon="4.18234">
        <ele>158</ele>
        <time>2012-03-11T11:56:16Z</time>
      </trkpt>
      <trkpt lat="43.78204" lon="4.18237">
        <ele>158</ele>
        <time>2012-03-11T11:56:17Z</time>
      </trkpt>
      <trkpt lat="43.78204" lon="4.1824">
        <ele>158</ele>
        <time>2012-03-11T11:56:18Z</time>
      </trkpt>
      <trkpt lat="43.78202" lon="4.18243">
        <ele>158</ele>
        <time>2012-03-11T11:56:19Z</time>
      </trkpt>
      <trkpt lat="43.78201" lon="4.18246">
        <ele>159</ele>
        <time>2012-03-11T11:56:20Z</time>
      </trkpt>
      <trkpt lat="43.782" lon="4.18248">
        <ele>159</ele>
        <time>2012-03-11T11:56:21Z</time>
      </trkpt>
      <trkpt lat="43.78199" lon="4.18251">
        <ele>160</ele>
        <time>2012-03-11T11:56:22Z</time>
      </trkpt>
      <trkpt lat="43.78198" lon="4.18254">
        <ele>160</ele>
        <time>2012-03-11T11:56:23Z</time>
      </trkpt>
      <trkpt lat="43.78197" lon="4.18257">
        <ele>160</ele>
        <time>2012-03-11T11:56:24Z</time>
      </trkpt>
      <trkpt lat="43.78197" lon="4.18261">
        <ele>161</ele>
        <time>2012-03-11T11:56:25Z</time>
      </trkpt>
      <trkpt lat="43.78196" lon="4.18264">
        <ele>161</ele>
        <time>2012-03-11T11:56:26Z</time>
      </trkpt>
      <trkpt lat="43.78196" lon="4.18268">
        <ele>162</ele>
        <time>2012-03-11T11:56:27Z</time>
      </trkpt>
      <trkpt lat="43.78195" lon="4.18271">
        <ele>162</ele>
        <time>2012-03-11T11:56:28Z</time>
      </trkpt>
      <trkpt lat="43.78194" lon="4.18274">
        <ele>163</ele>
        <time>2012-03-11T11:56:29Z</time>
      </trkpt>
      <trkpt lat="43.78194" lon="4.18278">
        <ele>164</ele>
        <time>2012-03-11T11:56:30Z</time>
      </trkpt>
      <trkpt lat="43.78193" lon="4.18281">
        <ele>164</ele>
        <time>2012-03-11T11:56:31Z</time>
      </trkpt>
      <trkpt lat="43.78192" lon="4.18285">
        <ele>165</ele>
        <time>2012-03-11T11:56:32Z</time>
      </trkpt>
      <trkpt lat="43.78192" lon="4.18288">
        <ele>166</ele>
        <time>2012-03-11T11:56:33Z</time>
      </trkpt>
      <trkpt lat="43.78191" lon="4.18291">
        <ele>166</ele>
        <time>2012-03-11T11:56:34Z</time>
      </trkpt>
      <trkpt lat="43.78191" lon="4.18294">
        <ele>167</ele>
        <time>2012-03-11T11:56:35Z</time>
      </trkpt>
      <trkpt lat="43.7819" lon="4.18297">
        <ele>167</ele>
        <time>2012-03-11T11:56:36Z</time>
      </trkpt>
      <trkpt lat="43.78189" lon="4.183">
        <ele>167</ele>
        <time>2012-03-11T11:56:37Z</time>
      </trkpt>
      <trkpt lat="43.78188" lon="4.18302">
        <ele>167</ele>
        <time>2012-03-11T11:56:38Z</time>
      </trkpt>
      <trkpt lat="43.78187" lon="4.18305">
        <ele>167</ele>
        <time>2012-03-11T11:56:39Z</time>
      </trkpt>
      <trkpt lat="43.78186" lon="4.18308">
        <ele>167</ele>
        <time>2012-03-11T11:56:40Z</time>
      </trkpt>
      <trkpt lat="43.78185" lon="4.18311">
        <ele>167</ele>
        <time>2012-03-11T11:56:41Z</time>
      </trkpt>
      <trkpt lat="43.78185" lon="4.18313">
        <ele>167</ele>
        <time>2012-03-11T11:56:42Z</time>
      </trkpt>
      <trkpt lat="43.78184" lon="4.18316">
        <ele>167</ele>
        <time>2012-03-11T11:56:43Z</time>
      </trkpt>
      <trkpt lat="43.78183" lon="4.18319">
        <ele>167</ele>
        <time>2012-03-11T11:56:44Z</time>
      </trkpt>
      <trkpt lat="43.78182" lon="4.18322">
        <ele>167</ele>
        <time>2012-03-11T11:56:45Z</time>
      </trkpt>
      <trkpt lat="43.78182" lon="4.18324">
        <ele>167</ele>
        <time>2012-03-11T11:56:46Z</time>
      </trkpt>
      <trkpt lat="43.78181" lon="4.18327">
        <ele>167</ele>
        <time>2012-03-11T11:56:47Z</time>
      </trkpt>
      <trkpt lat="43.7818" lon="4.1833">
        <ele>167</ele>
        <time>2012-03-11T11:56:48Z</time>
      </trkpt>
      <trkpt lat="43.7818" lon="4.18332">
        <ele>167</ele>
        <time>2012-03-11T11:56:49Z</time>
      </trkpt>
      <trkpt lat="43.78179" lon="4.18334">
        <ele>167</ele>
        <time>2012-03-11T11:56:50Z</time>
      </trkpt>
      <trkpt lat="43.78178" lon="4.18337">
        <ele>167</ele>
        <time>2012-03-11T11:56:51Z</time>
      </trkpt>
      <trkpt lat="43.78177" lon="4.18339">
        <ele>167</ele>
        <time>2012-03-11T11:56:52Z</time>
      </trkpt>
      <trkpt lat="43.78176" lon="4.18341">
        <ele>167</ele>
        <time>2012-03-11T11:56:53Z</time>
      </trkpt>
      <trkpt lat="43.78175" lon="4.18343">
        <ele>167</ele>
        <time>2012-03-11T11:56:54Z</time>
      </trkpt>
      <trkpt lat="43.78175" lon="4.18345">
        <ele>167</ele>
        <time>2012-03-11T11:56:55Z</time>
      </trkpt>
      <trkpt lat="43.78174" lon="4.18347">
        <ele>167</ele>
        <time>2012-03-11T11:56:56Z</time>
      </trkpt>
      <trkpt lat="43.78173" lon="4.18349">
        <ele>167</ele>
        <time>2012-03-11T11:56:57Z</time>
      </trkpt>
      <trkpt lat="43.78173" lon="4.18352">
        <ele>167</ele>
        <time>2012-03-11T11:56:58Z</time>
      </trkpt>
      <trkpt lat="43.78173" lon="4.18354">
        <ele>167</ele>
        <time>2012-03-11T11:56:59Z</time>
      </trkpt>
      <trkpt lat="43.78172" lon="4.18356">
        <ele>167</ele>
        <time>2012-03-11T11:57:00Z</time>
      </trkpt>
      <trkpt lat="43.78171" lon="4.18358">
        <ele>167</ele>
        <time>2012-03-11T11:57:01Z</time>
      </trkpt>
      <trkpt lat="43.7817" lon="4.18361">
        <ele>167</ele>
        <time>2012-03-11T11:57:02Z</time>
      </trkpt>
      <trkpt lat="43.7817" lon="4.18363">
        <ele>167</ele>
        <time>2012-03-11T11:57:03Z</time>
      </trkpt>
      <trkpt lat="43.78169" lon="4.18364">
        <ele>167</ele>
        <time>2012-03-11T11:57:04Z</time>
      </trkpt>
      <trkpt lat="43.78168" lon="4.18366">
        <ele>167</ele>
        <time>2012-03-11T11:57:05Z</time>
      </trkpt>
      <trkpt lat="43.78167" lon="4.18369">
        <ele>167</ele>
        <time>2012-03-11T11:57:06Z</time>
      </trkpt>
      <trkpt lat="43.78167" lon="4.18371">
        <ele>167</ele>
        <time>2012-03-11T11:57:07Z</time>
      </trkpt>
      <trkpt lat="43.78167" lon="4.18373">
        <ele>167</ele>
        <time>2012-03-11T11:57:08Z</time>
      </trkpt>
      <trkpt lat="43.78166" lon="4.18375">
        <ele>167</ele>
        <time>2012-03-11T11:57:09Z</time>
      </trkpt>
      <trkpt lat="43.78167" lon="4.18377">
        <ele>167</ele>
        <time>2012-03-11T11:57:10Z</time>
      </trkpt>
      <trkpt lat="43.78168" lon="4.18378">
        <ele>167</ele>
        <time>2012-03-11T11:57:14Z</time>
      </trkpt>
      <trkpt lat="43.78167" lon="4.1838">
        <ele>164</ele>
        <time>2012-03-11T11:57:24Z</time>
      </trkpt>
      <trkpt lat="43.78167" lon="4.18382">
        <ele>161</ele>
        <time>2012-03-11T11:57:48Z</time>
      </trkpt>
      <trkpt lat="43.78168" lon="4.18383">
        <ele>163</ele>
        <time>2012-03-11T11:58:00Z</time>
      </trkpt>
      <trkpt lat="43.78167" lon="4.18381">
        <ele>163</ele>
        <time>2012-03-11T11:58:36Z</time>
      </trkpt>
      <trkpt lat="43.78166" lon="4.1838">
        <ele>163</ele>
        <time>2012-03-11T11:58:49Z</time>
      </trkpt>
      <trkpt lat="43.78165" lon="4.18378">
        <ele>166</ele>
        <time>2012-03-11T11:59:08Z</time>
      </trkpt>
      <trkpt lat="43.78165" lon="4.1838">
        <ele>167</ele>
        <time>2012-03-11T11:59:29Z</time>
      </trkpt>
      <trkpt lat="43.78166" lon="4.18382">
        <ele>167</ele>
        <time>2012-03-11T11:59:33Z</time>
      </trkpt>
      <trkpt lat="43.78166" lon="4.1838">
        <ele>167</ele>
        <time>2012-03-11T11:59:49Z</time>
      </trkpt>
      <trkpt lat="43.78166" lon="4.18378">
        <ele>167</ele>
        <time>2012-03-11T12:00:04Z</time>
      </trkpt>
      <trkpt lat="43.78167" lon="4.18379">
        <ele>167</ele>
        <time>2012-03-11T12:00:55Z</time>
      </trkpt>
      <trkpt lat="43.78167" lon="4.1838">
        <ele>167</ele>
        <time>2012-03-11T12:01:03Z</time>
      </trkpt>
      <trkpt lat="43.78168" lon="4.1838">
        <ele>167</ele>
        <time>2012-03-11T12:01:20Z</time>
      </trkpt>
      <trkpt lat="43.78169" lon="4.18382">
        <ele>167</ele>
        <time>2012-03-11T12:01:23Z</time>
      </trkpt>
      <trkpt lat="43.7817" lon="4.18384">
        <ele>167</ele>
        <time>2012-03-11T12:01:26Z</time>
      </trkpt>
      <trkpt lat="43.7817" lon="4.18385">
        <ele>167</ele>
        <time>2012-03-11T12:01:32Z</time>
      </trkpt>
      <trkpt lat="43.78169" lon="4.18384">
        <ele>167</ele>
        <time>2012-03-11T12:01:38Z</time>
      </trkpt>
      <trkpt lat="43.78169" lon="4.18382">
        <ele>167</ele>
        <time>2012-03-11T12:01:53Z</time>
      </trkpt>
      <trkpt lat="43.7817" lon="4.18383">
        <ele>165</ele>
        <time>2012-03-11T12:02:07Z</time>
      </trkpt>
      <trkpt lat="43.7817" lon="4.18385">
        <ele>164</ele>
        <time>2012-03-11T12:02:10Z</time>
      </trkpt>
      <trkpt lat="43.7817" lon="4.18386">
        <ele>164</ele>
        <time>2012-03-11T12:02:12Z</time>
      </trkpt>
      <trkpt lat="43.78171" lon="4.18388">
        <ele>163</ele>
        <time>2012-03-11T12:02:16Z</time>
      </trkpt>
      <trkpt lat="43.78171" lon="4.18389">
        <ele>162</ele>
        <time>2012-03-11T12:02:21Z</time>
      </trkpt>
      <trkpt lat="43.78171" lon="4.18391">
        <ele>161</ele>
        <time>2012-03-11T12:02:26Z</time>
      </trkpt>
      <trkpt lat="43.78172" lon="4.18389">
        <ele>160</ele>
        <time>2012-03-11T12:02:33Z</time>
      </trkpt>
      <trkpt lat="43.78171" lon="4.18389">
        <ele>160</ele>
        <time>2012-03-11T12:02:48Z</time>
      </trkpt>
      <trkpt lat="43.7817" lon="4.18388">
        <ele>160</ele>
        <time>2012-03-11T12:03:06Z</time>
      </trkpt>
      <trkpt lat="43.78168" lon="4.18387">
        <ele>160</ele>
        <time>2012-03-11T12:03:14Z</time>
      </trkpt>
      <trkpt lat="43.78167" lon="4.18387">
        <ele>160</ele>
        <time>2012-03-11T12:03:24Z</time>
      </trkpt>
      <trkpt lat="43.78167" lon="4.18385">
        <ele>162</ele>
        <time>2012-03-11T12:03:34Z</time>
      </trkpt>
      <trkpt lat="43.78166" lon="4.18383">
        <ele>162</ele>
        <time>2012-03-11T12:03:37Z</time>
      </trkpt>
      <trkpt lat="43.78165" lon="4.18381">
        <ele>162</ele>
        <time>2012-03-11T12:03:41Z</time>
      </trkpt>
      <trkpt lat="43.78165" lon="4.18379">
        <ele>162</ele>
        <time>2012-03-11T12:03:47Z</time>
      </trkpt>
      <trkpt lat="43.78165" lon="4.18378">
        <ele>162</ele>
        <time>2012-03-11T12:03:56Z</time>
      </trkpt>
      <trkpt lat="43.78164" lon="4.18378">
        <ele>162</ele>
        <time>2012-03-11T12:04:06Z</time>
      </trkpt>
      <trkpt lat="43.78164" lon="4.1838">
        <ele>162</ele>
        <time>2012-03-11T12:04:08Z</time>
      </trkpt>
      <trkpt lat="43.78162" lon="4.18381">
        <ele>162</ele>
        <time>2012-03-11T12:04:15Z</time>
      </trkpt>
      <trkpt lat="43.78162" lon="4.18379">
        <ele>162</ele>
        <time>2012-03-11T12:04:22Z</time>
      </trkpt>
      <trkpt lat="43.78161" lon="4.18378">
        <ele>162</ele>
        <time>2012-03-11T12:04:32Z</time>
      </trkpt>
      <trkpt lat="43.78162" lon="4.18379">
        <ele>162</ele>
        <time>2012-03-11T12:04:41Z</time>
      </trkpt>
      <trkpt lat="43.78162" lon="4.18381">
        <ele>162</ele>
        <time>2012-03-11T12:04:50Z</time>
      </trkpt>
      <trkpt lat="43.78163" lon="4.18381">
        <ele>162</ele>
        <time>2012-03-11T12:05:03Z</time>
      </trkpt>
      <trkpt lat="43.78164" lon="4.18381">
        <ele>162</ele>
        <time>2012-03-11T12:05:11Z</time>
      </trkpt>
      <trkpt lat="43.78165" lon="4.18379">
        <ele>161</ele>
        <time>2012-03-11T12:05:49Z</time>
      </trkpt>
      <trkpt lat="43.78164" lon="4.18378">
        <ele>161</ele>
        <time>2012-03-11T12:06:13Z</time>
      </trkpt>
      <trkpt lat="43.78164" lon="4.18376">
        <ele>160</ele>
        <time>2012-03-11T12:06:20Z</time>
      </trkpt>
      <trkpt lat="43.78164" lon="4.18375">
        <ele>159</ele>
        <time>2012-03-11T12:06:26Z</time>
      </trkpt>
      <trkpt lat="43.78163" lon="4.18376">
        <ele>159</ele>
        <time>2012-03-11T12:06:50Z</time>
      </trkpt>
      <trkpt lat="43.78162" lon="4.18375">
        <ele>162</ele>
        <time>2012-03-11T12:06:59Z</time>
      </trkpt>
      <trkpt lat="43.78161" lon="4.18373">
        <ele>162</ele>
        <time>2012-03-11T12:07:09Z</time>
      </trkpt>
      <trkpt lat="43.78162" lon="4.18374">
        <ele>162</ele>
        <time>2012-03-11T12:07:33Z</time>
      </trkpt>
      <trkpt lat="43.78164" lon="4.18375">
        <ele>162</ele>
        <time>2012-03-11T12:07:37Z</time>
      </trkpt>
      <trkpt lat="43.78164" lon="4.18374">
        <ele>162</ele>
        <time>2012-03-11T12:07:58Z</time>
      </trkpt>
      <trkpt lat="43.78164" lon="4.18372">
        <ele>161</ele>
        <time>2012-03-11T12:08:02Z</time>
      </trkpt>
      <trkpt lat="43.78162" lon="4.18372">
        <ele>158</ele>
        <time>2012-03-11T12:08:33Z</time>
      </trkpt>
      <trkpt lat="43.78163" lon="4.18374">
        <ele>158</ele>
        <time>2012-03-11T12:08:53Z</time>
      </trkpt>
      <trkpt lat="43.78163" lon="4.18375">
        <ele>158</ele>
        <time>2012-03-11T12:08:59Z</time>
      </trkpt>
      <trkpt lat="43.78162" lon="4.18374">
        <ele>158</ele>
        <time>2012-03-11T12:09:08Z</time>
      </trkpt>
      <trkpt lat="43.78162" lon="4.18372">
        <ele>157</ele>
        <time>2012-03-11T12:09:11Z</time>
      </trkpt>
      <trkpt lat="43.78162" lon="4.1837">
        <ele>156</ele>
        <time>2012-03-11T12:09:13Z</time>
      </trkpt>
      <trkpt lat="43.78161" lon="4.18369">
        <ele>154</ele>
        <time>2012-03-11T12:09:22Z</time>
      </trkpt>
      <trkpt lat="43.78161" lon="4.18371">
        <ele>154</ele>
        <time>2012-03-11T12:09:26Z</time>
      </trkpt>
      <trkpt lat="43.78162" lon="4.18373">
        <ele>154</ele>
        <time>2012-03-11T12:09:29Z</time>
      </trkpt>
      <trkpt lat="43.78163" lon="4.18375">
        <ele>155</ele>
        <time>2012-03-11T12:09:31Z</time>
      </trkpt>
      <trkpt lat="43.78164" lon="4.18377">
        <ele>156</ele>
        <time>2012-03-11T12:09:37Z</time>
      </trkpt>
      <trkpt lat="43.78165" lon="4.18378">
        <ele>157</ele>
        <time>2012-03-11T12:09:43Z</time>
      </trkpt>
      <trkpt lat="43.78166" lon="4.1838">
        <ele>157</ele>
        <time>2012-03-11T12:09:48Z</time>
      </trkpt>
      <trkpt lat="43.78167" lon="4.1838">
        <ele>157</ele>
        <time>2012-03-11T12:09:59Z</time>
      </trkpt>
      <trkpt lat="43.78167" lon="4.18379">
        <ele>157</ele>
        <time>2012-03-11T12:10:10Z</time>
      </trkpt>
      <trkpt lat="43.78167" lon="4.18377">
        <ele>157</ele>
        <time>2012-03-11T12:10:14Z</time>
      </trkpt>
      <trkpt lat="43.78167" lon="4.18379">
        <ele>157</ele>
        <time>2012-03-11T12:10:40Z</time>
      </trkpt>
      <trkpt lat="43.78168" lon="4.1838">
        <ele>157</ele>
        <time>2012-03-11T12:10:50Z</time>
      </trkpt>
      <trkpt lat="43.78169" lon="4.18381">
        <ele>157</ele>
        <time>2012-03-11T12:10:55Z</time>
      </trkpt>
      <trkpt lat="43.7817" lon="4.18382">
        <ele>157</ele>
        <time>2012-03-11T12:11:01Z</time>
      </trkpt>
      <trkpt lat="43.78171" lon="4.18384">
        <ele>157</ele>
        <time>2012-03-11T12:11:04Z</time>
      </trkpt>
      <trkpt lat="43.78172" lon="4.18385">
        <ele>157</ele>
        <time>2012-03-11T12:11:11Z</time>
      </trkpt>
      <trkpt lat="43.78173" lon="4.18385">
        <ele>157</ele>
        <time>2012-03-11T12:11:15Z</time>
      </trkpt>
      <trkpt lat="43.78172" lon="4.18385">
        <ele>157</ele>
        <time>2012-03-11T12:11:18Z</time>
      </trkpt>
      <trkpt lat="43.78173" lon="4.18386">
        <ele>157</ele>
        <time>2012-03-11T12:11:45Z</time>
      </trkpt>
      <trkpt lat="43.78173" lon="4.18388">
        <ele>157</ele>
        <time>2012-03-11T12:11:49Z</time>
      </trkpt>
      <trkpt lat="43.78174" lon="4.18389">
        <ele>157</ele>
        <time>2012-03-11T12:11:54Z</time>
      </trkpt>
      <trkpt lat="43.78174" lon="4.18391">
        <ele>157</ele>
        <time>2012-03-11T12:12:00Z</time>
      </trkpt>
      <trkpt lat="43.78175" lon="4.18392">
        <ele>157</ele>
        <time>2012-03-11T12:12:08Z</time>
      </trkpt>
      <trkpt lat="43.78175" lon="4.1839">
        <ele>157</ele>
        <time>2012-03-11T12:12:16Z</time>
      </trkpt>
      <trkpt lat="43.78175" lon="4.18392">
        <ele>157</ele>
        <time>2012-03-11T12:12:29Z</time>
      </trkpt>
      <trkpt lat="43.78175" lon="4.18393">
        <ele>157</ele>
        <time>2012-03-11T12:12:35Z</time>
      </trkpt>
      <trkpt lat="43.78174" lon="4.18392">
        <ele>158</ele>
        <time>2012-03-11T12:12:53Z</time>
      </trkpt>
      <trkpt lat="43.78174" lon="4.18391">
        <ele>158</ele>
        <time>2012-03-11T12:13:08Z</time>
      </trkpt>
      <trkpt lat="43.78174" lon="4.18393">
        <ele>157</ele>
        <time>2012-03-11T12:13:17Z</time>
      </trkpt>
      <trkpt lat="43.78175" lon="4.18394">
        <ele>157</ele>
        <time>2012-03-11T12:13:40Z</time>
      </trkpt>
      <trkpt lat="43.78175" lon="4.18395">
        <ele>157</ele>
        <time>2012-03-11T12:13:44Z</time>
      </trkpt>
      <trkpt lat="43.78174" lon="4.18393">
        <ele>157</ele>
        <time>2012-03-11T12:13:52Z</time>
      </trkpt>
      <trkpt lat="43.78173" lon="4.18392">
        <ele>156</ele>
        <time>2012-03-11T12:13:55Z</time>
      </trkpt>
      <trkpt lat="43.78173" lon="4.1839">
        <ele>155</ele>
        <time>2012-03-11T12:14:00Z</time>
      </trkpt>
      <trkpt lat="43.78173" lon="4.18392">
        <ele>155</ele>
        <time>2012-03-11T12:14:14Z</time>
      </trkpt>
      <trkpt lat="43.78174" lon="4.18394">
        <ele>155</ele>
        <time>2012-03-11T12:14:21Z</time>
      </trkpt>
      <trkpt lat="43.78175" lon="4.18395">
        <ele>155</ele>
        <time>2012-03-11T12:14:25Z</time>
      </trkpt>
      <trkpt lat="43.78174" lon="4.18394">
        <ele>155</ele>
        <time>2012-03-11T12:14:37Z</time>
      </trkpt>
      <trkpt lat="43.78174" lon="4.18396">
        <ele>155</ele>
        <time>2012-03-11T12:14:41Z</time>
      </trkpt>
      <trkpt lat="43.78173" lon="4.18394">
        <ele>155</ele>
        <time>2012-03-11T12:14:51Z</time>
      </trkpt>
      <trkpt lat="43.78172" lon="4.18393">
        <ele>155</ele>
        <time>2012-03-11T12:14:57Z</time>
      </trkpt>
      <trkpt lat="43.78172" lon="4.18394">
        <ele>155</ele>
        <time>2012-03-11T12:15:06Z</time>
      </trkpt>
      <trkpt lat="43.78173" lon="4.18396">
        <ele>155</ele>
        <time>2012-03-11T12:15:07Z</time>
      </trkpt>
      <trkpt lat="43.78173" lon="4.18397">
        <ele>155</ele>
        <time>2012-03-11T12:15:14Z</time>
      </trkpt>
      <trkpt lat="43.78173" lon="4.18399">
        <ele>155</ele>
        <time>2012-03-11T12:15:18Z</time>
      </trkpt>
      <trkpt lat="43.78173" lon="4.184">
        <ele>155</ele>
        <time>2012-03-11T12:15:24Z</time>
      </trkpt>
      <trkpt lat="43.78174" lon="4.18402">
        <ele>155</ele>
        <time>2012-03-11T12:15:34Z</time>
      </trkpt>
      <trkpt lat="43.78175" lon="4.18402">
        <ele>155</ele>
        <time>2012-03-11T12:15:58Z</time>
      </trkpt>
      <trkpt lat="43.78174" lon="4.18404">
        <ele>155</ele>
        <time>2012-03-11T12:16:04Z</time>
      </trkpt>
      <trkpt lat="43.78173" lon="4.18407">
        <ele>155</ele>
        <time>2012-03-11T12:16:05Z</time>
      </trkpt>
      <trkpt lat="43.7817" lon="4.18411">
        <ele>155</ele>
        <time>2012-03-11T12:16:06Z</time>
      </trkpt>
      <trkpt lat="43.78167" lon="4.18414">
        <ele>155</ele>
        <time>2012-03-11T12:16:07Z</time>
      </trkpt>
      <trkpt lat="43.78163" lon="4.18417">
        <ele>155</ele>
        <time>2012-03-11T12:16:08Z</time>
      </trkpt>
      <trkpt lat="43.78161" lon="4.18421">
        <ele>155</ele>
        <time>2012-03-11T12:16:09Z</time>
      </trkpt>
      <trkpt lat="43.7816" lon="4.18426">
        <ele>155</ele>
        <time>2012-03-11T12:16:10Z</time>
      </trkpt>
      <trkpt lat="43.78162" lon="4.18432">
        <ele>155</ele>
        <time>2012-03-11T12:16:11Z</time>
      </trkpt>
      <trkpt lat="43.78164" lon="4.18437">
        <ele>155</ele>
        <time>2012-03-11T12:16:12Z</time>
      </trkpt>
      <trkpt lat="43.78166" lon="4.18442">
        <ele>155</ele>
        <time>2012-03-11T12:16:13Z</time>
      </trkpt>
      <trkpt lat="43.78166" lon="4.18446">
        <ele>155</ele>
        <time>2012-03-11T12:16:14Z</time>
      </trkpt>
      <trkpt lat="43.78165" lon="4.1845">
        <ele>154</ele>
        <time>2012-03-11T12:16:15Z</time>
      </trkpt>
      <trkpt lat="43.78165" lon="4.18457">
        <ele>154</ele>
        <time>2012-03-11T12:16:16Z</time>
      </trkpt>
      <trkpt lat="43.78165" lon="4.18464">
        <ele>153</ele>
        <time>2012-03-11T12:16:17Z</time>
      </trkpt>
      <trkpt lat="43.78165" lon="4.18471">
        <ele>153</ele>
        <time>2012-03-11T12:16:18Z</time>
      </trkpt>
      <trkpt lat="43.78166" lon="4.18476">
        <ele>152</ele>
        <time>2012-03-11T12:16:19Z</time>
      </trkpt>
      <trkpt lat="43.78166" lon="4.18482">
        <ele>151</ele>
        <time>2012-03-11T12:16:20Z</time>
      </trkpt>
      <trkpt lat="43.78167" lon="4.18488">
        <ele>150</ele>
        <time>2012-03-11T12:16:21Z</time>
      </trkpt>
      <trkpt lat="43.78168" lon="4.18494">
        <ele>149</ele>
        <time>2012-03-11T12:16:22Z</time>
      </trkpt>
      <trkpt lat="43.7817" lon="4.185">
        <ele>149</ele>
        <time>2012-03-11T12:16:23Z</time>
      </trkpt>
      <trkpt lat="43.78171" lon="4.18503">
        <ele>148</ele>
        <time>2012-03-11T12:16:24Z</time>
      </trkpt>
      <trkpt lat="43.78173" lon="4.18506">
        <ele>147</ele>
        <time>2012-03-11T12:16:25Z</time>
      </trkpt>
      <trkpt lat="43.78173" lon="4.18508">
        <ele>147</ele>
        <time>2012-03-11T12:16:26Z</time>
      </trkpt>
      <trkpt lat="43.78175" lon="4.1851">
        <ele>146</ele>
        <time>2012-03-11T12:16:27Z</time>
      </trkpt>
      <trkpt lat="43.78177" lon="4.18512">
        <ele>146</ele>
        <time>2012-03-11T12:16:28Z</time>
      </trkpt>
      <trkpt lat="43.7818" lon="4.18512">
        <ele>145</ele>
        <time>2012-03-11T12:16:29Z</time>
      </trkpt>
      <trkpt lat="43.78183" lon="4.18513">
        <ele>145</ele>
        <time>2012-03-11T12:16:30Z</time>
      </trkpt>
      <trkpt lat="43.78186" lon="4.18514">
        <ele>144</ele>
        <time>2012-03-11T12:16:31Z</time>
      </trkpt>
      <trkpt lat="43.7819" lon="4.18516">
        <ele>143</ele>
        <time>2012-03-11T12:16:32Z</time>
      </trkpt>
      <trkpt lat="43.78194" lon="4.18514">
        <ele>142</ele>
        <time>2012-03-11T12:16:33Z</time>
      </trkpt>
      <trkpt lat="43.78198" lon="4.18512">
        <ele>142</ele>
        <time>2012-03-11T12:16:34Z</time>
      </trkpt>
      <trkpt lat="43.78203" lon="4.18512">
        <ele>141</ele>
        <time>2012-03-11T12:16:35Z</time>
      </trkpt>
      <trkpt lat="43.78208" lon="4.1851">
        <ele>140</ele>
        <time>2012-03-11T12:16:36Z</time>
      </trkpt>
      <trkpt lat="43.78212" lon="4.18508">
        <ele>140</ele>
        <time>2012-03-11T12:16:37Z</time>
      </trkpt>
      <trkpt lat="43.78218" lon="4.18505">
        <ele>139</ele>
        <time>2012-03-11T12:16:38Z</time>
      </trkpt>
      <trkpt lat="43.78222" lon="4.18501">
        <ele>139</ele>
        <time>2012-03-11T12:16:39Z</time>
      </trkpt>
      <trkpt lat="43.78227" lon="4.18497">
        <ele>138</ele>
        <time>2012-03-11T12:16:40Z</time>
      </trkpt>
      <trkpt lat="43.78232" lon="4.18494">
        <ele>138</ele>
        <time>2012-03-11T12:16:41Z</time>
      </trkpt>
      <trkpt lat="43.78237" lon="4.18491">
        <ele>138</ele>
        <time>2012-03-11T12:16:42Z</time>
      </trkpt>
      <trkpt lat="43.7824" lon="4.18488">
        <ele>138</ele>
        <time>2012-03-11T12:16:43Z</time>
      </trkpt>
      <trkpt lat="43.78243" lon="4.18486">
        <ele>138</ele>
        <time>2012-03-11T12:16:44Z</time>
      </trkpt>
      <trkpt lat="43.78247" lon="4.18484">
        <ele>138</ele>
        <time>2012-03-11T12:16:45Z</time>
      </trkpt>
      <trkpt lat="43.78252" lon="4.18481">
        <ele>137</ele>
        <time>2012-03-11T12:16:46Z</time>
      </trkpt>
      <trkpt lat="43.78256" lon="4.1848">
        <ele>137</ele>
        <time>2012-03-11T12:16:47Z</time>
      </trkpt>
      <trkpt lat="43.7826" lon="4.18478">
        <ele>136</ele>
        <time>2012-03-11T12:16:48Z</time>
      </trkpt>
      <trkpt lat="43.78264" lon="4.18475">
        <ele>136</ele>
        <time>2012-03-11T12:16:49Z</time>
      </trkpt>
      <trkpt lat="43.78268" lon="4.18472">
        <ele>136</ele>
        <time>2012-03-11T12:16:50Z</time>
      </trkpt>
      <trkpt lat="43.78273" lon="4.18472">
        <ele>135</ele>
        <time>2012-03-11T12:16:51Z</time>
      </trkpt>
      <trkpt lat="43.78278" lon="4.18472">
        <ele>134</ele>
        <time>2012-03-11T12:16:52Z</time>
      </trkpt>
      <trkpt lat="43.78283" lon="4.18473">
        <ele>134</ele>
        <time>2012-03-11T12:16:53Z</time>
      </trkpt>
      <trkpt lat="43.78288" lon="4.18473">
        <ele>133</ele>
        <time>2012-03-11T12:16:54Z</time>
      </trkpt>
      <trkpt lat="43.78295" lon="4.18475">
        <ele>132</ele>
        <time>2012-03-11T12:16:55Z</time>
      </trkpt>
      <trkpt lat="43.78302" lon="4.18477">
        <ele>132</ele>
        <time>2012-03-11T12:16:56Z</time>
      </trkpt>
      <trkpt lat="43.78308" lon="4.1848">
        <ele>131</ele>
        <time>2012-03-11T12:16:57Z</time>
      </trkpt>
      <trkpt lat="43.78315" lon="4.18481">
        <ele>130</ele>
        <time>2012-03-11T12:16:58Z</time>
      </trkpt>
      <trkpt lat="43.78321" lon="4.18482">
        <ele>129</ele>
        <time>2012-03-11T12:16:59Z</time>
      </trkpt>
      <trkpt lat="43.78326" lon="4.18484">
        <ele>128</ele>
        <time>2012-03-11T12:17:00Z</time>
      </trkpt>
      <trkpt lat="43.78328" lon="4.18486">
        <ele>128</ele>
        <time>2012-03-11T12:17:01Z</time>
      </trkpt>
      <trkpt lat="43.78328" lon="4.18489">
        <ele>128</ele>
        <time>2012-03-11T12:17:02Z</time>
      </trkpt>
      <trkpt lat="43.78323" lon="4.18493">
        <ele>127</ele>
        <time>2012-03-11T12:17:03Z</time>
      </trkpt>
      <trkpt lat="43.78319" lon="4.18497">
        <ele>127</ele>
        <time>2012-03-11T12:17:04Z</time>
      </trkpt>
      <trkpt lat="43.78313" lon="4.18501">
        <ele>126</ele>
        <time>2012-03-11T12:17:05Z</time>
      </trkpt>
      <trkpt lat="43.78307" lon="4.18505">
        <ele>125</ele>
        <time>2012-03-11T12:17:06Z</time>
      </trkpt>
      <trkpt lat="43.78299" lon="4.1851">
        <ele>125</ele>
        <time>2012-03-11T12:17:07Z</time>
      </trkpt>
      <trkpt lat="43.78292" lon="4.18515">
        <ele>124</ele>
        <time>2012-03-11T12:17:08Z</time>
      </trkpt>
      <trkpt lat="43.78286" lon="4.1852">
        <ele>123</ele>
        <time>2012-03-11T12:17:09Z</time>
      </trkpt>
      <trkpt lat="43.7828" lon="4.18526">
        <ele>123</ele>
        <time>2012-03-11T12:17:10Z</time>
      </trkpt>
      <trkpt lat="43.78275" lon="4.1853">
        <ele>123</ele>
        <time>2012-03-11T12:17:11Z</time>
      </trkpt>
      <trkpt lat="43.78272" lon="4.18535">
        <ele>122</ele>
        <time>2012-03-11T12:17:12Z</time>
      </trkpt>
      <trkpt lat="43.78267" lon="4.18539">
        <ele>122</ele>
        <time>2012-03-11T12:17:13Z</time>
      </trkpt>
      <trkpt lat="43.78262" lon="4.18542">
        <ele>121</ele>
        <time>2012-03-11T12:17:14Z</time>
      </trkpt>
      <trkpt lat="43.78257" lon="4.18544">
        <ele>121</ele>
        <time>2012-03-11T12:17:15Z</time>
      </trkpt>
      <trkpt lat="43.78253" lon="4.18545">
        <ele>120</ele>
        <time>2012-03-11T12:17:16Z</time>
      </trkpt>
      <trkpt lat="43.78249" lon="4.18548">
        <ele>119</ele>
        <time>2012-03-11T12:17:17Z</time>
      </trkpt>
      <trkpt lat="43.78245" lon="4.18552">
        <ele>118</ele>
        <time>2012-03-11T12:17:18Z</time>
      </trkpt>
      <trkpt lat="43.7824" lon="4.18556">
        <ele>117</ele>
        <time>2012-03-11T12:17:19Z</time>
      </trkpt>
      <trkpt lat="43.78235" lon="4.18559">
        <ele>117</ele>
        <time>2012-03-11T12:17:20Z</time>
      </trkpt>
      <trkpt lat="43.7823" lon="4.18562">
        <ele>116</ele>
        <time>2012-03-11T12:17:21Z</time>
      </trkpt>
      <trkpt lat="43.78225" lon="4.18566">
        <ele>116</ele>
        <time>2012-03-11T12:17:22Z</time>
      </trkpt>
      <trkpt lat="43.7822" lon="4.18568">
        <ele>116</ele>
        <time>2012-03-11T12:17:23Z</time>
      </trkpt>
      <trkpt lat="43.78216" lon="4.18571">
        <ele>115</ele>
        <time>2012-03-11T12:17:24Z</time>
      </trkpt>
      <trkpt lat="43.78214" lon="4.18575">
        <ele>115</ele>
        <time>2012-03-11T12:17:25Z</time>
      </trkpt>
      <trkpt lat="43.7821" lon="4.1858">
        <ele>115</ele>
        <time>2012-03-11T12:17:26Z</time>
      </trkpt>
      <trkpt lat="43.78207" lon="4.18584">
        <ele>114</ele>
        <time>2012-03-11T12:17:27Z</time>
      </trkpt>
      <trkpt lat="43.78203" lon="4.18589">
        <ele>113</ele>
        <time>2012-03-11T12:17:28Z</time>
      </trkpt>
      <trkpt lat="43.78197" lon="4.18594">
        <ele>113</ele>
        <time>2012-03-11T12:17:29Z</time>
      </trkpt>
      <trkpt lat="43.78191" lon="4.18598">
        <ele>112</ele>
        <time>2012-03-11T12:17:30Z</time>
      </trkpt>
      <trkpt lat="43.78185" lon="4.18603">
        <ele>112</ele>
        <time>2012-03-11T12:17:31Z</time>
      </trkpt>
      <trkpt lat="43.78178" lon="4.18608">
        <ele>112</ele>
        <time>2012-03-11T12:17:32Z</time>
      </trkpt>
      <trkpt lat="43.78171" lon="4.18615">
        <ele>111</ele>
        <time>2012-03-11T12:17:33Z</time>
      </trkpt>
      <trkpt lat="43.78167" lon="4.18622">
        <ele>111</ele>
        <time>2012-03-11T12:17:34Z</time>
      </trkpt>
      <trkpt lat="43.78166" lon="4.18631">
        <ele>111</ele>
        <time>2012-03-11T12:17:35Z</time>
      </trkpt>
      <trkpt lat="43.78165" lon="4.18639">
        <ele>110</ele>
        <time>2012-03-11T12:17:36Z</time>
      </trkpt>
      <trkpt lat="43.78162" lon="4.18645">
        <ele>110</ele>
        <time>2012-03-11T12:17:37Z</time>
      </trkpt>
      <trkpt lat="43.78158" lon="4.1865">
        <ele>109</ele>
        <time>2012-03-11T12:17:38Z</time>
      </trkpt>
      <trkpt lat="43.78155" lon="4.18654">
        <ele>109</ele>
        <time>2012-03-11T12:17:39Z</time>
      </trkpt>
      <trkpt lat="43.78154" lon="4.18659">
        <ele>108</ele>
        <time>2012-03-11T12:17:40Z</time>
      </trkpt>
      <trkpt lat="43.78156" lon="4.18665">
        <ele>108</ele>
        <time>2012-03-11T12:17:41Z</time>
      </trkpt>
      <trkpt lat="43.78157" lon="4.18671">
        <ele>108</ele>
        <time>2012-03-11T12:17:42Z</time>
      </trkpt>
      <trkpt lat="43.78158" lon="4.18678">
        <ele>107</ele>
        <time>2012-03-11T12:17:43Z</time>
      </trkpt>
      <trkpt lat="43.78157" lon="4.18685">
        <ele>107</ele>
        <time>2012-03-11T12:17:44Z</time>
      </trkpt>
      <trkpt lat="43.78156" lon="4.18692">
        <ele>106</ele>
        <time>2012-03-11T12:17:45Z</time>
      </trkpt>
      <trkpt lat="43.78156" lon="4.187">
        <ele>106</ele>
        <time>2012-03-11T12:17:46Z</time>
      </trkpt>
      <trkpt lat="43.78158" lon="4.18708">
        <ele>106</ele>
        <time>2012-03-11T12:17:47Z</time>
      </trkpt>
      <trkpt lat="43.7816" lon="4.18715">
        <ele>105</ele>
        <time>2012-03-11T12:17:48Z</time>
      </trkpt>
      <trkpt lat="43.78162" lon="4.18723">
        <ele>105</ele>
        <time>2012-03-11T12:17:49Z</time>
      </trkpt>
      <trkpt lat="43.78163" lon="4.1873">
        <ele>105</ele>
        <time>2012-03-11T12:17:50Z</time>
      </trkpt>
      <trkpt lat="43.78164" lon="4.18737">
        <ele>105</ele>
        <time>2012-03-11T12:17:51Z</time>
      </trkpt>
      <trkpt lat="43.78165" lon="4.18743">
        <ele>105</ele>
        <time>2012-03-11T12:17:52Z</time>
      </trkpt>
      <trkpt lat="43.78166" lon="4.18748">
        <ele>105</ele>
        <time>2012-03-11T12:17:53Z</time>
      </trkpt>
      <trkpt lat="43.78167" lon="4.18753">
        <ele>104</ele>
        <time>2012-03-11T12:17:54Z</time>
      </trkpt>
      <trkpt lat="43.78168" lon="4.18758">
        <ele>104</ele>
        <time>2012-03-11T12:17:55Z</time>
      </trkpt>
      <trkpt lat="43.78169" lon="4.18764">
        <ele>104</ele>
        <time>2012-03-11T12:17:56Z</time>
      </trkpt>
      <trkpt lat="43.7817" lon="4.18769">
        <ele>104</ele>
        <time>2012-03-11T12:17:57Z</time>
      </trkpt>
      <trkpt lat="43.7817" lon="4.18774">
        <ele>104</ele>
        <time>2012-03-11T12:17:58Z</time>
      </trkpt>
      <trkpt lat="43.7817" lon="4.18777">
        <ele>104</ele>
        <time>2012-03-11T12:17:59Z</time>
      </trkpt>
      <trkpt lat="43.7817" lon="4.1878">
        <ele>104</ele>
        <time>2012-03-11T12:18:00Z</time>
      </trkpt>
      <trkpt lat="43.7817" lon="4.18782">
        <ele>104</ele>
        <time>2012-03-11T12:18:01Z</time>
      </trkpt>
      <trkpt lat="43.78169" lon="4.18786">
        <ele>104</ele>
        <time>2012-03-11T12:18:02Z</time>
      </trkpt>
      <trkpt lat="43.78169" lon="4.18789">
        <ele>104</ele>
        <time>2012-03-11T12:18:03Z</time>
      </trkpt>
      <trkpt lat="43.78169" lon="4.18793">
        <ele>104</ele>
        <time>2012-03-11T12:18:04Z</time>
      </trkpt>
      <trkpt lat="43.78168" lon="4.18796">
        <ele>104</ele>
        <time>2012-03-11T12:18:05Z</time>
      </trkpt>
      <trkpt lat="43.78168" lon="4.188">
        <ele>104</ele>
        <time>2012-03-11T12:18:06Z</time>
      </trkpt>
      <trkpt lat="43.78168" lon="4.18803">
        <ele>104</ele>
        <time>2012-03-11T12:18:07Z</time>
      </trkpt>
      <trkpt lat="43.78167" lon="4.18807">
        <ele>104</ele>
        <time>2012-03-11T12:18:08Z</time>
      </trkpt>
      <trkpt lat="43.78167" lon="4.18811">
        <ele>104</ele>
        <time>2012-03-11T12:18:09Z</time>
      </trkpt>
      <trkpt lat="43.78165" lon="4.18815">
        <ele>104</ele>
        <time>2012-03-11T12:18:10Z</time>
      </trkpt>
      <trkpt lat="43.78164" lon="4.1882">
        <ele>104</ele>
        <time>2012-03-11T12:18:11Z</time>
      </trkpt>
      <trkpt lat="43.78161" lon="4.18826">
        <ele>104</ele>
        <time>2012-03-11T12:18:12Z</time>
      </trkpt>
      <trkpt lat="43.78158" lon="4.18833">
        <ele>104</ele>
        <time>2012-03-11T12:18:13Z</time>
      </trkpt>
      <trkpt lat="43.78156" lon="4.18842">
        <ele>104</ele>
        <time>2012-03-11T12:18:14Z</time>
      </trkpt>
      <trkpt lat="43.78154" lon="4.1885">
        <ele>104</ele>
        <time>2012-03-11T12:18:15Z</time>
      </trkpt>
      <trkpt lat="43.78152" lon="4.18856">
        <ele>104</ele>
        <time>2012-03-11T12:18:16Z</time>
      </trkpt>
      <trkpt lat="43.78151" lon="4.1886">
        <ele>104</ele>
        <time>2012-03-11T12:18:17Z</time>
      </trkpt>
      <trkpt lat="43.78149" lon="4.18863">
        <ele>104</ele>
        <time>2012-03-11T12:18:18Z</time>
      </trkpt>
      <trkpt lat="43.78146" lon="4.18866">
        <ele>104</ele>
        <time>2012-03-11T12:18:19Z</time>
      </trkpt>
      <trkpt lat="43.78143" lon="4.18869">
        <ele>104</ele>
        <time>2012-03-11T12:18:20Z</time>
      </trkpt>
      <trkpt lat="43.78142" lon="4.18873">
        <ele>104</ele>
        <time>2012-03-11T12:18:21Z</time>
      </trkpt>
      <trkpt lat="43.78142" lon="4.18878">
        <ele>103</ele>
        <time>2012-03-11T12:18:22Z</time>
      </trkpt>
      <trkpt lat="43.78144" lon="4.18884">
        <ele>103</ele>
        <time>2012-03-11T12:18:23Z</time>
      </trkpt>
      <trkpt lat="43.78147" lon="4.18891">
        <ele>103</ele>
        <time>2012-03-11T12:18:24Z</time>
      </trkpt>
      <trkpt lat="43.7815" lon="4.18898">
        <ele>102</ele>
        <time>2012-03-11T12:18:25Z</time>
      </trkpt>
      <trkpt lat="43.78153" lon="4.18903">
        <ele>101</ele>
        <time>2012-03-11T12:18:26Z</time>
      </trkpt>
      <trkpt lat="43.78157" lon="4.18909">
        <ele>100</ele>
        <time>2012-03-11T12:18:27Z</time>
      </trkpt>
      <trkpt lat="43.78161" lon="4.18915">
        <ele>100</ele>
        <time>2012-03-11T12:18:28Z</time>
      </trkpt>
      <trkpt lat="43.78165" lon="4.18921">
        <ele>99</ele>
        <time>2012-03-11T12:18:29Z</time>
      </trkpt>
      <trkpt lat="43.7817" lon="4.18928">
        <ele>98</ele>
        <time>2012-03-11T12:18:30Z</time>
      </trkpt>
      <trkpt lat="43.78175" lon="4.18935">
        <ele>98</ele>
        <time>2012-03-11T12:18:31Z</time>
      </trkpt>
      <trkpt lat="43.7818" lon="4.18942">
        <ele>97</ele>
        <time>2012-03-11T12:18:32Z</time>
      </trkpt>
      <trkpt lat="43.78185" lon="4.1895">
        <ele>96</ele>
        <time>2012-03-11T12:18:33Z</time>
      </trkpt>
      <trkpt lat="43.78188" lon="4.18956">
        <ele>96</ele>
        <time>2012-03-11T12:18:34Z</time>
      </trkpt>
      <trkpt lat="43.78193" lon="4.18962">
        <ele>95</ele>
        <time>2012-03-11T12:18:35Z</time>
      </trkpt>
      <trkpt lat="43.78198" lon="4.18968">
        <ele>95</ele>
        <time>2012-03-11T12:18:36Z</time>
      </trkpt>
      <trkpt lat="43.78204" lon="4.18975">
        <ele>95</ele>
        <time>2012-03-11T12:18:37Z</time>
      </trkpt>
      <trkpt lat="43.7821" lon="4.1898">
        <ele>95</ele>
        <time>2012-03-11T12:18:38Z</time>
      </trkpt>
      <trkpt lat="43.78217" lon="4.18982">
        <ele>94</ele>
        <time>2012-03-11T12:18:39Z</time>
      </trkpt>
      <trkpt lat="43.78224" lon="4.18984">
        <ele>93</ele>
        <time>2012-03-11T12:18:40Z</time>
      </trkpt>
      <trkpt lat="43.78231" lon="4.18985">
        <ele>93</ele>
        <time>2012-03-11T12:18:41Z</time>
      </trkpt>
      <trkpt lat="43.78236" lon="4.18985">
        <ele>92</ele>
        <time>2012-03-11T12:18:42Z</time>
      </trkpt>
      <trkpt lat="43.7824" lon="4.18984">
        <ele>91</ele>
        <time>2012-03-11T12:18:43Z</time>
      </trkpt>
      <trkpt lat="43.78241" lon="4.18986">
        <ele>83</ele>
        <time>2012-03-11T12:18:56Z</time>
      </trkpt>
      <trkpt lat="43.78243" lon="4.18986">
        <ele>83</ele>
        <time>2012-03-11T12:18:57Z</time>
      </trkpt>
      <trkpt lat="43.78244" lon="4.18987">
        <ele>83</ele>
        <time>2012-03-11T12:18:58Z</time>
      </trkpt>
      <trkpt lat="43.78247" lon="4.18987">
        <ele>83</ele>
        <time>2012-03-11T12:18:59Z</time>
      </trkpt>
      <trkpt lat="43.78249" lon="4.18988">
        <ele>83</ele>
        <time>2012-03-11T12:19:00Z</time>
      </trkpt>
      <trkpt lat="43.78252" lon="4.18989">
        <ele>83</ele>
        <time>2012-03-11T12:19:01Z</time>
      </trkpt>
      <trkpt lat="43.78255" lon="4.1899">
        <ele>83</ele>
        <time>2012-03-11T12:19:02Z</time>
      </trkpt>
      <trkpt lat="43.78259" lon="4.18991">
        <ele>83</ele>
        <time>2012-03-11T12:19:03Z</time>
      </trkpt>
      <trkpt lat="43.78262" lon="4.18993">
        <ele>83</ele>
        <time>2012-03-11T12:19:04Z</time>
      </trkpt>
      <trkpt lat="43.78266" lon="4.18995">
        <ele>83</ele>
        <time>2012-03-11T12:19:05Z</time>
      </trkpt>
      <trkpt lat="43.7827" lon="4.18997">
        <ele>83</ele>
        <time>2012-03-11T12:19:06Z</time>
      </trkpt>
      <trkpt lat="43.78274" lon="4.18999">
        <ele>83</ele>
        <time>2012-03-11T12:19:07Z</time>
      </trkpt>
      <trkpt lat="43.78277" lon="4.19001">
        <ele>83</ele>
        <time>2012-03-11T12:19:08Z</time>
      </trkpt>
      <trkpt lat="43.78279" lon="4.19004">
        <ele>83</ele>
        <time>2012-03-11T12:19:09Z</time>
      </trkpt>
      <trkpt lat="43.78281" lon="4.19007">
        <ele>83</ele>
        <time>2012-03-11T12:19:10Z</time>
      </trkpt>
      <trkpt lat="43.78281" lon="4.19009">
        <ele>83</ele>
        <time>2012-03-11T12:19:11Z</time>
      </trkpt>
      <trkpt lat="43.7828" lon="4.19011">
        <ele>82</ele>
        <time>2012-03-11T12:19:13Z</time>
      </trkpt>
      <trkpt lat="43.78279" lon="4.19012">
        <ele>82</ele>
        <time>2012-03-11T12:19:14Z</time>
      </trkpt>
      <trkpt lat="43.78277" lon="4.19014">
        <ele>82</ele>
        <time>2012-03-11T12:19:15Z</time>
      </trkpt>
      <trkpt lat="43.78275" lon="4.19017">
        <ele>82</ele>
        <time>2012-03-11T12:19:16Z</time>
      </trkpt>
      <trkpt lat="43.78273" lon="4.1902">
        <ele>81</ele>
        <time>2012-03-11T12:19:17Z</time>
      </trkpt>
      <trkpt lat="43.7827" lon="4.19023">
        <ele>81</ele>
        <time>2012-03-11T12:19:18Z</time>
      </trkpt>
      <trkpt lat="43.78267" lon="4.19026">
        <ele>81</ele>
        <time>2012-03-11T12:19:19Z</time>
      </trkpt>
      <trkpt lat="43.78265" lon="4.19029">
        <ele>80</ele>
        <time>2012-03-11T12:19:20Z</time>
      </trkpt>
      <trkpt lat="43.78262" lon="4.19031">
        <ele>80</ele>
        <time>2012-03-11T12:19:21Z</time>
      </trkpt>
      <trkpt lat="43.78262" lon="4.19034">
        <ele>80</ele>
        <time>2012-03-11T12:19:22Z</time>
      </trkpt>
      <trkpt lat="43.78263" lon="4.19036">
        <ele>80</ele>
        <time>2012-03-11T12:19:23Z</time>
      </trkpt>
      <trkpt lat="43.78264" lon="4.19038">
        <ele>80</ele>
        <time>2012-03-11T12:19:24Z</time>
      </trkpt>
      <trkpt lat="43.78265" lon="4.1904">
        <ele>80</ele>
        <time>2012-03-11T12:19:25Z</time>
      </trkpt>
      <trkpt lat="43.78268" lon="4.19043">
        <ele>79</ele>
        <time>2012-03-11T12:19:26Z</time>
      </trkpt>
      <trkpt lat="43.78273" lon="4.19046">
        <ele>79</ele>
        <time>2012-03-11T12:19:27Z</time>
      </trkpt>
      <trkpt lat="43.78278" lon="4.19051">
        <ele>79</ele>
        <time>2012-03-11T12:19:28Z</time>
      </trkpt>
      <trkpt lat="43.78284" lon="4.19057">
        <ele>79</ele>
        <time>2012-03-11T12:19:29Z</time>
      </trkpt>
      <trkpt lat="43.78289" lon="4.19065">
        <ele>79</ele>
        <time>2012-03-11T12:19:30Z</time>
      </trkpt>
      <trkpt lat="43.78294" lon="4.19075">
        <ele>79</ele>
        <time>2012-03-11T12:19:31Z</time>
      </trkpt>
      <trkpt lat="43.78299" lon="4.19083">
        <ele>79</ele>
        <time>2012-03-11T12:19:32Z</time>
      </trkpt>
      <trkpt lat="43.78303" lon="4.19088">
        <ele>79</ele>
        <time>2012-03-11T12:19:33Z</time>
      </trkpt>
      <trkpt lat="43.78307" lon="4.19094">
        <ele>79</ele>
        <time>2012-03-11T12:19:34Z</time>
      </trkpt>
      <trkpt lat="43.78309" lon="4.191">
        <ele>78</ele>
        <time>2012-03-11T12:19:35Z</time>
      </trkpt>
      <trkpt lat="43.78309" lon="4.19106">
        <ele>77</ele>
        <time>2012-03-11T12:19:36Z</time>
      </trkpt>
      <trkpt lat="43.78308" lon="4.19115">
        <ele>76</ele>
        <time>2012-03-11T12:19:37Z</time>
      </trkpt>
      <trkpt lat="43.78307" lon="4.19125">
        <ele>75</ele>
        <time>2012-03-11T12:19:38Z</time>
      </trkpt>
      <trkpt lat="43.78305" lon="4.19135">
        <ele>74</ele>
        <time>2012-03-11T12:19:39Z</time>
      </trkpt>
      <trkpt lat="43.78301" lon="4.19146">
        <ele>73</ele>
        <time>2012-03-11T12:19:40Z</time>
      </trkpt>
      <trkpt lat="43.78298" lon="4.19156">
        <ele>72</ele>
        <time>2012-03-11T12:19:41Z</time>
      </trkpt>
      <trkpt lat="43.78296" lon="4.19166">
        <ele>71</ele>
        <time>2012-03-11T12:19:42Z</time>
      </trkpt>
      <trkpt lat="43.78294" lon="4.19173">
        <ele>70</ele>
        <time>2012-03-11T12:19:43Z</time>
      </trkpt>
      <trkpt lat="43.78293" lon="4.19179">
        <ele>69</ele>
        <time>2012-03-11T12:19:44Z</time>
      </trkpt>
      <trkpt lat="43.78294" lon="4.19185">
        <ele>68</ele>
        <time>2012-03-11T12:19:45Z</time>
      </trkpt>
      <trkpt lat="43.78295" lon="4.19189">
        <ele>67</ele>
        <time>2012-03-11T12:19:46Z</time>
      </trkpt>
      <trkpt lat="43.78297" lon="4.19193">
        <ele>66</ele>
        <time>2012-03-11T12:19:47Z</time>
      </trkpt>
      <trkpt lat="43.78302" lon="4.19195">
        <ele>65</ele>
        <time>2012-03-11T12:19:48Z</time>
      </trkpt>
      <trkpt lat="43.78306" lon="4.19196">
        <ele>64</ele>
        <time>2012-03-11T12:19:49Z</time>
      </trkpt>
      <trkpt lat="43.78312" lon="4.19196">
        <ele>63</ele>
        <time>2012-03-11T12:19:50Z</time>
      </trkpt>
      <trkpt lat="43.78315" lon="4.19198">
        <ele>62</ele>
        <time>2012-03-11T12:19:51Z</time>
      </trkpt>
      <trkpt lat="43.7832" lon="4.192">
        <ele>61</ele>
        <time>2012-03-11T12:19:52Z</time>
      </trkpt>
      <trkpt lat="43.78323" lon="4.19202">
        <ele>60</ele>
        <time>2012-03-11T12:19:53Z</time>
      </trkpt>
      <trkpt lat="43.78325" lon="4.19205">
        <ele>59</ele>
        <time>2012-03-11T12:19:54Z</time>
      </trkpt>
      <trkpt lat="43.78326" lon="4.19207">
        <ele>58</ele>
        <time>2012-03-11T12:19:55Z</time>
      </trkpt>
      <trkpt lat="43.78326" lon="4.1921">
        <ele>57</ele>
        <time>2012-03-11T12:19:56Z</time>
      </trkpt>
      <trkpt lat="43.78325" lon="4.19212">
        <ele>57</ele>
        <time>2012-03-11T12:19:57Z</time>
      </trkpt>
      <trkpt lat="43.78324" lon="4.19215">
        <ele>56</ele>
        <time>2012-03-11T12:19:58Z</time>
      </trkpt>
      <trkpt lat="43.78323" lon="4.19218">
        <ele>55</ele>
        <time>2012-03-11T12:19:59Z</time>
      </trkpt>
      <trkpt lat="43.78323" lon="4.1922">
        <ele>54</ele>
        <time>2012-03-11T12:20:00Z</time>
      </trkpt>
      <trkpt lat="43.78322" lon="4.19223">
        <ele>54</ele>
        <time>2012-03-11T12:20:01Z</time>
      </trkpt>
      <trkpt lat="43.78321" lon="4.19227">
        <ele>53</ele>
        <time>2012-03-11T12:20:02Z</time>
      </trkpt>
      <trkpt lat="43.7832" lon="4.1923">
        <ele>53</ele>
        <time>2012-03-11T12:20:03Z</time>
      </trkpt>
      <trkpt lat="43.78317" lon="4.19232">
        <ele>53</ele>
        <time>2012-03-11T12:20:04Z</time>
      </trkpt>
      <trkpt lat="43.78314" lon="4.19233">
        <ele>53</ele>
        <time>2012-03-11T12:20:05Z</time>
      </trkpt>
      <trkpt lat="43.7831" lon="4.19234">
        <ele>53</ele>
        <time>2012-03-11T12:20:06Z</time>
      </trkpt>
      <trkpt lat="43.78306" lon="4.19235">
        <ele>52</ele>
        <time>2012-03-11T12:20:07Z</time>
      </trkpt>
      <trkpt lat="43.78302" lon="4.19235">
        <ele>51</ele>
        <time>2012-03-11T12:20:08Z</time>
      </trkpt>
      <trkpt lat="43.78299" lon="4.19236">
        <ele>50</ele>
        <time>2012-03-11T12:20:09Z</time>
      </trkpt>
      <trkpt lat="43.78296" lon="4.19237">
        <ele>49</ele>
        <time>2012-03-11T12:20:10Z</time>
      </trkpt>
      <trkpt lat="43.78292" lon="4.1924">
        <ele>48</ele>
        <time>2012-03-11T12:20:11Z</time>
      </trkpt>
      <trkpt lat="43.78289" lon="4.19242">
        <ele>47</ele>
        <time>2012-03-11T12:20:12Z</time>
      </trkpt>
      <trkpt lat="43.78284" lon="4.19245">
        <ele>46</ele>
        <time>2012-03-11T12:20:13Z</time>
      </trkpt>
      <trkpt lat="43.7828" lon="4.19249">
        <ele>45</ele>
        <time>2012-03-11T12:20:14Z</time>
      </trkpt>
      <trkpt lat="43.78275" lon="4.19252">
        <ele>45</ele>
        <time>2012-03-11T12:20:15Z</time>
      </trkpt>
      <trkpt lat="43.7827" lon="4.19255">
        <ele>45</ele>
        <time>2012-03-11T12:20:16Z</time>
      </trkpt>
      <trkpt lat="43.78265" lon="4.19258">
        <ele>44</ele>
        <time>2012-03-11T12:20:17Z</time>
      </trkpt>
      <trkpt lat="43.78261" lon="4.19261">
        <ele>44</ele>
        <time>2012-03-11T12:20:18Z</time>
      </trkpt>
      <trkpt lat="43.78256" lon="4.19264">
        <ele>44</ele>
        <time>2012-03-11T12:20:19Z</time>
      </trkpt>
      <trkpt lat="43.78251" lon="4.19267">
        <ele>44</ele>
        <time>2012-03-11T12:20:20Z</time>
      </trkpt>
      <trkpt lat="43.78245" lon="4.1927">
        <ele>44</ele>
        <time>2012-03-11T12:20:21Z</time>
      </trkpt>
      <trkpt lat="43.7824" lon="4.19274">
        <ele>44</ele>
        <time>2012-03-11T12:20:22Z</time>
      </trkpt>
      <trkpt lat="43.78234" lon="4.19277">
        <ele>44</ele>
        <time>2012-03-11T12:20:23Z</time>
      </trkpt>
      <trkpt lat="43.78229" lon="4.1928">
        <ele>44</ele>
        <time>2012-03-11T12:20:24Z</time>
      </trkpt>
      <trkpt lat="43.78223" lon="4.19283">
        <ele>44</ele>
        <time>2012-03-11T12:20:25Z</time>
      </trkpt>
      <trkpt lat="43.78218" lon="4.19286">
        <ele>44</ele>
        <time>2012-03-11T12:20:26Z</time>
      </trkpt>
      <trkpt lat="43.78212" lon="4.1929">
        <ele>44</ele>
        <time>2012-03-11T12:20:27Z</time>
      </trkpt>
      <trkpt lat="43.78207" lon="4.19294">
        <ele>44</ele>
        <time>2012-03-11T12:20:28Z</time>
      </trkpt>
      <trkpt lat="43.78203" lon="4.19297">
        <ele>44</ele>
        <time>2012-03-11T12:20:29Z</time>
      </trkpt>
      <trkpt lat="43.78199" lon="4.193">
        <ele>44</ele>
        <time>2012-03-11T12:20:30Z</time>
      </trkpt>
      <trkpt lat="43.78196" lon="4.19303">
        <ele>44</ele>
        <time>2012-03-11T12:20:31Z</time>
      </trkpt>
      <trkpt lat="43.78194" lon="4.19304">
        <ele>44</ele>
        <time>2012-03-11T12:20:32Z</time>
      </trkpt>
      <trkpt lat="43.78193" lon="4.19305">
        <ele>44</ele>
        <time>2012-03-11T12:20:33Z</time>
      </trkpt>
      <trkpt lat="43.78192" lon="4.19303">
        <ele>44</ele>
        <time>2012-03-11T12:20:39Z</time>
      </trkpt>
      <trkpt lat="43.78191" lon="4.19302">
        <ele>42</ele>
        <time>2012-03-11T12:20:42Z</time>
      </trkpt>
      <trkpt lat="43.78189" lon="4.19301">
        <ele>42</ele>
        <time>2012-03-11T12:20:47Z</time>
      </trkpt>
      <trkpt lat="43.78189" lon="4.19303">
        <ele>42</ele>
        <time>2012-03-11T12:20:58Z</time>
      </trkpt>
      <trkpt lat="43.78188" lon="4.19302">
        <ele>42</ele>
        <time>2012-03-11T12:21:00Z</time>
      </trkpt>
      <trkpt lat="43.78187" lon="4.19301">
        <ele>42</ele>
        <time>2012-03-11T12:21:03Z</time>
      </trkpt>
      <trkpt lat="43.78187" lon="4.19302">
        <ele>42</ele>
        <time>2012-03-11T12:21:05Z</time>
      </trkpt>
      <trkpt lat="43.78188" lon="4.19304">
        <ele>42</ele>
        <time>2012-03-11T12:21:07Z</time>
      </trkpt>
      <trkpt lat="43.78189" lon="4.19306">
        <ele>42</ele>
        <time>2012-03-11T12:21:09Z</time>
      </trkpt>
      <trkpt lat="43.7819" lon="4.19308">
        <ele>42</ele>
        <time>2012-03-11T12:21:11Z</time>
      </trkpt>
      <trkpt lat="43.7819" lon="4.19309">
        <ele>42</ele>
        <time>2012-03-11T12:21:13Z</time>
      </trkpt>
      <trkpt lat="43.78188" lon="4.19311">
        <ele>42</ele>
        <time>2012-03-11T12:21:16Z</time>
      </trkpt>
      <trkpt lat="43.78188" lon="4.19312">
        <ele>42</ele>
        <time>2012-03-11T12:21:22Z</time>
      </trkpt>
      <trkpt lat="43.78187" lon="4.19312">
        <ele>42</ele>
        <time>2012-03-11T12:21:34Z</time>
      </trkpt>
      <trkpt lat="43.78186" lon="4.19312">
        <ele>42</ele>
        <time>2012-03-11T12:21:37Z</time>
      </trkpt>
    </trkseg>
  </trk>
</gpx>